<?xml version="1.0" encoding="UTF-8"?>
<gpx version="1.1" creator="https://www.youtrack.es" xsi:schemaLocation="http://www.topografix.com/GPX/1/1 http://www.topografix.com/GPX/1/1/gpx.xsd http://www.garmin.com/xmlschemas/GpxExtensions/v3 http://www.garmin.com/xmlschemas/GpxExtensionsv3.xsd http://www.garmin.com/xmlschemas/TrackPointExtension/v1 http://www.garmin.com/xmlschemas/TrackPointExtensionv1.xsd" xmlns:gpxtpx="http://www.garmin.com/xmlschemas/TrackPointExtension/v1" xmlns:gpxx="http://www.garmin.com/xmlschemas/GpxExtensions/v3" xmlns:xsi="http://www.w3.org/2001/XMLSchema-instance">
  <metadata>
    <link href="https://www.youtrack.es">
      <text>YouTrack.es</text>
    </link>
    <time>2026-05-08T12:47:59Z</time>
  </metadata>
  <trk>
    <src>https://www.youtrack.es</src>
    <link href="https://www.youtrack.es/ruta/15276-davidnen">
      <text>YouTrack.es</text>
    </link>
    <trkseg>
      <trkpt lat="41.1661" lon="1.10731">
        <ele>140</ele>
        <time>2020-08-22 08:45:50</time>
      </trkpt>
      <trkpt lat="41.16611" lon="1.10736">
        <ele>140</ele>
        <time>2020-08-22 08:45:52</time>
      </trkpt>
      <trkpt lat="41.16613" lon="1.1074">
        <ele>140</ele>
        <time>2020-08-22 08:45:53</time>
      </trkpt>
      <trkpt lat="41.16619" lon="1.10753">
        <ele>139.8</ele>
        <time>2020-08-22 08:45:56</time>
      </trkpt>
      <trkpt lat="41.16621" lon="1.10759">
        <ele>139.8</ele>
        <time>2020-08-22 08:45:57</time>
      </trkpt>
      <trkpt lat="41.16632" lon="1.10779">
        <ele>140</ele>
        <time>2020-08-22 08:46:01</time>
      </trkpt>
      <trkpt lat="41.16635" lon="1.10784">
        <ele>140</ele>
        <time>2020-08-22 08:46:02</time>
      </trkpt>
      <trkpt lat="41.16641" lon="1.10795">
        <ele>140</ele>
        <time>2020-08-22 08:46:04</time>
      </trkpt>
      <trkpt lat="41.1665" lon="1.1081">
        <ele>140.2</ele>
        <time>2020-08-22 08:46:07</time>
      </trkpt>
      <trkpt lat="41.16654" lon="1.10813">
        <ele>140.2</ele>
        <time>2020-08-22 08:46:08</time>
      </trkpt>
      <trkpt lat="41.16659" lon="1.10815">
        <ele>140.2</ele>
        <time>2020-08-22 08:46:09</time>
      </trkpt>
      <trkpt lat="41.16664" lon="1.10815">
        <ele>140.4</ele>
        <time>2020-08-22 08:46:10</time>
      </trkpt>
      <trkpt lat="41.16669" lon="1.10813">
        <ele>140.4</ele>
        <time>2020-08-22 08:46:11</time>
      </trkpt>
      <trkpt lat="41.16673" lon="1.1081">
        <ele>140.4</ele>
        <time>2020-08-22 08:46:12</time>
      </trkpt>
      <trkpt lat="41.16678" lon="1.10806">
        <ele>140.4</ele>
        <time>2020-08-22 08:46:13</time>
      </trkpt>
      <trkpt lat="41.16681" lon="1.10801">
        <ele>140.6</ele>
        <time>2020-08-22 08:46:14</time>
      </trkpt>
      <trkpt lat="41.16684" lon="1.10795">
        <ele>140.6</ele>
        <time>2020-08-22 08:46:15</time>
      </trkpt>
      <trkpt lat="41.16686" lon="1.10789">
        <ele>140.6</ele>
        <time>2020-08-22 08:46:16</time>
      </trkpt>
      <trkpt lat="41.16686" lon="1.10782">
        <ele>140.6</ele>
        <time>2020-08-22 08:46:17</time>
      </trkpt>
      <trkpt lat="41.16687" lon="1.10764">
        <ele>140.8</ele>
        <time>2020-08-22 08:46:20</time>
      </trkpt>
      <trkpt lat="41.16686" lon="1.10757">
        <ele>140.8</ele>
        <time>2020-08-22 08:46:21</time>
      </trkpt>
      <trkpt lat="41.16686" lon="1.10751">
        <ele>141</ele>
        <time>2020-08-22 08:46:22</time>
      </trkpt>
      <trkpt lat="41.16686" lon="1.10745">
        <ele>141</ele>
        <time>2020-08-22 08:46:23</time>
      </trkpt>
      <trkpt lat="41.16686" lon="1.10738">
        <ele>141.2</ele>
        <time>2020-08-22 08:46:24</time>
      </trkpt>
      <trkpt lat="41.16686" lon="1.10732">
        <ele>141.2</ele>
        <time>2020-08-22 08:46:25</time>
      </trkpt>
      <trkpt lat="41.16686" lon="1.10725">
        <ele>141.2</ele>
        <time>2020-08-22 08:46:26</time>
      </trkpt>
      <trkpt lat="41.16685" lon="1.10694">
        <ele>141.6</ele>
        <time>2020-08-22 08:46:31</time>
      </trkpt>
      <trkpt lat="41.16685" lon="1.10688">
        <ele>141.8</ele>
        <time>2020-08-22 08:46:32</time>
      </trkpt>
      <trkpt lat="41.16684" lon="1.10675">
        <ele>142</ele>
        <time>2020-08-22 08:46:34</time>
      </trkpt>
      <trkpt lat="41.16684" lon="1.10668">
        <ele>142.2</ele>
        <time>2020-08-22 08:46:35</time>
      </trkpt>
      <trkpt lat="41.16684" lon="1.10662">
        <ele>142.2</ele>
        <time>2020-08-22 08:46:36</time>
      </trkpt>
      <trkpt lat="41.16684" lon="1.10656">
        <ele>142.4</ele>
        <time>2020-08-22 08:46:37</time>
      </trkpt>
      <trkpt lat="41.16683" lon="1.1065">
        <ele>142.4</ele>
        <time>2020-08-22 08:46:38</time>
      </trkpt>
      <trkpt lat="41.16683" lon="1.10643">
        <ele>142.6</ele>
        <time>2020-08-22 08:46:39</time>
      </trkpt>
      <trkpt lat="41.16683" lon="1.10637">
        <ele>142.6</ele>
        <time>2020-08-22 08:46:40</time>
      </trkpt>
      <trkpt lat="41.16683" lon="1.1063">
        <ele>142.8</ele>
        <time>2020-08-22 08:46:41</time>
      </trkpt>
      <trkpt lat="41.16682" lon="1.10624">
        <ele>142.8</ele>
        <time>2020-08-22 08:46:42</time>
      </trkpt>
      <trkpt lat="41.16682" lon="1.10618">
        <ele>142.8</ele>
        <time>2020-08-22 08:46:43</time>
      </trkpt>
      <trkpt lat="41.16682" lon="1.10611">
        <ele>143</ele>
        <time>2020-08-22 08:46:44</time>
      </trkpt>
      <trkpt lat="41.16682" lon="1.10604">
        <ele>143</ele>
        <time>2020-08-22 08:46:45</time>
      </trkpt>
      <trkpt lat="41.16682" lon="1.10599">
        <ele>143.2</ele>
        <time>2020-08-22 08:46:46</time>
      </trkpt>
      <trkpt lat="41.16681" lon="1.10592">
        <ele>143.2</ele>
        <time>2020-08-22 08:46:47</time>
      </trkpt>
      <trkpt lat="41.16681" lon="1.1058">
        <ele>143.6</ele>
        <time>2020-08-22 08:46:49</time>
      </trkpt>
      <trkpt lat="41.16681" lon="1.10573">
        <ele>143.6</ele>
        <time>2020-08-22 08:46:50</time>
      </trkpt>
      <trkpt lat="41.16681" lon="1.10567">
        <ele>143.8</ele>
        <time>2020-08-22 08:46:51</time>
      </trkpt>
      <trkpt lat="41.16681" lon="1.10561">
        <ele>143.8</ele>
        <time>2020-08-22 08:46:52</time>
      </trkpt>
      <trkpt lat="41.16681" lon="1.10555">
        <ele>144</ele>
        <time>2020-08-22 08:46:53</time>
      </trkpt>
      <trkpt lat="41.16681" lon="1.10522">
        <ele>144.4</ele>
        <time>2020-08-22 08:46:58</time>
      </trkpt>
      <trkpt lat="41.16681" lon="1.10516">
        <ele>144.4</ele>
        <time>2020-08-22 08:46:59</time>
      </trkpt>
      <trkpt lat="41.16681" lon="1.1051">
        <ele>144.6</ele>
        <time>2020-08-22 08:47:00</time>
      </trkpt>
      <trkpt lat="41.16681" lon="1.10504">
        <ele>144.6</ele>
        <time>2020-08-22 08:47:01</time>
      </trkpt>
      <trkpt lat="41.16682" lon="1.10497">
        <ele>144.8</ele>
        <time>2020-08-22 08:47:02</time>
      </trkpt>
      <trkpt lat="41.16683" lon="1.1049">
        <ele>145</ele>
        <time>2020-08-22 08:47:03</time>
      </trkpt>
      <trkpt lat="41.16683" lon="1.10485">
        <ele>145</ele>
        <time>2020-08-22 08:47:04</time>
      </trkpt>
      <trkpt lat="41.16685" lon="1.10479">
        <ele>145</ele>
        <time>2020-08-22 08:47:05</time>
      </trkpt>
      <trkpt lat="41.16687" lon="1.10474">
        <ele>145.2</ele>
        <time>2020-08-22 08:47:06</time>
      </trkpt>
      <trkpt lat="41.16692" lon="1.10469">
        <ele>145.4</ele>
        <time>2020-08-22 08:47:07</time>
      </trkpt>
      <trkpt lat="41.16695" lon="1.10469">
        <ele>145.6</ele>
        <time>2020-08-22 08:47:08</time>
      </trkpt>
      <trkpt lat="41.167" lon="1.1047">
        <ele>145.6</ele>
        <time>2020-08-22 08:47:09</time>
      </trkpt>
      <trkpt lat="41.16705" lon="1.10471">
        <ele>145.6</ele>
        <time>2020-08-22 08:47:10</time>
      </trkpt>
      <trkpt lat="41.16709" lon="1.10473">
        <ele>146</ele>
        <time>2020-08-22 08:47:11</time>
      </trkpt>
      <trkpt lat="41.16713" lon="1.10476">
        <ele>146.2</ele>
        <time>2020-08-22 08:47:12</time>
      </trkpt>
      <trkpt lat="41.16718" lon="1.10479">
        <ele>146.6</ele>
        <time>2020-08-22 08:47:13</time>
      </trkpt>
      <trkpt lat="41.16722" lon="1.10481">
        <ele>146.6</ele>
        <time>2020-08-22 08:47:14</time>
      </trkpt>
      <trkpt lat="41.16727" lon="1.10484">
        <ele>147.2</ele>
        <time>2020-08-22 08:47:15</time>
      </trkpt>
      <trkpt lat="41.16732" lon="1.10487">
        <ele>147.4</ele>
        <time>2020-08-22 08:47:16</time>
      </trkpt>
      <trkpt lat="41.16736" lon="1.1049">
        <ele>148</ele>
        <time>2020-08-22 08:47:17</time>
      </trkpt>
      <trkpt lat="41.16741" lon="1.10493">
        <ele>148.6</ele>
        <time>2020-08-22 08:47:18</time>
      </trkpt>
      <trkpt lat="41.16746" lon="1.10496">
        <ele>148.4</ele>
        <time>2020-08-22 08:47:19</time>
      </trkpt>
      <trkpt lat="41.16751" lon="1.10499">
        <ele>148.6</ele>
        <time>2020-08-22 08:47:20</time>
      </trkpt>
      <trkpt lat="41.16756" lon="1.10502">
        <ele>148.8</ele>
        <time>2020-08-22 08:47:21</time>
      </trkpt>
      <trkpt lat="41.16762" lon="1.10505">
        <ele>148.8</ele>
        <time>2020-08-22 08:47:22</time>
      </trkpt>
      <trkpt lat="41.16769" lon="1.10509">
        <ele>148.8</ele>
        <time>2020-08-22 08:47:23</time>
      </trkpt>
      <trkpt lat="41.16774" lon="1.10511">
        <ele>148.8</ele>
        <time>2020-08-22 08:47:24</time>
      </trkpt>
      <trkpt lat="41.16781" lon="1.10516">
        <ele>148.8</ele>
        <time>2020-08-22 08:47:25</time>
      </trkpt>
      <trkpt lat="41.16786" lon="1.10519">
        <ele>148.8</ele>
        <time>2020-08-22 08:47:26</time>
      </trkpt>
      <trkpt lat="41.16792" lon="1.10523">
        <ele>148.6</ele>
        <time>2020-08-22 08:47:27</time>
      </trkpt>
      <trkpt lat="41.16799" lon="1.10526">
        <ele>148.6</ele>
        <time>2020-08-22 08:47:28</time>
      </trkpt>
      <trkpt lat="41.16805" lon="1.1053">
        <ele>148.6</ele>
        <time>2020-08-22 08:47:29</time>
      </trkpt>
      <trkpt lat="41.16809" lon="1.10532">
        <ele>148.6</ele>
        <time>2020-08-22 08:47:30</time>
      </trkpt>
      <trkpt lat="41.16815" lon="1.10535">
        <ele>148.6</ele>
        <time>2020-08-22 08:47:31</time>
      </trkpt>
      <trkpt lat="41.1682" lon="1.10538">
        <ele>148.6</ele>
        <time>2020-08-22 08:47:32</time>
      </trkpt>
      <trkpt lat="41.16826" lon="1.10541">
        <ele>148.6</ele>
        <time>2020-08-22 08:47:33</time>
      </trkpt>
      <trkpt lat="41.16831" lon="1.10544">
        <ele>148.6</ele>
        <time>2020-08-22 08:47:34</time>
      </trkpt>
      <trkpt lat="41.16836" lon="1.10547">
        <ele>148.6</ele>
        <time>2020-08-22 08:47:35</time>
      </trkpt>
      <trkpt lat="41.16841" lon="1.1055">
        <ele>148.6</ele>
        <time>2020-08-22 08:47:36</time>
      </trkpt>
      <trkpt lat="41.16847" lon="1.10553">
        <ele>148.8</ele>
        <time>2020-08-22 08:47:37</time>
      </trkpt>
      <trkpt lat="41.16852" lon="1.10556">
        <ele>148.8</ele>
        <time>2020-08-22 08:47:38</time>
      </trkpt>
      <trkpt lat="41.16856" lon="1.1056">
        <ele>148.8</ele>
        <time>2020-08-22 08:47:39</time>
      </trkpt>
      <trkpt lat="41.16861" lon="1.10562">
        <ele>149</ele>
        <time>2020-08-22 08:47:40</time>
      </trkpt>
      <trkpt lat="41.16866" lon="1.10563">
        <ele>149</ele>
        <time>2020-08-22 08:47:41</time>
      </trkpt>
      <trkpt lat="41.16871" lon="1.10564">
        <ele>149.2</ele>
        <time>2020-08-22 08:47:42</time>
      </trkpt>
      <trkpt lat="41.16876" lon="1.10564">
        <ele>149.2</ele>
        <time>2020-08-22 08:47:43</time>
      </trkpt>
      <trkpt lat="41.16882" lon="1.10564">
        <ele>149.2</ele>
        <time>2020-08-22 08:47:44</time>
      </trkpt>
      <trkpt lat="41.16888" lon="1.10565">
        <ele>149.4</ele>
        <time>2020-08-22 08:47:45</time>
      </trkpt>
      <trkpt lat="41.16893" lon="1.10565">
        <ele>149.4</ele>
        <time>2020-08-22 08:47:46</time>
      </trkpt>
      <trkpt lat="41.16899" lon="1.10566">
        <ele>149.4</ele>
        <time>2020-08-22 08:47:47</time>
      </trkpt>
      <trkpt lat="41.16905" lon="1.10566">
        <ele>149.4</ele>
        <time>2020-08-22 08:47:48</time>
      </trkpt>
      <trkpt lat="41.1691" lon="1.10566">
        <ele>149.6</ele>
        <time>2020-08-22 08:47:49</time>
      </trkpt>
      <trkpt lat="41.16916" lon="1.10565">
        <ele>149.6</ele>
        <time>2020-08-22 08:47:50</time>
      </trkpt>
      <trkpt lat="41.16921" lon="1.10564">
        <ele>149.8</ele>
        <time>2020-08-22 08:47:51</time>
      </trkpt>
      <trkpt lat="41.16927" lon="1.10564">
        <ele>149.8</ele>
        <time>2020-08-22 08:47:52</time>
      </trkpt>
      <trkpt lat="41.16932" lon="1.10563">
        <ele>149.8</ele>
        <time>2020-08-22 08:47:53</time>
      </trkpt>
      <trkpt lat="41.16937" lon="1.10563">
        <ele>150</ele>
        <time>2020-08-22 08:47:54</time>
      </trkpt>
      <trkpt lat="41.16942" lon="1.10562">
        <ele>150</ele>
        <time>2020-08-22 08:47:55</time>
      </trkpt>
      <trkpt lat="41.16947" lon="1.10562">
        <ele>150.4</ele>
        <time>2020-08-22 08:47:56</time>
      </trkpt>
      <trkpt lat="41.16953" lon="1.10561">
        <ele>150.4</ele>
        <time>2020-08-22 08:47:57</time>
      </trkpt>
      <trkpt lat="41.16957" lon="1.10561">
        <ele>150.6</ele>
        <time>2020-08-22 08:47:58</time>
      </trkpt>
      <trkpt lat="41.16962" lon="1.1056">
        <ele>150.8</ele>
        <time>2020-08-22 08:47:59</time>
      </trkpt>
      <trkpt lat="41.16966" lon="1.10559">
        <ele>151</ele>
        <time>2020-08-22 08:48:00</time>
      </trkpt>
      <trkpt lat="41.16971" lon="1.10558">
        <ele>151</ele>
        <time>2020-08-22 08:48:01</time>
      </trkpt>
      <trkpt lat="41.16976" lon="1.10558">
        <ele>151.2</ele>
        <time>2020-08-22 08:48:02</time>
      </trkpt>
      <trkpt lat="41.16981" lon="1.10557">
        <ele>151.4</ele>
        <time>2020-08-22 08:48:03</time>
      </trkpt>
      <trkpt lat="41.16986" lon="1.10556">
        <ele>151.4</ele>
        <time>2020-08-22 08:48:04</time>
      </trkpt>
      <trkpt lat="41.16991" lon="1.10556">
        <ele>151.6</ele>
        <time>2020-08-22 08:48:05</time>
      </trkpt>
      <trkpt lat="41.16996" lon="1.10555">
        <ele>151.6</ele>
        <time>2020-08-22 08:48:06</time>
      </trkpt>
      <trkpt lat="41.17001" lon="1.10555">
        <ele>151.8</ele>
        <time>2020-08-22 08:48:07</time>
      </trkpt>
      <trkpt lat="41.17006" lon="1.10554">
        <ele>152</ele>
        <time>2020-08-22 08:48:08</time>
      </trkpt>
      <trkpt lat="41.1701" lon="1.10553">
        <ele>152</ele>
        <time>2020-08-22 08:48:09</time>
      </trkpt>
      <trkpt lat="41.17015" lon="1.10553">
        <ele>152.2</ele>
        <time>2020-08-22 08:48:10</time>
      </trkpt>
      <trkpt lat="41.1702" lon="1.10552">
        <ele>152.2</ele>
        <time>2020-08-22 08:48:11</time>
      </trkpt>
      <trkpt lat="41.17025" lon="1.10551">
        <ele>152.4</ele>
        <time>2020-08-22 08:48:12</time>
      </trkpt>
      <trkpt lat="41.1703" lon="1.10551">
        <ele>152.6</ele>
        <time>2020-08-22 08:48:13</time>
      </trkpt>
      <trkpt lat="41.17035" lon="1.1055">
        <ele>152.6</ele>
        <time>2020-08-22 08:48:14</time>
      </trkpt>
      <trkpt lat="41.17039" lon="1.10549">
        <ele>152.8</ele>
        <time>2020-08-22 08:48:15</time>
      </trkpt>
      <trkpt lat="41.17044" lon="1.10549">
        <ele>152.8</ele>
        <time>2020-08-22 08:48:16</time>
      </trkpt>
      <trkpt lat="41.17049" lon="1.10548">
        <ele>153</ele>
        <time>2020-08-22 08:48:17</time>
      </trkpt>
      <trkpt lat="41.17054" lon="1.10548">
        <ele>153</ele>
        <time>2020-08-22 08:48:18</time>
      </trkpt>
      <trkpt lat="41.17058" lon="1.10548">
        <ele>153.2</ele>
        <time>2020-08-22 08:48:19</time>
      </trkpt>
      <trkpt lat="41.17063" lon="1.10547">
        <ele>153.4</ele>
        <time>2020-08-22 08:48:20</time>
      </trkpt>
      <trkpt lat="41.17068" lon="1.10546">
        <ele>153.6</ele>
        <time>2020-08-22 08:48:21</time>
      </trkpt>
      <trkpt lat="41.17073" lon="1.10545">
        <ele>153.8</ele>
        <time>2020-08-22 08:48:22</time>
      </trkpt>
      <trkpt lat="41.17078" lon="1.10544">
        <ele>154</ele>
        <time>2020-08-22 08:48:23</time>
      </trkpt>
      <trkpt lat="41.17083" lon="1.10544">
        <ele>154</ele>
        <time>2020-08-22 08:48:24</time>
      </trkpt>
      <trkpt lat="41.17087" lon="1.10543">
        <ele>154.2</ele>
        <time>2020-08-22 08:48:25</time>
      </trkpt>
      <trkpt lat="41.17092" lon="1.10543">
        <ele>154.2</ele>
        <time>2020-08-22 08:48:26</time>
      </trkpt>
      <trkpt lat="41.17097" lon="1.10542">
        <ele>154.4</ele>
        <time>2020-08-22 08:48:27</time>
      </trkpt>
      <trkpt lat="41.17102" lon="1.10542">
        <ele>154.6</ele>
        <time>2020-08-22 08:48:28</time>
      </trkpt>
      <trkpt lat="41.17107" lon="1.10541">
        <ele>154.8</ele>
        <time>2020-08-22 08:48:29</time>
      </trkpt>
      <trkpt lat="41.17111" lon="1.1054">
        <ele>155</ele>
        <time>2020-08-22 08:48:30</time>
      </trkpt>
      <trkpt lat="41.17116" lon="1.1054">
        <ele>155.2</ele>
        <time>2020-08-22 08:48:31</time>
      </trkpt>
      <trkpt lat="41.1712" lon="1.10539">
        <ele>155.4</ele>
        <time>2020-08-22 08:48:32</time>
      </trkpt>
      <trkpt lat="41.17125" lon="1.10538">
        <ele>155.4</ele>
        <time>2020-08-22 08:48:33</time>
      </trkpt>
      <trkpt lat="41.1713" lon="1.10537">
        <ele>155.6</ele>
        <time>2020-08-22 08:48:34</time>
      </trkpt>
      <trkpt lat="41.17134" lon="1.10536">
        <ele>155.8</ele>
        <time>2020-08-22 08:48:35</time>
      </trkpt>
      <trkpt lat="41.17139" lon="1.10536">
        <ele>155.8</ele>
        <time>2020-08-22 08:48:36</time>
      </trkpt>
      <trkpt lat="41.17143" lon="1.10535">
        <ele>156</ele>
        <time>2020-08-22 08:48:37</time>
      </trkpt>
      <trkpt lat="41.17147" lon="1.10535">
        <ele>156</ele>
        <time>2020-08-22 08:48:38</time>
      </trkpt>
      <trkpt lat="41.17151" lon="1.10536">
        <ele>156.4</ele>
        <time>2020-08-22 08:48:39</time>
      </trkpt>
      <trkpt lat="41.17155" lon="1.10538">
        <ele>156.6</ele>
        <time>2020-08-22 08:48:40</time>
      </trkpt>
      <trkpt lat="41.17159" lon="1.10542">
        <ele>156.8</ele>
        <time>2020-08-22 08:48:41</time>
      </trkpt>
      <trkpt lat="41.17162" lon="1.10545">
        <ele>157</ele>
        <time>2020-08-22 08:48:42</time>
      </trkpt>
      <trkpt lat="41.17165" lon="1.10549">
        <ele>157.2</ele>
        <time>2020-08-22 08:48:43</time>
      </trkpt>
      <trkpt lat="41.17169" lon="1.10552">
        <ele>157.4</ele>
        <time>2020-08-22 08:48:44</time>
      </trkpt>
      <trkpt lat="41.17173" lon="1.10554">
        <ele>157.4</ele>
        <time>2020-08-22 08:48:45</time>
      </trkpt>
      <trkpt lat="41.17176" lon="1.10554">
        <ele>157.6</ele>
        <time>2020-08-22 08:48:46</time>
      </trkpt>
      <trkpt lat="41.1718" lon="1.10553">
        <ele>157.6</ele>
        <time>2020-08-22 08:48:47</time>
      </trkpt>
      <trkpt lat="41.17184" lon="1.10552">
        <ele>157.8</ele>
        <time>2020-08-22 08:48:48</time>
      </trkpt>
      <trkpt lat="41.17188" lon="1.1055">
        <ele>158</ele>
        <time>2020-08-22 08:48:49</time>
      </trkpt>
      <trkpt lat="41.17193" lon="1.10549">
        <ele>158.2</ele>
        <time>2020-08-22 08:48:50</time>
      </trkpt>
      <trkpt lat="41.17197" lon="1.10547">
        <ele>158.4</ele>
        <time>2020-08-22 08:48:51</time>
      </trkpt>
      <trkpt lat="41.17201" lon="1.10546">
        <ele>158.4</ele>
        <time>2020-08-22 08:48:52</time>
      </trkpt>
      <trkpt lat="41.17205" lon="1.10544">
        <ele>158.4</ele>
        <time>2020-08-22 08:48:53</time>
      </trkpt>
      <trkpt lat="41.17209" lon="1.10542">
        <ele>158.6</ele>
        <time>2020-08-22 08:48:54</time>
      </trkpt>
      <trkpt lat="41.17213" lon="1.1054">
        <ele>158.8</ele>
        <time>2020-08-22 08:48:55</time>
      </trkpt>
      <trkpt lat="41.17218" lon="1.10539">
        <ele>158.8</ele>
        <time>2020-08-22 08:48:56</time>
      </trkpt>
      <trkpt lat="41.17221" lon="1.10537">
        <ele>159.2</ele>
        <time>2020-08-22 08:48:57</time>
      </trkpt>
      <trkpt lat="41.17225" lon="1.10536">
        <ele>159.2</ele>
        <time>2020-08-22 08:48:58</time>
      </trkpt>
      <trkpt lat="41.17228" lon="1.10535">
        <ele>159.4</ele>
        <time>2020-08-22 08:48:59</time>
      </trkpt>
      <trkpt lat="41.17232" lon="1.10533">
        <ele>159.6</ele>
        <time>2020-08-22 08:49:00</time>
      </trkpt>
      <trkpt lat="41.17236" lon="1.10532">
        <ele>159.6</ele>
        <time>2020-08-22 08:49:01</time>
      </trkpt>
      <trkpt lat="41.1724" lon="1.1053">
        <ele>160</ele>
        <time>2020-08-22 08:49:02</time>
      </trkpt>
      <trkpt lat="41.17244" lon="1.10528">
        <ele>160.2</ele>
        <time>2020-08-22 08:49:03</time>
      </trkpt>
      <trkpt lat="41.17248" lon="1.10526">
        <ele>160.4</ele>
        <time>2020-08-22 08:49:04</time>
      </trkpt>
      <trkpt lat="41.17252" lon="1.10524">
        <ele>160.6</ele>
        <time>2020-08-22 08:49:05</time>
      </trkpt>
      <trkpt lat="41.17256" lon="1.10522">
        <ele>161</ele>
        <time>2020-08-22 08:49:06</time>
      </trkpt>
      <trkpt lat="41.1726" lon="1.10519">
        <ele>161</ele>
        <time>2020-08-22 08:49:07</time>
      </trkpt>
      <trkpt lat="41.17263" lon="1.10518">
        <ele>161.2</ele>
        <time>2020-08-22 08:49:08</time>
      </trkpt>
      <trkpt lat="41.17267" lon="1.10516">
        <ele>161.2</ele>
        <time>2020-08-22 08:49:09</time>
      </trkpt>
      <trkpt lat="41.17271" lon="1.10515">
        <ele>161.4</ele>
        <time>2020-08-22 08:49:10</time>
      </trkpt>
      <trkpt lat="41.17275" lon="1.10514">
        <ele>161.6</ele>
        <time>2020-08-22 08:49:11</time>
      </trkpt>
      <trkpt lat="41.17278" lon="1.10514">
        <ele>161.6</ele>
        <time>2020-08-22 08:49:12</time>
      </trkpt>
      <trkpt lat="41.17282" lon="1.10516">
        <ele>162.4</ele>
        <time>2020-08-22 08:49:13</time>
      </trkpt>
      <trkpt lat="41.17286" lon="1.10517">
        <ele>162.4</ele>
        <time>2020-08-22 08:49:14</time>
      </trkpt>
      <trkpt lat="41.1729" lon="1.10518">
        <ele>162.8</ele>
        <time>2020-08-22 08:49:15</time>
      </trkpt>
      <trkpt lat="41.17294" lon="1.10517">
        <ele>163.2</ele>
        <time>2020-08-22 08:49:16</time>
      </trkpt>
      <trkpt lat="41.17298" lon="1.10516">
        <ele>163.4</ele>
        <time>2020-08-22 08:49:17</time>
      </trkpt>
      <trkpt lat="41.17303" lon="1.10515">
        <ele>163.6</ele>
        <time>2020-08-22 08:49:18</time>
      </trkpt>
      <trkpt lat="41.17306" lon="1.10513">
        <ele>163.6</ele>
        <time>2020-08-22 08:49:19</time>
      </trkpt>
      <trkpt lat="41.1731" lon="1.10511">
        <ele>163.8</ele>
        <time>2020-08-22 08:49:20</time>
      </trkpt>
      <trkpt lat="41.17314" lon="1.10509">
        <ele>163.8</ele>
        <time>2020-08-22 08:49:21</time>
      </trkpt>
      <trkpt lat="41.17318" lon="1.10507">
        <ele>164</ele>
        <time>2020-08-22 08:49:22</time>
      </trkpt>
      <trkpt lat="41.17321" lon="1.10505">
        <ele>164</ele>
        <time>2020-08-22 08:49:23</time>
      </trkpt>
      <trkpt lat="41.17325" lon="1.10504">
        <ele>164.2</ele>
        <time>2020-08-22 08:49:24</time>
      </trkpt>
      <trkpt lat="41.17329" lon="1.10502">
        <ele>164.4</ele>
        <time>2020-08-22 08:49:25</time>
      </trkpt>
      <trkpt lat="41.17333" lon="1.10501">
        <ele>164.4</ele>
        <time>2020-08-22 08:49:26</time>
      </trkpt>
      <trkpt lat="41.17337" lon="1.10499">
        <ele>164.8</ele>
        <time>2020-08-22 08:49:27</time>
      </trkpt>
      <trkpt lat="41.17341" lon="1.10497">
        <ele>164.8</ele>
        <time>2020-08-22 08:49:28</time>
      </trkpt>
      <trkpt lat="41.17345" lon="1.10496">
        <ele>165</ele>
        <time>2020-08-22 08:49:29</time>
      </trkpt>
      <trkpt lat="41.17349" lon="1.10495">
        <ele>165.2</ele>
        <time>2020-08-22 08:49:30</time>
      </trkpt>
      <trkpt lat="41.17352" lon="1.10493">
        <ele>165.4</ele>
        <time>2020-08-22 08:49:31</time>
      </trkpt>
      <trkpt lat="41.17356" lon="1.1049">
        <ele>165.6</ele>
        <time>2020-08-22 08:49:32</time>
      </trkpt>
      <trkpt lat="41.17359" lon="1.10488">
        <ele>165.8</ele>
        <time>2020-08-22 08:49:33</time>
      </trkpt>
      <trkpt lat="41.17362" lon="1.10486">
        <ele>166</ele>
        <time>2020-08-22 08:49:34</time>
      </trkpt>
      <trkpt lat="41.17365" lon="1.10485">
        <ele>166.2</ele>
        <time>2020-08-22 08:49:35</time>
      </trkpt>
      <trkpt lat="41.17368" lon="1.10483">
        <ele>166.4</ele>
        <time>2020-08-22 08:49:36</time>
      </trkpt>
      <trkpt lat="41.17372" lon="1.10481">
        <ele>166.4</ele>
        <time>2020-08-22 08:49:37</time>
      </trkpt>
      <trkpt lat="41.17376" lon="1.10479">
        <ele>166.8</ele>
        <time>2020-08-22 08:49:38</time>
      </trkpt>
      <trkpt lat="41.17379" lon="1.10478">
        <ele>166.8</ele>
        <time>2020-08-22 08:49:39</time>
      </trkpt>
      <trkpt lat="41.17383" lon="1.10476">
        <ele>167.2</ele>
        <time>2020-08-22 08:49:40</time>
      </trkpt>
      <trkpt lat="41.17386" lon="1.10475">
        <ele>167.4</ele>
        <time>2020-08-22 08:49:41</time>
      </trkpt>
      <trkpt lat="41.1739" lon="1.10473">
        <ele>167.6</ele>
        <time>2020-08-22 08:49:42</time>
      </trkpt>
      <trkpt lat="41.17393" lon="1.10471">
        <ele>167.8</ele>
        <time>2020-08-22 08:49:43</time>
      </trkpt>
      <trkpt lat="41.17397" lon="1.1047">
        <ele>168</ele>
        <time>2020-08-22 08:49:44</time>
      </trkpt>
      <trkpt lat="41.174" lon="1.10468">
        <ele>168.2</ele>
        <time>2020-08-22 08:49:45</time>
      </trkpt>
      <trkpt lat="41.17403" lon="1.10465">
        <ele>168.2</ele>
        <time>2020-08-22 08:49:46</time>
      </trkpt>
      <trkpt lat="41.17406" lon="1.10463">
        <ele>168.4</ele>
        <time>2020-08-22 08:49:47</time>
      </trkpt>
      <trkpt lat="41.1741" lon="1.10461">
        <ele>168.6</ele>
        <time>2020-08-22 08:49:48</time>
      </trkpt>
      <trkpt lat="41.17413" lon="1.10459">
        <ele>169</ele>
        <time>2020-08-22 08:49:49</time>
      </trkpt>
      <trkpt lat="41.17417" lon="1.10457">
        <ele>169.2</ele>
        <time>2020-08-22 08:49:50</time>
      </trkpt>
      <trkpt lat="41.1742" lon="1.10455">
        <ele>169.2</ele>
        <time>2020-08-22 08:49:51</time>
      </trkpt>
      <trkpt lat="41.17424" lon="1.10454">
        <ele>169.4</ele>
        <time>2020-08-22 08:49:52</time>
      </trkpt>
      <trkpt lat="41.17427" lon="1.10453">
        <ele>169.4</ele>
        <time>2020-08-22 08:49:53</time>
      </trkpt>
      <trkpt lat="41.17431" lon="1.10451">
        <ele>169.6</ele>
        <time>2020-08-22 08:49:54</time>
      </trkpt>
      <trkpt lat="41.17434" lon="1.1045">
        <ele>169.8</ele>
        <time>2020-08-22 08:49:55</time>
      </trkpt>
      <trkpt lat="41.17438" lon="1.10448">
        <ele>169.8</ele>
        <time>2020-08-22 08:49:56</time>
      </trkpt>
      <trkpt lat="41.17441" lon="1.10446">
        <ele>170</ele>
        <time>2020-08-22 08:49:57</time>
      </trkpt>
      <trkpt lat="41.17445" lon="1.10444">
        <ele>170.2</ele>
        <time>2020-08-22 08:49:58</time>
      </trkpt>
      <trkpt lat="41.17448" lon="1.10443">
        <ele>170.6</ele>
        <time>2020-08-22 08:49:59</time>
      </trkpt>
      <trkpt lat="41.17451" lon="1.10441">
        <ele>170.8</ele>
        <time>2020-08-22 08:50:00</time>
      </trkpt>
      <trkpt lat="41.17455" lon="1.1044">
        <ele>171.2</ele>
        <time>2020-08-22 08:50:01</time>
      </trkpt>
      <trkpt lat="41.17458" lon="1.10439">
        <ele>171.4</ele>
        <time>2020-08-22 08:50:02</time>
      </trkpt>
      <trkpt lat="41.17462" lon="1.10437">
        <ele>171.8</ele>
        <time>2020-08-22 08:50:03</time>
      </trkpt>
      <trkpt lat="41.17465" lon="1.10435">
        <ele>172</ele>
        <time>2020-08-22 08:50:04</time>
      </trkpt>
      <trkpt lat="41.17469" lon="1.10434">
        <ele>172.2</ele>
        <time>2020-08-22 08:50:05</time>
      </trkpt>
      <trkpt lat="41.17472" lon="1.10432">
        <ele>172.2</ele>
        <time>2020-08-22 08:50:06</time>
      </trkpt>
      <trkpt lat="41.17476" lon="1.1043">
        <ele>172.4</ele>
        <time>2020-08-22 08:50:07</time>
      </trkpt>
      <trkpt lat="41.1748" lon="1.10428">
        <ele>172.4</ele>
        <time>2020-08-22 08:50:08</time>
      </trkpt>
      <trkpt lat="41.17483" lon="1.10426">
        <ele>172.6</ele>
        <time>2020-08-22 08:50:09</time>
      </trkpt>
      <trkpt lat="41.17487" lon="1.10424">
        <ele>172.8</ele>
        <time>2020-08-22 08:50:10</time>
      </trkpt>
      <trkpt lat="41.17491" lon="1.10421">
        <ele>173</ele>
        <time>2020-08-22 08:50:11</time>
      </trkpt>
      <trkpt lat="41.17495" lon="1.10419">
        <ele>173</ele>
        <time>2020-08-22 08:50:12</time>
      </trkpt>
      <trkpt lat="41.17499" lon="1.10417">
        <ele>173</ele>
        <time>2020-08-22 08:50:13</time>
      </trkpt>
      <trkpt lat="41.17503" lon="1.10415">
        <ele>173.4</ele>
        <time>2020-08-22 08:50:14</time>
      </trkpt>
      <trkpt lat="41.17507" lon="1.10413">
        <ele>173.6</ele>
        <time>2020-08-22 08:50:15</time>
      </trkpt>
      <trkpt lat="41.1751" lon="1.10411">
        <ele>173.8</ele>
        <time>2020-08-22 08:50:16</time>
      </trkpt>
      <trkpt lat="41.17514" lon="1.1041">
        <ele>174</ele>
        <time>2020-08-22 08:50:17</time>
      </trkpt>
      <trkpt lat="41.17518" lon="1.10408">
        <ele>174.2</ele>
        <time>2020-08-22 08:50:18</time>
      </trkpt>
      <trkpt lat="41.17521" lon="1.10406">
        <ele>174.4</ele>
        <time>2020-08-22 08:50:19</time>
      </trkpt>
      <trkpt lat="41.17525" lon="1.10404">
        <ele>174.4</ele>
        <time>2020-08-22 08:50:20</time>
      </trkpt>
      <trkpt lat="41.17528" lon="1.10402">
        <ele>174.6</ele>
        <time>2020-08-22 08:50:21</time>
      </trkpt>
      <trkpt lat="41.17532" lon="1.104">
        <ele>174.6</ele>
        <time>2020-08-22 08:50:22</time>
      </trkpt>
      <trkpt lat="41.17536" lon="1.10397">
        <ele>175</ele>
        <time>2020-08-22 08:50:23</time>
      </trkpt>
      <trkpt lat="41.17539" lon="1.10395">
        <ele>175.4</ele>
        <time>2020-08-22 08:50:24</time>
      </trkpt>
      <trkpt lat="41.17542" lon="1.10393">
        <ele>175.4</ele>
        <time>2020-08-22 08:50:25</time>
      </trkpt>
      <trkpt lat="41.17546" lon="1.10391">
        <ele>175.6</ele>
        <time>2020-08-22 08:50:26</time>
      </trkpt>
      <trkpt lat="41.1755" lon="1.10389">
        <ele>175.8</ele>
        <time>2020-08-22 08:50:27</time>
      </trkpt>
      <trkpt lat="41.17553" lon="1.10387">
        <ele>176</ele>
        <time>2020-08-22 08:50:28</time>
      </trkpt>
      <trkpt lat="41.17557" lon="1.10385">
        <ele>176</ele>
        <time>2020-08-22 08:50:29</time>
      </trkpt>
      <trkpt lat="41.17561" lon="1.10383">
        <ele>176.2</ele>
        <time>2020-08-22 08:50:30</time>
      </trkpt>
      <trkpt lat="41.17564" lon="1.10381">
        <ele>176.4</ele>
        <time>2020-08-22 08:50:31</time>
      </trkpt>
      <trkpt lat="41.17568" lon="1.10379">
        <ele>176.4</ele>
        <time>2020-08-22 08:50:32</time>
      </trkpt>
      <trkpt lat="41.17572" lon="1.10377">
        <ele>176.6</ele>
        <time>2020-08-22 08:50:33</time>
      </trkpt>
      <trkpt lat="41.17575" lon="1.10375">
        <ele>176.8</ele>
        <time>2020-08-22 08:50:34</time>
      </trkpt>
      <trkpt lat="41.17579" lon="1.10373">
        <ele>177</ele>
        <time>2020-08-22 08:50:35</time>
      </trkpt>
      <trkpt lat="41.17582" lon="1.10371">
        <ele>177</ele>
        <time>2020-08-22 08:50:36</time>
      </trkpt>
      <trkpt lat="41.17586" lon="1.10369">
        <ele>177.2</ele>
        <time>2020-08-22 08:50:37</time>
      </trkpt>
      <trkpt lat="41.1759" lon="1.10367">
        <ele>177.2</ele>
        <time>2020-08-22 08:50:38</time>
      </trkpt>
      <trkpt lat="41.17594" lon="1.10365">
        <ele>177.4</ele>
        <time>2020-08-22 08:50:39</time>
      </trkpt>
      <trkpt lat="41.17597" lon="1.10363">
        <ele>177.4</ele>
        <time>2020-08-22 08:50:40</time>
      </trkpt>
      <trkpt lat="41.17601" lon="1.10361">
        <ele>177.4</ele>
        <time>2020-08-22 08:50:41</time>
      </trkpt>
      <trkpt lat="41.17605" lon="1.10359">
        <ele>177.6</ele>
        <time>2020-08-22 08:50:42</time>
      </trkpt>
      <trkpt lat="41.17612" lon="1.10356">
        <ele>177.8</ele>
        <time>2020-08-22 08:50:44</time>
      </trkpt>
      <trkpt lat="41.17616" lon="1.10353">
        <ele>178</ele>
        <time>2020-08-22 08:50:45</time>
      </trkpt>
      <trkpt lat="41.17619" lon="1.10351">
        <ele>178.2</ele>
        <time>2020-08-22 08:50:46</time>
      </trkpt>
      <trkpt lat="41.17623" lon="1.10349">
        <ele>178.4</ele>
        <time>2020-08-22 08:50:47</time>
      </trkpt>
      <trkpt lat="41.17627" lon="1.10348">
        <ele>178.4</ele>
        <time>2020-08-22 08:50:48</time>
      </trkpt>
      <trkpt lat="41.17631" lon="1.10346">
        <ele>178.6</ele>
        <time>2020-08-22 08:50:49</time>
      </trkpt>
      <trkpt lat="41.17634" lon="1.10344">
        <ele>178.8</ele>
        <time>2020-08-22 08:50:50</time>
      </trkpt>
      <trkpt lat="41.17638" lon="1.10342">
        <ele>179</ele>
        <time>2020-08-22 08:50:51</time>
      </trkpt>
      <trkpt lat="41.17642" lon="1.1034">
        <ele>179.2</ele>
        <time>2020-08-22 08:50:52</time>
      </trkpt>
      <trkpt lat="41.17645" lon="1.10338">
        <ele>179.4</ele>
        <time>2020-08-22 08:50:53</time>
      </trkpt>
      <trkpt lat="41.17649" lon="1.10336">
        <ele>179.6</ele>
        <time>2020-08-22 08:50:54</time>
      </trkpt>
      <trkpt lat="41.17653" lon="1.10334">
        <ele>179.8</ele>
        <time>2020-08-22 08:50:55</time>
      </trkpt>
      <trkpt lat="41.17656" lon="1.10332">
        <ele>179.8</ele>
        <time>2020-08-22 08:50:56</time>
      </trkpt>
      <trkpt lat="41.1766" lon="1.1033">
        <ele>180.2</ele>
        <time>2020-08-22 08:50:57</time>
      </trkpt>
      <trkpt lat="41.17664" lon="1.10328">
        <ele>180.4</ele>
        <time>2020-08-22 08:50:58</time>
      </trkpt>
      <trkpt lat="41.17667" lon="1.10327">
        <ele>180.8</ele>
        <time>2020-08-22 08:50:59</time>
      </trkpt>
      <trkpt lat="41.17671" lon="1.10325">
        <ele>180.8</ele>
        <time>2020-08-22 08:51:00</time>
      </trkpt>
      <trkpt lat="41.17675" lon="1.10323">
        <ele>181</ele>
        <time>2020-08-22 08:51:01</time>
      </trkpt>
      <trkpt lat="41.17679" lon="1.10321">
        <ele>181</ele>
        <time>2020-08-22 08:51:02</time>
      </trkpt>
      <trkpt lat="41.17683" lon="1.10319">
        <ele>181.2</ele>
        <time>2020-08-22 08:51:03</time>
      </trkpt>
      <trkpt lat="41.17686" lon="1.10318">
        <ele>181.2</ele>
        <time>2020-08-22 08:51:04</time>
      </trkpt>
      <trkpt lat="41.1769" lon="1.10316">
        <ele>181.2</ele>
        <time>2020-08-22 08:51:05</time>
      </trkpt>
      <trkpt lat="41.17693" lon="1.10313">
        <ele>181.4</ele>
        <time>2020-08-22 08:51:06</time>
      </trkpt>
      <trkpt lat="41.17696" lon="1.10311">
        <ele>181.8</ele>
        <time>2020-08-22 08:51:07</time>
      </trkpt>
      <trkpt lat="41.17699" lon="1.10309">
        <ele>181.8</ele>
        <time>2020-08-22 08:51:08</time>
      </trkpt>
      <trkpt lat="41.17703" lon="1.10307">
        <ele>182.2</ele>
        <time>2020-08-22 08:51:09</time>
      </trkpt>
      <trkpt lat="41.17706" lon="1.10304">
        <ele>182.2</ele>
        <time>2020-08-22 08:51:10</time>
      </trkpt>
      <trkpt lat="41.1771" lon="1.10303">
        <ele>182.4</ele>
        <time>2020-08-22 08:51:11</time>
      </trkpt>
      <trkpt lat="41.17714" lon="1.10301">
        <ele>182.6</ele>
        <time>2020-08-22 08:51:12</time>
      </trkpt>
      <trkpt lat="41.17717" lon="1.10299">
        <ele>182.8</ele>
        <time>2020-08-22 08:51:13</time>
      </trkpt>
      <trkpt lat="41.17721" lon="1.10297">
        <ele>183</ele>
        <time>2020-08-22 08:51:14</time>
      </trkpt>
      <trkpt lat="41.17725" lon="1.10296">
        <ele>183.4</ele>
        <time>2020-08-22 08:51:15</time>
      </trkpt>
      <trkpt lat="41.17729" lon="1.10294">
        <ele>183.6</ele>
        <time>2020-08-22 08:51:16</time>
      </trkpt>
      <trkpt lat="41.17733" lon="1.10293">
        <ele>183.8</ele>
        <time>2020-08-22 08:51:17</time>
      </trkpt>
      <trkpt lat="41.17737" lon="1.10291">
        <ele>184.2</ele>
        <time>2020-08-22 08:51:18</time>
      </trkpt>
      <trkpt lat="41.1774" lon="1.1029">
        <ele>184.2</ele>
        <time>2020-08-22 08:51:19</time>
      </trkpt>
      <trkpt lat="41.17744" lon="1.10288">
        <ele>184.6</ele>
        <time>2020-08-22 08:51:20</time>
      </trkpt>
      <trkpt lat="41.17748" lon="1.10287">
        <ele>184.6</ele>
        <time>2020-08-22 08:51:21</time>
      </trkpt>
      <trkpt lat="41.17751" lon="1.10285">
        <ele>185</ele>
        <time>2020-08-22 08:51:22</time>
      </trkpt>
      <trkpt lat="41.17755" lon="1.10284">
        <ele>185</ele>
        <time>2020-08-22 08:51:23</time>
      </trkpt>
      <trkpt lat="41.17759" lon="1.10282">
        <ele>185.4</ele>
        <time>2020-08-22 08:51:24</time>
      </trkpt>
      <trkpt lat="41.17762" lon="1.1028">
        <ele>185.6</ele>
        <time>2020-08-22 08:51:25</time>
      </trkpt>
      <trkpt lat="41.17766" lon="1.10278">
        <ele>185.6</ele>
        <time>2020-08-22 08:51:26</time>
      </trkpt>
      <trkpt lat="41.1777" lon="1.10276">
        <ele>186</ele>
        <time>2020-08-22 08:51:27</time>
      </trkpt>
      <trkpt lat="41.17773" lon="1.10274">
        <ele>186</ele>
        <time>2020-08-22 08:51:28</time>
      </trkpt>
      <trkpt lat="41.17777" lon="1.10271">
        <ele>186.2</ele>
        <time>2020-08-22 08:51:29</time>
      </trkpt>
      <trkpt lat="41.1778" lon="1.10269">
        <ele>186.2</ele>
        <time>2020-08-22 08:51:30</time>
      </trkpt>
      <trkpt lat="41.17783" lon="1.10267">
        <ele>186.4</ele>
        <time>2020-08-22 08:51:31</time>
      </trkpt>
      <trkpt lat="41.17786" lon="1.10265">
        <ele>186.6</ele>
        <time>2020-08-22 08:51:32</time>
      </trkpt>
      <trkpt lat="41.17789" lon="1.10263">
        <ele>186.8</ele>
        <time>2020-08-22 08:51:33</time>
      </trkpt>
      <trkpt lat="41.17792" lon="1.1026">
        <ele>187</ele>
        <time>2020-08-22 08:51:34</time>
      </trkpt>
      <trkpt lat="41.17795" lon="1.10258">
        <ele>187.2</ele>
        <time>2020-08-22 08:51:35</time>
      </trkpt>
      <trkpt lat="41.17799" lon="1.10254">
        <ele>187.6</ele>
        <time>2020-08-22 08:51:36</time>
      </trkpt>
      <trkpt lat="41.17802" lon="1.10252">
        <ele>187.6</ele>
        <time>2020-08-22 08:51:37</time>
      </trkpt>
      <trkpt lat="41.17804" lon="1.10249">
        <ele>187.8</ele>
        <time>2020-08-22 08:51:38</time>
      </trkpt>
      <trkpt lat="41.17807" lon="1.10246">
        <ele>187.6</ele>
        <time>2020-08-22 08:51:39</time>
      </trkpt>
      <trkpt lat="41.1781" lon="1.10243">
        <ele>188</ele>
        <time>2020-08-22 08:51:40</time>
      </trkpt>
      <trkpt lat="41.17814" lon="1.1024">
        <ele>188.2</ele>
        <time>2020-08-22 08:51:41</time>
      </trkpt>
      <trkpt lat="41.17817" lon="1.10237">
        <ele>188.2</ele>
        <time>2020-08-22 08:51:42</time>
      </trkpt>
      <trkpt lat="41.1782" lon="1.10234">
        <ele>188.4</ele>
        <time>2020-08-22 08:51:43</time>
      </trkpt>
      <trkpt lat="41.17823" lon="1.10232">
        <ele>188.4</ele>
        <time>2020-08-22 08:51:44</time>
      </trkpt>
      <trkpt lat="41.17826" lon="1.10229">
        <ele>188.6</ele>
        <time>2020-08-22 08:51:45</time>
      </trkpt>
      <trkpt lat="41.17829" lon="1.10226">
        <ele>188.8</ele>
        <time>2020-08-22 08:51:46</time>
      </trkpt>
      <trkpt lat="41.17832" lon="1.10224">
        <ele>189</ele>
        <time>2020-08-22 08:51:47</time>
      </trkpt>
      <trkpt lat="41.17835" lon="1.10221">
        <ele>189</ele>
        <time>2020-08-22 08:51:48</time>
      </trkpt>
      <trkpt lat="41.17839" lon="1.10218">
        <ele>189.4</ele>
        <time>2020-08-22 08:51:49</time>
      </trkpt>
      <trkpt lat="41.17842" lon="1.10216">
        <ele>189.6</ele>
        <time>2020-08-22 08:51:50</time>
      </trkpt>
      <trkpt lat="41.17846" lon="1.10213">
        <ele>189.6</ele>
        <time>2020-08-22 08:51:51</time>
      </trkpt>
      <trkpt lat="41.1785" lon="1.10209">
        <ele>189.6</ele>
        <time>2020-08-22 08:51:52</time>
      </trkpt>
      <trkpt lat="41.17854" lon="1.10206">
        <ele>189.8</ele>
        <time>2020-08-22 08:51:53</time>
      </trkpt>
      <trkpt lat="41.17858" lon="1.10202">
        <ele>189.8</ele>
        <time>2020-08-22 08:51:54</time>
      </trkpt>
      <trkpt lat="41.17862" lon="1.10198">
        <ele>189.8</ele>
        <time>2020-08-22 08:51:55</time>
      </trkpt>
      <trkpt lat="41.17879" lon="1.10184">
        <ele>189.8</ele>
        <time>2020-08-22 08:51:58</time>
      </trkpt>
      <trkpt lat="41.17913" lon="1.10156">
        <ele>188.4</ele>
        <time>2020-08-22 08:52:03</time>
      </trkpt>
      <trkpt lat="41.17919" lon="1.10151">
        <ele>188.2</ele>
        <time>2020-08-22 08:52:04</time>
      </trkpt>
      <trkpt lat="41.17925" lon="1.10146">
        <ele>188</ele>
        <time>2020-08-22 08:52:05</time>
      </trkpt>
      <trkpt lat="41.1793" lon="1.10141">
        <ele>188</ele>
        <time>2020-08-22 08:52:06</time>
      </trkpt>
      <trkpt lat="41.17935" lon="1.10137">
        <ele>188</ele>
        <time>2020-08-22 08:52:07</time>
      </trkpt>
      <trkpt lat="41.1794" lon="1.10133">
        <ele>188</ele>
        <time>2020-08-22 08:52:08</time>
      </trkpt>
      <trkpt lat="41.17944" lon="1.10129">
        <ele>188</ele>
        <time>2020-08-22 08:52:09</time>
      </trkpt>
      <trkpt lat="41.17948" lon="1.10124">
        <ele>188.2</ele>
        <time>2020-08-22 08:52:10</time>
      </trkpt>
      <trkpt lat="41.17953" lon="1.1012">
        <ele>188.4</ele>
        <time>2020-08-22 08:52:11</time>
      </trkpt>
      <trkpt lat="41.17957" lon="1.10117">
        <ele>189</ele>
        <time>2020-08-22 08:52:12</time>
      </trkpt>
      <trkpt lat="41.17961" lon="1.10114">
        <ele>189.2</ele>
        <time>2020-08-22 08:52:13</time>
      </trkpt>
      <trkpt lat="41.17965" lon="1.1011">
        <ele>189.6</ele>
        <time>2020-08-22 08:52:14</time>
      </trkpt>
      <trkpt lat="41.17969" lon="1.10106">
        <ele>189.8</ele>
        <time>2020-08-22 08:52:15</time>
      </trkpt>
      <trkpt lat="41.17972" lon="1.10102">
        <ele>190.4</ele>
        <time>2020-08-22 08:52:16</time>
      </trkpt>
      <trkpt lat="41.17975" lon="1.10098">
        <ele>190.8</ele>
        <time>2020-08-22 08:52:17</time>
      </trkpt>
      <trkpt lat="41.17978" lon="1.10095">
        <ele>191.4</ele>
        <time>2020-08-22 08:52:18</time>
      </trkpt>
      <trkpt lat="41.17981" lon="1.10092">
        <ele>192</ele>
        <time>2020-08-22 08:52:19</time>
      </trkpt>
      <trkpt lat="41.17984" lon="1.10089">
        <ele>192.2</ele>
        <time>2020-08-22 08:52:20</time>
      </trkpt>
      <trkpt lat="41.17987" lon="1.10086">
        <ele>192.8</ele>
        <time>2020-08-22 08:52:21</time>
      </trkpt>
      <trkpt lat="41.1799" lon="1.10082">
        <ele>193</ele>
        <time>2020-08-22 08:52:22</time>
      </trkpt>
      <trkpt lat="41.17993" lon="1.10079">
        <ele>193.2</ele>
        <time>2020-08-22 08:52:23</time>
      </trkpt>
      <trkpt lat="41.17997" lon="1.10074">
        <ele>193.2</ele>
        <time>2020-08-22 08:52:24</time>
      </trkpt>
      <trkpt lat="41.18" lon="1.1007">
        <ele>193.4</ele>
        <time>2020-08-22 08:52:25</time>
      </trkpt>
      <trkpt lat="41.18003" lon="1.10066">
        <ele>193.4</ele>
        <time>2020-08-22 08:52:26</time>
      </trkpt>
      <trkpt lat="41.18006" lon="1.10061">
        <ele>193.4</ele>
        <time>2020-08-22 08:52:27</time>
      </trkpt>
      <trkpt lat="41.18008" lon="1.10056">
        <ele>193.4</ele>
        <time>2020-08-22 08:52:28</time>
      </trkpt>
      <trkpt lat="41.18011" lon="1.10051">
        <ele>193.4</ele>
        <time>2020-08-22 08:52:29</time>
      </trkpt>
      <trkpt lat="41.18014" lon="1.10047">
        <ele>193.6</ele>
        <time>2020-08-22 08:52:30</time>
      </trkpt>
      <trkpt lat="41.18017" lon="1.10042">
        <ele>193.6</ele>
        <time>2020-08-22 08:52:31</time>
      </trkpt>
      <trkpt lat="41.1802" lon="1.10038">
        <ele>193.6</ele>
        <time>2020-08-22 08:52:32</time>
      </trkpt>
      <trkpt lat="41.18023" lon="1.10034">
        <ele>193.8</ele>
        <time>2020-08-22 08:52:33</time>
      </trkpt>
      <trkpt lat="41.18035" lon="1.10016">
        <ele>194.2</ele>
        <time>2020-08-22 08:52:37</time>
      </trkpt>
      <trkpt lat="41.18038" lon="1.10012">
        <ele>194.2</ele>
        <time>2020-08-22 08:52:38</time>
      </trkpt>
      <trkpt lat="41.18041" lon="1.10008">
        <ele>194.2</ele>
        <time>2020-08-22 08:52:39</time>
      </trkpt>
      <trkpt lat="41.18043" lon="1.10003">
        <ele>194.2</ele>
        <time>2020-08-22 08:52:40</time>
      </trkpt>
      <trkpt lat="41.18046" lon="1.09999">
        <ele>194.4</ele>
        <time>2020-08-22 08:52:41</time>
      </trkpt>
      <trkpt lat="41.18048" lon="1.09995">
        <ele>194.6</ele>
        <time>2020-08-22 08:52:42</time>
      </trkpt>
      <trkpt lat="41.18051" lon="1.09991">
        <ele>194.6</ele>
        <time>2020-08-22 08:52:43</time>
      </trkpt>
      <trkpt lat="41.18053" lon="1.09988">
        <ele>194.8</ele>
        <time>2020-08-22 08:52:44</time>
      </trkpt>
      <trkpt lat="41.18054" lon="1.09984">
        <ele>194.8</ele>
        <time>2020-08-22 08:52:45</time>
      </trkpt>
      <trkpt lat="41.18056" lon="1.0998">
        <ele>195</ele>
        <time>2020-08-22 08:52:46</time>
      </trkpt>
      <trkpt lat="41.18057" lon="1.09977">
        <ele>195</ele>
        <time>2020-08-22 08:52:47</time>
      </trkpt>
      <trkpt lat="41.18057" lon="1.09974">
        <ele>195.2</ele>
        <time>2020-08-22 08:52:48</time>
      </trkpt>
      <trkpt lat="41.18058" lon="1.0997">
        <ele>195.2</ele>
        <time>2020-08-22 08:52:49</time>
      </trkpt>
      <trkpt lat="41.18059" lon="1.09967">
        <ele>195.6</ele>
        <time>2020-08-22 08:52:50</time>
      </trkpt>
      <trkpt lat="41.1806" lon="1.09963">
        <ele>195.8</ele>
        <time>2020-08-22 08:52:51</time>
      </trkpt>
      <trkpt lat="41.18062" lon="1.09959">
        <ele>195.8</ele>
        <time>2020-08-22 08:52:52</time>
      </trkpt>
      <trkpt lat="41.18065" lon="1.09955">
        <ele>195.8</ele>
        <time>2020-08-22 08:52:53</time>
      </trkpt>
      <trkpt lat="41.18067" lon="1.09951">
        <ele>196</ele>
        <time>2020-08-22 08:52:54</time>
      </trkpt>
      <trkpt lat="41.18069" lon="1.09947">
        <ele>196.2</ele>
        <time>2020-08-22 08:52:55</time>
      </trkpt>
      <trkpt lat="41.18072" lon="1.09943">
        <ele>196.2</ele>
        <time>2020-08-22 08:52:56</time>
      </trkpt>
      <trkpt lat="41.18074" lon="1.09939">
        <ele>196.2</ele>
        <time>2020-08-22 08:52:57</time>
      </trkpt>
      <trkpt lat="41.18076" lon="1.09934">
        <ele>196.2</ele>
        <time>2020-08-22 08:52:58</time>
      </trkpt>
      <trkpt lat="41.18083" lon="1.09912">
        <ele>196.4</ele>
        <time>2020-08-22 08:53:02</time>
      </trkpt>
      <trkpt lat="41.18092" lon="1.09881">
        <ele>196.4</ele>
        <time>2020-08-22 08:53:08</time>
      </trkpt>
      <trkpt lat="41.18094" lon="1.09877">
        <ele>196.6</ele>
        <time>2020-08-22 08:53:09</time>
      </trkpt>
      <trkpt lat="41.18095" lon="1.09872">
        <ele>196.6</ele>
        <time>2020-08-22 08:53:10</time>
      </trkpt>
      <trkpt lat="41.18096" lon="1.09867">
        <ele>196.4</ele>
        <time>2020-08-22 08:53:11</time>
      </trkpt>
      <trkpt lat="41.18097" lon="1.09862">
        <ele>196.6</ele>
        <time>2020-08-22 08:53:12</time>
      </trkpt>
      <trkpt lat="41.18098" lon="1.09857">
        <ele>196.8</ele>
        <time>2020-08-22 08:53:13</time>
      </trkpt>
      <trkpt lat="41.18099" lon="1.09852">
        <ele>197</ele>
        <time>2020-08-22 08:53:14</time>
      </trkpt>
      <trkpt lat="41.181" lon="1.09847">
        <ele>197.4</ele>
        <time>2020-08-22 08:53:15</time>
      </trkpt>
      <trkpt lat="41.181" lon="1.09842">
        <ele>197.8</ele>
        <time>2020-08-22 08:53:16</time>
      </trkpt>
      <trkpt lat="41.181" lon="1.09838">
        <ele>198.2</ele>
        <time>2020-08-22 08:53:17</time>
      </trkpt>
      <trkpt lat="41.181" lon="1.09833">
        <ele>198.8</ele>
        <time>2020-08-22 08:53:18</time>
      </trkpt>
      <trkpt lat="41.181" lon="1.09829">
        <ele>199</ele>
        <time>2020-08-22 08:53:19</time>
      </trkpt>
      <trkpt lat="41.18099" lon="1.09825">
        <ele>199.8</ele>
        <time>2020-08-22 08:53:20</time>
      </trkpt>
      <trkpt lat="41.181" lon="1.09821">
        <ele>200.2</ele>
        <time>2020-08-22 08:53:21</time>
      </trkpt>
      <trkpt lat="41.18099" lon="1.09816">
        <ele>200.8</ele>
        <time>2020-08-22 08:53:22</time>
      </trkpt>
      <trkpt lat="41.18099" lon="1.09811">
        <ele>201</ele>
        <time>2020-08-22 08:53:23</time>
      </trkpt>
      <trkpt lat="41.18098" lon="1.09807">
        <ele>201.6</ele>
        <time>2020-08-22 08:53:24</time>
      </trkpt>
      <trkpt lat="41.18098" lon="1.09802">
        <ele>202</ele>
        <time>2020-08-22 08:53:25</time>
      </trkpt>
      <trkpt lat="41.18097" lon="1.09798">
        <ele>202.2</ele>
        <time>2020-08-22 08:53:26</time>
      </trkpt>
      <trkpt lat="41.18096" lon="1.09793">
        <ele>202.8</ele>
        <time>2020-08-22 08:53:27</time>
      </trkpt>
      <trkpt lat="41.18095" lon="1.09789">
        <ele>203</ele>
        <time>2020-08-22 08:53:28</time>
      </trkpt>
      <trkpt lat="41.18093" lon="1.09786">
        <ele>203.2</ele>
        <time>2020-08-22 08:53:29</time>
      </trkpt>
      <trkpt lat="41.18092" lon="1.09782">
        <ele>203.4</ele>
        <time>2020-08-22 08:53:30</time>
      </trkpt>
      <trkpt lat="41.18089" lon="1.0978">
        <ele>203.6</ele>
        <time>2020-08-22 08:53:31</time>
      </trkpt>
      <trkpt lat="41.18087" lon="1.09777">
        <ele>203.8</ele>
        <time>2020-08-22 08:53:32</time>
      </trkpt>
      <trkpt lat="41.18086" lon="1.09774">
        <ele>204.4</ele>
        <time>2020-08-22 08:53:33</time>
      </trkpt>
      <trkpt lat="41.18086" lon="1.0977">
        <ele>204.8</ele>
        <time>2020-08-22 08:53:34</time>
      </trkpt>
      <trkpt lat="41.18087" lon="1.09766">
        <ele>205</ele>
        <time>2020-08-22 08:53:35</time>
      </trkpt>
      <trkpt lat="41.1809" lon="1.09762">
        <ele>205.8</ele>
        <time>2020-08-22 08:53:36</time>
      </trkpt>
      <trkpt lat="41.18092" lon="1.09759">
        <ele>206</ele>
        <time>2020-08-22 08:53:37</time>
      </trkpt>
      <trkpt lat="41.18095" lon="1.09757">
        <ele>206.6</ele>
        <time>2020-08-22 08:53:38</time>
      </trkpt>
      <trkpt lat="41.18098" lon="1.09755">
        <ele>206.8</ele>
        <time>2020-08-22 08:53:39</time>
      </trkpt>
      <trkpt lat="41.18101" lon="1.09753">
        <ele>207.4</ele>
        <time>2020-08-22 08:53:40</time>
      </trkpt>
      <trkpt lat="41.18103" lon="1.09751">
        <ele>207.6</ele>
        <time>2020-08-22 08:53:41</time>
      </trkpt>
      <trkpt lat="41.18106" lon="1.09747">
        <ele>208.2</ele>
        <time>2020-08-22 08:53:42</time>
      </trkpt>
      <trkpt lat="41.18108" lon="1.09744">
        <ele>208.4</ele>
        <time>2020-08-22 08:53:43</time>
      </trkpt>
      <trkpt lat="41.1811" lon="1.09741">
        <ele>208.6</ele>
        <time>2020-08-22 08:53:44</time>
      </trkpt>
      <trkpt lat="41.18113" lon="1.09738">
        <ele>209</ele>
        <time>2020-08-22 08:53:45</time>
      </trkpt>
      <trkpt lat="41.18115" lon="1.09735">
        <ele>209.2</ele>
        <time>2020-08-22 08:53:46</time>
      </trkpt>
      <trkpt lat="41.18117" lon="1.09732">
        <ele>209.4</ele>
        <time>2020-08-22 08:53:47</time>
      </trkpt>
      <trkpt lat="41.1812" lon="1.0973">
        <ele>209.6</ele>
        <time>2020-08-22 08:53:48</time>
      </trkpt>
      <trkpt lat="41.18122" lon="1.0973">
        <ele>209.8</ele>
        <time>2020-08-22 08:53:49</time>
      </trkpt>
      <trkpt lat="41.18124" lon="1.09728">
        <ele>210.2</ele>
        <time>2020-08-22 08:53:50</time>
      </trkpt>
      <trkpt lat="41.18126" lon="1.09726">
        <ele>210.4</ele>
        <time>2020-08-22 08:53:51</time>
      </trkpt>
      <trkpt lat="41.18128" lon="1.09723">
        <ele>210.6</ele>
        <time>2020-08-22 08:53:52</time>
      </trkpt>
      <trkpt lat="41.18131" lon="1.09721">
        <ele>210.6</ele>
        <time>2020-08-22 08:53:53</time>
      </trkpt>
      <trkpt lat="41.18133" lon="1.09718">
        <ele>211</ele>
        <time>2020-08-22 08:53:54</time>
      </trkpt>
      <trkpt lat="41.18136" lon="1.09717">
        <ele>211</ele>
        <time>2020-08-22 08:53:55</time>
      </trkpt>
      <trkpt lat="41.1814" lon="1.09716">
        <ele>211.2</ele>
        <time>2020-08-22 08:53:56</time>
      </trkpt>
      <trkpt lat="41.18143" lon="1.09713">
        <ele>211.4</ele>
        <time>2020-08-22 08:53:57</time>
      </trkpt>
      <trkpt lat="41.18146" lon="1.09709">
        <ele>211.6</ele>
        <time>2020-08-22 08:53:58</time>
      </trkpt>
      <trkpt lat="41.18149" lon="1.09705">
        <ele>211.8</ele>
        <time>2020-08-22 08:53:59</time>
      </trkpt>
      <trkpt lat="41.18152" lon="1.09701">
        <ele>212</ele>
        <time>2020-08-22 08:54:00</time>
      </trkpt>
      <trkpt lat="41.18155" lon="1.09697">
        <ele>212</ele>
        <time>2020-08-22 08:54:01</time>
      </trkpt>
      <trkpt lat="41.18158" lon="1.09692">
        <ele>212.2</ele>
        <time>2020-08-22 08:54:02</time>
      </trkpt>
      <trkpt lat="41.18161" lon="1.09687">
        <ele>212.2</ele>
        <time>2020-08-22 08:54:03</time>
      </trkpt>
      <trkpt lat="41.18164" lon="1.09682">
        <ele>212.2</ele>
        <time>2020-08-22 08:54:04</time>
      </trkpt>
      <trkpt lat="41.18168" lon="1.09678">
        <ele>212.2</ele>
        <time>2020-08-22 08:54:05</time>
      </trkpt>
      <trkpt lat="41.18173" lon="1.09676">
        <ele>212.2</ele>
        <time>2020-08-22 08:54:06</time>
      </trkpt>
      <trkpt lat="41.18179" lon="1.09674">
        <ele>212.2</ele>
        <time>2020-08-22 08:54:07</time>
      </trkpt>
      <trkpt lat="41.18187" lon="1.09672">
        <ele>212.2</ele>
        <time>2020-08-22 08:54:08</time>
      </trkpt>
      <trkpt lat="41.18203" lon="1.09672">
        <ele>211.8</ele>
        <time>2020-08-22 08:54:10</time>
      </trkpt>
      <trkpt lat="41.18216" lon="1.09676">
        <ele>210.4</ele>
        <time>2020-08-22 08:54:12</time>
      </trkpt>
      <trkpt lat="41.18222" lon="1.09674">
        <ele>209.6</ele>
        <time>2020-08-22 08:54:13</time>
      </trkpt>
      <trkpt lat="41.18228" lon="1.09669">
        <ele>208.6</ele>
        <time>2020-08-22 08:54:14</time>
      </trkpt>
      <trkpt lat="41.18241" lon="1.09655">
        <ele>206</ele>
        <time>2020-08-22 08:54:16</time>
      </trkpt>
      <trkpt lat="41.18247" lon="1.0965">
        <ele>204.8</ele>
        <time>2020-08-22 08:54:17</time>
      </trkpt>
      <trkpt lat="41.18253" lon="1.09647">
        <ele>204.4</ele>
        <time>2020-08-22 08:54:18</time>
      </trkpt>
      <trkpt lat="41.1826" lon="1.09645">
        <ele>203.8</ele>
        <time>2020-08-22 08:54:19</time>
      </trkpt>
      <trkpt lat="41.18267" lon="1.09646">
        <ele>203.6</ele>
        <time>2020-08-22 08:54:20</time>
      </trkpt>
      <trkpt lat="41.18273" lon="1.09647">
        <ele>203</ele>
        <time>2020-08-22 08:54:21</time>
      </trkpt>
      <trkpt lat="41.18279" lon="1.09647">
        <ele>203</ele>
        <time>2020-08-22 08:54:22</time>
      </trkpt>
      <trkpt lat="41.18286" lon="1.09647">
        <ele>202.8</ele>
        <time>2020-08-22 08:54:23</time>
      </trkpt>
      <trkpt lat="41.18291" lon="1.09647">
        <ele>202.8</ele>
        <time>2020-08-22 08:54:24</time>
      </trkpt>
      <trkpt lat="41.18297" lon="1.09646">
        <ele>202.8</ele>
        <time>2020-08-22 08:54:25</time>
      </trkpt>
      <trkpt lat="41.18301" lon="1.09644">
        <ele>202.8</ele>
        <time>2020-08-22 08:54:26</time>
      </trkpt>
      <trkpt lat="41.18306" lon="1.09642">
        <ele>202.8</ele>
        <time>2020-08-22 08:54:27</time>
      </trkpt>
      <trkpt lat="41.1831" lon="1.09638">
        <ele>202.8</ele>
        <time>2020-08-22 08:54:28</time>
      </trkpt>
      <trkpt lat="41.18313" lon="1.09634">
        <ele>202.8</ele>
        <time>2020-08-22 08:54:29</time>
      </trkpt>
      <trkpt lat="41.18316" lon="1.09629">
        <ele>203</ele>
        <time>2020-08-22 08:54:30</time>
      </trkpt>
      <trkpt lat="41.18318" lon="1.09625">
        <ele>203</ele>
        <time>2020-08-22 08:54:31</time>
      </trkpt>
      <trkpt lat="41.1832" lon="1.09618">
        <ele>203.4</ele>
        <time>2020-08-22 08:54:32</time>
      </trkpt>
      <trkpt lat="41.18322" lon="1.09613">
        <ele>203.8</ele>
        <time>2020-08-22 08:54:33</time>
      </trkpt>
      <trkpt lat="41.18323" lon="1.09607">
        <ele>204</ele>
        <time>2020-08-22 08:54:34</time>
      </trkpt>
      <trkpt lat="41.18325" lon="1.09602">
        <ele>204.2</ele>
        <time>2020-08-22 08:54:35</time>
      </trkpt>
      <trkpt lat="41.18326" lon="1.09596">
        <ele>204.2</ele>
        <time>2020-08-22 08:54:36</time>
      </trkpt>
      <trkpt lat="41.18327" lon="1.0959">
        <ele>204.4</ele>
        <time>2020-08-22 08:54:37</time>
      </trkpt>
      <trkpt lat="41.18328" lon="1.09584">
        <ele>204.4</ele>
        <time>2020-08-22 08:54:38</time>
      </trkpt>
      <trkpt lat="41.18329" lon="1.09578">
        <ele>204.2</ele>
        <time>2020-08-22 08:54:39</time>
      </trkpt>
      <trkpt lat="41.18331" lon="1.09572">
        <ele>204.2</ele>
        <time>2020-08-22 08:54:40</time>
      </trkpt>
      <trkpt lat="41.18332" lon="1.09567">
        <ele>204.2</ele>
        <time>2020-08-22 08:54:41</time>
      </trkpt>
      <trkpt lat="41.18333" lon="1.09561">
        <ele>204.4</ele>
        <time>2020-08-22 08:54:42</time>
      </trkpt>
      <trkpt lat="41.18335" lon="1.09556">
        <ele>204.4</ele>
        <time>2020-08-22 08:54:43</time>
      </trkpt>
      <trkpt lat="41.18341" lon="1.09539">
        <ele>204.8</ele>
        <time>2020-08-22 08:54:46</time>
      </trkpt>
      <trkpt lat="41.18343" lon="1.09533">
        <ele>204.8</ele>
        <time>2020-08-22 08:54:47</time>
      </trkpt>
      <trkpt lat="41.18349" lon="1.09526">
        <ele>205.2</ele>
        <time>2020-08-22 08:54:49</time>
      </trkpt>
      <trkpt lat="41.18353" lon="1.09525">
        <ele>205.4</ele>
        <time>2020-08-22 08:54:50</time>
      </trkpt>
      <trkpt lat="41.18356" lon="1.09525">
        <ele>205.6</ele>
        <time>2020-08-22 08:54:51</time>
      </trkpt>
      <trkpt lat="41.1836" lon="1.09526">
        <ele>205.8</ele>
        <time>2020-08-22 08:54:52</time>
      </trkpt>
      <trkpt lat="41.18363" lon="1.09527">
        <ele>206.2</ele>
        <time>2020-08-22 08:54:53</time>
      </trkpt>
      <trkpt lat="41.18366" lon="1.09528">
        <ele>206.4</ele>
        <time>2020-08-22 08:54:54</time>
      </trkpt>
      <trkpt lat="41.18369" lon="1.09529">
        <ele>206.6</ele>
        <time>2020-08-22 08:54:55</time>
      </trkpt>
      <trkpt lat="41.18372" lon="1.0953">
        <ele>206.8</ele>
        <time>2020-08-22 08:54:56</time>
      </trkpt>
      <trkpt lat="41.18375" lon="1.0953">
        <ele>207.2</ele>
        <time>2020-08-22 08:54:57</time>
      </trkpt>
      <trkpt lat="41.18377" lon="1.09531">
        <ele>207.4</ele>
        <time>2020-08-22 08:54:58</time>
      </trkpt>
      <trkpt lat="41.1838" lon="1.09531">
        <ele>208</ele>
        <time>2020-08-22 08:54:59</time>
      </trkpt>
      <trkpt lat="41.18383" lon="1.09532">
        <ele>208.4</ele>
        <time>2020-08-22 08:55:00</time>
      </trkpt>
      <trkpt lat="41.18385" lon="1.09532">
        <ele>208.8</ele>
        <time>2020-08-22 08:55:01</time>
      </trkpt>
      <trkpt lat="41.18388" lon="1.09532">
        <ele>209.4</ele>
        <time>2020-08-22 08:55:02</time>
      </trkpt>
      <trkpt lat="41.18391" lon="1.09532">
        <ele>209.6</ele>
        <time>2020-08-22 08:55:03</time>
      </trkpt>
      <trkpt lat="41.18393" lon="1.09532">
        <ele>210.2</ele>
        <time>2020-08-22 08:55:04</time>
      </trkpt>
      <trkpt lat="41.18396" lon="1.09531">
        <ele>210.6</ele>
        <time>2020-08-22 08:55:05</time>
      </trkpt>
      <trkpt lat="41.18399" lon="1.09531">
        <ele>210.8</ele>
        <time>2020-08-22 08:55:06</time>
      </trkpt>
      <trkpt lat="41.18402" lon="1.09531">
        <ele>211</ele>
        <time>2020-08-22 08:55:07</time>
      </trkpt>
      <trkpt lat="41.18405" lon="1.09531">
        <ele>212</ele>
        <time>2020-08-22 08:55:08</time>
      </trkpt>
      <trkpt lat="41.18408" lon="1.09531">
        <ele>212.6</ele>
        <time>2020-08-22 08:55:09</time>
      </trkpt>
      <trkpt lat="41.1841" lon="1.09531">
        <ele>213</ele>
        <time>2020-08-22 08:55:10</time>
      </trkpt>
      <trkpt lat="41.18413" lon="1.09531">
        <ele>213.6</ele>
        <time>2020-08-22 08:55:11</time>
      </trkpt>
      <trkpt lat="41.18416" lon="1.09531">
        <ele>214</ele>
        <time>2020-08-22 08:55:12</time>
      </trkpt>
      <trkpt lat="41.18419" lon="1.0953">
        <ele>214.4</ele>
        <time>2020-08-22 08:55:13</time>
      </trkpt>
      <trkpt lat="41.18423" lon="1.0953">
        <ele>214.8</ele>
        <time>2020-08-22 08:55:14</time>
      </trkpt>
      <trkpt lat="41.18426" lon="1.09529">
        <ele>215.6</ele>
        <time>2020-08-22 08:55:15</time>
      </trkpt>
      <trkpt lat="41.1843" lon="1.09528">
        <ele>216.2</ele>
        <time>2020-08-22 08:55:16</time>
      </trkpt>
      <trkpt lat="41.18433" lon="1.09528">
        <ele>216.8</ele>
        <time>2020-08-22 08:55:17</time>
      </trkpt>
      <trkpt lat="41.18436" lon="1.09529">
        <ele>217.4</ele>
        <time>2020-08-22 08:55:18</time>
      </trkpt>
      <trkpt lat="41.18438" lon="1.0953">
        <ele>217.8</ele>
        <time>2020-08-22 08:55:19</time>
      </trkpt>
      <trkpt lat="41.18441" lon="1.09532">
        <ele>218.4</ele>
        <time>2020-08-22 08:55:20</time>
      </trkpt>
      <trkpt lat="41.18443" lon="1.09533">
        <ele>218.8</ele>
        <time>2020-08-22 08:55:21</time>
      </trkpt>
      <trkpt lat="41.18445" lon="1.09535">
        <ele>219.4</ele>
        <time>2020-08-22 08:55:22</time>
      </trkpt>
      <trkpt lat="41.18447" lon="1.09537">
        <ele>219.4</ele>
        <time>2020-08-22 08:55:23</time>
      </trkpt>
      <trkpt lat="41.1845" lon="1.09539">
        <ele>220</ele>
        <time>2020-08-22 08:55:24</time>
      </trkpt>
      <trkpt lat="41.18452" lon="1.09542">
        <ele>220.4</ele>
        <time>2020-08-22 08:55:25</time>
      </trkpt>
      <trkpt lat="41.18454" lon="1.09544">
        <ele>220.6</ele>
        <time>2020-08-22 08:55:26</time>
      </trkpt>
      <trkpt lat="41.18456" lon="1.09547">
        <ele>221</ele>
        <time>2020-08-22 08:55:27</time>
      </trkpt>
      <trkpt lat="41.18458" lon="1.09549">
        <ele>221.2</ele>
        <time>2020-08-22 08:55:28</time>
      </trkpt>
      <trkpt lat="41.18461" lon="1.09552">
        <ele>221.8</ele>
        <time>2020-08-22 08:55:29</time>
      </trkpt>
      <trkpt lat="41.18463" lon="1.09555">
        <ele>221.8</ele>
        <time>2020-08-22 08:55:30</time>
      </trkpt>
      <trkpt lat="41.18465" lon="1.09558">
        <ele>222</ele>
        <time>2020-08-22 08:55:31</time>
      </trkpt>
      <trkpt lat="41.18468" lon="1.0956">
        <ele>222</ele>
        <time>2020-08-22 08:55:32</time>
      </trkpt>
      <trkpt lat="41.1847" lon="1.09563">
        <ele>222.2</ele>
        <time>2020-08-22 08:55:33</time>
      </trkpt>
      <trkpt lat="41.18471" lon="1.09566">
        <ele>222.4</ele>
        <time>2020-08-22 08:55:34</time>
      </trkpt>
      <trkpt lat="41.18473" lon="1.09569">
        <ele>222.6</ele>
        <time>2020-08-22 08:55:35</time>
      </trkpt>
      <trkpt lat="41.18475" lon="1.09571">
        <ele>223</ele>
        <time>2020-08-22 08:55:36</time>
      </trkpt>
      <trkpt lat="41.18477" lon="1.09574">
        <ele>223.2</ele>
        <time>2020-08-22 08:55:37</time>
      </trkpt>
      <trkpt lat="41.18478" lon="1.09577">
        <ele>223.6</ele>
        <time>2020-08-22 08:55:38</time>
      </trkpt>
      <trkpt lat="41.1848" lon="1.0958">
        <ele>223.8</ele>
        <time>2020-08-22 08:55:39</time>
      </trkpt>
      <trkpt lat="41.18482" lon="1.09583">
        <ele>224.2</ele>
        <time>2020-08-22 08:55:40</time>
      </trkpt>
      <trkpt lat="41.18484" lon="1.09586">
        <ele>224.2</ele>
        <time>2020-08-22 08:55:41</time>
      </trkpt>
      <trkpt lat="41.18485" lon="1.09589">
        <ele>224.6</ele>
        <time>2020-08-22 08:55:42</time>
      </trkpt>
      <trkpt lat="41.18487" lon="1.09591">
        <ele>224.8</ele>
        <time>2020-08-22 08:55:43</time>
      </trkpt>
      <trkpt lat="41.1849" lon="1.09594">
        <ele>225</ele>
        <time>2020-08-22 08:55:44</time>
      </trkpt>
      <trkpt lat="41.18492" lon="1.09596">
        <ele>225.6</ele>
        <time>2020-08-22 08:55:45</time>
      </trkpt>
      <trkpt lat="41.18495" lon="1.09598">
        <ele>226</ele>
        <time>2020-08-22 08:55:46</time>
      </trkpt>
      <trkpt lat="41.18497" lon="1.09599">
        <ele>226.6</ele>
        <time>2020-08-22 08:55:47</time>
      </trkpt>
      <trkpt lat="41.18499" lon="1.09601">
        <ele>227</ele>
        <time>2020-08-22 08:55:48</time>
      </trkpt>
      <trkpt lat="41.18502" lon="1.09603">
        <ele>227.6</ele>
        <time>2020-08-22 08:55:49</time>
      </trkpt>
      <trkpt lat="41.18505" lon="1.09606">
        <ele>227.8</ele>
        <time>2020-08-22 08:55:50</time>
      </trkpt>
      <trkpt lat="41.18507" lon="1.09608">
        <ele>228.6</ele>
        <time>2020-08-22 08:55:51</time>
      </trkpt>
      <trkpt lat="41.1851" lon="1.0961">
        <ele>229.2</ele>
        <time>2020-08-22 08:55:52</time>
      </trkpt>
      <trkpt lat="41.18512" lon="1.09612">
        <ele>229.4</ele>
        <time>2020-08-22 08:55:53</time>
      </trkpt>
      <trkpt lat="41.18515" lon="1.09615">
        <ele>229.6</ele>
        <time>2020-08-22 08:55:54</time>
      </trkpt>
      <trkpt lat="41.18518" lon="1.09617">
        <ele>229.8</ele>
        <time>2020-08-22 08:55:55</time>
      </trkpt>
      <trkpt lat="41.18521" lon="1.09619">
        <ele>229.8</ele>
        <time>2020-08-22 08:55:56</time>
      </trkpt>
      <trkpt lat="41.18524" lon="1.09622">
        <ele>230</ele>
        <time>2020-08-22 08:55:57</time>
      </trkpt>
      <trkpt lat="41.18527" lon="1.09625">
        <ele>230</ele>
        <time>2020-08-22 08:55:58</time>
      </trkpt>
      <trkpt lat="41.18529" lon="1.09628">
        <ele>230.2</ele>
        <time>2020-08-22 08:55:59</time>
      </trkpt>
      <trkpt lat="41.18532" lon="1.09631">
        <ele>230.2</ele>
        <time>2020-08-22 08:56:00</time>
      </trkpt>
      <trkpt lat="41.18535" lon="1.09634">
        <ele>230.6</ele>
        <time>2020-08-22 08:56:01</time>
      </trkpt>
      <trkpt lat="41.18538" lon="1.09637">
        <ele>230.6</ele>
        <time>2020-08-22 08:56:02</time>
      </trkpt>
      <trkpt lat="41.1854" lon="1.09639">
        <ele>230.8</ele>
        <time>2020-08-22 08:56:03</time>
      </trkpt>
      <trkpt lat="41.18544" lon="1.09643">
        <ele>231</ele>
        <time>2020-08-22 08:56:04</time>
      </trkpt>
      <trkpt lat="41.18547" lon="1.09645">
        <ele>230.8</ele>
        <time>2020-08-22 08:56:05</time>
      </trkpt>
      <trkpt lat="41.1855" lon="1.09647">
        <ele>231</ele>
        <time>2020-08-22 08:56:06</time>
      </trkpt>
      <trkpt lat="41.18552" lon="1.09649">
        <ele>231</ele>
        <time>2020-08-22 08:56:07</time>
      </trkpt>
      <trkpt lat="41.18555" lon="1.09651">
        <ele>231</ele>
        <time>2020-08-22 08:56:08</time>
      </trkpt>
      <trkpt lat="41.18558" lon="1.09654">
        <ele>231.2</ele>
        <time>2020-08-22 08:56:09</time>
      </trkpt>
      <trkpt lat="41.18562" lon="1.09656">
        <ele>231.4</ele>
        <time>2020-08-22 08:56:10</time>
      </trkpt>
      <trkpt lat="41.18565" lon="1.09659">
        <ele>231.4</ele>
        <time>2020-08-22 08:56:11</time>
      </trkpt>
      <trkpt lat="41.18568" lon="1.09661">
        <ele>231.8</ele>
        <time>2020-08-22 08:56:12</time>
      </trkpt>
      <trkpt lat="41.18572" lon="1.09663">
        <ele>231.8</ele>
        <time>2020-08-22 08:56:13</time>
      </trkpt>
      <trkpt lat="41.18575" lon="1.09665">
        <ele>232</ele>
        <time>2020-08-22 08:56:14</time>
      </trkpt>
      <trkpt lat="41.18578" lon="1.09667">
        <ele>232.2</ele>
        <time>2020-08-22 08:56:15</time>
      </trkpt>
      <trkpt lat="41.18581" lon="1.0967">
        <ele>232.2</ele>
        <time>2020-08-22 08:56:16</time>
      </trkpt>
      <trkpt lat="41.18584" lon="1.09672">
        <ele>232.4</ele>
        <time>2020-08-22 08:56:17</time>
      </trkpt>
      <trkpt lat="41.18587" lon="1.09674">
        <ele>232.6</ele>
        <time>2020-08-22 08:56:18</time>
      </trkpt>
      <trkpt lat="41.1859" lon="1.09676">
        <ele>233</ele>
        <time>2020-08-22 08:56:19</time>
      </trkpt>
      <trkpt lat="41.18593" lon="1.09678">
        <ele>233.2</ele>
        <time>2020-08-22 08:56:20</time>
      </trkpt>
      <trkpt lat="41.18596" lon="1.0968">
        <ele>233.4</ele>
        <time>2020-08-22 08:56:21</time>
      </trkpt>
      <trkpt lat="41.18599" lon="1.09682">
        <ele>233.6</ele>
        <time>2020-08-22 08:56:22</time>
      </trkpt>
      <trkpt lat="41.18602" lon="1.09684">
        <ele>233.6</ele>
        <time>2020-08-22 08:56:23</time>
      </trkpt>
      <trkpt lat="41.18605" lon="1.09686">
        <ele>233.8</ele>
        <time>2020-08-22 08:56:24</time>
      </trkpt>
      <trkpt lat="41.18608" lon="1.09687">
        <ele>234</ele>
        <time>2020-08-22 08:56:25</time>
      </trkpt>
      <trkpt lat="41.1861" lon="1.09688">
        <ele>234.2</ele>
        <time>2020-08-22 08:56:26</time>
      </trkpt>
      <trkpt lat="41.18613" lon="1.09689">
        <ele>234.2</ele>
        <time>2020-08-22 08:56:27</time>
      </trkpt>
      <trkpt lat="41.18616" lon="1.0969">
        <ele>234.8</ele>
        <time>2020-08-22 08:56:28</time>
      </trkpt>
      <trkpt lat="41.18619" lon="1.09691">
        <ele>235</ele>
        <time>2020-08-22 08:56:29</time>
      </trkpt>
      <trkpt lat="41.18622" lon="1.09692">
        <ele>235.4</ele>
        <time>2020-08-22 08:56:30</time>
      </trkpt>
      <trkpt lat="41.18624" lon="1.09693">
        <ele>235.6</ele>
        <time>2020-08-22 08:56:31</time>
      </trkpt>
      <trkpt lat="41.18627" lon="1.09694">
        <ele>236.2</ele>
        <time>2020-08-22 08:56:32</time>
      </trkpt>
      <trkpt lat="41.1863" lon="1.09695">
        <ele>236.4</ele>
        <time>2020-08-22 08:56:33</time>
      </trkpt>
      <trkpt lat="41.18632" lon="1.09695">
        <ele>237</ele>
        <time>2020-08-22 08:56:34</time>
      </trkpt>
      <trkpt lat="41.18635" lon="1.09696">
        <ele>237.4</ele>
        <time>2020-08-22 08:56:35</time>
      </trkpt>
      <trkpt lat="41.18639" lon="1.09696">
        <ele>237.6</ele>
        <time>2020-08-22 08:56:36</time>
      </trkpt>
      <trkpt lat="41.18642" lon="1.09697">
        <ele>238</ele>
        <time>2020-08-22 08:56:37</time>
      </trkpt>
      <trkpt lat="41.18645" lon="1.09697">
        <ele>238.4</ele>
        <time>2020-08-22 08:56:38</time>
      </trkpt>
      <trkpt lat="41.18648" lon="1.09697">
        <ele>238.8</ele>
        <time>2020-08-22 08:56:39</time>
      </trkpt>
      <trkpt lat="41.18651" lon="1.09697">
        <ele>239</ele>
        <time>2020-08-22 08:56:40</time>
      </trkpt>
      <trkpt lat="41.18654" lon="1.09698">
        <ele>239.4</ele>
        <time>2020-08-22 08:56:41</time>
      </trkpt>
      <trkpt lat="41.18657" lon="1.09699">
        <ele>239.6</ele>
        <time>2020-08-22 08:56:42</time>
      </trkpt>
      <trkpt lat="41.1866" lon="1.097">
        <ele>239.8</ele>
        <time>2020-08-22 08:56:43</time>
      </trkpt>
      <trkpt lat="41.18662" lon="1.09702">
        <ele>240</ele>
        <time>2020-08-22 08:56:44</time>
      </trkpt>
      <trkpt lat="41.18665" lon="1.09703">
        <ele>240.2</ele>
        <time>2020-08-22 08:56:45</time>
      </trkpt>
      <trkpt lat="41.18668" lon="1.09704">
        <ele>240.4</ele>
        <time>2020-08-22 08:56:46</time>
      </trkpt>
      <trkpt lat="41.18671" lon="1.09705">
        <ele>240.6</ele>
        <time>2020-08-22 08:56:47</time>
      </trkpt>
      <trkpt lat="41.18674" lon="1.09706">
        <ele>241</ele>
        <time>2020-08-22 08:56:48</time>
      </trkpt>
      <trkpt lat="41.18678" lon="1.09707">
        <ele>241.2</ele>
        <time>2020-08-22 08:56:49</time>
      </trkpt>
      <trkpt lat="41.18681" lon="1.09707">
        <ele>241.6</ele>
        <time>2020-08-22 08:56:50</time>
      </trkpt>
      <trkpt lat="41.18684" lon="1.09707">
        <ele>241.8</ele>
        <time>2020-08-22 08:56:51</time>
      </trkpt>
      <trkpt lat="41.18687" lon="1.09708">
        <ele>241.8</ele>
        <time>2020-08-22 08:56:52</time>
      </trkpt>
      <trkpt lat="41.1869" lon="1.09709">
        <ele>242</ele>
        <time>2020-08-22 08:56:53</time>
      </trkpt>
      <trkpt lat="41.18693" lon="1.0971">
        <ele>242.2</ele>
        <time>2020-08-22 08:56:54</time>
      </trkpt>
      <trkpt lat="41.18695" lon="1.09712">
        <ele>242.4</ele>
        <time>2020-08-22 08:56:55</time>
      </trkpt>
      <trkpt lat="41.18699" lon="1.09714">
        <ele>242.6</ele>
        <time>2020-08-22 08:56:56</time>
      </trkpt>
      <trkpt lat="41.18702" lon="1.09715">
        <ele>242.8</ele>
        <time>2020-08-22 08:56:57</time>
      </trkpt>
      <trkpt lat="41.18705" lon="1.09716">
        <ele>242.8</ele>
        <time>2020-08-22 08:56:58</time>
      </trkpt>
      <trkpt lat="41.18708" lon="1.09717">
        <ele>243</ele>
        <time>2020-08-22 08:56:59</time>
      </trkpt>
      <trkpt lat="41.18712" lon="1.09719">
        <ele>243.2</ele>
        <time>2020-08-22 08:57:00</time>
      </trkpt>
      <trkpt lat="41.18715" lon="1.09718">
        <ele>243.2</ele>
        <time>2020-08-22 08:57:01</time>
      </trkpt>
      <trkpt lat="41.18718" lon="1.09719">
        <ele>243.4</ele>
        <time>2020-08-22 08:57:02</time>
      </trkpt>
      <trkpt lat="41.18721" lon="1.0972">
        <ele>243.4</ele>
        <time>2020-08-22 08:57:03</time>
      </trkpt>
      <trkpt lat="41.18724" lon="1.09721">
        <ele>243.6</ele>
        <time>2020-08-22 08:57:04</time>
      </trkpt>
      <trkpt lat="41.18728" lon="1.09722">
        <ele>243.6</ele>
        <time>2020-08-22 08:57:05</time>
      </trkpt>
      <trkpt lat="41.18731" lon="1.09724">
        <ele>244</ele>
        <time>2020-08-22 08:57:06</time>
      </trkpt>
      <trkpt lat="41.18734" lon="1.09726">
        <ele>244</ele>
        <time>2020-08-22 08:57:07</time>
      </trkpt>
      <trkpt lat="41.18737" lon="1.09727">
        <ele>244.4</ele>
        <time>2020-08-22 08:57:08</time>
      </trkpt>
      <trkpt lat="41.18741" lon="1.0973">
        <ele>244.8</ele>
        <time>2020-08-22 08:57:09</time>
      </trkpt>
      <trkpt lat="41.18744" lon="1.09734">
        <ele>245</ele>
        <time>2020-08-22 08:57:10</time>
      </trkpt>
      <trkpt lat="41.18745" lon="1.09737">
        <ele>245.2</ele>
        <time>2020-08-22 08:57:11</time>
      </trkpt>
      <trkpt lat="41.18748" lon="1.0974">
        <ele>245.4</ele>
        <time>2020-08-22 08:57:12</time>
      </trkpt>
      <trkpt lat="41.1875" lon="1.09742">
        <ele>245.8</ele>
        <time>2020-08-22 08:57:13</time>
      </trkpt>
      <trkpt lat="41.18752" lon="1.09744">
        <ele>246</ele>
        <time>2020-08-22 08:57:14</time>
      </trkpt>
      <trkpt lat="41.18755" lon="1.09747">
        <ele>246.2</ele>
        <time>2020-08-22 08:57:15</time>
      </trkpt>
      <trkpt lat="41.18757" lon="1.0975">
        <ele>246.4</ele>
        <time>2020-08-22 08:57:16</time>
      </trkpt>
      <trkpt lat="41.18759" lon="1.09753">
        <ele>246.6</ele>
        <time>2020-08-22 08:57:17</time>
      </trkpt>
      <trkpt lat="41.18762" lon="1.09756">
        <ele>246.8</ele>
        <time>2020-08-22 08:57:18</time>
      </trkpt>
      <trkpt lat="41.18764" lon="1.09759">
        <ele>247</ele>
        <time>2020-08-22 08:57:19</time>
      </trkpt>
      <trkpt lat="41.18766" lon="1.09762">
        <ele>247</ele>
        <time>2020-08-22 08:57:20</time>
      </trkpt>
      <trkpt lat="41.18769" lon="1.09765">
        <ele>247</ele>
        <time>2020-08-22 08:57:21</time>
      </trkpt>
      <trkpt lat="41.18771" lon="1.09767">
        <ele>247.4</ele>
        <time>2020-08-22 08:57:22</time>
      </trkpt>
      <trkpt lat="41.18774" lon="1.09769">
        <ele>247.4</ele>
        <time>2020-08-22 08:57:23</time>
      </trkpt>
      <trkpt lat="41.18777" lon="1.0977">
        <ele>247.6</ele>
        <time>2020-08-22 08:57:24</time>
      </trkpt>
      <trkpt lat="41.1878" lon="1.09772">
        <ele>247.8</ele>
        <time>2020-08-22 08:57:25</time>
      </trkpt>
      <trkpt lat="41.18783" lon="1.09773">
        <ele>247.8</ele>
        <time>2020-08-22 08:57:26</time>
      </trkpt>
      <trkpt lat="41.18787" lon="1.09774">
        <ele>248.4</ele>
        <time>2020-08-22 08:57:27</time>
      </trkpt>
      <trkpt lat="41.1879" lon="1.09775">
        <ele>248.6</ele>
        <time>2020-08-22 08:57:28</time>
      </trkpt>
      <trkpt lat="41.18793" lon="1.09775">
        <ele>248.8</ele>
        <time>2020-08-22 08:57:29</time>
      </trkpt>
      <trkpt lat="41.18796" lon="1.09775">
        <ele>249</ele>
        <time>2020-08-22 08:57:30</time>
      </trkpt>
      <trkpt lat="41.18799" lon="1.09776">
        <ele>249.2</ele>
        <time>2020-08-22 08:57:31</time>
      </trkpt>
      <trkpt lat="41.18802" lon="1.09777">
        <ele>249.2</ele>
        <time>2020-08-22 08:57:32</time>
      </trkpt>
      <trkpt lat="41.18806" lon="1.09777">
        <ele>249.6</ele>
        <time>2020-08-22 08:57:33</time>
      </trkpt>
      <trkpt lat="41.18809" lon="1.09778">
        <ele>249.8</ele>
        <time>2020-08-22 08:57:34</time>
      </trkpt>
      <trkpt lat="41.18812" lon="1.09778">
        <ele>249.8</ele>
        <time>2020-08-22 08:57:35</time>
      </trkpt>
      <trkpt lat="41.18815" lon="1.09779">
        <ele>250</ele>
        <time>2020-08-22 08:57:36</time>
      </trkpt>
      <trkpt lat="41.18818" lon="1.0978">
        <ele>250.2</ele>
        <time>2020-08-22 08:57:37</time>
      </trkpt>
      <trkpt lat="41.18821" lon="1.0978">
        <ele>250.4</ele>
        <time>2020-08-22 08:57:38</time>
      </trkpt>
      <trkpt lat="41.18824" lon="1.09781">
        <ele>250.6</ele>
        <time>2020-08-22 08:57:39</time>
      </trkpt>
      <trkpt lat="41.18827" lon="1.09782">
        <ele>250.8</ele>
        <time>2020-08-22 08:57:40</time>
      </trkpt>
      <trkpt lat="41.1883" lon="1.09783">
        <ele>250.8</ele>
        <time>2020-08-22 08:57:41</time>
      </trkpt>
      <trkpt lat="41.18833" lon="1.09783">
        <ele>251.2</ele>
        <time>2020-08-22 08:57:42</time>
      </trkpt>
      <trkpt lat="41.18836" lon="1.09784">
        <ele>251.6</ele>
        <time>2020-08-22 08:57:43</time>
      </trkpt>
      <trkpt lat="41.18839" lon="1.09785">
        <ele>251.8</ele>
        <time>2020-08-22 08:57:44</time>
      </trkpt>
      <trkpt lat="41.18842" lon="1.09786">
        <ele>252</ele>
        <time>2020-08-22 08:57:45</time>
      </trkpt>
      <trkpt lat="41.18845" lon="1.09787">
        <ele>252.2</ele>
        <time>2020-08-22 08:57:46</time>
      </trkpt>
      <trkpt lat="41.18848" lon="1.09788">
        <ele>252.4</ele>
        <time>2020-08-22 08:57:47</time>
      </trkpt>
      <trkpt lat="41.18852" lon="1.09789">
        <ele>252.6</ele>
        <time>2020-08-22 08:57:48</time>
      </trkpt>
      <trkpt lat="41.18855" lon="1.0979">
        <ele>253</ele>
        <time>2020-08-22 08:57:49</time>
      </trkpt>
      <trkpt lat="41.18858" lon="1.09791">
        <ele>253.2</ele>
        <time>2020-08-22 08:57:50</time>
      </trkpt>
      <trkpt lat="41.1886" lon="1.09792">
        <ele>253.4</ele>
        <time>2020-08-22 08:57:51</time>
      </trkpt>
      <trkpt lat="41.18863" lon="1.09792">
        <ele>253.6</ele>
        <time>2020-08-22 08:57:52</time>
      </trkpt>
      <trkpt lat="41.18865" lon="1.09793">
        <ele>253.8</ele>
        <time>2020-08-22 08:57:53</time>
      </trkpt>
      <trkpt lat="41.18868" lon="1.09794">
        <ele>254</ele>
        <time>2020-08-22 08:57:54</time>
      </trkpt>
      <trkpt lat="41.18871" lon="1.09795">
        <ele>254.4</ele>
        <time>2020-08-22 08:57:55</time>
      </trkpt>
      <trkpt lat="41.18874" lon="1.09795">
        <ele>254.8</ele>
        <time>2020-08-22 08:57:56</time>
      </trkpt>
      <trkpt lat="41.18876" lon="1.09796">
        <ele>255</ele>
        <time>2020-08-22 08:57:57</time>
      </trkpt>
      <trkpt lat="41.18879" lon="1.09796">
        <ele>255.4</ele>
        <time>2020-08-22 08:57:58</time>
      </trkpt>
      <trkpt lat="41.18882" lon="1.09796">
        <ele>255.6</ele>
        <time>2020-08-22 08:57:59</time>
      </trkpt>
      <trkpt lat="41.18884" lon="1.09796">
        <ele>255.8</ele>
        <time>2020-08-22 08:58:00</time>
      </trkpt>
      <trkpt lat="41.18887" lon="1.09796">
        <ele>256</ele>
        <time>2020-08-22 08:58:01</time>
      </trkpt>
      <trkpt lat="41.1889" lon="1.09796">
        <ele>256.2</ele>
        <time>2020-08-22 08:58:02</time>
      </trkpt>
      <trkpt lat="41.18892" lon="1.09795">
        <ele>256.6</ele>
        <time>2020-08-22 08:58:03</time>
      </trkpt>
      <trkpt lat="41.18895" lon="1.09795">
        <ele>256.6</ele>
        <time>2020-08-22 08:58:04</time>
      </trkpt>
      <trkpt lat="41.18897" lon="1.09795">
        <ele>257</ele>
        <time>2020-08-22 08:58:05</time>
      </trkpt>
      <trkpt lat="41.18899" lon="1.09795">
        <ele>257</ele>
        <time>2020-08-22 08:58:06</time>
      </trkpt>
      <trkpt lat="41.18901" lon="1.09795">
        <ele>257.8</ele>
        <time>2020-08-22 08:58:07</time>
      </trkpt>
      <trkpt lat="41.18904" lon="1.09795">
        <ele>258</ele>
        <time>2020-08-22 08:58:08</time>
      </trkpt>
      <trkpt lat="41.18906" lon="1.09795">
        <ele>258.4</ele>
        <time>2020-08-22 08:58:09</time>
      </trkpt>
      <trkpt lat="41.18909" lon="1.09795">
        <ele>259</ele>
        <time>2020-08-22 08:58:10</time>
      </trkpt>
      <trkpt lat="41.18911" lon="1.09794">
        <ele>259.4</ele>
        <time>2020-08-22 08:58:11</time>
      </trkpt>
      <trkpt lat="41.18913" lon="1.09794">
        <ele>260</ele>
        <time>2020-08-22 08:58:12</time>
      </trkpt>
      <trkpt lat="41.18915" lon="1.09794">
        <ele>260.2</ele>
        <time>2020-08-22 08:58:13</time>
      </trkpt>
      <trkpt lat="41.18918" lon="1.09794">
        <ele>260.8</ele>
        <time>2020-08-22 08:58:14</time>
      </trkpt>
      <trkpt lat="41.18921" lon="1.09793">
        <ele>261</ele>
        <time>2020-08-22 08:58:15</time>
      </trkpt>
      <trkpt lat="41.18924" lon="1.09794">
        <ele>261.4</ele>
        <time>2020-08-22 08:58:16</time>
      </trkpt>
      <trkpt lat="41.18926" lon="1.09794">
        <ele>261.8</ele>
        <time>2020-08-22 08:58:17</time>
      </trkpt>
      <trkpt lat="41.18929" lon="1.09794">
        <ele>262</ele>
        <time>2020-08-22 08:58:18</time>
      </trkpt>
      <trkpt lat="41.18931" lon="1.09795">
        <ele>262.2</ele>
        <time>2020-08-22 08:58:19</time>
      </trkpt>
      <trkpt lat="41.18933" lon="1.09795">
        <ele>262.4</ele>
        <time>2020-08-22 08:58:20</time>
      </trkpt>
      <trkpt lat="41.18936" lon="1.09796">
        <ele>262.8</ele>
        <time>2020-08-22 08:58:21</time>
      </trkpt>
      <trkpt lat="41.18938" lon="1.09796">
        <ele>263</ele>
        <time>2020-08-22 08:58:22</time>
      </trkpt>
      <trkpt lat="41.18941" lon="1.09796">
        <ele>263.4</ele>
        <time>2020-08-22 08:58:23</time>
      </trkpt>
      <trkpt lat="41.18944" lon="1.09797">
        <ele>263.6</ele>
        <time>2020-08-22 08:58:24</time>
      </trkpt>
      <trkpt lat="41.18946" lon="1.09798">
        <ele>264</ele>
        <time>2020-08-22 08:58:25</time>
      </trkpt>
      <trkpt lat="41.18949" lon="1.09799">
        <ele>264.4</ele>
        <time>2020-08-22 08:58:26</time>
      </trkpt>
      <trkpt lat="41.18951" lon="1.098">
        <ele>264.4</ele>
        <time>2020-08-22 08:58:27</time>
      </trkpt>
      <trkpt lat="41.18954" lon="1.09801">
        <ele>264.8</ele>
        <time>2020-08-22 08:58:28</time>
      </trkpt>
      <trkpt lat="41.18957" lon="1.09802">
        <ele>264.8</ele>
        <time>2020-08-22 08:58:29</time>
      </trkpt>
      <trkpt lat="41.18959" lon="1.09802">
        <ele>265.2</ele>
        <time>2020-08-22 08:58:30</time>
      </trkpt>
      <trkpt lat="41.18962" lon="1.09802">
        <ele>265.4</ele>
        <time>2020-08-22 08:58:31</time>
      </trkpt>
      <trkpt lat="41.18964" lon="1.09803">
        <ele>265.8</ele>
        <time>2020-08-22 08:58:32</time>
      </trkpt>
      <trkpt lat="41.18966" lon="1.09803">
        <ele>265.8</ele>
        <time>2020-08-22 08:58:33</time>
      </trkpt>
      <trkpt lat="41.1897" lon="1.09804">
        <ele>266</ele>
        <time>2020-08-22 08:58:34</time>
      </trkpt>
      <trkpt lat="41.18973" lon="1.09804">
        <ele>266.4</ele>
        <time>2020-08-22 08:58:35</time>
      </trkpt>
      <trkpt lat="41.18975" lon="1.09806">
        <ele>266.6</ele>
        <time>2020-08-22 08:58:36</time>
      </trkpt>
      <trkpt lat="41.18979" lon="1.09806">
        <ele>267</ele>
        <time>2020-08-22 08:58:37</time>
      </trkpt>
      <trkpt lat="41.18981" lon="1.09807">
        <ele>267</ele>
        <time>2020-08-22 08:58:38</time>
      </trkpt>
      <trkpt lat="41.18984" lon="1.09808">
        <ele>267.2</ele>
        <time>2020-08-22 08:58:39</time>
      </trkpt>
      <trkpt lat="41.18987" lon="1.09808">
        <ele>267.4</ele>
        <time>2020-08-22 08:58:40</time>
      </trkpt>
      <trkpt lat="41.1899" lon="1.09808">
        <ele>267.6</ele>
        <time>2020-08-22 08:58:41</time>
      </trkpt>
      <trkpt lat="41.18992" lon="1.09809">
        <ele>267.8</ele>
        <time>2020-08-22 08:58:42</time>
      </trkpt>
      <trkpt lat="41.18995" lon="1.09809">
        <ele>268</ele>
        <time>2020-08-22 08:58:43</time>
      </trkpt>
      <trkpt lat="41.18998" lon="1.09809">
        <ele>268.2</ele>
        <time>2020-08-22 08:58:44</time>
      </trkpt>
      <trkpt lat="41.19" lon="1.09809">
        <ele>268.6</ele>
        <time>2020-08-22 08:58:45</time>
      </trkpt>
      <trkpt lat="41.19003" lon="1.09809">
        <ele>268.8</ele>
        <time>2020-08-22 08:58:46</time>
      </trkpt>
      <trkpt lat="41.19006" lon="1.09809">
        <ele>269</ele>
        <time>2020-08-22 08:58:47</time>
      </trkpt>
      <trkpt lat="41.19008" lon="1.09809">
        <ele>269.2</ele>
        <time>2020-08-22 08:58:48</time>
      </trkpt>
      <trkpt lat="41.19011" lon="1.09809">
        <ele>269.4</ele>
        <time>2020-08-22 08:58:49</time>
      </trkpt>
      <trkpt lat="41.19013" lon="1.09809">
        <ele>269.6</ele>
        <time>2020-08-22 08:58:50</time>
      </trkpt>
      <trkpt lat="41.19016" lon="1.0981">
        <ele>269.8</ele>
        <time>2020-08-22 08:58:51</time>
      </trkpt>
      <trkpt lat="41.19019" lon="1.0981">
        <ele>270</ele>
        <time>2020-08-22 08:58:52</time>
      </trkpt>
      <trkpt lat="41.19021" lon="1.0981">
        <ele>270.4</ele>
        <time>2020-08-22 08:58:53</time>
      </trkpt>
      <trkpt lat="41.19024" lon="1.0981">
        <ele>270.6</ele>
        <time>2020-08-22 08:58:54</time>
      </trkpt>
      <trkpt lat="41.19026" lon="1.0981">
        <ele>270.8</ele>
        <time>2020-08-22 08:58:55</time>
      </trkpt>
      <trkpt lat="41.19028" lon="1.09811">
        <ele>271</ele>
        <time>2020-08-22 08:58:56</time>
      </trkpt>
      <trkpt lat="41.1903" lon="1.09811">
        <ele>271.4</ele>
        <time>2020-08-22 08:58:57</time>
      </trkpt>
      <trkpt lat="41.19032" lon="1.09812">
        <ele>271.6</ele>
        <time>2020-08-22 08:58:58</time>
      </trkpt>
      <trkpt lat="41.19034" lon="1.09812">
        <ele>272</ele>
        <time>2020-08-22 08:58:59</time>
      </trkpt>
      <trkpt lat="41.19036" lon="1.09813">
        <ele>272</ele>
        <time>2020-08-22 08:59:00</time>
      </trkpt>
      <trkpt lat="41.19039" lon="1.09813">
        <ele>272.4</ele>
        <time>2020-08-22 08:59:01</time>
      </trkpt>
      <trkpt lat="41.19041" lon="1.09813">
        <ele>272.6</ele>
        <time>2020-08-22 08:59:02</time>
      </trkpt>
      <trkpt lat="41.19043" lon="1.09814">
        <ele>272.8</ele>
        <time>2020-08-22 08:59:03</time>
      </trkpt>
      <trkpt lat="41.19046" lon="1.09814">
        <ele>273.2</ele>
        <time>2020-08-22 08:59:04</time>
      </trkpt>
      <trkpt lat="41.19048" lon="1.09815">
        <ele>273.4</ele>
        <time>2020-08-22 08:59:05</time>
      </trkpt>
      <trkpt lat="41.1905" lon="1.09816">
        <ele>273.8</ele>
        <time>2020-08-22 08:59:06</time>
      </trkpt>
      <trkpt lat="41.19052" lon="1.09818">
        <ele>274.2</ele>
        <time>2020-08-22 08:59:07</time>
      </trkpt>
      <trkpt lat="41.19054" lon="1.09819">
        <ele>275</ele>
        <time>2020-08-22 08:59:08</time>
      </trkpt>
      <trkpt lat="41.19056" lon="1.09821">
        <ele>275.6</ele>
        <time>2020-08-22 08:59:09</time>
      </trkpt>
      <trkpt lat="41.19057" lon="1.09823">
        <ele>275.6</ele>
        <time>2020-08-22 08:59:10</time>
      </trkpt>
      <trkpt lat="41.19059" lon="1.09824">
        <ele>276.2</ele>
        <time>2020-08-22 08:59:11</time>
      </trkpt>
      <trkpt lat="41.19061" lon="1.09826">
        <ele>276.2</ele>
        <time>2020-08-22 08:59:12</time>
      </trkpt>
      <trkpt lat="41.19063" lon="1.09828">
        <ele>276.8</ele>
        <time>2020-08-22 08:59:13</time>
      </trkpt>
      <trkpt lat="41.19065" lon="1.09829">
        <ele>277</ele>
        <time>2020-08-22 08:59:14</time>
      </trkpt>
      <trkpt lat="41.19066" lon="1.09831">
        <ele>277.6</ele>
        <time>2020-08-22 08:59:15</time>
      </trkpt>
      <trkpt lat="41.19068" lon="1.09832">
        <ele>277.8</ele>
        <time>2020-08-22 08:59:16</time>
      </trkpt>
      <trkpt lat="41.19069" lon="1.09834">
        <ele>278.4</ele>
        <time>2020-08-22 08:59:17</time>
      </trkpt>
      <trkpt lat="41.19072" lon="1.09835">
        <ele>279</ele>
        <time>2020-08-22 08:59:18</time>
      </trkpt>
      <trkpt lat="41.19074" lon="1.09835">
        <ele>279.2</ele>
        <time>2020-08-22 08:59:19</time>
      </trkpt>
      <trkpt lat="41.19077" lon="1.09835">
        <ele>279.6</ele>
        <time>2020-08-22 08:59:20</time>
      </trkpt>
      <trkpt lat="41.19079" lon="1.09835">
        <ele>279.8</ele>
        <time>2020-08-22 08:59:21</time>
      </trkpt>
      <trkpt lat="41.19082" lon="1.09835">
        <ele>280</ele>
        <time>2020-08-22 08:59:22</time>
      </trkpt>
      <trkpt lat="41.19085" lon="1.09836">
        <ele>280.2</ele>
        <time>2020-08-22 08:59:23</time>
      </trkpt>
      <trkpt lat="41.19087" lon="1.09836">
        <ele>280.4</ele>
        <time>2020-08-22 08:59:24</time>
      </trkpt>
      <trkpt lat="41.1909" lon="1.09836">
        <ele>280.4</ele>
        <time>2020-08-22 08:59:25</time>
      </trkpt>
      <trkpt lat="41.19093" lon="1.09836">
        <ele>281</ele>
        <time>2020-08-22 08:59:26</time>
      </trkpt>
      <trkpt lat="41.19095" lon="1.09836">
        <ele>281</ele>
        <time>2020-08-22 08:59:27</time>
      </trkpt>
      <trkpt lat="41.19097" lon="1.09836">
        <ele>281.2</ele>
        <time>2020-08-22 08:59:28</time>
      </trkpt>
      <trkpt lat="41.191" lon="1.09836">
        <ele>281.6</ele>
        <time>2020-08-22 08:59:29</time>
      </trkpt>
      <trkpt lat="41.19103" lon="1.09836">
        <ele>281.8</ele>
        <time>2020-08-22 08:59:30</time>
      </trkpt>
      <trkpt lat="41.19105" lon="1.09836">
        <ele>282</ele>
        <time>2020-08-22 08:59:31</time>
      </trkpt>
      <trkpt lat="41.19107" lon="1.09836">
        <ele>282.2</ele>
        <time>2020-08-22 08:59:32</time>
      </trkpt>
      <trkpt lat="41.1911" lon="1.09836">
        <ele>282.4</ele>
        <time>2020-08-22 08:59:33</time>
      </trkpt>
      <trkpt lat="41.19113" lon="1.09836">
        <ele>282.6</ele>
        <time>2020-08-22 08:59:34</time>
      </trkpt>
      <trkpt lat="41.19115" lon="1.09836">
        <ele>282.8</ele>
        <time>2020-08-22 08:59:35</time>
      </trkpt>
      <trkpt lat="41.19117" lon="1.09836">
        <ele>283</ele>
        <time>2020-08-22 08:59:36</time>
      </trkpt>
      <trkpt lat="41.1912" lon="1.09836">
        <ele>283</ele>
        <time>2020-08-22 08:59:37</time>
      </trkpt>
      <trkpt lat="41.19123" lon="1.09836">
        <ele>283.2</ele>
        <time>2020-08-22 08:59:38</time>
      </trkpt>
      <trkpt lat="41.19126" lon="1.09836">
        <ele>283.4</ele>
        <time>2020-08-22 08:59:39</time>
      </trkpt>
      <trkpt lat="41.19128" lon="1.09836">
        <ele>283.6</ele>
        <time>2020-08-22 08:59:40</time>
      </trkpt>
      <trkpt lat="41.1913" lon="1.09836">
        <ele>283.6</ele>
        <time>2020-08-22 08:59:41</time>
      </trkpt>
      <trkpt lat="41.19134" lon="1.09836">
        <ele>283.8</ele>
        <time>2020-08-22 08:59:42</time>
      </trkpt>
      <trkpt lat="41.19137" lon="1.09836">
        <ele>283.8</ele>
        <time>2020-08-22 08:59:43</time>
      </trkpt>
      <trkpt lat="41.19139" lon="1.09836">
        <ele>284</ele>
        <time>2020-08-22 08:59:44</time>
      </trkpt>
      <trkpt lat="41.19142" lon="1.09837">
        <ele>284.2</ele>
        <time>2020-08-22 08:59:45</time>
      </trkpt>
      <trkpt lat="41.19145" lon="1.09837">
        <ele>284.2</ele>
        <time>2020-08-22 08:59:46</time>
      </trkpt>
      <trkpt lat="41.19148" lon="1.09837">
        <ele>284.6</ele>
        <time>2020-08-22 08:59:47</time>
      </trkpt>
      <trkpt lat="41.19151" lon="1.09837">
        <ele>284.6</ele>
        <time>2020-08-22 08:59:48</time>
      </trkpt>
      <trkpt lat="41.19153" lon="1.09838">
        <ele>284.8</ele>
        <time>2020-08-22 08:59:49</time>
      </trkpt>
      <trkpt lat="41.19156" lon="1.09838">
        <ele>285</ele>
        <time>2020-08-22 08:59:50</time>
      </trkpt>
      <trkpt lat="41.19159" lon="1.09838">
        <ele>285.2</ele>
        <time>2020-08-22 08:59:51</time>
      </trkpt>
      <trkpt lat="41.19162" lon="1.09839">
        <ele>285.2</ele>
        <time>2020-08-22 08:59:52</time>
      </trkpt>
      <trkpt lat="41.19165" lon="1.09839">
        <ele>285.4</ele>
        <time>2020-08-22 08:59:53</time>
      </trkpt>
      <trkpt lat="41.19167" lon="1.09839">
        <ele>285.8</ele>
        <time>2020-08-22 08:59:54</time>
      </trkpt>
      <trkpt lat="41.19169" lon="1.09839">
        <ele>285.8</ele>
        <time>2020-08-22 08:59:55</time>
      </trkpt>
      <trkpt lat="41.19172" lon="1.09839">
        <ele>286</ele>
        <time>2020-08-22 08:59:56</time>
      </trkpt>
      <trkpt lat="41.19175" lon="1.09839">
        <ele>286.2</ele>
        <time>2020-08-22 08:59:57</time>
      </trkpt>
      <trkpt lat="41.19177" lon="1.09839">
        <ele>286.4</ele>
        <time>2020-08-22 08:59:58</time>
      </trkpt>
      <trkpt lat="41.1918" lon="1.09839">
        <ele>286.4</ele>
        <time>2020-08-22 08:59:59</time>
      </trkpt>
      <trkpt lat="41.19182" lon="1.09839">
        <ele>286.8</ele>
        <time>2020-08-22 09:00:00</time>
      </trkpt>
      <trkpt lat="41.19185" lon="1.09838">
        <ele>286.8</ele>
        <time>2020-08-22 09:00:01</time>
      </trkpt>
      <trkpt lat="41.19188" lon="1.09837">
        <ele>287.2</ele>
        <time>2020-08-22 09:00:02</time>
      </trkpt>
      <trkpt lat="41.1919" lon="1.09836">
        <ele>287.6</ele>
        <time>2020-08-22 09:00:03</time>
      </trkpt>
      <trkpt lat="41.19193" lon="1.09835">
        <ele>287.8</ele>
        <time>2020-08-22 09:00:04</time>
      </trkpt>
      <trkpt lat="41.19196" lon="1.09833">
        <ele>288</ele>
        <time>2020-08-22 09:00:05</time>
      </trkpt>
      <trkpt lat="41.19198" lon="1.09832">
        <ele>288</ele>
        <time>2020-08-22 09:00:06</time>
      </trkpt>
      <trkpt lat="41.192" lon="1.0983">
        <ele>288.2</ele>
        <time>2020-08-22 09:00:07</time>
      </trkpt>
      <trkpt lat="41.19204" lon="1.09827">
        <ele>288.2</ele>
        <time>2020-08-22 09:00:08</time>
      </trkpt>
      <trkpt lat="41.19207" lon="1.09825">
        <ele>288.4</ele>
        <time>2020-08-22 09:00:09</time>
      </trkpt>
      <trkpt lat="41.1921" lon="1.09822">
        <ele>288.4</ele>
        <time>2020-08-22 09:00:10</time>
      </trkpt>
      <trkpt lat="41.19212" lon="1.0982">
        <ele>288.4</ele>
        <time>2020-08-22 09:00:11</time>
      </trkpt>
      <trkpt lat="41.19216" lon="1.09818">
        <ele>288.6</ele>
        <time>2020-08-22 09:00:12</time>
      </trkpt>
      <trkpt lat="41.19229" lon="1.09811">
        <ele>288.6</ele>
        <time>2020-08-22 09:00:15</time>
      </trkpt>
      <trkpt lat="41.19233" lon="1.0981">
        <ele>288.6</ele>
        <time>2020-08-22 09:00:16</time>
      </trkpt>
      <trkpt lat="41.19239" lon="1.0981">
        <ele>288.4</ele>
        <time>2020-08-22 09:00:17</time>
      </trkpt>
      <trkpt lat="41.19244" lon="1.0981">
        <ele>288.4</ele>
        <time>2020-08-22 09:00:18</time>
      </trkpt>
      <trkpt lat="41.19248" lon="1.09811">
        <ele>288.4</ele>
        <time>2020-08-22 09:00:19</time>
      </trkpt>
      <trkpt lat="41.19253" lon="1.09813">
        <ele>288.6</ele>
        <time>2020-08-22 09:00:20</time>
      </trkpt>
      <trkpt lat="41.19256" lon="1.09814">
        <ele>288.6</ele>
        <time>2020-08-22 09:00:21</time>
      </trkpt>
      <trkpt lat="41.19262" lon="1.09816">
        <ele>288.6</ele>
        <time>2020-08-22 09:00:22</time>
      </trkpt>
      <trkpt lat="41.19266" lon="1.09817">
        <ele>288.6</ele>
        <time>2020-08-22 09:00:23</time>
      </trkpt>
      <trkpt lat="41.1927" lon="1.09819">
        <ele>288.8</ele>
        <time>2020-08-22 09:00:24</time>
      </trkpt>
      <trkpt lat="41.19275" lon="1.0982">
        <ele>289.2</ele>
        <time>2020-08-22 09:00:25</time>
      </trkpt>
      <trkpt lat="41.19278" lon="1.09822">
        <ele>289.4</ele>
        <time>2020-08-22 09:00:26</time>
      </trkpt>
      <trkpt lat="41.19283" lon="1.09823">
        <ele>289.8</ele>
        <time>2020-08-22 09:00:27</time>
      </trkpt>
      <trkpt lat="41.19287" lon="1.09824">
        <ele>290</ele>
        <time>2020-08-22 09:00:28</time>
      </trkpt>
      <trkpt lat="41.19291" lon="1.09825">
        <ele>290.2</ele>
        <time>2020-08-22 09:00:29</time>
      </trkpt>
      <trkpt lat="41.19295" lon="1.09825">
        <ele>290.6</ele>
        <time>2020-08-22 09:00:30</time>
      </trkpt>
      <trkpt lat="41.19299" lon="1.09826">
        <ele>290.8</ele>
        <time>2020-08-22 09:00:31</time>
      </trkpt>
      <trkpt lat="41.19304" lon="1.09826">
        <ele>291</ele>
        <time>2020-08-22 09:00:32</time>
      </trkpt>
      <trkpt lat="41.19309" lon="1.09827">
        <ele>291.2</ele>
        <time>2020-08-22 09:00:33</time>
      </trkpt>
      <trkpt lat="41.19312" lon="1.09827">
        <ele>291.2</ele>
        <time>2020-08-22 09:00:34</time>
      </trkpt>
      <trkpt lat="41.19317" lon="1.09827">
        <ele>291.2</ele>
        <time>2020-08-22 09:00:35</time>
      </trkpt>
      <trkpt lat="41.19323" lon="1.09828">
        <ele>291.2</ele>
        <time>2020-08-22 09:00:36</time>
      </trkpt>
      <trkpt lat="41.19328" lon="1.09828">
        <ele>291.4</ele>
        <time>2020-08-22 09:00:37</time>
      </trkpt>
      <trkpt lat="41.19332" lon="1.09828">
        <ele>291.4</ele>
        <time>2020-08-22 09:00:38</time>
      </trkpt>
      <trkpt lat="41.19335" lon="1.09828">
        <ele>291.4</ele>
        <time>2020-08-22 09:00:39</time>
      </trkpt>
      <trkpt lat="41.19344" lon="1.09828">
        <ele>291.6</ele>
        <time>2020-08-22 09:00:41</time>
      </trkpt>
      <trkpt lat="41.19348" lon="1.09829">
        <ele>291.6</ele>
        <time>2020-08-22 09:00:42</time>
      </trkpt>
      <trkpt lat="41.19351" lon="1.0983">
        <ele>292</ele>
        <time>2020-08-22 09:00:43</time>
      </trkpt>
      <trkpt lat="41.19353" lon="1.09831">
        <ele>292.2</ele>
        <time>2020-08-22 09:00:44</time>
      </trkpt>
      <trkpt lat="41.19356" lon="1.09833">
        <ele>292.6</ele>
        <time>2020-08-22 09:00:45</time>
      </trkpt>
      <trkpt lat="41.19359" lon="1.09834">
        <ele>293</ele>
        <time>2020-08-22 09:00:46</time>
      </trkpt>
      <trkpt lat="41.19362" lon="1.09837">
        <ele>293.4</ele>
        <time>2020-08-22 09:00:47</time>
      </trkpt>
      <trkpt lat="41.19365" lon="1.09839">
        <ele>293.8</ele>
        <time>2020-08-22 09:00:48</time>
      </trkpt>
      <trkpt lat="41.19367" lon="1.0984">
        <ele>294</ele>
        <time>2020-08-22 09:00:49</time>
      </trkpt>
      <trkpt lat="41.1937" lon="1.09843">
        <ele>294.4</ele>
        <time>2020-08-22 09:00:50</time>
      </trkpt>
      <trkpt lat="41.19374" lon="1.09845">
        <ele>294.6</ele>
        <time>2020-08-22 09:00:51</time>
      </trkpt>
      <trkpt lat="41.19377" lon="1.09847">
        <ele>295</ele>
        <time>2020-08-22 09:00:52</time>
      </trkpt>
      <trkpt lat="41.1938" lon="1.09848">
        <ele>295.6</ele>
        <time>2020-08-22 09:00:53</time>
      </trkpt>
      <trkpt lat="41.19382" lon="1.09849">
        <ele>295.8</ele>
        <time>2020-08-22 09:00:54</time>
      </trkpt>
      <trkpt lat="41.19385" lon="1.09851">
        <ele>296.4</ele>
        <time>2020-08-22 09:00:55</time>
      </trkpt>
      <trkpt lat="41.19388" lon="1.09852">
        <ele>296.6</ele>
        <time>2020-08-22 09:00:56</time>
      </trkpt>
      <trkpt lat="41.1939" lon="1.09854">
        <ele>296.8</ele>
        <time>2020-08-22 09:00:57</time>
      </trkpt>
      <trkpt lat="41.19393" lon="1.09855">
        <ele>297.2</ele>
        <time>2020-08-22 09:00:58</time>
      </trkpt>
      <trkpt lat="41.19395" lon="1.09856">
        <ele>297.8</ele>
        <time>2020-08-22 09:00:59</time>
      </trkpt>
      <trkpt lat="41.19397" lon="1.09858">
        <ele>298.2</ele>
        <time>2020-08-22 09:01:00</time>
      </trkpt>
      <trkpt lat="41.19401" lon="1.09858">
        <ele>299.2</ele>
        <time>2020-08-22 09:01:01</time>
      </trkpt>
      <trkpt lat="41.19404" lon="1.09859">
        <ele>299.8</ele>
        <time>2020-08-22 09:01:02</time>
      </trkpt>
      <trkpt lat="41.19406" lon="1.09859">
        <ele>300</ele>
        <time>2020-08-22 09:01:03</time>
      </trkpt>
      <trkpt lat="41.19409" lon="1.0986">
        <ele>300.8</ele>
        <time>2020-08-22 09:01:04</time>
      </trkpt>
      <trkpt lat="41.19412" lon="1.0986">
        <ele>301.2</ele>
        <time>2020-08-22 09:01:05</time>
      </trkpt>
      <trkpt lat="41.19415" lon="1.09862">
        <ele>301.8</ele>
        <time>2020-08-22 09:01:06</time>
      </trkpt>
      <trkpt lat="41.19417" lon="1.09863">
        <ele>302.2</ele>
        <time>2020-08-22 09:01:07</time>
      </trkpt>
      <trkpt lat="41.1942" lon="1.09863">
        <ele>302.8</ele>
        <time>2020-08-22 09:01:08</time>
      </trkpt>
      <trkpt lat="41.19422" lon="1.09864">
        <ele>303</ele>
        <time>2020-08-22 09:01:09</time>
      </trkpt>
      <trkpt lat="41.19425" lon="1.09864">
        <ele>303.4</ele>
        <time>2020-08-22 09:01:10</time>
      </trkpt>
      <trkpt lat="41.19428" lon="1.09865">
        <ele>303.6</ele>
        <time>2020-08-22 09:01:11</time>
      </trkpt>
      <trkpt lat="41.19431" lon="1.09866">
        <ele>304</ele>
        <time>2020-08-22 09:01:12</time>
      </trkpt>
      <trkpt lat="41.19435" lon="1.09867">
        <ele>304.4</ele>
        <time>2020-08-22 09:01:13</time>
      </trkpt>
      <trkpt lat="41.19437" lon="1.09867">
        <ele>304.6</ele>
        <time>2020-08-22 09:01:14</time>
      </trkpt>
      <trkpt lat="41.1944" lon="1.09869">
        <ele>305</ele>
        <time>2020-08-22 09:01:15</time>
      </trkpt>
      <trkpt lat="41.19444" lon="1.0987">
        <ele>305.2</ele>
        <time>2020-08-22 09:01:16</time>
      </trkpt>
      <trkpt lat="41.19448" lon="1.09871">
        <ele>305.6</ele>
        <time>2020-08-22 09:01:17</time>
      </trkpt>
      <trkpt lat="41.19451" lon="1.09871">
        <ele>305.8</ele>
        <time>2020-08-22 09:01:18</time>
      </trkpt>
      <trkpt lat="41.19455" lon="1.09872">
        <ele>306</ele>
        <time>2020-08-22 09:01:19</time>
      </trkpt>
      <trkpt lat="41.19459" lon="1.09872">
        <ele>306.2</ele>
        <time>2020-08-22 09:01:20</time>
      </trkpt>
      <trkpt lat="41.19462" lon="1.09872">
        <ele>306.4</ele>
        <time>2020-08-22 09:01:21</time>
      </trkpt>
      <trkpt lat="41.19465" lon="1.09872">
        <ele>306.6</ele>
        <time>2020-08-22 09:01:22</time>
      </trkpt>
      <trkpt lat="41.19467" lon="1.09872">
        <ele>306.8</ele>
        <time>2020-08-22 09:01:23</time>
      </trkpt>
      <trkpt lat="41.1947" lon="1.09871">
        <ele>307</ele>
        <time>2020-08-22 09:01:24</time>
      </trkpt>
      <trkpt lat="41.19474" lon="1.09871">
        <ele>307.2</ele>
        <time>2020-08-22 09:01:25</time>
      </trkpt>
      <trkpt lat="41.19477" lon="1.0987">
        <ele>307.6</ele>
        <time>2020-08-22 09:01:26</time>
      </trkpt>
      <trkpt lat="41.1948" lon="1.09869">
        <ele>307.8</ele>
        <time>2020-08-22 09:01:27</time>
      </trkpt>
      <trkpt lat="41.19483" lon="1.09867">
        <ele>308</ele>
        <time>2020-08-22 09:01:28</time>
      </trkpt>
      <trkpt lat="41.19485" lon="1.09865">
        <ele>308.2</ele>
        <time>2020-08-22 09:01:29</time>
      </trkpt>
      <trkpt lat="41.19488" lon="1.09863">
        <ele>308.4</ele>
        <time>2020-08-22 09:01:30</time>
      </trkpt>
      <trkpt lat="41.1949" lon="1.0986">
        <ele>308.6</ele>
        <time>2020-08-22 09:01:31</time>
      </trkpt>
      <trkpt lat="41.19492" lon="1.09858">
        <ele>308.8</ele>
        <time>2020-08-22 09:01:32</time>
      </trkpt>
      <trkpt lat="41.19494" lon="1.09855">
        <ele>309</ele>
        <time>2020-08-22 09:01:33</time>
      </trkpt>
      <trkpt lat="41.19496" lon="1.09852">
        <ele>309</ele>
        <time>2020-08-22 09:01:34</time>
      </trkpt>
      <trkpt lat="41.19499" lon="1.09849">
        <ele>309.4</ele>
        <time>2020-08-22 09:01:35</time>
      </trkpt>
      <trkpt lat="41.19501" lon="1.09847">
        <ele>309.6</ele>
        <time>2020-08-22 09:01:36</time>
      </trkpt>
      <trkpt lat="41.19503" lon="1.09844">
        <ele>309.6</ele>
        <time>2020-08-22 09:01:37</time>
      </trkpt>
      <trkpt lat="41.19505" lon="1.09843">
        <ele>310</ele>
        <time>2020-08-22 09:01:38</time>
      </trkpt>
      <trkpt lat="41.19507" lon="1.0984">
        <ele>310</ele>
        <time>2020-08-22 09:01:39</time>
      </trkpt>
      <trkpt lat="41.1951" lon="1.09837">
        <ele>310.2</ele>
        <time>2020-08-22 09:01:40</time>
      </trkpt>
      <trkpt lat="41.19513" lon="1.09834">
        <ele>310.2</ele>
        <time>2020-08-22 09:01:41</time>
      </trkpt>
      <trkpt lat="41.19515" lon="1.09832">
        <ele>310.6</ele>
        <time>2020-08-22 09:01:42</time>
      </trkpt>
      <trkpt lat="41.19517" lon="1.0983">
        <ele>310.6</ele>
        <time>2020-08-22 09:01:43</time>
      </trkpt>
      <trkpt lat="41.19519" lon="1.09827">
        <ele>310.8</ele>
        <time>2020-08-22 09:01:44</time>
      </trkpt>
      <trkpt lat="41.19522" lon="1.09825">
        <ele>311</ele>
        <time>2020-08-22 09:01:45</time>
      </trkpt>
      <trkpt lat="41.19525" lon="1.09823">
        <ele>311</ele>
        <time>2020-08-22 09:01:46</time>
      </trkpt>
      <trkpt lat="41.19527" lon="1.0982">
        <ele>311</ele>
        <time>2020-08-22 09:01:47</time>
      </trkpt>
      <trkpt lat="41.19529" lon="1.09818">
        <ele>311.2</ele>
        <time>2020-08-22 09:01:48</time>
      </trkpt>
      <trkpt lat="41.19532" lon="1.09816">
        <ele>311.6</ele>
        <time>2020-08-22 09:01:49</time>
      </trkpt>
      <trkpt lat="41.19535" lon="1.09815">
        <ele>311.8</ele>
        <time>2020-08-22 09:01:50</time>
      </trkpt>
      <trkpt lat="41.19538" lon="1.09813">
        <ele>312</ele>
        <time>2020-08-22 09:01:51</time>
      </trkpt>
      <trkpt lat="41.19541" lon="1.09813">
        <ele>312.2</ele>
        <time>2020-08-22 09:01:52</time>
      </trkpt>
      <trkpt lat="41.19544" lon="1.09813">
        <ele>312.6</ele>
        <time>2020-08-22 09:01:53</time>
      </trkpt>
      <trkpt lat="41.19547" lon="1.09814">
        <ele>312.8</ele>
        <time>2020-08-22 09:01:54</time>
      </trkpt>
      <trkpt lat="41.19549" lon="1.09815">
        <ele>313</ele>
        <time>2020-08-22 09:01:55</time>
      </trkpt>
      <trkpt lat="41.19553" lon="1.09815">
        <ele>313.4</ele>
        <time>2020-08-22 09:01:56</time>
      </trkpt>
      <trkpt lat="41.19556" lon="1.09815">
        <ele>313.6</ele>
        <time>2020-08-22 09:01:57</time>
      </trkpt>
      <trkpt lat="41.19559" lon="1.09816">
        <ele>314</ele>
        <time>2020-08-22 09:01:58</time>
      </trkpt>
      <trkpt lat="41.19562" lon="1.09816">
        <ele>314.4</ele>
        <time>2020-08-22 09:01:59</time>
      </trkpt>
      <trkpt lat="41.19566" lon="1.09816">
        <ele>314.6</ele>
        <time>2020-08-22 09:02:00</time>
      </trkpt>
      <trkpt lat="41.19569" lon="1.09815">
        <ele>314.8</ele>
        <time>2020-08-22 09:02:01</time>
      </trkpt>
      <trkpt lat="41.19571" lon="1.09815">
        <ele>315.2</ele>
        <time>2020-08-22 09:02:02</time>
      </trkpt>
      <trkpt lat="41.19574" lon="1.09814">
        <ele>315.4</ele>
        <time>2020-08-22 09:02:03</time>
      </trkpt>
      <trkpt lat="41.19577" lon="1.09813">
        <ele>315.6</ele>
        <time>2020-08-22 09:02:04</time>
      </trkpt>
      <trkpt lat="41.19581" lon="1.09812">
        <ele>316</ele>
        <time>2020-08-22 09:02:05</time>
      </trkpt>
      <trkpt lat="41.19583" lon="1.0981">
        <ele>316</ele>
        <time>2020-08-22 09:02:06</time>
      </trkpt>
      <trkpt lat="41.19586" lon="1.09807">
        <ele>316.4</ele>
        <time>2020-08-22 09:02:07</time>
      </trkpt>
      <trkpt lat="41.19587" lon="1.09805">
        <ele>316.6</ele>
        <time>2020-08-22 09:02:08</time>
      </trkpt>
      <trkpt lat="41.19589" lon="1.09802">
        <ele>316.8</ele>
        <time>2020-08-22 09:02:09</time>
      </trkpt>
      <trkpt lat="41.19592" lon="1.09798">
        <ele>317</ele>
        <time>2020-08-22 09:02:10</time>
      </trkpt>
      <trkpt lat="41.19594" lon="1.09795">
        <ele>317</ele>
        <time>2020-08-22 09:02:11</time>
      </trkpt>
      <trkpt lat="41.19596" lon="1.09792">
        <ele>317.2</ele>
        <time>2020-08-22 09:02:12</time>
      </trkpt>
      <trkpt lat="41.19597" lon="1.09789">
        <ele>317.4</ele>
        <time>2020-08-22 09:02:13</time>
      </trkpt>
      <trkpt lat="41.19599" lon="1.09785">
        <ele>317.6</ele>
        <time>2020-08-22 09:02:14</time>
      </trkpt>
      <trkpt lat="41.19601" lon="1.09781">
        <ele>317.6</ele>
        <time>2020-08-22 09:02:15</time>
      </trkpt>
      <trkpt lat="41.19602" lon="1.09777">
        <ele>317.8</ele>
        <time>2020-08-22 09:02:16</time>
      </trkpt>
      <trkpt lat="41.19604" lon="1.09774">
        <ele>318</ele>
        <time>2020-08-22 09:02:17</time>
      </trkpt>
      <trkpt lat="41.19606" lon="1.09771">
        <ele>318.2</ele>
        <time>2020-08-22 09:02:18</time>
      </trkpt>
      <trkpt lat="41.19608" lon="1.09767">
        <ele>318.4</ele>
        <time>2020-08-22 09:02:19</time>
      </trkpt>
      <trkpt lat="41.1961" lon="1.09763">
        <ele>318.4</ele>
        <time>2020-08-22 09:02:20</time>
      </trkpt>
      <trkpt lat="41.19611" lon="1.0976">
        <ele>318.6</ele>
        <time>2020-08-22 09:02:21</time>
      </trkpt>
      <trkpt lat="41.19612" lon="1.09757">
        <ele>318.8</ele>
        <time>2020-08-22 09:02:22</time>
      </trkpt>
      <trkpt lat="41.19614" lon="1.09753">
        <ele>318.8</ele>
        <time>2020-08-22 09:02:23</time>
      </trkpt>
      <trkpt lat="41.19616" lon="1.09749">
        <ele>318.8</ele>
        <time>2020-08-22 09:02:24</time>
      </trkpt>
      <trkpt lat="41.19618" lon="1.09745">
        <ele>319</ele>
        <time>2020-08-22 09:02:25</time>
      </trkpt>
      <trkpt lat="41.19619" lon="1.09742">
        <ele>319.2</ele>
        <time>2020-08-22 09:02:26</time>
      </trkpt>
      <trkpt lat="41.19621" lon="1.09739">
        <ele>319.4</ele>
        <time>2020-08-22 09:02:27</time>
      </trkpt>
      <trkpt lat="41.19622" lon="1.09736">
        <ele>319.6</ele>
        <time>2020-08-22 09:02:28</time>
      </trkpt>
      <trkpt lat="41.19624" lon="1.09732">
        <ele>319.6</ele>
        <time>2020-08-22 09:02:29</time>
      </trkpt>
      <trkpt lat="41.19625" lon="1.09728">
        <ele>320</ele>
        <time>2020-08-22 09:02:30</time>
      </trkpt>
      <trkpt lat="41.19627" lon="1.09724">
        <ele>320</ele>
        <time>2020-08-22 09:02:31</time>
      </trkpt>
      <trkpt lat="41.19628" lon="1.09721">
        <ele>320.4</ele>
        <time>2020-08-22 09:02:32</time>
      </trkpt>
      <trkpt lat="41.19629" lon="1.09717">
        <ele>320.6</ele>
        <time>2020-08-22 09:02:33</time>
      </trkpt>
      <trkpt lat="41.19631" lon="1.09713">
        <ele>320.8</ele>
        <time>2020-08-22 09:02:34</time>
      </trkpt>
      <trkpt lat="41.19632" lon="1.09709">
        <ele>321</ele>
        <time>2020-08-22 09:02:35</time>
      </trkpt>
      <trkpt lat="41.19632" lon="1.09705">
        <ele>321.2</ele>
        <time>2020-08-22 09:02:36</time>
      </trkpt>
      <trkpt lat="41.19633" lon="1.09701">
        <ele>321.6</ele>
        <time>2020-08-22 09:02:37</time>
      </trkpt>
      <trkpt lat="41.19634" lon="1.09696">
        <ele>321.8</ele>
        <time>2020-08-22 09:02:38</time>
      </trkpt>
      <trkpt lat="41.19634" lon="1.09691">
        <ele>322</ele>
        <time>2020-08-22 09:02:39</time>
      </trkpt>
      <trkpt lat="41.19635" lon="1.09687">
        <ele>322.2</ele>
        <time>2020-08-22 09:02:40</time>
      </trkpt>
      <trkpt lat="41.19636" lon="1.09683">
        <ele>322.4</ele>
        <time>2020-08-22 09:02:41</time>
      </trkpt>
      <trkpt lat="41.19637" lon="1.09677">
        <ele>322.4</ele>
        <time>2020-08-22 09:02:42</time>
      </trkpt>
      <trkpt lat="41.19637" lon="1.09671">
        <ele>322.6</ele>
        <time>2020-08-22 09:02:43</time>
      </trkpt>
      <trkpt lat="41.19638" lon="1.09665">
        <ele>322.4</ele>
        <time>2020-08-22 09:02:44</time>
      </trkpt>
      <trkpt lat="41.19639" lon="1.09658">
        <ele>322.4</ele>
        <time>2020-08-22 09:02:45</time>
      </trkpt>
      <trkpt lat="41.19639" lon="1.09651">
        <ele>322.4</ele>
        <time>2020-08-22 09:02:46</time>
      </trkpt>
      <trkpt lat="41.19639" lon="1.09617">
        <ele>322</ele>
        <time>2020-08-22 09:02:50</time>
      </trkpt>
      <trkpt lat="41.19641" lon="1.09579">
        <ele>321.4</ele>
        <time>2020-08-22 09:02:54</time>
      </trkpt>
      <trkpt lat="41.19641" lon="1.09569">
        <ele>320.8</ele>
        <time>2020-08-22 09:02:55</time>
      </trkpt>
      <trkpt lat="41.19643" lon="1.0956">
        <ele>320.6</ele>
        <time>2020-08-22 09:02:56</time>
      </trkpt>
      <trkpt lat="41.19644" lon="1.09552">
        <ele>320</ele>
        <time>2020-08-22 09:02:57</time>
      </trkpt>
      <trkpt lat="41.19647" lon="1.0954">
        <ele>320</ele>
        <time>2020-08-22 09:02:58</time>
      </trkpt>
      <trkpt lat="41.19651" lon="1.09532">
        <ele>319.6</ele>
        <time>2020-08-22 09:02:59</time>
      </trkpt>
      <trkpt lat="41.19656" lon="1.09526">
        <ele>319.2</ele>
        <time>2020-08-22 09:03:00</time>
      </trkpt>
      <trkpt lat="41.19661" lon="1.09519">
        <ele>318.4</ele>
        <time>2020-08-22 09:03:01</time>
      </trkpt>
      <trkpt lat="41.19667" lon="1.09513">
        <ele>318</ele>
        <time>2020-08-22 09:03:02</time>
      </trkpt>
      <trkpt lat="41.19673" lon="1.09509">
        <ele>317.8</ele>
        <time>2020-08-22 09:03:03</time>
      </trkpt>
      <trkpt lat="41.19679" lon="1.09505">
        <ele>317</ele>
        <time>2020-08-22 09:03:04</time>
      </trkpt>
      <trkpt lat="41.19685" lon="1.09502">
        <ele>316.8</ele>
        <time>2020-08-22 09:03:05</time>
      </trkpt>
      <trkpt lat="41.19692" lon="1.095">
        <ele>316</ele>
        <time>2020-08-22 09:03:06</time>
      </trkpt>
      <trkpt lat="41.19699" lon="1.09499">
        <ele>315.8</ele>
        <time>2020-08-22 09:03:07</time>
      </trkpt>
      <trkpt lat="41.19716" lon="1.09496">
        <ele>314.6</ele>
        <time>2020-08-22 09:03:09</time>
      </trkpt>
      <trkpt lat="41.19724" lon="1.09493">
        <ele>313.4</ele>
        <time>2020-08-22 09:03:10</time>
      </trkpt>
      <trkpt lat="41.19731" lon="1.09489">
        <ele>312</ele>
        <time>2020-08-22 09:03:11</time>
      </trkpt>
      <trkpt lat="41.19737" lon="1.09486">
        <ele>311.6</ele>
        <time>2020-08-22 09:03:12</time>
      </trkpt>
      <trkpt lat="41.19742" lon="1.09483">
        <ele>311.2</ele>
        <time>2020-08-22 09:03:13</time>
      </trkpt>
      <trkpt lat="41.19746" lon="1.09481">
        <ele>311</ele>
        <time>2020-08-22 09:03:14</time>
      </trkpt>
      <trkpt lat="41.19749" lon="1.09478">
        <ele>310.8</ele>
        <time>2020-08-22 09:03:15</time>
      </trkpt>
      <trkpt lat="41.1975" lon="1.09476">
        <ele>310.8</ele>
        <time>2020-08-22 09:03:16</time>
      </trkpt>
      <trkpt lat="41.1975" lon="1.09473">
        <ele>310.4</ele>
        <time>2020-08-22 09:03:17</time>
      </trkpt>
      <trkpt lat="41.1975" lon="1.09469">
        <ele>310.4</ele>
        <time>2020-08-22 09:03:18</time>
      </trkpt>
      <trkpt lat="41.1975" lon="1.09466">
        <ele>310.2</ele>
        <time>2020-08-22 09:03:19</time>
      </trkpt>
      <trkpt lat="41.19749" lon="1.09462">
        <ele>310</ele>
        <time>2020-08-22 09:03:20</time>
      </trkpt>
      <trkpt lat="41.19746" lon="1.09458">
        <ele>310</ele>
        <time>2020-08-22 09:03:21</time>
      </trkpt>
      <trkpt lat="41.19744" lon="1.09455">
        <ele>309.8</ele>
        <time>2020-08-22 09:03:22</time>
      </trkpt>
      <trkpt lat="41.19736" lon="1.09446">
        <ele>309.8</ele>
        <time>2020-08-22 09:03:24</time>
      </trkpt>
      <trkpt lat="41.19721" lon="1.0943">
        <ele>309</ele>
        <time>2020-08-22 09:03:27</time>
      </trkpt>
      <trkpt lat="41.19717" lon="1.09425">
        <ele>308.6</ele>
        <time>2020-08-22 09:03:28</time>
      </trkpt>
      <trkpt lat="41.19712" lon="1.09422">
        <ele>308.2</ele>
        <time>2020-08-22 09:03:29</time>
      </trkpt>
      <trkpt lat="41.19707" lon="1.0942">
        <ele>308.2</ele>
        <time>2020-08-22 09:03:30</time>
      </trkpt>
      <trkpt lat="41.19702" lon="1.09418">
        <ele>307.6</ele>
        <time>2020-08-22 09:03:31</time>
      </trkpt>
      <trkpt lat="41.197" lon="1.09413">
        <ele>307.2</ele>
        <time>2020-08-22 09:03:32</time>
      </trkpt>
      <trkpt lat="41.197" lon="1.09407">
        <ele>305.6</ele>
        <time>2020-08-22 09:03:33</time>
      </trkpt>
      <trkpt lat="41.19703" lon="1.09402">
        <ele>305.2</ele>
        <time>2020-08-22 09:03:34</time>
      </trkpt>
      <trkpt lat="41.19706" lon="1.09397">
        <ele>304</ele>
        <time>2020-08-22 09:03:35</time>
      </trkpt>
      <trkpt lat="41.1971" lon="1.09393">
        <ele>303.6</ele>
        <time>2020-08-22 09:03:36</time>
      </trkpt>
      <trkpt lat="41.19716" lon="1.09391">
        <ele>302.8</ele>
        <time>2020-08-22 09:03:37</time>
      </trkpt>
      <trkpt lat="41.1972" lon="1.09388">
        <ele>302.2</ele>
        <time>2020-08-22 09:03:38</time>
      </trkpt>
      <trkpt lat="41.19724" lon="1.09386">
        <ele>302</ele>
        <time>2020-08-22 09:03:39</time>
      </trkpt>
      <trkpt lat="41.19728" lon="1.09383">
        <ele>301.4</ele>
        <time>2020-08-22 09:03:40</time>
      </trkpt>
      <trkpt lat="41.19731" lon="1.0938">
        <ele>300.8</ele>
        <time>2020-08-22 09:03:41</time>
      </trkpt>
      <trkpt lat="41.19734" lon="1.09378">
        <ele>300.2</ele>
        <time>2020-08-22 09:03:42</time>
      </trkpt>
      <trkpt lat="41.19738" lon="1.09376">
        <ele>299.8</ele>
        <time>2020-08-22 09:03:43</time>
      </trkpt>
      <trkpt lat="41.19742" lon="1.09373">
        <ele>299.2</ele>
        <time>2020-08-22 09:03:44</time>
      </trkpt>
      <trkpt lat="41.19745" lon="1.0937">
        <ele>298.6</ele>
        <time>2020-08-22 09:03:45</time>
      </trkpt>
      <trkpt lat="41.19749" lon="1.09367">
        <ele>298.4</ele>
        <time>2020-08-22 09:03:46</time>
      </trkpt>
      <trkpt lat="41.19752" lon="1.09363">
        <ele>298.4</ele>
        <time>2020-08-22 09:03:47</time>
      </trkpt>
      <trkpt lat="41.19755" lon="1.09359">
        <ele>298.2</ele>
        <time>2020-08-22 09:03:48</time>
      </trkpt>
      <trkpt lat="41.19758" lon="1.09355">
        <ele>298</ele>
        <time>2020-08-22 09:03:49</time>
      </trkpt>
      <trkpt lat="41.19761" lon="1.0935">
        <ele>298</ele>
        <time>2020-08-22 09:03:50</time>
      </trkpt>
      <trkpt lat="41.19764" lon="1.09346">
        <ele>297.8</ele>
        <time>2020-08-22 09:03:51</time>
      </trkpt>
      <trkpt lat="41.19766" lon="1.09342">
        <ele>297.6</ele>
        <time>2020-08-22 09:03:52</time>
      </trkpt>
      <trkpt lat="41.1977" lon="1.09339">
        <ele>297.4</ele>
        <time>2020-08-22 09:03:53</time>
      </trkpt>
      <trkpt lat="41.19777" lon="1.09333">
        <ele>297.2</ele>
        <time>2020-08-22 09:03:55</time>
      </trkpt>
      <trkpt lat="41.1978" lon="1.0933">
        <ele>297.2</ele>
        <time>2020-08-22 09:03:56</time>
      </trkpt>
      <trkpt lat="41.19783" lon="1.09327">
        <ele>297.2</ele>
        <time>2020-08-22 09:03:57</time>
      </trkpt>
      <trkpt lat="41.19789" lon="1.09319">
        <ele>297.2</ele>
        <time>2020-08-22 09:03:59</time>
      </trkpt>
      <trkpt lat="41.19792" lon="1.09316">
        <ele>297</ele>
        <time>2020-08-22 09:04:00</time>
      </trkpt>
      <trkpt lat="41.19794" lon="1.09313">
        <ele>297</ele>
        <time>2020-08-22 09:04:01</time>
      </trkpt>
      <trkpt lat="41.19797" lon="1.09311">
        <ele>297</ele>
        <time>2020-08-22 09:04:02</time>
      </trkpt>
      <trkpt lat="41.198" lon="1.09309">
        <ele>297</ele>
        <time>2020-08-22 09:04:03</time>
      </trkpt>
      <trkpt lat="41.19803" lon="1.09308">
        <ele>297</ele>
        <time>2020-08-22 09:04:04</time>
      </trkpt>
      <trkpt lat="41.19806" lon="1.09305">
        <ele>297.2</ele>
        <time>2020-08-22 09:04:05</time>
      </trkpt>
      <trkpt lat="41.19808" lon="1.09301">
        <ele>297.4</ele>
        <time>2020-08-22 09:04:06</time>
      </trkpt>
      <trkpt lat="41.1981" lon="1.09298">
        <ele>297.8</ele>
        <time>2020-08-22 09:04:07</time>
      </trkpt>
      <trkpt lat="41.1981" lon="1.09295">
        <ele>297.8</ele>
        <time>2020-08-22 09:04:08</time>
      </trkpt>
      <trkpt lat="41.19809" lon="1.09292">
        <ele>298.2</ele>
        <time>2020-08-22 09:04:09</time>
      </trkpt>
      <trkpt lat="41.19806" lon="1.09289">
        <ele>298.2</ele>
        <time>2020-08-22 09:04:10</time>
      </trkpt>
      <trkpt lat="41.19804" lon="1.09287">
        <ele>298.2</ele>
        <time>2020-08-22 09:04:11</time>
      </trkpt>
      <trkpt lat="41.19801" lon="1.09284">
        <ele>298.4</ele>
        <time>2020-08-22 09:04:12</time>
      </trkpt>
      <trkpt lat="41.19797" lon="1.09283">
        <ele>298.6</ele>
        <time>2020-08-22 09:04:13</time>
      </trkpt>
      <trkpt lat="41.19794" lon="1.09282">
        <ele>298.8</ele>
        <time>2020-08-22 09:04:14</time>
      </trkpt>
      <trkpt lat="41.19792" lon="1.09283">
        <ele>298.8</ele>
        <time>2020-08-22 09:04:15</time>
      </trkpt>
      <trkpt lat="41.19789" lon="1.09285">
        <ele>298.8</ele>
        <time>2020-08-22 09:04:16</time>
      </trkpt>
      <trkpt lat="41.19786" lon="1.09287">
        <ele>298.8</ele>
        <time>2020-08-22 09:04:17</time>
      </trkpt>
      <trkpt lat="41.19784" lon="1.09288">
        <ele>299.2</ele>
        <time>2020-08-22 09:04:18</time>
      </trkpt>
      <trkpt lat="41.19781" lon="1.0929">
        <ele>299.4</ele>
        <time>2020-08-22 09:04:19</time>
      </trkpt>
      <trkpt lat="41.19777" lon="1.09292">
        <ele>299.8</ele>
        <time>2020-08-22 09:04:20</time>
      </trkpt>
      <trkpt lat="41.19774" lon="1.09294">
        <ele>300</ele>
        <time>2020-08-22 09:04:21</time>
      </trkpt>
      <trkpt lat="41.19771" lon="1.09295">
        <ele>300.4</ele>
        <time>2020-08-22 09:04:22</time>
      </trkpt>
      <trkpt lat="41.19767" lon="1.09296">
        <ele>301.2</ele>
        <time>2020-08-22 09:04:23</time>
      </trkpt>
      <trkpt lat="41.19764" lon="1.09298">
        <ele>301.4</ele>
        <time>2020-08-22 09:04:24</time>
      </trkpt>
      <trkpt lat="41.19761" lon="1.093">
        <ele>301.6</ele>
        <time>2020-08-22 09:04:25</time>
      </trkpt>
      <trkpt lat="41.19757" lon="1.09302">
        <ele>301.8</ele>
        <time>2020-08-22 09:04:26</time>
      </trkpt>
      <trkpt lat="41.19753" lon="1.09305">
        <ele>302.2</ele>
        <time>2020-08-22 09:04:27</time>
      </trkpt>
      <trkpt lat="41.1975" lon="1.09307">
        <ele>302.4</ele>
        <time>2020-08-22 09:04:28</time>
      </trkpt>
      <trkpt lat="41.19747" lon="1.09309">
        <ele>302.6</ele>
        <time>2020-08-22 09:04:29</time>
      </trkpt>
      <trkpt lat="41.19743" lon="1.09312">
        <ele>302.8</ele>
        <time>2020-08-22 09:04:30</time>
      </trkpt>
      <trkpt lat="41.19739" lon="1.09313">
        <ele>303</ele>
        <time>2020-08-22 09:04:31</time>
      </trkpt>
      <trkpt lat="41.19735" lon="1.09313">
        <ele>303.2</ele>
        <time>2020-08-22 09:04:32</time>
      </trkpt>
      <trkpt lat="41.19731" lon="1.09313">
        <ele>303.2</ele>
        <time>2020-08-22 09:04:33</time>
      </trkpt>
      <trkpt lat="41.19727" lon="1.09312">
        <ele>303.6</ele>
        <time>2020-08-22 09:04:34</time>
      </trkpt>
      <trkpt lat="41.19723" lon="1.09311">
        <ele>303.6</ele>
        <time>2020-08-22 09:04:35</time>
      </trkpt>
      <trkpt lat="41.1972" lon="1.0931">
        <ele>304</ele>
        <time>2020-08-22 09:04:36</time>
      </trkpt>
      <trkpt lat="41.19717" lon="1.09309">
        <ele>304</ele>
        <time>2020-08-22 09:04:37</time>
      </trkpt>
      <trkpt lat="41.19714" lon="1.09308">
        <ele>304.2</ele>
        <time>2020-08-22 09:04:38</time>
      </trkpt>
      <trkpt lat="41.19711" lon="1.09308">
        <ele>304.4</ele>
        <time>2020-08-22 09:04:39</time>
      </trkpt>
      <trkpt lat="41.19707" lon="1.09308">
        <ele>304.4</ele>
        <time>2020-08-22 09:04:40</time>
      </trkpt>
      <trkpt lat="41.19704" lon="1.09308">
        <ele>304.6</ele>
        <time>2020-08-22 09:04:41</time>
      </trkpt>
      <trkpt lat="41.19701" lon="1.09309">
        <ele>304.8</ele>
        <time>2020-08-22 09:04:42</time>
      </trkpt>
      <trkpt lat="41.19698" lon="1.09309">
        <ele>305.2</ele>
        <time>2020-08-22 09:04:43</time>
      </trkpt>
      <trkpt lat="41.19695" lon="1.0931">
        <ele>305.4</ele>
        <time>2020-08-22 09:04:44</time>
      </trkpt>
      <trkpt lat="41.19692" lon="1.0931">
        <ele>306</ele>
        <time>2020-08-22 09:04:45</time>
      </trkpt>
      <trkpt lat="41.19689" lon="1.0931">
        <ele>306.4</ele>
        <time>2020-08-22 09:04:46</time>
      </trkpt>
      <trkpt lat="41.19686" lon="1.0931">
        <ele>306.6</ele>
        <time>2020-08-22 09:04:47</time>
      </trkpt>
      <trkpt lat="41.19684" lon="1.09309">
        <ele>306.8</ele>
        <time>2020-08-22 09:04:48</time>
      </trkpt>
      <trkpt lat="41.19683" lon="1.09307">
        <ele>307</ele>
        <time>2020-08-22 09:04:49</time>
      </trkpt>
      <trkpt lat="41.19681" lon="1.09304">
        <ele>307.2</ele>
        <time>2020-08-22 09:04:50</time>
      </trkpt>
      <trkpt lat="41.19678" lon="1.09301">
        <ele>307.2</ele>
        <time>2020-08-22 09:04:51</time>
      </trkpt>
      <trkpt lat="41.19676" lon="1.09298">
        <ele>307.4</ele>
        <time>2020-08-22 09:04:52</time>
      </trkpt>
      <trkpt lat="41.19675" lon="1.09295">
        <ele>307.4</ele>
        <time>2020-08-22 09:04:53</time>
      </trkpt>
      <trkpt lat="41.19674" lon="1.09293">
        <ele>307.4</ele>
        <time>2020-08-22 09:04:54</time>
      </trkpt>
      <trkpt lat="41.19672" lon="1.0929">
        <ele>307.6</ele>
        <time>2020-08-22 09:04:55</time>
      </trkpt>
      <trkpt lat="41.19669" lon="1.09286">
        <ele>307.6</ele>
        <time>2020-08-22 09:04:56</time>
      </trkpt>
      <trkpt lat="41.19666" lon="1.09284">
        <ele>307.6</ele>
        <time>2020-08-22 09:04:57</time>
      </trkpt>
      <trkpt lat="41.19663" lon="1.09282">
        <ele>307.8</ele>
        <time>2020-08-22 09:04:58</time>
      </trkpt>
      <trkpt lat="41.19662" lon="1.09281">
        <ele>307.8</ele>
        <time>2020-08-22 09:04:59</time>
      </trkpt>
      <trkpt lat="41.1966" lon="1.0928">
        <ele>308</ele>
        <time>2020-08-22 09:05:00</time>
      </trkpt>
      <trkpt lat="41.19656" lon="1.09279">
        <ele>308</ele>
        <time>2020-08-22 09:05:01</time>
      </trkpt>
      <trkpt lat="41.19654" lon="1.09278">
        <ele>308.2</ele>
        <time>2020-08-22 09:05:02</time>
      </trkpt>
      <trkpt lat="41.19652" lon="1.09278">
        <ele>308.2</ele>
        <time>2020-08-22 09:05:03</time>
      </trkpt>
      <trkpt lat="41.1965" lon="1.09277">
        <ele>308.4</ele>
        <time>2020-08-22 09:05:04</time>
      </trkpt>
      <trkpt lat="41.19647" lon="1.09275">
        <ele>308.4</ele>
        <time>2020-08-22 09:05:05</time>
      </trkpt>
      <trkpt lat="41.19644" lon="1.09273">
        <ele>309.2</ele>
        <time>2020-08-22 09:05:06</time>
      </trkpt>
      <trkpt lat="41.19643" lon="1.0927">
        <ele>309.4</ele>
        <time>2020-08-22 09:05:07</time>
      </trkpt>
      <trkpt lat="41.19643" lon="1.09268">
        <ele>309.8</ele>
        <time>2020-08-22 09:05:08</time>
      </trkpt>
      <trkpt lat="41.19644" lon="1.09266">
        <ele>310</ele>
        <time>2020-08-22 09:05:09</time>
      </trkpt>
      <trkpt lat="41.19644" lon="1.09263">
        <ele>310.6</ele>
        <time>2020-08-22 09:05:10</time>
      </trkpt>
      <trkpt lat="41.19644" lon="1.0926">
        <ele>311</ele>
        <time>2020-08-22 09:05:11</time>
      </trkpt>
      <trkpt lat="41.19644" lon="1.09258">
        <ele>311.2</ele>
        <time>2020-08-22 09:05:12</time>
      </trkpt>
      <trkpt lat="41.19644" lon="1.09257">
        <ele>311.6</ele>
        <time>2020-08-22 09:05:13</time>
      </trkpt>
      <trkpt lat="41.19646" lon="1.09256">
        <ele>311.8</ele>
        <time>2020-08-22 09:05:14</time>
      </trkpt>
      <trkpt lat="41.19648" lon="1.09254">
        <ele>312.2</ele>
        <time>2020-08-22 09:05:15</time>
      </trkpt>
      <trkpt lat="41.19649" lon="1.09252">
        <ele>312.4</ele>
        <time>2020-08-22 09:05:16</time>
      </trkpt>
      <trkpt lat="41.1965" lon="1.09249">
        <ele>312.8</ele>
        <time>2020-08-22 09:05:17</time>
      </trkpt>
      <trkpt lat="41.19652" lon="1.09249">
        <ele>313</ele>
        <time>2020-08-22 09:05:18</time>
      </trkpt>
      <trkpt lat="41.19653" lon="1.09248">
        <ele>313.4</ele>
        <time>2020-08-22 09:05:19</time>
      </trkpt>
      <trkpt lat="41.19655" lon="1.09247">
        <ele>314</ele>
        <time>2020-08-22 09:05:20</time>
      </trkpt>
      <trkpt lat="41.19656" lon="1.09245">
        <ele>314.4</ele>
        <time>2020-08-22 09:05:21</time>
      </trkpt>
      <trkpt lat="41.19658" lon="1.09243">
        <ele>314.8</ele>
        <time>2020-08-22 09:05:22</time>
      </trkpt>
      <trkpt lat="41.19659" lon="1.09242">
        <ele>315</ele>
        <time>2020-08-22 09:05:23</time>
      </trkpt>
      <trkpt lat="41.1966" lon="1.0924">
        <ele>315.6</ele>
        <time>2020-08-22 09:05:24</time>
      </trkpt>
      <trkpt lat="41.19661" lon="1.09239">
        <ele>315.8</ele>
        <time>2020-08-22 09:05:25</time>
      </trkpt>
      <trkpt lat="41.19662" lon="1.09238">
        <ele>316.2</ele>
        <time>2020-08-22 09:05:26</time>
      </trkpt>
      <trkpt lat="41.19663" lon="1.09237">
        <ele>316.2</ele>
        <time>2020-08-22 09:05:27</time>
      </trkpt>
      <trkpt lat="41.19664" lon="1.09236">
        <ele>316.4</ele>
        <time>2020-08-22 09:05:28</time>
      </trkpt>
      <trkpt lat="41.19666" lon="1.09234">
        <ele>317.2</ele>
        <time>2020-08-22 09:05:29</time>
      </trkpt>
      <trkpt lat="41.19667" lon="1.09233">
        <ele>317.4</ele>
        <time>2020-08-22 09:05:30</time>
      </trkpt>
      <trkpt lat="41.19669" lon="1.09231">
        <ele>318</ele>
        <time>2020-08-22 09:05:31</time>
      </trkpt>
      <trkpt lat="41.1967" lon="1.09229">
        <ele>318.2</ele>
        <time>2020-08-22 09:05:32</time>
      </trkpt>
      <trkpt lat="41.19671" lon="1.09228">
        <ele>318.6</ele>
        <time>2020-08-22 09:05:33</time>
      </trkpt>
      <trkpt lat="41.19672" lon="1.09227">
        <ele>318.8</ele>
        <time>2020-08-22 09:05:34</time>
      </trkpt>
      <trkpt lat="41.19673" lon="1.09226">
        <ele>319</ele>
        <time>2020-08-22 09:05:35</time>
      </trkpt>
      <trkpt lat="41.19675" lon="1.09224">
        <ele>319.2</ele>
        <time>2020-08-22 09:05:36</time>
      </trkpt>
      <trkpt lat="41.19676" lon="1.09222">
        <ele>319.6</ele>
        <time>2020-08-22 09:05:37</time>
      </trkpt>
      <trkpt lat="41.19676" lon="1.0922">
        <ele>320</ele>
        <time>2020-08-22 09:05:38</time>
      </trkpt>
      <trkpt lat="41.19676" lon="1.09219">
        <ele>320.4</ele>
        <time>2020-08-22 09:05:39</time>
      </trkpt>
      <trkpt lat="41.19675" lon="1.09218">
        <ele>320.6</ele>
        <time>2020-08-22 09:05:40</time>
      </trkpt>
      <trkpt lat="41.19673" lon="1.09217">
        <ele>321</ele>
        <time>2020-08-22 09:05:41</time>
      </trkpt>
      <trkpt lat="41.19673" lon="1.09216">
        <ele>321.2</ele>
        <time>2020-08-22 09:05:42</time>
      </trkpt>
      <trkpt lat="41.19672" lon="1.09214">
        <ele>321.2</ele>
        <time>2020-08-22 09:05:43</time>
      </trkpt>
      <trkpt lat="41.1967" lon="1.09213">
        <ele>321.6</ele>
        <time>2020-08-22 09:05:44</time>
      </trkpt>
      <trkpt lat="41.19669" lon="1.09212">
        <ele>321.8</ele>
        <time>2020-08-22 09:05:45</time>
      </trkpt>
      <trkpt lat="41.19667" lon="1.09211">
        <ele>322</ele>
        <time>2020-08-22 09:05:46</time>
      </trkpt>
      <trkpt lat="41.19666" lon="1.09209">
        <ele>322.2</ele>
        <time>2020-08-22 09:05:47</time>
      </trkpt>
      <trkpt lat="41.19664" lon="1.09207">
        <ele>322.2</ele>
        <time>2020-08-22 09:05:48</time>
      </trkpt>
      <trkpt lat="41.19663" lon="1.09205">
        <ele>322.4</ele>
        <time>2020-08-22 09:05:49</time>
      </trkpt>
      <trkpt lat="41.19662" lon="1.09203">
        <ele>322.4</ele>
        <time>2020-08-22 09:05:50</time>
      </trkpt>
      <trkpt lat="41.19662" lon="1.09201">
        <ele>322.6</ele>
        <time>2020-08-22 09:05:51</time>
      </trkpt>
      <trkpt lat="41.19662" lon="1.09199">
        <ele>322.8</ele>
        <time>2020-08-22 09:05:52</time>
      </trkpt>
      <trkpt lat="41.19664" lon="1.09197">
        <ele>323</ele>
        <time>2020-08-22 09:05:53</time>
      </trkpt>
      <trkpt lat="41.19665" lon="1.09195">
        <ele>324</ele>
        <time>2020-08-22 09:05:54</time>
      </trkpt>
      <trkpt lat="41.19667" lon="1.09194">
        <ele>324.2</ele>
        <time>2020-08-22 09:05:55</time>
      </trkpt>
      <trkpt lat="41.19668" lon="1.09194">
        <ele>324.8</ele>
        <time>2020-08-22 09:05:56</time>
      </trkpt>
      <trkpt lat="41.19669" lon="1.09193">
        <ele>325.2</ele>
        <time>2020-08-22 09:05:57</time>
      </trkpt>
      <trkpt lat="41.1967" lon="1.09193">
        <ele>325.6</ele>
        <time>2020-08-22 09:05:58</time>
      </trkpt>
      <trkpt lat="41.19671" lon="1.09193">
        <ele>326</ele>
        <time>2020-08-22 09:05:59</time>
      </trkpt>
      <trkpt lat="41.19672" lon="1.09193">
        <ele>326.4</ele>
        <time>2020-08-22 09:06:00</time>
      </trkpt>
      <trkpt lat="41.19674" lon="1.09194">
        <ele>326.6</ele>
        <time>2020-08-22 09:06:01</time>
      </trkpt>
      <trkpt lat="41.19675" lon="1.09194">
        <ele>326.6</ele>
        <time>2020-08-22 09:06:02</time>
      </trkpt>
      <trkpt lat="41.19676" lon="1.09194">
        <ele>326.8</ele>
        <time>2020-08-22 09:06:03</time>
      </trkpt>
      <trkpt lat="41.19677" lon="1.09194">
        <ele>326.8</ele>
        <time>2020-08-22 09:06:04</time>
      </trkpt>
      <trkpt lat="41.19678" lon="1.09193">
        <ele>326.8</ele>
        <time>2020-08-22 09:06:05</time>
      </trkpt>
      <trkpt lat="41.19679" lon="1.09191">
        <ele>327</ele>
        <time>2020-08-22 09:06:06</time>
      </trkpt>
      <trkpt lat="41.1968" lon="1.0919">
        <ele>327</ele>
        <time>2020-08-22 09:06:07</time>
      </trkpt>
      <trkpt lat="41.1968" lon="1.09188">
        <ele>327.2</ele>
        <time>2020-08-22 09:06:08</time>
      </trkpt>
      <trkpt lat="41.1968" lon="1.09187">
        <ele>327.2</ele>
        <time>2020-08-22 09:06:09</time>
      </trkpt>
      <trkpt lat="41.19679" lon="1.09186">
        <ele>327.4</ele>
        <time>2020-08-22 09:06:10</time>
      </trkpt>
      <trkpt lat="41.19678" lon="1.09184">
        <ele>327.6</ele>
        <time>2020-08-22 09:06:11</time>
      </trkpt>
      <trkpt lat="41.19676" lon="1.09183">
        <ele>328</ele>
        <time>2020-08-22 09:06:12</time>
      </trkpt>
      <trkpt lat="41.19675" lon="1.09181">
        <ele>328.2</ele>
        <time>2020-08-22 09:06:13</time>
      </trkpt>
      <trkpt lat="41.19674" lon="1.09179">
        <ele>328.6</ele>
        <time>2020-08-22 09:06:14</time>
      </trkpt>
      <trkpt lat="41.19673" lon="1.09178">
        <ele>328.8</ele>
        <time>2020-08-22 09:06:15</time>
      </trkpt>
      <trkpt lat="41.19673" lon="1.09176">
        <ele>329</ele>
        <time>2020-08-22 09:06:16</time>
      </trkpt>
      <trkpt lat="41.19675" lon="1.09173">
        <ele>329</ele>
        <time>2020-08-22 09:06:17</time>
      </trkpt>
      <trkpt lat="41.19676" lon="1.09172">
        <ele>329.2</ele>
        <time>2020-08-22 09:06:18</time>
      </trkpt>
      <trkpt lat="41.19678" lon="1.09171">
        <ele>329.4</ele>
        <time>2020-08-22 09:06:19</time>
      </trkpt>
      <trkpt lat="41.19679" lon="1.0917">
        <ele>329.4</ele>
        <time>2020-08-22 09:06:20</time>
      </trkpt>
      <trkpt lat="41.19681" lon="1.09168">
        <ele>330</ele>
        <time>2020-08-22 09:06:21</time>
      </trkpt>
      <trkpt lat="41.19683" lon="1.09167">
        <ele>330.2</ele>
        <time>2020-08-22 09:06:22</time>
      </trkpt>
      <trkpt lat="41.19684" lon="1.09166">
        <ele>330.8</ele>
        <time>2020-08-22 09:06:23</time>
      </trkpt>
      <trkpt lat="41.19685" lon="1.09166">
        <ele>331</ele>
        <time>2020-08-22 09:06:24</time>
      </trkpt>
      <trkpt lat="41.19688" lon="1.09164">
        <ele>331.4</ele>
        <time>2020-08-22 09:06:25</time>
      </trkpt>
      <trkpt lat="41.1969" lon="1.09163">
        <ele>331.6</ele>
        <time>2020-08-22 09:06:26</time>
      </trkpt>
      <trkpt lat="41.19693" lon="1.09162">
        <ele>332</ele>
        <time>2020-08-22 09:06:27</time>
      </trkpt>
      <trkpt lat="41.19695" lon="1.09161">
        <ele>332.2</ele>
        <time>2020-08-22 09:06:28</time>
      </trkpt>
      <trkpt lat="41.19697" lon="1.09161">
        <ele>332.4</ele>
        <time>2020-08-22 09:06:29</time>
      </trkpt>
      <trkpt lat="41.19699" lon="1.09159">
        <ele>332.8</ele>
        <time>2020-08-22 09:06:30</time>
      </trkpt>
      <trkpt lat="41.19701" lon="1.09158">
        <ele>333</ele>
        <time>2020-08-22 09:06:31</time>
      </trkpt>
      <trkpt lat="41.19703" lon="1.09157">
        <ele>333.4</ele>
        <time>2020-08-22 09:06:32</time>
      </trkpt>
      <trkpt lat="41.19704" lon="1.09156">
        <ele>333.6</ele>
        <time>2020-08-22 09:06:33</time>
      </trkpt>
      <trkpt lat="41.19705" lon="1.09154">
        <ele>334</ele>
        <time>2020-08-22 09:06:34</time>
      </trkpt>
      <trkpt lat="41.19707" lon="1.09152">
        <ele>334.4</ele>
        <time>2020-08-22 09:06:35</time>
      </trkpt>
      <trkpt lat="41.19707" lon="1.09149">
        <ele>334.8</ele>
        <time>2020-08-22 09:06:36</time>
      </trkpt>
      <trkpt lat="41.19706" lon="1.09147">
        <ele>335.2</ele>
        <time>2020-08-22 09:06:37</time>
      </trkpt>
      <trkpt lat="41.19706" lon="1.09146">
        <ele>335.4</ele>
        <time>2020-08-22 09:06:38</time>
      </trkpt>
      <trkpt lat="41.19705" lon="1.09144">
        <ele>336</ele>
        <time>2020-08-22 09:06:39</time>
      </trkpt>
      <trkpt lat="41.19703" lon="1.09143">
        <ele>336.2</ele>
        <time>2020-08-22 09:06:40</time>
      </trkpt>
      <trkpt lat="41.19703" lon="1.09142">
        <ele>336.4</ele>
        <time>2020-08-22 09:06:41</time>
      </trkpt>
      <trkpt lat="41.19701" lon="1.0914">
        <ele>336.8</ele>
        <time>2020-08-22 09:06:42</time>
      </trkpt>
      <trkpt lat="41.197" lon="1.09138">
        <ele>337.4</ele>
        <time>2020-08-22 09:06:43</time>
      </trkpt>
      <trkpt lat="41.19699" lon="1.09136">
        <ele>337.6</ele>
        <time>2020-08-22 09:06:44</time>
      </trkpt>
      <trkpt lat="41.19699" lon="1.09134">
        <ele>338</ele>
        <time>2020-08-22 09:06:45</time>
      </trkpt>
      <trkpt lat="41.19699" lon="1.09132">
        <ele>338.2</ele>
        <time>2020-08-22 09:06:46</time>
      </trkpt>
      <trkpt lat="41.197" lon="1.0913">
        <ele>338.4</ele>
        <time>2020-08-22 09:06:47</time>
      </trkpt>
      <trkpt lat="41.197" lon="1.09127">
        <ele>338.6</ele>
        <time>2020-08-22 09:06:48</time>
      </trkpt>
      <trkpt lat="41.19696" lon="1.09123">
        <ele>338.8</ele>
        <time>2020-08-22 09:06:49</time>
      </trkpt>
      <trkpt lat="41.19695" lon="1.09119">
        <ele>339.4</ele>
        <time>2020-08-22 09:06:50</time>
      </trkpt>
      <trkpt lat="41.19693" lon="1.09115">
        <ele>339.8</ele>
        <time>2020-08-22 09:06:51</time>
      </trkpt>
      <trkpt lat="41.19691" lon="1.09113">
        <ele>340.2</ele>
        <time>2020-08-22 09:06:52</time>
      </trkpt>
      <trkpt lat="41.19689" lon="1.09111">
        <ele>340.2</ele>
        <time>2020-08-22 09:06:53</time>
      </trkpt>
      <trkpt lat="41.19684" lon="1.09108">
        <ele>340.6</ele>
        <time>2020-08-22 09:06:54</time>
      </trkpt>
      <trkpt lat="41.1968" lon="1.09105">
        <ele>340.6</ele>
        <time>2020-08-22 09:06:55</time>
      </trkpt>
      <trkpt lat="41.19676" lon="1.09103">
        <ele>340.8</ele>
        <time>2020-08-22 09:06:56</time>
      </trkpt>
      <trkpt lat="41.19674" lon="1.091">
        <ele>341</ele>
        <time>2020-08-22 09:06:57</time>
      </trkpt>
      <trkpt lat="41.19672" lon="1.09099">
        <ele>341</ele>
        <time>2020-08-22 09:06:58</time>
      </trkpt>
      <trkpt lat="41.1967" lon="1.09097">
        <ele>341.2</ele>
        <time>2020-08-22 09:06:59</time>
      </trkpt>
      <trkpt lat="41.19668" lon="1.09096">
        <ele>341.4</ele>
        <time>2020-08-22 09:07:00</time>
      </trkpt>
      <trkpt lat="41.19666" lon="1.09095">
        <ele>341.6</ele>
        <time>2020-08-22 09:07:01</time>
      </trkpt>
      <trkpt lat="41.19662" lon="1.09094">
        <ele>341.8</ele>
        <time>2020-08-22 09:07:02</time>
      </trkpt>
      <trkpt lat="41.1966" lon="1.09093">
        <ele>342.2</ele>
        <time>2020-08-22 09:07:03</time>
      </trkpt>
      <trkpt lat="41.19658" lon="1.09092">
        <ele>342.2</ele>
        <time>2020-08-22 09:07:04</time>
      </trkpt>
      <trkpt lat="41.19655" lon="1.09091">
        <ele>342.4</ele>
        <time>2020-08-22 09:07:05</time>
      </trkpt>
      <trkpt lat="41.19653" lon="1.09089">
        <ele>342.4</ele>
        <time>2020-08-22 09:07:06</time>
      </trkpt>
      <trkpt lat="41.19649" lon="1.09089">
        <ele>342.4</ele>
        <time>2020-08-22 09:07:07</time>
      </trkpt>
      <trkpt lat="41.19647" lon="1.09088">
        <ele>342.6</ele>
        <time>2020-08-22 09:07:08</time>
      </trkpt>
      <trkpt lat="41.19644" lon="1.09086">
        <ele>342.6</ele>
        <time>2020-08-22 09:07:09</time>
      </trkpt>
      <trkpt lat="41.19641" lon="1.09084">
        <ele>342.6</ele>
        <time>2020-08-22 09:07:10</time>
      </trkpt>
      <trkpt lat="41.19638" lon="1.09082">
        <ele>342.8</ele>
        <time>2020-08-22 09:07:11</time>
      </trkpt>
      <trkpt lat="41.19632" lon="1.0908">
        <ele>343</ele>
        <time>2020-08-22 09:07:13</time>
      </trkpt>
      <trkpt lat="41.19628" lon="1.09079">
        <ele>343.2</ele>
        <time>2020-08-22 09:07:14</time>
      </trkpt>
      <trkpt lat="41.19625" lon="1.09079">
        <ele>343.4</ele>
        <time>2020-08-22 09:07:15</time>
      </trkpt>
      <trkpt lat="41.19621" lon="1.0908">
        <ele>343.6</ele>
        <time>2020-08-22 09:07:16</time>
      </trkpt>
      <trkpt lat="41.19618" lon="1.09081">
        <ele>343.6</ele>
        <time>2020-08-22 09:07:17</time>
      </trkpt>
      <trkpt lat="41.19615" lon="1.09082">
        <ele>343.6</ele>
        <time>2020-08-22 09:07:18</time>
      </trkpt>
      <trkpt lat="41.19613" lon="1.09082">
        <ele>343.6</ele>
        <time>2020-08-22 09:07:19</time>
      </trkpt>
      <trkpt lat="41.1961" lon="1.09082">
        <ele>343.6</ele>
        <time>2020-08-22 09:07:20</time>
      </trkpt>
      <trkpt lat="41.19607" lon="1.09083">
        <ele>343.8</ele>
        <time>2020-08-22 09:07:21</time>
      </trkpt>
      <trkpt lat="41.19604" lon="1.09084">
        <ele>343.8</ele>
        <time>2020-08-22 09:07:22</time>
      </trkpt>
      <trkpt lat="41.19602" lon="1.09086">
        <ele>344</ele>
        <time>2020-08-22 09:07:23</time>
      </trkpt>
      <trkpt lat="41.196" lon="1.09088">
        <ele>344</ele>
        <time>2020-08-22 09:07:24</time>
      </trkpt>
      <trkpt lat="41.19597" lon="1.0909">
        <ele>344.2</ele>
        <time>2020-08-22 09:07:25</time>
      </trkpt>
      <trkpt lat="41.19594" lon="1.09091">
        <ele>344.4</ele>
        <time>2020-08-22 09:07:26</time>
      </trkpt>
      <trkpt lat="41.19592" lon="1.09092">
        <ele>344.4</ele>
        <time>2020-08-22 09:07:27</time>
      </trkpt>
      <trkpt lat="41.1959" lon="1.09093">
        <ele>344.8</ele>
        <time>2020-08-22 09:07:28</time>
      </trkpt>
      <trkpt lat="41.19587" lon="1.09096">
        <ele>345</ele>
        <time>2020-08-22 09:07:29</time>
      </trkpt>
      <trkpt lat="41.19583" lon="1.09099">
        <ele>345</ele>
        <time>2020-08-22 09:07:30</time>
      </trkpt>
      <trkpt lat="41.1958" lon="1.091">
        <ele>345</ele>
        <time>2020-08-22 09:07:31</time>
      </trkpt>
      <trkpt lat="41.19578" lon="1.09102">
        <ele>345.2</ele>
        <time>2020-08-22 09:07:32</time>
      </trkpt>
      <trkpt lat="41.19575" lon="1.09103">
        <ele>345.2</ele>
        <time>2020-08-22 09:07:33</time>
      </trkpt>
      <trkpt lat="41.19573" lon="1.09107">
        <ele>345.2</ele>
        <time>2020-08-22 09:07:34</time>
      </trkpt>
      <trkpt lat="41.19573" lon="1.09112">
        <ele>345.2</ele>
        <time>2020-08-22 09:07:35</time>
      </trkpt>
      <trkpt lat="41.19573" lon="1.09119">
        <ele>345.2</ele>
        <time>2020-08-22 09:07:36</time>
      </trkpt>
      <trkpt lat="41.19573" lon="1.09123">
        <ele>345.2</ele>
        <time>2020-08-22 09:07:37</time>
      </trkpt>
      <trkpt lat="41.19573" lon="1.09129">
        <ele>345</ele>
        <time>2020-08-22 09:07:38</time>
      </trkpt>
      <trkpt lat="41.19573" lon="1.09138">
        <ele>344.4</ele>
        <time>2020-08-22 09:07:39</time>
      </trkpt>
      <trkpt lat="41.19571" lon="1.09144">
        <ele>343.8</ele>
        <time>2020-08-22 09:07:40</time>
      </trkpt>
      <trkpt lat="41.19569" lon="1.09151">
        <ele>343.4</ele>
        <time>2020-08-22 09:07:41</time>
      </trkpt>
      <trkpt lat="41.19567" lon="1.09157">
        <ele>342</ele>
        <time>2020-08-22 09:07:42</time>
      </trkpt>
      <trkpt lat="41.19565" lon="1.09164">
        <ele>341.2</ele>
        <time>2020-08-22 09:07:43</time>
      </trkpt>
      <trkpt lat="41.19564" lon="1.09174">
        <ele>339.6</ele>
        <time>2020-08-22 09:07:44</time>
      </trkpt>
      <trkpt lat="41.19561" lon="1.09184">
        <ele>338</ele>
        <time>2020-08-22 09:07:45</time>
      </trkpt>
      <trkpt lat="41.19559" lon="1.09193">
        <ele>336.8</ele>
        <time>2020-08-22 09:07:46</time>
      </trkpt>
      <trkpt lat="41.19557" lon="1.092">
        <ele>334.8</ele>
        <time>2020-08-22 09:07:47</time>
      </trkpt>
      <trkpt lat="41.19556" lon="1.09207">
        <ele>333.8</ele>
        <time>2020-08-22 09:07:48</time>
      </trkpt>
      <trkpt lat="41.19554" lon="1.09213">
        <ele>332.4</ele>
        <time>2020-08-22 09:07:49</time>
      </trkpt>
      <trkpt lat="41.19552" lon="1.09217">
        <ele>331.6</ele>
        <time>2020-08-22 09:07:50</time>
      </trkpt>
      <trkpt lat="41.19551" lon="1.0922">
        <ele>330.4</ele>
        <time>2020-08-22 09:07:51</time>
      </trkpt>
      <trkpt lat="41.19549" lon="1.09222">
        <ele>329</ele>
        <time>2020-08-22 09:07:52</time>
      </trkpt>
      <trkpt lat="41.19546" lon="1.09223">
        <ele>327</ele>
        <time>2020-08-22 09:07:53</time>
      </trkpt>
      <trkpt lat="41.19542" lon="1.09225">
        <ele>325.8</ele>
        <time>2020-08-22 09:07:54</time>
      </trkpt>
      <trkpt lat="41.19533" lon="1.09226">
        <ele>323.8</ele>
        <time>2020-08-22 09:07:56</time>
      </trkpt>
      <trkpt lat="41.19531" lon="1.09227">
        <ele>323.4</ele>
        <time>2020-08-22 09:07:57</time>
      </trkpt>
      <trkpt lat="41.19529" lon="1.09231">
        <ele>322.4</ele>
        <time>2020-08-22 09:07:58</time>
      </trkpt>
      <trkpt lat="41.19526" lon="1.09235">
        <ele>322.2</ele>
        <time>2020-08-22 09:07:59</time>
      </trkpt>
      <trkpt lat="41.19524" lon="1.0924">
        <ele>321.6</ele>
        <time>2020-08-22 09:08:00</time>
      </trkpt>
      <trkpt lat="41.19521" lon="1.09245">
        <ele>320.6</ele>
        <time>2020-08-22 09:08:01</time>
      </trkpt>
      <trkpt lat="41.19517" lon="1.09249">
        <ele>320</ele>
        <time>2020-08-22 09:08:02</time>
      </trkpt>
      <trkpt lat="41.19512" lon="1.09253">
        <ele>319.2</ele>
        <time>2020-08-22 09:08:03</time>
      </trkpt>
      <trkpt lat="41.19508" lon="1.09256">
        <ele>318.2</ele>
        <time>2020-08-22 09:08:04</time>
      </trkpt>
      <trkpt lat="41.19506" lon="1.09258">
        <ele>317.4</ele>
        <time>2020-08-22 09:08:05</time>
      </trkpt>
      <trkpt lat="41.19503" lon="1.0926">
        <ele>317</ele>
        <time>2020-08-22 09:08:06</time>
      </trkpt>
      <trkpt lat="41.195" lon="1.09261">
        <ele>316.2</ele>
        <time>2020-08-22 09:08:07</time>
      </trkpt>
      <trkpt lat="41.19498" lon="1.09263">
        <ele>315.6</ele>
        <time>2020-08-22 09:08:08</time>
      </trkpt>
      <trkpt lat="41.19494" lon="1.09266">
        <ele>314.4</ele>
        <time>2020-08-22 09:08:09</time>
      </trkpt>
      <trkpt lat="41.19491" lon="1.09267">
        <ele>313</ele>
        <time>2020-08-22 09:08:10</time>
      </trkpt>
      <trkpt lat="41.19489" lon="1.09269">
        <ele>312.2</ele>
        <time>2020-08-22 09:08:11</time>
      </trkpt>
      <trkpt lat="41.19487" lon="1.0927">
        <ele>311.2</ele>
        <time>2020-08-22 09:08:12</time>
      </trkpt>
      <trkpt lat="41.19485" lon="1.09271">
        <ele>310.6</ele>
        <time>2020-08-22 09:08:13</time>
      </trkpt>
      <trkpt lat="41.1948" lon="1.09272">
        <ele>309.6</ele>
        <time>2020-08-22 09:08:14</time>
      </trkpt>
      <trkpt lat="41.19475" lon="1.09272">
        <ele>308.4</ele>
        <time>2020-08-22 09:08:15</time>
      </trkpt>
      <trkpt lat="41.1947" lon="1.0927">
        <ele>306.8</ele>
        <time>2020-08-22 09:08:16</time>
      </trkpt>
      <trkpt lat="41.19465" lon="1.09266">
        <ele>305.6</ele>
        <time>2020-08-22 09:08:17</time>
      </trkpt>
      <trkpt lat="41.19461" lon="1.09261">
        <ele>305</ele>
        <time>2020-08-22 09:08:18</time>
      </trkpt>
      <trkpt lat="41.19455" lon="1.09255">
        <ele>303.8</ele>
        <time>2020-08-22 09:08:19</time>
      </trkpt>
      <trkpt lat="41.1945" lon="1.09251">
        <ele>303.4</ele>
        <time>2020-08-22 09:08:20</time>
      </trkpt>
      <trkpt lat="41.19444" lon="1.0925">
        <ele>302.8</ele>
        <time>2020-08-22 09:08:21</time>
      </trkpt>
      <trkpt lat="41.19438" lon="1.09253">
        <ele>302.6</ele>
        <time>2020-08-22 09:08:22</time>
      </trkpt>
      <trkpt lat="41.19435" lon="1.09258">
        <ele>302.2</ele>
        <time>2020-08-22 09:08:23</time>
      </trkpt>
      <trkpt lat="41.19429" lon="1.09272">
        <ele>301.6</ele>
        <time>2020-08-22 09:08:25</time>
      </trkpt>
      <trkpt lat="41.19425" lon="1.09281">
        <ele>301.4</ele>
        <time>2020-08-22 09:08:26</time>
      </trkpt>
      <trkpt lat="41.19419" lon="1.09295">
        <ele>300.2</ele>
        <time>2020-08-22 09:08:28</time>
      </trkpt>
      <trkpt lat="41.19416" lon="1.09303">
        <ele>299.6</ele>
        <time>2020-08-22 09:08:29</time>
      </trkpt>
      <trkpt lat="41.19414" lon="1.09308">
        <ele>298.2</ele>
        <time>2020-08-22 09:08:30</time>
      </trkpt>
      <trkpt lat="41.19415" lon="1.09313">
        <ele>297.6</ele>
        <time>2020-08-22 09:08:31</time>
      </trkpt>
      <trkpt lat="41.19417" lon="1.09316">
        <ele>296.8</ele>
        <time>2020-08-22 09:08:32</time>
      </trkpt>
      <trkpt lat="41.19421" lon="1.09317">
        <ele>296</ele>
        <time>2020-08-22 09:08:33</time>
      </trkpt>
      <trkpt lat="41.19424" lon="1.09321">
        <ele>294.8</ele>
        <time>2020-08-22 09:08:34</time>
      </trkpt>
      <trkpt lat="41.19425" lon="1.09325">
        <ele>293.8</ele>
        <time>2020-08-22 09:08:35</time>
      </trkpt>
      <trkpt lat="41.19424" lon="1.09331">
        <ele>293.4</ele>
        <time>2020-08-22 09:08:36</time>
      </trkpt>
      <trkpt lat="41.19423" lon="1.09335">
        <ele>293</ele>
        <time>2020-08-22 09:08:37</time>
      </trkpt>
      <trkpt lat="41.19417" lon="1.09345">
        <ele>292.4</ele>
        <time>2020-08-22 09:08:39</time>
      </trkpt>
      <trkpt lat="41.19415" lon="1.0935">
        <ele>292.2</ele>
        <time>2020-08-22 09:08:40</time>
      </trkpt>
      <trkpt lat="41.19412" lon="1.09353">
        <ele>291.8</ele>
        <time>2020-08-22 09:08:41</time>
      </trkpt>
      <trkpt lat="41.19409" lon="1.09355">
        <ele>291.2</ele>
        <time>2020-08-22 09:08:42</time>
      </trkpt>
      <trkpt lat="41.19404" lon="1.09356">
        <ele>290.8</ele>
        <time>2020-08-22 09:08:43</time>
      </trkpt>
      <trkpt lat="41.19399" lon="1.09356">
        <ele>289.6</ele>
        <time>2020-08-22 09:08:44</time>
      </trkpt>
      <trkpt lat="41.19394" lon="1.09357">
        <ele>289</ele>
        <time>2020-08-22 09:08:45</time>
      </trkpt>
      <trkpt lat="41.19391" lon="1.09361">
        <ele>288.4</ele>
        <time>2020-08-22 09:08:46</time>
      </trkpt>
      <trkpt lat="41.19383" lon="1.09372">
        <ele>287.8</ele>
        <time>2020-08-22 09:08:48</time>
      </trkpt>
      <trkpt lat="41.19378" lon="1.09379">
        <ele>287.8</ele>
        <time>2020-08-22 09:08:49</time>
      </trkpt>
      <trkpt lat="41.19373" lon="1.09385">
        <ele>287.4</ele>
        <time>2020-08-22 09:08:50</time>
      </trkpt>
      <trkpt lat="41.19368" lon="1.09389">
        <ele>286.8</ele>
        <time>2020-08-22 09:08:51</time>
      </trkpt>
      <trkpt lat="41.19364" lon="1.09392">
        <ele>286.6</ele>
        <time>2020-08-22 09:08:52</time>
      </trkpt>
      <trkpt lat="41.1936" lon="1.09392">
        <ele>285.6</ele>
        <time>2020-08-22 09:08:53</time>
      </trkpt>
      <trkpt lat="41.19357" lon="1.09389">
        <ele>285.2</ele>
        <time>2020-08-22 09:08:54</time>
      </trkpt>
      <trkpt lat="41.19354" lon="1.09385">
        <ele>284.2</ele>
        <time>2020-08-22 09:08:55</time>
      </trkpt>
      <trkpt lat="41.19353" lon="1.0938">
        <ele>283.8</ele>
        <time>2020-08-22 09:08:56</time>
      </trkpt>
      <trkpt lat="41.19351" lon="1.09377">
        <ele>283.4</ele>
        <time>2020-08-22 09:08:57</time>
      </trkpt>
      <trkpt lat="41.19345" lon="1.09367">
        <ele>283</ele>
        <time>2020-08-22 09:08:59</time>
      </trkpt>
      <trkpt lat="41.19339" lon="1.09359">
        <ele>283</ele>
        <time>2020-08-22 09:09:01</time>
      </trkpt>
      <trkpt lat="41.19333" lon="1.0935">
        <ele>283</ele>
        <time>2020-08-22 09:09:03</time>
      </trkpt>
      <trkpt lat="41.19319" lon="1.09321">
        <ele>283.2</ele>
        <time>2020-08-22 09:09:08</time>
      </trkpt>
      <trkpt lat="41.19313" lon="1.09305">
        <ele>283.2</ele>
        <time>2020-08-22 09:09:10</time>
      </trkpt>
      <trkpt lat="41.19311" lon="1.09296">
        <ele>283</ele>
        <time>2020-08-22 09:09:11</time>
      </trkpt>
      <trkpt lat="41.19308" lon="1.0929">
        <ele>282.8</ele>
        <time>2020-08-22 09:09:12</time>
      </trkpt>
      <trkpt lat="41.19304" lon="1.09281">
        <ele>282.4</ele>
        <time>2020-08-22 09:09:13</time>
      </trkpt>
      <trkpt lat="41.19299" lon="1.09277">
        <ele>282.2</ele>
        <time>2020-08-22 09:09:14</time>
      </trkpt>
      <trkpt lat="41.19294" lon="1.09275">
        <ele>281.8</ele>
        <time>2020-08-22 09:09:15</time>
      </trkpt>
      <trkpt lat="41.19289" lon="1.09276">
        <ele>281.6</ele>
        <time>2020-08-22 09:09:16</time>
      </trkpt>
      <trkpt lat="41.19283" lon="1.09277">
        <ele>281.4</ele>
        <time>2020-08-22 09:09:17</time>
      </trkpt>
      <trkpt lat="41.19279" lon="1.09279">
        <ele>281.4</ele>
        <time>2020-08-22 09:09:18</time>
      </trkpt>
      <trkpt lat="41.19274" lon="1.09282">
        <ele>281.4</ele>
        <time>2020-08-22 09:09:19</time>
      </trkpt>
      <trkpt lat="41.1927" lon="1.09284">
        <ele>281.4</ele>
        <time>2020-08-22 09:09:20</time>
      </trkpt>
      <trkpt lat="41.19266" lon="1.09286">
        <ele>281.6</ele>
        <time>2020-08-22 09:09:21</time>
      </trkpt>
      <trkpt lat="41.19263" lon="1.09288">
        <ele>282</ele>
        <time>2020-08-22 09:09:22</time>
      </trkpt>
      <trkpt lat="41.19258" lon="1.0929">
        <ele>282.2</ele>
        <time>2020-08-22 09:09:23</time>
      </trkpt>
      <trkpt lat="41.19249" lon="1.09293">
        <ele>283.2</ele>
        <time>2020-08-22 09:09:25</time>
      </trkpt>
      <trkpt lat="41.19245" lon="1.09294">
        <ele>283.4</ele>
        <time>2020-08-22 09:09:26</time>
      </trkpt>
      <trkpt lat="41.19242" lon="1.09295">
        <ele>284</ele>
        <time>2020-08-22 09:09:27</time>
      </trkpt>
      <trkpt lat="41.19237" lon="1.09297">
        <ele>284.2</ele>
        <time>2020-08-22 09:09:28</time>
      </trkpt>
      <trkpt lat="41.19232" lon="1.09299">
        <ele>284.6</ele>
        <time>2020-08-22 09:09:29</time>
      </trkpt>
      <trkpt lat="41.19228" lon="1.093">
        <ele>284.8</ele>
        <time>2020-08-22 09:09:30</time>
      </trkpt>
      <trkpt lat="41.19223" lon="1.09301">
        <ele>285.2</ele>
        <time>2020-08-22 09:09:31</time>
      </trkpt>
      <trkpt lat="41.19219" lon="1.09301">
        <ele>285.4</ele>
        <time>2020-08-22 09:09:32</time>
      </trkpt>
      <trkpt lat="41.19214" lon="1.09301">
        <ele>285.4</ele>
        <time>2020-08-22 09:09:33</time>
      </trkpt>
      <trkpt lat="41.19209" lon="1.09301">
        <ele>285.6</ele>
        <time>2020-08-22 09:09:34</time>
      </trkpt>
      <trkpt lat="41.19204" lon="1.09302">
        <ele>285.6</ele>
        <time>2020-08-22 09:09:35</time>
      </trkpt>
      <trkpt lat="41.192" lon="1.09302">
        <ele>285.8</ele>
        <time>2020-08-22 09:09:36</time>
      </trkpt>
      <trkpt lat="41.19195" lon="1.09302">
        <ele>286</ele>
        <time>2020-08-22 09:09:37</time>
      </trkpt>
      <trkpt lat="41.1919" lon="1.09301">
        <ele>286.2</ele>
        <time>2020-08-22 09:09:38</time>
      </trkpt>
      <trkpt lat="41.19186" lon="1.09299">
        <ele>286.2</ele>
        <time>2020-08-22 09:09:39</time>
      </trkpt>
      <trkpt lat="41.19182" lon="1.09297">
        <ele>286.2</ele>
        <time>2020-08-22 09:09:40</time>
      </trkpt>
      <trkpt lat="41.19177" lon="1.09294">
        <ele>286.2</ele>
        <time>2020-08-22 09:09:41</time>
      </trkpt>
      <trkpt lat="41.19171" lon="1.09291">
        <ele>286.4</ele>
        <time>2020-08-22 09:09:42</time>
      </trkpt>
      <trkpt lat="41.19167" lon="1.0929">
        <ele>286.4</ele>
        <time>2020-08-22 09:09:43</time>
      </trkpt>
      <trkpt lat="41.19162" lon="1.09286">
        <ele>286.4</ele>
        <time>2020-08-22 09:09:44</time>
      </trkpt>
      <trkpt lat="41.19158" lon="1.09283">
        <ele>286.4</ele>
        <time>2020-08-22 09:09:45</time>
      </trkpt>
      <trkpt lat="41.1915" lon="1.09274">
        <ele>286.4</ele>
        <time>2020-08-22 09:09:47</time>
      </trkpt>
      <trkpt lat="41.19138" lon="1.09253">
        <ele>286.2</ele>
        <time>2020-08-22 09:09:51</time>
      </trkpt>
      <trkpt lat="41.1913" lon="1.09239">
        <ele>286</ele>
        <time>2020-08-22 09:09:53</time>
      </trkpt>
      <trkpt lat="41.19126" lon="1.09233">
        <ele>286</ele>
        <time>2020-08-22 09:09:54</time>
      </trkpt>
      <trkpt lat="41.19123" lon="1.09229">
        <ele>285.8</ele>
        <time>2020-08-22 09:09:55</time>
      </trkpt>
      <trkpt lat="41.19113" lon="1.09216">
        <ele>285.6</ele>
        <time>2020-08-22 09:09:57</time>
      </trkpt>
      <trkpt lat="41.19109" lon="1.0921">
        <ele>285.4</ele>
        <time>2020-08-22 09:09:58</time>
      </trkpt>
      <trkpt lat="41.19105" lon="1.09203">
        <ele>285.2</ele>
        <time>2020-08-22 09:09:59</time>
      </trkpt>
      <trkpt lat="41.19097" lon="1.09188">
        <ele>284.4</ele>
        <time>2020-08-22 09:10:01</time>
      </trkpt>
      <trkpt lat="41.19094" lon="1.09181">
        <ele>284.2</ele>
        <time>2020-08-22 09:10:02</time>
      </trkpt>
      <trkpt lat="41.19087" lon="1.09165">
        <ele>283.6</ele>
        <time>2020-08-22 09:10:04</time>
      </trkpt>
      <trkpt lat="41.19084" lon="1.09159">
        <ele>283.4</ele>
        <time>2020-08-22 09:10:05</time>
      </trkpt>
      <trkpt lat="41.19081" lon="1.09151">
        <ele>283.2</ele>
        <time>2020-08-22 09:10:06</time>
      </trkpt>
      <trkpt lat="41.19077" lon="1.09143">
        <ele>283</ele>
        <time>2020-08-22 09:10:07</time>
      </trkpt>
      <trkpt lat="41.19074" lon="1.09137">
        <ele>282.4</ele>
        <time>2020-08-22 09:10:08</time>
      </trkpt>
      <trkpt lat="41.19073" lon="1.09132">
        <ele>282.2</ele>
        <time>2020-08-22 09:10:09</time>
      </trkpt>
      <trkpt lat="41.19074" lon="1.09128">
        <ele>281.4</ele>
        <time>2020-08-22 09:10:10</time>
      </trkpt>
      <trkpt lat="41.19077" lon="1.09122">
        <ele>281</ele>
        <time>2020-08-22 09:10:11</time>
      </trkpt>
      <trkpt lat="41.1908" lon="1.09118">
        <ele>279.8</ele>
        <time>2020-08-22 09:10:12</time>
      </trkpt>
      <trkpt lat="41.19083" lon="1.09112">
        <ele>279.2</ele>
        <time>2020-08-22 09:10:13</time>
      </trkpt>
      <trkpt lat="41.19086" lon="1.09108">
        <ele>278.4</ele>
        <time>2020-08-22 09:10:14</time>
      </trkpt>
      <trkpt lat="41.19088" lon="1.09104">
        <ele>278</ele>
        <time>2020-08-22 09:10:15</time>
      </trkpt>
      <trkpt lat="41.19091" lon="1.091">
        <ele>278</ele>
        <time>2020-08-22 09:10:16</time>
      </trkpt>
      <trkpt lat="41.19094" lon="1.09095">
        <ele>277.8</ele>
        <time>2020-08-22 09:10:17</time>
      </trkpt>
      <trkpt lat="41.19096" lon="1.09091">
        <ele>277.8</ele>
        <time>2020-08-22 09:10:18</time>
      </trkpt>
      <trkpt lat="41.19098" lon="1.09088">
        <ele>277.8</ele>
        <time>2020-08-22 09:10:19</time>
      </trkpt>
      <trkpt lat="41.191" lon="1.09085">
        <ele>277.8</ele>
        <time>2020-08-22 09:10:20</time>
      </trkpt>
      <trkpt lat="41.19102" lon="1.09082">
        <ele>278</ele>
        <time>2020-08-22 09:10:21</time>
      </trkpt>
      <trkpt lat="41.19106" lon="1.09079">
        <ele>278</ele>
        <time>2020-08-22 09:10:22</time>
      </trkpt>
      <trkpt lat="41.19111" lon="1.09074">
        <ele>278.8</ele>
        <time>2020-08-22 09:10:24</time>
      </trkpt>
      <trkpt lat="41.19113" lon="1.09072">
        <ele>279</ele>
        <time>2020-08-22 09:10:25</time>
      </trkpt>
      <trkpt lat="41.19116" lon="1.09071">
        <ele>279.4</ele>
        <time>2020-08-22 09:10:26</time>
      </trkpt>
      <trkpt lat="41.19119" lon="1.0907">
        <ele>279.6</ele>
        <time>2020-08-22 09:10:27</time>
      </trkpt>
      <trkpt lat="41.19123" lon="1.0907">
        <ele>280</ele>
        <time>2020-08-22 09:10:28</time>
      </trkpt>
      <trkpt lat="41.19126" lon="1.09069">
        <ele>280.2</ele>
        <time>2020-08-22 09:10:29</time>
      </trkpt>
      <trkpt lat="41.19129" lon="1.09069">
        <ele>280.8</ele>
        <time>2020-08-22 09:10:30</time>
      </trkpt>
      <trkpt lat="41.19132" lon="1.09068">
        <ele>280.8</ele>
        <time>2020-08-22 09:10:31</time>
      </trkpt>
      <trkpt lat="41.19135" lon="1.09068">
        <ele>281.2</ele>
        <time>2020-08-22 09:10:32</time>
      </trkpt>
      <trkpt lat="41.19138" lon="1.09067">
        <ele>281.4</ele>
        <time>2020-08-22 09:10:33</time>
      </trkpt>
      <trkpt lat="41.19141" lon="1.09066">
        <ele>281.6</ele>
        <time>2020-08-22 09:10:34</time>
      </trkpt>
      <trkpt lat="41.19144" lon="1.09065">
        <ele>282</ele>
        <time>2020-08-22 09:10:35</time>
      </trkpt>
      <trkpt lat="41.19148" lon="1.09064">
        <ele>282</ele>
        <time>2020-08-22 09:10:36</time>
      </trkpt>
      <trkpt lat="41.1915" lon="1.09064">
        <ele>282.2</ele>
        <time>2020-08-22 09:10:37</time>
      </trkpt>
      <trkpt lat="41.19153" lon="1.09063">
        <ele>282.2</ele>
        <time>2020-08-22 09:10:38</time>
      </trkpt>
      <trkpt lat="41.19156" lon="1.09062">
        <ele>282.6</ele>
        <time>2020-08-22 09:10:39</time>
      </trkpt>
      <trkpt lat="41.19159" lon="1.09062">
        <ele>282.8</ele>
        <time>2020-08-22 09:10:40</time>
      </trkpt>
      <trkpt lat="41.19162" lon="1.09061">
        <ele>283</ele>
        <time>2020-08-22 09:10:41</time>
      </trkpt>
      <trkpt lat="41.19165" lon="1.09061">
        <ele>283.2</ele>
        <time>2020-08-22 09:10:42</time>
      </trkpt>
      <trkpt lat="41.19167" lon="1.0906">
        <ele>283.4</ele>
        <time>2020-08-22 09:10:43</time>
      </trkpt>
      <trkpt lat="41.19169" lon="1.0906">
        <ele>283.6</ele>
        <time>2020-08-22 09:10:44</time>
      </trkpt>
      <trkpt lat="41.19171" lon="1.0906">
        <ele>284</ele>
        <time>2020-08-22 09:10:45</time>
      </trkpt>
      <trkpt lat="41.19174" lon="1.0906">
        <ele>284.4</ele>
        <time>2020-08-22 09:10:46</time>
      </trkpt>
      <trkpt lat="41.19176" lon="1.09061">
        <ele>284.8</ele>
        <time>2020-08-22 09:10:47</time>
      </trkpt>
      <trkpt lat="41.19177" lon="1.09061">
        <ele>285.4</ele>
        <time>2020-08-22 09:10:48</time>
      </trkpt>
      <trkpt lat="41.19178" lon="1.09061">
        <ele>285.8</ele>
        <time>2020-08-22 09:10:49</time>
      </trkpt>
      <trkpt lat="41.1918" lon="1.0906">
        <ele>286</ele>
        <time>2020-08-22 09:10:50</time>
      </trkpt>
      <trkpt lat="41.19182" lon="1.0906">
        <ele>286.6</ele>
        <time>2020-08-22 09:10:51</time>
      </trkpt>
      <trkpt lat="41.19185" lon="1.0906">
        <ele>286.8</ele>
        <time>2020-08-22 09:10:52</time>
      </trkpt>
      <trkpt lat="41.19187" lon="1.0906">
        <ele>287.4</ele>
        <time>2020-08-22 09:10:53</time>
      </trkpt>
      <trkpt lat="41.19189" lon="1.0906">
        <ele>287.4</ele>
        <time>2020-08-22 09:10:54</time>
      </trkpt>
      <trkpt lat="41.19192" lon="1.0906">
        <ele>288</ele>
        <time>2020-08-22 09:10:55</time>
      </trkpt>
      <trkpt lat="41.19194" lon="1.0906">
        <ele>288.4</ele>
        <time>2020-08-22 09:10:56</time>
      </trkpt>
      <trkpt lat="41.19196" lon="1.09061">
        <ele>288.8</ele>
        <time>2020-08-22 09:10:57</time>
      </trkpt>
      <trkpt lat="41.19199" lon="1.09061">
        <ele>289.6</ele>
        <time>2020-08-22 09:10:58</time>
      </trkpt>
      <trkpt lat="41.192" lon="1.09061">
        <ele>290</ele>
        <time>2020-08-22 09:10:59</time>
      </trkpt>
      <trkpt lat="41.19202" lon="1.09061">
        <ele>290.4</ele>
        <time>2020-08-22 09:11:00</time>
      </trkpt>
      <trkpt lat="41.19204" lon="1.09061">
        <ele>290.8</ele>
        <time>2020-08-22 09:11:01</time>
      </trkpt>
      <trkpt lat="41.19206" lon="1.09061">
        <ele>291</ele>
        <time>2020-08-22 09:11:02</time>
      </trkpt>
      <trkpt lat="41.19209" lon="1.09061">
        <ele>291.2</ele>
        <time>2020-08-22 09:11:03</time>
      </trkpt>
      <trkpt lat="41.19211" lon="1.09061">
        <ele>291.8</ele>
        <time>2020-08-22 09:11:04</time>
      </trkpt>
      <trkpt lat="41.19213" lon="1.09062">
        <ele>292</ele>
        <time>2020-08-22 09:11:05</time>
      </trkpt>
      <trkpt lat="41.19215" lon="1.09062">
        <ele>292.2</ele>
        <time>2020-08-22 09:11:06</time>
      </trkpt>
      <trkpt lat="41.19217" lon="1.09061">
        <ele>293</ele>
        <time>2020-08-22 09:11:07</time>
      </trkpt>
      <trkpt lat="41.19219" lon="1.09061">
        <ele>293.4</ele>
        <time>2020-08-22 09:11:08</time>
      </trkpt>
      <trkpt lat="41.19221" lon="1.0906">
        <ele>293.8</ele>
        <time>2020-08-22 09:11:09</time>
      </trkpt>
      <trkpt lat="41.19223" lon="1.09059">
        <ele>294</ele>
        <time>2020-08-22 09:11:10</time>
      </trkpt>
      <trkpt lat="41.19226" lon="1.09058">
        <ele>294.4</ele>
        <time>2020-08-22 09:11:11</time>
      </trkpt>
      <trkpt lat="41.19228" lon="1.09057">
        <ele>294.6</ele>
        <time>2020-08-22 09:11:12</time>
      </trkpt>
      <trkpt lat="41.1923" lon="1.09056">
        <ele>295</ele>
        <time>2020-08-22 09:11:13</time>
      </trkpt>
      <trkpt lat="41.19231" lon="1.09056">
        <ele>295</ele>
        <time>2020-08-22 09:11:14</time>
      </trkpt>
      <trkpt lat="41.19233" lon="1.09056">
        <ele>295.6</ele>
        <time>2020-08-22 09:11:15</time>
      </trkpt>
      <trkpt lat="41.19235" lon="1.09056">
        <ele>296</ele>
        <time>2020-08-22 09:11:16</time>
      </trkpt>
      <trkpt lat="41.19236" lon="1.09057">
        <ele>296.2</ele>
        <time>2020-08-22 09:11:17</time>
      </trkpt>
      <trkpt lat="41.19238" lon="1.09057">
        <ele>296.8</ele>
        <time>2020-08-22 09:11:18</time>
      </trkpt>
      <trkpt lat="41.19239" lon="1.09058">
        <ele>297.2</ele>
        <time>2020-08-22 09:11:19</time>
      </trkpt>
      <trkpt lat="41.19241" lon="1.09059">
        <ele>297.6</ele>
        <time>2020-08-22 09:11:20</time>
      </trkpt>
      <trkpt lat="41.19242" lon="1.09061">
        <ele>297.8</ele>
        <time>2020-08-22 09:11:21</time>
      </trkpt>
      <trkpt lat="41.19242" lon="1.09062">
        <ele>298.2</ele>
        <time>2020-08-22 09:11:22</time>
      </trkpt>
      <trkpt lat="41.19243" lon="1.09064">
        <ele>298.6</ele>
        <time>2020-08-22 09:11:23</time>
      </trkpt>
      <trkpt lat="41.19243" lon="1.09066">
        <ele>298.6</ele>
        <time>2020-08-22 09:11:24</time>
      </trkpt>
      <trkpt lat="41.19244" lon="1.09069">
        <ele>299</ele>
        <time>2020-08-22 09:11:25</time>
      </trkpt>
      <trkpt lat="41.19244" lon="1.09072">
        <ele>299.2</ele>
        <time>2020-08-22 09:11:26</time>
      </trkpt>
      <trkpt lat="41.19244" lon="1.09074">
        <ele>299.6</ele>
        <time>2020-08-22 09:11:27</time>
      </trkpt>
      <trkpt lat="41.19244" lon="1.09076">
        <ele>299.6</ele>
        <time>2020-08-22 09:11:28</time>
      </trkpt>
      <trkpt lat="41.19244" lon="1.09079">
        <ele>300</ele>
        <time>2020-08-22 09:11:29</time>
      </trkpt>
      <trkpt lat="41.19243" lon="1.09081">
        <ele>300.2</ele>
        <time>2020-08-22 09:11:30</time>
      </trkpt>
      <trkpt lat="41.19243" lon="1.09083">
        <ele>300.4</ele>
        <time>2020-08-22 09:11:31</time>
      </trkpt>
      <trkpt lat="41.19242" lon="1.09085">
        <ele>300.4</ele>
        <time>2020-08-22 09:11:32</time>
      </trkpt>
      <trkpt lat="41.19242" lon="1.09087">
        <ele>300.4</ele>
        <time>2020-08-22 09:11:33</time>
      </trkpt>
      <trkpt lat="41.19241" lon="1.09089">
        <ele>301</ele>
        <time>2020-08-22 09:11:34</time>
      </trkpt>
      <trkpt lat="41.1924" lon="1.09091">
        <ele>301.2</ele>
        <time>2020-08-22 09:11:35</time>
      </trkpt>
      <trkpt lat="41.19239" lon="1.09092">
        <ele>301.6</ele>
        <time>2020-08-22 09:11:36</time>
      </trkpt>
      <trkpt lat="41.19238" lon="1.09093">
        <ele>301.6</ele>
        <time>2020-08-22 09:11:37</time>
      </trkpt>
      <trkpt lat="41.19237" lon="1.09095">
        <ele>302</ele>
        <time>2020-08-22 09:11:38</time>
      </trkpt>
      <trkpt lat="41.19235" lon="1.09096">
        <ele>302</ele>
        <time>2020-08-22 09:11:39</time>
      </trkpt>
      <trkpt lat="41.19234" lon="1.09097">
        <ele>302.8</ele>
        <time>2020-08-22 09:11:40</time>
      </trkpt>
      <trkpt lat="41.19232" lon="1.09098">
        <ele>303.2</ele>
        <time>2020-08-22 09:11:41</time>
      </trkpt>
      <trkpt lat="41.19231" lon="1.09098">
        <ele>303.4</ele>
        <time>2020-08-22 09:11:42</time>
      </trkpt>
      <trkpt lat="41.1923" lon="1.091">
        <ele>303.6</ele>
        <time>2020-08-22 09:11:43</time>
      </trkpt>
      <trkpt lat="41.1923" lon="1.09102">
        <ele>303.6</ele>
        <time>2020-08-22 09:11:44</time>
      </trkpt>
      <trkpt lat="41.19229" lon="1.09105">
        <ele>304</ele>
        <time>2020-08-22 09:11:45</time>
      </trkpt>
      <trkpt lat="41.19229" lon="1.09107">
        <ele>304.2</ele>
        <time>2020-08-22 09:11:46</time>
      </trkpt>
      <trkpt lat="41.1923" lon="1.09108">
        <ele>304.4</ele>
        <time>2020-08-22 09:11:47</time>
      </trkpt>
      <trkpt lat="41.19231" lon="1.0911">
        <ele>304.6</ele>
        <time>2020-08-22 09:11:48</time>
      </trkpt>
      <trkpt lat="41.19233" lon="1.09112">
        <ele>305</ele>
        <time>2020-08-22 09:11:49</time>
      </trkpt>
      <trkpt lat="41.19234" lon="1.09114">
        <ele>305.4</ele>
        <time>2020-08-22 09:11:50</time>
      </trkpt>
      <trkpt lat="41.19236" lon="1.09116">
        <ele>305.4</ele>
        <time>2020-08-22 09:11:51</time>
      </trkpt>
      <trkpt lat="41.19236" lon="1.09117">
        <ele>306</ele>
        <time>2020-08-22 09:11:52</time>
      </trkpt>
      <trkpt lat="41.19238" lon="1.09117">
        <ele>306</ele>
        <time>2020-08-22 09:11:53</time>
      </trkpt>
      <trkpt lat="41.1924" lon="1.09118">
        <ele>306.4</ele>
        <time>2020-08-22 09:11:54</time>
      </trkpt>
      <trkpt lat="41.19242" lon="1.09119">
        <ele>306.6</ele>
        <time>2020-08-22 09:11:55</time>
      </trkpt>
      <trkpt lat="41.19243" lon="1.0912">
        <ele>307</ele>
        <time>2020-08-22 09:11:56</time>
      </trkpt>
      <trkpt lat="41.19244" lon="1.0912">
        <ele>307.2</ele>
        <time>2020-08-22 09:11:57</time>
      </trkpt>
      <trkpt lat="41.19246" lon="1.09121">
        <ele>307.4</ele>
        <time>2020-08-22 09:11:58</time>
      </trkpt>
      <trkpt lat="41.19247" lon="1.09122">
        <ele>307.6</ele>
        <time>2020-08-22 09:11:59</time>
      </trkpt>
      <trkpt lat="41.19249" lon="1.09123">
        <ele>307.8</ele>
        <time>2020-08-22 09:12:00</time>
      </trkpt>
      <trkpt lat="41.19251" lon="1.09123">
        <ele>308.4</ele>
        <time>2020-08-22 09:12:01</time>
      </trkpt>
      <trkpt lat="41.19253" lon="1.09124">
        <ele>308.6</ele>
        <time>2020-08-22 09:12:02</time>
      </trkpt>
      <trkpt lat="41.19254" lon="1.09124">
        <ele>309</ele>
        <time>2020-08-22 09:12:03</time>
      </trkpt>
      <trkpt lat="41.19256" lon="1.09124">
        <ele>309.2</ele>
        <time>2020-08-22 09:12:04</time>
      </trkpt>
      <trkpt lat="41.19259" lon="1.09125">
        <ele>309.8</ele>
        <time>2020-08-22 09:12:05</time>
      </trkpt>
      <trkpt lat="41.1926" lon="1.09125">
        <ele>310.2</ele>
        <time>2020-08-22 09:12:06</time>
      </trkpt>
      <trkpt lat="41.19262" lon="1.09126">
        <ele>310.4</ele>
        <time>2020-08-22 09:12:07</time>
      </trkpt>
      <trkpt lat="41.19263" lon="1.09127">
        <ele>310.8</ele>
        <time>2020-08-22 09:12:08</time>
      </trkpt>
      <trkpt lat="41.19266" lon="1.09127">
        <ele>310.8</ele>
        <time>2020-08-22 09:12:09</time>
      </trkpt>
      <trkpt lat="41.19268" lon="1.09127">
        <ele>311.4</ele>
        <time>2020-08-22 09:12:10</time>
      </trkpt>
      <trkpt lat="41.1927" lon="1.09127">
        <ele>311.4</ele>
        <time>2020-08-22 09:12:11</time>
      </trkpt>
      <trkpt lat="41.19271" lon="1.09127">
        <ele>311.8</ele>
        <time>2020-08-22 09:12:12</time>
      </trkpt>
      <trkpt lat="41.19273" lon="1.09126">
        <ele>312</ele>
        <time>2020-08-22 09:12:13</time>
      </trkpt>
      <trkpt lat="41.19275" lon="1.09124">
        <ele>312.2</ele>
        <time>2020-08-22 09:12:14</time>
      </trkpt>
      <trkpt lat="41.19277" lon="1.09123">
        <ele>312.6</ele>
        <time>2020-08-22 09:12:15</time>
      </trkpt>
      <trkpt lat="41.19279" lon="1.09121">
        <ele>312.8</ele>
        <time>2020-08-22 09:12:16</time>
      </trkpt>
      <trkpt lat="41.1928" lon="1.0912">
        <ele>313</ele>
        <time>2020-08-22 09:12:17</time>
      </trkpt>
      <trkpt lat="41.19282" lon="1.09118">
        <ele>313</ele>
        <time>2020-08-22 09:12:18</time>
      </trkpt>
      <trkpt lat="41.19284" lon="1.09115">
        <ele>313.2</ele>
        <time>2020-08-22 09:12:19</time>
      </trkpt>
      <trkpt lat="41.19285" lon="1.09114">
        <ele>313.2</ele>
        <time>2020-08-22 09:12:20</time>
      </trkpt>
      <trkpt lat="41.19286" lon="1.09112">
        <ele>313.4</ele>
        <time>2020-08-22 09:12:21</time>
      </trkpt>
      <trkpt lat="41.19288" lon="1.0911">
        <ele>313.4</ele>
        <time>2020-08-22 09:12:22</time>
      </trkpt>
      <trkpt lat="41.19289" lon="1.09108">
        <ele>313.6</ele>
        <time>2020-08-22 09:12:23</time>
      </trkpt>
      <trkpt lat="41.1929" lon="1.09105">
        <ele>313.6</ele>
        <time>2020-08-22 09:12:24</time>
      </trkpt>
      <trkpt lat="41.19291" lon="1.09103">
        <ele>313.6</ele>
        <time>2020-08-22 09:12:25</time>
      </trkpt>
      <trkpt lat="41.19292" lon="1.091">
        <ele>313.8</ele>
        <time>2020-08-22 09:12:26</time>
      </trkpt>
      <trkpt lat="41.19293" lon="1.09099">
        <ele>313.8</ele>
        <time>2020-08-22 09:12:27</time>
      </trkpt>
      <trkpt lat="41.19295" lon="1.09097">
        <ele>313.8</ele>
        <time>2020-08-22 09:12:28</time>
      </trkpt>
      <trkpt lat="41.19296" lon="1.09096">
        <ele>314</ele>
        <time>2020-08-22 09:12:29</time>
      </trkpt>
      <trkpt lat="41.19297" lon="1.09095">
        <ele>314.4</ele>
        <time>2020-08-22 09:12:30</time>
      </trkpt>
      <trkpt lat="41.19299" lon="1.09092">
        <ele>314.8</ele>
        <time>2020-08-22 09:12:31</time>
      </trkpt>
      <trkpt lat="41.19299" lon="1.09091">
        <ele>315</ele>
        <time>2020-08-22 09:12:32</time>
      </trkpt>
      <trkpt lat="41.193" lon="1.09088">
        <ele>315.6</ele>
        <time>2020-08-22 09:12:33</time>
      </trkpt>
      <trkpt lat="41.19301" lon="1.09086">
        <ele>315.8</ele>
        <time>2020-08-22 09:12:34</time>
      </trkpt>
      <trkpt lat="41.19302" lon="1.09084">
        <ele>316</ele>
        <time>2020-08-22 09:12:35</time>
      </trkpt>
      <trkpt lat="41.19304" lon="1.09081">
        <ele>316</ele>
        <time>2020-08-22 09:12:36</time>
      </trkpt>
      <trkpt lat="41.19305" lon="1.09079">
        <ele>316.2</ele>
        <time>2020-08-22 09:12:37</time>
      </trkpt>
      <trkpt lat="41.19306" lon="1.09076">
        <ele>316.2</ele>
        <time>2020-08-22 09:12:38</time>
      </trkpt>
      <trkpt lat="41.19308" lon="1.09072">
        <ele>316.4</ele>
        <time>2020-08-22 09:12:39</time>
      </trkpt>
      <trkpt lat="41.19311" lon="1.09068">
        <ele>316.4</ele>
        <time>2020-08-22 09:12:40</time>
      </trkpt>
      <trkpt lat="41.19314" lon="1.09063">
        <ele>316.4</ele>
        <time>2020-08-22 09:12:41</time>
      </trkpt>
      <trkpt lat="41.19316" lon="1.0906">
        <ele>316.4</ele>
        <time>2020-08-22 09:12:42</time>
      </trkpt>
      <trkpt lat="41.19319" lon="1.09057">
        <ele>316.4</ele>
        <time>2020-08-22 09:12:43</time>
      </trkpt>
      <trkpt lat="41.19322" lon="1.09052">
        <ele>316.4</ele>
        <time>2020-08-22 09:12:44</time>
      </trkpt>
      <trkpt lat="41.19324" lon="1.09049">
        <ele>316.4</ele>
        <time>2020-08-22 09:12:45</time>
      </trkpt>
      <trkpt lat="41.19326" lon="1.09045">
        <ele>316.4</ele>
        <time>2020-08-22 09:12:46</time>
      </trkpt>
      <trkpt lat="41.19328" lon="1.09042">
        <ele>316.4</ele>
        <time>2020-08-22 09:12:47</time>
      </trkpt>
      <trkpt lat="41.19331" lon="1.09039">
        <ele>316.4</ele>
        <time>2020-08-22 09:12:48</time>
      </trkpt>
      <trkpt lat="41.19334" lon="1.09035">
        <ele>316.4</ele>
        <time>2020-08-22 09:12:49</time>
      </trkpt>
      <trkpt lat="41.19336" lon="1.09033">
        <ele>316.4</ele>
        <time>2020-08-22 09:12:50</time>
      </trkpt>
      <trkpt lat="41.19339" lon="1.09029">
        <ele>316.6</ele>
        <time>2020-08-22 09:12:51</time>
      </trkpt>
      <trkpt lat="41.19341" lon="1.09027">
        <ele>316.6</ele>
        <time>2020-08-22 09:12:52</time>
      </trkpt>
      <trkpt lat="41.19343" lon="1.09024">
        <ele>316.6</ele>
        <time>2020-08-22 09:12:53</time>
      </trkpt>
      <trkpt lat="41.19346" lon="1.09022">
        <ele>316.6</ele>
        <time>2020-08-22 09:12:54</time>
      </trkpt>
      <trkpt lat="41.19349" lon="1.09018">
        <ele>317.2</ele>
        <time>2020-08-22 09:12:55</time>
      </trkpt>
      <trkpt lat="41.19352" lon="1.09016">
        <ele>317.2</ele>
        <time>2020-08-22 09:12:56</time>
      </trkpt>
      <trkpt lat="41.19353" lon="1.09014">
        <ele>317.4</ele>
        <time>2020-08-22 09:12:57</time>
      </trkpt>
      <trkpt lat="41.19355" lon="1.09012">
        <ele>317.6</ele>
        <time>2020-08-22 09:12:58</time>
      </trkpt>
      <trkpt lat="41.19358" lon="1.0901">
        <ele>317.8</ele>
        <time>2020-08-22 09:12:59</time>
      </trkpt>
      <trkpt lat="41.1936" lon="1.09008">
        <ele>318</ele>
        <time>2020-08-22 09:13:00</time>
      </trkpt>
      <trkpt lat="41.19362" lon="1.09007">
        <ele>318.2</ele>
        <time>2020-08-22 09:13:01</time>
      </trkpt>
      <trkpt lat="41.19364" lon="1.09005">
        <ele>318.8</ele>
        <time>2020-08-22 09:13:02</time>
      </trkpt>
      <trkpt lat="41.19366" lon="1.09004">
        <ele>319</ele>
        <time>2020-08-22 09:13:03</time>
      </trkpt>
      <trkpt lat="41.19368" lon="1.09003">
        <ele>319.4</ele>
        <time>2020-08-22 09:13:04</time>
      </trkpt>
      <trkpt lat="41.1937" lon="1.09002">
        <ele>319.8</ele>
        <time>2020-08-22 09:13:05</time>
      </trkpt>
      <trkpt lat="41.19372" lon="1.09001">
        <ele>320.2</ele>
        <time>2020-08-22 09:13:06</time>
      </trkpt>
      <trkpt lat="41.19373" lon="1.09">
        <ele>320.8</ele>
        <time>2020-08-22 09:13:07</time>
      </trkpt>
      <trkpt lat="41.19375" lon="1.08999">
        <ele>321.2</ele>
        <time>2020-08-22 09:13:08</time>
      </trkpt>
      <trkpt lat="41.19377" lon="1.08997">
        <ele>321.6</ele>
        <time>2020-08-22 09:13:09</time>
      </trkpt>
      <trkpt lat="41.19379" lon="1.08995">
        <ele>321.6</ele>
        <time>2020-08-22 09:13:10</time>
      </trkpt>
      <trkpt lat="41.19381" lon="1.08993">
        <ele>322</ele>
        <time>2020-08-22 09:13:11</time>
      </trkpt>
      <trkpt lat="41.19382" lon="1.0899">
        <ele>322.4</ele>
        <time>2020-08-22 09:13:12</time>
      </trkpt>
      <trkpt lat="41.19383" lon="1.08989">
        <ele>323</ele>
        <time>2020-08-22 09:13:13</time>
      </trkpt>
      <trkpt lat="41.19384" lon="1.0899">
        <ele>323.4</ele>
        <time>2020-08-22 09:13:14</time>
      </trkpt>
      <trkpt lat="41.19386" lon="1.0899">
        <ele>323.6</ele>
        <time>2020-08-22 09:13:15</time>
      </trkpt>
      <trkpt lat="41.19387" lon="1.0899">
        <ele>323.8</ele>
        <time>2020-08-22 09:13:16</time>
      </trkpt>
      <trkpt lat="41.19389" lon="1.08989">
        <ele>324</ele>
        <time>2020-08-22 09:13:17</time>
      </trkpt>
      <trkpt lat="41.19391" lon="1.08989">
        <ele>324.4</ele>
        <time>2020-08-22 09:13:18</time>
      </trkpt>
      <trkpt lat="41.19393" lon="1.08988">
        <ele>324.8</ele>
        <time>2020-08-22 09:13:19</time>
      </trkpt>
      <trkpt lat="41.19394" lon="1.08987">
        <ele>325.2</ele>
        <time>2020-08-22 09:13:20</time>
      </trkpt>
      <trkpt lat="41.19396" lon="1.08986">
        <ele>325.4</ele>
        <time>2020-08-22 09:13:21</time>
      </trkpt>
      <trkpt lat="41.19397" lon="1.08985">
        <ele>326</ele>
        <time>2020-08-22 09:13:22</time>
      </trkpt>
      <trkpt lat="41.19398" lon="1.08984">
        <ele>326.4</ele>
        <time>2020-08-22 09:13:23</time>
      </trkpt>
      <trkpt lat="41.19399" lon="1.08983">
        <ele>326.6</ele>
        <time>2020-08-22 09:13:24</time>
      </trkpt>
      <trkpt lat="41.19401" lon="1.08982">
        <ele>327.2</ele>
        <time>2020-08-22 09:13:25</time>
      </trkpt>
      <trkpt lat="41.19402" lon="1.08982">
        <ele>327.2</ele>
        <time>2020-08-22 09:13:26</time>
      </trkpt>
      <trkpt lat="41.19403" lon="1.08983">
        <ele>327.6</ele>
        <time>2020-08-22 09:13:27</time>
      </trkpt>
      <trkpt lat="41.19404" lon="1.08983">
        <ele>327.8</ele>
        <time>2020-08-22 09:13:28</time>
      </trkpt>
      <trkpt lat="41.19405" lon="1.08982">
        <ele>328.4</ele>
        <time>2020-08-22 09:13:29</time>
      </trkpt>
      <trkpt lat="41.19406" lon="1.08982">
        <ele>328.6</ele>
        <time>2020-08-22 09:13:30</time>
      </trkpt>
      <trkpt lat="41.19408" lon="1.08982">
        <ele>329.2</ele>
        <time>2020-08-22 09:13:31</time>
      </trkpt>
      <trkpt lat="41.19409" lon="1.08982">
        <ele>329.6</ele>
        <time>2020-08-22 09:13:32</time>
      </trkpt>
      <trkpt lat="41.19411" lon="1.08982">
        <ele>330</ele>
        <time>2020-08-22 09:13:33</time>
      </trkpt>
      <trkpt lat="41.19413" lon="1.08982">
        <ele>330.4</ele>
        <time>2020-08-22 09:13:34</time>
      </trkpt>
      <trkpt lat="41.19415" lon="1.08983">
        <ele>330.6</ele>
        <time>2020-08-22 09:13:35</time>
      </trkpt>
      <trkpt lat="41.19416" lon="1.08983">
        <ele>330.8</ele>
        <time>2020-08-22 09:13:36</time>
      </trkpt>
      <trkpt lat="41.19417" lon="1.08984">
        <ele>331</ele>
        <time>2020-08-22 09:13:37</time>
      </trkpt>
      <trkpt lat="41.19419" lon="1.08984">
        <ele>331.4</ele>
        <time>2020-08-22 09:13:38</time>
      </trkpt>
      <trkpt lat="41.19421" lon="1.08985">
        <ele>331.8</ele>
        <time>2020-08-22 09:13:39</time>
      </trkpt>
      <trkpt lat="41.19423" lon="1.08985">
        <ele>332.2</ele>
        <time>2020-08-22 09:13:40</time>
      </trkpt>
      <trkpt lat="41.19425" lon="1.08985">
        <ele>332.6</ele>
        <time>2020-08-22 09:13:41</time>
      </trkpt>
      <trkpt lat="41.19427" lon="1.08985">
        <ele>332.8</ele>
        <time>2020-08-22 09:13:42</time>
      </trkpt>
      <trkpt lat="41.19429" lon="1.08985">
        <ele>333.4</ele>
        <time>2020-08-22 09:13:43</time>
      </trkpt>
      <trkpt lat="41.19431" lon="1.08985">
        <ele>333.6</ele>
        <time>2020-08-22 09:13:44</time>
      </trkpt>
      <trkpt lat="41.19433" lon="1.08985">
        <ele>334</ele>
        <time>2020-08-22 09:13:45</time>
      </trkpt>
      <trkpt lat="41.19435" lon="1.08985">
        <ele>334.2</ele>
        <time>2020-08-22 09:13:46</time>
      </trkpt>
      <trkpt lat="41.19438" lon="1.08984">
        <ele>334.6</ele>
        <time>2020-08-22 09:13:47</time>
      </trkpt>
      <trkpt lat="41.19441" lon="1.08984">
        <ele>335</ele>
        <time>2020-08-22 09:13:48</time>
      </trkpt>
      <trkpt lat="41.19442" lon="1.08985">
        <ele>335.2</ele>
        <time>2020-08-22 09:13:49</time>
      </trkpt>
      <trkpt lat="41.19444" lon="1.08985">
        <ele>335.6</ele>
        <time>2020-08-22 09:13:50</time>
      </trkpt>
      <trkpt lat="41.19446" lon="1.08984">
        <ele>335.6</ele>
        <time>2020-08-22 09:13:51</time>
      </trkpt>
      <trkpt lat="41.19448" lon="1.08984">
        <ele>336</ele>
        <time>2020-08-22 09:13:52</time>
      </trkpt>
      <trkpt lat="41.19451" lon="1.08983">
        <ele>336.4</ele>
        <time>2020-08-22 09:13:53</time>
      </trkpt>
      <trkpt lat="41.19453" lon="1.08983">
        <ele>336.8</ele>
        <time>2020-08-22 09:13:54</time>
      </trkpt>
      <trkpt lat="41.19455" lon="1.08983">
        <ele>337</ele>
        <time>2020-08-22 09:13:55</time>
      </trkpt>
      <trkpt lat="41.19457" lon="1.08983">
        <ele>337.6</ele>
        <time>2020-08-22 09:13:56</time>
      </trkpt>
      <trkpt lat="41.19459" lon="1.08984">
        <ele>338</ele>
        <time>2020-08-22 09:13:57</time>
      </trkpt>
      <trkpt lat="41.19461" lon="1.08985">
        <ele>338.2</ele>
        <time>2020-08-22 09:13:58</time>
      </trkpt>
      <trkpt lat="41.19462" lon="1.08986">
        <ele>338.6</ele>
        <time>2020-08-22 09:13:59</time>
      </trkpt>
      <trkpt lat="41.19465" lon="1.08988">
        <ele>338.8</ele>
        <time>2020-08-22 09:14:00</time>
      </trkpt>
      <trkpt lat="41.19467" lon="1.08989">
        <ele>339.4</ele>
        <time>2020-08-22 09:14:01</time>
      </trkpt>
      <trkpt lat="41.19468" lon="1.08989">
        <ele>339.6</ele>
        <time>2020-08-22 09:14:02</time>
      </trkpt>
      <trkpt lat="41.19471" lon="1.08988">
        <ele>340</ele>
        <time>2020-08-22 09:14:03</time>
      </trkpt>
      <trkpt lat="41.19472" lon="1.08988">
        <ele>340</ele>
        <time>2020-08-22 09:14:04</time>
      </trkpt>
      <trkpt lat="41.19474" lon="1.08988">
        <ele>340.6</ele>
        <time>2020-08-22 09:14:05</time>
      </trkpt>
      <trkpt lat="41.19476" lon="1.08988">
        <ele>341</ele>
        <time>2020-08-22 09:14:06</time>
      </trkpt>
      <trkpt lat="41.19477" lon="1.08989">
        <ele>341</ele>
        <time>2020-08-22 09:14:07</time>
      </trkpt>
      <trkpt lat="41.19479" lon="1.0899">
        <ele>341.6</ele>
        <time>2020-08-22 09:14:08</time>
      </trkpt>
      <trkpt lat="41.19482" lon="1.08992">
        <ele>341.8</ele>
        <time>2020-08-22 09:14:09</time>
      </trkpt>
      <trkpt lat="41.19484" lon="1.08994">
        <ele>342.2</ele>
        <time>2020-08-22 09:14:10</time>
      </trkpt>
      <trkpt lat="41.19486" lon="1.08995">
        <ele>342.2</ele>
        <time>2020-08-22 09:14:11</time>
      </trkpt>
      <trkpt lat="41.19488" lon="1.08995">
        <ele>342.4</ele>
        <time>2020-08-22 09:14:12</time>
      </trkpt>
      <trkpt lat="41.19489" lon="1.08994">
        <ele>342.8</ele>
        <time>2020-08-22 09:14:13</time>
      </trkpt>
      <trkpt lat="41.19492" lon="1.08994">
        <ele>343</ele>
        <time>2020-08-22 09:14:14</time>
      </trkpt>
      <trkpt lat="41.19493" lon="1.08996">
        <ele>343.4</ele>
        <time>2020-08-22 09:14:15</time>
      </trkpt>
      <trkpt lat="41.19496" lon="1.08997">
        <ele>343.6</ele>
        <time>2020-08-22 09:14:16</time>
      </trkpt>
      <trkpt lat="41.19497" lon="1.08998">
        <ele>343.8</ele>
        <time>2020-08-22 09:14:17</time>
      </trkpt>
      <trkpt lat="41.19499" lon="1.09">
        <ele>344</ele>
        <time>2020-08-22 09:14:18</time>
      </trkpt>
      <trkpt lat="41.19501" lon="1.09">
        <ele>344.2</ele>
        <time>2020-08-22 09:14:19</time>
      </trkpt>
      <trkpt lat="41.19502" lon="1.09001">
        <ele>344.4</ele>
        <time>2020-08-22 09:14:20</time>
      </trkpt>
      <trkpt lat="41.19504" lon="1.09001">
        <ele>344.6</ele>
        <time>2020-08-22 09:14:21</time>
      </trkpt>
      <trkpt lat="41.19505" lon="1.09002">
        <ele>344.8</ele>
        <time>2020-08-22 09:14:22</time>
      </trkpt>
      <trkpt lat="41.19507" lon="1.09003">
        <ele>344.8</ele>
        <time>2020-08-22 09:14:23</time>
      </trkpt>
      <trkpt lat="41.19509" lon="1.09004">
        <ele>345.2</ele>
        <time>2020-08-22 09:14:24</time>
      </trkpt>
      <trkpt lat="41.1951" lon="1.09005">
        <ele>345.4</ele>
        <time>2020-08-22 09:14:25</time>
      </trkpt>
      <trkpt lat="41.19513" lon="1.09007">
        <ele>345.6</ele>
        <time>2020-08-22 09:14:26</time>
      </trkpt>
      <trkpt lat="41.19515" lon="1.09008">
        <ele>345.8</ele>
        <time>2020-08-22 09:14:27</time>
      </trkpt>
      <trkpt lat="41.19517" lon="1.09009">
        <ele>345.8</ele>
        <time>2020-08-22 09:14:28</time>
      </trkpt>
      <trkpt lat="41.19519" lon="1.0901">
        <ele>346</ele>
        <time>2020-08-22 09:14:29</time>
      </trkpt>
      <trkpt lat="41.19521" lon="1.09011">
        <ele>346</ele>
        <time>2020-08-22 09:14:30</time>
      </trkpt>
      <trkpt lat="41.19523" lon="1.09013">
        <ele>346</ele>
        <time>2020-08-22 09:14:31</time>
      </trkpt>
      <trkpt lat="41.19524" lon="1.09014">
        <ele>346.2</ele>
        <time>2020-08-22 09:14:32</time>
      </trkpt>
      <trkpt lat="41.19527" lon="1.09015">
        <ele>346.6</ele>
        <time>2020-08-22 09:14:33</time>
      </trkpt>
      <trkpt lat="41.19529" lon="1.09015">
        <ele>346.6</ele>
        <time>2020-08-22 09:14:34</time>
      </trkpt>
      <trkpt lat="41.19531" lon="1.09016">
        <ele>346.8</ele>
        <time>2020-08-22 09:14:35</time>
      </trkpt>
      <trkpt lat="41.19532" lon="1.09016">
        <ele>346.8</ele>
        <time>2020-08-22 09:14:36</time>
      </trkpt>
      <trkpt lat="41.19534" lon="1.09018">
        <ele>347</ele>
        <time>2020-08-22 09:14:37</time>
      </trkpt>
      <trkpt lat="41.19536" lon="1.09019">
        <ele>347.2</ele>
        <time>2020-08-22 09:14:38</time>
      </trkpt>
      <trkpt lat="41.19539" lon="1.0902">
        <ele>347.4</ele>
        <time>2020-08-22 09:14:39</time>
      </trkpt>
      <trkpt lat="41.19541" lon="1.09021">
        <ele>347.8</ele>
        <time>2020-08-22 09:14:40</time>
      </trkpt>
      <trkpt lat="41.19542" lon="1.09022">
        <ele>348</ele>
        <time>2020-08-22 09:14:41</time>
      </trkpt>
      <trkpt lat="41.19544" lon="1.09023">
        <ele>348.2</ele>
        <time>2020-08-22 09:14:42</time>
      </trkpt>
      <trkpt lat="41.19545" lon="1.09024">
        <ele>348.4</ele>
        <time>2020-08-22 09:14:43</time>
      </trkpt>
      <trkpt lat="41.19548" lon="1.09024">
        <ele>348.6</ele>
        <time>2020-08-22 09:14:44</time>
      </trkpt>
      <trkpt lat="41.19549" lon="1.09025">
        <ele>349</ele>
        <time>2020-08-22 09:14:45</time>
      </trkpt>
      <trkpt lat="41.19551" lon="1.09026">
        <ele>349.4</ele>
        <time>2020-08-22 09:14:46</time>
      </trkpt>
      <trkpt lat="41.19553" lon="1.09026">
        <ele>349.8</ele>
        <time>2020-08-22 09:14:47</time>
      </trkpt>
      <trkpt lat="41.19555" lon="1.09027">
        <ele>350</ele>
        <time>2020-08-22 09:14:48</time>
      </trkpt>
      <trkpt lat="41.19557" lon="1.09027">
        <ele>350.4</ele>
        <time>2020-08-22 09:14:49</time>
      </trkpt>
      <trkpt lat="41.19559" lon="1.09028">
        <ele>350.6</ele>
        <time>2020-08-22 09:14:50</time>
      </trkpt>
      <trkpt lat="41.1956" lon="1.09029">
        <ele>351</ele>
        <time>2020-08-22 09:14:51</time>
      </trkpt>
      <trkpt lat="41.19562" lon="1.0903">
        <ele>351.2</ele>
        <time>2020-08-22 09:14:52</time>
      </trkpt>
      <trkpt lat="41.19564" lon="1.09031">
        <ele>351.8</ele>
        <time>2020-08-22 09:14:53</time>
      </trkpt>
      <trkpt lat="41.19565" lon="1.09032">
        <ele>352</ele>
        <time>2020-08-22 09:14:54</time>
      </trkpt>
      <trkpt lat="41.19567" lon="1.09032">
        <ele>352.4</ele>
        <time>2020-08-22 09:14:55</time>
      </trkpt>
      <trkpt lat="41.19568" lon="1.09033">
        <ele>352.8</ele>
        <time>2020-08-22 09:14:56</time>
      </trkpt>
      <trkpt lat="41.1957" lon="1.09034">
        <ele>353.4</ele>
        <time>2020-08-22 09:14:57</time>
      </trkpt>
      <trkpt lat="41.19572" lon="1.09034">
        <ele>353.8</ele>
        <time>2020-08-22 09:14:58</time>
      </trkpt>
      <trkpt lat="41.19573" lon="1.09035">
        <ele>354</ele>
        <time>2020-08-22 09:14:59</time>
      </trkpt>
      <trkpt lat="41.19576" lon="1.09035">
        <ele>354.4</ele>
        <time>2020-08-22 09:15:00</time>
      </trkpt>
      <trkpt lat="41.19578" lon="1.09035">
        <ele>354.6</ele>
        <time>2020-08-22 09:15:01</time>
      </trkpt>
      <trkpt lat="41.1958" lon="1.09034">
        <ele>355</ele>
        <time>2020-08-22 09:15:02</time>
      </trkpt>
      <trkpt lat="41.19581" lon="1.09033">
        <ele>355.2</ele>
        <time>2020-08-22 09:15:03</time>
      </trkpt>
      <trkpt lat="41.19583" lon="1.09031">
        <ele>355.4</ele>
        <time>2020-08-22 09:15:04</time>
      </trkpt>
      <trkpt lat="41.19585" lon="1.09029">
        <ele>355.6</ele>
        <time>2020-08-22 09:15:05</time>
      </trkpt>
      <trkpt lat="41.19586" lon="1.09028">
        <ele>355.8</ele>
        <time>2020-08-22 09:15:06</time>
      </trkpt>
      <trkpt lat="41.19588" lon="1.09027">
        <ele>356</ele>
        <time>2020-08-22 09:15:07</time>
      </trkpt>
      <trkpt lat="41.19589" lon="1.09025">
        <ele>356</ele>
        <time>2020-08-22 09:15:08</time>
      </trkpt>
      <trkpt lat="41.19591" lon="1.09024">
        <ele>356.2</ele>
        <time>2020-08-22 09:15:09</time>
      </trkpt>
      <trkpt lat="41.19593" lon="1.09023">
        <ele>356.4</ele>
        <time>2020-08-22 09:15:10</time>
      </trkpt>
      <trkpt lat="41.19594" lon="1.09022">
        <ele>356.4</ele>
        <time>2020-08-22 09:15:11</time>
      </trkpt>
      <trkpt lat="41.19596" lon="1.0902">
        <ele>356.6</ele>
        <time>2020-08-22 09:15:12</time>
      </trkpt>
      <trkpt lat="41.19597" lon="1.09019">
        <ele>357</ele>
        <time>2020-08-22 09:15:13</time>
      </trkpt>
      <trkpt lat="41.19599" lon="1.09017">
        <ele>357.2</ele>
        <time>2020-08-22 09:15:14</time>
      </trkpt>
      <trkpt lat="41.196" lon="1.09016">
        <ele>357.4</ele>
        <time>2020-08-22 09:15:15</time>
      </trkpt>
      <trkpt lat="41.19602" lon="1.09015">
        <ele>357.6</ele>
        <time>2020-08-22 09:15:16</time>
      </trkpt>
      <trkpt lat="41.19604" lon="1.09012">
        <ele>357.8</ele>
        <time>2020-08-22 09:15:17</time>
      </trkpt>
      <trkpt lat="41.19606" lon="1.0901">
        <ele>357.8</ele>
        <time>2020-08-22 09:15:18</time>
      </trkpt>
      <trkpt lat="41.19607" lon="1.09009">
        <ele>358.2</ele>
        <time>2020-08-22 09:15:19</time>
      </trkpt>
      <trkpt lat="41.19607" lon="1.09008">
        <ele>358.8</ele>
        <time>2020-08-22 09:15:20</time>
      </trkpt>
      <trkpt lat="41.19608" lon="1.09006">
        <ele>359.2</ele>
        <time>2020-08-22 09:15:21</time>
      </trkpt>
      <trkpt lat="41.1961" lon="1.09004">
        <ele>359.4</ele>
        <time>2020-08-22 09:15:22</time>
      </trkpt>
      <trkpt lat="41.19611" lon="1.09003">
        <ele>359.8</ele>
        <time>2020-08-22 09:15:23</time>
      </trkpt>
      <trkpt lat="41.19612" lon="1.09002">
        <ele>360</ele>
        <time>2020-08-22 09:15:24</time>
      </trkpt>
      <trkpt lat="41.19613" lon="1.09001">
        <ele>360.4</ele>
        <time>2020-08-22 09:15:25</time>
      </trkpt>
      <trkpt lat="41.19613" lon="1.08999">
        <ele>360.6</ele>
        <time>2020-08-22 09:15:26</time>
      </trkpt>
      <trkpt lat="41.19614" lon="1.08999">
        <ele>361</ele>
        <time>2020-08-22 09:15:27</time>
      </trkpt>
      <trkpt lat="41.19615" lon="1.08997">
        <ele>361.2</ele>
        <time>2020-08-22 09:15:28</time>
      </trkpt>
      <trkpt lat="41.19616" lon="1.08996">
        <ele>361.6</ele>
        <time>2020-08-22 09:15:29</time>
      </trkpt>
      <trkpt lat="41.19617" lon="1.08994">
        <ele>362.2</ele>
        <time>2020-08-22 09:15:30</time>
      </trkpt>
      <trkpt lat="41.19617" lon="1.08994">
        <ele>362.6</ele>
        <time>2020-08-22 09:15:31</time>
      </trkpt>
      <trkpt lat="41.19618" lon="1.08992">
        <ele>363</ele>
        <time>2020-08-22 09:15:32</time>
      </trkpt>
      <trkpt lat="41.19619" lon="1.08991">
        <ele>363.2</ele>
        <time>2020-08-22 09:15:33</time>
      </trkpt>
      <trkpt lat="41.1962" lon="1.0899">
        <ele>363.8</ele>
        <time>2020-08-22 09:15:34</time>
      </trkpt>
      <trkpt lat="41.19621" lon="1.08989">
        <ele>364</ele>
        <time>2020-08-22 09:15:35</time>
      </trkpt>
      <trkpt lat="41.19622" lon="1.08988">
        <ele>364.6</ele>
        <time>2020-08-22 09:15:36</time>
      </trkpt>
      <trkpt lat="41.19623" lon="1.08987">
        <ele>364.8</ele>
        <time>2020-08-22 09:15:37</time>
      </trkpt>
      <trkpt lat="41.19625" lon="1.08986">
        <ele>365.2</ele>
        <time>2020-08-22 09:15:38</time>
      </trkpt>
      <trkpt lat="41.19626" lon="1.08986">
        <ele>365.6</ele>
        <time>2020-08-22 09:15:39</time>
      </trkpt>
      <trkpt lat="41.19627" lon="1.08985">
        <ele>365.8</ele>
        <time>2020-08-22 09:15:40</time>
      </trkpt>
      <trkpt lat="41.19628" lon="1.08985">
        <ele>366.4</ele>
        <time>2020-08-22 09:15:41</time>
      </trkpt>
      <trkpt lat="41.1963" lon="1.08984">
        <ele>366.6</ele>
        <time>2020-08-22 09:15:42</time>
      </trkpt>
      <trkpt lat="41.19631" lon="1.08984">
        <ele>367</ele>
        <time>2020-08-22 09:15:43</time>
      </trkpt>
      <trkpt lat="41.19633" lon="1.08984">
        <ele>367</ele>
        <time>2020-08-22 09:15:44</time>
      </trkpt>
      <trkpt lat="41.19634" lon="1.08983">
        <ele>367.6</ele>
        <time>2020-08-22 09:15:45</time>
      </trkpt>
      <trkpt lat="41.19635" lon="1.08983">
        <ele>367.8</ele>
        <time>2020-08-22 09:15:46</time>
      </trkpt>
      <trkpt lat="41.19636" lon="1.08983">
        <ele>368.4</ele>
        <time>2020-08-22 09:15:47</time>
      </trkpt>
      <trkpt lat="41.19637" lon="1.08982">
        <ele>368.8</ele>
        <time>2020-08-22 09:15:48</time>
      </trkpt>
      <trkpt lat="41.19639" lon="1.08981">
        <ele>369</ele>
        <time>2020-08-22 09:15:49</time>
      </trkpt>
      <trkpt lat="41.19639" lon="1.0898">
        <ele>369.4</ele>
        <time>2020-08-22 09:15:50</time>
      </trkpt>
      <trkpt lat="41.19641" lon="1.08979">
        <ele>369.6</ele>
        <time>2020-08-22 09:15:51</time>
      </trkpt>
      <trkpt lat="41.19642" lon="1.08979">
        <ele>369.8</ele>
        <time>2020-08-22 09:15:52</time>
      </trkpt>
      <trkpt lat="41.19644" lon="1.08978">
        <ele>370.2</ele>
        <time>2020-08-22 09:15:53</time>
      </trkpt>
      <trkpt lat="41.19645" lon="1.08978">
        <ele>370.8</ele>
        <time>2020-08-22 09:15:54</time>
      </trkpt>
      <trkpt lat="41.19647" lon="1.08977">
        <ele>371.2</ele>
        <time>2020-08-22 09:15:55</time>
      </trkpt>
      <trkpt lat="41.19648" lon="1.08976">
        <ele>371.4</ele>
        <time>2020-08-22 09:15:56</time>
      </trkpt>
      <trkpt lat="41.1965" lon="1.08975">
        <ele>371.8</ele>
        <time>2020-08-22 09:15:57</time>
      </trkpt>
      <trkpt lat="41.19651" lon="1.08975">
        <ele>371.8</ele>
        <time>2020-08-22 09:15:58</time>
      </trkpt>
      <trkpt lat="41.19653" lon="1.08974">
        <ele>372.2</ele>
        <time>2020-08-22 09:15:59</time>
      </trkpt>
      <trkpt lat="41.19655" lon="1.08973">
        <ele>372.2</ele>
        <time>2020-08-22 09:16:00</time>
      </trkpt>
      <trkpt lat="41.19657" lon="1.08972">
        <ele>372.6</ele>
        <time>2020-08-22 09:16:01</time>
      </trkpt>
      <trkpt lat="41.19658" lon="1.08971">
        <ele>372.8</ele>
        <time>2020-08-22 09:16:02</time>
      </trkpt>
      <trkpt lat="41.1966" lon="1.0897">
        <ele>373</ele>
        <time>2020-08-22 09:16:03</time>
      </trkpt>
      <trkpt lat="41.19661" lon="1.08969">
        <ele>373.4</ele>
        <time>2020-08-22 09:16:04</time>
      </trkpt>
      <trkpt lat="41.19662" lon="1.08968">
        <ele>373.6</ele>
        <time>2020-08-22 09:16:05</time>
      </trkpt>
      <trkpt lat="41.19664" lon="1.08967">
        <ele>373.8</ele>
        <time>2020-08-22 09:16:06</time>
      </trkpt>
      <trkpt lat="41.19666" lon="1.08966">
        <ele>374</ele>
        <time>2020-08-22 09:16:07</time>
      </trkpt>
      <trkpt lat="41.19668" lon="1.08965">
        <ele>374.2</ele>
        <time>2020-08-22 09:16:08</time>
      </trkpt>
      <trkpt lat="41.19669" lon="1.08964">
        <ele>374.6</ele>
        <time>2020-08-22 09:16:09</time>
      </trkpt>
      <trkpt lat="41.19671" lon="1.08964">
        <ele>375</ele>
        <time>2020-08-22 09:16:10</time>
      </trkpt>
      <trkpt lat="41.19673" lon="1.08963">
        <ele>375.2</ele>
        <time>2020-08-22 09:16:11</time>
      </trkpt>
      <trkpt lat="41.19675" lon="1.08962">
        <ele>375.6</ele>
        <time>2020-08-22 09:16:12</time>
      </trkpt>
      <trkpt lat="41.19676" lon="1.08962">
        <ele>375.6</ele>
        <time>2020-08-22 09:16:13</time>
      </trkpt>
      <trkpt lat="41.19678" lon="1.08962">
        <ele>375.8</ele>
        <time>2020-08-22 09:16:14</time>
      </trkpt>
      <trkpt lat="41.1968" lon="1.08961">
        <ele>376</ele>
        <time>2020-08-22 09:16:15</time>
      </trkpt>
      <trkpt lat="41.19682" lon="1.0896">
        <ele>376</ele>
        <time>2020-08-22 09:16:16</time>
      </trkpt>
      <trkpt lat="41.19683" lon="1.08959">
        <ele>376.2</ele>
        <time>2020-08-22 09:16:17</time>
      </trkpt>
      <trkpt lat="41.19685" lon="1.08959">
        <ele>376.2</ele>
        <time>2020-08-22 09:16:18</time>
      </trkpt>
      <trkpt lat="41.19687" lon="1.08958">
        <ele>376.4</ele>
        <time>2020-08-22 09:16:19</time>
      </trkpt>
      <trkpt lat="41.19688" lon="1.08957">
        <ele>376.6</ele>
        <time>2020-08-22 09:16:20</time>
      </trkpt>
      <trkpt lat="41.1969" lon="1.08957">
        <ele>376.8</ele>
        <time>2020-08-22 09:16:21</time>
      </trkpt>
      <trkpt lat="41.19692" lon="1.08956">
        <ele>376.8</ele>
        <time>2020-08-22 09:16:22</time>
      </trkpt>
      <trkpt lat="41.19694" lon="1.08955">
        <ele>377</ele>
        <time>2020-08-22 09:16:23</time>
      </trkpt>
      <trkpt lat="41.19697" lon="1.08955">
        <ele>377</ele>
        <time>2020-08-22 09:16:24</time>
      </trkpt>
      <trkpt lat="41.19699" lon="1.08954">
        <ele>377</ele>
        <time>2020-08-22 09:16:25</time>
      </trkpt>
      <trkpt lat="41.19701" lon="1.08953">
        <ele>377.4</ele>
        <time>2020-08-22 09:16:26</time>
      </trkpt>
      <trkpt lat="41.19703" lon="1.08953">
        <ele>377.6</ele>
        <time>2020-08-22 09:16:27</time>
      </trkpt>
      <trkpt lat="41.19705" lon="1.08951">
        <ele>377.8</ele>
        <time>2020-08-22 09:16:28</time>
      </trkpt>
      <trkpt lat="41.19707" lon="1.0895">
        <ele>377.8</ele>
        <time>2020-08-22 09:16:29</time>
      </trkpt>
      <trkpt lat="41.19709" lon="1.08949">
        <ele>377.8</ele>
        <time>2020-08-22 09:16:30</time>
      </trkpt>
      <trkpt lat="41.19712" lon="1.08947">
        <ele>377.8</ele>
        <time>2020-08-22 09:16:31</time>
      </trkpt>
      <trkpt lat="41.19713" lon="1.08946">
        <ele>377.8</ele>
        <time>2020-08-22 09:16:32</time>
      </trkpt>
      <trkpt lat="41.19716" lon="1.08944">
        <ele>378</ele>
        <time>2020-08-22 09:16:33</time>
      </trkpt>
      <trkpt lat="41.19718" lon="1.08942">
        <ele>378</ele>
        <time>2020-08-22 09:16:34</time>
      </trkpt>
      <trkpt lat="41.19721" lon="1.08941">
        <ele>378</ele>
        <time>2020-08-22 09:16:35</time>
      </trkpt>
      <trkpt lat="41.19727" lon="1.08938">
        <ele>378</ele>
        <time>2020-08-22 09:16:37</time>
      </trkpt>
      <trkpt lat="41.19735" lon="1.08934">
        <ele>378</ele>
        <time>2020-08-22 09:16:39</time>
      </trkpt>
      <trkpt lat="41.19748" lon="1.08927">
        <ele>377.8</ele>
        <time>2020-08-22 09:16:42</time>
      </trkpt>
      <trkpt lat="41.19758" lon="1.0892">
        <ele>377.6</ele>
        <time>2020-08-22 09:16:44</time>
      </trkpt>
      <trkpt lat="41.19762" lon="1.08919">
        <ele>377.6</ele>
        <time>2020-08-22 09:16:45</time>
      </trkpt>
      <trkpt lat="41.19766" lon="1.08917">
        <ele>377.6</ele>
        <time>2020-08-22 09:16:46</time>
      </trkpt>
      <trkpt lat="41.1977" lon="1.08914">
        <ele>377.6</ele>
        <time>2020-08-22 09:16:47</time>
      </trkpt>
      <trkpt lat="41.19773" lon="1.08912">
        <ele>377.4</ele>
        <time>2020-08-22 09:16:48</time>
      </trkpt>
      <trkpt lat="41.19776" lon="1.08909">
        <ele>377.4</ele>
        <time>2020-08-22 09:16:49</time>
      </trkpt>
      <trkpt lat="41.19778" lon="1.08908">
        <ele>377.4</ele>
        <time>2020-08-22 09:16:50</time>
      </trkpt>
      <trkpt lat="41.1978" lon="1.08906">
        <ele>377.6</ele>
        <time>2020-08-22 09:16:51</time>
      </trkpt>
      <trkpt lat="41.19782" lon="1.08905">
        <ele>377.6</ele>
        <time>2020-08-22 09:16:52</time>
      </trkpt>
      <trkpt lat="41.19784" lon="1.08903">
        <ele>378</ele>
        <time>2020-08-22 09:16:53</time>
      </trkpt>
      <trkpt lat="41.19785" lon="1.08902">
        <ele>378.2</ele>
        <time>2020-08-22 09:16:54</time>
      </trkpt>
      <trkpt lat="41.19787" lon="1.089">
        <ele>378.6</ele>
        <time>2020-08-22 09:16:55</time>
      </trkpt>
      <trkpt lat="41.19788" lon="1.08899">
        <ele>378.8</ele>
        <time>2020-08-22 09:16:56</time>
      </trkpt>
      <trkpt lat="41.1979" lon="1.08898">
        <ele>379</ele>
        <time>2020-08-22 09:16:57</time>
      </trkpt>
      <trkpt lat="41.19792" lon="1.08896">
        <ele>379.4</ele>
        <time>2020-08-22 09:16:58</time>
      </trkpt>
      <trkpt lat="41.19794" lon="1.08895">
        <ele>379.4</ele>
        <time>2020-08-22 09:16:59</time>
      </trkpt>
      <trkpt lat="41.19795" lon="1.08894">
        <ele>380</ele>
        <time>2020-08-22 09:17:00</time>
      </trkpt>
      <trkpt lat="41.19796" lon="1.08892">
        <ele>380.2</ele>
        <time>2020-08-22 09:17:01</time>
      </trkpt>
      <trkpt lat="41.19798" lon="1.08891">
        <ele>380.8</ele>
        <time>2020-08-22 09:17:02</time>
      </trkpt>
      <trkpt lat="41.19799" lon="1.0889">
        <ele>381.4</ele>
        <time>2020-08-22 09:17:03</time>
      </trkpt>
      <trkpt lat="41.19801" lon="1.08889">
        <ele>381.8</ele>
        <time>2020-08-22 09:17:04</time>
      </trkpt>
      <trkpt lat="41.19802" lon="1.08888">
        <ele>382.2</ele>
        <time>2020-08-22 09:17:05</time>
      </trkpt>
      <trkpt lat="41.19803" lon="1.08886">
        <ele>382.4</ele>
        <time>2020-08-22 09:17:06</time>
      </trkpt>
      <trkpt lat="41.19804" lon="1.08884">
        <ele>383.2</ele>
        <time>2020-08-22 09:17:07</time>
      </trkpt>
      <trkpt lat="41.19806" lon="1.08883">
        <ele>383.6</ele>
        <time>2020-08-22 09:17:08</time>
      </trkpt>
      <trkpt lat="41.19807" lon="1.08882">
        <ele>384.4</ele>
        <time>2020-08-22 09:17:09</time>
      </trkpt>
      <trkpt lat="41.19809" lon="1.0888">
        <ele>384.6</ele>
        <time>2020-08-22 09:17:10</time>
      </trkpt>
      <trkpt lat="41.1981" lon="1.08879">
        <ele>385</ele>
        <time>2020-08-22 09:17:11</time>
      </trkpt>
      <trkpt lat="41.19812" lon="1.08878">
        <ele>385.6</ele>
        <time>2020-08-22 09:17:12</time>
      </trkpt>
      <trkpt lat="41.19814" lon="1.08877">
        <ele>385.8</ele>
        <time>2020-08-22 09:17:13</time>
      </trkpt>
      <trkpt lat="41.19815" lon="1.08875">
        <ele>386.6</ele>
        <time>2020-08-22 09:17:14</time>
      </trkpt>
      <trkpt lat="41.19817" lon="1.08873">
        <ele>386.8</ele>
        <time>2020-08-22 09:17:15</time>
      </trkpt>
      <trkpt lat="41.19818" lon="1.08872">
        <ele>387.6</ele>
        <time>2020-08-22 09:17:16</time>
      </trkpt>
      <trkpt lat="41.19819" lon="1.08871">
        <ele>387.8</ele>
        <time>2020-08-22 09:17:17</time>
      </trkpt>
      <trkpt lat="41.19821" lon="1.08869">
        <ele>388.4</ele>
        <time>2020-08-22 09:17:18</time>
      </trkpt>
      <trkpt lat="41.19823" lon="1.08868">
        <ele>388.8</ele>
        <time>2020-08-22 09:17:19</time>
      </trkpt>
      <trkpt lat="41.19824" lon="1.08865">
        <ele>389.2</ele>
        <time>2020-08-22 09:17:20</time>
      </trkpt>
      <trkpt lat="41.19825" lon="1.08863">
        <ele>389.6</ele>
        <time>2020-08-22 09:17:21</time>
      </trkpt>
      <trkpt lat="41.19826" lon="1.08861">
        <ele>389.8</ele>
        <time>2020-08-22 09:17:22</time>
      </trkpt>
      <trkpt lat="41.19827" lon="1.08859">
        <ele>390.4</ele>
        <time>2020-08-22 09:17:23</time>
      </trkpt>
      <trkpt lat="41.19828" lon="1.08857">
        <ele>390.6</ele>
        <time>2020-08-22 09:17:24</time>
      </trkpt>
      <trkpt lat="41.19829" lon="1.08854">
        <ele>391.2</ele>
        <time>2020-08-22 09:17:25</time>
      </trkpt>
      <trkpt lat="41.19831" lon="1.08852">
        <ele>391.4</ele>
        <time>2020-08-22 09:17:26</time>
      </trkpt>
      <trkpt lat="41.19832" lon="1.0885">
        <ele>391.8</ele>
        <time>2020-08-22 09:17:27</time>
      </trkpt>
      <trkpt lat="41.19833" lon="1.08848">
        <ele>392</ele>
        <time>2020-08-22 09:17:28</time>
      </trkpt>
      <trkpt lat="41.19835" lon="1.08846">
        <ele>392.2</ele>
        <time>2020-08-22 09:17:29</time>
      </trkpt>
      <trkpt lat="41.19836" lon="1.08843">
        <ele>392.6</ele>
        <time>2020-08-22 09:17:30</time>
      </trkpt>
      <trkpt lat="41.19837" lon="1.08841">
        <ele>392.8</ele>
        <time>2020-08-22 09:17:31</time>
      </trkpt>
      <trkpt lat="41.19838" lon="1.08839">
        <ele>392.8</ele>
        <time>2020-08-22 09:17:32</time>
      </trkpt>
      <trkpt lat="41.1984" lon="1.08836">
        <ele>392.8</ele>
        <time>2020-08-22 09:17:33</time>
      </trkpt>
      <trkpt lat="41.19841" lon="1.08834">
        <ele>393</ele>
        <time>2020-08-22 09:17:34</time>
      </trkpt>
      <trkpt lat="41.19842" lon="1.08831">
        <ele>393</ele>
        <time>2020-08-22 09:17:35</time>
      </trkpt>
      <trkpt lat="41.19843" lon="1.08828">
        <ele>393</ele>
        <time>2020-08-22 09:17:36</time>
      </trkpt>
      <trkpt lat="41.19844" lon="1.08826">
        <ele>393</ele>
        <time>2020-08-22 09:17:37</time>
      </trkpt>
      <trkpt lat="41.19844" lon="1.08824">
        <ele>393.2</ele>
        <time>2020-08-22 09:17:38</time>
      </trkpt>
      <trkpt lat="41.19845" lon="1.08821">
        <ele>393.2</ele>
        <time>2020-08-22 09:17:39</time>
      </trkpt>
      <trkpt lat="41.19845" lon="1.08819">
        <ele>393.2</ele>
        <time>2020-08-22 09:17:40</time>
      </trkpt>
      <trkpt lat="41.19846" lon="1.08816">
        <ele>393.2</ele>
        <time>2020-08-22 09:17:41</time>
      </trkpt>
      <trkpt lat="41.19846" lon="1.08814">
        <ele>393.2</ele>
        <time>2020-08-22 09:17:42</time>
      </trkpt>
      <trkpt lat="41.19847" lon="1.08812">
        <ele>393.6</ele>
        <time>2020-08-22 09:17:43</time>
      </trkpt>
      <trkpt lat="41.19847" lon="1.08809">
        <ele>393.8</ele>
        <time>2020-08-22 09:17:44</time>
      </trkpt>
      <trkpt lat="41.19848" lon="1.08807">
        <ele>394.4</ele>
        <time>2020-08-22 09:17:45</time>
      </trkpt>
      <trkpt lat="41.19849" lon="1.08804">
        <ele>394.8</ele>
        <time>2020-08-22 09:17:46</time>
      </trkpt>
      <trkpt lat="41.19849" lon="1.08802">
        <ele>395</ele>
        <time>2020-08-22 09:17:47</time>
      </trkpt>
      <trkpt lat="41.1985" lon="1.088">
        <ele>395.4</ele>
        <time>2020-08-22 09:17:48</time>
      </trkpt>
      <trkpt lat="41.1985" lon="1.08797">
        <ele>395.4</ele>
        <time>2020-08-22 09:17:49</time>
      </trkpt>
      <trkpt lat="41.1985" lon="1.08796">
        <ele>395.8</ele>
        <time>2020-08-22 09:17:50</time>
      </trkpt>
      <trkpt lat="41.19851" lon="1.08793">
        <ele>396</ele>
        <time>2020-08-22 09:17:51</time>
      </trkpt>
      <trkpt lat="41.19851" lon="1.08791">
        <ele>396.4</ele>
        <time>2020-08-22 09:17:52</time>
      </trkpt>
      <trkpt lat="41.19852" lon="1.08789">
        <ele>396.6</ele>
        <time>2020-08-22 09:17:53</time>
      </trkpt>
      <trkpt lat="41.19852" lon="1.08787">
        <ele>397</ele>
        <time>2020-08-22 09:17:54</time>
      </trkpt>
      <trkpt lat="41.19852" lon="1.08785">
        <ele>397.4</ele>
        <time>2020-08-22 09:17:55</time>
      </trkpt>
      <trkpt lat="41.19852" lon="1.08783">
        <ele>397.6</ele>
        <time>2020-08-22 09:17:56</time>
      </trkpt>
      <trkpt lat="41.19853" lon="1.08781">
        <ele>398</ele>
        <time>2020-08-22 09:17:57</time>
      </trkpt>
      <trkpt lat="41.19853" lon="1.08778">
        <ele>398.4</ele>
        <time>2020-08-22 09:17:58</time>
      </trkpt>
      <trkpt lat="41.19854" lon="1.08775">
        <ele>399</ele>
        <time>2020-08-22 09:17:59</time>
      </trkpt>
      <trkpt lat="41.19854" lon="1.08773">
        <ele>399.4</ele>
        <time>2020-08-22 09:18:00</time>
      </trkpt>
      <trkpt lat="41.19854" lon="1.08771">
        <ele>399.6</ele>
        <time>2020-08-22 09:18:01</time>
      </trkpt>
      <trkpt lat="41.19854" lon="1.08768">
        <ele>400</ele>
        <time>2020-08-22 09:18:02</time>
      </trkpt>
      <trkpt lat="41.19854" lon="1.08765">
        <ele>400</ele>
        <time>2020-08-22 09:18:03</time>
      </trkpt>
      <trkpt lat="41.19854" lon="1.08764">
        <ele>400.2</ele>
        <time>2020-08-22 09:18:04</time>
      </trkpt>
      <trkpt lat="41.19854" lon="1.08761">
        <ele>400.4</ele>
        <time>2020-08-22 09:18:05</time>
      </trkpt>
      <trkpt lat="41.19855" lon="1.08759">
        <ele>400.6</ele>
        <time>2020-08-22 09:18:06</time>
      </trkpt>
      <trkpt lat="41.19855" lon="1.08757">
        <ele>400.8</ele>
        <time>2020-08-22 09:18:07</time>
      </trkpt>
      <trkpt lat="41.19855" lon="1.08754">
        <ele>401</ele>
        <time>2020-08-22 09:18:08</time>
      </trkpt>
      <trkpt lat="41.19856" lon="1.08752">
        <ele>401.2</ele>
        <time>2020-08-22 09:18:09</time>
      </trkpt>
      <trkpt lat="41.19856" lon="1.08749">
        <ele>401.6</ele>
        <time>2020-08-22 09:18:10</time>
      </trkpt>
      <trkpt lat="41.19857" lon="1.08748">
        <ele>401.8</ele>
        <time>2020-08-22 09:18:11</time>
      </trkpt>
      <trkpt lat="41.19857" lon="1.08745">
        <ele>402</ele>
        <time>2020-08-22 09:18:12</time>
      </trkpt>
      <trkpt lat="41.19858" lon="1.08743">
        <ele>402.4</ele>
        <time>2020-08-22 09:18:13</time>
      </trkpt>
      <trkpt lat="41.19859" lon="1.0874">
        <ele>402.6</ele>
        <time>2020-08-22 09:18:14</time>
      </trkpt>
      <trkpt lat="41.1986" lon="1.08738">
        <ele>403</ele>
        <time>2020-08-22 09:18:15</time>
      </trkpt>
      <trkpt lat="41.1986" lon="1.08736">
        <ele>403.2</ele>
        <time>2020-08-22 09:18:16</time>
      </trkpt>
      <trkpt lat="41.19861" lon="1.08735">
        <ele>403.4</ele>
        <time>2020-08-22 09:18:17</time>
      </trkpt>
      <trkpt lat="41.19862" lon="1.08733">
        <ele>403.6</ele>
        <time>2020-08-22 09:18:18</time>
      </trkpt>
      <trkpt lat="41.19864" lon="1.08731">
        <ele>404</ele>
        <time>2020-08-22 09:18:19</time>
      </trkpt>
      <trkpt lat="41.19865" lon="1.0873">
        <ele>404.8</ele>
        <time>2020-08-22 09:18:20</time>
      </trkpt>
      <trkpt lat="41.19867" lon="1.08729">
        <ele>405.2</ele>
        <time>2020-08-22 09:18:21</time>
      </trkpt>
      <trkpt lat="41.19869" lon="1.08727">
        <ele>405.6</ele>
        <time>2020-08-22 09:18:22</time>
      </trkpt>
      <trkpt lat="41.19871" lon="1.08726">
        <ele>405.8</ele>
        <time>2020-08-22 09:18:23</time>
      </trkpt>
      <trkpt lat="41.19874" lon="1.08724">
        <ele>406</ele>
        <time>2020-08-22 09:18:24</time>
      </trkpt>
      <trkpt lat="41.19875" lon="1.08722">
        <ele>406</ele>
        <time>2020-08-22 09:18:25</time>
      </trkpt>
      <trkpt lat="41.19878" lon="1.0872">
        <ele>406.2</ele>
        <time>2020-08-22 09:18:26</time>
      </trkpt>
      <trkpt lat="41.1988" lon="1.08717">
        <ele>406.2</ele>
        <time>2020-08-22 09:18:27</time>
      </trkpt>
      <trkpt lat="41.19882" lon="1.08714">
        <ele>406.2</ele>
        <time>2020-08-22 09:18:28</time>
      </trkpt>
      <trkpt lat="41.19884" lon="1.08711">
        <ele>406.2</ele>
        <time>2020-08-22 09:18:29</time>
      </trkpt>
      <trkpt lat="41.19885" lon="1.08707">
        <ele>406.2</ele>
        <time>2020-08-22 09:18:30</time>
      </trkpt>
      <trkpt lat="41.19886" lon="1.08704">
        <ele>406.2</ele>
        <time>2020-08-22 09:18:31</time>
      </trkpt>
      <trkpt lat="41.19887" lon="1.087">
        <ele>406.2</ele>
        <time>2020-08-22 09:18:32</time>
      </trkpt>
      <trkpt lat="41.19888" lon="1.08696">
        <ele>406.2</ele>
        <time>2020-08-22 09:18:33</time>
      </trkpt>
      <trkpt lat="41.19889" lon="1.08693">
        <ele>406.2</ele>
        <time>2020-08-22 09:18:34</time>
      </trkpt>
      <trkpt lat="41.1989" lon="1.08691">
        <ele>406.2</ele>
        <time>2020-08-22 09:18:35</time>
      </trkpt>
      <trkpt lat="41.19891" lon="1.08688">
        <ele>406.2</ele>
        <time>2020-08-22 09:18:36</time>
      </trkpt>
      <trkpt lat="41.19893" lon="1.08685">
        <ele>406.2</ele>
        <time>2020-08-22 09:18:37</time>
      </trkpt>
      <trkpt lat="41.19895" lon="1.08683">
        <ele>406.2</ele>
        <time>2020-08-22 09:18:38</time>
      </trkpt>
      <trkpt lat="41.19895" lon="1.0868">
        <ele>406.4</ele>
        <time>2020-08-22 09:18:39</time>
      </trkpt>
      <trkpt lat="41.19897" lon="1.08677">
        <ele>406.6</ele>
        <time>2020-08-22 09:18:40</time>
      </trkpt>
      <trkpt lat="41.19898" lon="1.08675">
        <ele>406.6</ele>
        <time>2020-08-22 09:18:41</time>
      </trkpt>
      <trkpt lat="41.19899" lon="1.08672">
        <ele>407.2</ele>
        <time>2020-08-22 09:18:42</time>
      </trkpt>
      <trkpt lat="41.199" lon="1.0867">
        <ele>407.4</ele>
        <time>2020-08-22 09:18:43</time>
      </trkpt>
      <trkpt lat="41.19901" lon="1.08668">
        <ele>407.6</ele>
        <time>2020-08-22 09:18:44</time>
      </trkpt>
      <trkpt lat="41.19902" lon="1.08665">
        <ele>407.8</ele>
        <time>2020-08-22 09:18:45</time>
      </trkpt>
      <trkpt lat="41.19903" lon="1.08663">
        <ele>408</ele>
        <time>2020-08-22 09:18:46</time>
      </trkpt>
      <trkpt lat="41.19904" lon="1.08661">
        <ele>408</ele>
        <time>2020-08-22 09:18:47</time>
      </trkpt>
      <trkpt lat="41.19905" lon="1.08659">
        <ele>408.2</ele>
        <time>2020-08-22 09:18:48</time>
      </trkpt>
      <trkpt lat="41.19906" lon="1.08658">
        <ele>408.4</ele>
        <time>2020-08-22 09:18:49</time>
      </trkpt>
      <trkpt lat="41.19907" lon="1.08655">
        <ele>408.6</ele>
        <time>2020-08-22 09:18:50</time>
      </trkpt>
      <trkpt lat="41.19908" lon="1.08654">
        <ele>409.4</ele>
        <time>2020-08-22 09:18:51</time>
      </trkpt>
      <trkpt lat="41.1991" lon="1.08652">
        <ele>409.6</ele>
        <time>2020-08-22 09:18:52</time>
      </trkpt>
      <trkpt lat="41.19911" lon="1.0865">
        <ele>410</ele>
        <time>2020-08-22 09:18:53</time>
      </trkpt>
      <trkpt lat="41.19912" lon="1.08648">
        <ele>410.6</ele>
        <time>2020-08-22 09:18:54</time>
      </trkpt>
      <trkpt lat="41.19914" lon="1.08645">
        <ele>410.8</ele>
        <time>2020-08-22 09:18:55</time>
      </trkpt>
      <trkpt lat="41.19915" lon="1.08643">
        <ele>411.2</ele>
        <time>2020-08-22 09:18:56</time>
      </trkpt>
      <trkpt lat="41.19917" lon="1.08642">
        <ele>411.4</ele>
        <time>2020-08-22 09:18:57</time>
      </trkpt>
      <trkpt lat="41.19918" lon="1.08641">
        <ele>412</ele>
        <time>2020-08-22 09:18:58</time>
      </trkpt>
      <trkpt lat="41.1992" lon="1.08639">
        <ele>412.2</ele>
        <time>2020-08-22 09:18:59</time>
      </trkpt>
      <trkpt lat="41.19922" lon="1.08638">
        <ele>413</ele>
        <time>2020-08-22 09:19:00</time>
      </trkpt>
      <trkpt lat="41.19924" lon="1.08636">
        <ele>413</ele>
        <time>2020-08-22 09:19:01</time>
      </trkpt>
      <trkpt lat="41.19925" lon="1.08635">
        <ele>413.6</ele>
        <time>2020-08-22 09:19:02</time>
      </trkpt>
      <trkpt lat="41.19926" lon="1.08633">
        <ele>413.8</ele>
        <time>2020-08-22 09:19:03</time>
      </trkpt>
      <trkpt lat="41.19928" lon="1.08631">
        <ele>414.2</ele>
        <time>2020-08-22 09:19:04</time>
      </trkpt>
      <trkpt lat="41.19929" lon="1.08629">
        <ele>414.8</ele>
        <time>2020-08-22 09:19:05</time>
      </trkpt>
      <trkpt lat="41.1993" lon="1.08628">
        <ele>415.2</ele>
        <time>2020-08-22 09:19:06</time>
      </trkpt>
      <trkpt lat="41.19932" lon="1.08627">
        <ele>416</ele>
        <time>2020-08-22 09:19:07</time>
      </trkpt>
      <trkpt lat="41.19933" lon="1.08625">
        <ele>416.2</ele>
        <time>2020-08-22 09:19:08</time>
      </trkpt>
      <trkpt lat="41.19934" lon="1.08623">
        <ele>416.4</ele>
        <time>2020-08-22 09:19:09</time>
      </trkpt>
      <trkpt lat="41.19935" lon="1.08621">
        <ele>416.6</ele>
        <time>2020-08-22 09:19:10</time>
      </trkpt>
      <trkpt lat="41.19936" lon="1.08619">
        <ele>416.8</ele>
        <time>2020-08-22 09:19:11</time>
      </trkpt>
      <trkpt lat="41.19937" lon="1.08617">
        <ele>417</ele>
        <time>2020-08-22 09:19:12</time>
      </trkpt>
      <trkpt lat="41.19939" lon="1.08615">
        <ele>417.2</ele>
        <time>2020-08-22 09:19:13</time>
      </trkpt>
      <trkpt lat="41.1994" lon="1.08613">
        <ele>417.6</ele>
        <time>2020-08-22 09:19:14</time>
      </trkpt>
      <trkpt lat="41.19942" lon="1.08611">
        <ele>417.8</ele>
        <time>2020-08-22 09:19:15</time>
      </trkpt>
      <trkpt lat="41.19943" lon="1.08609">
        <ele>418.2</ele>
        <time>2020-08-22 09:19:16</time>
      </trkpt>
      <trkpt lat="41.19944" lon="1.08608">
        <ele>418.2</ele>
        <time>2020-08-22 09:19:17</time>
      </trkpt>
      <trkpt lat="41.19945" lon="1.08606">
        <ele>418.6</ele>
        <time>2020-08-22 09:19:18</time>
      </trkpt>
      <trkpt lat="41.19946" lon="1.08604">
        <ele>419</ele>
        <time>2020-08-22 09:19:19</time>
      </trkpt>
      <trkpt lat="41.19948" lon="1.08603">
        <ele>419</ele>
        <time>2020-08-22 09:19:20</time>
      </trkpt>
      <trkpt lat="41.19949" lon="1.08601">
        <ele>419.6</ele>
        <time>2020-08-22 09:19:21</time>
      </trkpt>
      <trkpt lat="41.19951" lon="1.08599">
        <ele>420</ele>
        <time>2020-08-22 09:19:22</time>
      </trkpt>
      <trkpt lat="41.19953" lon="1.08597">
        <ele>420.4</ele>
        <time>2020-08-22 09:19:23</time>
      </trkpt>
      <trkpt lat="41.19954" lon="1.08596">
        <ele>420.4</ele>
        <time>2020-08-22 09:19:24</time>
      </trkpt>
      <trkpt lat="41.19956" lon="1.08594">
        <ele>420.8</ele>
        <time>2020-08-22 09:19:25</time>
      </trkpt>
      <trkpt lat="41.19958" lon="1.08593">
        <ele>421</ele>
        <time>2020-08-22 09:19:26</time>
      </trkpt>
      <trkpt lat="41.19959" lon="1.08591">
        <ele>421.2</ele>
        <time>2020-08-22 09:19:27</time>
      </trkpt>
      <trkpt lat="41.19961" lon="1.0859">
        <ele>421.4</ele>
        <time>2020-08-22 09:19:28</time>
      </trkpt>
      <trkpt lat="41.19963" lon="1.08588">
        <ele>421.6</ele>
        <time>2020-08-22 09:19:29</time>
      </trkpt>
      <trkpt lat="41.19964" lon="1.08586">
        <ele>421.8</ele>
        <time>2020-08-22 09:19:30</time>
      </trkpt>
      <trkpt lat="41.19965" lon="1.08585">
        <ele>421.8</ele>
        <time>2020-08-22 09:19:31</time>
      </trkpt>
      <trkpt lat="41.19966" lon="1.08583">
        <ele>422</ele>
        <time>2020-08-22 09:19:32</time>
      </trkpt>
      <trkpt lat="41.19967" lon="1.08581">
        <ele>422.2</ele>
        <time>2020-08-22 09:19:33</time>
      </trkpt>
      <trkpt lat="41.19969" lon="1.0858">
        <ele>422.4</ele>
        <time>2020-08-22 09:19:34</time>
      </trkpt>
      <trkpt lat="41.19971" lon="1.08578">
        <ele>422.4</ele>
        <time>2020-08-22 09:19:35</time>
      </trkpt>
      <trkpt lat="41.19972" lon="1.08576">
        <ele>422.6</ele>
        <time>2020-08-22 09:19:36</time>
      </trkpt>
      <trkpt lat="41.19974" lon="1.08575">
        <ele>422.8</ele>
        <time>2020-08-22 09:19:37</time>
      </trkpt>
      <trkpt lat="41.19975" lon="1.08573">
        <ele>423</ele>
        <time>2020-08-22 09:19:38</time>
      </trkpt>
      <trkpt lat="41.19977" lon="1.08571">
        <ele>423.2</ele>
        <time>2020-08-22 09:19:39</time>
      </trkpt>
      <trkpt lat="41.19979" lon="1.08569">
        <ele>423.2</ele>
        <time>2020-08-22 09:19:40</time>
      </trkpt>
      <trkpt lat="41.19981" lon="1.08568">
        <ele>423.4</ele>
        <time>2020-08-22 09:19:41</time>
      </trkpt>
      <trkpt lat="41.19984" lon="1.08566">
        <ele>423.6</ele>
        <time>2020-08-22 09:19:42</time>
      </trkpt>
      <trkpt lat="41.19985" lon="1.08564">
        <ele>423.8</ele>
        <time>2020-08-22 09:19:43</time>
      </trkpt>
      <trkpt lat="41.19986" lon="1.08563">
        <ele>424.2</ele>
        <time>2020-08-22 09:19:44</time>
      </trkpt>
      <trkpt lat="41.19987" lon="1.0856">
        <ele>424.2</ele>
        <time>2020-08-22 09:19:45</time>
      </trkpt>
      <trkpt lat="41.19988" lon="1.08558">
        <ele>424.6</ele>
        <time>2020-08-22 09:19:46</time>
      </trkpt>
      <trkpt lat="41.1999" lon="1.08555">
        <ele>424.6</ele>
        <time>2020-08-22 09:19:47</time>
      </trkpt>
      <trkpt lat="41.19991" lon="1.08553">
        <ele>425</ele>
        <time>2020-08-22 09:19:48</time>
      </trkpt>
      <trkpt lat="41.19992" lon="1.08551">
        <ele>425.2</ele>
        <time>2020-08-22 09:19:49</time>
      </trkpt>
      <trkpt lat="41.19994" lon="1.08549">
        <ele>425.4</ele>
        <time>2020-08-22 09:19:50</time>
      </trkpt>
      <trkpt lat="41.19995" lon="1.08547">
        <ele>425.4</ele>
        <time>2020-08-22 09:19:51</time>
      </trkpt>
      <trkpt lat="41.19997" lon="1.08545">
        <ele>425.6</ele>
        <time>2020-08-22 09:19:52</time>
      </trkpt>
      <trkpt lat="41.19998" lon="1.08543">
        <ele>425.8</ele>
        <time>2020-08-22 09:19:53</time>
      </trkpt>
      <trkpt lat="41.19999" lon="1.08541">
        <ele>426</ele>
        <time>2020-08-22 09:19:54</time>
      </trkpt>
      <trkpt lat="41.20001" lon="1.08538">
        <ele>426.2</ele>
        <time>2020-08-22 09:19:55</time>
      </trkpt>
      <trkpt lat="41.20002" lon="1.08536">
        <ele>426.4</ele>
        <time>2020-08-22 09:19:56</time>
      </trkpt>
      <trkpt lat="41.20003" lon="1.08534">
        <ele>426.4</ele>
        <time>2020-08-22 09:19:57</time>
      </trkpt>
      <trkpt lat="41.20005" lon="1.08532">
        <ele>426.6</ele>
        <time>2020-08-22 09:19:58</time>
      </trkpt>
      <trkpt lat="41.20006" lon="1.0853">
        <ele>427</ele>
        <time>2020-08-22 09:19:59</time>
      </trkpt>
      <trkpt lat="41.20007" lon="1.08527">
        <ele>427</ele>
        <time>2020-08-22 09:20:00</time>
      </trkpt>
      <trkpt lat="41.20008" lon="1.08524">
        <ele>427.2</ele>
        <time>2020-08-22 09:20:01</time>
      </trkpt>
      <trkpt lat="41.20008" lon="1.08522">
        <ele>427.4</ele>
        <time>2020-08-22 09:20:02</time>
      </trkpt>
      <trkpt lat="41.20009" lon="1.0852">
        <ele>427.4</ele>
        <time>2020-08-22 09:20:03</time>
      </trkpt>
      <trkpt lat="41.2001" lon="1.08517">
        <ele>427.4</ele>
        <time>2020-08-22 09:20:04</time>
      </trkpt>
      <trkpt lat="41.20011" lon="1.08515">
        <ele>427.6</ele>
        <time>2020-08-22 09:20:05</time>
      </trkpt>
      <trkpt lat="41.20012" lon="1.08513">
        <ele>427.8</ele>
        <time>2020-08-22 09:20:06</time>
      </trkpt>
      <trkpt lat="41.20013" lon="1.0851">
        <ele>427.8</ele>
        <time>2020-08-22 09:20:07</time>
      </trkpt>
      <trkpt lat="41.20014" lon="1.08507">
        <ele>428.2</ele>
        <time>2020-08-22 09:20:08</time>
      </trkpt>
      <trkpt lat="41.20015" lon="1.08505">
        <ele>428.2</ele>
        <time>2020-08-22 09:20:09</time>
      </trkpt>
      <trkpt lat="41.20016" lon="1.08502">
        <ele>428.4</ele>
        <time>2020-08-22 09:20:10</time>
      </trkpt>
      <trkpt lat="41.20017" lon="1.085">
        <ele>428.6</ele>
        <time>2020-08-22 09:20:11</time>
      </trkpt>
      <trkpt lat="41.20018" lon="1.08497">
        <ele>428.8</ele>
        <time>2020-08-22 09:20:12</time>
      </trkpt>
      <trkpt lat="41.20019" lon="1.08495">
        <ele>429</ele>
        <time>2020-08-22 09:20:13</time>
      </trkpt>
      <trkpt lat="41.20019" lon="1.08492">
        <ele>429.2</ele>
        <time>2020-08-22 09:20:14</time>
      </trkpt>
      <trkpt lat="41.2002" lon="1.08489">
        <ele>429.6</ele>
        <time>2020-08-22 09:20:15</time>
      </trkpt>
      <trkpt lat="41.20021" lon="1.08487">
        <ele>429.6</ele>
        <time>2020-08-22 09:20:16</time>
      </trkpt>
      <trkpt lat="41.20021" lon="1.08484">
        <ele>430</ele>
        <time>2020-08-22 09:20:17</time>
      </trkpt>
      <trkpt lat="41.20022" lon="1.08482">
        <ele>430.2</ele>
        <time>2020-08-22 09:20:18</time>
      </trkpt>
      <trkpt lat="41.20023" lon="1.08479">
        <ele>430.4</ele>
        <time>2020-08-22 09:20:19</time>
      </trkpt>
      <trkpt lat="41.20024" lon="1.08477">
        <ele>430.6</ele>
        <time>2020-08-22 09:20:20</time>
      </trkpt>
      <trkpt lat="41.20025" lon="1.08474">
        <ele>430.6</ele>
        <time>2020-08-22 09:20:21</time>
      </trkpt>
      <trkpt lat="41.20026" lon="1.08472">
        <ele>431</ele>
        <time>2020-08-22 09:20:22</time>
      </trkpt>
      <trkpt lat="41.20027" lon="1.08469">
        <ele>431.2</ele>
        <time>2020-08-22 09:20:23</time>
      </trkpt>
      <trkpt lat="41.20028" lon="1.08467">
        <ele>431.6</ele>
        <time>2020-08-22 09:20:24</time>
      </trkpt>
      <trkpt lat="41.2003" lon="1.08464">
        <ele>431.6</ele>
        <time>2020-08-22 09:20:25</time>
      </trkpt>
      <trkpt lat="41.20031" lon="1.08462">
        <ele>432</ele>
        <time>2020-08-22 09:20:26</time>
      </trkpt>
      <trkpt lat="41.20033" lon="1.08458">
        <ele>432</ele>
        <time>2020-08-22 09:20:27</time>
      </trkpt>
      <trkpt lat="41.20035" lon="1.08455">
        <ele>432</ele>
        <time>2020-08-22 09:20:28</time>
      </trkpt>
      <trkpt lat="41.20037" lon="1.08453">
        <ele>432.2</ele>
        <time>2020-08-22 09:20:29</time>
      </trkpt>
      <trkpt lat="41.2004" lon="1.08452">
        <ele>432.2</ele>
        <time>2020-08-22 09:20:30</time>
      </trkpt>
      <trkpt lat="41.20043" lon="1.08451">
        <ele>432.2</ele>
        <time>2020-08-22 09:20:31</time>
      </trkpt>
      <trkpt lat="41.20047" lon="1.08451">
        <ele>432.2</ele>
        <time>2020-08-22 09:20:32</time>
      </trkpt>
      <trkpt lat="41.20049" lon="1.08453">
        <ele>432</ele>
        <time>2020-08-22 09:20:33</time>
      </trkpt>
      <trkpt lat="41.20052" lon="1.08455">
        <ele>432</ele>
        <time>2020-08-22 09:20:34</time>
      </trkpt>
      <trkpt lat="41.20054" lon="1.08457">
        <ele>431.8</ele>
        <time>2020-08-22 09:20:35</time>
      </trkpt>
      <trkpt lat="41.20061" lon="1.08461">
        <ele>431.6</ele>
        <time>2020-08-22 09:20:37</time>
      </trkpt>
      <trkpt lat="41.20064" lon="1.08463">
        <ele>431.8</ele>
        <time>2020-08-22 09:20:38</time>
      </trkpt>
      <trkpt lat="41.20068" lon="1.08465">
        <ele>431.8</ele>
        <time>2020-08-22 09:20:39</time>
      </trkpt>
      <trkpt lat="41.2007" lon="1.08467">
        <ele>431.8</ele>
        <time>2020-08-22 09:20:40</time>
      </trkpt>
      <trkpt lat="41.20073" lon="1.08469">
        <ele>431.8</ele>
        <time>2020-08-22 09:20:41</time>
      </trkpt>
      <trkpt lat="41.20077" lon="1.08473">
        <ele>431.6</ele>
        <time>2020-08-22 09:20:42</time>
      </trkpt>
      <trkpt lat="41.20084" lon="1.0848">
        <ele>431.6</ele>
        <time>2020-08-22 09:20:44</time>
      </trkpt>
      <trkpt lat="41.2009" lon="1.08487">
        <ele>431.6</ele>
        <time>2020-08-22 09:20:46</time>
      </trkpt>
      <trkpt lat="41.20092" lon="1.08491">
        <ele>431.4</ele>
        <time>2020-08-22 09:20:47</time>
      </trkpt>
      <trkpt lat="41.20096" lon="1.08494">
        <ele>431.4</ele>
        <time>2020-08-22 09:20:48</time>
      </trkpt>
      <trkpt lat="41.201" lon="1.08496">
        <ele>429.8</ele>
        <time>2020-08-22 09:20:49</time>
      </trkpt>
      <trkpt lat="41.20105" lon="1.08497">
        <ele>429.4</ele>
        <time>2020-08-22 09:20:50</time>
      </trkpt>
      <trkpt lat="41.20109" lon="1.08494">
        <ele>427.4</ele>
        <time>2020-08-22 09:20:51</time>
      </trkpt>
      <trkpt lat="41.20114" lon="1.0849">
        <ele>426.4</ele>
        <time>2020-08-22 09:20:52</time>
      </trkpt>
      <trkpt lat="41.2012" lon="1.08485">
        <ele>426</ele>
        <time>2020-08-22 09:20:53</time>
      </trkpt>
      <trkpt lat="41.20125" lon="1.08482">
        <ele>425.2</ele>
        <time>2020-08-22 09:20:54</time>
      </trkpt>
      <trkpt lat="41.2013" lon="1.0848">
        <ele>424.8</ele>
        <time>2020-08-22 09:20:55</time>
      </trkpt>
      <trkpt lat="41.20135" lon="1.08477">
        <ele>424.2</ele>
        <time>2020-08-22 09:20:56</time>
      </trkpt>
      <trkpt lat="41.20139" lon="1.08475">
        <ele>423.4</ele>
        <time>2020-08-22 09:20:57</time>
      </trkpt>
      <trkpt lat="41.20143" lon="1.08475">
        <ele>421.4</ele>
        <time>2020-08-22 09:20:58</time>
      </trkpt>
      <trkpt lat="41.20146" lon="1.08475">
        <ele>420.8</ele>
        <time>2020-08-22 09:20:59</time>
      </trkpt>
      <trkpt lat="41.20148" lon="1.08476">
        <ele>419.8</ele>
        <time>2020-08-22 09:21:00</time>
      </trkpt>
      <trkpt lat="41.2015" lon="1.0848">
        <ele>418.8</ele>
        <time>2020-08-22 09:21:01</time>
      </trkpt>
      <trkpt lat="41.20152" lon="1.08483">
        <ele>418.6</ele>
        <time>2020-08-22 09:21:02</time>
      </trkpt>
      <trkpt lat="41.20155" lon="1.08486">
        <ele>418</ele>
        <time>2020-08-22 09:21:03</time>
      </trkpt>
      <trkpt lat="41.20158" lon="1.08489">
        <ele>417.8</ele>
        <time>2020-08-22 09:21:04</time>
      </trkpt>
      <trkpt lat="41.20159" lon="1.08493">
        <ele>417.4</ele>
        <time>2020-08-22 09:21:05</time>
      </trkpt>
      <trkpt lat="41.20161" lon="1.08497">
        <ele>417.2</ele>
        <time>2020-08-22 09:21:06</time>
      </trkpt>
      <trkpt lat="41.20164" lon="1.08503">
        <ele>416.8</ele>
        <time>2020-08-22 09:21:07</time>
      </trkpt>
      <trkpt lat="41.20167" lon="1.08506">
        <ele>416.8</ele>
        <time>2020-08-22 09:21:08</time>
      </trkpt>
      <trkpt lat="41.20169" lon="1.08511">
        <ele>416.6</ele>
        <time>2020-08-22 09:21:09</time>
      </trkpt>
      <trkpt lat="41.20172" lon="1.08516">
        <ele>416.4</ele>
        <time>2020-08-22 09:21:10</time>
      </trkpt>
      <trkpt lat="41.20173" lon="1.0852">
        <ele>416.4</ele>
        <time>2020-08-22 09:21:11</time>
      </trkpt>
      <trkpt lat="41.20179" lon="1.0853">
        <ele>416.2</ele>
        <time>2020-08-22 09:21:13</time>
      </trkpt>
      <trkpt lat="41.20185" lon="1.08533">
        <ele>416</ele>
        <time>2020-08-22 09:21:14</time>
      </trkpt>
      <trkpt lat="41.20191" lon="1.08535">
        <ele>415.8</ele>
        <time>2020-08-22 09:21:15</time>
      </trkpt>
      <trkpt lat="41.20196" lon="1.08535">
        <ele>415.2</ele>
        <time>2020-08-22 09:21:16</time>
      </trkpt>
      <trkpt lat="41.20201" lon="1.08534">
        <ele>414.6</ele>
        <time>2020-08-22 09:21:17</time>
      </trkpt>
      <trkpt lat="41.20205" lon="1.08532">
        <ele>414.4</ele>
        <time>2020-08-22 09:21:18</time>
      </trkpt>
      <trkpt lat="41.20207" lon="1.0853">
        <ele>414.2</ele>
        <time>2020-08-22 09:21:19</time>
      </trkpt>
      <trkpt lat="41.2021" lon="1.08527">
        <ele>414.2</ele>
        <time>2020-08-22 09:21:20</time>
      </trkpt>
      <trkpt lat="41.20212" lon="1.08524">
        <ele>414</ele>
        <time>2020-08-22 09:21:21</time>
      </trkpt>
      <trkpt lat="41.20213" lon="1.08521">
        <ele>414</ele>
        <time>2020-08-22 09:21:22</time>
      </trkpt>
      <trkpt lat="41.20215" lon="1.08518">
        <ele>414</ele>
        <time>2020-08-22 09:21:23</time>
      </trkpt>
      <trkpt lat="41.20217" lon="1.08517">
        <ele>414.2</ele>
        <time>2020-08-22 09:21:24</time>
      </trkpt>
      <trkpt lat="41.20221" lon="1.08513">
        <ele>415.2</ele>
        <time>2020-08-22 09:21:26</time>
      </trkpt>
      <trkpt lat="41.20223" lon="1.0851">
        <ele>415.4</ele>
        <time>2020-08-22 09:21:27</time>
      </trkpt>
      <trkpt lat="41.20226" lon="1.08508">
        <ele>416</ele>
        <time>2020-08-22 09:21:28</time>
      </trkpt>
      <trkpt lat="41.20228" lon="1.08506">
        <ele>416.2</ele>
        <time>2020-08-22 09:21:29</time>
      </trkpt>
      <trkpt lat="41.20229" lon="1.08503">
        <ele>416.6</ele>
        <time>2020-08-22 09:21:30</time>
      </trkpt>
      <trkpt lat="41.20231" lon="1.08501">
        <ele>416.8</ele>
        <time>2020-08-22 09:21:31</time>
      </trkpt>
      <trkpt lat="41.20233" lon="1.085">
        <ele>417.2</ele>
        <time>2020-08-22 09:21:32</time>
      </trkpt>
      <trkpt lat="41.20234" lon="1.08498">
        <ele>417.4</ele>
        <time>2020-08-22 09:21:33</time>
      </trkpt>
      <trkpt lat="41.20236" lon="1.08497">
        <ele>418</ele>
        <time>2020-08-22 09:21:34</time>
      </trkpt>
      <trkpt lat="41.20239" lon="1.08495">
        <ele>418.4</ele>
        <time>2020-08-22 09:21:35</time>
      </trkpt>
      <trkpt lat="41.2024" lon="1.08493">
        <ele>418.4</ele>
        <time>2020-08-22 09:21:36</time>
      </trkpt>
      <trkpt lat="41.20242" lon="1.08489">
        <ele>419</ele>
        <time>2020-08-22 09:21:37</time>
      </trkpt>
      <trkpt lat="41.20243" lon="1.08486">
        <ele>419</ele>
        <time>2020-08-22 09:21:38</time>
      </trkpt>
      <trkpt lat="41.20244" lon="1.08483">
        <ele>419.2</ele>
        <time>2020-08-22 09:21:39</time>
      </trkpt>
      <trkpt lat="41.20246" lon="1.0848">
        <ele>419.4</ele>
        <time>2020-08-22 09:21:40</time>
      </trkpt>
      <trkpt lat="41.20248" lon="1.08479">
        <ele>419.6</ele>
        <time>2020-08-22 09:21:41</time>
      </trkpt>
      <trkpt lat="41.2025" lon="1.08477">
        <ele>419.6</ele>
        <time>2020-08-22 09:21:42</time>
      </trkpt>
      <trkpt lat="41.20252" lon="1.08475">
        <ele>420</ele>
        <time>2020-08-22 09:21:43</time>
      </trkpt>
      <trkpt lat="41.20255" lon="1.08473">
        <ele>420.2</ele>
        <time>2020-08-22 09:21:44</time>
      </trkpt>
      <trkpt lat="41.20257" lon="1.0847">
        <ele>420.2</ele>
        <time>2020-08-22 09:21:45</time>
      </trkpt>
      <trkpt lat="41.2026" lon="1.08467">
        <ele>420.4</ele>
        <time>2020-08-22 09:21:46</time>
      </trkpt>
      <trkpt lat="41.20262" lon="1.08465">
        <ele>420.4</ele>
        <time>2020-08-22 09:21:47</time>
      </trkpt>
      <trkpt lat="41.20264" lon="1.08461">
        <ele>420.6</ele>
        <time>2020-08-22 09:21:48</time>
      </trkpt>
      <trkpt lat="41.20266" lon="1.08457">
        <ele>420.6</ele>
        <time>2020-08-22 09:21:49</time>
      </trkpt>
      <trkpt lat="41.20268" lon="1.08456">
        <ele>420.6</ele>
        <time>2020-08-22 09:21:50</time>
      </trkpt>
      <trkpt lat="41.20271" lon="1.08454">
        <ele>420.8</ele>
        <time>2020-08-22 09:21:51</time>
      </trkpt>
      <trkpt lat="41.20274" lon="1.08452">
        <ele>421</ele>
        <time>2020-08-22 09:21:52</time>
      </trkpt>
      <trkpt lat="41.20276" lon="1.08451">
        <ele>421.2</ele>
        <time>2020-08-22 09:21:53</time>
      </trkpt>
      <trkpt lat="41.20279" lon="1.08452">
        <ele>421</ele>
        <time>2020-08-22 09:21:54</time>
      </trkpt>
      <trkpt lat="41.20282" lon="1.08453">
        <ele>421</ele>
        <time>2020-08-22 09:21:55</time>
      </trkpt>
      <trkpt lat="41.20285" lon="1.08452">
        <ele>421</ele>
        <time>2020-08-22 09:21:56</time>
      </trkpt>
      <trkpt lat="41.20289" lon="1.0845">
        <ele>421.2</ele>
        <time>2020-08-22 09:21:57</time>
      </trkpt>
      <trkpt lat="41.20294" lon="1.08449">
        <ele>421.2</ele>
        <time>2020-08-22 09:21:58</time>
      </trkpt>
      <trkpt lat="41.20298" lon="1.08446">
        <ele>421.2</ele>
        <time>2020-08-22 09:21:59</time>
      </trkpt>
      <trkpt lat="41.203" lon="1.08443">
        <ele>421.2</ele>
        <time>2020-08-22 09:22:00</time>
      </trkpt>
      <trkpt lat="41.203" lon="1.08439">
        <ele>421</ele>
        <time>2020-08-22 09:22:01</time>
      </trkpt>
      <trkpt lat="41.203" lon="1.08435">
        <ele>420.8</ele>
        <time>2020-08-22 09:22:02</time>
      </trkpt>
      <trkpt lat="41.203" lon="1.08432">
        <ele>420.8</ele>
        <time>2020-08-22 09:22:03</time>
      </trkpt>
      <trkpt lat="41.20302" lon="1.0843">
        <ele>420.8</ele>
        <time>2020-08-22 09:22:04</time>
      </trkpt>
      <trkpt lat="41.20304" lon="1.08428">
        <ele>421</ele>
        <time>2020-08-22 09:22:05</time>
      </trkpt>
      <trkpt lat="41.20306" lon="1.08428">
        <ele>421.4</ele>
        <time>2020-08-22 09:22:06</time>
      </trkpt>
      <trkpt lat="41.20308" lon="1.08431">
        <ele>421.6</ele>
        <time>2020-08-22 09:22:07</time>
      </trkpt>
      <trkpt lat="41.2031" lon="1.08434">
        <ele>421.8</ele>
        <time>2020-08-22 09:22:08</time>
      </trkpt>
      <trkpt lat="41.20312" lon="1.08437">
        <ele>422.2</ele>
        <time>2020-08-22 09:22:09</time>
      </trkpt>
      <trkpt lat="41.20315" lon="1.0844">
        <ele>422.2</ele>
        <time>2020-08-22 09:22:10</time>
      </trkpt>
      <trkpt lat="41.20318" lon="1.08442">
        <ele>422.6</ele>
        <time>2020-08-22 09:22:11</time>
      </trkpt>
      <trkpt lat="41.2032" lon="1.08444">
        <ele>422.6</ele>
        <time>2020-08-22 09:22:12</time>
      </trkpt>
      <trkpt lat="41.20322" lon="1.08446">
        <ele>422.6</ele>
        <time>2020-08-22 09:22:13</time>
      </trkpt>
      <trkpt lat="41.20324" lon="1.08448">
        <ele>422.6</ele>
        <time>2020-08-22 09:22:14</time>
      </trkpt>
      <trkpt lat="41.20326" lon="1.0845">
        <ele>422.4</ele>
        <time>2020-08-22 09:22:15</time>
      </trkpt>
      <trkpt lat="41.20327" lon="1.0845">
        <ele>422.2</ele>
        <time>2020-08-22 09:22:16</time>
      </trkpt>
      <trkpt lat="41.20328" lon="1.08448">
        <ele>422</ele>
        <time>2020-08-22 09:22:17</time>
      </trkpt>
      <trkpt lat="41.20329" lon="1.08446">
        <ele>420.8</ele>
        <time>2020-08-22 09:22:18</time>
      </trkpt>
      <trkpt lat="41.20332" lon="1.08445">
        <ele>420.4</ele>
        <time>2020-08-22 09:22:19</time>
      </trkpt>
      <trkpt lat="41.20335" lon="1.08445">
        <ele>419.4</ele>
        <time>2020-08-22 09:22:20</time>
      </trkpt>
      <trkpt lat="41.20339" lon="1.08445">
        <ele>419</ele>
        <time>2020-08-22 09:22:21</time>
      </trkpt>
      <trkpt lat="41.20344" lon="1.08441">
        <ele>417.6</ele>
        <time>2020-08-22 09:22:22</time>
      </trkpt>
      <trkpt lat="41.20349" lon="1.08437">
        <ele>416.6</ele>
        <time>2020-08-22 09:22:23</time>
      </trkpt>
      <trkpt lat="41.20355" lon="1.08432">
        <ele>415.4</ele>
        <time>2020-08-22 09:22:24</time>
      </trkpt>
      <trkpt lat="41.20371" lon="1.08418">
        <ele>414</ele>
        <time>2020-08-22 09:22:26</time>
      </trkpt>
      <trkpt lat="41.20377" lon="1.08415">
        <ele>412.2</ele>
        <time>2020-08-22 09:22:27</time>
      </trkpt>
      <trkpt lat="41.20384" lon="1.08411">
        <ele>411.8</ele>
        <time>2020-08-22 09:22:28</time>
      </trkpt>
      <trkpt lat="41.2039" lon="1.08412">
        <ele>410.4</ele>
        <time>2020-08-22 09:22:29</time>
      </trkpt>
      <trkpt lat="41.20396" lon="1.08417">
        <ele>410.2</ele>
        <time>2020-08-22 09:22:30</time>
      </trkpt>
      <trkpt lat="41.20403" lon="1.08423">
        <ele>409.2</ele>
        <time>2020-08-22 09:22:31</time>
      </trkpt>
      <trkpt lat="41.20408" lon="1.08426">
        <ele>408.8</ele>
        <time>2020-08-22 09:22:32</time>
      </trkpt>
      <trkpt lat="41.20415" lon="1.08431">
        <ele>407.4</ele>
        <time>2020-08-22 09:22:33</time>
      </trkpt>
      <trkpt lat="41.20422" lon="1.08437">
        <ele>406.8</ele>
        <time>2020-08-22 09:22:34</time>
      </trkpt>
      <trkpt lat="41.20427" lon="1.08443">
        <ele>406.4</ele>
        <time>2020-08-22 09:22:35</time>
      </trkpt>
      <trkpt lat="41.20431" lon="1.08449">
        <ele>406</ele>
        <time>2020-08-22 09:22:36</time>
      </trkpt>
      <trkpt lat="41.20434" lon="1.08454">
        <ele>406</ele>
        <time>2020-08-22 09:22:37</time>
      </trkpt>
      <trkpt lat="41.20436" lon="1.08459">
        <ele>406</ele>
        <time>2020-08-22 09:22:38</time>
      </trkpt>
      <trkpt lat="41.20438" lon="1.08466">
        <ele>406</ele>
        <time>2020-08-22 09:22:39</time>
      </trkpt>
      <trkpt lat="41.20438" lon="1.08471">
        <ele>405.8</ele>
        <time>2020-08-22 09:22:40</time>
      </trkpt>
      <trkpt lat="41.20439" lon="1.08477">
        <ele>405.8</ele>
        <time>2020-08-22 09:22:41</time>
      </trkpt>
      <trkpt lat="41.2044" lon="1.08482">
        <ele>406.4</ele>
        <time>2020-08-22 09:22:42</time>
      </trkpt>
      <trkpt lat="41.20442" lon="1.08487">
        <ele>406.8</ele>
        <time>2020-08-22 09:22:43</time>
      </trkpt>
      <trkpt lat="41.20445" lon="1.08493">
        <ele>407.4</ele>
        <time>2020-08-22 09:22:44</time>
      </trkpt>
      <trkpt lat="41.20447" lon="1.08498">
        <ele>408</ele>
        <time>2020-08-22 09:22:45</time>
      </trkpt>
      <trkpt lat="41.20449" lon="1.08504">
        <ele>408.6</ele>
        <time>2020-08-22 09:22:46</time>
      </trkpt>
      <trkpt lat="41.20451" lon="1.08508">
        <ele>409.2</ele>
        <time>2020-08-22 09:22:47</time>
      </trkpt>
      <trkpt lat="41.20453" lon="1.08515">
        <ele>409.4</ele>
        <time>2020-08-22 09:22:48</time>
      </trkpt>
      <trkpt lat="41.20454" lon="1.0852">
        <ele>409.6</ele>
        <time>2020-08-22 09:22:49</time>
      </trkpt>
      <trkpt lat="41.20456" lon="1.08526">
        <ele>409.8</ele>
        <time>2020-08-22 09:22:50</time>
      </trkpt>
      <trkpt lat="41.20458" lon="1.08532">
        <ele>409.8</ele>
        <time>2020-08-22 09:22:51</time>
      </trkpt>
      <trkpt lat="41.2046" lon="1.08536">
        <ele>410</ele>
        <time>2020-08-22 09:22:52</time>
      </trkpt>
      <trkpt lat="41.20462" lon="1.08542">
        <ele>410</ele>
        <time>2020-08-22 09:22:53</time>
      </trkpt>
      <trkpt lat="41.20463" lon="1.08547">
        <ele>410.2</ele>
        <time>2020-08-22 09:22:54</time>
      </trkpt>
      <trkpt lat="41.20464" lon="1.08551">
        <ele>410.2</ele>
        <time>2020-08-22 09:22:55</time>
      </trkpt>
      <trkpt lat="41.20463" lon="1.08558">
        <ele>410.2</ele>
        <time>2020-08-22 09:22:56</time>
      </trkpt>
      <trkpt lat="41.20463" lon="1.08563">
        <ele>410.4</ele>
        <time>2020-08-22 09:22:57</time>
      </trkpt>
      <trkpt lat="41.20462" lon="1.08568">
        <ele>410.4</ele>
        <time>2020-08-22 09:22:58</time>
      </trkpt>
      <trkpt lat="41.20463" lon="1.08573">
        <ele>410.4</ele>
        <time>2020-08-22 09:22:59</time>
      </trkpt>
      <trkpt lat="41.20463" lon="1.08577">
        <ele>410.6</ele>
        <time>2020-08-22 09:23:00</time>
      </trkpt>
      <trkpt lat="41.20464" lon="1.08581">
        <ele>411</ele>
        <time>2020-08-22 09:23:01</time>
      </trkpt>
      <trkpt lat="41.20465" lon="1.08586">
        <ele>411.4</ele>
        <time>2020-08-22 09:23:02</time>
      </trkpt>
      <trkpt lat="41.20465" lon="1.08592">
        <ele>411.6</ele>
        <time>2020-08-22 09:23:03</time>
      </trkpt>
      <trkpt lat="41.20466" lon="1.08598">
        <ele>411.6</ele>
        <time>2020-08-22 09:23:04</time>
      </trkpt>
      <trkpt lat="41.20466" lon="1.08603">
        <ele>412</ele>
        <time>2020-08-22 09:23:05</time>
      </trkpt>
      <trkpt lat="41.20467" lon="1.08607">
        <ele>412</ele>
        <time>2020-08-22 09:23:06</time>
      </trkpt>
      <trkpt lat="41.20467" lon="1.08612">
        <ele>412.2</ele>
        <time>2020-08-22 09:23:07</time>
      </trkpt>
      <trkpt lat="41.20468" lon="1.08616">
        <ele>412.4</ele>
        <time>2020-08-22 09:23:08</time>
      </trkpt>
      <trkpt lat="41.20469" lon="1.08622">
        <ele>412.4</ele>
        <time>2020-08-22 09:23:09</time>
      </trkpt>
      <trkpt lat="41.2047" lon="1.08627">
        <ele>412.6</ele>
        <time>2020-08-22 09:23:10</time>
      </trkpt>
      <trkpt lat="41.20471" lon="1.08631">
        <ele>412.6</ele>
        <time>2020-08-22 09:23:11</time>
      </trkpt>
      <trkpt lat="41.20471" lon="1.08635">
        <ele>412.8</ele>
        <time>2020-08-22 09:23:12</time>
      </trkpt>
      <trkpt lat="41.20471" lon="1.08639">
        <ele>413</ele>
        <time>2020-08-22 09:23:13</time>
      </trkpt>
      <trkpt lat="41.20472" lon="1.08645">
        <ele>413.6</ele>
        <time>2020-08-22 09:23:14</time>
      </trkpt>
      <trkpt lat="41.20472" lon="1.0865">
        <ele>413.6</ele>
        <time>2020-08-22 09:23:15</time>
      </trkpt>
      <trkpt lat="41.20472" lon="1.08656">
        <ele>413.8</ele>
        <time>2020-08-22 09:23:16</time>
      </trkpt>
      <trkpt lat="41.20472" lon="1.08662">
        <ele>413.8</ele>
        <time>2020-08-22 09:23:17</time>
      </trkpt>
      <trkpt lat="41.20472" lon="1.08669">
        <ele>413.8</ele>
        <time>2020-08-22 09:23:18</time>
      </trkpt>
      <trkpt lat="41.20473" lon="1.08677">
        <ele>413.8</ele>
        <time>2020-08-22 09:23:19</time>
      </trkpt>
      <trkpt lat="41.20474" lon="1.08683">
        <ele>413.8</ele>
        <time>2020-08-22 09:23:20</time>
      </trkpt>
      <trkpt lat="41.20476" lon="1.08688">
        <ele>413.6</ele>
        <time>2020-08-22 09:23:21</time>
      </trkpt>
      <trkpt lat="41.20477" lon="1.08692">
        <ele>413.6</ele>
        <time>2020-08-22 09:23:22</time>
      </trkpt>
      <trkpt lat="41.20479" lon="1.08697">
        <ele>413.6</ele>
        <time>2020-08-22 09:23:23</time>
      </trkpt>
      <trkpt lat="41.20481" lon="1.08703">
        <ele>413.6</ele>
        <time>2020-08-22 09:23:24</time>
      </trkpt>
      <trkpt lat="41.20483" lon="1.08714">
        <ele>413.4</ele>
        <time>2020-08-22 09:23:26</time>
      </trkpt>
      <trkpt lat="41.20483" lon="1.08718">
        <ele>413.6</ele>
        <time>2020-08-22 09:23:27</time>
      </trkpt>
      <trkpt lat="41.20483" lon="1.08723">
        <ele>413.6</ele>
        <time>2020-08-22 09:23:28</time>
      </trkpt>
      <trkpt lat="41.20483" lon="1.0873">
        <ele>413.8</ele>
        <time>2020-08-22 09:23:29</time>
      </trkpt>
      <trkpt lat="41.20482" lon="1.08736">
        <ele>414.2</ele>
        <time>2020-08-22 09:23:30</time>
      </trkpt>
      <trkpt lat="41.20482" lon="1.0874">
        <ele>414.2</ele>
        <time>2020-08-22 09:23:31</time>
      </trkpt>
      <trkpt lat="41.20481" lon="1.08746">
        <ele>414.8</ele>
        <time>2020-08-22 09:23:32</time>
      </trkpt>
      <trkpt lat="41.20482" lon="1.08752">
        <ele>415</ele>
        <time>2020-08-22 09:23:33</time>
      </trkpt>
      <trkpt lat="41.20483" lon="1.08756">
        <ele>415.2</ele>
        <time>2020-08-22 09:23:34</time>
      </trkpt>
      <trkpt lat="41.20484" lon="1.0876">
        <ele>415.8</ele>
        <time>2020-08-22 09:23:35</time>
      </trkpt>
      <trkpt lat="41.20484" lon="1.08764">
        <ele>416</ele>
        <time>2020-08-22 09:23:36</time>
      </trkpt>
      <trkpt lat="41.20485" lon="1.08768">
        <ele>416.2</ele>
        <time>2020-08-22 09:23:37</time>
      </trkpt>
      <trkpt lat="41.20484" lon="1.08774">
        <ele>416.2</ele>
        <time>2020-08-22 09:23:38</time>
      </trkpt>
      <trkpt lat="41.20481" lon="1.08779">
        <ele>416.4</ele>
        <time>2020-08-22 09:23:39</time>
      </trkpt>
      <trkpt lat="41.20478" lon="1.08785">
        <ele>416.4</ele>
        <time>2020-08-22 09:23:40</time>
      </trkpt>
      <trkpt lat="41.20473" lon="1.0879">
        <ele>416.4</ele>
        <time>2020-08-22 09:23:41</time>
      </trkpt>
      <trkpt lat="41.20469" lon="1.08795">
        <ele>416.4</ele>
        <time>2020-08-22 09:23:42</time>
      </trkpt>
      <trkpt lat="41.20465" lon="1.08802">
        <ele>416.2</ele>
        <time>2020-08-22 09:23:43</time>
      </trkpt>
      <trkpt lat="41.20463" lon="1.08808">
        <ele>415.8</ele>
        <time>2020-08-22 09:23:44</time>
      </trkpt>
      <trkpt lat="41.20461" lon="1.08814">
        <ele>415.6</ele>
        <time>2020-08-22 09:23:45</time>
      </trkpt>
      <trkpt lat="41.2046" lon="1.08819">
        <ele>415.2</ele>
        <time>2020-08-22 09:23:46</time>
      </trkpt>
      <trkpt lat="41.20461" lon="1.08824">
        <ele>415</ele>
        <time>2020-08-22 09:23:47</time>
      </trkpt>
      <trkpt lat="41.20462" lon="1.08829">
        <ele>414.8</ele>
        <time>2020-08-22 09:23:48</time>
      </trkpt>
      <trkpt lat="41.20461" lon="1.08837">
        <ele>414.6</ele>
        <time>2020-08-22 09:23:49</time>
      </trkpt>
      <trkpt lat="41.2046" lon="1.08843">
        <ele>414</ele>
        <time>2020-08-22 09:23:50</time>
      </trkpt>
      <trkpt lat="41.2046" lon="1.08851">
        <ele>413.6</ele>
        <time>2020-08-22 09:23:51</time>
      </trkpt>
      <trkpt lat="41.20459" lon="1.08859">
        <ele>413.4</ele>
        <time>2020-08-22 09:23:52</time>
      </trkpt>
      <trkpt lat="41.20454" lon="1.08878">
        <ele>412.8</ele>
        <time>2020-08-22 09:23:54</time>
      </trkpt>
      <trkpt lat="41.20454" lon="1.08886">
        <ele>412.4</ele>
        <time>2020-08-22 09:23:55</time>
      </trkpt>
      <trkpt lat="41.20454" lon="1.08893">
        <ele>412</ele>
        <time>2020-08-22 09:23:56</time>
      </trkpt>
      <trkpt lat="41.20454" lon="1.08902">
        <ele>410.6</ele>
        <time>2020-08-22 09:23:57</time>
      </trkpt>
      <trkpt lat="41.20455" lon="1.0891">
        <ele>410</ele>
        <time>2020-08-22 09:23:58</time>
      </trkpt>
      <trkpt lat="41.20456" lon="1.08917">
        <ele>409</ele>
        <time>2020-08-22 09:23:59</time>
      </trkpt>
      <trkpt lat="41.20457" lon="1.08925">
        <ele>408.6</ele>
        <time>2020-08-22 09:24:00</time>
      </trkpt>
      <trkpt lat="41.20458" lon="1.08933">
        <ele>408.4</ele>
        <time>2020-08-22 09:24:01</time>
      </trkpt>
      <trkpt lat="41.20459" lon="1.0894">
        <ele>407.4</ele>
        <time>2020-08-22 09:24:02</time>
      </trkpt>
      <trkpt lat="41.2046" lon="1.08947">
        <ele>407.2</ele>
        <time>2020-08-22 09:24:03</time>
      </trkpt>
      <trkpt lat="41.2046" lon="1.08952">
        <ele>406.2</ele>
        <time>2020-08-22 09:24:04</time>
      </trkpt>
      <trkpt lat="41.20462" lon="1.08957">
        <ele>404.8</ele>
        <time>2020-08-22 09:24:05</time>
      </trkpt>
      <trkpt lat="41.20463" lon="1.08962">
        <ele>401.8</ele>
        <time>2020-08-22 09:24:06</time>
      </trkpt>
      <trkpt lat="41.20465" lon="1.08967">
        <ele>400.6</ele>
        <time>2020-08-22 09:24:07</time>
      </trkpt>
      <trkpt lat="41.20466" lon="1.08973">
        <ele>398.2</ele>
        <time>2020-08-22 09:24:08</time>
      </trkpt>
      <trkpt lat="41.20466" lon="1.0898">
        <ele>395.8</ele>
        <time>2020-08-22 09:24:09</time>
      </trkpt>
      <trkpt lat="41.20467" lon="1.08993">
        <ele>394.6</ele>
        <time>2020-08-22 09:24:11</time>
      </trkpt>
      <trkpt lat="41.20468" lon="1.08998">
        <ele>393.8</ele>
        <time>2020-08-22 09:24:12</time>
      </trkpt>
      <trkpt lat="41.2047" lon="1.09005">
        <ele>392.4</ele>
        <time>2020-08-22 09:24:13</time>
      </trkpt>
      <trkpt lat="41.20472" lon="1.09013">
        <ele>391.6</ele>
        <time>2020-08-22 09:24:14</time>
      </trkpt>
      <trkpt lat="41.20473" lon="1.09021">
        <ele>389.6</ele>
        <time>2020-08-22 09:24:15</time>
      </trkpt>
      <trkpt lat="41.20474" lon="1.09029">
        <ele>388.2</ele>
        <time>2020-08-22 09:24:16</time>
      </trkpt>
      <trkpt lat="41.20475" lon="1.09034">
        <ele>387.8</ele>
        <time>2020-08-22 09:24:17</time>
      </trkpt>
      <trkpt lat="41.20475" lon="1.09038">
        <ele>386.4</ele>
        <time>2020-08-22 09:24:18</time>
      </trkpt>
      <trkpt lat="41.20474" lon="1.09043">
        <ele>385.6</ele>
        <time>2020-08-22 09:24:19</time>
      </trkpt>
      <trkpt lat="41.20474" lon="1.09047">
        <ele>382.6</ele>
        <time>2020-08-22 09:24:20</time>
      </trkpt>
      <trkpt lat="41.20475" lon="1.09052">
        <ele>381.6</ele>
        <time>2020-08-22 09:24:21</time>
      </trkpt>
      <trkpt lat="41.20476" lon="1.09056">
        <ele>380.4</ele>
        <time>2020-08-22 09:24:22</time>
      </trkpt>
      <trkpt lat="41.20477" lon="1.0906">
        <ele>380</ele>
        <time>2020-08-22 09:24:23</time>
      </trkpt>
      <trkpt lat="41.20479" lon="1.09063">
        <ele>378.8</ele>
        <time>2020-08-22 09:24:24</time>
      </trkpt>
      <trkpt lat="41.20481" lon="1.09067">
        <ele>377.8</ele>
        <time>2020-08-22 09:24:25</time>
      </trkpt>
      <trkpt lat="41.20483" lon="1.09069">
        <ele>377.2</ele>
        <time>2020-08-22 09:24:26</time>
      </trkpt>
      <trkpt lat="41.20486" lon="1.09071">
        <ele>375.4</ele>
        <time>2020-08-22 09:24:27</time>
      </trkpt>
      <trkpt lat="41.20488" lon="1.0907">
        <ele>374.8</ele>
        <time>2020-08-22 09:24:28</time>
      </trkpt>
      <trkpt lat="41.2049" lon="1.09068">
        <ele>373.2</ele>
        <time>2020-08-22 09:24:29</time>
      </trkpt>
      <trkpt lat="41.20492" lon="1.09064">
        <ele>372.4</ele>
        <time>2020-08-22 09:24:30</time>
      </trkpt>
      <trkpt lat="41.20494" lon="1.0906">
        <ele>370.4</ele>
        <time>2020-08-22 09:24:31</time>
      </trkpt>
      <trkpt lat="41.205" lon="1.09052">
        <ele>369.4</ele>
        <time>2020-08-22 09:24:33</time>
      </trkpt>
      <trkpt lat="41.20506" lon="1.09045">
        <ele>369.2</ele>
        <time>2020-08-22 09:24:35</time>
      </trkpt>
      <trkpt lat="41.20509" lon="1.09042">
        <ele>369.2</ele>
        <time>2020-08-22 09:24:36</time>
      </trkpt>
      <trkpt lat="41.20512" lon="1.09039">
        <ele>369</ele>
        <time>2020-08-22 09:24:37</time>
      </trkpt>
      <trkpt lat="41.20516" lon="1.09037">
        <ele>369</ele>
        <time>2020-08-22 09:24:38</time>
      </trkpt>
      <trkpt lat="41.20524" lon="1.09034">
        <ele>369.2</ele>
        <time>2020-08-22 09:24:40</time>
      </trkpt>
      <trkpt lat="41.20535" lon="1.0903">
        <ele>369.6</ele>
        <time>2020-08-22 09:24:43</time>
      </trkpt>
      <trkpt lat="41.20538" lon="1.0903">
        <ele>369.8</ele>
        <time>2020-08-22 09:24:44</time>
      </trkpt>
      <trkpt lat="41.20542" lon="1.09031">
        <ele>370</ele>
        <time>2020-08-22 09:24:45</time>
      </trkpt>
      <trkpt lat="41.20549" lon="1.09032">
        <ele>370</ele>
        <time>2020-08-22 09:24:47</time>
      </trkpt>
      <trkpt lat="41.20552" lon="1.09032">
        <ele>370</ele>
        <time>2020-08-22 09:24:48</time>
      </trkpt>
      <trkpt lat="41.20555" lon="1.09031">
        <ele>370</ele>
        <time>2020-08-22 09:24:49</time>
      </trkpt>
      <trkpt lat="41.20559" lon="1.09031">
        <ele>370</ele>
        <time>2020-08-22 09:24:50</time>
      </trkpt>
      <trkpt lat="41.20561" lon="1.0903">
        <ele>370.2</ele>
        <time>2020-08-22 09:24:51</time>
      </trkpt>
      <trkpt lat="41.20564" lon="1.09031">
        <ele>370.2</ele>
        <time>2020-08-22 09:24:52</time>
      </trkpt>
      <trkpt lat="41.20566" lon="1.09031">
        <ele>370.2</ele>
        <time>2020-08-22 09:24:53</time>
      </trkpt>
      <trkpt lat="41.2057" lon="1.09032">
        <ele>370.2</ele>
        <time>2020-08-22 09:24:54</time>
      </trkpt>
      <trkpt lat="41.20573" lon="1.09032">
        <ele>370.2</ele>
        <time>2020-08-22 09:24:55</time>
      </trkpt>
      <trkpt lat="41.20575" lon="1.09033">
        <ele>370.2</ele>
        <time>2020-08-22 09:24:56</time>
      </trkpt>
      <trkpt lat="41.20578" lon="1.09033">
        <ele>370.2</ele>
        <time>2020-08-22 09:24:57</time>
      </trkpt>
      <trkpt lat="41.20582" lon="1.09034">
        <ele>370.4</ele>
        <time>2020-08-22 09:24:58</time>
      </trkpt>
      <trkpt lat="41.20584" lon="1.09036">
        <ele>370.4</ele>
        <time>2020-08-22 09:24:59</time>
      </trkpt>
      <trkpt lat="41.20586" lon="1.09038">
        <ele>370.4</ele>
        <time>2020-08-22 09:25:00</time>
      </trkpt>
      <trkpt lat="41.20586" lon="1.0904">
        <ele>370.4</ele>
        <time>2020-08-22 09:25:01</time>
      </trkpt>
      <trkpt lat="41.20591" lon="1.09043">
        <ele>370.6</ele>
        <time>2020-08-22 09:25:03</time>
      </trkpt>
      <trkpt lat="41.20594" lon="1.09043">
        <ele>370.8</ele>
        <time>2020-08-22 09:25:04</time>
      </trkpt>
      <trkpt lat="41.20597" lon="1.09044">
        <ele>370.8</ele>
        <time>2020-08-22 09:25:05</time>
      </trkpt>
      <trkpt lat="41.206" lon="1.09046">
        <ele>370.8</ele>
        <time>2020-08-22 09:25:06</time>
      </trkpt>
      <trkpt lat="41.20603" lon="1.09049">
        <ele>371</ele>
        <time>2020-08-22 09:25:07</time>
      </trkpt>
      <trkpt lat="41.20606" lon="1.09051">
        <ele>371</ele>
        <time>2020-08-22 09:25:08</time>
      </trkpt>
      <trkpt lat="41.20609" lon="1.09052">
        <ele>371</ele>
        <time>2020-08-22 09:25:09</time>
      </trkpt>
      <trkpt lat="41.20611" lon="1.0905">
        <ele>371</ele>
        <time>2020-08-22 09:25:10</time>
      </trkpt>
      <trkpt lat="41.20612" lon="1.09048">
        <ele>371</ele>
        <time>2020-08-22 09:25:11</time>
      </trkpt>
      <trkpt lat="41.20615" lon="1.09046">
        <ele>371</ele>
        <time>2020-08-22 09:25:12</time>
      </trkpt>
      <trkpt lat="41.20618" lon="1.09045">
        <ele>371</ele>
        <time>2020-08-22 09:25:13</time>
      </trkpt>
      <trkpt lat="41.20621" lon="1.09045">
        <ele>371.2</ele>
        <time>2020-08-22 09:25:14</time>
      </trkpt>
      <trkpt lat="41.20624" lon="1.09046">
        <ele>371.6</ele>
        <time>2020-08-22 09:25:15</time>
      </trkpt>
      <trkpt lat="41.20628" lon="1.09046">
        <ele>372</ele>
        <time>2020-08-22 09:25:16</time>
      </trkpt>
      <trkpt lat="41.20631" lon="1.09048">
        <ele>372.4</ele>
        <time>2020-08-22 09:25:17</time>
      </trkpt>
      <trkpt lat="41.20635" lon="1.09048">
        <ele>372.6</ele>
        <time>2020-08-22 09:25:18</time>
      </trkpt>
      <trkpt lat="41.20638" lon="1.09047">
        <ele>373</ele>
        <time>2020-08-22 09:25:19</time>
      </trkpt>
      <trkpt lat="41.2064" lon="1.09045">
        <ele>373</ele>
        <time>2020-08-22 09:25:20</time>
      </trkpt>
      <trkpt lat="41.20642" lon="1.09042">
        <ele>373.2</ele>
        <time>2020-08-22 09:25:21</time>
      </trkpt>
      <trkpt lat="41.20644" lon="1.0904">
        <ele>373.4</ele>
        <time>2020-08-22 09:25:22</time>
      </trkpt>
      <trkpt lat="41.20646" lon="1.09037">
        <ele>373.8</ele>
        <time>2020-08-22 09:25:23</time>
      </trkpt>
      <trkpt lat="41.20648" lon="1.09035">
        <ele>374</ele>
        <time>2020-08-22 09:25:24</time>
      </trkpt>
      <trkpt lat="41.2065" lon="1.09033">
        <ele>374.4</ele>
        <time>2020-08-22 09:25:25</time>
      </trkpt>
      <trkpt lat="41.20652" lon="1.09029">
        <ele>374.8</ele>
        <time>2020-08-22 09:25:26</time>
      </trkpt>
      <trkpt lat="41.20653" lon="1.09027">
        <ele>374.8</ele>
        <time>2020-08-22 09:25:27</time>
      </trkpt>
      <trkpt lat="41.20656" lon="1.09024">
        <ele>374.8</ele>
        <time>2020-08-22 09:25:28</time>
      </trkpt>
      <trkpt lat="41.20659" lon="1.09023">
        <ele>375</ele>
        <time>2020-08-22 09:25:29</time>
      </trkpt>
      <trkpt lat="41.20661" lon="1.09022">
        <ele>375.4</ele>
        <time>2020-08-22 09:25:30</time>
      </trkpt>
      <trkpt lat="41.20663" lon="1.0902">
        <ele>375.6</ele>
        <time>2020-08-22 09:25:31</time>
      </trkpt>
      <trkpt lat="41.20665" lon="1.09018">
        <ele>376</ele>
        <time>2020-08-22 09:25:32</time>
      </trkpt>
      <trkpt lat="41.20667" lon="1.09016">
        <ele>376.4</ele>
        <time>2020-08-22 09:25:33</time>
      </trkpt>
      <trkpt lat="41.20669" lon="1.09014">
        <ele>376.6</ele>
        <time>2020-08-22 09:25:34</time>
      </trkpt>
      <trkpt lat="41.20672" lon="1.09012">
        <ele>377</ele>
        <time>2020-08-22 09:25:35</time>
      </trkpt>
      <trkpt lat="41.20673" lon="1.0901">
        <ele>377.4</ele>
        <time>2020-08-22 09:25:36</time>
      </trkpt>
      <trkpt lat="41.20675" lon="1.09008">
        <ele>378</ele>
        <time>2020-08-22 09:25:37</time>
      </trkpt>
      <trkpt lat="41.20676" lon="1.09006">
        <ele>378.2</ele>
        <time>2020-08-22 09:25:38</time>
      </trkpt>
      <trkpt lat="41.20679" lon="1.09006">
        <ele>378.8</ele>
        <time>2020-08-22 09:25:39</time>
      </trkpt>
      <trkpt lat="41.20681" lon="1.09004">
        <ele>379</ele>
        <time>2020-08-22 09:25:40</time>
      </trkpt>
      <trkpt lat="41.20683" lon="1.09002">
        <ele>379.6</ele>
        <time>2020-08-22 09:25:41</time>
      </trkpt>
      <trkpt lat="41.20684" lon="1.09">
        <ele>380</ele>
        <time>2020-08-22 09:25:42</time>
      </trkpt>
      <trkpt lat="41.20686" lon="1.08998">
        <ele>380</ele>
        <time>2020-08-22 09:25:43</time>
      </trkpt>
      <trkpt lat="41.20687" lon="1.08996">
        <ele>380.6</ele>
        <time>2020-08-22 09:25:44</time>
      </trkpt>
      <trkpt lat="41.20689" lon="1.08993">
        <ele>381</ele>
        <time>2020-08-22 09:25:45</time>
      </trkpt>
      <trkpt lat="41.2069" lon="1.08991">
        <ele>381.2</ele>
        <time>2020-08-22 09:25:46</time>
      </trkpt>
      <trkpt lat="41.20691" lon="1.08988">
        <ele>381.4</ele>
        <time>2020-08-22 09:25:47</time>
      </trkpt>
      <trkpt lat="41.20692" lon="1.08986">
        <ele>381.6</ele>
        <time>2020-08-22 09:25:48</time>
      </trkpt>
      <trkpt lat="41.20693" lon="1.08983">
        <ele>381.8</ele>
        <time>2020-08-22 09:25:49</time>
      </trkpt>
      <trkpt lat="41.20693" lon="1.08981">
        <ele>381.8</ele>
        <time>2020-08-22 09:25:50</time>
      </trkpt>
      <trkpt lat="41.20694" lon="1.08978">
        <ele>382.2</ele>
        <time>2020-08-22 09:25:51</time>
      </trkpt>
      <trkpt lat="41.20695" lon="1.08975">
        <ele>382.6</ele>
        <time>2020-08-22 09:25:52</time>
      </trkpt>
      <trkpt lat="41.20696" lon="1.08973">
        <ele>383</ele>
        <time>2020-08-22 09:25:53</time>
      </trkpt>
      <trkpt lat="41.20697" lon="1.08971">
        <ele>383.2</ele>
        <time>2020-08-22 09:25:54</time>
      </trkpt>
      <trkpt lat="41.20697" lon="1.08968">
        <ele>383.6</ele>
        <time>2020-08-22 09:25:55</time>
      </trkpt>
      <trkpt lat="41.20698" lon="1.08966">
        <ele>383.8</ele>
        <time>2020-08-22 09:25:56</time>
      </trkpt>
      <trkpt lat="41.207" lon="1.08963">
        <ele>384.2</ele>
        <time>2020-08-22 09:25:57</time>
      </trkpt>
      <trkpt lat="41.207" lon="1.08961">
        <ele>384.4</ele>
        <time>2020-08-22 09:25:58</time>
      </trkpt>
      <trkpt lat="41.20701" lon="1.08958">
        <ele>384.8</ele>
        <time>2020-08-22 09:25:59</time>
      </trkpt>
      <trkpt lat="41.20702" lon="1.08956">
        <ele>385.4</ele>
        <time>2020-08-22 09:26:00</time>
      </trkpt>
      <trkpt lat="41.20703" lon="1.08954">
        <ele>385.6</ele>
        <time>2020-08-22 09:26:01</time>
      </trkpt>
      <trkpt lat="41.20705" lon="1.08952">
        <ele>386</ele>
        <time>2020-08-22 09:26:02</time>
      </trkpt>
      <trkpt lat="41.20706" lon="1.0895">
        <ele>386.2</ele>
        <time>2020-08-22 09:26:03</time>
      </trkpt>
      <trkpt lat="41.20708" lon="1.08949">
        <ele>386.6</ele>
        <time>2020-08-22 09:26:04</time>
      </trkpt>
      <trkpt lat="41.2071" lon="1.08949">
        <ele>386.8</ele>
        <time>2020-08-22 09:26:05</time>
      </trkpt>
      <trkpt lat="41.20712" lon="1.08948">
        <ele>387.2</ele>
        <time>2020-08-22 09:26:06</time>
      </trkpt>
      <trkpt lat="41.20715" lon="1.08946">
        <ele>387.6</ele>
        <time>2020-08-22 09:26:07</time>
      </trkpt>
      <trkpt lat="41.20717" lon="1.08945">
        <ele>387.6</ele>
        <time>2020-08-22 09:26:08</time>
      </trkpt>
      <trkpt lat="41.2072" lon="1.08944">
        <ele>387.8</ele>
        <time>2020-08-22 09:26:09</time>
      </trkpt>
      <trkpt lat="41.20722" lon="1.08943">
        <ele>388</ele>
        <time>2020-08-22 09:26:10</time>
      </trkpt>
      <trkpt lat="41.20724" lon="1.08941">
        <ele>388</ele>
        <time>2020-08-22 09:26:11</time>
      </trkpt>
      <trkpt lat="41.20727" lon="1.0894">
        <ele>388</ele>
        <time>2020-08-22 09:26:12</time>
      </trkpt>
      <trkpt lat="41.2073" lon="1.08939">
        <ele>388</ele>
        <time>2020-08-22 09:26:13</time>
      </trkpt>
      <trkpt lat="41.20733" lon="1.08938">
        <ele>388</ele>
        <time>2020-08-22 09:26:14</time>
      </trkpt>
      <trkpt lat="41.20736" lon="1.08937">
        <ele>388</ele>
        <time>2020-08-22 09:26:15</time>
      </trkpt>
      <trkpt lat="41.2074" lon="1.08936">
        <ele>387.8</ele>
        <time>2020-08-22 09:26:16</time>
      </trkpt>
      <trkpt lat="41.20744" lon="1.08934">
        <ele>387.8</ele>
        <time>2020-08-22 09:26:17</time>
      </trkpt>
      <trkpt lat="41.20748" lon="1.08931">
        <ele>387.8</ele>
        <time>2020-08-22 09:26:18</time>
      </trkpt>
      <trkpt lat="41.20751" lon="1.08931">
        <ele>387.8</ele>
        <time>2020-08-22 09:26:19</time>
      </trkpt>
      <trkpt lat="41.20755" lon="1.08934">
        <ele>387.6</ele>
        <time>2020-08-22 09:26:20</time>
      </trkpt>
      <trkpt lat="41.20758" lon="1.08938">
        <ele>387.6</ele>
        <time>2020-08-22 09:26:21</time>
      </trkpt>
      <trkpt lat="41.2076" lon="1.08942">
        <ele>387.6</ele>
        <time>2020-08-22 09:26:22</time>
      </trkpt>
      <trkpt lat="41.2076" lon="1.08945">
        <ele>387.4</ele>
        <time>2020-08-22 09:26:23</time>
      </trkpt>
      <trkpt lat="41.20758" lon="1.08948">
        <ele>387.4</ele>
        <time>2020-08-22 09:26:24</time>
      </trkpt>
      <trkpt lat="41.20756" lon="1.08952">
        <ele>387.4</ele>
        <time>2020-08-22 09:26:25</time>
      </trkpt>
      <trkpt lat="41.2075" lon="1.08962">
        <ele>387.4</ele>
        <time>2020-08-22 09:26:28</time>
      </trkpt>
      <trkpt lat="41.20747" lon="1.08969">
        <ele>387.6</ele>
        <time>2020-08-22 09:26:30</time>
      </trkpt>
      <trkpt lat="41.20746" lon="1.08973">
        <ele>387.8</ele>
        <time>2020-08-22 09:26:31</time>
      </trkpt>
      <trkpt lat="41.20746" lon="1.08978">
        <ele>388</ele>
        <time>2020-08-22 09:26:32</time>
      </trkpt>
      <trkpt lat="41.20746" lon="1.08986">
        <ele>388.4</ele>
        <time>2020-08-22 09:26:34</time>
      </trkpt>
      <trkpt lat="41.20747" lon="1.0899">
        <ele>388.6</ele>
        <time>2020-08-22 09:26:35</time>
      </trkpt>
      <trkpt lat="41.20748" lon="1.08995">
        <ele>389.2</ele>
        <time>2020-08-22 09:26:36</time>
      </trkpt>
      <trkpt lat="41.2075" lon="1.08998">
        <ele>389.2</ele>
        <time>2020-08-22 09:26:37</time>
      </trkpt>
      <trkpt lat="41.20752" lon="1.09001">
        <ele>389.6</ele>
        <time>2020-08-22 09:26:38</time>
      </trkpt>
      <trkpt lat="41.20754" lon="1.09004">
        <ele>389.6</ele>
        <time>2020-08-22 09:26:39</time>
      </trkpt>
      <trkpt lat="41.20757" lon="1.09007">
        <ele>389.8</ele>
        <time>2020-08-22 09:26:40</time>
      </trkpt>
      <trkpt lat="41.20759" lon="1.09009">
        <ele>390.2</ele>
        <time>2020-08-22 09:26:41</time>
      </trkpt>
      <trkpt lat="41.20762" lon="1.09012">
        <ele>390.4</ele>
        <time>2020-08-22 09:26:42</time>
      </trkpt>
      <trkpt lat="41.20765" lon="1.09014">
        <ele>391</ele>
        <time>2020-08-22 09:26:43</time>
      </trkpt>
      <trkpt lat="41.20768" lon="1.09015">
        <ele>391.4</ele>
        <time>2020-08-22 09:26:44</time>
      </trkpt>
      <trkpt lat="41.20771" lon="1.09017">
        <ele>391.6</ele>
        <time>2020-08-22 09:26:45</time>
      </trkpt>
      <trkpt lat="41.20773" lon="1.0902">
        <ele>391.8</ele>
        <time>2020-08-22 09:26:46</time>
      </trkpt>
      <trkpt lat="41.20776" lon="1.09022">
        <ele>392.4</ele>
        <time>2020-08-22 09:26:47</time>
      </trkpt>
      <trkpt lat="41.20779" lon="1.09024">
        <ele>392.4</ele>
        <time>2020-08-22 09:26:48</time>
      </trkpt>
      <trkpt lat="41.20782" lon="1.09025">
        <ele>392.8</ele>
        <time>2020-08-22 09:26:49</time>
      </trkpt>
      <trkpt lat="41.20785" lon="1.09027">
        <ele>392.8</ele>
        <time>2020-08-22 09:26:50</time>
      </trkpt>
      <trkpt lat="41.20788" lon="1.09029">
        <ele>392.8</ele>
        <time>2020-08-22 09:26:51</time>
      </trkpt>
      <trkpt lat="41.20791" lon="1.09031">
        <ele>393</ele>
        <time>2020-08-22 09:26:52</time>
      </trkpt>
      <trkpt lat="41.20794" lon="1.09033">
        <ele>393</ele>
        <time>2020-08-22 09:26:53</time>
      </trkpt>
      <trkpt lat="41.20797" lon="1.09034">
        <ele>393</ele>
        <time>2020-08-22 09:26:54</time>
      </trkpt>
      <trkpt lat="41.208" lon="1.09036">
        <ele>393</ele>
        <time>2020-08-22 09:26:55</time>
      </trkpt>
      <trkpt lat="41.20804" lon="1.09037">
        <ele>393</ele>
        <time>2020-08-22 09:26:56</time>
      </trkpt>
      <trkpt lat="41.20812" lon="1.0904">
        <ele>393.2</ele>
        <time>2020-08-22 09:26:58</time>
      </trkpt>
      <trkpt lat="41.20828" lon="1.09043">
        <ele>393.2</ele>
        <time>2020-08-22 09:27:02</time>
      </trkpt>
      <trkpt lat="41.20837" lon="1.09045">
        <ele>393.4</ele>
        <time>2020-08-22 09:27:04</time>
      </trkpt>
      <trkpt lat="41.20841" lon="1.09046">
        <ele>393.4</ele>
        <time>2020-08-22 09:27:05</time>
      </trkpt>
      <trkpt lat="41.20854" lon="1.09045">
        <ele>393.4</ele>
        <time>2020-08-22 09:27:08</time>
      </trkpt>
      <trkpt lat="41.20861" lon="1.09043">
        <ele>393.4</ele>
        <time>2020-08-22 09:27:10</time>
      </trkpt>
      <trkpt lat="41.20865" lon="1.09041">
        <ele>393.6</ele>
        <time>2020-08-22 09:27:11</time>
      </trkpt>
      <trkpt lat="41.20868" lon="1.09039">
        <ele>393.8</ele>
        <time>2020-08-22 09:27:12</time>
      </trkpt>
      <trkpt lat="41.20871" lon="1.09037">
        <ele>394</ele>
        <time>2020-08-22 09:27:13</time>
      </trkpt>
      <trkpt lat="41.20875" lon="1.09036">
        <ele>394.6</ele>
        <time>2020-08-22 09:27:14</time>
      </trkpt>
      <trkpt lat="41.20878" lon="1.09035">
        <ele>395</ele>
        <time>2020-08-22 09:27:15</time>
      </trkpt>
      <trkpt lat="41.20882" lon="1.09033">
        <ele>395</ele>
        <time>2020-08-22 09:27:16</time>
      </trkpt>
      <trkpt lat="41.20886" lon="1.09032">
        <ele>395.4</ele>
        <time>2020-08-22 09:27:17</time>
      </trkpt>
      <trkpt lat="41.20889" lon="1.0903">
        <ele>395.6</ele>
        <time>2020-08-22 09:27:18</time>
      </trkpt>
      <trkpt lat="41.20893" lon="1.0903">
        <ele>395.6</ele>
        <time>2020-08-22 09:27:19</time>
      </trkpt>
      <trkpt lat="41.20896" lon="1.09031">
        <ele>395.8</ele>
        <time>2020-08-22 09:27:20</time>
      </trkpt>
      <trkpt lat="41.20899" lon="1.09034">
        <ele>396</ele>
        <time>2020-08-22 09:27:21</time>
      </trkpt>
      <trkpt lat="41.20901" lon="1.09038">
        <ele>396</ele>
        <time>2020-08-22 09:27:22</time>
      </trkpt>
      <trkpt lat="41.20903" lon="1.09043">
        <ele>396</ele>
        <time>2020-08-22 09:27:23</time>
      </trkpt>
      <trkpt lat="41.20902" lon="1.09049">
        <ele>396</ele>
        <time>2020-08-22 09:27:24</time>
      </trkpt>
      <trkpt lat="41.20901" lon="1.09055">
        <ele>396</ele>
        <time>2020-08-22 09:27:25</time>
      </trkpt>
      <trkpt lat="41.20898" lon="1.09059">
        <ele>396</ele>
        <time>2020-08-22 09:27:26</time>
      </trkpt>
      <trkpt lat="41.20893" lon="1.09061">
        <ele>396</ele>
        <time>2020-08-22 09:27:27</time>
      </trkpt>
      <trkpt lat="41.20886" lon="1.09065">
        <ele>395.8</ele>
        <time>2020-08-22 09:27:28</time>
      </trkpt>
      <trkpt lat="41.20882" lon="1.09068">
        <ele>395.8</ele>
        <time>2020-08-22 09:27:29</time>
      </trkpt>
      <trkpt lat="41.20877" lon="1.09075">
        <ele>395.4</ele>
        <time>2020-08-22 09:27:30</time>
      </trkpt>
      <trkpt lat="41.20865" lon="1.091">
        <ele>394.4</ele>
        <time>2020-08-22 09:27:33</time>
      </trkpt>
      <trkpt lat="41.2086" lon="1.09106">
        <ele>394</ele>
        <time>2020-08-22 09:27:34</time>
      </trkpt>
      <trkpt lat="41.20854" lon="1.09109">
        <ele>393.2</ele>
        <time>2020-08-22 09:27:35</time>
      </trkpt>
      <trkpt lat="41.20849" lon="1.09112">
        <ele>393</ele>
        <time>2020-08-22 09:27:36</time>
      </trkpt>
      <trkpt lat="41.20844" lon="1.09115">
        <ele>392.8</ele>
        <time>2020-08-22 09:27:37</time>
      </trkpt>
      <trkpt lat="41.20839" lon="1.09117">
        <ele>392.8</ele>
        <time>2020-08-22 09:27:38</time>
      </trkpt>
      <trkpt lat="41.20834" lon="1.09119">
        <ele>392.6</ele>
        <time>2020-08-22 09:27:39</time>
      </trkpt>
      <trkpt lat="41.20829" lon="1.0912">
        <ele>392.6</ele>
        <time>2020-08-22 09:27:40</time>
      </trkpt>
      <trkpt lat="41.20825" lon="1.09121">
        <ele>392.6</ele>
        <time>2020-08-22 09:27:41</time>
      </trkpt>
      <trkpt lat="41.20821" lon="1.09123">
        <ele>392.6</ele>
        <time>2020-08-22 09:27:42</time>
      </trkpt>
      <trkpt lat="41.20817" lon="1.09125">
        <ele>392.6</ele>
        <time>2020-08-22 09:27:43</time>
      </trkpt>
      <trkpt lat="41.20814" lon="1.09128">
        <ele>392.6</ele>
        <time>2020-08-22 09:27:44</time>
      </trkpt>
      <trkpt lat="41.20811" lon="1.09131">
        <ele>392.8</ele>
        <time>2020-08-22 09:27:45</time>
      </trkpt>
      <trkpt lat="41.20809" lon="1.09135">
        <ele>393</ele>
        <time>2020-08-22 09:27:46</time>
      </trkpt>
      <trkpt lat="41.20807" lon="1.09138">
        <ele>393.2</ele>
        <time>2020-08-22 09:27:47</time>
      </trkpt>
      <trkpt lat="41.20806" lon="1.09142">
        <ele>393.4</ele>
        <time>2020-08-22 09:27:48</time>
      </trkpt>
      <trkpt lat="41.20805" lon="1.09145">
        <ele>393.8</ele>
        <time>2020-08-22 09:27:49</time>
      </trkpt>
      <trkpt lat="41.20803" lon="1.09148">
        <ele>394.2</ele>
        <time>2020-08-22 09:27:50</time>
      </trkpt>
      <trkpt lat="41.20802" lon="1.09151">
        <ele>394.8</ele>
        <time>2020-08-22 09:27:51</time>
      </trkpt>
      <trkpt lat="41.20801" lon="1.09153">
        <ele>395</ele>
        <time>2020-08-22 09:27:52</time>
      </trkpt>
      <trkpt lat="41.20799" lon="1.09156">
        <ele>395.4</ele>
        <time>2020-08-22 09:27:53</time>
      </trkpt>
      <trkpt lat="41.20798" lon="1.09159">
        <ele>395.6</ele>
        <time>2020-08-22 09:27:54</time>
      </trkpt>
      <trkpt lat="41.20797" lon="1.09162">
        <ele>396</ele>
        <time>2020-08-22 09:27:55</time>
      </trkpt>
      <trkpt lat="41.20796" lon="1.09165">
        <ele>396</ele>
        <time>2020-08-22 09:27:56</time>
      </trkpt>
      <trkpt lat="41.20795" lon="1.09168">
        <ele>396.6</ele>
        <time>2020-08-22 09:27:57</time>
      </trkpt>
      <trkpt lat="41.20796" lon="1.09171">
        <ele>397.2</ele>
        <time>2020-08-22 09:27:58</time>
      </trkpt>
      <trkpt lat="41.20797" lon="1.09174">
        <ele>397.6</ele>
        <time>2020-08-22 09:27:59</time>
      </trkpt>
      <trkpt lat="41.20798" lon="1.09176">
        <ele>397.8</ele>
        <time>2020-08-22 09:28:00</time>
      </trkpt>
      <trkpt lat="41.20799" lon="1.09178">
        <ele>398</ele>
        <time>2020-08-22 09:28:01</time>
      </trkpt>
      <trkpt lat="41.208" lon="1.09181">
        <ele>398.4</ele>
        <time>2020-08-22 09:28:02</time>
      </trkpt>
      <trkpt lat="41.20802" lon="1.09183">
        <ele>398.4</ele>
        <time>2020-08-22 09:28:03</time>
      </trkpt>
      <trkpt lat="41.20803" lon="1.09185">
        <ele>399.2</ele>
        <time>2020-08-22 09:28:04</time>
      </trkpt>
      <trkpt lat="41.20805" lon="1.09186">
        <ele>399.6</ele>
        <time>2020-08-22 09:28:05</time>
      </trkpt>
      <trkpt lat="41.20806" lon="1.09188">
        <ele>400.2</ele>
        <time>2020-08-22 09:28:06</time>
      </trkpt>
      <trkpt lat="41.20808" lon="1.0919">
        <ele>400.4</ele>
        <time>2020-08-22 09:28:07</time>
      </trkpt>
      <trkpt lat="41.20809" lon="1.09192">
        <ele>400.6</ele>
        <time>2020-08-22 09:28:08</time>
      </trkpt>
      <trkpt lat="41.20811" lon="1.09194">
        <ele>400.8</ele>
        <time>2020-08-22 09:28:09</time>
      </trkpt>
      <trkpt lat="41.20812" lon="1.09195">
        <ele>401</ele>
        <time>2020-08-22 09:28:10</time>
      </trkpt>
      <trkpt lat="41.20814" lon="1.09195">
        <ele>401.6</ele>
        <time>2020-08-22 09:28:11</time>
      </trkpt>
      <trkpt lat="41.20816" lon="1.09197">
        <ele>402.2</ele>
        <time>2020-08-22 09:28:12</time>
      </trkpt>
      <trkpt lat="41.20818" lon="1.09199">
        <ele>403</ele>
        <time>2020-08-22 09:28:13</time>
      </trkpt>
      <trkpt lat="41.20819" lon="1.09201">
        <ele>403.4</ele>
        <time>2020-08-22 09:28:14</time>
      </trkpt>
      <trkpt lat="41.20821" lon="1.09203">
        <ele>404.2</ele>
        <time>2020-08-22 09:28:15</time>
      </trkpt>
      <trkpt lat="41.20822" lon="1.09204">
        <ele>404.8</ele>
        <time>2020-08-22 09:28:16</time>
      </trkpt>
      <trkpt lat="41.20824" lon="1.09206">
        <ele>405</ele>
        <time>2020-08-22 09:28:17</time>
      </trkpt>
      <trkpt lat="41.20826" lon="1.09208">
        <ele>405.4</ele>
        <time>2020-08-22 09:28:18</time>
      </trkpt>
      <trkpt lat="41.20828" lon="1.09209">
        <ele>405.8</ele>
        <time>2020-08-22 09:28:19</time>
      </trkpt>
      <trkpt lat="41.20829" lon="1.09211">
        <ele>406.2</ele>
        <time>2020-08-22 09:28:20</time>
      </trkpt>
      <trkpt lat="41.2083" lon="1.09212">
        <ele>406.4</ele>
        <time>2020-08-22 09:28:21</time>
      </trkpt>
      <trkpt lat="41.20832" lon="1.09214">
        <ele>406.8</ele>
        <time>2020-08-22 09:28:22</time>
      </trkpt>
      <trkpt lat="41.20834" lon="1.09216">
        <ele>406.8</ele>
        <time>2020-08-22 09:28:23</time>
      </trkpt>
      <trkpt lat="41.20835" lon="1.09218">
        <ele>407</ele>
        <time>2020-08-22 09:28:24</time>
      </trkpt>
      <trkpt lat="41.20837" lon="1.09219">
        <ele>407.4</ele>
        <time>2020-08-22 09:28:25</time>
      </trkpt>
      <trkpt lat="41.20838" lon="1.09221">
        <ele>407.8</ele>
        <time>2020-08-22 09:28:26</time>
      </trkpt>
      <trkpt lat="41.2084" lon="1.09223">
        <ele>408.2</ele>
        <time>2020-08-22 09:28:27</time>
      </trkpt>
      <trkpt lat="41.20841" lon="1.09225">
        <ele>408.8</ele>
        <time>2020-08-22 09:28:28</time>
      </trkpt>
      <trkpt lat="41.20842" lon="1.09228">
        <ele>409.6</ele>
        <time>2020-08-22 09:28:29</time>
      </trkpt>
      <trkpt lat="41.20842" lon="1.09231">
        <ele>409.8</ele>
        <time>2020-08-22 09:28:30</time>
      </trkpt>
      <trkpt lat="41.20842" lon="1.09234">
        <ele>410</ele>
        <time>2020-08-22 09:28:31</time>
      </trkpt>
      <trkpt lat="41.20841" lon="1.09237">
        <ele>410.2</ele>
        <time>2020-08-22 09:28:32</time>
      </trkpt>
      <trkpt lat="41.20841" lon="1.09241">
        <ele>410.2</ele>
        <time>2020-08-22 09:28:33</time>
      </trkpt>
      <trkpt lat="41.20839" lon="1.09245">
        <ele>410.4</ele>
        <time>2020-08-22 09:28:34</time>
      </trkpt>
      <trkpt lat="41.20838" lon="1.09251">
        <ele>410.4</ele>
        <time>2020-08-22 09:28:35</time>
      </trkpt>
      <trkpt lat="41.20837" lon="1.09257">
        <ele>410.4</ele>
        <time>2020-08-22 09:28:36</time>
      </trkpt>
      <trkpt lat="41.20834" lon="1.09264">
        <ele>410.4</ele>
        <time>2020-08-22 09:28:37</time>
      </trkpt>
      <trkpt lat="41.20832" lon="1.09272">
        <ele>410.4</ele>
        <time>2020-08-22 09:28:38</time>
      </trkpt>
      <trkpt lat="41.2083" lon="1.09281">
        <ele>410.4</ele>
        <time>2020-08-22 09:28:39</time>
      </trkpt>
      <trkpt lat="41.20829" lon="1.0929">
        <ele>410</ele>
        <time>2020-08-22 09:28:40</time>
      </trkpt>
      <trkpt lat="41.20827" lon="1.09299">
        <ele>409.4</ele>
        <time>2020-08-22 09:28:41</time>
      </trkpt>
      <trkpt lat="41.20825" lon="1.09306">
        <ele>409.2</ele>
        <time>2020-08-22 09:28:42</time>
      </trkpt>
      <trkpt lat="41.20823" lon="1.0931">
        <ele>408.8</ele>
        <time>2020-08-22 09:28:43</time>
      </trkpt>
      <trkpt lat="41.20821" lon="1.09315">
        <ele>408.6</ele>
        <time>2020-08-22 09:28:44</time>
      </trkpt>
      <trkpt lat="41.2082" lon="1.0932">
        <ele>408.4</ele>
        <time>2020-08-22 09:28:45</time>
      </trkpt>
      <trkpt lat="41.20819" lon="1.09325">
        <ele>408.4</ele>
        <time>2020-08-22 09:28:46</time>
      </trkpt>
      <trkpt lat="41.20818" lon="1.0933">
        <ele>408.4</ele>
        <time>2020-08-22 09:28:47</time>
      </trkpt>
      <trkpt lat="41.2081" lon="1.09367">
        <ele>408.8</ele>
        <time>2020-08-22 09:28:53</time>
      </trkpt>
      <trkpt lat="41.20808" lon="1.09383">
        <ele>408.8</ele>
        <time>2020-08-22 09:28:55</time>
      </trkpt>
      <trkpt lat="41.20805" lon="1.09391">
        <ele>408.8</ele>
        <time>2020-08-22 09:28:56</time>
      </trkpt>
      <trkpt lat="41.20801" lon="1.09399">
        <ele>408.4</ele>
        <time>2020-08-22 09:28:57</time>
      </trkpt>
      <trkpt lat="41.20796" lon="1.09404">
        <ele>408.2</ele>
        <time>2020-08-22 09:28:58</time>
      </trkpt>
      <trkpt lat="41.20792" lon="1.0941">
        <ele>408.2</ele>
        <time>2020-08-22 09:28:59</time>
      </trkpt>
      <trkpt lat="41.20788" lon="1.09415">
        <ele>408</ele>
        <time>2020-08-22 09:29:00</time>
      </trkpt>
      <trkpt lat="41.20785" lon="1.09421">
        <ele>408</ele>
        <time>2020-08-22 09:29:01</time>
      </trkpt>
      <trkpt lat="41.20781" lon="1.09427">
        <ele>408</ele>
        <time>2020-08-22 09:29:02</time>
      </trkpt>
      <trkpt lat="41.20777" lon="1.09433">
        <ele>408</ele>
        <time>2020-08-22 09:29:03</time>
      </trkpt>
      <trkpt lat="41.20773" lon="1.09438">
        <ele>408.2</ele>
        <time>2020-08-22 09:29:04</time>
      </trkpt>
      <trkpt lat="41.20769" lon="1.09444">
        <ele>408.6</ele>
        <time>2020-08-22 09:29:05</time>
      </trkpt>
      <trkpt lat="41.20766" lon="1.09448">
        <ele>408.6</ele>
        <time>2020-08-22 09:29:06</time>
      </trkpt>
      <trkpt lat="41.20761" lon="1.09452">
        <ele>409</ele>
        <time>2020-08-22 09:29:07</time>
      </trkpt>
      <trkpt lat="41.20757" lon="1.09455">
        <ele>409</ele>
        <time>2020-08-22 09:29:08</time>
      </trkpt>
      <trkpt lat="41.20753" lon="1.09459">
        <ele>409</ele>
        <time>2020-08-22 09:29:09</time>
      </trkpt>
      <trkpt lat="41.20749" lon="1.09464">
        <ele>409.2</ele>
        <time>2020-08-22 09:29:10</time>
      </trkpt>
      <trkpt lat="41.20745" lon="1.09468">
        <ele>409.2</ele>
        <time>2020-08-22 09:29:11</time>
      </trkpt>
      <trkpt lat="41.2074" lon="1.09473">
        <ele>409.4</ele>
        <time>2020-08-22 09:29:12</time>
      </trkpt>
      <trkpt lat="41.20737" lon="1.09478">
        <ele>409.4</ele>
        <time>2020-08-22 09:29:13</time>
      </trkpt>
      <trkpt lat="41.20733" lon="1.09482">
        <ele>409.6</ele>
        <time>2020-08-22 09:29:14</time>
      </trkpt>
      <trkpt lat="41.2073" lon="1.09487">
        <ele>409.6</ele>
        <time>2020-08-22 09:29:15</time>
      </trkpt>
      <trkpt lat="41.20727" lon="1.09494">
        <ele>409.6</ele>
        <time>2020-08-22 09:29:16</time>
      </trkpt>
      <trkpt lat="41.20726" lon="1.09503">
        <ele>409.6</ele>
        <time>2020-08-22 09:29:17</time>
      </trkpt>
      <trkpt lat="41.20726" lon="1.09512">
        <ele>409.8</ele>
        <time>2020-08-22 09:29:18</time>
      </trkpt>
      <trkpt lat="41.20726" lon="1.09523">
        <ele>409.8</ele>
        <time>2020-08-22 09:29:19</time>
      </trkpt>
      <trkpt lat="41.20725" lon="1.09535">
        <ele>409.6</ele>
        <time>2020-08-22 09:29:20</time>
      </trkpt>
      <trkpt lat="41.20722" lon="1.09561">
        <ele>408</ele>
        <time>2020-08-22 09:29:22</time>
      </trkpt>
      <trkpt lat="41.2072" lon="1.09575">
        <ele>406.8</ele>
        <time>2020-08-22 09:29:23</time>
      </trkpt>
      <trkpt lat="41.20717" lon="1.09588">
        <ele>405.8</ele>
        <time>2020-08-22 09:29:24</time>
      </trkpt>
      <trkpt lat="41.20712" lon="1.096">
        <ele>405.4</ele>
        <time>2020-08-22 09:29:25</time>
      </trkpt>
      <trkpt lat="41.20705" lon="1.0961">
        <ele>404.8</ele>
        <time>2020-08-22 09:29:26</time>
      </trkpt>
      <trkpt lat="41.20698" lon="1.09618">
        <ele>404.2</ele>
        <time>2020-08-22 09:29:27</time>
      </trkpt>
      <trkpt lat="41.20691" lon="1.09626">
        <ele>403.2</ele>
        <time>2020-08-22 09:29:28</time>
      </trkpt>
      <trkpt lat="41.20683" lon="1.09636">
        <ele>402.6</ele>
        <time>2020-08-22 09:29:29</time>
      </trkpt>
      <trkpt lat="41.20678" lon="1.09643">
        <ele>402</ele>
        <time>2020-08-22 09:29:30</time>
      </trkpt>
      <trkpt lat="41.20672" lon="1.09651">
        <ele>401.6</ele>
        <time>2020-08-22 09:29:31</time>
      </trkpt>
      <trkpt lat="41.20666" lon="1.09658">
        <ele>401.2</ele>
        <time>2020-08-22 09:29:32</time>
      </trkpt>
      <trkpt lat="41.2066" lon="1.09665">
        <ele>401.2</ele>
        <time>2020-08-22 09:29:33</time>
      </trkpt>
      <trkpt lat="41.20654" lon="1.0967">
        <ele>400.8</ele>
        <time>2020-08-22 09:29:34</time>
      </trkpt>
      <trkpt lat="41.20647" lon="1.09675">
        <ele>400.8</ele>
        <time>2020-08-22 09:29:35</time>
      </trkpt>
      <trkpt lat="41.20641" lon="1.09679">
        <ele>400.8</ele>
        <time>2020-08-22 09:29:36</time>
      </trkpt>
      <trkpt lat="41.20635" lon="1.09682">
        <ele>400.6</ele>
        <time>2020-08-22 09:29:37</time>
      </trkpt>
      <trkpt lat="41.20629" lon="1.09686">
        <ele>400.6</ele>
        <time>2020-08-22 09:29:38</time>
      </trkpt>
      <trkpt lat="41.20624" lon="1.09689">
        <ele>400.6</ele>
        <time>2020-08-22 09:29:39</time>
      </trkpt>
      <trkpt lat="41.20619" lon="1.09693">
        <ele>400.4</ele>
        <time>2020-08-22 09:29:40</time>
      </trkpt>
      <trkpt lat="41.20615" lon="1.09698">
        <ele>400.4</ele>
        <time>2020-08-22 09:29:41</time>
      </trkpt>
      <trkpt lat="41.20613" lon="1.09704">
        <ele>400.4</ele>
        <time>2020-08-22 09:29:42</time>
      </trkpt>
      <trkpt lat="41.20614" lon="1.0971">
        <ele>400.2</ele>
        <time>2020-08-22 09:29:43</time>
      </trkpt>
      <trkpt lat="41.20616" lon="1.09715">
        <ele>400</ele>
        <time>2020-08-22 09:29:44</time>
      </trkpt>
      <trkpt lat="41.2062" lon="1.09718">
        <ele>399.8</ele>
        <time>2020-08-22 09:29:45</time>
      </trkpt>
      <trkpt lat="41.20624" lon="1.09721">
        <ele>399.6</ele>
        <time>2020-08-22 09:29:46</time>
      </trkpt>
      <trkpt lat="41.20639" lon="1.09728">
        <ele>399.4</ele>
        <time>2020-08-22 09:29:49</time>
      </trkpt>
      <trkpt lat="41.20644" lon="1.09729">
        <ele>399.4</ele>
        <time>2020-08-22 09:29:50</time>
      </trkpt>
      <trkpt lat="41.20668" lon="1.09729">
        <ele>399.8</ele>
        <time>2020-08-22 09:29:54</time>
      </trkpt>
      <trkpt lat="41.20675" lon="1.09728">
        <ele>399.6</ele>
        <time>2020-08-22 09:29:55</time>
      </trkpt>
      <trkpt lat="41.20681" lon="1.09727">
        <ele>399.4</ele>
        <time>2020-08-22 09:29:56</time>
      </trkpt>
      <trkpt lat="41.20687" lon="1.09726">
        <ele>399.4</ele>
        <time>2020-08-22 09:29:57</time>
      </trkpt>
      <trkpt lat="41.20693" lon="1.09727">
        <ele>399.2</ele>
        <time>2020-08-22 09:29:58</time>
      </trkpt>
      <trkpt lat="41.20698" lon="1.0973">
        <ele>399.2</ele>
        <time>2020-08-22 09:29:59</time>
      </trkpt>
      <trkpt lat="41.207" lon="1.09735">
        <ele>399</ele>
        <time>2020-08-22 09:30:00</time>
      </trkpt>
      <trkpt lat="41.207" lon="1.09739">
        <ele>398.8</ele>
        <time>2020-08-22 09:30:01</time>
      </trkpt>
      <trkpt lat="41.20698" lon="1.09743">
        <ele>398.8</ele>
        <time>2020-08-22 09:30:02</time>
      </trkpt>
      <trkpt lat="41.20695" lon="1.09748">
        <ele>398.6</ele>
        <time>2020-08-22 09:30:03</time>
      </trkpt>
      <trkpt lat="41.20693" lon="1.09753">
        <ele>398.4</ele>
        <time>2020-08-22 09:30:04</time>
      </trkpt>
      <trkpt lat="41.20691" lon="1.09761">
        <ele>398.4</ele>
        <time>2020-08-22 09:30:05</time>
      </trkpt>
      <trkpt lat="41.2069" lon="1.09766">
        <ele>398.2</ele>
        <time>2020-08-22 09:30:06</time>
      </trkpt>
      <trkpt lat="41.20685" lon="1.09781">
        <ele>398.2</ele>
        <time>2020-08-22 09:30:08</time>
      </trkpt>
      <trkpt lat="41.20682" lon="1.09786">
        <ele>398</ele>
        <time>2020-08-22 09:30:09</time>
      </trkpt>
      <trkpt lat="41.20678" lon="1.09791">
        <ele>398</ele>
        <time>2020-08-22 09:30:10</time>
      </trkpt>
      <trkpt lat="41.20663" lon="1.09814">
        <ele>397.6</ele>
        <time>2020-08-22 09:30:14</time>
      </trkpt>
      <trkpt lat="41.20661" lon="1.09821">
        <ele>397.6</ele>
        <time>2020-08-22 09:30:15</time>
      </trkpt>
      <trkpt lat="41.20662" lon="1.09827">
        <ele>397.4</ele>
        <time>2020-08-22 09:30:16</time>
      </trkpt>
      <trkpt lat="41.20664" lon="1.09833">
        <ele>397.4</ele>
        <time>2020-08-22 09:30:17</time>
      </trkpt>
      <trkpt lat="41.20668" lon="1.09839">
        <ele>397.2</ele>
        <time>2020-08-22 09:30:18</time>
      </trkpt>
      <trkpt lat="41.20681" lon="1.0985">
        <ele>397.2</ele>
        <time>2020-08-22 09:30:21</time>
      </trkpt>
      <trkpt lat="41.20685" lon="1.09853">
        <ele>397.2</ele>
        <time>2020-08-22 09:30:22</time>
      </trkpt>
      <trkpt lat="41.2069" lon="1.09858">
        <ele>397.2</ele>
        <time>2020-08-22 09:30:23</time>
      </trkpt>
      <trkpt lat="41.20694" lon="1.09863">
        <ele>397.2</ele>
        <time>2020-08-22 09:30:24</time>
      </trkpt>
      <trkpt lat="41.20695" lon="1.09869">
        <ele>397.2</ele>
        <time>2020-08-22 09:30:25</time>
      </trkpt>
      <trkpt lat="41.20694" lon="1.09874">
        <ele>397.2</ele>
        <time>2020-08-22 09:30:26</time>
      </trkpt>
      <trkpt lat="41.20693" lon="1.09881">
        <ele>397.2</ele>
        <time>2020-08-22 09:30:27</time>
      </trkpt>
      <trkpt lat="41.20689" lon="1.09887">
        <ele>397.2</ele>
        <time>2020-08-22 09:30:28</time>
      </trkpt>
      <trkpt lat="41.20684" lon="1.09891">
        <ele>397.4</ele>
        <time>2020-08-22 09:30:29</time>
      </trkpt>
      <trkpt lat="41.20679" lon="1.09893">
        <ele>397.2</ele>
        <time>2020-08-22 09:30:30</time>
      </trkpt>
      <trkpt lat="41.20674" lon="1.09893">
        <ele>397.2</ele>
        <time>2020-08-22 09:30:31</time>
      </trkpt>
      <trkpt lat="41.20668" lon="1.09893">
        <ele>397.2</ele>
        <time>2020-08-22 09:30:32</time>
      </trkpt>
      <trkpt lat="41.2066" lon="1.09894">
        <ele>397</ele>
        <time>2020-08-22 09:30:33</time>
      </trkpt>
      <trkpt lat="41.20654" lon="1.09897">
        <ele>397</ele>
        <time>2020-08-22 09:30:34</time>
      </trkpt>
      <trkpt lat="41.20649" lon="1.099">
        <ele>397</ele>
        <time>2020-08-22 09:30:35</time>
      </trkpt>
      <trkpt lat="41.20643" lon="1.09904">
        <ele>396.8</ele>
        <time>2020-08-22 09:30:36</time>
      </trkpt>
      <trkpt lat="41.20638" lon="1.09909">
        <ele>396.6</ele>
        <time>2020-08-22 09:30:37</time>
      </trkpt>
      <trkpt lat="41.20627" lon="1.09918">
        <ele>396</ele>
        <time>2020-08-22 09:30:39</time>
      </trkpt>
      <trkpt lat="41.20621" lon="1.09922">
        <ele>395.8</ele>
        <time>2020-08-22 09:30:40</time>
      </trkpt>
      <trkpt lat="41.20604" lon="1.09931">
        <ele>395.8</ele>
        <time>2020-08-22 09:30:43</time>
      </trkpt>
      <trkpt lat="41.20599" lon="1.09933">
        <ele>395.6</ele>
        <time>2020-08-22 09:30:44</time>
      </trkpt>
      <trkpt lat="41.20592" lon="1.09935">
        <ele>395.6</ele>
        <time>2020-08-22 09:30:45</time>
      </trkpt>
      <trkpt lat="41.20588" lon="1.0994">
        <ele>395.6</ele>
        <time>2020-08-22 09:30:46</time>
      </trkpt>
      <trkpt lat="41.20585" lon="1.09947">
        <ele>395.4</ele>
        <time>2020-08-22 09:30:47</time>
      </trkpt>
      <trkpt lat="41.20584" lon="1.09954">
        <ele>395.2</ele>
        <time>2020-08-22 09:30:48</time>
      </trkpt>
      <trkpt lat="41.20585" lon="1.09961">
        <ele>395.2</ele>
        <time>2020-08-22 09:30:49</time>
      </trkpt>
      <trkpt lat="41.20588" lon="1.09967">
        <ele>395</ele>
        <time>2020-08-22 09:30:50</time>
      </trkpt>
      <trkpt lat="41.20591" lon="1.09972">
        <ele>394.8</ele>
        <time>2020-08-22 09:30:51</time>
      </trkpt>
      <trkpt lat="41.20594" lon="1.09976">
        <ele>394.6</ele>
        <time>2020-08-22 09:30:52</time>
      </trkpt>
      <trkpt lat="41.20597" lon="1.09981">
        <ele>394.4</ele>
        <time>2020-08-22 09:30:53</time>
      </trkpt>
      <trkpt lat="41.20599" lon="1.09987">
        <ele>394.4</ele>
        <time>2020-08-22 09:30:54</time>
      </trkpt>
      <trkpt lat="41.20599" lon="1.09993">
        <ele>394.4</ele>
        <time>2020-08-22 09:30:55</time>
      </trkpt>
      <trkpt lat="41.20597" lon="1.09999">
        <ele>394.4</ele>
        <time>2020-08-22 09:30:56</time>
      </trkpt>
      <trkpt lat="41.20594" lon="1.10002">
        <ele>394.2</ele>
        <time>2020-08-22 09:30:57</time>
      </trkpt>
      <trkpt lat="41.20589" lon="1.10006">
        <ele>394.2</ele>
        <time>2020-08-22 09:30:58</time>
      </trkpt>
      <trkpt lat="41.20585" lon="1.10009">
        <ele>394.2</ele>
        <time>2020-08-22 09:30:59</time>
      </trkpt>
      <trkpt lat="41.2058" lon="1.10012">
        <ele>394</ele>
        <time>2020-08-22 09:31:00</time>
      </trkpt>
      <trkpt lat="41.20575" lon="1.10014">
        <ele>393.8</ele>
        <time>2020-08-22 09:31:01</time>
      </trkpt>
      <trkpt lat="41.2057" lon="1.10016">
        <ele>393.8</ele>
        <time>2020-08-22 09:31:02</time>
      </trkpt>
      <trkpt lat="41.20562" lon="1.10016">
        <ele>393.2</ele>
        <time>2020-08-22 09:31:03</time>
      </trkpt>
      <trkpt lat="41.20548" lon="1.10017">
        <ele>392.8</ele>
        <time>2020-08-22 09:31:05</time>
      </trkpt>
      <trkpt lat="41.20542" lon="1.10017">
        <ele>392.4</ele>
        <time>2020-08-22 09:31:06</time>
      </trkpt>
      <trkpt lat="41.20536" lon="1.10017">
        <ele>392.2</ele>
        <time>2020-08-22 09:31:07</time>
      </trkpt>
      <trkpt lat="41.20528" lon="1.10014">
        <ele>391.8</ele>
        <time>2020-08-22 09:31:08</time>
      </trkpt>
      <trkpt lat="41.20523" lon="1.10009">
        <ele>391.4</ele>
        <time>2020-08-22 09:31:09</time>
      </trkpt>
      <trkpt lat="41.20519" lon="1.10003">
        <ele>391.2</ele>
        <time>2020-08-22 09:31:10</time>
      </trkpt>
      <trkpt lat="41.20515" lon="1.09998">
        <ele>391.2</ele>
        <time>2020-08-22 09:31:11</time>
      </trkpt>
      <trkpt lat="41.2051" lon="1.09994">
        <ele>390.8</ele>
        <time>2020-08-22 09:31:12</time>
      </trkpt>
      <trkpt lat="41.20504" lon="1.0999">
        <ele>390.8</ele>
        <time>2020-08-22 09:31:13</time>
      </trkpt>
      <trkpt lat="41.20498" lon="1.09987">
        <ele>390.6</ele>
        <time>2020-08-22 09:31:14</time>
      </trkpt>
      <trkpt lat="41.20492" lon="1.09985">
        <ele>390.4</ele>
        <time>2020-08-22 09:31:15</time>
      </trkpt>
      <trkpt lat="41.20485" lon="1.09985">
        <ele>390.4</ele>
        <time>2020-08-22 09:31:16</time>
      </trkpt>
      <trkpt lat="41.2048" lon="1.09985">
        <ele>390.4</ele>
        <time>2020-08-22 09:31:17</time>
      </trkpt>
      <trkpt lat="41.20473" lon="1.09986">
        <ele>390.4</ele>
        <time>2020-08-22 09:31:18</time>
      </trkpt>
      <trkpt lat="41.20468" lon="1.09987">
        <ele>390.4</ele>
        <time>2020-08-22 09:31:19</time>
      </trkpt>
      <trkpt lat="41.2046" lon="1.09988">
        <ele>390.4</ele>
        <time>2020-08-22 09:31:20</time>
      </trkpt>
      <trkpt lat="41.20449" lon="1.09991">
        <ele>390.4</ele>
        <time>2020-08-22 09:31:22</time>
      </trkpt>
      <trkpt lat="41.20444" lon="1.09994">
        <ele>390.2</ele>
        <time>2020-08-22 09:31:23</time>
      </trkpt>
      <trkpt lat="41.20438" lon="1.09998">
        <ele>390</ele>
        <time>2020-08-22 09:31:24</time>
      </trkpt>
      <trkpt lat="41.20433" lon="1.10003">
        <ele>390</ele>
        <time>2020-08-22 09:31:25</time>
      </trkpt>
      <trkpt lat="41.20428" lon="1.10009">
        <ele>389.8</ele>
        <time>2020-08-22 09:31:26</time>
      </trkpt>
      <trkpt lat="41.20425" lon="1.10015">
        <ele>389.6</ele>
        <time>2020-08-22 09:31:27</time>
      </trkpt>
      <trkpt lat="41.20421" lon="1.1002">
        <ele>389.4</ele>
        <time>2020-08-22 09:31:28</time>
      </trkpt>
      <trkpt lat="41.20416" lon="1.10026">
        <ele>389.4</ele>
        <time>2020-08-22 09:31:29</time>
      </trkpt>
      <trkpt lat="41.20412" lon="1.10031">
        <ele>389.2</ele>
        <time>2020-08-22 09:31:30</time>
      </trkpt>
      <trkpt lat="41.20408" lon="1.10037">
        <ele>389</ele>
        <time>2020-08-22 09:31:31</time>
      </trkpt>
      <trkpt lat="41.20405" lon="1.10043">
        <ele>389</ele>
        <time>2020-08-22 09:31:32</time>
      </trkpt>
      <trkpt lat="41.20403" lon="1.10049">
        <ele>389</ele>
        <time>2020-08-22 09:31:33</time>
      </trkpt>
      <trkpt lat="41.20401" lon="1.10055">
        <ele>389</ele>
        <time>2020-08-22 09:31:34</time>
      </trkpt>
      <trkpt lat="41.204" lon="1.10061">
        <ele>389</ele>
        <time>2020-08-22 09:31:35</time>
      </trkpt>
      <trkpt lat="41.20393" lon="1.10092">
        <ele>388.8</ele>
        <time>2020-08-22 09:31:39</time>
      </trkpt>
      <trkpt lat="41.20392" lon="1.101">
        <ele>388.6</ele>
        <time>2020-08-22 09:31:40</time>
      </trkpt>
      <trkpt lat="41.20389" lon="1.10107">
        <ele>388.6</ele>
        <time>2020-08-22 09:31:41</time>
      </trkpt>
      <trkpt lat="41.20386" lon="1.10114">
        <ele>388.6</ele>
        <time>2020-08-22 09:31:42</time>
      </trkpt>
      <trkpt lat="41.20382" lon="1.10119">
        <ele>388.6</ele>
        <time>2020-08-22 09:31:43</time>
      </trkpt>
      <trkpt lat="41.20378" lon="1.10122">
        <ele>388.6</ele>
        <time>2020-08-22 09:31:44</time>
      </trkpt>
      <trkpt lat="41.20374" lon="1.10124">
        <ele>388.6</ele>
        <time>2020-08-22 09:31:45</time>
      </trkpt>
      <trkpt lat="41.2037" lon="1.10125">
        <ele>388.6</ele>
        <time>2020-08-22 09:31:46</time>
      </trkpt>
      <trkpt lat="41.20368" lon="1.10128">
        <ele>388.6</ele>
        <time>2020-08-22 09:31:47</time>
      </trkpt>
      <trkpt lat="41.20365" lon="1.10132">
        <ele>388.8</ele>
        <time>2020-08-22 09:31:48</time>
      </trkpt>
      <trkpt lat="41.20358" lon="1.10139">
        <ele>389.2</ele>
        <time>2020-08-22 09:31:50</time>
      </trkpt>
      <trkpt lat="41.20352" lon="1.10145">
        <ele>389.6</ele>
        <time>2020-08-22 09:31:52</time>
      </trkpt>
      <trkpt lat="41.20349" lon="1.10148">
        <ele>389.8</ele>
        <time>2020-08-22 09:31:53</time>
      </trkpt>
      <trkpt lat="41.20346" lon="1.10151">
        <ele>390</ele>
        <time>2020-08-22 09:31:54</time>
      </trkpt>
      <trkpt lat="41.20344" lon="1.10154">
        <ele>390.2</ele>
        <time>2020-08-22 09:31:55</time>
      </trkpt>
      <trkpt lat="41.20341" lon="1.10156">
        <ele>390.2</ele>
        <time>2020-08-22 09:31:56</time>
      </trkpt>
      <trkpt lat="41.20338" lon="1.10158">
        <ele>390.4</ele>
        <time>2020-08-22 09:31:57</time>
      </trkpt>
      <trkpt lat="41.20335" lon="1.10159">
        <ele>390.4</ele>
        <time>2020-08-22 09:31:58</time>
      </trkpt>
      <trkpt lat="41.20331" lon="1.10162">
        <ele>390.4</ele>
        <time>2020-08-22 09:31:59</time>
      </trkpt>
      <trkpt lat="41.20327" lon="1.10165">
        <ele>390.4</ele>
        <time>2020-08-22 09:32:00</time>
      </trkpt>
      <trkpt lat="41.20326" lon="1.10169">
        <ele>390.4</ele>
        <time>2020-08-22 09:32:01</time>
      </trkpt>
      <trkpt lat="41.20325" lon="1.10172">
        <ele>390.4</ele>
        <time>2020-08-22 09:32:02</time>
      </trkpt>
      <trkpt lat="41.20326" lon="1.10174">
        <ele>390.4</ele>
        <time>2020-08-22 09:32:03</time>
      </trkpt>
      <trkpt lat="41.20328" lon="1.10175">
        <ele>390.4</ele>
        <time>2020-08-22 09:32:04</time>
      </trkpt>
      <trkpt lat="41.2033" lon="1.10176">
        <ele>390.2</ele>
        <time>2020-08-22 09:32:05</time>
      </trkpt>
      <trkpt lat="41.20333" lon="1.10176">
        <ele>390</ele>
        <time>2020-08-22 09:32:06</time>
      </trkpt>
      <trkpt lat="41.20336" lon="1.10177">
        <ele>390</ele>
        <time>2020-08-22 09:32:07</time>
      </trkpt>
      <trkpt lat="41.20338" lon="1.10178">
        <ele>390</ele>
        <time>2020-08-22 09:32:08</time>
      </trkpt>
      <trkpt lat="41.20341" lon="1.10179">
        <ele>390</ele>
        <time>2020-08-22 09:32:09</time>
      </trkpt>
      <trkpt lat="41.20344" lon="1.10179">
        <ele>390</ele>
        <time>2020-08-22 09:32:10</time>
      </trkpt>
      <trkpt lat="41.20346" lon="1.1018">
        <ele>390</ele>
        <time>2020-08-22 09:32:11</time>
      </trkpt>
      <trkpt lat="41.20349" lon="1.10181">
        <ele>390</ele>
        <time>2020-08-22 09:32:12</time>
      </trkpt>
      <trkpt lat="41.20351" lon="1.10182">
        <ele>390.6</ele>
        <time>2020-08-22 09:32:13</time>
      </trkpt>
      <trkpt lat="41.20354" lon="1.10182">
        <ele>391</ele>
        <time>2020-08-22 09:32:14</time>
      </trkpt>
      <trkpt lat="41.20356" lon="1.10183">
        <ele>391.4</ele>
        <time>2020-08-22 09:32:15</time>
      </trkpt>
      <trkpt lat="41.20358" lon="1.10185">
        <ele>392</ele>
        <time>2020-08-22 09:32:16</time>
      </trkpt>
      <trkpt lat="41.2036" lon="1.10186">
        <ele>392.4</ele>
        <time>2020-08-22 09:32:17</time>
      </trkpt>
      <trkpt lat="41.20362" lon="1.10187">
        <ele>392.8</ele>
        <time>2020-08-22 09:32:18</time>
      </trkpt>
      <trkpt lat="41.20364" lon="1.10188">
        <ele>393</ele>
        <time>2020-08-22 09:32:19</time>
      </trkpt>
      <trkpt lat="41.20367" lon="1.1019">
        <ele>393.8</ele>
        <time>2020-08-22 09:32:20</time>
      </trkpt>
      <trkpt lat="41.2037" lon="1.10192">
        <ele>394.2</ele>
        <time>2020-08-22 09:32:21</time>
      </trkpt>
      <trkpt lat="41.20372" lon="1.10193">
        <ele>394.8</ele>
        <time>2020-08-22 09:32:22</time>
      </trkpt>
      <trkpt lat="41.20374" lon="1.10194">
        <ele>395.2</ele>
        <time>2020-08-22 09:32:23</time>
      </trkpt>
      <trkpt lat="41.20377" lon="1.10196">
        <ele>395.6</ele>
        <time>2020-08-22 09:32:24</time>
      </trkpt>
      <trkpt lat="41.20379" lon="1.10196">
        <ele>396.2</ele>
        <time>2020-08-22 09:32:25</time>
      </trkpt>
      <trkpt lat="41.20381" lon="1.10197">
        <ele>396.6</ele>
        <time>2020-08-22 09:32:26</time>
      </trkpt>
      <trkpt lat="41.20383" lon="1.10197">
        <ele>397.2</ele>
        <time>2020-08-22 09:32:27</time>
      </trkpt>
      <trkpt lat="41.20385" lon="1.10198">
        <ele>397.4</ele>
        <time>2020-08-22 09:32:28</time>
      </trkpt>
      <trkpt lat="41.20387" lon="1.10199">
        <ele>398</ele>
        <time>2020-08-22 09:32:29</time>
      </trkpt>
      <trkpt lat="41.2039" lon="1.102">
        <ele>398.2</ele>
        <time>2020-08-22 09:32:30</time>
      </trkpt>
      <trkpt lat="41.20392" lon="1.10202">
        <ele>398.8</ele>
        <time>2020-08-22 09:32:31</time>
      </trkpt>
      <trkpt lat="41.20394" lon="1.10203">
        <ele>399.2</ele>
        <time>2020-08-22 09:32:32</time>
      </trkpt>
      <trkpt lat="41.20396" lon="1.10205">
        <ele>399.2</ele>
        <time>2020-08-22 09:32:33</time>
      </trkpt>
      <trkpt lat="41.20398" lon="1.10206">
        <ele>399.8</ele>
        <time>2020-08-22 09:32:34</time>
      </trkpt>
      <trkpt lat="41.204" lon="1.10208">
        <ele>400</ele>
        <time>2020-08-22 09:32:35</time>
      </trkpt>
      <trkpt lat="41.20402" lon="1.10209">
        <ele>400.4</ele>
        <time>2020-08-22 09:32:36</time>
      </trkpt>
      <trkpt lat="41.20404" lon="1.1021">
        <ele>400.6</ele>
        <time>2020-08-22 09:32:37</time>
      </trkpt>
      <trkpt lat="41.20405" lon="1.10211">
        <ele>401</ele>
        <time>2020-08-22 09:32:38</time>
      </trkpt>
      <trkpt lat="41.20408" lon="1.10213">
        <ele>401.2</ele>
        <time>2020-08-22 09:32:39</time>
      </trkpt>
      <trkpt lat="41.2041" lon="1.10214">
        <ele>401.6</ele>
        <time>2020-08-22 09:32:40</time>
      </trkpt>
      <trkpt lat="41.20411" lon="1.10216">
        <ele>402</ele>
        <time>2020-08-22 09:32:41</time>
      </trkpt>
      <trkpt lat="41.20413" lon="1.10218">
        <ele>402</ele>
        <time>2020-08-22 09:32:42</time>
      </trkpt>
      <trkpt lat="41.20414" lon="1.1022">
        <ele>402.4</ele>
        <time>2020-08-22 09:32:43</time>
      </trkpt>
      <trkpt lat="41.20416" lon="1.10222">
        <ele>402.6</ele>
        <time>2020-08-22 09:32:44</time>
      </trkpt>
      <trkpt lat="41.20418" lon="1.10223">
        <ele>403</ele>
        <time>2020-08-22 09:32:45</time>
      </trkpt>
      <trkpt lat="41.20419" lon="1.10225">
        <ele>403.2</ele>
        <time>2020-08-22 09:32:46</time>
      </trkpt>
      <trkpt lat="41.20421" lon="1.10226">
        <ele>403.4</ele>
        <time>2020-08-22 09:32:47</time>
      </trkpt>
      <trkpt lat="41.20423" lon="1.10227">
        <ele>403.8</ele>
        <time>2020-08-22 09:32:48</time>
      </trkpt>
      <trkpt lat="41.20425" lon="1.10228">
        <ele>404.2</ele>
        <time>2020-08-22 09:32:49</time>
      </trkpt>
      <trkpt lat="41.20426" lon="1.1023">
        <ele>404.6</ele>
        <time>2020-08-22 09:32:50</time>
      </trkpt>
      <trkpt lat="41.20428" lon="1.10231">
        <ele>404.6</ele>
        <time>2020-08-22 09:32:51</time>
      </trkpt>
      <trkpt lat="41.20429" lon="1.10232">
        <ele>404.8</ele>
        <time>2020-08-22 09:32:52</time>
      </trkpt>
      <trkpt lat="41.20431" lon="1.10233">
        <ele>405</ele>
        <time>2020-08-22 09:32:53</time>
      </trkpt>
      <trkpt lat="41.20433" lon="1.10234">
        <ele>405.4</ele>
        <time>2020-08-22 09:32:54</time>
      </trkpt>
      <trkpt lat="41.20435" lon="1.10236">
        <ele>405.6</ele>
        <time>2020-08-22 09:32:55</time>
      </trkpt>
      <trkpt lat="41.20437" lon="1.10237">
        <ele>405.8</ele>
        <time>2020-08-22 09:32:56</time>
      </trkpt>
      <trkpt lat="41.20438" lon="1.10238">
        <ele>406.4</ele>
        <time>2020-08-22 09:32:57</time>
      </trkpt>
      <trkpt lat="41.2044" lon="1.10239">
        <ele>406.6</ele>
        <time>2020-08-22 09:32:58</time>
      </trkpt>
      <trkpt lat="41.20442" lon="1.1024">
        <ele>406.8</ele>
        <time>2020-08-22 09:32:59</time>
      </trkpt>
      <trkpt lat="41.20444" lon="1.10242">
        <ele>407.2</ele>
        <time>2020-08-22 09:33:00</time>
      </trkpt>
      <trkpt lat="41.20445" lon="1.10243">
        <ele>407.6</ele>
        <time>2020-08-22 09:33:01</time>
      </trkpt>
      <trkpt lat="41.20447" lon="1.10245">
        <ele>407.8</ele>
        <time>2020-08-22 09:33:02</time>
      </trkpt>
      <trkpt lat="41.20448" lon="1.10246">
        <ele>408.4</ele>
        <time>2020-08-22 09:33:03</time>
      </trkpt>
      <trkpt lat="41.20451" lon="1.10247">
        <ele>408.4</ele>
        <time>2020-08-22 09:33:04</time>
      </trkpt>
      <trkpt lat="41.20453" lon="1.10247">
        <ele>408.8</ele>
        <time>2020-08-22 09:33:05</time>
      </trkpt>
      <trkpt lat="41.20454" lon="1.10246">
        <ele>409.4</ele>
        <time>2020-08-22 09:33:06</time>
      </trkpt>
      <trkpt lat="41.20456" lon="1.10246">
        <ele>409.6</ele>
        <time>2020-08-22 09:33:07</time>
      </trkpt>
      <trkpt lat="41.20458" lon="1.10246">
        <ele>409.8</ele>
        <time>2020-08-22 09:33:08</time>
      </trkpt>
      <trkpt lat="41.20461" lon="1.10245">
        <ele>410</ele>
        <time>2020-08-22 09:33:09</time>
      </trkpt>
      <trkpt lat="41.20463" lon="1.10245">
        <ele>410.4</ele>
        <time>2020-08-22 09:33:10</time>
      </trkpt>
      <trkpt lat="41.20465" lon="1.10244">
        <ele>410.6</ele>
        <time>2020-08-22 09:33:11</time>
      </trkpt>
      <trkpt lat="41.20466" lon="1.10243">
        <ele>411</ele>
        <time>2020-08-22 09:33:12</time>
      </trkpt>
      <trkpt lat="41.20468" lon="1.10241">
        <ele>411</ele>
        <time>2020-08-22 09:33:13</time>
      </trkpt>
      <trkpt lat="41.2047" lon="1.10239">
        <ele>411.4</ele>
        <time>2020-08-22 09:33:14</time>
      </trkpt>
      <trkpt lat="41.20472" lon="1.10238">
        <ele>411.6</ele>
        <time>2020-08-22 09:33:15</time>
      </trkpt>
      <trkpt lat="41.20474" lon="1.10236">
        <ele>411.6</ele>
        <time>2020-08-22 09:33:16</time>
      </trkpt>
      <trkpt lat="41.20476" lon="1.10234">
        <ele>412</ele>
        <time>2020-08-22 09:33:17</time>
      </trkpt>
      <trkpt lat="41.20478" lon="1.10233">
        <ele>412.2</ele>
        <time>2020-08-22 09:33:18</time>
      </trkpt>
      <trkpt lat="41.2048" lon="1.10231">
        <ele>412.6</ele>
        <time>2020-08-22 09:33:19</time>
      </trkpt>
      <trkpt lat="41.20482" lon="1.10229">
        <ele>412.8</ele>
        <time>2020-08-22 09:33:20</time>
      </trkpt>
      <trkpt lat="41.20484" lon="1.10228">
        <ele>413</ele>
        <time>2020-08-22 09:33:21</time>
      </trkpt>
      <trkpt lat="41.20486" lon="1.10226">
        <ele>413.2</ele>
        <time>2020-08-22 09:33:22</time>
      </trkpt>
      <trkpt lat="41.20489" lon="1.10225">
        <ele>413.2</ele>
        <time>2020-08-22 09:33:23</time>
      </trkpt>
      <trkpt lat="41.20491" lon="1.10224">
        <ele>413.4</ele>
        <time>2020-08-22 09:33:24</time>
      </trkpt>
      <trkpt lat="41.20494" lon="1.10223">
        <ele>413.4</ele>
        <time>2020-08-22 09:33:25</time>
      </trkpt>
      <trkpt lat="41.20496" lon="1.10222">
        <ele>413.6</ele>
        <time>2020-08-22 09:33:26</time>
      </trkpt>
      <trkpt lat="41.20499" lon="1.10221">
        <ele>413.8</ele>
        <time>2020-08-22 09:33:27</time>
      </trkpt>
      <trkpt lat="41.20501" lon="1.10219">
        <ele>413.8</ele>
        <time>2020-08-22 09:33:28</time>
      </trkpt>
      <trkpt lat="41.20504" lon="1.10217">
        <ele>413.8</ele>
        <time>2020-08-22 09:33:29</time>
      </trkpt>
      <trkpt lat="41.20508" lon="1.10214">
        <ele>414</ele>
        <time>2020-08-22 09:33:30</time>
      </trkpt>
      <trkpt lat="41.2051" lon="1.1021">
        <ele>414</ele>
        <time>2020-08-22 09:33:31</time>
      </trkpt>
      <trkpt lat="41.20514" lon="1.10207">
        <ele>414</ele>
        <time>2020-08-22 09:33:32</time>
      </trkpt>
      <trkpt lat="41.2052" lon="1.10201">
        <ele>414</ele>
        <time>2020-08-22 09:33:34</time>
      </trkpt>
      <trkpt lat="41.20524" lon="1.10199">
        <ele>414</ele>
        <time>2020-08-22 09:33:35</time>
      </trkpt>
      <trkpt lat="41.20527" lon="1.10197">
        <ele>414</ele>
        <time>2020-08-22 09:33:36</time>
      </trkpt>
      <trkpt lat="41.20531" lon="1.10194">
        <ele>413.8</ele>
        <time>2020-08-22 09:33:37</time>
      </trkpt>
      <trkpt lat="41.20534" lon="1.10192">
        <ele>413.8</ele>
        <time>2020-08-22 09:33:38</time>
      </trkpt>
      <trkpt lat="41.20537" lon="1.1019">
        <ele>413.8</ele>
        <time>2020-08-22 09:33:39</time>
      </trkpt>
      <trkpt lat="41.20541" lon="1.10188">
        <ele>413.6</ele>
        <time>2020-08-22 09:33:40</time>
      </trkpt>
      <trkpt lat="41.20544" lon="1.10186">
        <ele>413.6</ele>
        <time>2020-08-22 09:33:41</time>
      </trkpt>
      <trkpt lat="41.20548" lon="1.10183">
        <ele>413.6</ele>
        <time>2020-08-22 09:33:42</time>
      </trkpt>
      <trkpt lat="41.20551" lon="1.10181">
        <ele>413.6</ele>
        <time>2020-08-22 09:33:43</time>
      </trkpt>
      <trkpt lat="41.20555" lon="1.10178">
        <ele>413.6</ele>
        <time>2020-08-22 09:33:44</time>
      </trkpt>
      <trkpt lat="41.20558" lon="1.10175">
        <ele>413.8</ele>
        <time>2020-08-22 09:33:45</time>
      </trkpt>
      <trkpt lat="41.20566" lon="1.10165">
        <ele>414</ele>
        <time>2020-08-22 09:33:48</time>
      </trkpt>
      <trkpt lat="41.20568" lon="1.10163">
        <ele>414.2</ele>
        <time>2020-08-22 09:33:49</time>
      </trkpt>
      <trkpt lat="41.20571" lon="1.10159">
        <ele>414.2</ele>
        <time>2020-08-22 09:33:50</time>
      </trkpt>
      <trkpt lat="41.20573" lon="1.10156">
        <ele>414.4</ele>
        <time>2020-08-22 09:33:51</time>
      </trkpt>
      <trkpt lat="41.20575" lon="1.10153">
        <ele>414.6</ele>
        <time>2020-08-22 09:33:52</time>
      </trkpt>
      <trkpt lat="41.20576" lon="1.10149">
        <ele>414.6</ele>
        <time>2020-08-22 09:33:53</time>
      </trkpt>
      <trkpt lat="41.20578" lon="1.10145">
        <ele>414.8</ele>
        <time>2020-08-22 09:33:54</time>
      </trkpt>
      <trkpt lat="41.20579" lon="1.1014">
        <ele>415.2</ele>
        <time>2020-08-22 09:33:55</time>
      </trkpt>
      <trkpt lat="41.20581" lon="1.10135">
        <ele>415.4</ele>
        <time>2020-08-22 09:33:56</time>
      </trkpt>
      <trkpt lat="41.20582" lon="1.10129">
        <ele>415.4</ele>
        <time>2020-08-22 09:33:57</time>
      </trkpt>
      <trkpt lat="41.20584" lon="1.10124">
        <ele>415.6</ele>
        <time>2020-08-22 09:33:58</time>
      </trkpt>
      <trkpt lat="41.20587" lon="1.10119">
        <ele>415.6</ele>
        <time>2020-08-22 09:33:59</time>
      </trkpt>
      <trkpt lat="41.2059" lon="1.10116">
        <ele>415.4</ele>
        <time>2020-08-22 09:34:00</time>
      </trkpt>
      <trkpt lat="41.20595" lon="1.10114">
        <ele>415.2</ele>
        <time>2020-08-22 09:34:01</time>
      </trkpt>
      <trkpt lat="41.20599" lon="1.10113">
        <ele>415.2</ele>
        <time>2020-08-22 09:34:02</time>
      </trkpt>
      <trkpt lat="41.20604" lon="1.10112">
        <ele>415.2</ele>
        <time>2020-08-22 09:34:03</time>
      </trkpt>
      <trkpt lat="41.20608" lon="1.10111">
        <ele>415.2</ele>
        <time>2020-08-22 09:34:04</time>
      </trkpt>
      <trkpt lat="41.20611" lon="1.1011">
        <ele>415.2</ele>
        <time>2020-08-22 09:34:05</time>
      </trkpt>
      <trkpt lat="41.20615" lon="1.1011">
        <ele>415.2</ele>
        <time>2020-08-22 09:34:06</time>
      </trkpt>
      <trkpt lat="41.20618" lon="1.1011">
        <ele>415.2</ele>
        <time>2020-08-22 09:34:07</time>
      </trkpt>
      <trkpt lat="41.20621" lon="1.10109">
        <ele>415.4</ele>
        <time>2020-08-22 09:34:08</time>
      </trkpt>
      <trkpt lat="41.20624" lon="1.10108">
        <ele>415.6</ele>
        <time>2020-08-22 09:34:09</time>
      </trkpt>
      <trkpt lat="41.20627" lon="1.10106">
        <ele>415.8</ele>
        <time>2020-08-22 09:34:10</time>
      </trkpt>
      <trkpt lat="41.20629" lon="1.10104">
        <ele>416.4</ele>
        <time>2020-08-22 09:34:11</time>
      </trkpt>
      <trkpt lat="41.2063" lon="1.10101">
        <ele>416.6</ele>
        <time>2020-08-22 09:34:12</time>
      </trkpt>
      <trkpt lat="41.20631" lon="1.10098">
        <ele>417</ele>
        <time>2020-08-22 09:34:13</time>
      </trkpt>
      <trkpt lat="41.20633" lon="1.10095">
        <ele>417.4</ele>
        <time>2020-08-22 09:34:14</time>
      </trkpt>
      <trkpt lat="41.20634" lon="1.10092">
        <ele>417.6</ele>
        <time>2020-08-22 09:34:15</time>
      </trkpt>
      <trkpt lat="41.20636" lon="1.10089">
        <ele>417.8</ele>
        <time>2020-08-22 09:34:16</time>
      </trkpt>
      <trkpt lat="41.20637" lon="1.10087">
        <ele>418</ele>
        <time>2020-08-22 09:34:17</time>
      </trkpt>
      <trkpt lat="41.20639" lon="1.10085">
        <ele>418.6</ele>
        <time>2020-08-22 09:34:18</time>
      </trkpt>
      <trkpt lat="41.20641" lon="1.10083">
        <ele>419</ele>
        <time>2020-08-22 09:34:19</time>
      </trkpt>
      <trkpt lat="41.20644" lon="1.10082">
        <ele>419.2</ele>
        <time>2020-08-22 09:34:20</time>
      </trkpt>
      <trkpt lat="41.20647" lon="1.10081">
        <ele>419.4</ele>
        <time>2020-08-22 09:34:21</time>
      </trkpt>
      <trkpt lat="41.20649" lon="1.10081">
        <ele>419.8</ele>
        <time>2020-08-22 09:34:22</time>
      </trkpt>
      <trkpt lat="41.20652" lon="1.10081">
        <ele>420.4</ele>
        <time>2020-08-22 09:34:23</time>
      </trkpt>
      <trkpt lat="41.20655" lon="1.10081">
        <ele>420.6</ele>
        <time>2020-08-22 09:34:24</time>
      </trkpt>
      <trkpt lat="41.20657" lon="1.1008">
        <ele>420.8</ele>
        <time>2020-08-22 09:34:25</time>
      </trkpt>
      <trkpt lat="41.2066" lon="1.1008">
        <ele>421.2</ele>
        <time>2020-08-22 09:34:26</time>
      </trkpt>
      <trkpt lat="41.20663" lon="1.10078">
        <ele>421.6</ele>
        <time>2020-08-22 09:34:27</time>
      </trkpt>
      <trkpt lat="41.20665" lon="1.10077">
        <ele>421.8</ele>
        <time>2020-08-22 09:34:28</time>
      </trkpt>
      <trkpt lat="41.20667" lon="1.10075">
        <ele>422.2</ele>
        <time>2020-08-22 09:34:29</time>
      </trkpt>
      <trkpt lat="41.20669" lon="1.10073">
        <ele>422.6</ele>
        <time>2020-08-22 09:34:30</time>
      </trkpt>
      <trkpt lat="41.20671" lon="1.10071">
        <ele>422.8</ele>
        <time>2020-08-22 09:34:31</time>
      </trkpt>
      <trkpt lat="41.20672" lon="1.10068">
        <ele>423.2</ele>
        <time>2020-08-22 09:34:32</time>
      </trkpt>
      <trkpt lat="41.20674" lon="1.10065">
        <ele>423.4</ele>
        <time>2020-08-22 09:34:33</time>
      </trkpt>
      <trkpt lat="41.20676" lon="1.10063">
        <ele>423.8</ele>
        <time>2020-08-22 09:34:34</time>
      </trkpt>
      <trkpt lat="41.20677" lon="1.1006">
        <ele>424</ele>
        <time>2020-08-22 09:34:35</time>
      </trkpt>
      <trkpt lat="41.20679" lon="1.10058">
        <ele>424.4</ele>
        <time>2020-08-22 09:34:36</time>
      </trkpt>
      <trkpt lat="41.2068" lon="1.10056">
        <ele>424.4</ele>
        <time>2020-08-22 09:34:37</time>
      </trkpt>
      <trkpt lat="41.20681" lon="1.10054">
        <ele>425.2</ele>
        <time>2020-08-22 09:34:38</time>
      </trkpt>
      <trkpt lat="41.20682" lon="1.10051">
        <ele>425.4</ele>
        <time>2020-08-22 09:34:39</time>
      </trkpt>
      <trkpt lat="41.20684" lon="1.10048">
        <ele>425.8</ele>
        <time>2020-08-22 09:34:40</time>
      </trkpt>
      <trkpt lat="41.20685" lon="1.10046">
        <ele>426</ele>
        <time>2020-08-22 09:34:41</time>
      </trkpt>
      <trkpt lat="41.20686" lon="1.10043">
        <ele>426.4</ele>
        <time>2020-08-22 09:34:42</time>
      </trkpt>
      <trkpt lat="41.20688" lon="1.10041">
        <ele>426.8</ele>
        <time>2020-08-22 09:34:43</time>
      </trkpt>
      <trkpt lat="41.20689" lon="1.10039">
        <ele>427</ele>
        <time>2020-08-22 09:34:44</time>
      </trkpt>
      <trkpt lat="41.20691" lon="1.10037">
        <ele>427.8</ele>
        <time>2020-08-22 09:34:45</time>
      </trkpt>
      <trkpt lat="41.20692" lon="1.10035">
        <ele>428</ele>
        <time>2020-08-22 09:34:46</time>
      </trkpt>
      <trkpt lat="41.20694" lon="1.10033">
        <ele>428.4</ele>
        <time>2020-08-22 09:34:47</time>
      </trkpt>
      <trkpt lat="41.20696" lon="1.10032">
        <ele>428.6</ele>
        <time>2020-08-22 09:34:48</time>
      </trkpt>
      <trkpt lat="41.20698" lon="1.10031">
        <ele>428.8</ele>
        <time>2020-08-22 09:34:49</time>
      </trkpt>
      <trkpt lat="41.207" lon="1.10031">
        <ele>429.6</ele>
        <time>2020-08-22 09:34:50</time>
      </trkpt>
      <trkpt lat="41.20702" lon="1.10031">
        <ele>429.8</ele>
        <time>2020-08-22 09:34:51</time>
      </trkpt>
      <trkpt lat="41.20704" lon="1.1003">
        <ele>430</ele>
        <time>2020-08-22 09:34:52</time>
      </trkpt>
      <trkpt lat="41.20706" lon="1.1003">
        <ele>430.2</ele>
        <time>2020-08-22 09:34:53</time>
      </trkpt>
      <trkpt lat="41.20708" lon="1.1003">
        <ele>430.8</ele>
        <time>2020-08-22 09:34:54</time>
      </trkpt>
      <trkpt lat="41.2071" lon="1.1003">
        <ele>431</ele>
        <time>2020-08-22 09:34:55</time>
      </trkpt>
      <trkpt lat="41.20713" lon="1.1003">
        <ele>431.6</ele>
        <time>2020-08-22 09:34:56</time>
      </trkpt>
      <trkpt lat="41.20715" lon="1.10029">
        <ele>432</ele>
        <time>2020-08-22 09:34:57</time>
      </trkpt>
      <trkpt lat="41.20717" lon="1.10029">
        <ele>432.2</ele>
        <time>2020-08-22 09:34:58</time>
      </trkpt>
      <trkpt lat="41.20719" lon="1.10027">
        <ele>432.4</ele>
        <time>2020-08-22 09:34:59</time>
      </trkpt>
      <trkpt lat="41.20721" lon="1.10026">
        <ele>432.6</ele>
        <time>2020-08-22 09:35:00</time>
      </trkpt>
      <trkpt lat="41.20723" lon="1.10024">
        <ele>432.8</ele>
        <time>2020-08-22 09:35:01</time>
      </trkpt>
      <trkpt lat="41.20724" lon="1.10023">
        <ele>432.8</ele>
        <time>2020-08-22 09:35:02</time>
      </trkpt>
      <trkpt lat="41.20726" lon="1.10021">
        <ele>433</ele>
        <time>2020-08-22 09:35:03</time>
      </trkpt>
      <trkpt lat="41.20728" lon="1.1002">
        <ele>433.4</ele>
        <time>2020-08-22 09:35:04</time>
      </trkpt>
      <trkpt lat="41.2073" lon="1.10018">
        <ele>433.6</ele>
        <time>2020-08-22 09:35:05</time>
      </trkpt>
      <trkpt lat="41.20731" lon="1.10016">
        <ele>433.8</ele>
        <time>2020-08-22 09:35:06</time>
      </trkpt>
      <trkpt lat="41.20733" lon="1.10014">
        <ele>433.8</ele>
        <time>2020-08-22 09:35:07</time>
      </trkpt>
      <trkpt lat="41.20734" lon="1.10013">
        <ele>434.2</ele>
        <time>2020-08-22 09:35:08</time>
      </trkpt>
      <trkpt lat="41.20736" lon="1.10011">
        <ele>434.4</ele>
        <time>2020-08-22 09:35:09</time>
      </trkpt>
      <trkpt lat="41.20737" lon="1.1001">
        <ele>435</ele>
        <time>2020-08-22 09:35:10</time>
      </trkpt>
      <trkpt lat="41.20738" lon="1.10009">
        <ele>435.2</ele>
        <time>2020-08-22 09:35:11</time>
      </trkpt>
      <trkpt lat="41.20739" lon="1.10009">
        <ele>435.4</ele>
        <time>2020-08-22 09:35:12</time>
      </trkpt>
      <trkpt lat="41.20741" lon="1.10008">
        <ele>435.6</ele>
        <time>2020-08-22 09:35:13</time>
      </trkpt>
      <trkpt lat="41.20743" lon="1.10007">
        <ele>435.8</ele>
        <time>2020-08-22 09:35:14</time>
      </trkpt>
      <trkpt lat="41.20744" lon="1.10007">
        <ele>436.2</ele>
        <time>2020-08-22 09:35:15</time>
      </trkpt>
      <trkpt lat="41.20746" lon="1.10006">
        <ele>436.4</ele>
        <time>2020-08-22 09:35:16</time>
      </trkpt>
      <trkpt lat="41.20747" lon="1.10006">
        <ele>436.8</ele>
        <time>2020-08-22 09:35:17</time>
      </trkpt>
      <trkpt lat="41.20749" lon="1.10005">
        <ele>436.8</ele>
        <time>2020-08-22 09:35:18</time>
      </trkpt>
      <trkpt lat="41.20751" lon="1.10005">
        <ele>437.2</ele>
        <time>2020-08-22 09:35:19</time>
      </trkpt>
      <trkpt lat="41.20753" lon="1.10004">
        <ele>437.4</ele>
        <time>2020-08-22 09:35:20</time>
      </trkpt>
      <trkpt lat="41.20755" lon="1.10003">
        <ele>437.6</ele>
        <time>2020-08-22 09:35:21</time>
      </trkpt>
      <trkpt lat="41.20757" lon="1.10002">
        <ele>437.8</ele>
        <time>2020-08-22 09:35:22</time>
      </trkpt>
      <trkpt lat="41.20759" lon="1.10002">
        <ele>438</ele>
        <time>2020-08-22 09:35:23</time>
      </trkpt>
      <trkpt lat="41.20761" lon="1.10001">
        <ele>438.4</ele>
        <time>2020-08-22 09:35:24</time>
      </trkpt>
      <trkpt lat="41.20763" lon="1.1">
        <ele>438.6</ele>
        <time>2020-08-22 09:35:25</time>
      </trkpt>
      <trkpt lat="41.20765" lon="1.09998">
        <ele>439</ele>
        <time>2020-08-22 09:35:26</time>
      </trkpt>
      <trkpt lat="41.20766" lon="1.09997">
        <ele>439.2</ele>
        <time>2020-08-22 09:35:27</time>
      </trkpt>
      <trkpt lat="41.20768" lon="1.09996">
        <ele>439.4</ele>
        <time>2020-08-22 09:35:28</time>
      </trkpt>
      <trkpt lat="41.2077" lon="1.09995">
        <ele>439.6</ele>
        <time>2020-08-22 09:35:29</time>
      </trkpt>
      <trkpt lat="41.20772" lon="1.09994">
        <ele>440</ele>
        <time>2020-08-22 09:35:30</time>
      </trkpt>
      <trkpt lat="41.20774" lon="1.09993">
        <ele>440.4</ele>
        <time>2020-08-22 09:35:31</time>
      </trkpt>
      <trkpt lat="41.20775" lon="1.09992">
        <ele>440.6</ele>
        <time>2020-08-22 09:35:32</time>
      </trkpt>
      <trkpt lat="41.20777" lon="1.0999">
        <ele>440.8</ele>
        <time>2020-08-22 09:35:33</time>
      </trkpt>
      <trkpt lat="41.20778" lon="1.09989">
        <ele>440.8</ele>
        <time>2020-08-22 09:35:34</time>
      </trkpt>
      <trkpt lat="41.2078" lon="1.09987">
        <ele>441</ele>
        <time>2020-08-22 09:35:35</time>
      </trkpt>
      <trkpt lat="41.20781" lon="1.09985">
        <ele>441.2</ele>
        <time>2020-08-22 09:35:36</time>
      </trkpt>
      <trkpt lat="41.20782" lon="1.09983">
        <ele>441.8</ele>
        <time>2020-08-22 09:35:37</time>
      </trkpt>
      <trkpt lat="41.20783" lon="1.09981">
        <ele>442.2</ele>
        <time>2020-08-22 09:35:38</time>
      </trkpt>
      <trkpt lat="41.20784" lon="1.09979">
        <ele>442.4</ele>
        <time>2020-08-22 09:35:39</time>
      </trkpt>
      <trkpt lat="41.20785" lon="1.09978">
        <ele>442.8</ele>
        <time>2020-08-22 09:35:40</time>
      </trkpt>
      <trkpt lat="41.20787" lon="1.09976">
        <ele>443</ele>
        <time>2020-08-22 09:35:41</time>
      </trkpt>
      <trkpt lat="41.20787" lon="1.09974">
        <ele>443.2</ele>
        <time>2020-08-22 09:35:42</time>
      </trkpt>
      <trkpt lat="41.20788" lon="1.09971">
        <ele>443.4</ele>
        <time>2020-08-22 09:35:43</time>
      </trkpt>
      <trkpt lat="41.20789" lon="1.09969">
        <ele>443.6</ele>
        <time>2020-08-22 09:35:44</time>
      </trkpt>
      <trkpt lat="41.2079" lon="1.09967">
        <ele>443.8</ele>
        <time>2020-08-22 09:35:45</time>
      </trkpt>
      <trkpt lat="41.20792" lon="1.09965">
        <ele>444</ele>
        <time>2020-08-22 09:35:46</time>
      </trkpt>
      <trkpt lat="41.20793" lon="1.09963">
        <ele>444.2</ele>
        <time>2020-08-22 09:35:47</time>
      </trkpt>
      <trkpt lat="41.20794" lon="1.09961">
        <ele>444.4</ele>
        <time>2020-08-22 09:35:48</time>
      </trkpt>
      <trkpt lat="41.20795" lon="1.09959">
        <ele>444.4</ele>
        <time>2020-08-22 09:35:49</time>
      </trkpt>
      <trkpt lat="41.20796" lon="1.09957">
        <ele>444.6</ele>
        <time>2020-08-22 09:35:50</time>
      </trkpt>
      <trkpt lat="41.20797" lon="1.09955">
        <ele>444.6</ele>
        <time>2020-08-22 09:35:51</time>
      </trkpt>
      <trkpt lat="41.20798" lon="1.09952">
        <ele>444.6</ele>
        <time>2020-08-22 09:35:52</time>
      </trkpt>
      <trkpt lat="41.20799" lon="1.0995">
        <ele>444.8</ele>
        <time>2020-08-22 09:35:53</time>
      </trkpt>
      <trkpt lat="41.208" lon="1.09948">
        <ele>445</ele>
        <time>2020-08-22 09:35:54</time>
      </trkpt>
      <trkpt lat="41.20802" lon="1.09946">
        <ele>445.2</ele>
        <time>2020-08-22 09:35:55</time>
      </trkpt>
      <trkpt lat="41.20804" lon="1.09942">
        <ele>445.4</ele>
        <time>2020-08-22 09:35:56</time>
      </trkpt>
      <trkpt lat="41.20804" lon="1.09942">
        <ele>445.6</ele>
        <time>2020-08-22 09:35:57</time>
      </trkpt>
      <trkpt lat="41.20805" lon="1.0994">
        <ele>445.8</ele>
        <time>2020-08-22 09:35:58</time>
      </trkpt>
      <trkpt lat="41.20806" lon="1.09938">
        <ele>446</ele>
        <time>2020-08-22 09:35:59</time>
      </trkpt>
      <trkpt lat="41.20807" lon="1.09936">
        <ele>446</ele>
        <time>2020-08-22 09:36:00</time>
      </trkpt>
      <trkpt lat="41.20809" lon="1.09931">
        <ele>446.2</ele>
        <time>2020-08-22 09:36:01</time>
      </trkpt>
      <trkpt lat="41.20811" lon="1.09929">
        <ele>446.4</ele>
        <time>2020-08-22 09:36:02</time>
      </trkpt>
      <trkpt lat="41.20811" lon="1.09929">
        <ele>446.6</ele>
        <time>2020-08-22 09:36:03</time>
      </trkpt>
      <trkpt lat="41.20812" lon="1.09927">
        <ele>447</ele>
        <time>2020-08-22 09:36:04</time>
      </trkpt>
      <trkpt lat="41.20813" lon="1.09925">
        <ele>447</ele>
        <time>2020-08-22 09:36:05</time>
      </trkpt>
      <trkpt lat="41.20815" lon="1.09922">
        <ele>447</ele>
        <time>2020-08-22 09:36:06</time>
      </trkpt>
      <trkpt lat="41.20816" lon="1.0992">
        <ele>447.2</ele>
        <time>2020-08-22 09:36:07</time>
      </trkpt>
      <trkpt lat="41.20817" lon="1.09918">
        <ele>447.2</ele>
        <time>2020-08-22 09:36:08</time>
      </trkpt>
      <trkpt lat="41.20819" lon="1.09913">
        <ele>447.4</ele>
        <time>2020-08-22 09:36:09</time>
      </trkpt>
      <trkpt lat="41.20819" lon="1.09913">
        <ele>447.6</ele>
        <time>2020-08-22 09:36:10</time>
      </trkpt>
      <trkpt lat="41.2082" lon="1.09911">
        <ele>447.8</ele>
        <time>2020-08-22 09:36:11</time>
      </trkpt>
      <trkpt lat="41.20823" lon="1.09907">
        <ele>447.8</ele>
        <time>2020-08-22 09:36:12</time>
      </trkpt>
      <trkpt lat="41.20823" lon="1.09907">
        <ele>447.8</ele>
        <time>2020-08-22 09:36:13</time>
      </trkpt>
      <trkpt lat="41.20826" lon="1.09902">
        <ele>448</ele>
        <time>2020-08-22 09:36:14</time>
      </trkpt>
      <trkpt lat="41.20826" lon="1.09902">
        <ele>448</ele>
        <time>2020-08-22 09:36:15</time>
      </trkpt>
      <trkpt lat="41.20828" lon="1.09899">
        <ele>448.2</ele>
        <time>2020-08-22 09:36:16</time>
      </trkpt>
      <trkpt lat="41.2083" lon="1.09897">
        <ele>448.2</ele>
        <time>2020-08-22 09:36:17</time>
      </trkpt>
      <trkpt lat="41.20832" lon="1.09895">
        <ele>448.4</ele>
        <time>2020-08-22 09:36:18</time>
      </trkpt>
      <trkpt lat="41.20835" lon="1.09891">
        <ele>448.6</ele>
        <time>2020-08-22 09:36:20</time>
      </trkpt>
      <trkpt lat="41.20837" lon="1.09889">
        <ele>448.8</ele>
        <time>2020-08-22 09:36:21</time>
      </trkpt>
      <trkpt lat="41.20839" lon="1.09887">
        <ele>448.8</ele>
        <time>2020-08-22 09:36:22</time>
      </trkpt>
      <trkpt lat="41.20841" lon="1.09885">
        <ele>449</ele>
        <time>2020-08-22 09:36:23</time>
      </trkpt>
      <trkpt lat="41.20843" lon="1.09883">
        <ele>449.2</ele>
        <time>2020-08-22 09:36:24</time>
      </trkpt>
      <trkpt lat="41.20845" lon="1.09881">
        <ele>449.4</ele>
        <time>2020-08-22 09:36:25</time>
      </trkpt>
      <trkpt lat="41.20847" lon="1.09879">
        <ele>449.6</ele>
        <time>2020-08-22 09:36:26</time>
      </trkpt>
      <trkpt lat="41.20851" lon="1.09875">
        <ele>450</ele>
        <time>2020-08-22 09:36:27</time>
      </trkpt>
      <trkpt lat="41.20851" lon="1.09875">
        <ele>450</ele>
        <time>2020-08-22 09:36:28</time>
      </trkpt>
      <trkpt lat="41.20853" lon="1.09873">
        <ele>450.2</ele>
        <time>2020-08-22 09:36:29</time>
      </trkpt>
      <trkpt lat="41.20854" lon="1.09871">
        <ele>450.2</ele>
        <time>2020-08-22 09:36:30</time>
      </trkpt>
      <trkpt lat="41.20856" lon="1.09869">
        <ele>450.2</ele>
        <time>2020-08-22 09:36:31</time>
      </trkpt>
      <trkpt lat="41.20858" lon="1.09867">
        <ele>450.4</ele>
        <time>2020-08-22 09:36:32</time>
      </trkpt>
      <trkpt lat="41.2086" lon="1.09865">
        <ele>450.4</ele>
        <time>2020-08-22 09:36:33</time>
      </trkpt>
      <trkpt lat="41.20863" lon="1.0986">
        <ele>450.6</ele>
        <time>2020-08-22 09:36:34</time>
      </trkpt>
      <trkpt lat="41.20864" lon="1.09857">
        <ele>450.8</ele>
        <time>2020-08-22 09:36:35</time>
      </trkpt>
      <trkpt lat="41.20865" lon="1.09856">
        <ele>451</ele>
        <time>2020-08-22 09:36:36</time>
      </trkpt>
      <trkpt lat="41.20867" lon="1.09854">
        <ele>451.2</ele>
        <time>2020-08-22 09:36:37</time>
      </trkpt>
      <trkpt lat="41.20867" lon="1.09854">
        <ele>451.6</ele>
        <time>2020-08-22 09:36:38</time>
      </trkpt>
      <trkpt lat="41.20868" lon="1.09851">
        <ele>452</ele>
        <time>2020-08-22 09:36:39</time>
      </trkpt>
      <trkpt lat="41.20869" lon="1.09848">
        <ele>452.2</ele>
        <time>2020-08-22 09:36:40</time>
      </trkpt>
      <trkpt lat="41.20871" lon="1.09846">
        <ele>452.4</ele>
        <time>2020-08-22 09:36:41</time>
      </trkpt>
      <trkpt lat="41.20873" lon="1.09841">
        <ele>452.6</ele>
        <time>2020-08-22 09:36:42</time>
      </trkpt>
      <trkpt lat="41.20873" lon="1.09841">
        <ele>453.2</ele>
        <time>2020-08-22 09:36:43</time>
      </trkpt>
      <trkpt lat="41.20875" lon="1.09838">
        <ele>453.4</ele>
        <time>2020-08-22 09:36:44</time>
      </trkpt>
      <trkpt lat="41.20877" lon="1.09833">
        <ele>453.6</ele>
        <time>2020-08-22 09:36:45</time>
      </trkpt>
      <trkpt lat="41.20877" lon="1.09833">
        <ele>454</ele>
        <time>2020-08-22 09:36:46</time>
      </trkpt>
      <trkpt lat="41.2088" lon="1.09828">
        <ele>454.2</ele>
        <time>2020-08-22 09:36:47</time>
      </trkpt>
      <trkpt lat="41.2088" lon="1.09828">
        <ele>454.4</ele>
        <time>2020-08-22 09:36:48</time>
      </trkpt>
      <trkpt lat="41.20882" lon="1.09823">
        <ele>454.4</ele>
        <time>2020-08-22 09:36:49</time>
      </trkpt>
      <trkpt lat="41.20883" lon="1.09819">
        <ele>454.6</ele>
        <time>2020-08-22 09:36:50</time>
      </trkpt>
      <trkpt lat="41.20884" lon="1.09817">
        <ele>455.2</ele>
        <time>2020-08-22 09:36:51</time>
      </trkpt>
      <trkpt lat="41.20885" lon="1.09814">
        <ele>456</ele>
        <time>2020-08-22 09:36:52</time>
      </trkpt>
      <trkpt lat="41.20886" lon="1.09811">
        <ele>456.2</ele>
        <time>2020-08-22 09:36:53</time>
      </trkpt>
      <trkpt lat="41.20887" lon="1.09809">
        <ele>456.6</ele>
        <time>2020-08-22 09:36:54</time>
      </trkpt>
      <trkpt lat="41.20888" lon="1.09806">
        <ele>456.6</ele>
        <time>2020-08-22 09:36:55</time>
      </trkpt>
      <trkpt lat="41.20889" lon="1.09803">
        <ele>456.8</ele>
        <time>2020-08-22 09:36:56</time>
      </trkpt>
      <trkpt lat="41.20889" lon="1.09803">
        <ele>457.2</ele>
        <time>2020-08-22 09:36:57</time>
      </trkpt>
      <trkpt lat="41.2089" lon="1.098">
        <ele>457.4</ele>
        <time>2020-08-22 09:36:58</time>
      </trkpt>
      <trkpt lat="41.20891" lon="1.09797">
        <ele>457.8</ele>
        <time>2020-08-22 09:36:59</time>
      </trkpt>
      <trkpt lat="41.20893" lon="1.09792">
        <ele>458</ele>
        <time>2020-08-22 09:37:00</time>
      </trkpt>
      <trkpt lat="41.20894" lon="1.09789">
        <ele>458.4</ele>
        <time>2020-08-22 09:37:01</time>
      </trkpt>
      <trkpt lat="41.20895" lon="1.09786">
        <ele>458.6</ele>
        <time>2020-08-22 09:37:02</time>
      </trkpt>
      <trkpt lat="41.20895" lon="1.09786">
        <ele>459</ele>
        <time>2020-08-22 09:37:03</time>
      </trkpt>
      <trkpt lat="41.20897" lon="1.09784">
        <ele>459.4</ele>
        <time>2020-08-22 09:37:04</time>
      </trkpt>
      <trkpt lat="41.20899" lon="1.09778">
        <ele>459.8</ele>
        <time>2020-08-22 09:37:05</time>
      </trkpt>
      <trkpt lat="41.209" lon="1.09775">
        <ele>460</ele>
        <time>2020-08-22 09:37:06</time>
      </trkpt>
      <trkpt lat="41.209" lon="1.09775">
        <ele>460.2</ele>
        <time>2020-08-22 09:37:07</time>
      </trkpt>
      <trkpt lat="41.20901" lon="1.09773">
        <ele>460.6</ele>
        <time>2020-08-22 09:37:08</time>
      </trkpt>
      <trkpt lat="41.20902" lon="1.0977">
        <ele>460.8</ele>
        <time>2020-08-22 09:37:09</time>
      </trkpt>
      <trkpt lat="41.20905" lon="1.09765">
        <ele>461.4</ele>
        <time>2020-08-22 09:37:10</time>
      </trkpt>
      <trkpt lat="41.20906" lon="1.09763">
        <ele>461.4</ele>
        <time>2020-08-22 09:37:11</time>
      </trkpt>
      <trkpt lat="41.20907" lon="1.0976">
        <ele>461.8</ele>
        <time>2020-08-22 09:37:12</time>
      </trkpt>
      <trkpt lat="41.20908" lon="1.09758">
        <ele>462.4</ele>
        <time>2020-08-22 09:37:13</time>
      </trkpt>
      <trkpt lat="41.20908" lon="1.09758">
        <ele>462.8</ele>
        <time>2020-08-22 09:37:14</time>
      </trkpt>
      <trkpt lat="41.2091" lon="1.09754">
        <ele>463.2</ele>
        <time>2020-08-22 09:37:15</time>
      </trkpt>
      <trkpt lat="41.20911" lon="1.09751">
        <ele>463.4</ele>
        <time>2020-08-22 09:37:16</time>
      </trkpt>
      <trkpt lat="41.20912" lon="1.09749">
        <ele>464.2</ele>
        <time>2020-08-22 09:37:17</time>
      </trkpt>
      <trkpt lat="41.20913" lon="1.09746">
        <ele>464.4</ele>
        <time>2020-08-22 09:37:18</time>
      </trkpt>
      <trkpt lat="41.20914" lon="1.09744">
        <ele>464.8</ele>
        <time>2020-08-22 09:37:19</time>
      </trkpt>
      <trkpt lat="41.20914" lon="1.09744">
        <ele>465.2</ele>
        <time>2020-08-22 09:37:20</time>
      </trkpt>
      <trkpt lat="41.20916" lon="1.09739">
        <ele>465.4</ele>
        <time>2020-08-22 09:37:21</time>
      </trkpt>
      <trkpt lat="41.20917" lon="1.09736">
        <ele>466</ele>
        <time>2020-08-22 09:37:22</time>
      </trkpt>
      <trkpt lat="41.20918" lon="1.09734">
        <ele>466.2</ele>
        <time>2020-08-22 09:37:23</time>
      </trkpt>
      <trkpt lat="41.20919" lon="1.09731">
        <ele>466.6</ele>
        <time>2020-08-22 09:37:24</time>
      </trkpt>
      <trkpt lat="41.20919" lon="1.09731">
        <ele>466.8</ele>
        <time>2020-08-22 09:37:25</time>
      </trkpt>
      <trkpt lat="41.20921" lon="1.09726">
        <ele>467.2</ele>
        <time>2020-08-22 09:37:26</time>
      </trkpt>
      <trkpt lat="41.20921" lon="1.09726">
        <ele>467.4</ele>
        <time>2020-08-22 09:37:27</time>
      </trkpt>
      <trkpt lat="41.20923" lon="1.09721">
        <ele>467.6</ele>
        <time>2020-08-22 09:37:28</time>
      </trkpt>
      <trkpt lat="41.20924" lon="1.09719">
        <ele>467.8</ele>
        <time>2020-08-22 09:37:29</time>
      </trkpt>
      <trkpt lat="41.20924" lon="1.09719">
        <ele>467.8</ele>
        <time>2020-08-22 09:37:30</time>
      </trkpt>
      <trkpt lat="41.20927" lon="1.09715">
        <ele>468.2</ele>
        <time>2020-08-22 09:37:31</time>
      </trkpt>
      <trkpt lat="41.20928" lon="1.09712">
        <ele>468.4</ele>
        <time>2020-08-22 09:37:32</time>
      </trkpt>
      <trkpt lat="41.20929" lon="1.0971">
        <ele>468.6</ele>
        <time>2020-08-22 09:37:33</time>
      </trkpt>
      <trkpt lat="41.2093" lon="1.09707">
        <ele>468.6</ele>
        <time>2020-08-22 09:37:34</time>
      </trkpt>
      <trkpt lat="41.2093" lon="1.09707">
        <ele>468.8</ele>
        <time>2020-08-22 09:37:35</time>
      </trkpt>
      <trkpt lat="41.20931" lon="1.09705">
        <ele>469</ele>
        <time>2020-08-22 09:37:36</time>
      </trkpt>
      <trkpt lat="41.20933" lon="1.097">
        <ele>469.2</ele>
        <time>2020-08-22 09:37:37</time>
      </trkpt>
      <trkpt lat="41.20934" lon="1.09697">
        <ele>469.4</ele>
        <time>2020-08-22 09:37:38</time>
      </trkpt>
      <trkpt lat="41.20936" lon="1.09695">
        <ele>469.4</ele>
        <time>2020-08-22 09:37:39</time>
      </trkpt>
      <trkpt lat="41.20936" lon="1.09695">
        <ele>469.6</ele>
        <time>2020-08-22 09:37:40</time>
      </trkpt>
      <trkpt lat="41.20938" lon="1.09689">
        <ele>469.8</ele>
        <time>2020-08-22 09:37:41</time>
      </trkpt>
      <trkpt lat="41.20939" lon="1.09687">
        <ele>470.2</ele>
        <time>2020-08-22 09:37:42</time>
      </trkpt>
      <trkpt lat="41.2094" lon="1.09684">
        <ele>470.2</ele>
        <time>2020-08-22 09:37:43</time>
      </trkpt>
      <trkpt lat="41.20941" lon="1.09681">
        <ele>470.4</ele>
        <time>2020-08-22 09:37:44</time>
      </trkpt>
      <trkpt lat="41.20941" lon="1.09679">
        <ele>470.6</ele>
        <time>2020-08-22 09:37:45</time>
      </trkpt>
      <trkpt lat="41.20942" lon="1.09676">
        <ele>471</ele>
        <time>2020-08-22 09:37:46</time>
      </trkpt>
      <trkpt lat="41.20943" lon="1.09673">
        <ele>471.2</ele>
        <time>2020-08-22 09:37:47</time>
      </trkpt>
      <trkpt lat="41.20943" lon="1.09673">
        <ele>471.4</ele>
        <time>2020-08-22 09:37:48</time>
      </trkpt>
      <trkpt lat="41.20944" lon="1.09668">
        <ele>471.6</ele>
        <time>2020-08-22 09:37:49</time>
      </trkpt>
      <trkpt lat="41.20945" lon="1.09665">
        <ele>471.8</ele>
        <time>2020-08-22 09:37:50</time>
      </trkpt>
      <trkpt lat="41.20945" lon="1.09665">
        <ele>472</ele>
        <time>2020-08-22 09:37:51</time>
      </trkpt>
      <trkpt lat="41.20947" lon="1.0966">
        <ele>472.2</ele>
        <time>2020-08-22 09:37:52</time>
      </trkpt>
      <trkpt lat="41.20947" lon="1.09657">
        <ele>472.6</ele>
        <time>2020-08-22 09:37:53</time>
      </trkpt>
      <trkpt lat="41.20948" lon="1.09655">
        <ele>472.8</ele>
        <time>2020-08-22 09:37:54</time>
      </trkpt>
      <trkpt lat="41.20948" lon="1.09655">
        <ele>473</ele>
        <time>2020-08-22 09:37:55</time>
      </trkpt>
      <trkpt lat="41.20949" lon="1.09653">
        <ele>473.4</ele>
        <time>2020-08-22 09:37:56</time>
      </trkpt>
      <trkpt lat="41.2095" lon="1.0965">
        <ele>473.4</ele>
        <time>2020-08-22 09:37:57</time>
      </trkpt>
      <trkpt lat="41.20953" lon="1.09645">
        <ele>473.8</ele>
        <time>2020-08-22 09:37:58</time>
      </trkpt>
      <trkpt lat="41.20954" lon="1.09643">
        <ele>474</ele>
        <time>2020-08-22 09:37:59</time>
      </trkpt>
      <trkpt lat="41.20955" lon="1.09641">
        <ele>474.4</ele>
        <time>2020-08-22 09:38:00</time>
      </trkpt>
      <trkpt lat="41.20956" lon="1.09639">
        <ele>474.6</ele>
        <time>2020-08-22 09:38:01</time>
      </trkpt>
      <trkpt lat="41.20958" lon="1.09638">
        <ele>475</ele>
        <time>2020-08-22 09:38:02</time>
      </trkpt>
      <trkpt lat="41.2096" lon="1.09636">
        <ele>475.2</ele>
        <time>2020-08-22 09:38:03</time>
      </trkpt>
      <trkpt lat="41.20961" lon="1.09634">
        <ele>475.6</ele>
        <time>2020-08-22 09:38:04</time>
      </trkpt>
      <trkpt lat="41.20963" lon="1.09632">
        <ele>476</ele>
        <time>2020-08-22 09:38:05</time>
      </trkpt>
      <trkpt lat="41.20964" lon="1.09629">
        <ele>476.2</ele>
        <time>2020-08-22 09:38:06</time>
      </trkpt>
      <trkpt lat="41.20964" lon="1.09629">
        <ele>476.6</ele>
        <time>2020-08-22 09:38:07</time>
      </trkpt>
      <trkpt lat="41.20966" lon="1.09624">
        <ele>476.8</ele>
        <time>2020-08-22 09:38:08</time>
      </trkpt>
      <trkpt lat="41.20966" lon="1.09624">
        <ele>477</ele>
        <time>2020-08-22 09:38:09</time>
      </trkpt>
      <trkpt lat="41.20968" lon="1.0962">
        <ele>477.4</ele>
        <time>2020-08-22 09:38:10</time>
      </trkpt>
      <trkpt lat="41.20969" lon="1.09617">
        <ele>477.8</ele>
        <time>2020-08-22 09:38:11</time>
      </trkpt>
      <trkpt lat="41.20969" lon="1.09617">
        <ele>478.2</ele>
        <time>2020-08-22 09:38:12</time>
      </trkpt>
      <trkpt lat="41.20971" lon="1.09612">
        <ele>478.4</ele>
        <time>2020-08-22 09:38:13</time>
      </trkpt>
      <trkpt lat="41.20972" lon="1.0961">
        <ele>478.6</ele>
        <time>2020-08-22 09:38:14</time>
      </trkpt>
      <trkpt lat="41.20973" lon="1.09608">
        <ele>478.8</ele>
        <time>2020-08-22 09:38:15</time>
      </trkpt>
      <trkpt lat="41.20974" lon="1.09605">
        <ele>479.2</ele>
        <time>2020-08-22 09:38:16</time>
      </trkpt>
      <trkpt lat="41.20974" lon="1.09605">
        <ele>479.2</ele>
        <time>2020-08-22 09:38:17</time>
      </trkpt>
      <trkpt lat="41.20975" lon="1.096">
        <ele>479.6</ele>
        <time>2020-08-22 09:38:18</time>
      </trkpt>
      <trkpt lat="41.20976" lon="1.09597">
        <ele>479.8</ele>
        <time>2020-08-22 09:38:19</time>
      </trkpt>
      <trkpt lat="41.20977" lon="1.09595">
        <ele>480</ele>
        <time>2020-08-22 09:38:20</time>
      </trkpt>
      <trkpt lat="41.20978" lon="1.09593">
        <ele>480.4</ele>
        <time>2020-08-22 09:38:21</time>
      </trkpt>
      <trkpt lat="41.20978" lon="1.09593">
        <ele>480.6</ele>
        <time>2020-08-22 09:38:22</time>
      </trkpt>
      <trkpt lat="41.20981" lon="1.09589">
        <ele>481</ele>
        <time>2020-08-22 09:38:23</time>
      </trkpt>
      <trkpt lat="41.20982" lon="1.09587">
        <ele>481</ele>
        <time>2020-08-22 09:38:24</time>
      </trkpt>
      <trkpt lat="41.20984" lon="1.09585">
        <ele>481</ele>
        <time>2020-08-22 09:38:25</time>
      </trkpt>
      <trkpt lat="41.20985" lon="1.09583">
        <ele>481.2</ele>
        <time>2020-08-22 09:38:26</time>
      </trkpt>
      <trkpt lat="41.20985" lon="1.09583">
        <ele>481.4</ele>
        <time>2020-08-22 09:38:27</time>
      </trkpt>
      <trkpt lat="41.20988" lon="1.09579">
        <ele>481.8</ele>
        <time>2020-08-22 09:38:28</time>
      </trkpt>
      <trkpt lat="41.20989" lon="1.09577">
        <ele>482</ele>
        <time>2020-08-22 09:38:29</time>
      </trkpt>
      <trkpt lat="41.20991" lon="1.09575">
        <ele>482.2</ele>
        <time>2020-08-22 09:38:30</time>
      </trkpt>
      <trkpt lat="41.20992" lon="1.09573">
        <ele>482.4</ele>
        <time>2020-08-22 09:38:31</time>
      </trkpt>
      <trkpt lat="41.20993" lon="1.09571">
        <ele>482.6</ele>
        <time>2020-08-22 09:38:32</time>
      </trkpt>
      <trkpt lat="41.20994" lon="1.09569">
        <ele>482.8</ele>
        <time>2020-08-22 09:38:33</time>
      </trkpt>
      <trkpt lat="41.20995" lon="1.09567">
        <ele>483.2</ele>
        <time>2020-08-22 09:38:34</time>
      </trkpt>
      <trkpt lat="41.20996" lon="1.09565">
        <ele>483.2</ele>
        <time>2020-08-22 09:38:35</time>
      </trkpt>
      <trkpt lat="41.20996" lon="1.09565">
        <ele>483.6</ele>
        <time>2020-08-22 09:38:36</time>
      </trkpt>
      <trkpt lat="41.21" lon="1.09561">
        <ele>484</ele>
        <time>2020-08-22 09:38:37</time>
      </trkpt>
      <trkpt lat="41.21001" lon="1.09559">
        <ele>484</ele>
        <time>2020-08-22 09:38:38</time>
      </trkpt>
      <trkpt lat="41.21002" lon="1.09556">
        <ele>484.4</ele>
        <time>2020-08-22 09:38:39</time>
      </trkpt>
      <trkpt lat="41.21003" lon="1.09555">
        <ele>484.6</ele>
        <time>2020-08-22 09:38:40</time>
      </trkpt>
      <trkpt lat="41.21003" lon="1.09555">
        <ele>485.2</ele>
        <time>2020-08-22 09:38:41</time>
      </trkpt>
      <trkpt lat="41.21006" lon="1.0955">
        <ele>485.2</ele>
        <time>2020-08-22 09:38:42</time>
      </trkpt>
      <trkpt lat="41.21007" lon="1.09547">
        <ele>485.6</ele>
        <time>2020-08-22 09:38:43</time>
      </trkpt>
      <trkpt lat="41.21008" lon="1.09545">
        <ele>485.8</ele>
        <time>2020-08-22 09:38:44</time>
      </trkpt>
      <trkpt lat="41.21009" lon="1.09544">
        <ele>486.2</ele>
        <time>2020-08-22 09:38:45</time>
      </trkpt>
      <trkpt lat="41.21009" lon="1.09544">
        <ele>486.4</ele>
        <time>2020-08-22 09:38:46</time>
      </trkpt>
      <trkpt lat="41.21011" lon="1.09539">
        <ele>486.6</ele>
        <time>2020-08-22 09:38:47</time>
      </trkpt>
      <trkpt lat="41.21012" lon="1.09536">
        <ele>487</ele>
        <time>2020-08-22 09:38:48</time>
      </trkpt>
      <trkpt lat="41.21013" lon="1.09534">
        <ele>487.2</ele>
        <time>2020-08-22 09:38:49</time>
      </trkpt>
      <trkpt lat="41.21014" lon="1.09533">
        <ele>487.4</ele>
        <time>2020-08-22 09:38:50</time>
      </trkpt>
      <trkpt lat="41.21016" lon="1.0953">
        <ele>487.6</ele>
        <time>2020-08-22 09:38:51</time>
      </trkpt>
      <trkpt lat="41.21017" lon="1.09528">
        <ele>487.6</ele>
        <time>2020-08-22 09:38:52</time>
      </trkpt>
      <trkpt lat="41.21018" lon="1.09525">
        <ele>487.6</ele>
        <time>2020-08-22 09:38:53</time>
      </trkpt>
      <trkpt lat="41.21019" lon="1.09523">
        <ele>487.8</ele>
        <time>2020-08-22 09:38:54</time>
      </trkpt>
      <trkpt lat="41.21019" lon="1.09521">
        <ele>488</ele>
        <time>2020-08-22 09:38:55</time>
      </trkpt>
      <trkpt lat="41.2102" lon="1.09518">
        <ele>488.2</ele>
        <time>2020-08-22 09:38:56</time>
      </trkpt>
      <trkpt lat="41.21022" lon="1.09515">
        <ele>488.4</ele>
        <time>2020-08-22 09:38:57</time>
      </trkpt>
      <trkpt lat="41.21023" lon="1.09512">
        <ele>488.6</ele>
        <time>2020-08-22 09:38:58</time>
      </trkpt>
      <trkpt lat="41.21025" lon="1.09509">
        <ele>489</ele>
        <time>2020-08-22 09:38:59</time>
      </trkpt>
      <trkpt lat="41.21025" lon="1.09509">
        <ele>489</ele>
        <time>2020-08-22 09:39:00</time>
      </trkpt>
      <trkpt lat="41.21027" lon="1.09504">
        <ele>489.4</ele>
        <time>2020-08-22 09:39:01</time>
      </trkpt>
      <trkpt lat="41.21029" lon="1.09502">
        <ele>489.6</ele>
        <time>2020-08-22 09:39:02</time>
      </trkpt>
      <trkpt lat="41.2103" lon="1.09499">
        <ele>489.6</ele>
        <time>2020-08-22 09:39:03</time>
      </trkpt>
      <trkpt lat="41.2103" lon="1.09496">
        <ele>489.8</ele>
        <time>2020-08-22 09:39:04</time>
      </trkpt>
      <trkpt lat="41.21032" lon="1.09494">
        <ele>490</ele>
        <time>2020-08-22 09:39:05</time>
      </trkpt>
      <trkpt lat="41.21032" lon="1.09494">
        <ele>490.2</ele>
        <time>2020-08-22 09:39:06</time>
      </trkpt>
      <trkpt lat="41.21034" lon="1.09489">
        <ele>490.2</ele>
        <time>2020-08-22 09:39:07</time>
      </trkpt>
      <trkpt lat="41.21035" lon="1.09486">
        <ele>490.4</ele>
        <time>2020-08-22 09:39:08</time>
      </trkpt>
      <trkpt lat="41.21035" lon="1.09486">
        <ele>490.4</ele>
        <time>2020-08-22 09:39:09</time>
      </trkpt>
      <trkpt lat="41.21038" lon="1.09482">
        <ele>490.6</ele>
        <time>2020-08-22 09:39:10</time>
      </trkpt>
      <trkpt lat="41.21039" lon="1.0948">
        <ele>490.8</ele>
        <time>2020-08-22 09:39:11</time>
      </trkpt>
      <trkpt lat="41.2104" lon="1.09478">
        <ele>490.8</ele>
        <time>2020-08-22 09:39:12</time>
      </trkpt>
      <trkpt lat="41.21042" lon="1.09476">
        <ele>491.2</ele>
        <time>2020-08-22 09:39:13</time>
      </trkpt>
      <trkpt lat="41.21042" lon="1.09476">
        <ele>491.2</ele>
        <time>2020-08-22 09:39:14</time>
      </trkpt>
      <trkpt lat="41.21045" lon="1.09472">
        <ele>491.6</ele>
        <time>2020-08-22 09:39:15</time>
      </trkpt>
      <trkpt lat="41.21046" lon="1.0947">
        <ele>491.8</ele>
        <time>2020-08-22 09:39:16</time>
      </trkpt>
      <trkpt lat="41.21048" lon="1.09468">
        <ele>492</ele>
        <time>2020-08-22 09:39:17</time>
      </trkpt>
      <trkpt lat="41.21049" lon="1.09465">
        <ele>492</ele>
        <time>2020-08-22 09:39:18</time>
      </trkpt>
      <trkpt lat="41.21051" lon="1.09463">
        <ele>492.2</ele>
        <time>2020-08-22 09:39:19</time>
      </trkpt>
      <trkpt lat="41.21053" lon="1.09462">
        <ele>492.4</ele>
        <time>2020-08-22 09:39:20</time>
      </trkpt>
      <trkpt lat="41.21055" lon="1.0946">
        <ele>492.6</ele>
        <time>2020-08-22 09:39:21</time>
      </trkpt>
      <trkpt lat="41.21056" lon="1.09458">
        <ele>492.8</ele>
        <time>2020-08-22 09:39:22</time>
      </trkpt>
      <trkpt lat="41.21056" lon="1.09458">
        <ele>493</ele>
        <time>2020-08-22 09:39:23</time>
      </trkpt>
      <trkpt lat="41.21059" lon="1.09453">
        <ele>493.2</ele>
        <time>2020-08-22 09:39:24</time>
      </trkpt>
      <trkpt lat="41.21061" lon="1.09451">
        <ele>493.2</ele>
        <time>2020-08-22 09:39:25</time>
      </trkpt>
      <trkpt lat="41.21063" lon="1.09449">
        <ele>493.4</ele>
        <time>2020-08-22 09:39:26</time>
      </trkpt>
      <trkpt lat="41.21064" lon="1.09448">
        <ele>493.4</ele>
        <time>2020-08-22 09:39:27</time>
      </trkpt>
      <trkpt lat="41.21066" lon="1.09446">
        <ele>493.6</ele>
        <time>2020-08-22 09:39:28</time>
      </trkpt>
      <trkpt lat="41.21068" lon="1.09443">
        <ele>493.8</ele>
        <time>2020-08-22 09:39:29</time>
      </trkpt>
      <trkpt lat="41.2107" lon="1.09441">
        <ele>494</ele>
        <time>2020-08-22 09:39:30</time>
      </trkpt>
      <trkpt lat="41.21072" lon="1.09439">
        <ele>494</ele>
        <time>2020-08-22 09:39:31</time>
      </trkpt>
      <trkpt lat="41.21072" lon="1.09439">
        <ele>494.2</ele>
        <time>2020-08-22 09:39:32</time>
      </trkpt>
      <trkpt lat="41.21075" lon="1.09435">
        <ele>494.4</ele>
        <time>2020-08-22 09:39:33</time>
      </trkpt>
      <trkpt lat="41.21077" lon="1.09434">
        <ele>494.4</ele>
        <time>2020-08-22 09:39:34</time>
      </trkpt>
      <trkpt lat="41.21078" lon="1.09431">
        <ele>494.4</ele>
        <time>2020-08-22 09:39:35</time>
      </trkpt>
      <trkpt lat="41.2108" lon="1.0943">
        <ele>494.6</ele>
        <time>2020-08-22 09:39:36</time>
      </trkpt>
      <trkpt lat="41.21082" lon="1.09428">
        <ele>494.6</ele>
        <time>2020-08-22 09:39:37</time>
      </trkpt>
      <trkpt lat="41.21084" lon="1.09427">
        <ele>495</ele>
        <time>2020-08-22 09:39:38</time>
      </trkpt>
      <trkpt lat="41.21086" lon="1.09426">
        <ele>495</ele>
        <time>2020-08-22 09:39:39</time>
      </trkpt>
      <trkpt lat="41.21088" lon="1.09426">
        <ele>495.2</ele>
        <time>2020-08-22 09:39:40</time>
      </trkpt>
      <trkpt lat="41.2109" lon="1.09426">
        <ele>495.4</ele>
        <time>2020-08-22 09:39:41</time>
      </trkpt>
      <trkpt lat="41.21093" lon="1.09426">
        <ele>495.6</ele>
        <time>2020-08-22 09:39:42</time>
      </trkpt>
      <trkpt lat="41.21094" lon="1.09426">
        <ele>495.8</ele>
        <time>2020-08-22 09:39:43</time>
      </trkpt>
      <trkpt lat="41.21096" lon="1.09426">
        <ele>496.2</ele>
        <time>2020-08-22 09:39:44</time>
      </trkpt>
      <trkpt lat="41.21098" lon="1.09426">
        <ele>496.8</ele>
        <time>2020-08-22 09:39:45</time>
      </trkpt>
      <trkpt lat="41.21098" lon="1.09426">
        <ele>496.8</ele>
        <time>2020-08-22 09:39:46</time>
      </trkpt>
      <trkpt lat="41.21103" lon="1.09426">
        <ele>497</ele>
        <time>2020-08-22 09:39:47</time>
      </trkpt>
      <trkpt lat="41.21105" lon="1.09425">
        <ele>497.2</ele>
        <time>2020-08-22 09:39:48</time>
      </trkpt>
      <trkpt lat="41.21105" lon="1.09425">
        <ele>497.4</ele>
        <time>2020-08-22 09:39:49</time>
      </trkpt>
      <trkpt lat="41.21109" lon="1.09424">
        <ele>497.4</ele>
        <time>2020-08-22 09:39:50</time>
      </trkpt>
      <trkpt lat="41.21111" lon="1.09422">
        <ele>497.8</ele>
        <time>2020-08-22 09:39:51</time>
      </trkpt>
      <trkpt lat="41.21113" lon="1.09421">
        <ele>498</ele>
        <time>2020-08-22 09:39:52</time>
      </trkpt>
      <trkpt lat="41.21114" lon="1.0942">
        <ele>498.4</ele>
        <time>2020-08-22 09:39:53</time>
      </trkpt>
      <trkpt lat="41.21116" lon="1.09419">
        <ele>498.6</ele>
        <time>2020-08-22 09:39:54</time>
      </trkpt>
      <trkpt lat="41.21116" lon="1.09419">
        <ele>498.8</ele>
        <time>2020-08-22 09:39:55</time>
      </trkpt>
      <trkpt lat="41.2112" lon="1.09418">
        <ele>499.2</ele>
        <time>2020-08-22 09:39:56</time>
      </trkpt>
      <trkpt lat="41.21123" lon="1.09417">
        <ele>499.2</ele>
        <time>2020-08-22 09:39:57</time>
      </trkpt>
      <trkpt lat="41.21125" lon="1.09416">
        <ele>499.6</ele>
        <time>2020-08-22 09:39:58</time>
      </trkpt>
      <trkpt lat="41.21127" lon="1.09416">
        <ele>500</ele>
        <time>2020-08-22 09:39:59</time>
      </trkpt>
      <trkpt lat="41.21127" lon="1.09416">
        <ele>500.6</ele>
        <time>2020-08-22 09:40:00</time>
      </trkpt>
      <trkpt lat="41.21131" lon="1.09414">
        <ele>500.8</ele>
        <time>2020-08-22 09:40:01</time>
      </trkpt>
      <trkpt lat="41.21133" lon="1.09414">
        <ele>501.2</ele>
        <time>2020-08-22 09:40:02</time>
      </trkpt>
      <trkpt lat="41.21136" lon="1.09414">
        <ele>501.6</ele>
        <time>2020-08-22 09:40:03</time>
      </trkpt>
      <trkpt lat="41.21138" lon="1.09414">
        <ele>501.8</ele>
        <time>2020-08-22 09:40:04</time>
      </trkpt>
      <trkpt lat="41.2114" lon="1.09414">
        <ele>502.4</ele>
        <time>2020-08-22 09:40:05</time>
      </trkpt>
      <trkpt lat="41.21142" lon="1.09414">
        <ele>502.6</ele>
        <time>2020-08-22 09:40:06</time>
      </trkpt>
      <trkpt lat="41.21144" lon="1.09414">
        <ele>502.8</ele>
        <time>2020-08-22 09:40:07</time>
      </trkpt>
      <trkpt lat="41.21146" lon="1.09414">
        <ele>502.8</ele>
        <time>2020-08-22 09:40:08</time>
      </trkpt>
      <trkpt lat="41.21146" lon="1.09414">
        <ele>503</ele>
        <time>2020-08-22 09:40:09</time>
      </trkpt>
      <trkpt lat="41.21151" lon="1.09414">
        <ele>503.2</ele>
        <time>2020-08-22 09:40:10</time>
      </trkpt>
      <trkpt lat="41.21153" lon="1.09414">
        <ele>503.4</ele>
        <time>2020-08-22 09:40:11</time>
      </trkpt>
      <trkpt lat="41.21155" lon="1.09414">
        <ele>503.6</ele>
        <time>2020-08-22 09:40:12</time>
      </trkpt>
      <trkpt lat="41.21157" lon="1.09414">
        <ele>503.8</ele>
        <time>2020-08-22 09:40:13</time>
      </trkpt>
      <trkpt lat="41.21159" lon="1.09414">
        <ele>504</ele>
        <time>2020-08-22 09:40:14</time>
      </trkpt>
      <trkpt lat="41.21161" lon="1.09415">
        <ele>504.2</ele>
        <time>2020-08-22 09:40:15</time>
      </trkpt>
      <trkpt lat="41.21164" lon="1.09415">
        <ele>504.8</ele>
        <time>2020-08-22 09:40:16</time>
      </trkpt>
      <trkpt lat="41.21166" lon="1.09415">
        <ele>504.8</ele>
        <time>2020-08-22 09:40:17</time>
      </trkpt>
      <trkpt lat="41.21168" lon="1.09416">
        <ele>505.2</ele>
        <time>2020-08-22 09:40:18</time>
      </trkpt>
      <trkpt lat="41.21171" lon="1.09415">
        <ele>505.4</ele>
        <time>2020-08-22 09:40:19</time>
      </trkpt>
      <trkpt lat="41.21173" lon="1.09415">
        <ele>505.6</ele>
        <time>2020-08-22 09:40:20</time>
      </trkpt>
      <trkpt lat="41.21176" lon="1.09415">
        <ele>505.8</ele>
        <time>2020-08-22 09:40:21</time>
      </trkpt>
      <trkpt lat="41.21178" lon="1.09414">
        <ele>505.8</ele>
        <time>2020-08-22 09:40:22</time>
      </trkpt>
      <trkpt lat="41.21178" lon="1.09414">
        <ele>506</ele>
        <time>2020-08-22 09:40:23</time>
      </trkpt>
      <trkpt lat="41.21181" lon="1.09412">
        <ele>506</ele>
        <time>2020-08-22 09:40:24</time>
      </trkpt>
      <trkpt lat="41.21183" lon="1.09411">
        <ele>506.2</ele>
        <time>2020-08-22 09:40:25</time>
      </trkpt>
      <trkpt lat="41.21185" lon="1.09409">
        <ele>506.4</ele>
        <time>2020-08-22 09:40:26</time>
      </trkpt>
      <trkpt lat="41.21187" lon="1.09408">
        <ele>506.6</ele>
        <time>2020-08-22 09:40:27</time>
      </trkpt>
      <trkpt lat="41.21189" lon="1.09408">
        <ele>507</ele>
        <time>2020-08-22 09:40:28</time>
      </trkpt>
      <trkpt lat="41.21192" lon="1.09407">
        <ele>507</ele>
        <time>2020-08-22 09:40:29</time>
      </trkpt>
      <trkpt lat="41.21194" lon="1.09406">
        <ele>507.2</ele>
        <time>2020-08-22 09:40:30</time>
      </trkpt>
      <trkpt lat="41.21196" lon="1.09405">
        <ele>507.4</ele>
        <time>2020-08-22 09:40:31</time>
      </trkpt>
      <trkpt lat="41.21196" lon="1.09405">
        <ele>507.6</ele>
        <time>2020-08-22 09:40:32</time>
      </trkpt>
      <trkpt lat="41.212" lon="1.09402">
        <ele>507.8</ele>
        <time>2020-08-22 09:40:33</time>
      </trkpt>
      <trkpt lat="41.21202" lon="1.09401">
        <ele>508</ele>
        <time>2020-08-22 09:40:34</time>
      </trkpt>
      <trkpt lat="41.21204" lon="1.094">
        <ele>508</ele>
        <time>2020-08-22 09:40:35</time>
      </trkpt>
      <trkpt lat="41.21206" lon="1.09398">
        <ele>508.2</ele>
        <time>2020-08-22 09:40:36</time>
      </trkpt>
      <trkpt lat="41.21209" lon="1.09397">
        <ele>508.6</ele>
        <time>2020-08-22 09:40:37</time>
      </trkpt>
      <trkpt lat="41.21211" lon="1.09396">
        <ele>508.6</ele>
        <time>2020-08-22 09:40:38</time>
      </trkpt>
      <trkpt lat="41.21213" lon="1.09395">
        <ele>509</ele>
        <time>2020-08-22 09:40:39</time>
      </trkpt>
      <trkpt lat="41.21215" lon="1.09393">
        <ele>509.2</ele>
        <time>2020-08-22 09:40:40</time>
      </trkpt>
      <trkpt lat="41.21216" lon="1.09392">
        <ele>509.4</ele>
        <time>2020-08-22 09:40:41</time>
      </trkpt>
      <trkpt lat="41.21218" lon="1.09391">
        <ele>509.4</ele>
        <time>2020-08-22 09:40:42</time>
      </trkpt>
      <trkpt lat="41.2122" lon="1.09389">
        <ele>509.6</ele>
        <time>2020-08-22 09:40:43</time>
      </trkpt>
      <trkpt lat="41.21222" lon="1.09387">
        <ele>509.8</ele>
        <time>2020-08-22 09:40:44</time>
      </trkpt>
      <trkpt lat="41.21224" lon="1.09385">
        <ele>510</ele>
        <time>2020-08-22 09:40:45</time>
      </trkpt>
      <trkpt lat="41.21224" lon="1.09385">
        <ele>510.4</ele>
        <time>2020-08-22 09:40:46</time>
      </trkpt>
      <trkpt lat="41.21226" lon="1.09381">
        <ele>510.6</ele>
        <time>2020-08-22 09:40:47</time>
      </trkpt>
      <trkpt lat="41.21228" lon="1.09379">
        <ele>511.2</ele>
        <time>2020-08-22 09:40:48</time>
      </trkpt>
      <trkpt lat="41.21229" lon="1.09376">
        <ele>511.4</ele>
        <time>2020-08-22 09:40:49</time>
      </trkpt>
      <trkpt lat="41.2123" lon="1.09374">
        <ele>512</ele>
        <time>2020-08-22 09:40:50</time>
      </trkpt>
      <trkpt lat="41.2123" lon="1.09371">
        <ele>512.2</ele>
        <time>2020-08-22 09:40:51</time>
      </trkpt>
      <trkpt lat="41.21231" lon="1.09368">
        <ele>512.6</ele>
        <time>2020-08-22 09:40:52</time>
      </trkpt>
      <trkpt lat="41.21231" lon="1.09365">
        <ele>513</ele>
        <time>2020-08-22 09:40:53</time>
      </trkpt>
      <trkpt lat="41.21232" lon="1.09363">
        <ele>513.2</ele>
        <time>2020-08-22 09:40:54</time>
      </trkpt>
      <trkpt lat="41.21232" lon="1.09363">
        <ele>513.6</ele>
        <time>2020-08-22 09:40:55</time>
      </trkpt>
      <trkpt lat="41.21235" lon="1.09358">
        <ele>513.8</ele>
        <time>2020-08-22 09:40:56</time>
      </trkpt>
      <trkpt lat="41.21236" lon="1.09356">
        <ele>514.6</ele>
        <time>2020-08-22 09:40:57</time>
      </trkpt>
      <trkpt lat="41.21236" lon="1.09353">
        <ele>515</ele>
        <time>2020-08-22 09:40:58</time>
      </trkpt>
      <trkpt lat="41.21237" lon="1.0935">
        <ele>515.4</ele>
        <time>2020-08-22 09:40:59</time>
      </trkpt>
      <trkpt lat="41.21238" lon="1.09348">
        <ele>515.6</ele>
        <time>2020-08-22 09:41:00</time>
      </trkpt>
      <trkpt lat="41.21239" lon="1.09345">
        <ele>516</ele>
        <time>2020-08-22 09:41:01</time>
      </trkpt>
      <trkpt lat="41.2124" lon="1.09343">
        <ele>516.4</ele>
        <time>2020-08-22 09:41:02</time>
      </trkpt>
      <trkpt lat="41.2124" lon="1.09343">
        <ele>516.4</ele>
        <time>2020-08-22 09:41:03</time>
      </trkpt>
      <trkpt lat="41.21242" lon="1.09338">
        <ele>516.8</ele>
        <time>2020-08-22 09:41:04</time>
      </trkpt>
      <trkpt lat="41.21243" lon="1.09335">
        <ele>517</ele>
        <time>2020-08-22 09:41:05</time>
      </trkpt>
      <trkpt lat="41.21244" lon="1.09332">
        <ele>517.6</ele>
        <time>2020-08-22 09:41:06</time>
      </trkpt>
      <trkpt lat="41.21245" lon="1.0933">
        <ele>517.8</ele>
        <time>2020-08-22 09:41:07</time>
      </trkpt>
      <trkpt lat="41.21246" lon="1.09327">
        <ele>518</ele>
        <time>2020-08-22 09:41:08</time>
      </trkpt>
      <trkpt lat="41.21246" lon="1.09327">
        <ele>518.2</ele>
        <time>2020-08-22 09:41:09</time>
      </trkpt>
      <trkpt lat="41.21249" lon="1.09322">
        <ele>518.4</ele>
        <time>2020-08-22 09:41:10</time>
      </trkpt>
      <trkpt lat="41.2125" lon="1.0932">
        <ele>518.6</ele>
        <time>2020-08-22 09:41:11</time>
      </trkpt>
      <trkpt lat="41.21251" lon="1.09317">
        <ele>518.8</ele>
        <time>2020-08-22 09:41:12</time>
      </trkpt>
      <trkpt lat="41.21252" lon="1.09315">
        <ele>519</ele>
        <time>2020-08-22 09:41:13</time>
      </trkpt>
      <trkpt lat="41.21253" lon="1.09312">
        <ele>519</ele>
        <time>2020-08-22 09:41:14</time>
      </trkpt>
      <trkpt lat="41.21254" lon="1.0931">
        <ele>519.2</ele>
        <time>2020-08-22 09:41:15</time>
      </trkpt>
      <trkpt lat="41.21256" lon="1.09308">
        <ele>519.4</ele>
        <time>2020-08-22 09:41:16</time>
      </trkpt>
      <trkpt lat="41.21257" lon="1.09305">
        <ele>520</ele>
        <time>2020-08-22 09:41:17</time>
      </trkpt>
      <trkpt lat="41.21258" lon="1.09303">
        <ele>520</ele>
        <time>2020-08-22 09:41:18</time>
      </trkpt>
      <trkpt lat="41.21259" lon="1.09301">
        <ele>520.2</ele>
        <time>2020-08-22 09:41:19</time>
      </trkpt>
      <trkpt lat="41.21261" lon="1.09298">
        <ele>520.8</ele>
        <time>2020-08-22 09:41:20</time>
      </trkpt>
      <trkpt lat="41.21262" lon="1.09296">
        <ele>521</ele>
        <time>2020-08-22 09:41:21</time>
      </trkpt>
      <trkpt lat="41.21263" lon="1.09293">
        <ele>521.4</ele>
        <time>2020-08-22 09:41:22</time>
      </trkpt>
      <trkpt lat="41.21263" lon="1.09293">
        <ele>521.8</ele>
        <time>2020-08-22 09:41:23</time>
      </trkpt>
      <trkpt lat="41.21265" lon="1.09288">
        <ele>521.8</ele>
        <time>2020-08-22 09:41:24</time>
      </trkpt>
      <trkpt lat="41.21266" lon="1.09285">
        <ele>522</ele>
        <time>2020-08-22 09:41:25</time>
      </trkpt>
      <trkpt lat="41.21267" lon="1.09282">
        <ele>522.4</ele>
        <time>2020-08-22 09:41:26</time>
      </trkpt>
      <trkpt lat="41.21268" lon="1.0928">
        <ele>522.8</ele>
        <time>2020-08-22 09:41:27</time>
      </trkpt>
      <trkpt lat="41.21269" lon="1.09277">
        <ele>523</ele>
        <time>2020-08-22 09:41:28</time>
      </trkpt>
      <trkpt lat="41.21269" lon="1.09277">
        <ele>523.2</ele>
        <time>2020-08-22 09:41:29</time>
      </trkpt>
      <trkpt lat="41.2127" lon="1.09272">
        <ele>523.2</ele>
        <time>2020-08-22 09:41:30</time>
      </trkpt>
      <trkpt lat="41.21271" lon="1.0927">
        <ele>523.8</ele>
        <time>2020-08-22 09:41:31</time>
      </trkpt>
      <trkpt lat="41.21271" lon="1.0927">
        <ele>524</ele>
        <time>2020-08-22 09:41:32</time>
      </trkpt>
      <trkpt lat="41.21273" lon="1.09265">
        <ele>524.2</ele>
        <time>2020-08-22 09:41:33</time>
      </trkpt>
      <trkpt lat="41.21274" lon="1.09263">
        <ele>524.4</ele>
        <time>2020-08-22 09:41:34</time>
      </trkpt>
      <trkpt lat="41.21275" lon="1.09261">
        <ele>524.6</ele>
        <time>2020-08-22 09:41:35</time>
      </trkpt>
      <trkpt lat="41.21276" lon="1.09259">
        <ele>525</ele>
        <time>2020-08-22 09:41:36</time>
      </trkpt>
      <trkpt lat="41.21277" lon="1.09256">
        <ele>525</ele>
        <time>2020-08-22 09:41:37</time>
      </trkpt>
      <trkpt lat="41.21278" lon="1.09254">
        <ele>525.4</ele>
        <time>2020-08-22 09:41:38</time>
      </trkpt>
      <trkpt lat="41.21278" lon="1.09254">
        <ele>525.8</ele>
        <time>2020-08-22 09:41:39</time>
      </trkpt>
      <trkpt lat="41.2128" lon="1.09248">
        <ele>526.2</ele>
        <time>2020-08-22 09:41:40</time>
      </trkpt>
      <trkpt lat="41.2128" lon="1.09248">
        <ele>526.4</ele>
        <time>2020-08-22 09:41:41</time>
      </trkpt>
      <trkpt lat="41.21282" lon="1.09244">
        <ele>526.8</ele>
        <time>2020-08-22 09:41:42</time>
      </trkpt>
      <trkpt lat="41.21283" lon="1.09241">
        <ele>527</ele>
        <time>2020-08-22 09:41:43</time>
      </trkpt>
      <trkpt lat="41.21284" lon="1.09239">
        <ele>527.6</ele>
        <time>2020-08-22 09:41:44</time>
      </trkpt>
      <trkpt lat="41.21285" lon="1.09237">
        <ele>527.8</ele>
        <time>2020-08-22 09:41:45</time>
      </trkpt>
      <trkpt lat="41.21285" lon="1.09237">
        <ele>528</ele>
        <time>2020-08-22 09:41:46</time>
      </trkpt>
      <trkpt lat="41.21287" lon="1.09232">
        <ele>528.6</ele>
        <time>2020-08-22 09:41:47</time>
      </trkpt>
      <trkpt lat="41.21288" lon="1.0923">
        <ele>528.8</ele>
        <time>2020-08-22 09:41:48</time>
      </trkpt>
      <trkpt lat="41.21288" lon="1.0923">
        <ele>529.4</ele>
        <time>2020-08-22 09:41:49</time>
      </trkpt>
      <trkpt lat="41.2129" lon="1.09225">
        <ele>529.6</ele>
        <time>2020-08-22 09:41:50</time>
      </trkpt>
      <trkpt lat="41.21291" lon="1.09222">
        <ele>530</ele>
        <time>2020-08-22 09:41:51</time>
      </trkpt>
      <trkpt lat="41.21291" lon="1.09222">
        <ele>530.2</ele>
        <time>2020-08-22 09:41:52</time>
      </trkpt>
      <trkpt lat="41.21293" lon="1.09217">
        <ele>530.4</ele>
        <time>2020-08-22 09:41:53</time>
      </trkpt>
      <trkpt lat="41.21294" lon="1.09215">
        <ele>530.6</ele>
        <time>2020-08-22 09:41:54</time>
      </trkpt>
      <trkpt lat="41.21294" lon="1.09215">
        <ele>530.6</ele>
        <time>2020-08-22 09:41:55</time>
      </trkpt>
      <trkpt lat="41.21296" lon="1.0921">
        <ele>531.2</ele>
        <time>2020-08-22 09:41:56</time>
      </trkpt>
      <trkpt lat="41.21297" lon="1.09208">
        <ele>531.2</ele>
        <time>2020-08-22 09:41:57</time>
      </trkpt>
      <trkpt lat="41.21298" lon="1.09205">
        <ele>531.6</ele>
        <time>2020-08-22 09:41:58</time>
      </trkpt>
      <trkpt lat="41.21298" lon="1.09203">
        <ele>531.6</ele>
        <time>2020-08-22 09:41:59</time>
      </trkpt>
      <trkpt lat="41.21299" lon="1.092">
        <ele>531.8</ele>
        <time>2020-08-22 09:42:00</time>
      </trkpt>
      <trkpt lat="41.213" lon="1.09197">
        <ele>532.2</ele>
        <time>2020-08-22 09:42:01</time>
      </trkpt>
      <trkpt lat="41.21301" lon="1.09194">
        <ele>532.4</ele>
        <time>2020-08-22 09:42:02</time>
      </trkpt>
      <trkpt lat="41.21302" lon="1.09192">
        <ele>532.6</ele>
        <time>2020-08-22 09:42:03</time>
      </trkpt>
      <trkpt lat="41.21303" lon="1.0919">
        <ele>532.6</ele>
        <time>2020-08-22 09:42:04</time>
      </trkpt>
      <trkpt lat="41.21303" lon="1.0919">
        <ele>533</ele>
        <time>2020-08-22 09:42:05</time>
      </trkpt>
      <trkpt lat="41.21304" lon="1.09185">
        <ele>533</ele>
        <time>2020-08-22 09:42:06</time>
      </trkpt>
      <trkpt lat="41.21305" lon="1.09182">
        <ele>533.4</ele>
        <time>2020-08-22 09:42:07</time>
      </trkpt>
      <trkpt lat="41.21306" lon="1.0918">
        <ele>533.4</ele>
        <time>2020-08-22 09:42:08</time>
      </trkpt>
      <trkpt lat="41.21307" lon="1.09177">
        <ele>533.6</ele>
        <time>2020-08-22 09:42:09</time>
      </trkpt>
      <trkpt lat="41.21307" lon="1.09177">
        <ele>533.8</ele>
        <time>2020-08-22 09:42:10</time>
      </trkpt>
      <trkpt lat="41.21309" lon="1.09172">
        <ele>533.8</ele>
        <time>2020-08-22 09:42:11</time>
      </trkpt>
      <trkpt lat="41.2131" lon="1.0917">
        <ele>534</ele>
        <time>2020-08-22 09:42:12</time>
      </trkpt>
      <trkpt lat="41.21311" lon="1.09167">
        <ele>534</ele>
        <time>2020-08-22 09:42:13</time>
      </trkpt>
      <trkpt lat="41.21313" lon="1.09165">
        <ele>534</ele>
        <time>2020-08-22 09:42:14</time>
      </trkpt>
      <trkpt lat="41.21313" lon="1.09165">
        <ele>534</ele>
        <time>2020-08-22 09:42:15</time>
      </trkpt>
      <trkpt lat="41.21324" lon="1.09156">
        <ele>534.4</ele>
        <time>2020-08-22 09:42:19</time>
      </trkpt>
      <trkpt lat="41.21326" lon="1.09154">
        <ele>534.6</ele>
        <time>2020-08-22 09:42:20</time>
      </trkpt>
      <trkpt lat="41.21332" lon="1.09149">
        <ele>534.6</ele>
        <time>2020-08-22 09:42:23</time>
      </trkpt>
      <trkpt lat="41.21332" lon="1.09149">
        <ele>534.6</ele>
        <time>2020-08-22 09:42:24</time>
      </trkpt>
      <trkpt lat="41.21337" lon="1.09147">
        <ele>534.8</ele>
        <time>2020-08-22 09:42:25</time>
      </trkpt>
      <trkpt lat="41.21339" lon="1.09145">
        <ele>534.8</ele>
        <time>2020-08-22 09:42:26</time>
      </trkpt>
      <trkpt lat="41.21341" lon="1.09144">
        <ele>534.8</ele>
        <time>2020-08-22 09:42:27</time>
      </trkpt>
      <trkpt lat="41.21344" lon="1.09143">
        <ele>535</ele>
        <time>2020-08-22 09:42:28</time>
      </trkpt>
      <trkpt lat="41.21344" lon="1.09143">
        <ele>535</ele>
        <time>2020-08-22 09:42:29</time>
      </trkpt>
      <trkpt lat="41.21351" lon="1.0914">
        <ele>535.4</ele>
        <time>2020-08-22 09:42:31</time>
      </trkpt>
      <trkpt lat="41.21354" lon="1.0914">
        <ele>535.4</ele>
        <time>2020-08-22 09:42:32</time>
      </trkpt>
      <trkpt lat="41.21356" lon="1.09139">
        <ele>535.6</ele>
        <time>2020-08-22 09:42:33</time>
      </trkpt>
      <trkpt lat="41.21356" lon="1.09139">
        <ele>535.8</ele>
        <time>2020-08-22 09:42:34</time>
      </trkpt>
      <trkpt lat="41.21361" lon="1.09137">
        <ele>536.2</ele>
        <time>2020-08-22 09:42:35</time>
      </trkpt>
      <trkpt lat="41.21363" lon="1.09137">
        <ele>536.4</ele>
        <time>2020-08-22 09:42:36</time>
      </trkpt>
      <trkpt lat="41.21366" lon="1.09135">
        <ele>536.8</ele>
        <time>2020-08-22 09:42:37</time>
      </trkpt>
      <trkpt lat="41.21367" lon="1.09135">
        <ele>536.8</ele>
        <time>2020-08-22 09:42:38</time>
      </trkpt>
      <trkpt lat="41.2137" lon="1.09134">
        <ele>537</ele>
        <time>2020-08-22 09:42:39</time>
      </trkpt>
      <trkpt lat="41.21372" lon="1.09133">
        <ele>537</ele>
        <time>2020-08-22 09:42:40</time>
      </trkpt>
      <trkpt lat="41.21374" lon="1.09132">
        <ele>537.2</ele>
        <time>2020-08-22 09:42:41</time>
      </trkpt>
      <trkpt lat="41.21375" lon="1.0913">
        <ele>537.4</ele>
        <time>2020-08-22 09:42:42</time>
      </trkpt>
      <trkpt lat="41.21377" lon="1.09129">
        <ele>537.6</ele>
        <time>2020-08-22 09:42:43</time>
      </trkpt>
      <trkpt lat="41.2138" lon="1.09126">
        <ele>537.6</ele>
        <time>2020-08-22 09:42:44</time>
      </trkpt>
      <trkpt lat="41.21381" lon="1.09123">
        <ele>537.8</ele>
        <time>2020-08-22 09:42:45</time>
      </trkpt>
      <trkpt lat="41.21383" lon="1.0912">
        <ele>538</ele>
        <time>2020-08-22 09:42:46</time>
      </trkpt>
      <trkpt lat="41.21384" lon="1.09117">
        <ele>538</ele>
        <time>2020-08-22 09:42:47</time>
      </trkpt>
      <trkpt lat="41.21385" lon="1.09114">
        <ele>538.2</ele>
        <time>2020-08-22 09:42:48</time>
      </trkpt>
      <trkpt lat="41.21385" lon="1.09111">
        <ele>538.2</ele>
        <time>2020-08-22 09:42:49</time>
      </trkpt>
      <trkpt lat="41.21386" lon="1.09107">
        <ele>538.2</ele>
        <time>2020-08-22 09:42:50</time>
      </trkpt>
      <trkpt lat="41.21387" lon="1.09104">
        <ele>538.2</ele>
        <time>2020-08-22 09:42:51</time>
      </trkpt>
      <trkpt lat="41.21389" lon="1.09097">
        <ele>538.4</ele>
        <time>2020-08-22 09:42:53</time>
      </trkpt>
      <trkpt lat="41.2139" lon="1.09093">
        <ele>538.4</ele>
        <time>2020-08-22 09:42:54</time>
      </trkpt>
      <trkpt lat="41.21392" lon="1.09089">
        <ele>538.6</ele>
        <time>2020-08-22 09:42:55</time>
      </trkpt>
      <trkpt lat="41.21393" lon="1.09086">
        <ele>538.8</ele>
        <time>2020-08-22 09:42:56</time>
      </trkpt>
      <trkpt lat="41.21395" lon="1.09083">
        <ele>539</ele>
        <time>2020-08-22 09:42:57</time>
      </trkpt>
      <trkpt lat="41.21395" lon="1.09083">
        <ele>539</ele>
        <time>2020-08-22 09:42:58</time>
      </trkpt>
      <trkpt lat="41.21399" lon="1.09077">
        <ele>539</ele>
        <time>2020-08-22 09:42:59</time>
      </trkpt>
      <trkpt lat="41.21401" lon="1.09073">
        <ele>539</ele>
        <time>2020-08-22 09:43:00</time>
      </trkpt>
      <trkpt lat="41.21405" lon="1.09065">
        <ele>539.2</ele>
        <time>2020-08-22 09:43:03</time>
      </trkpt>
      <trkpt lat="41.21408" lon="1.09057">
        <ele>539.2</ele>
        <time>2020-08-22 09:43:04</time>
      </trkpt>
      <trkpt lat="41.21409" lon="1.09053">
        <ele>539.2</ele>
        <time>2020-08-22 09:43:05</time>
      </trkpt>
      <trkpt lat="41.2141" lon="1.09049">
        <ele>539.2</ele>
        <time>2020-08-22 09:43:06</time>
      </trkpt>
      <trkpt lat="41.21411" lon="1.09045">
        <ele>539.2</ele>
        <time>2020-08-22 09:43:07</time>
      </trkpt>
      <trkpt lat="41.21411" lon="1.09045">
        <ele>539.4</ele>
        <time>2020-08-22 09:43:08</time>
      </trkpt>
      <trkpt lat="41.21412" lon="1.09036">
        <ele>539.4</ele>
        <time>2020-08-22 09:43:09</time>
      </trkpt>
      <trkpt lat="41.21413" lon="1.09032">
        <ele>539.4</ele>
        <time>2020-08-22 09:43:10</time>
      </trkpt>
      <trkpt lat="41.21413" lon="1.09027">
        <ele>539.6</ele>
        <time>2020-08-22 09:43:11</time>
      </trkpt>
      <trkpt lat="41.21414" lon="1.09023">
        <ele>539.6</ele>
        <time>2020-08-22 09:43:12</time>
      </trkpt>
      <trkpt lat="41.21416" lon="1.09018">
        <ele>539.8</ele>
        <time>2020-08-22 09:43:13</time>
      </trkpt>
      <trkpt lat="41.21417" lon="1.09014">
        <ele>540</ele>
        <time>2020-08-22 09:43:14</time>
      </trkpt>
      <trkpt lat="41.21417" lon="1.0901">
        <ele>540.4</ele>
        <time>2020-08-22 09:43:15</time>
      </trkpt>
      <trkpt lat="41.21417" lon="1.09005">
        <ele>540.4</ele>
        <time>2020-08-22 09:43:16</time>
      </trkpt>
      <trkpt lat="41.21418" lon="1.09002">
        <ele>541</ele>
        <time>2020-08-22 09:43:17</time>
      </trkpt>
      <trkpt lat="41.21419" lon="1.08996">
        <ele>541.2</ele>
        <time>2020-08-22 09:43:18</time>
      </trkpt>
      <trkpt lat="41.21419" lon="1.08992">
        <ele>541.2</ele>
        <time>2020-08-22 09:43:19</time>
      </trkpt>
      <trkpt lat="41.21421" lon="1.08988">
        <ele>541.6</ele>
        <time>2020-08-22 09:43:20</time>
      </trkpt>
      <trkpt lat="41.21422" lon="1.08984">
        <ele>541.6</ele>
        <time>2020-08-22 09:43:21</time>
      </trkpt>
      <trkpt lat="41.21424" lon="1.0898">
        <ele>541.8</ele>
        <time>2020-08-22 09:43:22</time>
      </trkpt>
      <trkpt lat="41.21425" lon="1.08977">
        <ele>542</ele>
        <time>2020-08-22 09:43:23</time>
      </trkpt>
      <trkpt lat="41.21427" lon="1.08972">
        <ele>542</ele>
        <time>2020-08-22 09:43:24</time>
      </trkpt>
      <trkpt lat="41.21427" lon="1.08972">
        <ele>542.2</ele>
        <time>2020-08-22 09:43:25</time>
      </trkpt>
      <trkpt lat="41.2143" lon="1.08966">
        <ele>542.4</ele>
        <time>2020-08-22 09:43:26</time>
      </trkpt>
      <trkpt lat="41.21432" lon="1.08963">
        <ele>542.6</ele>
        <time>2020-08-22 09:43:27</time>
      </trkpt>
      <trkpt lat="41.21434" lon="1.08961">
        <ele>542.8</ele>
        <time>2020-08-22 09:43:28</time>
      </trkpt>
      <trkpt lat="41.21434" lon="1.08961">
        <ele>543.6</ele>
        <time>2020-08-22 09:43:29</time>
      </trkpt>
      <trkpt lat="41.21436" lon="1.08954">
        <ele>543.8</ele>
        <time>2020-08-22 09:43:30</time>
      </trkpt>
      <trkpt lat="41.21437" lon="1.0895">
        <ele>544</ele>
        <time>2020-08-22 09:43:31</time>
      </trkpt>
      <trkpt lat="41.21439" lon="1.08947">
        <ele>544.2</ele>
        <time>2020-08-22 09:43:32</time>
      </trkpt>
      <trkpt lat="41.2144" lon="1.08943">
        <ele>544.6</ele>
        <time>2020-08-22 09:43:33</time>
      </trkpt>
      <trkpt lat="41.21442" lon="1.08939">
        <ele>545</ele>
        <time>2020-08-22 09:43:34</time>
      </trkpt>
      <trkpt lat="41.21443" lon="1.08936">
        <ele>545</ele>
        <time>2020-08-22 09:43:35</time>
      </trkpt>
      <trkpt lat="41.21444" lon="1.08933">
        <ele>545.8</ele>
        <time>2020-08-22 09:43:36</time>
      </trkpt>
      <trkpt lat="41.21446" lon="1.0893">
        <ele>546.2</ele>
        <time>2020-08-22 09:43:37</time>
      </trkpt>
      <trkpt lat="41.21446" lon="1.0893">
        <ele>546.8</ele>
        <time>2020-08-22 09:43:38</time>
      </trkpt>
      <trkpt lat="41.21448" lon="1.08924">
        <ele>547</ele>
        <time>2020-08-22 09:43:39</time>
      </trkpt>
      <trkpt lat="41.2145" lon="1.0892">
        <ele>547.4</ele>
        <time>2020-08-22 09:43:40</time>
      </trkpt>
      <trkpt lat="41.21451" lon="1.08917">
        <ele>547.6</ele>
        <time>2020-08-22 09:43:41</time>
      </trkpt>
      <trkpt lat="41.21452" lon="1.08913">
        <ele>547.8</ele>
        <time>2020-08-22 09:43:42</time>
      </trkpt>
      <trkpt lat="41.21453" lon="1.0891">
        <ele>548.2</ele>
        <time>2020-08-22 09:43:43</time>
      </trkpt>
      <trkpt lat="41.21453" lon="1.08906">
        <ele>548.4</ele>
        <time>2020-08-22 09:43:44</time>
      </trkpt>
      <trkpt lat="41.21454" lon="1.08901">
        <ele>548.8</ele>
        <time>2020-08-22 09:43:45</time>
      </trkpt>
      <trkpt lat="41.21455" lon="1.08897">
        <ele>549</ele>
        <time>2020-08-22 09:43:46</time>
      </trkpt>
      <trkpt lat="41.21457" lon="1.08893">
        <ele>549.2</ele>
        <time>2020-08-22 09:43:47</time>
      </trkpt>
      <trkpt lat="41.2146" lon="1.08891">
        <ele>549.2</ele>
        <time>2020-08-22 09:43:48</time>
      </trkpt>
      <trkpt lat="41.21464" lon="1.08889">
        <ele>549.4</ele>
        <time>2020-08-22 09:43:49</time>
      </trkpt>
      <trkpt lat="41.21468" lon="1.08889">
        <ele>549.4</ele>
        <time>2020-08-22 09:43:50</time>
      </trkpt>
      <trkpt lat="41.21474" lon="1.08888">
        <ele>549.4</ele>
        <time>2020-08-22 09:43:51</time>
      </trkpt>
      <trkpt lat="41.21481" lon="1.08887">
        <ele>549.4</ele>
        <time>2020-08-22 09:43:52</time>
      </trkpt>
      <trkpt lat="41.21488" lon="1.08887">
        <ele>549.4</ele>
        <time>2020-08-22 09:43:53</time>
      </trkpt>
      <trkpt lat="41.21488" lon="1.08887">
        <ele>549.2</ele>
        <time>2020-08-22 09:43:54</time>
      </trkpt>
      <trkpt lat="41.215" lon="1.08887">
        <ele>549</ele>
        <time>2020-08-22 09:43:55</time>
      </trkpt>
      <trkpt lat="41.21507" lon="1.08885">
        <ele>549</ele>
        <time>2020-08-22 09:43:56</time>
      </trkpt>
      <trkpt lat="41.21516" lon="1.08882">
        <ele>548.8</ele>
        <time>2020-08-22 09:43:57</time>
      </trkpt>
      <trkpt lat="41.21522" lon="1.08881">
        <ele>548</ele>
        <time>2020-08-22 09:43:58</time>
      </trkpt>
      <trkpt lat="41.21543" lon="1.0888">
        <ele>545.6</ele>
        <time>2020-08-22 09:44:00</time>
      </trkpt>
      <trkpt lat="41.21552" lon="1.08882">
        <ele>544.6</ele>
        <time>2020-08-22 09:44:01</time>
      </trkpt>
      <trkpt lat="41.21561" lon="1.08886">
        <ele>544</ele>
        <time>2020-08-22 09:44:02</time>
      </trkpt>
      <trkpt lat="41.2157" lon="1.08889">
        <ele>542.6</ele>
        <time>2020-08-22 09:44:03</time>
      </trkpt>
      <trkpt lat="41.2157" lon="1.08889">
        <ele>542.2</ele>
        <time>2020-08-22 09:44:04</time>
      </trkpt>
      <trkpt lat="41.21588" lon="1.08898">
        <ele>541.2</ele>
        <time>2020-08-22 09:44:05</time>
      </trkpt>
      <trkpt lat="41.21597" lon="1.089">
        <ele>540.6</ele>
        <time>2020-08-22 09:44:06</time>
      </trkpt>
      <trkpt lat="41.21604" lon="1.08902">
        <ele>539.6</ele>
        <time>2020-08-22 09:44:07</time>
      </trkpt>
      <trkpt lat="41.2161" lon="1.08903">
        <ele>538.8</ele>
        <time>2020-08-22 09:44:08</time>
      </trkpt>
      <trkpt lat="41.21614" lon="1.08903">
        <ele>538.8</ele>
        <time>2020-08-22 09:44:09</time>
      </trkpt>
      <trkpt lat="41.21619" lon="1.08903">
        <ele>538.2</ele>
        <time>2020-08-22 09:44:10</time>
      </trkpt>
      <trkpt lat="41.21623" lon="1.08904">
        <ele>538</ele>
        <time>2020-08-22 09:44:11</time>
      </trkpt>
      <trkpt lat="41.21627" lon="1.08905">
        <ele>538</ele>
        <time>2020-08-22 09:44:12</time>
      </trkpt>
      <trkpt lat="41.21631" lon="1.08906">
        <ele>538</ele>
        <time>2020-08-22 09:44:13</time>
      </trkpt>
      <trkpt lat="41.21635" lon="1.08906">
        <ele>537.8</ele>
        <time>2020-08-22 09:44:14</time>
      </trkpt>
      <trkpt lat="41.21635" lon="1.08906">
        <ele>538.2</ele>
        <time>2020-08-22 09:44:15</time>
      </trkpt>
      <trkpt lat="41.21643" lon="1.08907">
        <ele>538.6</ele>
        <time>2020-08-22 09:44:16</time>
      </trkpt>
      <trkpt lat="41.2165" lon="1.08906">
        <ele>538.8</ele>
        <time>2020-08-22 09:44:18</time>
      </trkpt>
      <trkpt lat="41.21653" lon="1.08901">
        <ele>539.4</ele>
        <time>2020-08-22 09:44:19</time>
      </trkpt>
      <trkpt lat="41.21653" lon="1.08901">
        <ele>539.6</ele>
        <time>2020-08-22 09:44:20</time>
      </trkpt>
      <trkpt lat="41.21653" lon="1.08891">
        <ele>539.8</ele>
        <time>2020-08-22 09:44:21</time>
      </trkpt>
      <trkpt lat="41.21652" lon="1.08887">
        <ele>540</ele>
        <time>2020-08-22 09:44:22</time>
      </trkpt>
      <trkpt lat="41.21651" lon="1.08882">
        <ele>540.2</ele>
        <time>2020-08-22 09:44:23</time>
      </trkpt>
      <trkpt lat="41.2165" lon="1.08879">
        <ele>540.4</ele>
        <time>2020-08-22 09:44:24</time>
      </trkpt>
      <trkpt lat="41.21649" lon="1.08874">
        <ele>540.6</ele>
        <time>2020-08-22 09:44:25</time>
      </trkpt>
      <trkpt lat="41.21648" lon="1.08868">
        <ele>540.8</ele>
        <time>2020-08-22 09:44:26</time>
      </trkpt>
      <trkpt lat="41.21647" lon="1.08863">
        <ele>540.8</ele>
        <time>2020-08-22 09:44:27</time>
      </trkpt>
      <trkpt lat="41.21647" lon="1.08863">
        <ele>541</ele>
        <time>2020-08-22 09:44:28</time>
      </trkpt>
      <trkpt lat="41.21649" lon="1.08852">
        <ele>541</ele>
        <time>2020-08-22 09:44:29</time>
      </trkpt>
      <trkpt lat="41.21651" lon="1.08846">
        <ele>541.2</ele>
        <time>2020-08-22 09:44:30</time>
      </trkpt>
      <trkpt lat="41.21655" lon="1.08841">
        <ele>541.2</ele>
        <time>2020-08-22 09:44:31</time>
      </trkpt>
      <trkpt lat="41.21659" lon="1.08836">
        <ele>541.2</ele>
        <time>2020-08-22 09:44:32</time>
      </trkpt>
      <trkpt lat="41.2168" lon="1.08814">
        <ele>541.2</ele>
        <time>2020-08-22 09:44:36</time>
      </trkpt>
      <trkpt lat="41.21686" lon="1.08807">
        <ele>541</ele>
        <time>2020-08-22 09:44:37</time>
      </trkpt>
      <trkpt lat="41.21703" lon="1.08788">
        <ele>540</ele>
        <time>2020-08-22 09:44:40</time>
      </trkpt>
      <trkpt lat="41.21708" lon="1.08781">
        <ele>539.2</ele>
        <time>2020-08-22 09:44:41</time>
      </trkpt>
      <trkpt lat="41.21713" lon="1.08775">
        <ele>538.4</ele>
        <time>2020-08-22 09:44:42</time>
      </trkpt>
      <trkpt lat="41.21717" lon="1.08769">
        <ele>538.2</ele>
        <time>2020-08-22 09:44:43</time>
      </trkpt>
      <trkpt lat="41.21721" lon="1.08764">
        <ele>537.6</ele>
        <time>2020-08-22 09:44:44</time>
      </trkpt>
      <trkpt lat="41.21721" lon="1.08764">
        <ele>537.4</ele>
        <time>2020-08-22 09:44:45</time>
      </trkpt>
      <trkpt lat="41.21724" lon="1.08759">
        <ele>537.2</ele>
        <time>2020-08-22 09:44:46</time>
      </trkpt>
      <trkpt lat="41.21734" lon="1.08755">
        <ele>537.2</ele>
        <time>2020-08-22 09:44:47</time>
      </trkpt>
      <trkpt lat="41.2174" lon="1.08755">
        <ele>537</ele>
        <time>2020-08-22 09:44:48</time>
      </trkpt>
      <trkpt lat="41.21748" lon="1.08754">
        <ele>536.8</ele>
        <time>2020-08-22 09:44:49</time>
      </trkpt>
      <trkpt lat="41.21755" lon="1.08753">
        <ele>536.2</ele>
        <time>2020-08-22 09:44:50</time>
      </trkpt>
      <trkpt lat="41.21763" lon="1.08752">
        <ele>535.2</ele>
        <time>2020-08-22 09:44:51</time>
      </trkpt>
      <trkpt lat="41.2177" lon="1.08752">
        <ele>535</ele>
        <time>2020-08-22 09:44:52</time>
      </trkpt>
      <trkpt lat="41.21776" lon="1.08752">
        <ele>534.2</ele>
        <time>2020-08-22 09:44:53</time>
      </trkpt>
      <trkpt lat="41.21785" lon="1.08753">
        <ele>533.2</ele>
        <time>2020-08-22 09:44:54</time>
      </trkpt>
      <trkpt lat="41.21794" lon="1.08754">
        <ele>532</ele>
        <time>2020-08-22 09:44:55</time>
      </trkpt>
      <trkpt lat="41.21804" lon="1.08755">
        <ele>531.6</ele>
        <time>2020-08-22 09:44:56</time>
      </trkpt>
      <trkpt lat="41.21812" lon="1.08756">
        <ele>530.8</ele>
        <time>2020-08-22 09:44:57</time>
      </trkpt>
      <trkpt lat="41.21818" lon="1.08756">
        <ele>530.4</ele>
        <time>2020-08-22 09:44:58</time>
      </trkpt>
      <trkpt lat="41.21824" lon="1.08757">
        <ele>529.6</ele>
        <time>2020-08-22 09:44:59</time>
      </trkpt>
      <trkpt lat="41.21832" lon="1.08759">
        <ele>528.4</ele>
        <time>2020-08-22 09:45:00</time>
      </trkpt>
      <trkpt lat="41.21838" lon="1.0876">
        <ele>527.4</ele>
        <time>2020-08-22 09:45:01</time>
      </trkpt>
      <trkpt lat="41.21844" lon="1.08759">
        <ele>526</ele>
        <time>2020-08-22 09:45:02</time>
      </trkpt>
      <trkpt lat="41.21849" lon="1.08758">
        <ele>525.4</ele>
        <time>2020-08-22 09:45:03</time>
      </trkpt>
      <trkpt lat="41.21856" lon="1.08754">
        <ele>524.4</ele>
        <time>2020-08-22 09:45:04</time>
      </trkpt>
      <trkpt lat="41.21861" lon="1.08748">
        <ele>523.2</ele>
        <time>2020-08-22 09:45:05</time>
      </trkpt>
      <trkpt lat="41.21866" lon="1.08742">
        <ele>521.8</ele>
        <time>2020-08-22 09:45:06</time>
      </trkpt>
      <trkpt lat="41.2187" lon="1.08736">
        <ele>521.2</ele>
        <time>2020-08-22 09:45:07</time>
      </trkpt>
      <trkpt lat="41.21873" lon="1.0873">
        <ele>520.2</ele>
        <time>2020-08-22 09:45:08</time>
      </trkpt>
      <trkpt lat="41.21878" lon="1.08723">
        <ele>518.8</ele>
        <time>2020-08-22 09:45:09</time>
      </trkpt>
      <trkpt lat="41.21882" lon="1.08717">
        <ele>518.2</ele>
        <time>2020-08-22 09:45:10</time>
      </trkpt>
      <trkpt lat="41.21886" lon="1.08712">
        <ele>517.2</ele>
        <time>2020-08-22 09:45:11</time>
      </trkpt>
      <trkpt lat="41.21889" lon="1.08707">
        <ele>516.8</ele>
        <time>2020-08-22 09:45:12</time>
      </trkpt>
      <trkpt lat="41.21891" lon="1.08702">
        <ele>516</ele>
        <time>2020-08-22 09:45:13</time>
      </trkpt>
      <trkpt lat="41.21892" lon="1.08695">
        <ele>515.6</ele>
        <time>2020-08-22 09:45:14</time>
      </trkpt>
      <trkpt lat="41.21894" lon="1.08688">
        <ele>514.4</ele>
        <time>2020-08-22 09:45:15</time>
      </trkpt>
      <trkpt lat="41.21895" lon="1.08681">
        <ele>513.6</ele>
        <time>2020-08-22 09:45:16</time>
      </trkpt>
      <trkpt lat="41.21895" lon="1.08673">
        <ele>511.6</ele>
        <time>2020-08-22 09:45:17</time>
      </trkpt>
      <trkpt lat="41.21896" lon="1.08664">
        <ele>510.2</ele>
        <time>2020-08-22 09:45:18</time>
      </trkpt>
      <trkpt lat="41.21898" lon="1.08656">
        <ele>509.2</ele>
        <time>2020-08-22 09:45:19</time>
      </trkpt>
      <trkpt lat="41.21901" lon="1.08651">
        <ele>508</ele>
        <time>2020-08-22 09:45:20</time>
      </trkpt>
      <trkpt lat="41.21906" lon="1.08649">
        <ele>507.6</ele>
        <time>2020-08-22 09:45:21</time>
      </trkpt>
      <trkpt lat="41.21913" lon="1.08651">
        <ele>506.2</ele>
        <time>2020-08-22 09:45:22</time>
      </trkpt>
      <trkpt lat="41.2192" lon="1.0865">
        <ele>505.4</ele>
        <time>2020-08-22 09:45:23</time>
      </trkpt>
      <trkpt lat="41.21926" lon="1.0865">
        <ele>503.6</ele>
        <time>2020-08-22 09:45:24</time>
      </trkpt>
      <trkpt lat="41.21935" lon="1.08649">
        <ele>502</ele>
        <time>2020-08-22 09:45:25</time>
      </trkpt>
      <trkpt lat="41.21943" lon="1.08647">
        <ele>501.4</ele>
        <time>2020-08-22 09:45:26</time>
      </trkpt>
      <trkpt lat="41.21951" lon="1.08647">
        <ele>499.8</ele>
        <time>2020-08-22 09:45:27</time>
      </trkpt>
      <trkpt lat="41.21951" lon="1.08647">
        <ele>498.6</ele>
        <time>2020-08-22 09:45:28</time>
      </trkpt>
      <trkpt lat="41.21964" lon="1.08648">
        <ele>496.8</ele>
        <time>2020-08-22 09:45:29</time>
      </trkpt>
      <trkpt lat="41.21975" lon="1.08646">
        <ele>495.8</ele>
        <time>2020-08-22 09:45:30</time>
      </trkpt>
      <trkpt lat="41.21983" lon="1.08642">
        <ele>494.4</ele>
        <time>2020-08-22 09:45:31</time>
      </trkpt>
      <trkpt lat="41.21991" lon="1.08635">
        <ele>493.2</ele>
        <time>2020-08-22 09:45:32</time>
      </trkpt>
      <trkpt lat="41.21997" lon="1.08629">
        <ele>491.8</ele>
        <time>2020-08-22 09:45:33</time>
      </trkpt>
      <trkpt lat="41.22004" lon="1.08623">
        <ele>490.4</ele>
        <time>2020-08-22 09:45:34</time>
      </trkpt>
      <trkpt lat="41.22013" lon="1.08617">
        <ele>489.8</ele>
        <time>2020-08-22 09:45:35</time>
      </trkpt>
      <trkpt lat="41.22021" lon="1.08617">
        <ele>488.4</ele>
        <time>2020-08-22 09:45:36</time>
      </trkpt>
      <trkpt lat="41.22029" lon="1.08618">
        <ele>487.8</ele>
        <time>2020-08-22 09:45:37</time>
      </trkpt>
      <trkpt lat="41.22035" lon="1.08619">
        <ele>486.8</ele>
        <time>2020-08-22 09:45:38</time>
      </trkpt>
      <trkpt lat="41.22035" lon="1.08619">
        <ele>486.6</ele>
        <time>2020-08-22 09:45:39</time>
      </trkpt>
      <trkpt lat="41.22052" lon="1.08618">
        <ele>485.8</ele>
        <time>2020-08-22 09:45:40</time>
      </trkpt>
      <trkpt lat="41.2206" lon="1.08616">
        <ele>484.6</ele>
        <time>2020-08-22 09:45:41</time>
      </trkpt>
      <trkpt lat="41.22067" lon="1.08613">
        <ele>482.8</ele>
        <time>2020-08-22 09:45:42</time>
      </trkpt>
      <trkpt lat="41.22072" lon="1.08609">
        <ele>481.4</ele>
        <time>2020-08-22 09:45:43</time>
      </trkpt>
      <trkpt lat="41.22076" lon="1.08606">
        <ele>481</ele>
        <time>2020-08-22 09:45:44</time>
      </trkpt>
      <trkpt lat="41.22082" lon="1.086">
        <ele>479.6</ele>
        <time>2020-08-22 09:45:45</time>
      </trkpt>
      <trkpt lat="41.22089" lon="1.08596">
        <ele>478.4</ele>
        <time>2020-08-22 09:45:46</time>
      </trkpt>
      <trkpt lat="41.22096" lon="1.08591">
        <ele>476.6</ele>
        <time>2020-08-22 09:45:47</time>
      </trkpt>
      <trkpt lat="41.22101" lon="1.08588">
        <ele>475.8</ele>
        <time>2020-08-22 09:45:48</time>
      </trkpt>
      <trkpt lat="41.22106" lon="1.08584">
        <ele>474.2</ele>
        <time>2020-08-22 09:45:49</time>
      </trkpt>
      <trkpt lat="41.22113" lon="1.0858">
        <ele>473.4</ele>
        <time>2020-08-22 09:45:50</time>
      </trkpt>
      <trkpt lat="41.22119" lon="1.08576">
        <ele>472</ele>
        <time>2020-08-22 09:45:51</time>
      </trkpt>
      <trkpt lat="41.22125" lon="1.08571">
        <ele>471.2</ele>
        <time>2020-08-22 09:45:52</time>
      </trkpt>
      <trkpt lat="41.22133" lon="1.08566">
        <ele>470.8</ele>
        <time>2020-08-22 09:45:53</time>
      </trkpt>
      <trkpt lat="41.2214" lon="1.08563">
        <ele>468.4</ele>
        <time>2020-08-22 09:45:54</time>
      </trkpt>
      <trkpt lat="41.22148" lon="1.0856">
        <ele>467.4</ele>
        <time>2020-08-22 09:45:55</time>
      </trkpt>
      <trkpt lat="41.22156" lon="1.08556">
        <ele>466.4</ele>
        <time>2020-08-22 09:45:56</time>
      </trkpt>
      <trkpt lat="41.22164" lon="1.08552">
        <ele>466</ele>
        <time>2020-08-22 09:45:57</time>
      </trkpt>
      <trkpt lat="41.2217" lon="1.08549">
        <ele>464.6</ele>
        <time>2020-08-22 09:45:58</time>
      </trkpt>
      <trkpt lat="41.22177" lon="1.08547">
        <ele>463.6</ele>
        <time>2020-08-22 09:45:59</time>
      </trkpt>
      <trkpt lat="41.22185" lon="1.08547">
        <ele>462.2</ele>
        <time>2020-08-22 09:46:00</time>
      </trkpt>
      <trkpt lat="41.2219" lon="1.08546">
        <ele>460.4</ele>
        <time>2020-08-22 09:46:01</time>
      </trkpt>
      <trkpt lat="41.22194" lon="1.08545">
        <ele>459.8</ele>
        <time>2020-08-22 09:46:02</time>
      </trkpt>
      <trkpt lat="41.22197" lon="1.08543">
        <ele>458.2</ele>
        <time>2020-08-22 09:46:03</time>
      </trkpt>
      <trkpt lat="41.22202" lon="1.08539">
        <ele>457.4</ele>
        <time>2020-08-22 09:46:04</time>
      </trkpt>
      <trkpt lat="41.22208" lon="1.08534">
        <ele>456.6</ele>
        <time>2020-08-22 09:46:05</time>
      </trkpt>
      <trkpt lat="41.22212" lon="1.0853">
        <ele>455.4</ele>
        <time>2020-08-22 09:46:06</time>
      </trkpt>
      <trkpt lat="41.22215" lon="1.08526">
        <ele>453.8</ele>
        <time>2020-08-22 09:46:07</time>
      </trkpt>
      <trkpt lat="41.22217" lon="1.08519">
        <ele>452.8</ele>
        <time>2020-08-22 09:46:08</time>
      </trkpt>
      <trkpt lat="41.22219" lon="1.08513">
        <ele>452.4</ele>
        <time>2020-08-22 09:46:09</time>
      </trkpt>
      <trkpt lat="41.22219" lon="1.08513">
        <ele>451</ele>
        <time>2020-08-22 09:46:10</time>
      </trkpt>
      <trkpt lat="41.22226" lon="1.08498">
        <ele>450.4</ele>
        <time>2020-08-22 09:46:11</time>
      </trkpt>
      <trkpt lat="41.22232" lon="1.08492">
        <ele>450</ele>
        <time>2020-08-22 09:46:12</time>
      </trkpt>
      <trkpt lat="41.22232" lon="1.08492">
        <ele>449.2</ele>
        <time>2020-08-22 09:46:13</time>
      </trkpt>
      <trkpt lat="41.22247" lon="1.0848">
        <ele>447.8</ele>
        <time>2020-08-22 09:46:14</time>
      </trkpt>
      <trkpt lat="41.22256" lon="1.08472">
        <ele>447</ele>
        <time>2020-08-22 09:46:15</time>
      </trkpt>
      <trkpt lat="41.22264" lon="1.08466">
        <ele>446.4</ele>
        <time>2020-08-22 09:46:16</time>
      </trkpt>
      <trkpt lat="41.22271" lon="1.0846">
        <ele>445.6</ele>
        <time>2020-08-22 09:46:17</time>
      </trkpt>
      <trkpt lat="41.22279" lon="1.08454">
        <ele>445</ele>
        <time>2020-08-22 09:46:18</time>
      </trkpt>
      <trkpt lat="41.22284" lon="1.08451">
        <ele>444</ele>
        <time>2020-08-22 09:46:19</time>
      </trkpt>
      <trkpt lat="41.22292" lon="1.08445">
        <ele>443.2</ele>
        <time>2020-08-22 09:46:20</time>
      </trkpt>
      <trkpt lat="41.22297" lon="1.08442">
        <ele>441.4</ele>
        <time>2020-08-22 09:46:21</time>
      </trkpt>
      <trkpt lat="41.22302" lon="1.08438">
        <ele>440.8</ele>
        <time>2020-08-22 09:46:22</time>
      </trkpt>
      <trkpt lat="41.22305" lon="1.08435">
        <ele>439.8</ele>
        <time>2020-08-22 09:46:23</time>
      </trkpt>
      <trkpt lat="41.22308" lon="1.0843">
        <ele>438.8</ele>
        <time>2020-08-22 09:46:24</time>
      </trkpt>
      <trkpt lat="41.22311" lon="1.08424">
        <ele>437.6</ele>
        <time>2020-08-22 09:46:25</time>
      </trkpt>
      <trkpt lat="41.22313" lon="1.08417">
        <ele>436.4</ele>
        <time>2020-08-22 09:46:26</time>
      </trkpt>
      <trkpt lat="41.22316" lon="1.0841">
        <ele>436</ele>
        <time>2020-08-22 09:46:27</time>
      </trkpt>
      <trkpt lat="41.2232" lon="1.08405">
        <ele>434.8</ele>
        <time>2020-08-22 09:46:28</time>
      </trkpt>
      <trkpt lat="41.22325" lon="1.08401">
        <ele>434.4</ele>
        <time>2020-08-22 09:46:29</time>
      </trkpt>
      <trkpt lat="41.2233" lon="1.08399">
        <ele>433.2</ele>
        <time>2020-08-22 09:46:30</time>
      </trkpt>
      <trkpt lat="41.22335" lon="1.08398">
        <ele>432.8</ele>
        <time>2020-08-22 09:46:31</time>
      </trkpt>
      <trkpt lat="41.22341" lon="1.08396">
        <ele>432</ele>
        <time>2020-08-22 09:46:32</time>
      </trkpt>
      <trkpt lat="41.22347" lon="1.08394">
        <ele>431</ele>
        <time>2020-08-22 09:46:33</time>
      </trkpt>
      <trkpt lat="41.22352" lon="1.08392">
        <ele>430.4</ele>
        <time>2020-08-22 09:46:34</time>
      </trkpt>
      <trkpt lat="41.22357" lon="1.08387">
        <ele>429.4</ele>
        <time>2020-08-22 09:46:35</time>
      </trkpt>
      <trkpt lat="41.2236" lon="1.08383">
        <ele>429</ele>
        <time>2020-08-22 09:46:36</time>
      </trkpt>
      <trkpt lat="41.22363" lon="1.08377">
        <ele>428.2</ele>
        <time>2020-08-22 09:46:37</time>
      </trkpt>
      <trkpt lat="41.22364" lon="1.08372">
        <ele>427.8</ele>
        <time>2020-08-22 09:46:38</time>
      </trkpt>
      <trkpt lat="41.22366" lon="1.08367">
        <ele>427</ele>
        <time>2020-08-22 09:46:39</time>
      </trkpt>
      <trkpt lat="41.22368" lon="1.08365">
        <ele>426.8</ele>
        <time>2020-08-22 09:46:40</time>
      </trkpt>
      <trkpt lat="41.2237" lon="1.08364">
        <ele>426.4</ele>
        <time>2020-08-22 09:46:41</time>
      </trkpt>
      <trkpt lat="41.22372" lon="1.08366">
        <ele>425.6</ele>
        <time>2020-08-22 09:46:42</time>
      </trkpt>
      <trkpt lat="41.22375" lon="1.08369">
        <ele>424.8</ele>
        <time>2020-08-22 09:46:43</time>
      </trkpt>
      <trkpt lat="41.2238" lon="1.08373">
        <ele>423.8</ele>
        <time>2020-08-22 09:46:44</time>
      </trkpt>
      <trkpt lat="41.22384" lon="1.08375">
        <ele>423.2</ele>
        <time>2020-08-22 09:46:45</time>
      </trkpt>
      <trkpt lat="41.2239" lon="1.08375">
        <ele>422.4</ele>
        <time>2020-08-22 09:46:46</time>
      </trkpt>
      <trkpt lat="41.22396" lon="1.08374">
        <ele>422</ele>
        <time>2020-08-22 09:46:47</time>
      </trkpt>
      <trkpt lat="41.224" lon="1.08371">
        <ele>421</ele>
        <time>2020-08-22 09:46:48</time>
      </trkpt>
      <trkpt lat="41.224" lon="1.08371">
        <ele>420.4</ele>
        <time>2020-08-22 09:46:49</time>
      </trkpt>
      <trkpt lat="41.2241" lon="1.08365">
        <ele>419.6</ele>
        <time>2020-08-22 09:46:50</time>
      </trkpt>
      <trkpt lat="41.22414" lon="1.08365">
        <ele>418.8</ele>
        <time>2020-08-22 09:46:51</time>
      </trkpt>
      <trkpt lat="41.22418" lon="1.08365">
        <ele>418.4</ele>
        <time>2020-08-22 09:46:52</time>
      </trkpt>
      <trkpt lat="41.22423" lon="1.08363">
        <ele>417.8</ele>
        <time>2020-08-22 09:46:53</time>
      </trkpt>
      <trkpt lat="41.22427" lon="1.08361">
        <ele>417.6</ele>
        <time>2020-08-22 09:46:54</time>
      </trkpt>
      <trkpt lat="41.22433" lon="1.08359">
        <ele>417.2</ele>
        <time>2020-08-22 09:46:55</time>
      </trkpt>
      <trkpt lat="41.22438" lon="1.08355">
        <ele>416.8</ele>
        <time>2020-08-22 09:46:56</time>
      </trkpt>
      <trkpt lat="41.22444" lon="1.08353">
        <ele>416.6</ele>
        <time>2020-08-22 09:46:57</time>
      </trkpt>
      <trkpt lat="41.2245" lon="1.0835">
        <ele>416.4</ele>
        <time>2020-08-22 09:46:58</time>
      </trkpt>
      <trkpt lat="41.22455" lon="1.08347">
        <ele>416.2</ele>
        <time>2020-08-22 09:46:59</time>
      </trkpt>
      <trkpt lat="41.22459" lon="1.08343">
        <ele>415.8</ele>
        <time>2020-08-22 09:47:00</time>
      </trkpt>
      <trkpt lat="41.2246" lon="1.08338">
        <ele>415.8</ele>
        <time>2020-08-22 09:47:01</time>
      </trkpt>
      <trkpt lat="41.22461" lon="1.08332">
        <ele>415.2</ele>
        <time>2020-08-22 09:47:02</time>
      </trkpt>
      <trkpt lat="41.22461" lon="1.08327">
        <ele>415.2</ele>
        <time>2020-08-22 09:47:03</time>
      </trkpt>
      <trkpt lat="41.22459" lon="1.08321">
        <ele>414.8</ele>
        <time>2020-08-22 09:47:04</time>
      </trkpt>
      <trkpt lat="41.22458" lon="1.08316">
        <ele>414.6</ele>
        <time>2020-08-22 09:47:05</time>
      </trkpt>
      <trkpt lat="41.22456" lon="1.0831">
        <ele>414.2</ele>
        <time>2020-08-22 09:47:06</time>
      </trkpt>
      <trkpt lat="41.22453" lon="1.08305">
        <ele>414.4</ele>
        <time>2020-08-22 09:47:07</time>
      </trkpt>
      <trkpt lat="41.22451" lon="1.08301">
        <ele>414.4</ele>
        <time>2020-08-22 09:47:08</time>
      </trkpt>
      <trkpt lat="41.2245" lon="1.08297">
        <ele>414.4</ele>
        <time>2020-08-22 09:47:09</time>
      </trkpt>
      <trkpt lat="41.22448" lon="1.0829">
        <ele>414.4</ele>
        <time>2020-08-22 09:47:10</time>
      </trkpt>
      <trkpt lat="41.22447" lon="1.08285">
        <ele>414.4</ele>
        <time>2020-08-22 09:47:11</time>
      </trkpt>
      <trkpt lat="41.22446" lon="1.0828">
        <ele>414.4</ele>
        <time>2020-08-22 09:47:12</time>
      </trkpt>
      <trkpt lat="41.22445" lon="1.08275">
        <ele>414.6</ele>
        <time>2020-08-22 09:47:13</time>
      </trkpt>
      <trkpt lat="41.22443" lon="1.0827">
        <ele>414.6</ele>
        <time>2020-08-22 09:47:14</time>
      </trkpt>
      <trkpt lat="41.22441" lon="1.08264">
        <ele>414.8</ele>
        <time>2020-08-22 09:47:15</time>
      </trkpt>
      <trkpt lat="41.22439" lon="1.08259">
        <ele>414.8</ele>
        <time>2020-08-22 09:47:16</time>
      </trkpt>
      <trkpt lat="41.22438" lon="1.08254">
        <ele>415</ele>
        <time>2020-08-22 09:47:17</time>
      </trkpt>
      <trkpt lat="41.22436" lon="1.0825">
        <ele>415</ele>
        <time>2020-08-22 09:47:18</time>
      </trkpt>
      <trkpt lat="41.22433" lon="1.08239">
        <ele>415.2</ele>
        <time>2020-08-22 09:47:20</time>
      </trkpt>
      <trkpt lat="41.22431" lon="1.08234">
        <ele>415.2</ele>
        <time>2020-08-22 09:47:21</time>
      </trkpt>
      <trkpt lat="41.22429" lon="1.08228">
        <ele>415.4</ele>
        <time>2020-08-22 09:47:22</time>
      </trkpt>
      <trkpt lat="41.22428" lon="1.08223">
        <ele>415.4</ele>
        <time>2020-08-22 09:47:23</time>
      </trkpt>
      <trkpt lat="41.22427" lon="1.08218">
        <ele>415.6</ele>
        <time>2020-08-22 09:47:24</time>
      </trkpt>
      <trkpt lat="41.22426" lon="1.08212">
        <ele>415.6</ele>
        <time>2020-08-22 09:47:25</time>
      </trkpt>
      <trkpt lat="41.22424" lon="1.08207">
        <ele>415.8</ele>
        <time>2020-08-22 09:47:26</time>
      </trkpt>
      <trkpt lat="41.22423" lon="1.08202">
        <ele>416</ele>
        <time>2020-08-22 09:47:27</time>
      </trkpt>
      <trkpt lat="41.22422" lon="1.08197">
        <ele>416</ele>
        <time>2020-08-22 09:47:28</time>
      </trkpt>
      <trkpt lat="41.22421" lon="1.08192">
        <ele>416.2</ele>
        <time>2020-08-22 09:47:29</time>
      </trkpt>
      <trkpt lat="41.2242" lon="1.08185">
        <ele>416.4</ele>
        <time>2020-08-22 09:47:30</time>
      </trkpt>
      <trkpt lat="41.22419" lon="1.08179">
        <ele>416.4</ele>
        <time>2020-08-22 09:47:31</time>
      </trkpt>
      <trkpt lat="41.22418" lon="1.08174">
        <ele>416.6</ele>
        <time>2020-08-22 09:47:32</time>
      </trkpt>
      <trkpt lat="41.22417" lon="1.08169">
        <ele>416.6</ele>
        <time>2020-08-22 09:47:33</time>
      </trkpt>
      <trkpt lat="41.22415" lon="1.08163">
        <ele>416.8</ele>
        <time>2020-08-22 09:47:34</time>
      </trkpt>
      <trkpt lat="41.22414" lon="1.08157">
        <ele>416.8</ele>
        <time>2020-08-22 09:47:35</time>
      </trkpt>
      <trkpt lat="41.22414" lon="1.08152">
        <ele>417</ele>
        <time>2020-08-22 09:47:36</time>
      </trkpt>
      <trkpt lat="41.22413" lon="1.08146">
        <ele>417</ele>
        <time>2020-08-22 09:47:37</time>
      </trkpt>
      <trkpt lat="41.22412" lon="1.08141">
        <ele>417.2</ele>
        <time>2020-08-22 09:47:38</time>
      </trkpt>
      <trkpt lat="41.22411" lon="1.0813">
        <ele>417.6</ele>
        <time>2020-08-22 09:47:40</time>
      </trkpt>
      <trkpt lat="41.2241" lon="1.08124">
        <ele>417.8</ele>
        <time>2020-08-22 09:47:41</time>
      </trkpt>
      <trkpt lat="41.22409" lon="1.08119">
        <ele>417.8</ele>
        <time>2020-08-22 09:47:42</time>
      </trkpt>
      <trkpt lat="41.22409" lon="1.08119">
        <ele>418</ele>
        <time>2020-08-22 09:47:43</time>
      </trkpt>
      <trkpt lat="41.22408" lon="1.08107">
        <ele>418</ele>
        <time>2020-08-22 09:47:44</time>
      </trkpt>
      <trkpt lat="41.22407" lon="1.08102">
        <ele>418.2</ele>
        <time>2020-08-22 09:47:45</time>
      </trkpt>
      <trkpt lat="41.22407" lon="1.08096">
        <ele>418.2</ele>
        <time>2020-08-22 09:47:46</time>
      </trkpt>
      <trkpt lat="41.22406" lon="1.0809">
        <ele>418.6</ele>
        <time>2020-08-22 09:47:47</time>
      </trkpt>
      <trkpt lat="41.22406" lon="1.08085">
        <ele>418.6</ele>
        <time>2020-08-22 09:47:48</time>
      </trkpt>
      <trkpt lat="41.22405" lon="1.08079">
        <ele>418.8</ele>
        <time>2020-08-22 09:47:49</time>
      </trkpt>
      <trkpt lat="41.22405" lon="1.08074">
        <ele>419</ele>
        <time>2020-08-22 09:47:50</time>
      </trkpt>
      <trkpt lat="41.22405" lon="1.08068">
        <ele>419</ele>
        <time>2020-08-22 09:47:51</time>
      </trkpt>
      <trkpt lat="41.22405" lon="1.08063">
        <ele>419.2</ele>
        <time>2020-08-22 09:47:52</time>
      </trkpt>
      <trkpt lat="41.22404" lon="1.08057">
        <ele>419.2</ele>
        <time>2020-08-22 09:47:53</time>
      </trkpt>
      <trkpt lat="41.22404" lon="1.08052">
        <ele>419.4</ele>
        <time>2020-08-22 09:47:54</time>
      </trkpt>
      <trkpt lat="41.22404" lon="1.08047">
        <ele>419.6</ele>
        <time>2020-08-22 09:47:55</time>
      </trkpt>
      <trkpt lat="41.22404" lon="1.08042">
        <ele>419.6</ele>
        <time>2020-08-22 09:47:56</time>
      </trkpt>
      <trkpt lat="41.22404" lon="1.08038">
        <ele>419.8</ele>
        <time>2020-08-22 09:47:57</time>
      </trkpt>
      <trkpt lat="41.22403" lon="1.08033">
        <ele>420</ele>
        <time>2020-08-22 09:47:58</time>
      </trkpt>
      <trkpt lat="41.22403" lon="1.08029">
        <ele>420.2</ele>
        <time>2020-08-22 09:47:59</time>
      </trkpt>
      <trkpt lat="41.22402" lon="1.08026">
        <ele>420.2</ele>
        <time>2020-08-22 09:48:00</time>
      </trkpt>
      <trkpt lat="41.224" lon="1.08023">
        <ele>420.2</ele>
        <time>2020-08-22 09:48:01</time>
      </trkpt>
      <trkpt lat="41.22398" lon="1.08022">
        <ele>420.4</ele>
        <time>2020-08-22 09:48:02</time>
      </trkpt>
      <trkpt lat="41.22397" lon="1.08022">
        <ele>420.4</ele>
        <time>2020-08-22 09:48:03</time>
      </trkpt>
      <trkpt lat="41.22397" lon="1.08022">
        <ele>420.4</ele>
        <time>2020-08-22 09:48:04</time>
      </trkpt>
      <trkpt lat="41.22397" lon="1.08022">
        <ele>420.6</ele>
        <time>2020-08-22 09:48:05</time>
      </trkpt>
      <trkpt lat="41.22397" lon="1.08022">
        <ele>420.4</ele>
        <time>2020-08-22 09:48:08</time>
      </trkpt>
      <trkpt lat="41.22397" lon="1.08022">
        <ele>420</ele>
        <time>2020-08-22 09:48:15</time>
      </trkpt>
      <trkpt lat="41.22397" lon="1.08022">
        <ele>420</ele>
        <time>2020-08-22 09:48:22</time>
      </trkpt>
      <trkpt lat="41.22397" lon="1.08022">
        <ele>419.8</ele>
        <time>2020-08-22 09:48:25</time>
      </trkpt>
      <trkpt lat="41.22397" lon="1.08022">
        <ele>420</ele>
        <time>2020-08-22 09:48:34</time>
      </trkpt>
      <trkpt lat="41.22397" lon="1.08022">
        <ele>420</ele>
        <time>2020-08-22 09:48:40</time>
      </trkpt>
      <trkpt lat="41.22397" lon="1.08022">
        <ele>420.2</ele>
        <time>2020-08-22 09:48:50</time>
      </trkpt>
      <trkpt lat="41.22397" lon="1.08022">
        <ele>420.4</ele>
        <time>2020-08-22 09:48:51</time>
      </trkpt>
      <trkpt lat="41.22397" lon="1.08022">
        <ele>420.6</ele>
        <time>2020-08-22 09:48:53</time>
      </trkpt>
      <trkpt lat="41.22397" lon="1.08022">
        <ele>420.6</ele>
        <time>2020-08-22 09:48:56</time>
      </trkpt>
      <trkpt lat="41.22397" lon="1.08022">
        <ele>420.8</ele>
        <time>2020-08-22 09:48:57</time>
      </trkpt>
      <trkpt lat="41.224" lon="1.08016">
        <ele>420.6</ele>
        <time>2020-08-22 09:48:59</time>
      </trkpt>
      <trkpt lat="41.22401" lon="1.08012">
        <ele>420.6</ele>
        <time>2020-08-22 09:49:00</time>
      </trkpt>
      <trkpt lat="41.22401" lon="1.08007">
        <ele>420.6</ele>
        <time>2020-08-22 09:49:01</time>
      </trkpt>
      <trkpt lat="41.22402" lon="1.07993">
        <ele>420.8</ele>
        <time>2020-08-22 09:49:04</time>
      </trkpt>
      <trkpt lat="41.22402" lon="1.07988">
        <ele>420.8</ele>
        <time>2020-08-22 09:49:05</time>
      </trkpt>
      <trkpt lat="41.22403" lon="1.07984">
        <ele>420.8</ele>
        <time>2020-08-22 09:49:06</time>
      </trkpt>
      <trkpt lat="41.22403" lon="1.0798">
        <ele>421</ele>
        <time>2020-08-22 09:49:07</time>
      </trkpt>
      <trkpt lat="41.22405" lon="1.07962">
        <ele>421.4</ele>
        <time>2020-08-22 09:49:11</time>
      </trkpt>
      <trkpt lat="41.22406" lon="1.07956">
        <ele>421.6</ele>
        <time>2020-08-22 09:49:12</time>
      </trkpt>
      <trkpt lat="41.22406" lon="1.07951">
        <ele>421.6</ele>
        <time>2020-08-22 09:49:13</time>
      </trkpt>
      <trkpt lat="41.22407" lon="1.07945">
        <ele>421.8</ele>
        <time>2020-08-22 09:49:14</time>
      </trkpt>
      <trkpt lat="41.22407" lon="1.07941">
        <ele>422</ele>
        <time>2020-08-22 09:49:15</time>
      </trkpt>
      <trkpt lat="41.22408" lon="1.07934">
        <ele>422.2</ele>
        <time>2020-08-22 09:49:16</time>
      </trkpt>
      <trkpt lat="41.22408" lon="1.07934">
        <ele>422.2</ele>
        <time>2020-08-22 09:49:17</time>
      </trkpt>
      <trkpt lat="41.22409" lon="1.07923">
        <ele>422.4</ele>
        <time>2020-08-22 09:49:18</time>
      </trkpt>
      <trkpt lat="41.22409" lon="1.07917">
        <ele>422.4</ele>
        <time>2020-08-22 09:49:19</time>
      </trkpt>
      <trkpt lat="41.2241" lon="1.07912">
        <ele>422.6</ele>
        <time>2020-08-22 09:49:20</time>
      </trkpt>
      <trkpt lat="41.22411" lon="1.07906">
        <ele>422.6</ele>
        <time>2020-08-22 09:49:21</time>
      </trkpt>
      <trkpt lat="41.22412" lon="1.079">
        <ele>423</ele>
        <time>2020-08-22 09:49:22</time>
      </trkpt>
      <trkpt lat="41.22413" lon="1.07894">
        <ele>423.2</ele>
        <time>2020-08-22 09:49:23</time>
      </trkpt>
      <trkpt lat="41.22414" lon="1.07888">
        <ele>423.2</ele>
        <time>2020-08-22 09:49:24</time>
      </trkpt>
      <trkpt lat="41.22414" lon="1.07882">
        <ele>423.4</ele>
        <time>2020-08-22 09:49:25</time>
      </trkpt>
      <trkpt lat="41.22415" lon="1.07877">
        <ele>423.4</ele>
        <time>2020-08-22 09:49:26</time>
      </trkpt>
      <trkpt lat="41.22416" lon="1.07871">
        <ele>423.6</ele>
        <time>2020-08-22 09:49:27</time>
      </trkpt>
      <trkpt lat="41.22417" lon="1.07865">
        <ele>423.6</ele>
        <time>2020-08-22 09:49:28</time>
      </trkpt>
      <trkpt lat="41.22417" lon="1.07859">
        <ele>423.8</ele>
        <time>2020-08-22 09:49:29</time>
      </trkpt>
      <trkpt lat="41.22418" lon="1.07853">
        <ele>424</ele>
        <time>2020-08-22 09:49:30</time>
      </trkpt>
      <trkpt lat="41.2242" lon="1.07848">
        <ele>424.2</ele>
        <time>2020-08-22 09:49:31</time>
      </trkpt>
      <trkpt lat="41.22421" lon="1.07842">
        <ele>424.4</ele>
        <time>2020-08-22 09:49:32</time>
      </trkpt>
      <trkpt lat="41.22421" lon="1.07838">
        <ele>424.6</ele>
        <time>2020-08-22 09:49:33</time>
      </trkpt>
      <trkpt lat="41.22422" lon="1.07831">
        <ele>424.6</ele>
        <time>2020-08-22 09:49:34</time>
      </trkpt>
      <trkpt lat="41.22423" lon="1.07826">
        <ele>424.6</ele>
        <time>2020-08-22 09:49:35</time>
      </trkpt>
      <trkpt lat="41.22424" lon="1.0782">
        <ele>424.8</ele>
        <time>2020-08-22 09:49:36</time>
      </trkpt>
      <trkpt lat="41.22425" lon="1.07815">
        <ele>424.8</ele>
        <time>2020-08-22 09:49:37</time>
      </trkpt>
      <trkpt lat="41.22426" lon="1.07809">
        <ele>425</ele>
        <time>2020-08-22 09:49:38</time>
      </trkpt>
      <trkpt lat="41.22427" lon="1.07804">
        <ele>425</ele>
        <time>2020-08-22 09:49:39</time>
      </trkpt>
      <trkpt lat="41.22428" lon="1.07798">
        <ele>425.2</ele>
        <time>2020-08-22 09:49:40</time>
      </trkpt>
      <trkpt lat="41.22429" lon="1.07793">
        <ele>425.2</ele>
        <time>2020-08-22 09:49:41</time>
      </trkpt>
      <trkpt lat="41.22429" lon="1.07788">
        <ele>425.2</ele>
        <time>2020-08-22 09:49:42</time>
      </trkpt>
      <trkpt lat="41.2243" lon="1.07782">
        <ele>425.4</ele>
        <time>2020-08-22 09:49:43</time>
      </trkpt>
      <trkpt lat="41.22431" lon="1.07777">
        <ele>425.6</ele>
        <time>2020-08-22 09:49:44</time>
      </trkpt>
      <trkpt lat="41.22432" lon="1.07771">
        <ele>425.8</ele>
        <time>2020-08-22 09:49:45</time>
      </trkpt>
      <trkpt lat="41.22433" lon="1.07766">
        <ele>425.8</ele>
        <time>2020-08-22 09:49:46</time>
      </trkpt>
      <trkpt lat="41.22434" lon="1.07761">
        <ele>426</ele>
        <time>2020-08-22 09:49:47</time>
      </trkpt>
      <trkpt lat="41.22435" lon="1.07756">
        <ele>426.2</ele>
        <time>2020-08-22 09:49:48</time>
      </trkpt>
      <trkpt lat="41.22436" lon="1.0775">
        <ele>426.2</ele>
        <time>2020-08-22 09:49:49</time>
      </trkpt>
      <trkpt lat="41.22437" lon="1.07745">
        <ele>426.2</ele>
        <time>2020-08-22 09:49:50</time>
      </trkpt>
      <trkpt lat="41.22437" lon="1.07739">
        <ele>426.4</ele>
        <time>2020-08-22 09:49:51</time>
      </trkpt>
      <trkpt lat="41.22438" lon="1.07734">
        <ele>426.4</ele>
        <time>2020-08-22 09:49:52</time>
      </trkpt>
      <trkpt lat="41.22439" lon="1.07728">
        <ele>426.4</ele>
        <time>2020-08-22 09:49:53</time>
      </trkpt>
      <trkpt lat="41.2244" lon="1.07723">
        <ele>426.8</ele>
        <time>2020-08-22 09:49:54</time>
      </trkpt>
      <trkpt lat="41.22441" lon="1.07718">
        <ele>427</ele>
        <time>2020-08-22 09:49:55</time>
      </trkpt>
      <trkpt lat="41.22442" lon="1.07711">
        <ele>427.2</ele>
        <time>2020-08-22 09:49:56</time>
      </trkpt>
      <trkpt lat="41.22442" lon="1.07707">
        <ele>427.4</ele>
        <time>2020-08-22 09:49:57</time>
      </trkpt>
      <trkpt lat="41.22443" lon="1.07702">
        <ele>427.4</ele>
        <time>2020-08-22 09:49:58</time>
      </trkpt>
      <trkpt lat="41.22444" lon="1.07697">
        <ele>427.6</ele>
        <time>2020-08-22 09:49:59</time>
      </trkpt>
      <trkpt lat="41.22445" lon="1.07692">
        <ele>427.6</ele>
        <time>2020-08-22 09:50:00</time>
      </trkpt>
      <trkpt lat="41.22447" lon="1.07688">
        <ele>427.8</ele>
        <time>2020-08-22 09:50:01</time>
      </trkpt>
      <trkpt lat="41.22449" lon="1.07684">
        <ele>428</ele>
        <time>2020-08-22 09:50:02</time>
      </trkpt>
      <trkpt lat="41.22452" lon="1.07682">
        <ele>428</ele>
        <time>2020-08-22 09:50:03</time>
      </trkpt>
      <trkpt lat="41.22454" lon="1.0768">
        <ele>428</ele>
        <time>2020-08-22 09:50:04</time>
      </trkpt>
      <trkpt lat="41.22455" lon="1.07678">
        <ele>428.2</ele>
        <time>2020-08-22 09:50:05</time>
      </trkpt>
      <trkpt lat="41.22456" lon="1.07676">
        <ele>428.4</ele>
        <time>2020-08-22 09:50:06</time>
      </trkpt>
      <trkpt lat="41.22456" lon="1.07673">
        <ele>428.4</ele>
        <time>2020-08-22 09:50:07</time>
      </trkpt>
      <trkpt lat="41.22457" lon="1.0767">
        <ele>428.6</ele>
        <time>2020-08-22 09:50:08</time>
      </trkpt>
      <trkpt lat="41.22458" lon="1.07667">
        <ele>429</ele>
        <time>2020-08-22 09:50:09</time>
      </trkpt>
      <trkpt lat="41.22458" lon="1.07663">
        <ele>429.2</ele>
        <time>2020-08-22 09:50:10</time>
      </trkpt>
      <trkpt lat="41.22459" lon="1.07659">
        <ele>429.6</ele>
        <time>2020-08-22 09:50:11</time>
      </trkpt>
      <trkpt lat="41.22459" lon="1.07655">
        <ele>430</ele>
        <time>2020-08-22 09:50:12</time>
      </trkpt>
      <trkpt lat="41.2246" lon="1.07652">
        <ele>430.2</ele>
        <time>2020-08-22 09:50:13</time>
      </trkpt>
      <trkpt lat="41.22461" lon="1.07648">
        <ele>430.4</ele>
        <time>2020-08-22 09:50:14</time>
      </trkpt>
      <trkpt lat="41.22462" lon="1.07644">
        <ele>430.8</ele>
        <time>2020-08-22 09:50:15</time>
      </trkpt>
      <trkpt lat="41.22462" lon="1.07641">
        <ele>431</ele>
        <time>2020-08-22 09:50:16</time>
      </trkpt>
      <trkpt lat="41.22463" lon="1.07638">
        <ele>431.2</ele>
        <time>2020-08-22 09:50:17</time>
      </trkpt>
      <trkpt lat="41.22464" lon="1.07635">
        <ele>431.2</ele>
        <time>2020-08-22 09:50:18</time>
      </trkpt>
      <trkpt lat="41.22464" lon="1.07631">
        <ele>431.6</ele>
        <time>2020-08-22 09:50:19</time>
      </trkpt>
      <trkpt lat="41.22464" lon="1.07627">
        <ele>431.8</ele>
        <time>2020-08-22 09:50:20</time>
      </trkpt>
      <trkpt lat="41.22463" lon="1.07625">
        <ele>432</ele>
        <time>2020-08-22 09:50:21</time>
      </trkpt>
      <trkpt lat="41.22463" lon="1.07624">
        <ele>432.6</ele>
        <time>2020-08-22 09:50:22</time>
      </trkpt>
      <trkpt lat="41.22463" lon="1.07624">
        <ele>432.8</ele>
        <time>2020-08-22 09:50:23</time>
      </trkpt>
      <trkpt lat="41.22463" lon="1.07623">
        <ele>433.4</ele>
        <time>2020-08-22 09:50:24</time>
      </trkpt>
      <trkpt lat="41.22463" lon="1.07622">
        <ele>433.8</ele>
        <time>2020-08-22 09:50:25</time>
      </trkpt>
      <trkpt lat="41.22463" lon="1.07622">
        <ele>434.4</ele>
        <time>2020-08-22 09:50:26</time>
      </trkpt>
      <trkpt lat="41.22463" lon="1.07621">
        <ele>434.6</ele>
        <time>2020-08-22 09:50:27</time>
      </trkpt>
      <trkpt lat="41.22463" lon="1.0762">
        <ele>435</ele>
        <time>2020-08-22 09:50:28</time>
      </trkpt>
      <trkpt lat="41.22464" lon="1.07618">
        <ele>435.2</ele>
        <time>2020-08-22 09:50:29</time>
      </trkpt>
      <trkpt lat="41.22465" lon="1.07617">
        <ele>435.4</ele>
        <time>2020-08-22 09:50:30</time>
      </trkpt>
      <trkpt lat="41.22467" lon="1.07617">
        <ele>435.6</ele>
        <time>2020-08-22 09:50:31</time>
      </trkpt>
      <trkpt lat="41.22469" lon="1.07618">
        <ele>435.8</ele>
        <time>2020-08-22 09:50:32</time>
      </trkpt>
      <trkpt lat="41.22471" lon="1.07617">
        <ele>435.8</ele>
        <time>2020-08-22 09:50:33</time>
      </trkpt>
      <trkpt lat="41.22473" lon="1.07617">
        <ele>436</ele>
        <time>2020-08-22 09:50:34</time>
      </trkpt>
      <trkpt lat="41.22476" lon="1.07615">
        <ele>436</ele>
        <time>2020-08-22 09:50:35</time>
      </trkpt>
      <trkpt lat="41.22478" lon="1.07613">
        <ele>436</ele>
        <time>2020-08-22 09:50:36</time>
      </trkpt>
      <trkpt lat="41.2248" lon="1.07611">
        <ele>436</ele>
        <time>2020-08-22 09:50:37</time>
      </trkpt>
      <trkpt lat="41.22482" lon="1.0761">
        <ele>436</ele>
        <time>2020-08-22 09:50:38</time>
      </trkpt>
      <trkpt lat="41.22485" lon="1.07609">
        <ele>436</ele>
        <time>2020-08-22 09:50:39</time>
      </trkpt>
      <trkpt lat="41.22487" lon="1.07606">
        <ele>436.2</ele>
        <time>2020-08-22 09:50:40</time>
      </trkpt>
      <trkpt lat="41.22489" lon="1.07605">
        <ele>436.4</ele>
        <time>2020-08-22 09:50:41</time>
      </trkpt>
      <trkpt lat="41.22491" lon="1.07604">
        <ele>436.8</ele>
        <time>2020-08-22 09:50:42</time>
      </trkpt>
      <trkpt lat="41.22492" lon="1.07603">
        <ele>436.8</ele>
        <time>2020-08-22 09:50:43</time>
      </trkpt>
      <trkpt lat="41.22493" lon="1.07601">
        <ele>437</ele>
        <time>2020-08-22 09:50:44</time>
      </trkpt>
      <trkpt lat="41.22495" lon="1.07599">
        <ele>437.2</ele>
        <time>2020-08-22 09:50:45</time>
      </trkpt>
      <trkpt lat="41.22496" lon="1.07597">
        <ele>437.6</ele>
        <time>2020-08-22 09:50:46</time>
      </trkpt>
      <trkpt lat="41.22497" lon="1.07596">
        <ele>438</ele>
        <time>2020-08-22 09:50:47</time>
      </trkpt>
      <trkpt lat="41.22499" lon="1.07595">
        <ele>438.2</ele>
        <time>2020-08-22 09:50:48</time>
      </trkpt>
      <trkpt lat="41.225" lon="1.07595">
        <ele>438.6</ele>
        <time>2020-08-22 09:50:49</time>
      </trkpt>
      <trkpt lat="41.22501" lon="1.07595">
        <ele>438.8</ele>
        <time>2020-08-22 09:50:50</time>
      </trkpt>
      <trkpt lat="41.22503" lon="1.07596">
        <ele>439.4</ele>
        <time>2020-08-22 09:50:51</time>
      </trkpt>
      <trkpt lat="41.22504" lon="1.07596">
        <ele>440</ele>
        <time>2020-08-22 09:50:52</time>
      </trkpt>
      <trkpt lat="41.22506" lon="1.07597">
        <ele>440.4</ele>
        <time>2020-08-22 09:50:53</time>
      </trkpt>
      <trkpt lat="41.22507" lon="1.07598">
        <ele>440.8</ele>
        <time>2020-08-22 09:50:54</time>
      </trkpt>
      <trkpt lat="41.22507" lon="1.07598">
        <ele>441</ele>
        <time>2020-08-22 09:50:55</time>
      </trkpt>
      <trkpt lat="41.2251" lon="1.076">
        <ele>441.2</ele>
        <time>2020-08-22 09:50:56</time>
      </trkpt>
      <trkpt lat="41.22511" lon="1.07601">
        <ele>441.2</ele>
        <time>2020-08-22 09:50:57</time>
      </trkpt>
      <trkpt lat="41.22513" lon="1.07602">
        <ele>441.6</ele>
        <time>2020-08-22 09:50:58</time>
      </trkpt>
      <trkpt lat="41.22514" lon="1.07602">
        <ele>441.8</ele>
        <time>2020-08-22 09:50:59</time>
      </trkpt>
      <trkpt lat="41.22515" lon="1.07602">
        <ele>442.6</ele>
        <time>2020-08-22 09:51:00</time>
      </trkpt>
      <trkpt lat="41.22517" lon="1.07602">
        <ele>443</ele>
        <time>2020-08-22 09:51:01</time>
      </trkpt>
      <trkpt lat="41.22518" lon="1.07601">
        <ele>443.6</ele>
        <time>2020-08-22 09:51:02</time>
      </trkpt>
      <trkpt lat="41.22519" lon="1.07601">
        <ele>443.6</ele>
        <time>2020-08-22 09:51:03</time>
      </trkpt>
      <trkpt lat="41.22521" lon="1.07601">
        <ele>444</ele>
        <time>2020-08-22 09:51:04</time>
      </trkpt>
      <trkpt lat="41.22522" lon="1.07601">
        <ele>444.2</ele>
        <time>2020-08-22 09:51:05</time>
      </trkpt>
      <trkpt lat="41.22523" lon="1.07601">
        <ele>444.4</ele>
        <time>2020-08-22 09:51:06</time>
      </trkpt>
      <trkpt lat="41.22524" lon="1.076">
        <ele>444.4</ele>
        <time>2020-08-22 09:51:07</time>
      </trkpt>
      <trkpt lat="41.22525" lon="1.076">
        <ele>444.6</ele>
        <time>2020-08-22 09:51:08</time>
      </trkpt>
      <trkpt lat="41.22526" lon="1.07599">
        <ele>445</ele>
        <time>2020-08-22 09:51:09</time>
      </trkpt>
      <trkpt lat="41.22527" lon="1.07598">
        <ele>445</ele>
        <time>2020-08-22 09:51:10</time>
      </trkpt>
      <trkpt lat="41.22528" lon="1.07596">
        <ele>445.2</ele>
        <time>2020-08-22 09:51:11</time>
      </trkpt>
      <trkpt lat="41.22529" lon="1.07594">
        <ele>445.4</ele>
        <time>2020-08-22 09:51:12</time>
      </trkpt>
      <trkpt lat="41.22529" lon="1.07593">
        <ele>445.4</ele>
        <time>2020-08-22 09:51:13</time>
      </trkpt>
      <trkpt lat="41.2253" lon="1.07591">
        <ele>445.8</ele>
        <time>2020-08-22 09:51:14</time>
      </trkpt>
      <trkpt lat="41.2253" lon="1.07589">
        <ele>446</ele>
        <time>2020-08-22 09:51:15</time>
      </trkpt>
      <trkpt lat="41.22529" lon="1.07587">
        <ele>446.2</ele>
        <time>2020-08-22 09:51:16</time>
      </trkpt>
      <trkpt lat="41.22529" lon="1.07585">
        <ele>446.4</ele>
        <time>2020-08-22 09:51:17</time>
      </trkpt>
      <trkpt lat="41.22528" lon="1.07585">
        <ele>446.8</ele>
        <time>2020-08-22 09:51:18</time>
      </trkpt>
      <trkpt lat="41.22527" lon="1.07585">
        <ele>447</ele>
        <time>2020-08-22 09:51:19</time>
      </trkpt>
      <trkpt lat="41.22525" lon="1.07586">
        <ele>447.2</ele>
        <time>2020-08-22 09:51:20</time>
      </trkpt>
      <trkpt lat="41.22524" lon="1.07586">
        <ele>447.4</ele>
        <time>2020-08-22 09:51:21</time>
      </trkpt>
      <trkpt lat="41.22522" lon="1.07587">
        <ele>447.4</ele>
        <time>2020-08-22 09:51:22</time>
      </trkpt>
      <trkpt lat="41.22521" lon="1.07587">
        <ele>448</ele>
        <time>2020-08-22 09:51:23</time>
      </trkpt>
      <trkpt lat="41.22519" lon="1.07587">
        <ele>448.2</ele>
        <time>2020-08-22 09:51:24</time>
      </trkpt>
      <trkpt lat="41.22518" lon="1.07586">
        <ele>448.6</ele>
        <time>2020-08-22 09:51:25</time>
      </trkpt>
      <trkpt lat="41.22517" lon="1.07585">
        <ele>448.8</ele>
        <time>2020-08-22 09:51:26</time>
      </trkpt>
      <trkpt lat="41.22517" lon="1.07583">
        <ele>449</ele>
        <time>2020-08-22 09:51:27</time>
      </trkpt>
      <trkpt lat="41.22517" lon="1.07582">
        <ele>449</ele>
        <time>2020-08-22 09:51:28</time>
      </trkpt>
      <trkpt lat="41.22518" lon="1.0758">
        <ele>449.2</ele>
        <time>2020-08-22 09:51:29</time>
      </trkpt>
      <trkpt lat="41.22519" lon="1.07578">
        <ele>449.4</ele>
        <time>2020-08-22 09:51:30</time>
      </trkpt>
      <trkpt lat="41.2252" lon="1.07577">
        <ele>449.6</ele>
        <time>2020-08-22 09:51:31</time>
      </trkpt>
      <trkpt lat="41.22521" lon="1.07576">
        <ele>450</ele>
        <time>2020-08-22 09:51:32</time>
      </trkpt>
      <trkpt lat="41.22522" lon="1.07575">
        <ele>450.2</ele>
        <time>2020-08-22 09:51:33</time>
      </trkpt>
      <trkpt lat="41.22523" lon="1.07574">
        <ele>450.4</ele>
        <time>2020-08-22 09:51:34</time>
      </trkpt>
      <trkpt lat="41.22524" lon="1.07572">
        <ele>450.6</ele>
        <time>2020-08-22 09:51:35</time>
      </trkpt>
      <trkpt lat="41.22524" lon="1.0757">
        <ele>450.8</ele>
        <time>2020-08-22 09:51:36</time>
      </trkpt>
      <trkpt lat="41.22525" lon="1.07568">
        <ele>450.8</ele>
        <time>2020-08-22 09:51:37</time>
      </trkpt>
      <trkpt lat="41.22526" lon="1.07566">
        <ele>451.2</ele>
        <time>2020-08-22 09:51:38</time>
      </trkpt>
      <trkpt lat="41.22527" lon="1.07564">
        <ele>451.6</ele>
        <time>2020-08-22 09:51:39</time>
      </trkpt>
      <trkpt lat="41.22527" lon="1.07563">
        <ele>451.8</ele>
        <time>2020-08-22 09:51:40</time>
      </trkpt>
      <trkpt lat="41.22528" lon="1.07561">
        <ele>451.8</ele>
        <time>2020-08-22 09:51:41</time>
      </trkpt>
      <trkpt lat="41.22528" lon="1.0756">
        <ele>452</ele>
        <time>2020-08-22 09:51:42</time>
      </trkpt>
      <trkpt lat="41.22529" lon="1.07558">
        <ele>452.2</ele>
        <time>2020-08-22 09:51:43</time>
      </trkpt>
      <trkpt lat="41.2253" lon="1.07557">
        <ele>452.2</ele>
        <time>2020-08-22 09:51:44</time>
      </trkpt>
      <trkpt lat="41.22532" lon="1.07555">
        <ele>452.4</ele>
        <time>2020-08-22 09:51:45</time>
      </trkpt>
      <trkpt lat="41.22533" lon="1.07554">
        <ele>452.6</ele>
        <time>2020-08-22 09:51:46</time>
      </trkpt>
      <trkpt lat="41.22534" lon="1.07552">
        <ele>452.6</ele>
        <time>2020-08-22 09:51:47</time>
      </trkpt>
      <trkpt lat="41.22535" lon="1.0755">
        <ele>453</ele>
        <time>2020-08-22 09:51:48</time>
      </trkpt>
      <trkpt lat="41.22536" lon="1.07549">
        <ele>453</ele>
        <time>2020-08-22 09:51:49</time>
      </trkpt>
      <trkpt lat="41.22538" lon="1.07548">
        <ele>453.4</ele>
        <time>2020-08-22 09:51:50</time>
      </trkpt>
      <trkpt lat="41.2254" lon="1.07546">
        <ele>453.6</ele>
        <time>2020-08-22 09:51:51</time>
      </trkpt>
      <trkpt lat="41.22543" lon="1.07543">
        <ele>453.8</ele>
        <time>2020-08-22 09:51:52</time>
      </trkpt>
      <trkpt lat="41.22545" lon="1.07539">
        <ele>454</ele>
        <time>2020-08-22 09:51:53</time>
      </trkpt>
      <trkpt lat="41.22547" lon="1.07536">
        <ele>454.2</ele>
        <time>2020-08-22 09:51:54</time>
      </trkpt>
      <trkpt lat="41.2255" lon="1.07532">
        <ele>454.4</ele>
        <time>2020-08-22 09:51:55</time>
      </trkpt>
      <trkpt lat="41.22552" lon="1.07529">
        <ele>454.4</ele>
        <time>2020-08-22 09:51:56</time>
      </trkpt>
      <trkpt lat="41.22554" lon="1.07525">
        <ele>454.6</ele>
        <time>2020-08-22 09:51:57</time>
      </trkpt>
      <trkpt lat="41.22557" lon="1.0752">
        <ele>454.6</ele>
        <time>2020-08-22 09:51:58</time>
      </trkpt>
      <trkpt lat="41.22559" lon="1.07515">
        <ele>454.6</ele>
        <time>2020-08-22 09:51:59</time>
      </trkpt>
      <trkpt lat="41.22561" lon="1.07511">
        <ele>454.6</ele>
        <time>2020-08-22 09:52:00</time>
      </trkpt>
      <trkpt lat="41.22566" lon="1.07498">
        <ele>454.8</ele>
        <time>2020-08-22 09:52:03</time>
      </trkpt>
      <trkpt lat="41.22568" lon="1.07494">
        <ele>454.8</ele>
        <time>2020-08-22 09:52:04</time>
      </trkpt>
      <trkpt lat="41.2257" lon="1.0749">
        <ele>454.8</ele>
        <time>2020-08-22 09:52:05</time>
      </trkpt>
      <trkpt lat="41.22572" lon="1.07486">
        <ele>454.8</ele>
        <time>2020-08-22 09:52:06</time>
      </trkpt>
      <trkpt lat="41.22574" lon="1.07481">
        <ele>454.8</ele>
        <time>2020-08-22 09:52:07</time>
      </trkpt>
      <trkpt lat="41.22577" lon="1.07477">
        <ele>454.8</ele>
        <time>2020-08-22 09:52:08</time>
      </trkpt>
      <trkpt lat="41.22581" lon="1.07475">
        <ele>455</ele>
        <time>2020-08-22 09:52:09</time>
      </trkpt>
      <trkpt lat="41.22584" lon="1.07475">
        <ele>455</ele>
        <time>2020-08-22 09:52:10</time>
      </trkpt>
      <trkpt lat="41.22587" lon="1.07475">
        <ele>454.8</ele>
        <time>2020-08-22 09:52:11</time>
      </trkpt>
      <trkpt lat="41.22591" lon="1.07479">
        <ele>454.6</ele>
        <time>2020-08-22 09:52:12</time>
      </trkpt>
      <trkpt lat="41.22594" lon="1.07483">
        <ele>454.2</ele>
        <time>2020-08-22 09:52:13</time>
      </trkpt>
      <trkpt lat="41.22597" lon="1.07486">
        <ele>453.8</ele>
        <time>2020-08-22 09:52:14</time>
      </trkpt>
      <trkpt lat="41.22599" lon="1.0749">
        <ele>453.2</ele>
        <time>2020-08-22 09:52:15</time>
      </trkpt>
      <trkpt lat="41.22601" lon="1.07493">
        <ele>453</ele>
        <time>2020-08-22 09:52:16</time>
      </trkpt>
      <trkpt lat="41.22604" lon="1.07496">
        <ele>452.6</ele>
        <time>2020-08-22 09:52:17</time>
      </trkpt>
      <trkpt lat="41.22607" lon="1.07498">
        <ele>452.6</ele>
        <time>2020-08-22 09:52:18</time>
      </trkpt>
      <trkpt lat="41.2261" lon="1.07499">
        <ele>452.2</ele>
        <time>2020-08-22 09:52:19</time>
      </trkpt>
      <trkpt lat="41.22612" lon="1.07499">
        <ele>451.8</ele>
        <time>2020-08-22 09:52:20</time>
      </trkpt>
      <trkpt lat="41.22613" lon="1.075">
        <ele>451.6</ele>
        <time>2020-08-22 09:52:21</time>
      </trkpt>
      <trkpt lat="41.22616" lon="1.07502">
        <ele>451.6</ele>
        <time>2020-08-22 09:52:22</time>
      </trkpt>
      <trkpt lat="41.22619" lon="1.07503">
        <ele>451.4</ele>
        <time>2020-08-22 09:52:23</time>
      </trkpt>
      <trkpt lat="41.22627" lon="1.07504">
        <ele>451.8</ele>
        <time>2020-08-22 09:52:26</time>
      </trkpt>
      <trkpt lat="41.2263" lon="1.07504">
        <ele>451.8</ele>
        <time>2020-08-22 09:52:27</time>
      </trkpt>
      <trkpt lat="41.22633" lon="1.07501">
        <ele>452</ele>
        <time>2020-08-22 09:52:28</time>
      </trkpt>
      <trkpt lat="41.22635" lon="1.075">
        <ele>452.2</ele>
        <time>2020-08-22 09:52:29</time>
      </trkpt>
      <trkpt lat="41.22638" lon="1.07498">
        <ele>452.4</ele>
        <time>2020-08-22 09:52:30</time>
      </trkpt>
      <trkpt lat="41.2264" lon="1.07497">
        <ele>452.6</ele>
        <time>2020-08-22 09:52:31</time>
      </trkpt>
      <trkpt lat="41.22642" lon="1.07498">
        <ele>452.8</ele>
        <time>2020-08-22 09:52:32</time>
      </trkpt>
      <trkpt lat="41.22645" lon="1.075">
        <ele>453</ele>
        <time>2020-08-22 09:52:33</time>
      </trkpt>
      <trkpt lat="41.22647" lon="1.07502">
        <ele>453.2</ele>
        <time>2020-08-22 09:52:34</time>
      </trkpt>
      <trkpt lat="41.2265" lon="1.07503">
        <ele>453.4</ele>
        <time>2020-08-22 09:52:35</time>
      </trkpt>
      <trkpt lat="41.22653" lon="1.07504">
        <ele>453.6</ele>
        <time>2020-08-22 09:52:36</time>
      </trkpt>
      <trkpt lat="41.22657" lon="1.07507">
        <ele>453.8</ele>
        <time>2020-08-22 09:52:37</time>
      </trkpt>
      <trkpt lat="41.2266" lon="1.07509">
        <ele>454</ele>
        <time>2020-08-22 09:52:38</time>
      </trkpt>
      <trkpt lat="41.22663" lon="1.07512">
        <ele>454</ele>
        <time>2020-08-22 09:52:39</time>
      </trkpt>
      <trkpt lat="41.22666" lon="1.07515">
        <ele>454.2</ele>
        <time>2020-08-22 09:52:40</time>
      </trkpt>
      <trkpt lat="41.22668" lon="1.07519">
        <ele>454.2</ele>
        <time>2020-08-22 09:52:41</time>
      </trkpt>
      <trkpt lat="41.22668" lon="1.07521">
        <ele>454.4</ele>
        <time>2020-08-22 09:52:42</time>
      </trkpt>
      <trkpt lat="41.22668" lon="1.07525">
        <ele>454.4</ele>
        <time>2020-08-22 09:52:43</time>
      </trkpt>
      <trkpt lat="41.22667" lon="1.07528">
        <ele>454.4</ele>
        <time>2020-08-22 09:52:44</time>
      </trkpt>
      <trkpt lat="41.22667" lon="1.07532">
        <ele>454.4</ele>
        <time>2020-08-22 09:52:45</time>
      </trkpt>
      <trkpt lat="41.22667" lon="1.07537">
        <ele>454.4</ele>
        <time>2020-08-22 09:52:46</time>
      </trkpt>
      <trkpt lat="41.22668" lon="1.07541">
        <ele>454.4</ele>
        <time>2020-08-22 09:52:47</time>
      </trkpt>
      <trkpt lat="41.22668" lon="1.07546">
        <ele>454.4</ele>
        <time>2020-08-22 09:52:48</time>
      </trkpt>
      <trkpt lat="41.2267" lon="1.07566">
        <ele>454.2</ele>
        <time>2020-08-22 09:52:52</time>
      </trkpt>
      <trkpt lat="41.22672" lon="1.07572">
        <ele>454.2</ele>
        <time>2020-08-22 09:52:53</time>
      </trkpt>
      <trkpt lat="41.22673" lon="1.07576">
        <ele>454</ele>
        <time>2020-08-22 09:52:54</time>
      </trkpt>
      <trkpt lat="41.2268" lon="1.0759">
        <ele>453.8</ele>
        <time>2020-08-22 09:52:57</time>
      </trkpt>
      <trkpt lat="41.22682" lon="1.07594">
        <ele>453.8</ele>
        <time>2020-08-22 09:52:58</time>
      </trkpt>
      <trkpt lat="41.22686" lon="1.07603">
        <ele>453.6</ele>
        <time>2020-08-22 09:53:00</time>
      </trkpt>
      <trkpt lat="41.22692" lon="1.07616">
        <ele>453.6</ele>
        <time>2020-08-22 09:53:03</time>
      </trkpt>
      <trkpt lat="41.22694" lon="1.07621">
        <ele>453.6</ele>
        <time>2020-08-22 09:53:04</time>
      </trkpt>
      <trkpt lat="41.22704" lon="1.07647">
        <ele>453.2</ele>
        <time>2020-08-22 09:53:09</time>
      </trkpt>
      <trkpt lat="41.22706" lon="1.07654">
        <ele>453.2</ele>
        <time>2020-08-22 09:53:10</time>
      </trkpt>
      <trkpt lat="41.2271" lon="1.07681">
        <ele>452.8</ele>
        <time>2020-08-22 09:53:14</time>
      </trkpt>
      <trkpt lat="41.22711" lon="1.07689">
        <ele>452.6</ele>
        <time>2020-08-22 09:53:15</time>
      </trkpt>
      <trkpt lat="41.22715" lon="1.07704">
        <ele>452.6</ele>
        <time>2020-08-22 09:53:17</time>
      </trkpt>
      <trkpt lat="41.22722" lon="1.07725">
        <ele>452.2</ele>
        <time>2020-08-22 09:53:20</time>
      </trkpt>
      <trkpt lat="41.22722" lon="1.07733">
        <ele>452.2</ele>
        <time>2020-08-22 09:53:21</time>
      </trkpt>
      <trkpt lat="41.22722" lon="1.0774">
        <ele>452.2</ele>
        <time>2020-08-22 09:53:22</time>
      </trkpt>
      <trkpt lat="41.22722" lon="1.07755">
        <ele>452</ele>
        <time>2020-08-22 09:53:24</time>
      </trkpt>
      <trkpt lat="41.22722" lon="1.07772">
        <ele>451.8</ele>
        <time>2020-08-22 09:53:26</time>
      </trkpt>
      <trkpt lat="41.22726" lon="1.07785">
        <ele>451.6</ele>
        <time>2020-08-22 09:53:27</time>
      </trkpt>
      <trkpt lat="41.22731" lon="1.07796">
        <ele>451.4</ele>
        <time>2020-08-22 09:53:28</time>
      </trkpt>
      <trkpt lat="41.22742" lon="1.0782">
        <ele>450.8</ele>
        <time>2020-08-22 09:53:30</time>
      </trkpt>
      <trkpt lat="41.22752" lon="1.0784">
        <ele>449.6</ele>
        <time>2020-08-22 09:53:32</time>
      </trkpt>
      <trkpt lat="41.22756" lon="1.0785">
        <ele>449</ele>
        <time>2020-08-22 09:53:33</time>
      </trkpt>
      <trkpt lat="41.2276" lon="1.0786">
        <ele>447.8</ele>
        <time>2020-08-22 09:53:34</time>
      </trkpt>
      <trkpt lat="41.22763" lon="1.0787">
        <ele>446</ele>
        <time>2020-08-22 09:53:35</time>
      </trkpt>
      <trkpt lat="41.22767" lon="1.07877">
        <ele>445</ele>
        <time>2020-08-22 09:53:36</time>
      </trkpt>
      <trkpt lat="41.22772" lon="1.07881">
        <ele>444</ele>
        <time>2020-08-22 09:53:37</time>
      </trkpt>
      <trkpt lat="41.22775" lon="1.07885">
        <ele>443</ele>
        <time>2020-08-22 09:53:38</time>
      </trkpt>
      <trkpt lat="41.22778" lon="1.07887">
        <ele>441.8</ele>
        <time>2020-08-22 09:53:39</time>
      </trkpt>
      <trkpt lat="41.2278" lon="1.07889">
        <ele>441.6</ele>
        <time>2020-08-22 09:53:40</time>
      </trkpt>
      <trkpt lat="41.22782" lon="1.07893">
        <ele>441.2</ele>
        <time>2020-08-22 09:53:41</time>
      </trkpt>
      <trkpt lat="41.22784" lon="1.07896">
        <ele>441.2</ele>
        <time>2020-08-22 09:53:42</time>
      </trkpt>
      <trkpt lat="41.22785" lon="1.07898">
        <ele>441.2</ele>
        <time>2020-08-22 09:53:43</time>
      </trkpt>
      <trkpt lat="41.22788" lon="1.079">
        <ele>441.2</ele>
        <time>2020-08-22 09:53:44</time>
      </trkpt>
      <trkpt lat="41.22789" lon="1.07901">
        <ele>441.2</ele>
        <time>2020-08-22 09:53:45</time>
      </trkpt>
      <trkpt lat="41.22791" lon="1.07903">
        <ele>441.2</ele>
        <time>2020-08-22 09:53:46</time>
      </trkpt>
      <trkpt lat="41.22792" lon="1.07904">
        <ele>441.2</ele>
        <time>2020-08-22 09:53:47</time>
      </trkpt>
      <trkpt lat="41.22793" lon="1.07905">
        <ele>441.8</ele>
        <time>2020-08-22 09:53:48</time>
      </trkpt>
      <trkpt lat="41.22793" lon="1.07905">
        <ele>442</ele>
        <time>2020-08-22 09:53:49</time>
      </trkpt>
      <trkpt lat="41.22794" lon="1.07907">
        <ele>442.6</ele>
        <time>2020-08-22 09:53:50</time>
      </trkpt>
      <trkpt lat="41.22795" lon="1.07908">
        <ele>442.6</ele>
        <time>2020-08-22 09:53:51</time>
      </trkpt>
      <trkpt lat="41.22797" lon="1.0791">
        <ele>443.2</ele>
        <time>2020-08-22 09:53:52</time>
      </trkpt>
      <trkpt lat="41.22799" lon="1.07912">
        <ele>443.6</ele>
        <time>2020-08-22 09:53:53</time>
      </trkpt>
      <trkpt lat="41.22801" lon="1.07914">
        <ele>443.6</ele>
        <time>2020-08-22 09:53:54</time>
      </trkpt>
      <trkpt lat="41.22803" lon="1.07916">
        <ele>444</ele>
        <time>2020-08-22 09:53:55</time>
      </trkpt>
      <trkpt lat="41.22805" lon="1.07919">
        <ele>444</ele>
        <time>2020-08-22 09:53:56</time>
      </trkpt>
      <trkpt lat="41.22806" lon="1.07921">
        <ele>444.4</ele>
        <time>2020-08-22 09:53:57</time>
      </trkpt>
      <trkpt lat="41.22808" lon="1.07923">
        <ele>444.6</ele>
        <time>2020-08-22 09:53:58</time>
      </trkpt>
      <trkpt lat="41.22811" lon="1.07925">
        <ele>444.8</ele>
        <time>2020-08-22 09:53:59</time>
      </trkpt>
      <trkpt lat="41.22813" lon="1.07926">
        <ele>445.4</ele>
        <time>2020-08-22 09:54:00</time>
      </trkpt>
      <trkpt lat="41.22814" lon="1.07928">
        <ele>445.8</ele>
        <time>2020-08-22 09:54:01</time>
      </trkpt>
      <trkpt lat="41.22816" lon="1.07928">
        <ele>446.4</ele>
        <time>2020-08-22 09:54:02</time>
      </trkpt>
      <trkpt lat="41.22819" lon="1.07928">
        <ele>446.6</ele>
        <time>2020-08-22 09:54:03</time>
      </trkpt>
      <trkpt lat="41.2282" lon="1.07929">
        <ele>447</ele>
        <time>2020-08-22 09:54:04</time>
      </trkpt>
      <trkpt lat="41.22822" lon="1.0793">
        <ele>447.4</ele>
        <time>2020-08-22 09:54:05</time>
      </trkpt>
      <trkpt lat="41.22824" lon="1.07931">
        <ele>447.8</ele>
        <time>2020-08-22 09:54:06</time>
      </trkpt>
      <trkpt lat="41.22826" lon="1.07933">
        <ele>448</ele>
        <time>2020-08-22 09:54:07</time>
      </trkpt>
      <trkpt lat="41.22827" lon="1.07935">
        <ele>448.4</ele>
        <time>2020-08-22 09:54:08</time>
      </trkpt>
      <trkpt lat="41.22829" lon="1.07936">
        <ele>449</ele>
        <time>2020-08-22 09:54:09</time>
      </trkpt>
      <trkpt lat="41.22831" lon="1.07938">
        <ele>449.2</ele>
        <time>2020-08-22 09:54:10</time>
      </trkpt>
      <trkpt lat="41.22833" lon="1.07939">
        <ele>449.8</ele>
        <time>2020-08-22 09:54:11</time>
      </trkpt>
      <trkpt lat="41.22835" lon="1.0794">
        <ele>450.2</ele>
        <time>2020-08-22 09:54:12</time>
      </trkpt>
      <trkpt lat="41.22836" lon="1.07941">
        <ele>450.4</ele>
        <time>2020-08-22 09:54:13</time>
      </trkpt>
      <trkpt lat="41.22838" lon="1.07942">
        <ele>450.6</ele>
        <time>2020-08-22 09:54:14</time>
      </trkpt>
      <trkpt lat="41.2284" lon="1.07944">
        <ele>450.8</ele>
        <time>2020-08-22 09:54:15</time>
      </trkpt>
      <trkpt lat="41.22842" lon="1.07945">
        <ele>451</ele>
        <time>2020-08-22 09:54:16</time>
      </trkpt>
      <trkpt lat="41.22844" lon="1.07946">
        <ele>451.4</ele>
        <time>2020-08-22 09:54:17</time>
      </trkpt>
      <trkpt lat="41.22846" lon="1.07947">
        <ele>451.8</ele>
        <time>2020-08-22 09:54:18</time>
      </trkpt>
      <trkpt lat="41.22847" lon="1.07947">
        <ele>452</ele>
        <time>2020-08-22 09:54:19</time>
      </trkpt>
      <trkpt lat="41.22849" lon="1.07949">
        <ele>452.4</ele>
        <time>2020-08-22 09:54:20</time>
      </trkpt>
      <trkpt lat="41.22851" lon="1.0795">
        <ele>452.6</ele>
        <time>2020-08-22 09:54:21</time>
      </trkpt>
      <trkpt lat="41.22853" lon="1.0795">
        <ele>453</ele>
        <time>2020-08-22 09:54:22</time>
      </trkpt>
      <trkpt lat="41.22855" lon="1.07951">
        <ele>453</ele>
        <time>2020-08-22 09:54:23</time>
      </trkpt>
      <trkpt lat="41.22856" lon="1.07952">
        <ele>453.4</ele>
        <time>2020-08-22 09:54:24</time>
      </trkpt>
      <trkpt lat="41.22858" lon="1.07953">
        <ele>453.6</ele>
        <time>2020-08-22 09:54:25</time>
      </trkpt>
      <trkpt lat="41.22859" lon="1.07954">
        <ele>453.8</ele>
        <time>2020-08-22 09:54:26</time>
      </trkpt>
      <trkpt lat="41.2286" lon="1.07955">
        <ele>454.4</ele>
        <time>2020-08-22 09:54:27</time>
      </trkpt>
      <trkpt lat="41.22862" lon="1.07956">
        <ele>454.4</ele>
        <time>2020-08-22 09:54:28</time>
      </trkpt>
      <trkpt lat="41.22864" lon="1.07956">
        <ele>454.8</ele>
        <time>2020-08-22 09:54:29</time>
      </trkpt>
      <trkpt lat="41.22865" lon="1.07956">
        <ele>454.8</ele>
        <time>2020-08-22 09:54:30</time>
      </trkpt>
      <trkpt lat="41.22867" lon="1.07955">
        <ele>455</ele>
        <time>2020-08-22 09:54:31</time>
      </trkpt>
      <trkpt lat="41.22868" lon="1.07954">
        <ele>455</ele>
        <time>2020-08-22 09:54:32</time>
      </trkpt>
      <trkpt lat="41.22869" lon="1.07952">
        <ele>455.2</ele>
        <time>2020-08-22 09:54:33</time>
      </trkpt>
      <trkpt lat="41.2287" lon="1.07949">
        <ele>455.4</ele>
        <time>2020-08-22 09:54:34</time>
      </trkpt>
      <trkpt lat="41.2287" lon="1.07947">
        <ele>455.4</ele>
        <time>2020-08-22 09:54:35</time>
      </trkpt>
      <trkpt lat="41.22871" lon="1.07945">
        <ele>455.6</ele>
        <time>2020-08-22 09:54:36</time>
      </trkpt>
      <trkpt lat="41.22871" lon="1.07943">
        <ele>455.6</ele>
        <time>2020-08-22 09:54:37</time>
      </trkpt>
      <trkpt lat="41.22871" lon="1.07941">
        <ele>456</ele>
        <time>2020-08-22 09:54:38</time>
      </trkpt>
      <trkpt lat="41.22872" lon="1.07939">
        <ele>456</ele>
        <time>2020-08-22 09:54:39</time>
      </trkpt>
      <trkpt lat="41.22872" lon="1.07938">
        <ele>456.2</ele>
        <time>2020-08-22 09:54:40</time>
      </trkpt>
      <trkpt lat="41.22872" lon="1.07936">
        <ele>456.4</ele>
        <time>2020-08-22 09:54:41</time>
      </trkpt>
      <trkpt lat="41.22873" lon="1.07933">
        <ele>456.6</ele>
        <time>2020-08-22 09:54:42</time>
      </trkpt>
      <trkpt lat="41.22873" lon="1.07931">
        <ele>456.8</ele>
        <time>2020-08-22 09:54:43</time>
      </trkpt>
      <trkpt lat="41.22873" lon="1.07929">
        <ele>457</ele>
        <time>2020-08-22 09:54:44</time>
      </trkpt>
      <trkpt lat="41.22874" lon="1.07927">
        <ele>457.2</ele>
        <time>2020-08-22 09:54:45</time>
      </trkpt>
      <trkpt lat="41.22875" lon="1.07926">
        <ele>457.2</ele>
        <time>2020-08-22 09:54:46</time>
      </trkpt>
      <trkpt lat="41.22875" lon="1.07924">
        <ele>457.4</ele>
        <time>2020-08-22 09:54:47</time>
      </trkpt>
      <trkpt lat="41.22876" lon="1.07922">
        <ele>457.4</ele>
        <time>2020-08-22 09:54:48</time>
      </trkpt>
      <trkpt lat="41.22877" lon="1.0792">
        <ele>457.6</ele>
        <time>2020-08-22 09:54:49</time>
      </trkpt>
      <trkpt lat="41.22878" lon="1.07917">
        <ele>457.6</ele>
        <time>2020-08-22 09:54:50</time>
      </trkpt>
      <trkpt lat="41.22879" lon="1.07915">
        <ele>458</ele>
        <time>2020-08-22 09:54:51</time>
      </trkpt>
      <trkpt lat="41.2288" lon="1.07913">
        <ele>458.4</ele>
        <time>2020-08-22 09:54:52</time>
      </trkpt>
      <trkpt lat="41.22882" lon="1.07911">
        <ele>458.6</ele>
        <time>2020-08-22 09:54:53</time>
      </trkpt>
      <trkpt lat="41.22884" lon="1.07909">
        <ele>459</ele>
        <time>2020-08-22 09:54:54</time>
      </trkpt>
      <trkpt lat="41.22885" lon="1.07906">
        <ele>459.2</ele>
        <time>2020-08-22 09:54:55</time>
      </trkpt>
      <trkpt lat="41.22887" lon="1.07903">
        <ele>459.6</ele>
        <time>2020-08-22 09:54:56</time>
      </trkpt>
      <trkpt lat="41.22888" lon="1.07901">
        <ele>459.6</ele>
        <time>2020-08-22 09:54:57</time>
      </trkpt>
      <trkpt lat="41.22888" lon="1.07899">
        <ele>459.8</ele>
        <time>2020-08-22 09:54:58</time>
      </trkpt>
      <trkpt lat="41.22889" lon="1.07896">
        <ele>459.8</ele>
        <time>2020-08-22 09:54:59</time>
      </trkpt>
      <trkpt lat="41.22891" lon="1.07894">
        <ele>459.8</ele>
        <time>2020-08-22 09:55:00</time>
      </trkpt>
      <trkpt lat="41.22891" lon="1.07892">
        <ele>460</ele>
        <time>2020-08-22 09:55:01</time>
      </trkpt>
      <trkpt lat="41.22891" lon="1.0789">
        <ele>460</ele>
        <time>2020-08-22 09:55:02</time>
      </trkpt>
      <trkpt lat="41.22892" lon="1.07888">
        <ele>460.2</ele>
        <time>2020-08-22 09:55:03</time>
      </trkpt>
      <trkpt lat="41.22893" lon="1.07885">
        <ele>460.2</ele>
        <time>2020-08-22 09:55:04</time>
      </trkpt>
      <trkpt lat="41.22894" lon="1.07883">
        <ele>460.4</ele>
        <time>2020-08-22 09:55:05</time>
      </trkpt>
      <trkpt lat="41.22895" lon="1.07881">
        <ele>460.4</ele>
        <time>2020-08-22 09:55:06</time>
      </trkpt>
      <trkpt lat="41.22897" lon="1.07878">
        <ele>461</ele>
        <time>2020-08-22 09:55:07</time>
      </trkpt>
      <trkpt lat="41.22898" lon="1.07875">
        <ele>461.4</ele>
        <time>2020-08-22 09:55:08</time>
      </trkpt>
      <trkpt lat="41.22899" lon="1.07873">
        <ele>461.8</ele>
        <time>2020-08-22 09:55:09</time>
      </trkpt>
      <trkpt lat="41.22901" lon="1.07871">
        <ele>462.2</ele>
        <time>2020-08-22 09:55:10</time>
      </trkpt>
      <trkpt lat="41.22903" lon="1.07869">
        <ele>462.4</ele>
        <time>2020-08-22 09:55:11</time>
      </trkpt>
      <trkpt lat="41.22906" lon="1.07867">
        <ele>462.6</ele>
        <time>2020-08-22 09:55:12</time>
      </trkpt>
      <trkpt lat="41.22907" lon="1.07865">
        <ele>462.8</ele>
        <time>2020-08-22 09:55:13</time>
      </trkpt>
      <trkpt lat="41.22908" lon="1.07864">
        <ele>463.2</ele>
        <time>2020-08-22 09:55:14</time>
      </trkpt>
      <trkpt lat="41.22909" lon="1.07862">
        <ele>463.4</ele>
        <time>2020-08-22 09:55:15</time>
      </trkpt>
      <trkpt lat="41.2291" lon="1.0786">
        <ele>464</ele>
        <time>2020-08-22 09:55:16</time>
      </trkpt>
      <trkpt lat="41.22911" lon="1.07858">
        <ele>464.4</ele>
        <time>2020-08-22 09:55:17</time>
      </trkpt>
      <trkpt lat="41.22911" lon="1.07857">
        <ele>464.4</ele>
        <time>2020-08-22 09:55:18</time>
      </trkpt>
      <trkpt lat="41.22913" lon="1.07855">
        <ele>464.8</ele>
        <time>2020-08-22 09:55:19</time>
      </trkpt>
      <trkpt lat="41.22914" lon="1.07853">
        <ele>465</ele>
        <time>2020-08-22 09:55:20</time>
      </trkpt>
      <trkpt lat="41.22915" lon="1.07852">
        <ele>465.2</ele>
        <time>2020-08-22 09:55:21</time>
      </trkpt>
      <trkpt lat="41.22916" lon="1.0785">
        <ele>465.4</ele>
        <time>2020-08-22 09:55:22</time>
      </trkpt>
      <trkpt lat="41.22916" lon="1.07848">
        <ele>465.8</ele>
        <time>2020-08-22 09:55:23</time>
      </trkpt>
      <trkpt lat="41.22916" lon="1.07846">
        <ele>465.8</ele>
        <time>2020-08-22 09:55:24</time>
      </trkpt>
      <trkpt lat="41.22917" lon="1.07843">
        <ele>466</ele>
        <time>2020-08-22 09:55:25</time>
      </trkpt>
      <trkpt lat="41.22919" lon="1.07841">
        <ele>466.4</ele>
        <time>2020-08-22 09:55:26</time>
      </trkpt>
      <trkpt lat="41.2292" lon="1.0784">
        <ele>466.8</ele>
        <time>2020-08-22 09:55:27</time>
      </trkpt>
      <trkpt lat="41.22921" lon="1.07839">
        <ele>467.4</ele>
        <time>2020-08-22 09:55:28</time>
      </trkpt>
      <trkpt lat="41.22922" lon="1.07837">
        <ele>467.8</ele>
        <time>2020-08-22 09:55:29</time>
      </trkpt>
      <trkpt lat="41.22923" lon="1.07835">
        <ele>468.4</ele>
        <time>2020-08-22 09:55:30</time>
      </trkpt>
      <trkpt lat="41.22924" lon="1.07834">
        <ele>468.6</ele>
        <time>2020-08-22 09:55:31</time>
      </trkpt>
      <trkpt lat="41.22925" lon="1.07832">
        <ele>468.8</ele>
        <time>2020-08-22 09:55:32</time>
      </trkpt>
      <trkpt lat="41.22926" lon="1.0783">
        <ele>469</ele>
        <time>2020-08-22 09:55:33</time>
      </trkpt>
      <trkpt lat="41.22927" lon="1.07828">
        <ele>469.2</ele>
        <time>2020-08-22 09:55:34</time>
      </trkpt>
      <trkpt lat="41.22928" lon="1.07825">
        <ele>469.4</ele>
        <time>2020-08-22 09:55:35</time>
      </trkpt>
      <trkpt lat="41.22928" lon="1.07823">
        <ele>469.4</ele>
        <time>2020-08-22 09:55:36</time>
      </trkpt>
      <trkpt lat="41.22928" lon="1.07822">
        <ele>469.6</ele>
        <time>2020-08-22 09:55:37</time>
      </trkpt>
      <trkpt lat="41.22928" lon="1.07821">
        <ele>469.8</ele>
        <time>2020-08-22 09:55:38</time>
      </trkpt>
      <trkpt lat="41.22929" lon="1.07818">
        <ele>470</ele>
        <time>2020-08-22 09:55:39</time>
      </trkpt>
      <trkpt lat="41.22929" lon="1.07816">
        <ele>470</ele>
        <time>2020-08-22 09:55:40</time>
      </trkpt>
      <trkpt lat="41.22929" lon="1.07814">
        <ele>470.6</ele>
        <time>2020-08-22 09:55:41</time>
      </trkpt>
      <trkpt lat="41.22929" lon="1.07812">
        <ele>471.2</ele>
        <time>2020-08-22 09:55:42</time>
      </trkpt>
      <trkpt lat="41.22929" lon="1.07811">
        <ele>471.4</ele>
        <time>2020-08-22 09:55:43</time>
      </trkpt>
      <trkpt lat="41.22929" lon="1.0781">
        <ele>471.6</ele>
        <time>2020-08-22 09:55:44</time>
      </trkpt>
      <trkpt lat="41.22929" lon="1.07808">
        <ele>471.8</ele>
        <time>2020-08-22 09:55:45</time>
      </trkpt>
      <trkpt lat="41.22929" lon="1.07805">
        <ele>472.2</ele>
        <time>2020-08-22 09:55:46</time>
      </trkpt>
      <trkpt lat="41.22929" lon="1.07804">
        <ele>472.6</ele>
        <time>2020-08-22 09:55:47</time>
      </trkpt>
      <trkpt lat="41.22928" lon="1.07802">
        <ele>472.6</ele>
        <time>2020-08-22 09:55:48</time>
      </trkpt>
      <trkpt lat="41.22927" lon="1.07801">
        <ele>472.8</ele>
        <time>2020-08-22 09:55:49</time>
      </trkpt>
      <trkpt lat="41.22926" lon="1.07799">
        <ele>473.2</ele>
        <time>2020-08-22 09:55:50</time>
      </trkpt>
      <trkpt lat="41.22925" lon="1.07798">
        <ele>473.4</ele>
        <time>2020-08-22 09:55:51</time>
      </trkpt>
      <trkpt lat="41.22923" lon="1.07797">
        <ele>473.6</ele>
        <time>2020-08-22 09:55:52</time>
      </trkpt>
      <trkpt lat="41.22922" lon="1.07796">
        <ele>474</ele>
        <time>2020-08-22 09:55:53</time>
      </trkpt>
      <trkpt lat="41.22921" lon="1.07794">
        <ele>474.2</ele>
        <time>2020-08-22 09:55:54</time>
      </trkpt>
      <trkpt lat="41.2292" lon="1.07793">
        <ele>474.6</ele>
        <time>2020-08-22 09:55:55</time>
      </trkpt>
      <trkpt lat="41.22919" lon="1.07792">
        <ele>474.8</ele>
        <time>2020-08-22 09:55:56</time>
      </trkpt>
      <trkpt lat="41.22918" lon="1.07791">
        <ele>475</ele>
        <time>2020-08-22 09:55:57</time>
      </trkpt>
      <trkpt lat="41.22917" lon="1.07789">
        <ele>475</ele>
        <time>2020-08-22 09:55:58</time>
      </trkpt>
      <trkpt lat="41.22916" lon="1.07788">
        <ele>475.4</ele>
        <time>2020-08-22 09:55:59</time>
      </trkpt>
      <trkpt lat="41.22915" lon="1.07786">
        <ele>476</ele>
        <time>2020-08-22 09:56:00</time>
      </trkpt>
      <trkpt lat="41.22914" lon="1.07785">
        <ele>476.2</ele>
        <time>2020-08-22 09:56:01</time>
      </trkpt>
      <trkpt lat="41.22913" lon="1.07784">
        <ele>476.6</ele>
        <time>2020-08-22 09:56:02</time>
      </trkpt>
      <trkpt lat="41.22912" lon="1.07783">
        <ele>476.8</ele>
        <time>2020-08-22 09:56:03</time>
      </trkpt>
      <trkpt lat="41.2291" lon="1.07782">
        <ele>477</ele>
        <time>2020-08-22 09:56:04</time>
      </trkpt>
      <trkpt lat="41.22909" lon="1.07782">
        <ele>477.2</ele>
        <time>2020-08-22 09:56:05</time>
      </trkpt>
      <trkpt lat="41.22908" lon="1.07781">
        <ele>477.6</ele>
        <time>2020-08-22 09:56:06</time>
      </trkpt>
      <trkpt lat="41.22907" lon="1.07781">
        <ele>478</ele>
        <time>2020-08-22 09:56:07</time>
      </trkpt>
      <trkpt lat="41.22905" lon="1.0778">
        <ele>478.4</ele>
        <time>2020-08-22 09:56:08</time>
      </trkpt>
      <trkpt lat="41.22904" lon="1.07779">
        <ele>478.8</ele>
        <time>2020-08-22 09:56:09</time>
      </trkpt>
      <trkpt lat="41.22903" lon="1.07778">
        <ele>479</ele>
        <time>2020-08-22 09:56:10</time>
      </trkpt>
      <trkpt lat="41.22902" lon="1.07778">
        <ele>479.4</ele>
        <time>2020-08-22 09:56:11</time>
      </trkpt>
      <trkpt lat="41.229" lon="1.07777">
        <ele>479.4</ele>
        <time>2020-08-22 09:56:12</time>
      </trkpt>
      <trkpt lat="41.22899" lon="1.07776">
        <ele>479.8</ele>
        <time>2020-08-22 09:56:13</time>
      </trkpt>
      <trkpt lat="41.22897" lon="1.07775">
        <ele>480</ele>
        <time>2020-08-22 09:56:14</time>
      </trkpt>
      <trkpt lat="41.22896" lon="1.07774">
        <ele>480.2</ele>
        <time>2020-08-22 09:56:15</time>
      </trkpt>
      <trkpt lat="41.22895" lon="1.07773">
        <ele>480.6</ele>
        <time>2020-08-22 09:56:16</time>
      </trkpt>
      <trkpt lat="41.22894" lon="1.07773">
        <ele>480.8</ele>
        <time>2020-08-22 09:56:17</time>
      </trkpt>
      <trkpt lat="41.22893" lon="1.07772">
        <ele>481.2</ele>
        <time>2020-08-22 09:56:18</time>
      </trkpt>
      <trkpt lat="41.22891" lon="1.07771">
        <ele>481.4</ele>
        <time>2020-08-22 09:56:19</time>
      </trkpt>
      <trkpt lat="41.2289" lon="1.0777">
        <ele>482</ele>
        <time>2020-08-22 09:56:20</time>
      </trkpt>
      <trkpt lat="41.22889" lon="1.07768">
        <ele>482.2</ele>
        <time>2020-08-22 09:56:21</time>
      </trkpt>
      <trkpt lat="41.22888" lon="1.07767">
        <ele>482.4</ele>
        <time>2020-08-22 09:56:22</time>
      </trkpt>
      <trkpt lat="41.22888" lon="1.07765">
        <ele>482.6</ele>
        <time>2020-08-22 09:56:23</time>
      </trkpt>
      <trkpt lat="41.22887" lon="1.07763">
        <ele>483</ele>
        <time>2020-08-22 09:56:24</time>
      </trkpt>
      <trkpt lat="41.22886" lon="1.07761">
        <ele>483.2</ele>
        <time>2020-08-22 09:56:25</time>
      </trkpt>
      <trkpt lat="41.22886" lon="1.07759">
        <ele>483.4</ele>
        <time>2020-08-22 09:56:26</time>
      </trkpt>
      <trkpt lat="41.22885" lon="1.07757">
        <ele>483.4</ele>
        <time>2020-08-22 09:56:27</time>
      </trkpt>
      <trkpt lat="41.22884" lon="1.07755">
        <ele>483.6</ele>
        <time>2020-08-22 09:56:28</time>
      </trkpt>
      <trkpt lat="41.22883" lon="1.07753">
        <ele>483.8</ele>
        <time>2020-08-22 09:56:29</time>
      </trkpt>
      <trkpt lat="41.22882" lon="1.0775">
        <ele>483.8</ele>
        <time>2020-08-22 09:56:30</time>
      </trkpt>
      <trkpt lat="41.22881" lon="1.07747">
        <ele>483.8</ele>
        <time>2020-08-22 09:56:31</time>
      </trkpt>
      <trkpt lat="41.2288" lon="1.07745">
        <ele>483.8</ele>
        <time>2020-08-22 09:56:32</time>
      </trkpt>
      <trkpt lat="41.22879" lon="1.07742">
        <ele>484</ele>
        <time>2020-08-22 09:56:33</time>
      </trkpt>
      <trkpt lat="41.22877" lon="1.07738">
        <ele>484</ele>
        <time>2020-08-22 09:56:34</time>
      </trkpt>
      <trkpt lat="41.22876" lon="1.07734">
        <ele>484</ele>
        <time>2020-08-22 09:56:35</time>
      </trkpt>
      <trkpt lat="41.22874" lon="1.0773">
        <ele>484</ele>
        <time>2020-08-22 09:56:36</time>
      </trkpt>
      <trkpt lat="41.22872" lon="1.07727">
        <ele>484</ele>
        <time>2020-08-22 09:56:37</time>
      </trkpt>
      <trkpt lat="41.22868" lon="1.07721">
        <ele>484</ele>
        <time>2020-08-22 09:56:39</time>
      </trkpt>
      <trkpt lat="41.22867" lon="1.07717">
        <ele>484</ele>
        <time>2020-08-22 09:56:40</time>
      </trkpt>
      <trkpt lat="41.22866" lon="1.07714">
        <ele>483.8</ele>
        <time>2020-08-22 09:56:41</time>
      </trkpt>
      <trkpt lat="41.22865" lon="1.0771">
        <ele>483.8</ele>
        <time>2020-08-22 09:56:42</time>
      </trkpt>
      <trkpt lat="41.22864" lon="1.07706">
        <ele>484</ele>
        <time>2020-08-22 09:56:43</time>
      </trkpt>
      <trkpt lat="41.22863" lon="1.07702">
        <ele>484</ele>
        <time>2020-08-22 09:56:44</time>
      </trkpt>
      <trkpt lat="41.22862" lon="1.07698">
        <ele>484</ele>
        <time>2020-08-22 09:56:45</time>
      </trkpt>
      <trkpt lat="41.22861" lon="1.07695">
        <ele>484</ele>
        <time>2020-08-22 09:56:46</time>
      </trkpt>
      <trkpt lat="41.22861" lon="1.07692">
        <ele>484</ele>
        <time>2020-08-22 09:56:47</time>
      </trkpt>
      <trkpt lat="41.2286" lon="1.07689">
        <ele>484</ele>
        <time>2020-08-22 09:56:48</time>
      </trkpt>
      <trkpt lat="41.22859" lon="1.07686">
        <ele>484</ele>
        <time>2020-08-22 09:56:49</time>
      </trkpt>
      <trkpt lat="41.22857" lon="1.07682">
        <ele>484.2</ele>
        <time>2020-08-22 09:56:50</time>
      </trkpt>
      <trkpt lat="41.22855" lon="1.07678">
        <ele>484.2</ele>
        <time>2020-08-22 09:56:51</time>
      </trkpt>
      <trkpt lat="41.22854" lon="1.07674">
        <ele>484.4</ele>
        <time>2020-08-22 09:56:52</time>
      </trkpt>
      <trkpt lat="41.22853" lon="1.0767">
        <ele>484.6</ele>
        <time>2020-08-22 09:56:53</time>
      </trkpt>
      <trkpt lat="41.22852" lon="1.07666">
        <ele>484.8</ele>
        <time>2020-08-22 09:56:54</time>
      </trkpt>
      <trkpt lat="41.22852" lon="1.07663">
        <ele>484.8</ele>
        <time>2020-08-22 09:56:55</time>
      </trkpt>
      <trkpt lat="41.2285" lon="1.07659">
        <ele>485</ele>
        <time>2020-08-22 09:56:56</time>
      </trkpt>
      <trkpt lat="41.22849" lon="1.07656">
        <ele>485</ele>
        <time>2020-08-22 09:56:57</time>
      </trkpt>
      <trkpt lat="41.22848" lon="1.07654">
        <ele>485</ele>
        <time>2020-08-22 09:56:58</time>
      </trkpt>
      <trkpt lat="41.22847" lon="1.07652">
        <ele>485.4</ele>
        <time>2020-08-22 09:56:59</time>
      </trkpt>
      <trkpt lat="41.22845" lon="1.07649">
        <ele>485.8</ele>
        <time>2020-08-22 09:57:00</time>
      </trkpt>
      <trkpt lat="41.22843" lon="1.07645">
        <ele>486.6</ele>
        <time>2020-08-22 09:57:01</time>
      </trkpt>
      <trkpt lat="41.22842" lon="1.07642">
        <ele>486.8</ele>
        <time>2020-08-22 09:57:02</time>
      </trkpt>
      <trkpt lat="41.22841" lon="1.07639">
        <ele>487.2</ele>
        <time>2020-08-22 09:57:03</time>
      </trkpt>
      <trkpt lat="41.22841" lon="1.07635">
        <ele>487.4</ele>
        <time>2020-08-22 09:57:04</time>
      </trkpt>
      <trkpt lat="41.2284" lon="1.07632">
        <ele>487.8</ele>
        <time>2020-08-22 09:57:05</time>
      </trkpt>
      <trkpt lat="41.22838" lon="1.07629">
        <ele>488</ele>
        <time>2020-08-22 09:57:06</time>
      </trkpt>
      <trkpt lat="41.22837" lon="1.07626">
        <ele>488.4</ele>
        <time>2020-08-22 09:57:07</time>
      </trkpt>
      <trkpt lat="41.22836" lon="1.07622">
        <ele>488.6</ele>
        <time>2020-08-22 09:57:08</time>
      </trkpt>
      <trkpt lat="41.22836" lon="1.07619">
        <ele>488.6</ele>
        <time>2020-08-22 09:57:09</time>
      </trkpt>
      <trkpt lat="41.22836" lon="1.07615">
        <ele>488.8</ele>
        <time>2020-08-22 09:57:10</time>
      </trkpt>
      <trkpt lat="41.22837" lon="1.0761">
        <ele>489</ele>
        <time>2020-08-22 09:57:11</time>
      </trkpt>
      <trkpt lat="41.22838" lon="1.07608">
        <ele>489</ele>
        <time>2020-08-22 09:57:12</time>
      </trkpt>
      <trkpt lat="41.22838" lon="1.07604">
        <ele>489.2</ele>
        <time>2020-08-22 09:57:13</time>
      </trkpt>
      <trkpt lat="41.22838" lon="1.076">
        <ele>489.4</ele>
        <time>2020-08-22 09:57:14</time>
      </trkpt>
      <trkpt lat="41.22839" lon="1.07598">
        <ele>489.4</ele>
        <time>2020-08-22 09:57:15</time>
      </trkpt>
      <trkpt lat="41.2284" lon="1.07596">
        <ele>489.6</ele>
        <time>2020-08-22 09:57:16</time>
      </trkpt>
      <trkpt lat="41.2284" lon="1.07593">
        <ele>490.2</ele>
        <time>2020-08-22 09:57:17</time>
      </trkpt>
      <trkpt lat="41.2284" lon="1.0759">
        <ele>490.2</ele>
        <time>2020-08-22 09:57:18</time>
      </trkpt>
      <trkpt lat="41.2284" lon="1.07588">
        <ele>490.6</ele>
        <time>2020-08-22 09:57:19</time>
      </trkpt>
      <trkpt lat="41.22841" lon="1.07585">
        <ele>490.8</ele>
        <time>2020-08-22 09:57:20</time>
      </trkpt>
      <trkpt lat="41.22841" lon="1.07582">
        <ele>491.2</ele>
        <time>2020-08-22 09:57:21</time>
      </trkpt>
      <trkpt lat="41.22842" lon="1.07578">
        <ele>491.4</ele>
        <time>2020-08-22 09:57:22</time>
      </trkpt>
      <trkpt lat="41.22842" lon="1.07575">
        <ele>491.4</ele>
        <time>2020-08-22 09:57:23</time>
      </trkpt>
      <trkpt lat="41.22842" lon="1.07571">
        <ele>491.6</ele>
        <time>2020-08-22 09:57:24</time>
      </trkpt>
      <trkpt lat="41.22843" lon="1.07568">
        <ele>491.6</ele>
        <time>2020-08-22 09:57:25</time>
      </trkpt>
      <trkpt lat="41.22844" lon="1.07565">
        <ele>491.8</ele>
        <time>2020-08-22 09:57:26</time>
      </trkpt>
      <trkpt lat="41.22844" lon="1.07561">
        <ele>491.8</ele>
        <time>2020-08-22 09:57:27</time>
      </trkpt>
      <trkpt lat="41.22845" lon="1.07558">
        <ele>492</ele>
        <time>2020-08-22 09:57:28</time>
      </trkpt>
      <trkpt lat="41.22846" lon="1.07555">
        <ele>492</ele>
        <time>2020-08-22 09:57:29</time>
      </trkpt>
      <trkpt lat="41.22847" lon="1.07551">
        <ele>492.2</ele>
        <time>2020-08-22 09:57:30</time>
      </trkpt>
      <trkpt lat="41.22847" lon="1.07548">
        <ele>492.2</ele>
        <time>2020-08-22 09:57:31</time>
      </trkpt>
      <trkpt lat="41.22848" lon="1.07546">
        <ele>492.2</ele>
        <time>2020-08-22 09:57:32</time>
      </trkpt>
      <trkpt lat="41.2285" lon="1.07542">
        <ele>492.4</ele>
        <time>2020-08-22 09:57:33</time>
      </trkpt>
      <trkpt lat="41.22851" lon="1.0754">
        <ele>492.4</ele>
        <time>2020-08-22 09:57:34</time>
      </trkpt>
      <trkpt lat="41.22853" lon="1.07537">
        <ele>492.4</ele>
        <time>2020-08-22 09:57:35</time>
      </trkpt>
      <trkpt lat="41.22855" lon="1.07535">
        <ele>492.4</ele>
        <time>2020-08-22 09:57:36</time>
      </trkpt>
      <trkpt lat="41.22856" lon="1.07531">
        <ele>492.6</ele>
        <time>2020-08-22 09:57:37</time>
      </trkpt>
      <trkpt lat="41.22857" lon="1.07528">
        <ele>492.6</ele>
        <time>2020-08-22 09:57:38</time>
      </trkpt>
      <trkpt lat="41.22859" lon="1.07525">
        <ele>492.8</ele>
        <time>2020-08-22 09:57:39</time>
      </trkpt>
      <trkpt lat="41.2286" lon="1.07522">
        <ele>492.8</ele>
        <time>2020-08-22 09:57:40</time>
      </trkpt>
      <trkpt lat="41.22861" lon="1.07521">
        <ele>493.2</ele>
        <time>2020-08-22 09:57:41</time>
      </trkpt>
      <trkpt lat="41.22862" lon="1.07519">
        <ele>493.6</ele>
        <time>2020-08-22 09:57:42</time>
      </trkpt>
      <trkpt lat="41.22863" lon="1.07517">
        <ele>493.8</ele>
        <time>2020-08-22 09:57:43</time>
      </trkpt>
      <trkpt lat="41.22864" lon="1.07514">
        <ele>494</ele>
        <time>2020-08-22 09:57:44</time>
      </trkpt>
      <trkpt lat="41.22866" lon="1.07512">
        <ele>494.4</ele>
        <time>2020-08-22 09:57:45</time>
      </trkpt>
      <trkpt lat="41.22867" lon="1.07508">
        <ele>494.8</ele>
        <time>2020-08-22 09:57:46</time>
      </trkpt>
      <trkpt lat="41.22868" lon="1.07505">
        <ele>495.4</ele>
        <time>2020-08-22 09:57:47</time>
      </trkpt>
      <trkpt lat="41.2287" lon="1.07503">
        <ele>496</ele>
        <time>2020-08-22 09:57:48</time>
      </trkpt>
      <trkpt lat="41.2287" lon="1.075">
        <ele>496.2</ele>
        <time>2020-08-22 09:57:49</time>
      </trkpt>
      <trkpt lat="41.22871" lon="1.07498">
        <ele>496.6</ele>
        <time>2020-08-22 09:57:50</time>
      </trkpt>
      <trkpt lat="41.22872" lon="1.07496">
        <ele>496.8</ele>
        <time>2020-08-22 09:57:51</time>
      </trkpt>
      <trkpt lat="41.22874" lon="1.07494">
        <ele>497</ele>
        <time>2020-08-22 09:57:52</time>
      </trkpt>
      <trkpt lat="41.22875" lon="1.07493">
        <ele>497.2</ele>
        <time>2020-08-22 09:57:53</time>
      </trkpt>
      <trkpt lat="41.22877" lon="1.07491">
        <ele>497.4</ele>
        <time>2020-08-22 09:57:54</time>
      </trkpt>
      <trkpt lat="41.22878" lon="1.07489">
        <ele>497.6</ele>
        <time>2020-08-22 09:57:55</time>
      </trkpt>
      <trkpt lat="41.22879" lon="1.07487">
        <ele>497.8</ele>
        <time>2020-08-22 09:57:56</time>
      </trkpt>
      <trkpt lat="41.2288" lon="1.07484">
        <ele>498.6</ele>
        <time>2020-08-22 09:57:57</time>
      </trkpt>
      <trkpt lat="41.22882" lon="1.07482">
        <ele>499</ele>
        <time>2020-08-22 09:57:58</time>
      </trkpt>
      <trkpt lat="41.22884" lon="1.0748">
        <ele>499.2</ele>
        <time>2020-08-22 09:57:59</time>
      </trkpt>
      <trkpt lat="41.22885" lon="1.07479">
        <ele>499.6</ele>
        <time>2020-08-22 09:58:00</time>
      </trkpt>
      <trkpt lat="41.22887" lon="1.07477">
        <ele>499.8</ele>
        <time>2020-08-22 09:58:01</time>
      </trkpt>
      <trkpt lat="41.22888" lon="1.07474">
        <ele>500.2</ele>
        <time>2020-08-22 09:58:02</time>
      </trkpt>
      <trkpt lat="41.2289" lon="1.07472">
        <ele>500.6</ele>
        <time>2020-08-22 09:58:03</time>
      </trkpt>
      <trkpt lat="41.22891" lon="1.0747">
        <ele>501</ele>
        <time>2020-08-22 09:58:04</time>
      </trkpt>
      <trkpt lat="41.22892" lon="1.07469">
        <ele>501.2</ele>
        <time>2020-08-22 09:58:05</time>
      </trkpt>
      <trkpt lat="41.22893" lon="1.07467">
        <ele>501.6</ele>
        <time>2020-08-22 09:58:06</time>
      </trkpt>
      <trkpt lat="41.22895" lon="1.07466">
        <ele>502.2</ele>
        <time>2020-08-22 09:58:07</time>
      </trkpt>
      <trkpt lat="41.22896" lon="1.07464">
        <ele>502.4</ele>
        <time>2020-08-22 09:58:08</time>
      </trkpt>
      <trkpt lat="41.22897" lon="1.07463">
        <ele>503.2</ele>
        <time>2020-08-22 09:58:09</time>
      </trkpt>
      <trkpt lat="41.22898" lon="1.07462">
        <ele>503.4</ele>
        <time>2020-08-22 09:58:10</time>
      </trkpt>
      <trkpt lat="41.229" lon="1.0746">
        <ele>503.8</ele>
        <time>2020-08-22 09:58:11</time>
      </trkpt>
      <trkpt lat="41.22901" lon="1.07459">
        <ele>503.8</ele>
        <time>2020-08-22 09:58:12</time>
      </trkpt>
      <trkpt lat="41.22902" lon="1.07456">
        <ele>504</ele>
        <time>2020-08-22 09:58:13</time>
      </trkpt>
      <trkpt lat="41.22903" lon="1.07454">
        <ele>504.2</ele>
        <time>2020-08-22 09:58:14</time>
      </trkpt>
      <trkpt lat="41.22905" lon="1.07452">
        <ele>504.6</ele>
        <time>2020-08-22 09:58:15</time>
      </trkpt>
      <trkpt lat="41.22905" lon="1.0745">
        <ele>505</ele>
        <time>2020-08-22 09:58:16</time>
      </trkpt>
      <trkpt lat="41.22907" lon="1.07449">
        <ele>505.2</ele>
        <time>2020-08-22 09:58:17</time>
      </trkpt>
      <trkpt lat="41.22909" lon="1.07448">
        <ele>505.6</ele>
        <time>2020-08-22 09:58:18</time>
      </trkpt>
      <trkpt lat="41.2291" lon="1.07448">
        <ele>506</ele>
        <time>2020-08-22 09:58:19</time>
      </trkpt>
      <trkpt lat="41.22912" lon="1.07448">
        <ele>506.4</ele>
        <time>2020-08-22 09:58:20</time>
      </trkpt>
      <trkpt lat="41.22913" lon="1.07448">
        <ele>506.6</ele>
        <time>2020-08-22 09:58:21</time>
      </trkpt>
      <trkpt lat="41.22914" lon="1.07448">
        <ele>506.8</ele>
        <time>2020-08-22 09:58:22</time>
      </trkpt>
      <trkpt lat="41.22915" lon="1.07448">
        <ele>506.8</ele>
        <time>2020-08-22 09:58:23</time>
      </trkpt>
      <trkpt lat="41.22917" lon="1.07447">
        <ele>507.2</ele>
        <time>2020-08-22 09:58:24</time>
      </trkpt>
      <trkpt lat="41.22918" lon="1.07446">
        <ele>507.4</ele>
        <time>2020-08-22 09:58:25</time>
      </trkpt>
      <trkpt lat="41.22919" lon="1.07446">
        <ele>507.4</ele>
        <time>2020-08-22 09:58:26</time>
      </trkpt>
      <trkpt lat="41.2292" lon="1.07445">
        <ele>507.8</ele>
        <time>2020-08-22 09:58:27</time>
      </trkpt>
      <trkpt lat="41.22921" lon="1.07444">
        <ele>507.8</ele>
        <time>2020-08-22 09:58:28</time>
      </trkpt>
      <trkpt lat="41.22922" lon="1.07443">
        <ele>508.2</ele>
        <time>2020-08-22 09:58:29</time>
      </trkpt>
      <trkpt lat="41.22923" lon="1.07443">
        <ele>508.2</ele>
        <time>2020-08-22 09:58:30</time>
      </trkpt>
      <trkpt lat="41.22924" lon="1.07442">
        <ele>508.6</ele>
        <time>2020-08-22 09:58:31</time>
      </trkpt>
      <trkpt lat="41.22924" lon="1.07441">
        <ele>508.8</ele>
        <time>2020-08-22 09:58:32</time>
      </trkpt>
      <trkpt lat="41.22926" lon="1.0744">
        <ele>508.8</ele>
        <time>2020-08-22 09:58:33</time>
      </trkpt>
      <trkpt lat="41.22927" lon="1.07439">
        <ele>509</ele>
        <time>2020-08-22 09:58:34</time>
      </trkpt>
      <trkpt lat="41.22929" lon="1.07438">
        <ele>509</ele>
        <time>2020-08-22 09:58:35</time>
      </trkpt>
      <trkpt lat="41.22931" lon="1.07437">
        <ele>509.4</ele>
        <time>2020-08-22 09:58:36</time>
      </trkpt>
      <trkpt lat="41.22932" lon="1.07436">
        <ele>509.4</ele>
        <time>2020-08-22 09:58:37</time>
      </trkpt>
      <trkpt lat="41.22933" lon="1.07435">
        <ele>509.8</ele>
        <time>2020-08-22 09:58:38</time>
      </trkpt>
      <trkpt lat="41.22934" lon="1.07434">
        <ele>510</ele>
        <time>2020-08-22 09:58:39</time>
      </trkpt>
      <trkpt lat="41.22936" lon="1.07433">
        <ele>510.6</ele>
        <time>2020-08-22 09:58:40</time>
      </trkpt>
      <trkpt lat="41.22937" lon="1.07433">
        <ele>511</ele>
        <time>2020-08-22 09:58:41</time>
      </trkpt>
      <trkpt lat="41.22939" lon="1.07433">
        <ele>511.2</ele>
        <time>2020-08-22 09:58:42</time>
      </trkpt>
      <trkpt lat="41.2294" lon="1.07432">
        <ele>511.6</ele>
        <time>2020-08-22 09:58:43</time>
      </trkpt>
      <trkpt lat="41.22942" lon="1.07431">
        <ele>511.8</ele>
        <time>2020-08-22 09:58:44</time>
      </trkpt>
      <trkpt lat="41.22943" lon="1.0743">
        <ele>512.4</ele>
        <time>2020-08-22 09:58:45</time>
      </trkpt>
      <trkpt lat="41.22944" lon="1.07429">
        <ele>512.6</ele>
        <time>2020-08-22 09:58:46</time>
      </trkpt>
      <trkpt lat="41.22945" lon="1.07427">
        <ele>513</ele>
        <time>2020-08-22 09:58:47</time>
      </trkpt>
      <trkpt lat="41.22946" lon="1.07426">
        <ele>513</ele>
        <time>2020-08-22 09:58:48</time>
      </trkpt>
      <trkpt lat="41.22948" lon="1.07425">
        <ele>513.2</ele>
        <time>2020-08-22 09:58:49</time>
      </trkpt>
      <trkpt lat="41.2295" lon="1.07424">
        <ele>513.4</ele>
        <time>2020-08-22 09:58:50</time>
      </trkpt>
      <trkpt lat="41.22951" lon="1.07422">
        <ele>513.4</ele>
        <time>2020-08-22 09:58:51</time>
      </trkpt>
      <trkpt lat="41.22952" lon="1.0742">
        <ele>513.6</ele>
        <time>2020-08-22 09:58:52</time>
      </trkpt>
      <trkpt lat="41.22954" lon="1.07418">
        <ele>513.6</ele>
        <time>2020-08-22 09:58:53</time>
      </trkpt>
      <trkpt lat="41.22956" lon="1.07416">
        <ele>513.8</ele>
        <time>2020-08-22 09:58:54</time>
      </trkpt>
      <trkpt lat="41.22957" lon="1.07414">
        <ele>514</ele>
        <time>2020-08-22 09:58:55</time>
      </trkpt>
      <trkpt lat="41.22959" lon="1.07412">
        <ele>514.4</ele>
        <time>2020-08-22 09:58:56</time>
      </trkpt>
      <trkpt lat="41.22961" lon="1.0741">
        <ele>514.6</ele>
        <time>2020-08-22 09:58:57</time>
      </trkpt>
      <trkpt lat="41.22962" lon="1.07409">
        <ele>514.6</ele>
        <time>2020-08-22 09:58:58</time>
      </trkpt>
      <trkpt lat="41.22963" lon="1.07408">
        <ele>515</ele>
        <time>2020-08-22 09:58:59</time>
      </trkpt>
      <trkpt lat="41.22964" lon="1.07408">
        <ele>515</ele>
        <time>2020-08-22 09:59:00</time>
      </trkpt>
      <trkpt lat="41.22966" lon="1.07407">
        <ele>515.4</ele>
        <time>2020-08-22 09:59:01</time>
      </trkpt>
      <trkpt lat="41.22968" lon="1.07405">
        <ele>515.6</ele>
        <time>2020-08-22 09:59:02</time>
      </trkpt>
      <trkpt lat="41.2297" lon="1.07404">
        <ele>516.2</ele>
        <time>2020-08-22 09:59:03</time>
      </trkpt>
      <trkpt lat="41.2297" lon="1.07402">
        <ele>516.4</ele>
        <time>2020-08-22 09:59:04</time>
      </trkpt>
      <trkpt lat="41.22972" lon="1.074">
        <ele>516.6</ele>
        <time>2020-08-22 09:59:05</time>
      </trkpt>
      <trkpt lat="41.22972" lon="1.07398">
        <ele>517</ele>
        <time>2020-08-22 09:59:06</time>
      </trkpt>
      <trkpt lat="41.22972" lon="1.07396">
        <ele>517.2</ele>
        <time>2020-08-22 09:59:07</time>
      </trkpt>
      <trkpt lat="41.22972" lon="1.07394">
        <ele>517.4</ele>
        <time>2020-08-22 09:59:08</time>
      </trkpt>
      <trkpt lat="41.22972" lon="1.07392">
        <ele>517.4</ele>
        <time>2020-08-22 09:59:09</time>
      </trkpt>
      <trkpt lat="41.22972" lon="1.07389">
        <ele>517.6</ele>
        <time>2020-08-22 09:59:10</time>
      </trkpt>
      <trkpt lat="41.22971" lon="1.07387">
        <ele>517.6</ele>
        <time>2020-08-22 09:59:11</time>
      </trkpt>
      <trkpt lat="41.22971" lon="1.07384">
        <ele>517.8</ele>
        <time>2020-08-22 09:59:12</time>
      </trkpt>
      <trkpt lat="41.2297" lon="1.07381">
        <ele>517.8</ele>
        <time>2020-08-22 09:59:13</time>
      </trkpt>
      <trkpt lat="41.22969" lon="1.07378">
        <ele>518</ele>
        <time>2020-08-22 09:59:14</time>
      </trkpt>
      <trkpt lat="41.22969" lon="1.07376">
        <ele>518.2</ele>
        <time>2020-08-22 09:59:15</time>
      </trkpt>
      <trkpt lat="41.22969" lon="1.07372">
        <ele>518.2</ele>
        <time>2020-08-22 09:59:16</time>
      </trkpt>
      <trkpt lat="41.22969" lon="1.07369">
        <ele>518.2</ele>
        <time>2020-08-22 09:59:17</time>
      </trkpt>
      <trkpt lat="41.2297" lon="1.07365">
        <ele>518.4</ele>
        <time>2020-08-22 09:59:18</time>
      </trkpt>
      <trkpt lat="41.22971" lon="1.07361">
        <ele>518.4</ele>
        <time>2020-08-22 09:59:19</time>
      </trkpt>
      <trkpt lat="41.22974" lon="1.07354">
        <ele>518.4</ele>
        <time>2020-08-22 09:59:21</time>
      </trkpt>
      <trkpt lat="41.22976" lon="1.0735">
        <ele>518.4</ele>
        <time>2020-08-22 09:59:22</time>
      </trkpt>
      <trkpt lat="41.22979" lon="1.07347">
        <ele>518.4</ele>
        <time>2020-08-22 09:59:23</time>
      </trkpt>
      <trkpt lat="41.22982" lon="1.07344">
        <ele>518.4</ele>
        <time>2020-08-22 09:59:24</time>
      </trkpt>
      <trkpt lat="41.22995" lon="1.07328">
        <ele>518</ele>
        <time>2020-08-22 09:59:28</time>
      </trkpt>
      <trkpt lat="41.23001" lon="1.07318">
        <ele>517.6</ele>
        <time>2020-08-22 09:59:30</time>
      </trkpt>
      <trkpt lat="41.23014" lon="1.07303">
        <ele>517</ele>
        <time>2020-08-22 09:59:34</time>
      </trkpt>
      <trkpt lat="41.23019" lon="1.07301">
        <ele>516.8</ele>
        <time>2020-08-22 09:59:35</time>
      </trkpt>
      <trkpt lat="41.23022" lon="1.07301">
        <ele>516.6</ele>
        <time>2020-08-22 09:59:36</time>
      </trkpt>
      <trkpt lat="41.23026" lon="1.073">
        <ele>516.6</ele>
        <time>2020-08-22 09:59:37</time>
      </trkpt>
      <trkpt lat="41.2303" lon="1.07298">
        <ele>516.4</ele>
        <time>2020-08-22 09:59:38</time>
      </trkpt>
      <trkpt lat="41.23033" lon="1.07294">
        <ele>516.4</ele>
        <time>2020-08-22 09:59:39</time>
      </trkpt>
      <trkpt lat="41.23037" lon="1.07289">
        <ele>516.2</ele>
        <time>2020-08-22 09:59:40</time>
      </trkpt>
      <trkpt lat="41.23039" lon="1.07282">
        <ele>516.2</ele>
        <time>2020-08-22 09:59:41</time>
      </trkpt>
      <trkpt lat="41.2304" lon="1.07274">
        <ele>516.2</ele>
        <time>2020-08-22 09:59:42</time>
      </trkpt>
      <trkpt lat="41.2304" lon="1.07266">
        <ele>516</ele>
        <time>2020-08-22 09:59:43</time>
      </trkpt>
      <trkpt lat="41.23041" lon="1.07258">
        <ele>515.8</ele>
        <time>2020-08-22 09:59:44</time>
      </trkpt>
      <trkpt lat="41.2304" lon="1.07249">
        <ele>515.8</ele>
        <time>2020-08-22 09:59:45</time>
      </trkpt>
      <trkpt lat="41.2304" lon="1.07241">
        <ele>515.4</ele>
        <time>2020-08-22 09:59:46</time>
      </trkpt>
      <trkpt lat="41.2304" lon="1.07232">
        <ele>515</ele>
        <time>2020-08-22 09:59:47</time>
      </trkpt>
      <trkpt lat="41.23041" lon="1.07224">
        <ele>514.4</ele>
        <time>2020-08-22 09:59:48</time>
      </trkpt>
      <trkpt lat="41.23042" lon="1.07217">
        <ele>513.6</ele>
        <time>2020-08-22 09:59:49</time>
      </trkpt>
      <trkpt lat="41.23042" lon="1.0721">
        <ele>513.4</ele>
        <time>2020-08-22 09:59:50</time>
      </trkpt>
      <trkpt lat="41.23043" lon="1.07203">
        <ele>512.8</ele>
        <time>2020-08-22 09:59:51</time>
      </trkpt>
      <trkpt lat="41.23046" lon="1.07198">
        <ele>512.2</ele>
        <time>2020-08-22 09:59:52</time>
      </trkpt>
      <trkpt lat="41.23047" lon="1.07193">
        <ele>511.6</ele>
        <time>2020-08-22 09:59:53</time>
      </trkpt>
      <trkpt lat="41.23048" lon="1.07188">
        <ele>511.4</ele>
        <time>2020-08-22 09:59:54</time>
      </trkpt>
      <trkpt lat="41.23051" lon="1.07184">
        <ele>510.2</ele>
        <time>2020-08-22 09:59:55</time>
      </trkpt>
      <trkpt lat="41.23053" lon="1.0718">
        <ele>510</ele>
        <time>2020-08-22 09:59:56</time>
      </trkpt>
      <trkpt lat="41.23054" lon="1.07175">
        <ele>509.2</ele>
        <time>2020-08-22 09:59:57</time>
      </trkpt>
      <trkpt lat="41.23057" lon="1.0717">
        <ele>508.2</ele>
        <time>2020-08-22 09:59:58</time>
      </trkpt>
      <trkpt lat="41.23059" lon="1.07165">
        <ele>507.6</ele>
        <time>2020-08-22 09:59:59</time>
      </trkpt>
      <trkpt lat="41.23061" lon="1.07159">
        <ele>506.8</ele>
        <time>2020-08-22 10:00:00</time>
      </trkpt>
      <trkpt lat="41.23061" lon="1.07159">
        <ele>506</ele>
        <time>2020-08-22 10:00:01</time>
      </trkpt>
      <trkpt lat="41.23063" lon="1.07145">
        <ele>504.4</ele>
        <time>2020-08-22 10:00:02</time>
      </trkpt>
      <trkpt lat="41.23065" lon="1.07135">
        <ele>504</ele>
        <time>2020-08-22 10:00:03</time>
      </trkpt>
      <trkpt lat="41.23065" lon="1.07126">
        <ele>503.6</ele>
        <time>2020-08-22 10:00:04</time>
      </trkpt>
      <trkpt lat="41.23067" lon="1.07117">
        <ele>503.4</ele>
        <time>2020-08-22 10:00:05</time>
      </trkpt>
      <trkpt lat="41.23069" lon="1.07111">
        <ele>503</ele>
        <time>2020-08-22 10:00:06</time>
      </trkpt>
      <trkpt lat="41.23071" lon="1.07104">
        <ele>502.4</ele>
        <time>2020-08-22 10:00:07</time>
      </trkpt>
      <trkpt lat="41.23072" lon="1.07098">
        <ele>502</ele>
        <time>2020-08-22 10:00:08</time>
      </trkpt>
      <trkpt lat="41.23073" lon="1.07091">
        <ele>501.4</ele>
        <time>2020-08-22 10:00:09</time>
      </trkpt>
      <trkpt lat="41.23074" lon="1.07083">
        <ele>501.4</ele>
        <time>2020-08-22 10:00:10</time>
      </trkpt>
      <trkpt lat="41.23075" lon="1.07078">
        <ele>501.2</ele>
        <time>2020-08-22 10:00:11</time>
      </trkpt>
      <trkpt lat="41.23076" lon="1.07073">
        <ele>501.2</ele>
        <time>2020-08-22 10:00:12</time>
      </trkpt>
      <trkpt lat="41.23076" lon="1.07066">
        <ele>501</ele>
        <time>2020-08-22 10:00:13</time>
      </trkpt>
      <trkpt lat="41.23075" lon="1.0706">
        <ele>501</ele>
        <time>2020-08-22 10:00:14</time>
      </trkpt>
      <trkpt lat="41.23074" lon="1.07054">
        <ele>501</ele>
        <time>2020-08-22 10:00:15</time>
      </trkpt>
      <trkpt lat="41.23072" lon="1.07048">
        <ele>501</ele>
        <time>2020-08-22 10:00:16</time>
      </trkpt>
      <trkpt lat="41.2307" lon="1.07041">
        <ele>501</ele>
        <time>2020-08-22 10:00:17</time>
      </trkpt>
      <trkpt lat="41.23068" lon="1.07036">
        <ele>501</ele>
        <time>2020-08-22 10:00:18</time>
      </trkpt>
      <trkpt lat="41.23064" lon="1.07016">
        <ele>501</ele>
        <time>2020-08-22 10:00:21</time>
      </trkpt>
      <trkpt lat="41.23064" lon="1.0701">
        <ele>501</ele>
        <time>2020-08-22 10:00:22</time>
      </trkpt>
      <trkpt lat="41.23064" lon="1.07004">
        <ele>500.6</ele>
        <time>2020-08-22 10:00:23</time>
      </trkpt>
      <trkpt lat="41.23063" lon="1.06997">
        <ele>500.4</ele>
        <time>2020-08-22 10:00:24</time>
      </trkpt>
      <trkpt lat="41.23061" lon="1.0699">
        <ele>499.8</ele>
        <time>2020-08-22 10:00:25</time>
      </trkpt>
      <trkpt lat="41.23059" lon="1.06985">
        <ele>499.6</ele>
        <time>2020-08-22 10:00:26</time>
      </trkpt>
      <trkpt lat="41.23054" lon="1.06977">
        <ele>499.4</ele>
        <time>2020-08-22 10:00:27</time>
      </trkpt>
      <trkpt lat="41.23046" lon="1.06966">
        <ele>498.6</ele>
        <time>2020-08-22 10:00:29</time>
      </trkpt>
      <trkpt lat="41.23043" lon="1.0696">
        <ele>498.4</ele>
        <time>2020-08-22 10:00:30</time>
      </trkpt>
      <trkpt lat="41.23039" lon="1.06954">
        <ele>498</ele>
        <time>2020-08-22 10:00:31</time>
      </trkpt>
      <trkpt lat="41.23036" lon="1.06949">
        <ele>498</ele>
        <time>2020-08-22 10:00:32</time>
      </trkpt>
      <trkpt lat="41.23033" lon="1.06943">
        <ele>497.8</ele>
        <time>2020-08-22 10:00:33</time>
      </trkpt>
      <trkpt lat="41.2303" lon="1.06937">
        <ele>497.6</ele>
        <time>2020-08-22 10:00:34</time>
      </trkpt>
      <trkpt lat="41.23028" lon="1.06933">
        <ele>497.6</ele>
        <time>2020-08-22 10:00:35</time>
      </trkpt>
      <trkpt lat="41.23025" lon="1.0693">
        <ele>497.6</ele>
        <time>2020-08-22 10:00:36</time>
      </trkpt>
      <trkpt lat="41.23021" lon="1.06925">
        <ele>497.6</ele>
        <time>2020-08-22 10:00:37</time>
      </trkpt>
      <trkpt lat="41.23018" lon="1.06923">
        <ele>497.8</ele>
        <time>2020-08-22 10:00:38</time>
      </trkpt>
      <trkpt lat="41.23015" lon="1.06921">
        <ele>497.8</ele>
        <time>2020-08-22 10:00:39</time>
      </trkpt>
      <trkpt lat="41.23012" lon="1.06918">
        <ele>498</ele>
        <time>2020-08-22 10:00:40</time>
      </trkpt>
      <trkpt lat="41.2301" lon="1.06916">
        <ele>498.2</ele>
        <time>2020-08-22 10:00:41</time>
      </trkpt>
      <trkpt lat="41.23007" lon="1.06912">
        <ele>498.2</ele>
        <time>2020-08-22 10:00:42</time>
      </trkpt>
      <trkpt lat="41.23002" lon="1.06903">
        <ele>498.6</ele>
        <time>2020-08-22 10:00:44</time>
      </trkpt>
      <trkpt lat="41.23001" lon="1.06898">
        <ele>499</ele>
        <time>2020-08-22 10:00:45</time>
      </trkpt>
      <trkpt lat="41.22998" lon="1.06894">
        <ele>499.2</ele>
        <time>2020-08-22 10:00:46</time>
      </trkpt>
      <trkpt lat="41.22997" lon="1.0689">
        <ele>499.4</ele>
        <time>2020-08-22 10:00:47</time>
      </trkpt>
      <trkpt lat="41.22996" lon="1.06885">
        <ele>499.8</ele>
        <time>2020-08-22 10:00:48</time>
      </trkpt>
      <trkpt lat="41.22995" lon="1.0688">
        <ele>499.8</ele>
        <time>2020-08-22 10:00:49</time>
      </trkpt>
      <trkpt lat="41.22993" lon="1.06875">
        <ele>500</ele>
        <time>2020-08-22 10:00:50</time>
      </trkpt>
      <trkpt lat="41.22991" lon="1.0687">
        <ele>500.2</ele>
        <time>2020-08-22 10:00:51</time>
      </trkpt>
      <trkpt lat="41.2299" lon="1.06865">
        <ele>500.6</ele>
        <time>2020-08-22 10:00:52</time>
      </trkpt>
      <trkpt lat="41.22989" lon="1.06861">
        <ele>500.6</ele>
        <time>2020-08-22 10:00:53</time>
      </trkpt>
      <trkpt lat="41.22987" lon="1.06856">
        <ele>500.8</ele>
        <time>2020-08-22 10:00:54</time>
      </trkpt>
      <trkpt lat="41.22985" lon="1.06852">
        <ele>500.8</ele>
        <time>2020-08-22 10:00:55</time>
      </trkpt>
      <trkpt lat="41.22983" lon="1.06849">
        <ele>501</ele>
        <time>2020-08-22 10:00:56</time>
      </trkpt>
      <trkpt lat="41.2298" lon="1.06844">
        <ele>501.2</ele>
        <time>2020-08-22 10:00:57</time>
      </trkpt>
      <trkpt lat="41.22978" lon="1.0684">
        <ele>501.2</ele>
        <time>2020-08-22 10:00:58</time>
      </trkpt>
      <trkpt lat="41.22977" lon="1.06837">
        <ele>501.4</ele>
        <time>2020-08-22 10:00:59</time>
      </trkpt>
      <trkpt lat="41.22976" lon="1.06832">
        <ele>501.4</ele>
        <time>2020-08-22 10:01:00</time>
      </trkpt>
      <trkpt lat="41.22977" lon="1.06828">
        <ele>501.6</ele>
        <time>2020-08-22 10:01:01</time>
      </trkpt>
      <trkpt lat="41.22978" lon="1.06823">
        <ele>501.6</ele>
        <time>2020-08-22 10:01:02</time>
      </trkpt>
      <trkpt lat="41.2298" lon="1.06818">
        <ele>501.8</ele>
        <time>2020-08-22 10:01:03</time>
      </trkpt>
      <trkpt lat="41.22981" lon="1.06814">
        <ele>502.2</ele>
        <time>2020-08-22 10:01:04</time>
      </trkpt>
      <trkpt lat="41.22982" lon="1.06808">
        <ele>502.4</ele>
        <time>2020-08-22 10:01:05</time>
      </trkpt>
      <trkpt lat="41.22983" lon="1.06802">
        <ele>502.6</ele>
        <time>2020-08-22 10:01:06</time>
      </trkpt>
      <trkpt lat="41.22985" lon="1.06795">
        <ele>502.6</ele>
        <time>2020-08-22 10:01:07</time>
      </trkpt>
      <trkpt lat="41.22987" lon="1.06789">
        <ele>502.6</ele>
        <time>2020-08-22 10:01:08</time>
      </trkpt>
      <trkpt lat="41.22989" lon="1.06782">
        <ele>502.6</ele>
        <time>2020-08-22 10:01:09</time>
      </trkpt>
      <trkpt lat="41.22991" lon="1.06774">
        <ele>502.2</ele>
        <time>2020-08-22 10:01:10</time>
      </trkpt>
      <trkpt lat="41.22992" lon="1.06767">
        <ele>502.2</ele>
        <time>2020-08-22 10:01:11</time>
      </trkpt>
      <trkpt lat="41.22991" lon="1.06761">
        <ele>502</ele>
        <time>2020-08-22 10:01:12</time>
      </trkpt>
      <trkpt lat="41.22988" lon="1.06755">
        <ele>501.8</ele>
        <time>2020-08-22 10:01:13</time>
      </trkpt>
      <trkpt lat="41.22984" lon="1.06752">
        <ele>501.6</ele>
        <time>2020-08-22 10:01:14</time>
      </trkpt>
      <trkpt lat="41.22981" lon="1.0675">
        <ele>501.6</ele>
        <time>2020-08-22 10:01:15</time>
      </trkpt>
      <trkpt lat="41.22977" lon="1.06747">
        <ele>501.4</ele>
        <time>2020-08-22 10:01:16</time>
      </trkpt>
      <trkpt lat="41.22975" lon="1.06744">
        <ele>501.4</ele>
        <time>2020-08-22 10:01:17</time>
      </trkpt>
      <trkpt lat="41.22972" lon="1.0674">
        <ele>501.2</ele>
        <time>2020-08-22 10:01:18</time>
      </trkpt>
      <trkpt lat="41.22969" lon="1.06736">
        <ele>501.2</ele>
        <time>2020-08-22 10:01:19</time>
      </trkpt>
      <trkpt lat="41.22966" lon="1.06733">
        <ele>501.2</ele>
        <time>2020-08-22 10:01:20</time>
      </trkpt>
      <trkpt lat="41.22963" lon="1.06729">
        <ele>501.4</ele>
        <time>2020-08-22 10:01:21</time>
      </trkpt>
      <trkpt lat="41.22962" lon="1.06724">
        <ele>501.4</ele>
        <time>2020-08-22 10:01:22</time>
      </trkpt>
      <trkpt lat="41.22962" lon="1.06718">
        <ele>501.8</ele>
        <time>2020-08-22 10:01:23</time>
      </trkpt>
      <trkpt lat="41.22963" lon="1.06712">
        <ele>502</ele>
        <time>2020-08-22 10:01:24</time>
      </trkpt>
      <trkpt lat="41.22963" lon="1.06705">
        <ele>502</ele>
        <time>2020-08-22 10:01:25</time>
      </trkpt>
      <trkpt lat="41.22962" lon="1.06699">
        <ele>502.2</ele>
        <time>2020-08-22 10:01:26</time>
      </trkpt>
      <trkpt lat="41.22959" lon="1.06694">
        <ele>502.2</ele>
        <time>2020-08-22 10:01:27</time>
      </trkpt>
      <trkpt lat="41.22956" lon="1.06689">
        <ele>502.2</ele>
        <time>2020-08-22 10:01:28</time>
      </trkpt>
      <trkpt lat="41.22955" lon="1.06684">
        <ele>502.2</ele>
        <time>2020-08-22 10:01:29</time>
      </trkpt>
      <trkpt lat="41.22954" lon="1.06677">
        <ele>502.2</ele>
        <time>2020-08-22 10:01:30</time>
      </trkpt>
      <trkpt lat="41.22955" lon="1.06673">
        <ele>502</ele>
        <time>2020-08-22 10:01:31</time>
      </trkpt>
      <trkpt lat="41.22956" lon="1.06668">
        <ele>501.8</ele>
        <time>2020-08-22 10:01:32</time>
      </trkpt>
      <trkpt lat="41.22957" lon="1.06663">
        <ele>501.8</ele>
        <time>2020-08-22 10:01:33</time>
      </trkpt>
      <trkpt lat="41.22959" lon="1.06657">
        <ele>501.6</ele>
        <time>2020-08-22 10:01:34</time>
      </trkpt>
      <trkpt lat="41.2296" lon="1.06652">
        <ele>501.6</ele>
        <time>2020-08-22 10:01:35</time>
      </trkpt>
      <trkpt lat="41.22962" lon="1.06647">
        <ele>501.4</ele>
        <time>2020-08-22 10:01:36</time>
      </trkpt>
      <trkpt lat="41.22964" lon="1.06642">
        <ele>501.4</ele>
        <time>2020-08-22 10:01:37</time>
      </trkpt>
      <trkpt lat="41.22965" lon="1.06637">
        <ele>501.4</ele>
        <time>2020-08-22 10:01:38</time>
      </trkpt>
      <trkpt lat="41.22967" lon="1.06631">
        <ele>501.4</ele>
        <time>2020-08-22 10:01:39</time>
      </trkpt>
      <trkpt lat="41.22968" lon="1.06627">
        <ele>501.2</ele>
        <time>2020-08-22 10:01:40</time>
      </trkpt>
      <trkpt lat="41.22969" lon="1.06622">
        <ele>501.2</ele>
        <time>2020-08-22 10:01:41</time>
      </trkpt>
      <trkpt lat="41.2297" lon="1.06617">
        <ele>501.4</ele>
        <time>2020-08-22 10:01:42</time>
      </trkpt>
      <trkpt lat="41.22971" lon="1.06611">
        <ele>501.4</ele>
        <time>2020-08-22 10:01:43</time>
      </trkpt>
      <trkpt lat="41.22971" lon="1.06606">
        <ele>501.4</ele>
        <time>2020-08-22 10:01:44</time>
      </trkpt>
      <trkpt lat="41.2297" lon="1.06601">
        <ele>501.4</ele>
        <time>2020-08-22 10:01:45</time>
      </trkpt>
      <trkpt lat="41.22969" lon="1.06596">
        <ele>501.4</ele>
        <time>2020-08-22 10:01:46</time>
      </trkpt>
      <trkpt lat="41.22969" lon="1.06591">
        <ele>501.4</ele>
        <time>2020-08-22 10:01:47</time>
      </trkpt>
      <trkpt lat="41.22968" lon="1.06586">
        <ele>501.4</ele>
        <time>2020-08-22 10:01:48</time>
      </trkpt>
      <trkpt lat="41.22968" lon="1.0658">
        <ele>501.6</ele>
        <time>2020-08-22 10:01:49</time>
      </trkpt>
      <trkpt lat="41.22968" lon="1.06575">
        <ele>501.8</ele>
        <time>2020-08-22 10:01:50</time>
      </trkpt>
      <trkpt lat="41.22968" lon="1.0657">
        <ele>502</ele>
        <time>2020-08-22 10:01:51</time>
      </trkpt>
      <trkpt lat="41.22968" lon="1.06565">
        <ele>502.2</ele>
        <time>2020-08-22 10:01:52</time>
      </trkpt>
      <trkpt lat="41.22969" lon="1.0656">
        <ele>502.4</ele>
        <time>2020-08-22 10:01:53</time>
      </trkpt>
      <trkpt lat="41.2297" lon="1.06555">
        <ele>502.4</ele>
        <time>2020-08-22 10:01:54</time>
      </trkpt>
      <trkpt lat="41.22972" lon="1.06551">
        <ele>502.6</ele>
        <time>2020-08-22 10:01:55</time>
      </trkpt>
      <trkpt lat="41.22973" lon="1.06547">
        <ele>502.6</ele>
        <time>2020-08-22 10:01:56</time>
      </trkpt>
      <trkpt lat="41.22975" lon="1.06544">
        <ele>502.8</ele>
        <time>2020-08-22 10:01:57</time>
      </trkpt>
      <trkpt lat="41.22976" lon="1.06541">
        <ele>502.8</ele>
        <time>2020-08-22 10:01:58</time>
      </trkpt>
      <trkpt lat="41.22978" lon="1.06538">
        <ele>502.8</ele>
        <time>2020-08-22 10:01:59</time>
      </trkpt>
      <trkpt lat="41.2298" lon="1.06534">
        <ele>503</ele>
        <time>2020-08-22 10:02:00</time>
      </trkpt>
      <trkpt lat="41.22983" lon="1.06532">
        <ele>503</ele>
        <time>2020-08-22 10:02:01</time>
      </trkpt>
      <trkpt lat="41.22986" lon="1.06529">
        <ele>503.2</ele>
        <time>2020-08-22 10:02:02</time>
      </trkpt>
      <trkpt lat="41.22988" lon="1.06527">
        <ele>503.4</ele>
        <time>2020-08-22 10:02:03</time>
      </trkpt>
      <trkpt lat="41.22992" lon="1.06523">
        <ele>503.6</ele>
        <time>2020-08-22 10:02:04</time>
      </trkpt>
      <trkpt lat="41.22994" lon="1.0652">
        <ele>504</ele>
        <time>2020-08-22 10:02:05</time>
      </trkpt>
      <trkpt lat="41.22996" lon="1.06517">
        <ele>504.2</ele>
        <time>2020-08-22 10:02:06</time>
      </trkpt>
      <trkpt lat="41.22998" lon="1.06513">
        <ele>504.4</ele>
        <time>2020-08-22 10:02:07</time>
      </trkpt>
      <trkpt lat="41.23" lon="1.06509">
        <ele>504.6</ele>
        <time>2020-08-22 10:02:08</time>
      </trkpt>
      <trkpt lat="41.23001" lon="1.06505">
        <ele>505</ele>
        <time>2020-08-22 10:02:09</time>
      </trkpt>
      <trkpt lat="41.23002" lon="1.065">
        <ele>505.2</ele>
        <time>2020-08-22 10:02:10</time>
      </trkpt>
      <trkpt lat="41.23003" lon="1.06495">
        <ele>505.6</ele>
        <time>2020-08-22 10:02:11</time>
      </trkpt>
      <trkpt lat="41.23004" lon="1.06491">
        <ele>505.8</ele>
        <time>2020-08-22 10:02:12</time>
      </trkpt>
      <trkpt lat="41.23006" lon="1.06488">
        <ele>506</ele>
        <time>2020-08-22 10:02:13</time>
      </trkpt>
      <trkpt lat="41.23007" lon="1.06485">
        <ele>506.2</ele>
        <time>2020-08-22 10:02:14</time>
      </trkpt>
      <trkpt lat="41.23008" lon="1.06481">
        <ele>506.4</ele>
        <time>2020-08-22 10:02:15</time>
      </trkpt>
      <trkpt lat="41.2301" lon="1.06477">
        <ele>506.6</ele>
        <time>2020-08-22 10:02:16</time>
      </trkpt>
      <trkpt lat="41.23011" lon="1.06473">
        <ele>506.6</ele>
        <time>2020-08-22 10:02:17</time>
      </trkpt>
      <trkpt lat="41.23012" lon="1.06469">
        <ele>506.8</ele>
        <time>2020-08-22 10:02:18</time>
      </trkpt>
      <trkpt lat="41.23013" lon="1.06465">
        <ele>507</ele>
        <time>2020-08-22 10:02:19</time>
      </trkpt>
      <trkpt lat="41.23013" lon="1.06461">
        <ele>507.2</ele>
        <time>2020-08-22 10:02:20</time>
      </trkpt>
      <trkpt lat="41.23014" lon="1.06457">
        <ele>507.4</ele>
        <time>2020-08-22 10:02:21</time>
      </trkpt>
      <trkpt lat="41.23015" lon="1.06453">
        <ele>507.6</ele>
        <time>2020-08-22 10:02:22</time>
      </trkpt>
      <trkpt lat="41.23015" lon="1.0645">
        <ele>507.8</ele>
        <time>2020-08-22 10:02:23</time>
      </trkpt>
      <trkpt lat="41.23015" lon="1.06446">
        <ele>507.8</ele>
        <time>2020-08-22 10:02:24</time>
      </trkpt>
      <trkpt lat="41.23015" lon="1.06442">
        <ele>508.2</ele>
        <time>2020-08-22 10:02:25</time>
      </trkpt>
      <trkpt lat="41.23014" lon="1.06439">
        <ele>508.4</ele>
        <time>2020-08-22 10:02:26</time>
      </trkpt>
      <trkpt lat="41.23013" lon="1.06435">
        <ele>508.8</ele>
        <time>2020-08-22 10:02:27</time>
      </trkpt>
      <trkpt lat="41.23011" lon="1.06432">
        <ele>508.8</ele>
        <time>2020-08-22 10:02:28</time>
      </trkpt>
      <trkpt lat="41.2301" lon="1.06429">
        <ele>509.2</ele>
        <time>2020-08-22 10:02:29</time>
      </trkpt>
      <trkpt lat="41.23008" lon="1.06426">
        <ele>509.4</ele>
        <time>2020-08-22 10:02:30</time>
      </trkpt>
      <trkpt lat="41.23007" lon="1.06423">
        <ele>509.8</ele>
        <time>2020-08-22 10:02:31</time>
      </trkpt>
      <trkpt lat="41.23004" lon="1.06419">
        <ele>510.2</ele>
        <time>2020-08-22 10:02:32</time>
      </trkpt>
      <trkpt lat="41.23003" lon="1.06417">
        <ele>510.4</ele>
        <time>2020-08-22 10:02:33</time>
      </trkpt>
      <trkpt lat="41.23002" lon="1.06414">
        <ele>510.6</ele>
        <time>2020-08-22 10:02:34</time>
      </trkpt>
      <trkpt lat="41.23001" lon="1.06411">
        <ele>510.6</ele>
        <time>2020-08-22 10:02:35</time>
      </trkpt>
      <trkpt lat="41.23" lon="1.06407">
        <ele>510.8</ele>
        <time>2020-08-22 10:02:36</time>
      </trkpt>
      <trkpt lat="41.23" lon="1.06404">
        <ele>510.8</ele>
        <time>2020-08-22 10:02:37</time>
      </trkpt>
      <trkpt lat="41.23" lon="1.06401">
        <ele>511</ele>
        <time>2020-08-22 10:02:38</time>
      </trkpt>
      <trkpt lat="41.23" lon="1.06398">
        <ele>511.4</ele>
        <time>2020-08-22 10:02:39</time>
      </trkpt>
      <trkpt lat="41.23002" lon="1.06395">
        <ele>511.4</ele>
        <time>2020-08-22 10:02:40</time>
      </trkpt>
      <trkpt lat="41.23004" lon="1.06393">
        <ele>511.6</ele>
        <time>2020-08-22 10:02:41</time>
      </trkpt>
      <trkpt lat="41.23006" lon="1.06391">
        <ele>511.8</ele>
        <time>2020-08-22 10:02:42</time>
      </trkpt>
      <trkpt lat="41.23008" lon="1.06389">
        <ele>512</ele>
        <time>2020-08-22 10:02:43</time>
      </trkpt>
      <trkpt lat="41.2301" lon="1.06386">
        <ele>512.2</ele>
        <time>2020-08-22 10:02:44</time>
      </trkpt>
      <trkpt lat="41.23012" lon="1.06383">
        <ele>512.2</ele>
        <time>2020-08-22 10:02:45</time>
      </trkpt>
      <trkpt lat="41.23013" lon="1.0638">
        <ele>512.2</ele>
        <time>2020-08-22 10:02:46</time>
      </trkpt>
      <trkpt lat="41.23015" lon="1.06377">
        <ele>512.4</ele>
        <time>2020-08-22 10:02:47</time>
      </trkpt>
      <trkpt lat="41.23016" lon="1.06375">
        <ele>512.6</ele>
        <time>2020-08-22 10:02:48</time>
      </trkpt>
      <trkpt lat="41.23017" lon="1.06373">
        <ele>512.8</ele>
        <time>2020-08-22 10:02:49</time>
      </trkpt>
      <trkpt lat="41.23018" lon="1.06371">
        <ele>513</ele>
        <time>2020-08-22 10:02:50</time>
      </trkpt>
      <trkpt lat="41.23019" lon="1.06369">
        <ele>513</ele>
        <time>2020-08-22 10:02:51</time>
      </trkpt>
      <trkpt lat="41.23019" lon="1.06366">
        <ele>513.2</ele>
        <time>2020-08-22 10:02:52</time>
      </trkpt>
      <trkpt lat="41.2302" lon="1.06364">
        <ele>513.4</ele>
        <time>2020-08-22 10:02:53</time>
      </trkpt>
      <trkpt lat="41.2302" lon="1.06362">
        <ele>513.6</ele>
        <time>2020-08-22 10:02:54</time>
      </trkpt>
      <trkpt lat="41.23019" lon="1.06359">
        <ele>513.6</ele>
        <time>2020-08-22 10:02:55</time>
      </trkpt>
      <trkpt lat="41.23019" lon="1.06356">
        <ele>514.2</ele>
        <time>2020-08-22 10:02:56</time>
      </trkpt>
      <trkpt lat="41.23019" lon="1.06353">
        <ele>514.6</ele>
        <time>2020-08-22 10:02:57</time>
      </trkpt>
      <trkpt lat="41.23017" lon="1.0635">
        <ele>515</ele>
        <time>2020-08-22 10:02:58</time>
      </trkpt>
      <trkpt lat="41.23016" lon="1.06348">
        <ele>515.4</ele>
        <time>2020-08-22 10:02:59</time>
      </trkpt>
      <trkpt lat="41.23014" lon="1.06345">
        <ele>515.4</ele>
        <time>2020-08-22 10:03:00</time>
      </trkpt>
      <trkpt lat="41.23012" lon="1.06343">
        <ele>515.6</ele>
        <time>2020-08-22 10:03:01</time>
      </trkpt>
      <trkpt lat="41.23011" lon="1.06341">
        <ele>515.6</ele>
        <time>2020-08-22 10:03:02</time>
      </trkpt>
      <trkpt lat="41.2301" lon="1.06338">
        <ele>515.8</ele>
        <time>2020-08-22 10:03:03</time>
      </trkpt>
      <trkpt lat="41.23009" lon="1.06336">
        <ele>515.8</ele>
        <time>2020-08-22 10:03:04</time>
      </trkpt>
      <trkpt lat="41.23009" lon="1.06333">
        <ele>516</ele>
        <time>2020-08-22 10:03:05</time>
      </trkpt>
      <trkpt lat="41.23009" lon="1.06329">
        <ele>516.4</ele>
        <time>2020-08-22 10:03:06</time>
      </trkpt>
      <trkpt lat="41.23009" lon="1.06325">
        <ele>516.6</ele>
        <time>2020-08-22 10:03:07</time>
      </trkpt>
      <trkpt lat="41.23008" lon="1.06321">
        <ele>516.8</ele>
        <time>2020-08-22 10:03:08</time>
      </trkpt>
      <trkpt lat="41.23008" lon="1.06317">
        <ele>516.8</ele>
        <time>2020-08-22 10:03:09</time>
      </trkpt>
      <trkpt lat="41.23008" lon="1.06313">
        <ele>517</ele>
        <time>2020-08-22 10:03:10</time>
      </trkpt>
      <trkpt lat="41.23009" lon="1.06309">
        <ele>517.2</ele>
        <time>2020-08-22 10:03:11</time>
      </trkpt>
      <trkpt lat="41.2301" lon="1.06304">
        <ele>517.4</ele>
        <time>2020-08-22 10:03:12</time>
      </trkpt>
      <trkpt lat="41.2301" lon="1.063">
        <ele>517.4</ele>
        <time>2020-08-22 10:03:13</time>
      </trkpt>
      <trkpt lat="41.23011" lon="1.06297">
        <ele>517.6</ele>
        <time>2020-08-22 10:03:14</time>
      </trkpt>
      <trkpt lat="41.2301" lon="1.06293">
        <ele>517.8</ele>
        <time>2020-08-22 10:03:15</time>
      </trkpt>
      <trkpt lat="41.23009" lon="1.0629">
        <ele>517.8</ele>
        <time>2020-08-22 10:03:16</time>
      </trkpt>
      <trkpt lat="41.23006" lon="1.06286">
        <ele>518</ele>
        <time>2020-08-22 10:03:17</time>
      </trkpt>
      <trkpt lat="41.23003" lon="1.06281">
        <ele>518</ele>
        <time>2020-08-22 10:03:18</time>
      </trkpt>
      <trkpt lat="41.23001" lon="1.06275">
        <ele>518.2</ele>
        <time>2020-08-22 10:03:19</time>
      </trkpt>
      <trkpt lat="41.23001" lon="1.06271">
        <ele>518.4</ele>
        <time>2020-08-22 10:03:20</time>
      </trkpt>
      <trkpt lat="41.23001" lon="1.06268">
        <ele>518.8</ele>
        <time>2020-08-22 10:03:21</time>
      </trkpt>
      <trkpt lat="41.23002" lon="1.06264">
        <ele>519</ele>
        <time>2020-08-22 10:03:22</time>
      </trkpt>
      <trkpt lat="41.23002" lon="1.0626">
        <ele>519</ele>
        <time>2020-08-22 10:03:23</time>
      </trkpt>
      <trkpt lat="41.23005" lon="1.06256">
        <ele>519.2</ele>
        <time>2020-08-22 10:03:24</time>
      </trkpt>
      <trkpt lat="41.23005" lon="1.06253">
        <ele>519.2</ele>
        <time>2020-08-22 10:03:25</time>
      </trkpt>
      <trkpt lat="41.23005" lon="1.06249">
        <ele>519.8</ele>
        <time>2020-08-22 10:03:26</time>
      </trkpt>
      <trkpt lat="41.23004" lon="1.06244">
        <ele>519.8</ele>
        <time>2020-08-22 10:03:27</time>
      </trkpt>
      <trkpt lat="41.23004" lon="1.06241">
        <ele>520.2</ele>
        <time>2020-08-22 10:03:28</time>
      </trkpt>
      <trkpt lat="41.23005" lon="1.06238">
        <ele>520.4</ele>
        <time>2020-08-22 10:03:29</time>
      </trkpt>
      <trkpt lat="41.23005" lon="1.06234">
        <ele>520.6</ele>
        <time>2020-08-22 10:03:30</time>
      </trkpt>
      <trkpt lat="41.23005" lon="1.06231">
        <ele>520.6</ele>
        <time>2020-08-22 10:03:31</time>
      </trkpt>
      <trkpt lat="41.23004" lon="1.06226">
        <ele>520.8</ele>
        <time>2020-08-22 10:03:32</time>
      </trkpt>
      <trkpt lat="41.23004" lon="1.06222">
        <ele>521</ele>
        <time>2020-08-22 10:03:33</time>
      </trkpt>
      <trkpt lat="41.23005" lon="1.06218">
        <ele>521</ele>
        <time>2020-08-22 10:03:34</time>
      </trkpt>
      <trkpt lat="41.23006" lon="1.06214">
        <ele>521.2</ele>
        <time>2020-08-22 10:03:35</time>
      </trkpt>
      <trkpt lat="41.23008" lon="1.06212">
        <ele>521.2</ele>
        <time>2020-08-22 10:03:36</time>
      </trkpt>
      <trkpt lat="41.23009" lon="1.0621">
        <ele>521.6</ele>
        <time>2020-08-22 10:03:37</time>
      </trkpt>
      <trkpt lat="41.23011" lon="1.0621">
        <ele>521.8</ele>
        <time>2020-08-22 10:03:38</time>
      </trkpt>
      <trkpt lat="41.23013" lon="1.0621">
        <ele>521.8</ele>
        <time>2020-08-22 10:03:39</time>
      </trkpt>
      <trkpt lat="41.23015" lon="1.06212">
        <ele>522.2</ele>
        <time>2020-08-22 10:03:40</time>
      </trkpt>
      <trkpt lat="41.23016" lon="1.06214">
        <ele>522.4</ele>
        <time>2020-08-22 10:03:41</time>
      </trkpt>
      <trkpt lat="41.23018" lon="1.06216">
        <ele>522.8</ele>
        <time>2020-08-22 10:03:42</time>
      </trkpt>
      <trkpt lat="41.23019" lon="1.06217">
        <ele>523.2</ele>
        <time>2020-08-22 10:03:43</time>
      </trkpt>
      <trkpt lat="41.2302" lon="1.06219">
        <ele>523.6</ele>
        <time>2020-08-22 10:03:44</time>
      </trkpt>
      <trkpt lat="41.23021" lon="1.0622">
        <ele>523.6</ele>
        <time>2020-08-22 10:03:45</time>
      </trkpt>
      <trkpt lat="41.23023" lon="1.06222">
        <ele>524</ele>
        <time>2020-08-22 10:03:46</time>
      </trkpt>
      <trkpt lat="41.23024" lon="1.06223">
        <ele>524</ele>
        <time>2020-08-22 10:03:47</time>
      </trkpt>
      <trkpt lat="41.23025" lon="1.06224">
        <ele>524.4</ele>
        <time>2020-08-22 10:03:48</time>
      </trkpt>
      <trkpt lat="41.23026" lon="1.06225">
        <ele>524.8</ele>
        <time>2020-08-22 10:03:49</time>
      </trkpt>
      <trkpt lat="41.23028" lon="1.06227">
        <ele>524.8</ele>
        <time>2020-08-22 10:03:50</time>
      </trkpt>
      <trkpt lat="41.23029" lon="1.06228">
        <ele>525.2</ele>
        <time>2020-08-22 10:03:51</time>
      </trkpt>
      <trkpt lat="41.23031" lon="1.06229">
        <ele>525.4</ele>
        <time>2020-08-22 10:03:52</time>
      </trkpt>
      <trkpt lat="41.23032" lon="1.06231">
        <ele>525.6</ele>
        <time>2020-08-22 10:03:53</time>
      </trkpt>
      <trkpt lat="41.23034" lon="1.06232">
        <ele>525.8</ele>
        <time>2020-08-22 10:03:54</time>
      </trkpt>
      <trkpt lat="41.23037" lon="1.06233">
        <ele>526.2</ele>
        <time>2020-08-22 10:03:55</time>
      </trkpt>
      <trkpt lat="41.2304" lon="1.06236">
        <ele>526.6</ele>
        <time>2020-08-22 10:03:56</time>
      </trkpt>
      <trkpt lat="41.23042" lon="1.06238">
        <ele>526.6</ele>
        <time>2020-08-22 10:03:57</time>
      </trkpt>
      <trkpt lat="41.23044" lon="1.06239">
        <ele>527</ele>
        <time>2020-08-22 10:03:58</time>
      </trkpt>
      <trkpt lat="41.23047" lon="1.06241">
        <ele>527</ele>
        <time>2020-08-22 10:03:59</time>
      </trkpt>
      <trkpt lat="41.2305" lon="1.06244">
        <ele>527.2</ele>
        <time>2020-08-22 10:04:00</time>
      </trkpt>
      <trkpt lat="41.23052" lon="1.06246">
        <ele>527.6</ele>
        <time>2020-08-22 10:04:01</time>
      </trkpt>
      <trkpt lat="41.23055" lon="1.06249">
        <ele>527.8</ele>
        <time>2020-08-22 10:04:02</time>
      </trkpt>
      <trkpt lat="41.23057" lon="1.06251">
        <ele>528</ele>
        <time>2020-08-22 10:04:03</time>
      </trkpt>
      <trkpt lat="41.23059" lon="1.06253">
        <ele>528.2</ele>
        <time>2020-08-22 10:04:04</time>
      </trkpt>
      <trkpt lat="41.23061" lon="1.06256">
        <ele>528.6</ele>
        <time>2020-08-22 10:04:05</time>
      </trkpt>
      <trkpt lat="41.23063" lon="1.06259">
        <ele>528.8</ele>
        <time>2020-08-22 10:04:06</time>
      </trkpt>
      <trkpt lat="41.23064" lon="1.06262">
        <ele>529</ele>
        <time>2020-08-22 10:04:07</time>
      </trkpt>
      <trkpt lat="41.23065" lon="1.06266">
        <ele>529</ele>
        <time>2020-08-22 10:04:08</time>
      </trkpt>
      <trkpt lat="41.23067" lon="1.0627">
        <ele>529.2</ele>
        <time>2020-08-22 10:04:09</time>
      </trkpt>
      <trkpt lat="41.23069" lon="1.06274">
        <ele>529.2</ele>
        <time>2020-08-22 10:04:10</time>
      </trkpt>
      <trkpt lat="41.2307" lon="1.06277">
        <ele>529.8</ele>
        <time>2020-08-22 10:04:11</time>
      </trkpt>
      <trkpt lat="41.23071" lon="1.06279">
        <ele>530.2</ele>
        <time>2020-08-22 10:04:12</time>
      </trkpt>
      <trkpt lat="41.23071" lon="1.06282">
        <ele>530.6</ele>
        <time>2020-08-22 10:04:13</time>
      </trkpt>
      <trkpt lat="41.23072" lon="1.06285">
        <ele>530.8</ele>
        <time>2020-08-22 10:04:14</time>
      </trkpt>
      <trkpt lat="41.23073" lon="1.06289">
        <ele>531.2</ele>
        <time>2020-08-22 10:04:15</time>
      </trkpt>
      <trkpt lat="41.23074" lon="1.06292">
        <ele>531.2</ele>
        <time>2020-08-22 10:04:16</time>
      </trkpt>
      <trkpt lat="41.23075" lon="1.06296">
        <ele>531.4</ele>
        <time>2020-08-22 10:04:17</time>
      </trkpt>
      <trkpt lat="41.23076" lon="1.06298">
        <ele>531.8</ele>
        <time>2020-08-22 10:04:18</time>
      </trkpt>
      <trkpt lat="41.23078" lon="1.06301">
        <ele>532</ele>
        <time>2020-08-22 10:04:19</time>
      </trkpt>
      <trkpt lat="41.2308" lon="1.06304">
        <ele>532.2</ele>
        <time>2020-08-22 10:04:20</time>
      </trkpt>
      <trkpt lat="41.23081" lon="1.06306">
        <ele>532.2</ele>
        <time>2020-08-22 10:04:21</time>
      </trkpt>
      <trkpt lat="41.23083" lon="1.06308">
        <ele>532.2</ele>
        <time>2020-08-22 10:04:22</time>
      </trkpt>
      <trkpt lat="41.23085" lon="1.0631">
        <ele>532.4</ele>
        <time>2020-08-22 10:04:23</time>
      </trkpt>
      <trkpt lat="41.23088" lon="1.06313">
        <ele>532.4</ele>
        <time>2020-08-22 10:04:24</time>
      </trkpt>
      <trkpt lat="41.23091" lon="1.06314">
        <ele>532.4</ele>
        <time>2020-08-22 10:04:25</time>
      </trkpt>
      <trkpt lat="41.23092" lon="1.06316">
        <ele>532.4</ele>
        <time>2020-08-22 10:04:26</time>
      </trkpt>
      <trkpt lat="41.23094" lon="1.06318">
        <ele>532.6</ele>
        <time>2020-08-22 10:04:27</time>
      </trkpt>
      <trkpt lat="41.23095" lon="1.06319">
        <ele>532.6</ele>
        <time>2020-08-22 10:04:28</time>
      </trkpt>
      <trkpt lat="41.23098" lon="1.0632">
        <ele>532.8</ele>
        <time>2020-08-22 10:04:29</time>
      </trkpt>
      <trkpt lat="41.23101" lon="1.06321">
        <ele>533</ele>
        <time>2020-08-22 10:04:30</time>
      </trkpt>
      <trkpt lat="41.23103" lon="1.06321">
        <ele>533.2</ele>
        <time>2020-08-22 10:04:31</time>
      </trkpt>
      <trkpt lat="41.23104" lon="1.06321">
        <ele>533.4</ele>
        <time>2020-08-22 10:04:32</time>
      </trkpt>
      <trkpt lat="41.23106" lon="1.06322">
        <ele>533.6</ele>
        <time>2020-08-22 10:04:33</time>
      </trkpt>
      <trkpt lat="41.23109" lon="1.06323">
        <ele>534</ele>
        <time>2020-08-22 10:04:34</time>
      </trkpt>
      <trkpt lat="41.23111" lon="1.06324">
        <ele>534</ele>
        <time>2020-08-22 10:04:35</time>
      </trkpt>
      <trkpt lat="41.23114" lon="1.06323">
        <ele>534.2</ele>
        <time>2020-08-22 10:04:36</time>
      </trkpt>
      <trkpt lat="41.23116" lon="1.06323">
        <ele>534.4</ele>
        <time>2020-08-22 10:04:37</time>
      </trkpt>
      <trkpt lat="41.23118" lon="1.06324">
        <ele>534.6</ele>
        <time>2020-08-22 10:04:38</time>
      </trkpt>
      <trkpt lat="41.23121" lon="1.06326">
        <ele>535</ele>
        <time>2020-08-22 10:04:39</time>
      </trkpt>
      <trkpt lat="41.23124" lon="1.06327">
        <ele>535.2</ele>
        <time>2020-08-22 10:04:40</time>
      </trkpt>
      <trkpt lat="41.23126" lon="1.06328">
        <ele>535.4</ele>
        <time>2020-08-22 10:04:41</time>
      </trkpt>
      <trkpt lat="41.23127" lon="1.06328">
        <ele>535.4</ele>
        <time>2020-08-22 10:04:42</time>
      </trkpt>
      <trkpt lat="41.23129" lon="1.06329">
        <ele>535.6</ele>
        <time>2020-08-22 10:04:43</time>
      </trkpt>
      <trkpt lat="41.2313" lon="1.06329">
        <ele>535.6</ele>
        <time>2020-08-22 10:04:44</time>
      </trkpt>
      <trkpt lat="41.23132" lon="1.0633">
        <ele>536</ele>
        <time>2020-08-22 10:04:45</time>
      </trkpt>
      <trkpt lat="41.23134" lon="1.06331">
        <ele>536.2</ele>
        <time>2020-08-22 10:04:46</time>
      </trkpt>
      <trkpt lat="41.23136" lon="1.06332">
        <ele>536.6</ele>
        <time>2020-08-22 10:04:47</time>
      </trkpt>
      <trkpt lat="41.23138" lon="1.06332">
        <ele>537</ele>
        <time>2020-08-22 10:04:48</time>
      </trkpt>
      <trkpt lat="41.2314" lon="1.06333">
        <ele>537</ele>
        <time>2020-08-22 10:04:49</time>
      </trkpt>
      <trkpt lat="41.23142" lon="1.06335">
        <ele>537.4</ele>
        <time>2020-08-22 10:04:50</time>
      </trkpt>
      <trkpt lat="41.23144" lon="1.06337">
        <ele>537.6</ele>
        <time>2020-08-22 10:04:51</time>
      </trkpt>
      <trkpt lat="41.23145" lon="1.06338">
        <ele>538</ele>
        <time>2020-08-22 10:04:52</time>
      </trkpt>
      <trkpt lat="41.23147" lon="1.0634">
        <ele>538.2</ele>
        <time>2020-08-22 10:04:53</time>
      </trkpt>
      <trkpt lat="41.23149" lon="1.06342">
        <ele>538.6</ele>
        <time>2020-08-22 10:04:54</time>
      </trkpt>
      <trkpt lat="41.23151" lon="1.06344">
        <ele>538.8</ele>
        <time>2020-08-22 10:04:55</time>
      </trkpt>
      <trkpt lat="41.23153" lon="1.06346">
        <ele>539</ele>
        <time>2020-08-22 10:04:56</time>
      </trkpt>
      <trkpt lat="41.23154" lon="1.06348">
        <ele>539.4</ele>
        <time>2020-08-22 10:04:57</time>
      </trkpt>
      <trkpt lat="41.23156" lon="1.0635">
        <ele>539.4</ele>
        <time>2020-08-22 10:04:58</time>
      </trkpt>
      <trkpt lat="41.23158" lon="1.06351">
        <ele>539.6</ele>
        <time>2020-08-22 10:04:59</time>
      </trkpt>
      <trkpt lat="41.2316" lon="1.06353">
        <ele>539.4</ele>
        <time>2020-08-22 10:05:00</time>
      </trkpt>
      <trkpt lat="41.23162" lon="1.06354">
        <ele>539.6</ele>
        <time>2020-08-22 10:05:01</time>
      </trkpt>
      <trkpt lat="41.23163" lon="1.06355">
        <ele>539.8</ele>
        <time>2020-08-22 10:05:02</time>
      </trkpt>
      <trkpt lat="41.23165" lon="1.06357">
        <ele>540</ele>
        <time>2020-08-22 10:05:03</time>
      </trkpt>
      <trkpt lat="41.23166" lon="1.06358">
        <ele>540.4</ele>
        <time>2020-08-22 10:05:04</time>
      </trkpt>
      <trkpt lat="41.23168" lon="1.0636">
        <ele>540.4</ele>
        <time>2020-08-22 10:05:05</time>
      </trkpt>
      <trkpt lat="41.2317" lon="1.06361">
        <ele>540.6</ele>
        <time>2020-08-22 10:05:06</time>
      </trkpt>
      <trkpt lat="41.23173" lon="1.06363">
        <ele>540.6</ele>
        <time>2020-08-22 10:05:07</time>
      </trkpt>
      <trkpt lat="41.23174" lon="1.06364">
        <ele>540.8</ele>
        <time>2020-08-22 10:05:08</time>
      </trkpt>
      <trkpt lat="41.23176" lon="1.06365">
        <ele>540.8</ele>
        <time>2020-08-22 10:05:09</time>
      </trkpt>
      <trkpt lat="41.23179" lon="1.06367">
        <ele>541</ele>
        <time>2020-08-22 10:05:10</time>
      </trkpt>
      <trkpt lat="41.2318" lon="1.06368">
        <ele>541.2</ele>
        <time>2020-08-22 10:05:11</time>
      </trkpt>
      <trkpt lat="41.23184" lon="1.0637">
        <ele>541.4</ele>
        <time>2020-08-22 10:05:12</time>
      </trkpt>
      <trkpt lat="41.23187" lon="1.06372">
        <ele>541.6</ele>
        <time>2020-08-22 10:05:13</time>
      </trkpt>
      <trkpt lat="41.23188" lon="1.06373">
        <ele>541.6</ele>
        <time>2020-08-22 10:05:14</time>
      </trkpt>
      <trkpt lat="41.2319" lon="1.06374">
        <ele>541.6</ele>
        <time>2020-08-22 10:05:15</time>
      </trkpt>
      <trkpt lat="41.23191" lon="1.06374">
        <ele>541.8</ele>
        <time>2020-08-22 10:05:16</time>
      </trkpt>
      <trkpt lat="41.23193" lon="1.06376">
        <ele>541.6</ele>
        <time>2020-08-22 10:05:17</time>
      </trkpt>
      <trkpt lat="41.23195" lon="1.06376">
        <ele>541.6</ele>
        <time>2020-08-22 10:05:18</time>
      </trkpt>
      <trkpt lat="41.23198" lon="1.06377">
        <ele>541.8</ele>
        <time>2020-08-22 10:05:19</time>
      </trkpt>
      <trkpt lat="41.23201" lon="1.06379">
        <ele>542</ele>
        <time>2020-08-22 10:05:20</time>
      </trkpt>
      <trkpt lat="41.23205" lon="1.06382">
        <ele>542.2</ele>
        <time>2020-08-22 10:05:21</time>
      </trkpt>
      <trkpt lat="41.23208" lon="1.06384">
        <ele>542.2</ele>
        <time>2020-08-22 10:05:22</time>
      </trkpt>
      <trkpt lat="41.23211" lon="1.06386">
        <ele>542.4</ele>
        <time>2020-08-22 10:05:23</time>
      </trkpt>
      <trkpt lat="41.23213" lon="1.06387">
        <ele>542.6</ele>
        <time>2020-08-22 10:05:24</time>
      </trkpt>
      <trkpt lat="41.23215" lon="1.06389">
        <ele>542.6</ele>
        <time>2020-08-22 10:05:25</time>
      </trkpt>
      <trkpt lat="41.23217" lon="1.06391">
        <ele>543</ele>
        <time>2020-08-22 10:05:26</time>
      </trkpt>
      <trkpt lat="41.2322" lon="1.06392">
        <ele>543</ele>
        <time>2020-08-22 10:05:27</time>
      </trkpt>
      <trkpt lat="41.23221" lon="1.06393">
        <ele>543.4</ele>
        <time>2020-08-22 10:05:28</time>
      </trkpt>
      <trkpt lat="41.23224" lon="1.06394">
        <ele>543.4</ele>
        <time>2020-08-22 10:05:29</time>
      </trkpt>
      <trkpt lat="41.23226" lon="1.06395">
        <ele>543.6</ele>
        <time>2020-08-22 10:05:30</time>
      </trkpt>
      <trkpt lat="41.23228" lon="1.06396">
        <ele>543.8</ele>
        <time>2020-08-22 10:05:31</time>
      </trkpt>
      <trkpt lat="41.2323" lon="1.06398">
        <ele>544</ele>
        <time>2020-08-22 10:05:32</time>
      </trkpt>
      <trkpt lat="41.23232" lon="1.064">
        <ele>544</ele>
        <time>2020-08-22 10:05:33</time>
      </trkpt>
      <trkpt lat="41.23234" lon="1.06402">
        <ele>544.2</ele>
        <time>2020-08-22 10:05:34</time>
      </trkpt>
      <trkpt lat="41.23236" lon="1.06403">
        <ele>544.6</ele>
        <time>2020-08-22 10:05:35</time>
      </trkpt>
      <trkpt lat="41.23238" lon="1.06404">
        <ele>544.6</ele>
        <time>2020-08-22 10:05:36</time>
      </trkpt>
      <trkpt lat="41.2324" lon="1.06405">
        <ele>544.8</ele>
        <time>2020-08-22 10:05:37</time>
      </trkpt>
      <trkpt lat="41.23242" lon="1.06405">
        <ele>545</ele>
        <time>2020-08-22 10:05:38</time>
      </trkpt>
      <trkpt lat="41.23244" lon="1.06404">
        <ele>545</ele>
        <time>2020-08-22 10:05:39</time>
      </trkpt>
      <trkpt lat="41.23245" lon="1.06402">
        <ele>545.2</ele>
        <time>2020-08-22 10:05:40</time>
      </trkpt>
      <trkpt lat="41.23246" lon="1.064">
        <ele>545.4</ele>
        <time>2020-08-22 10:05:41</time>
      </trkpt>
      <trkpt lat="41.23246" lon="1.06398">
        <ele>545.6</ele>
        <time>2020-08-22 10:05:42</time>
      </trkpt>
      <trkpt lat="41.23245" lon="1.06395">
        <ele>545.8</ele>
        <time>2020-08-22 10:05:43</time>
      </trkpt>
      <trkpt lat="41.23243" lon="1.06393">
        <ele>546.2</ele>
        <time>2020-08-22 10:05:44</time>
      </trkpt>
      <trkpt lat="41.23242" lon="1.06392">
        <ele>546.4</ele>
        <time>2020-08-22 10:05:45</time>
      </trkpt>
      <trkpt lat="41.2324" lon="1.0639">
        <ele>546.8</ele>
        <time>2020-08-22 10:05:46</time>
      </trkpt>
      <trkpt lat="41.23238" lon="1.06389">
        <ele>547</ele>
        <time>2020-08-22 10:05:47</time>
      </trkpt>
      <trkpt lat="41.23236" lon="1.06388">
        <ele>547.2</ele>
        <time>2020-08-22 10:05:48</time>
      </trkpt>
      <trkpt lat="41.23234" lon="1.06386">
        <ele>547.6</ele>
        <time>2020-08-22 10:05:49</time>
      </trkpt>
      <trkpt lat="41.23232" lon="1.06384">
        <ele>547.6</ele>
        <time>2020-08-22 10:05:50</time>
      </trkpt>
      <trkpt lat="41.23231" lon="1.06383">
        <ele>548</ele>
        <time>2020-08-22 10:05:51</time>
      </trkpt>
      <trkpt lat="41.2323" lon="1.06381">
        <ele>548.2</ele>
        <time>2020-08-22 10:05:52</time>
      </trkpt>
      <trkpt lat="41.23228" lon="1.0638">
        <ele>548.4</ele>
        <time>2020-08-22 10:05:53</time>
      </trkpt>
      <trkpt lat="41.23226" lon="1.06378">
        <ele>548.4</ele>
        <time>2020-08-22 10:05:54</time>
      </trkpt>
      <trkpt lat="41.23224" lon="1.06376">
        <ele>548.6</ele>
        <time>2020-08-22 10:05:55</time>
      </trkpt>
      <trkpt lat="41.23222" lon="1.06373">
        <ele>548.8</ele>
        <time>2020-08-22 10:05:56</time>
      </trkpt>
      <trkpt lat="41.23221" lon="1.06372">
        <ele>548.8</ele>
        <time>2020-08-22 10:05:57</time>
      </trkpt>
      <trkpt lat="41.23219" lon="1.06369">
        <ele>548.8</ele>
        <time>2020-08-22 10:05:58</time>
      </trkpt>
      <trkpt lat="41.23218" lon="1.06366">
        <ele>549</ele>
        <time>2020-08-22 10:05:59</time>
      </trkpt>
      <trkpt lat="41.23216" lon="1.06364">
        <ele>549</ele>
        <time>2020-08-22 10:06:00</time>
      </trkpt>
      <trkpt lat="41.23214" lon="1.06362">
        <ele>549.2</ele>
        <time>2020-08-22 10:06:01</time>
      </trkpt>
      <trkpt lat="41.23213" lon="1.06359">
        <ele>549.2</ele>
        <time>2020-08-22 10:06:02</time>
      </trkpt>
      <trkpt lat="41.23211" lon="1.06357">
        <ele>549.2</ele>
        <time>2020-08-22 10:06:03</time>
      </trkpt>
      <trkpt lat="41.23209" lon="1.06354">
        <ele>549.4</ele>
        <time>2020-08-22 10:06:04</time>
      </trkpt>
      <trkpt lat="41.23207" lon="1.06351">
        <ele>549.6</ele>
        <time>2020-08-22 10:06:05</time>
      </trkpt>
      <trkpt lat="41.23205" lon="1.06348">
        <ele>549.6</ele>
        <time>2020-08-22 10:06:06</time>
      </trkpt>
      <trkpt lat="41.23204" lon="1.06347">
        <ele>549.8</ele>
        <time>2020-08-22 10:06:07</time>
      </trkpt>
      <trkpt lat="41.23202" lon="1.06343">
        <ele>550</ele>
        <time>2020-08-22 10:06:08</time>
      </trkpt>
      <trkpt lat="41.23201" lon="1.06341">
        <ele>550.2</ele>
        <time>2020-08-22 10:06:09</time>
      </trkpt>
      <trkpt lat="41.23199" lon="1.06339">
        <ele>550.4</ele>
        <time>2020-08-22 10:06:10</time>
      </trkpt>
      <trkpt lat="41.23197" lon="1.06337">
        <ele>550.6</ele>
        <time>2020-08-22 10:06:11</time>
      </trkpt>
      <trkpt lat="41.23196" lon="1.06334">
        <ele>550.8</ele>
        <time>2020-08-22 10:06:12</time>
      </trkpt>
      <trkpt lat="41.23193" lon="1.06331">
        <ele>551</ele>
        <time>2020-08-22 10:06:13</time>
      </trkpt>
      <trkpt lat="41.23192" lon="1.06327">
        <ele>551.2</ele>
        <time>2020-08-22 10:06:14</time>
      </trkpt>
      <trkpt lat="41.2319" lon="1.06324">
        <ele>551.2</ele>
        <time>2020-08-22 10:06:15</time>
      </trkpt>
      <trkpt lat="41.23189" lon="1.0632">
        <ele>551.4</ele>
        <time>2020-08-22 10:06:16</time>
      </trkpt>
      <trkpt lat="41.23187" lon="1.06316">
        <ele>551.6</ele>
        <time>2020-08-22 10:06:17</time>
      </trkpt>
      <trkpt lat="41.23186" lon="1.06312">
        <ele>551.6</ele>
        <time>2020-08-22 10:06:18</time>
      </trkpt>
      <trkpt lat="41.23184" lon="1.06309">
        <ele>551.8</ele>
        <time>2020-08-22 10:06:19</time>
      </trkpt>
      <trkpt lat="41.23182" lon="1.06305">
        <ele>551.8</ele>
        <time>2020-08-22 10:06:20</time>
      </trkpt>
      <trkpt lat="41.2318" lon="1.06301">
        <ele>552.2</ele>
        <time>2020-08-22 10:06:21</time>
      </trkpt>
      <trkpt lat="41.23179" lon="1.06298">
        <ele>552.2</ele>
        <time>2020-08-22 10:06:22</time>
      </trkpt>
      <trkpt lat="41.23176" lon="1.06294">
        <ele>552.6</ele>
        <time>2020-08-22 10:06:23</time>
      </trkpt>
      <trkpt lat="41.23175" lon="1.06292">
        <ele>552.8</ele>
        <time>2020-08-22 10:06:24</time>
      </trkpt>
      <trkpt lat="41.23173" lon="1.06289">
        <ele>552.8</ele>
        <time>2020-08-22 10:06:25</time>
      </trkpt>
      <trkpt lat="41.23172" lon="1.06285">
        <ele>552.8</ele>
        <time>2020-08-22 10:06:26</time>
      </trkpt>
      <trkpt lat="41.23171" lon="1.06281">
        <ele>553.2</ele>
        <time>2020-08-22 10:06:27</time>
      </trkpt>
      <trkpt lat="41.23169" lon="1.06277">
        <ele>553.4</ele>
        <time>2020-08-22 10:06:28</time>
      </trkpt>
      <trkpt lat="41.23168" lon="1.06274">
        <ele>553.6</ele>
        <time>2020-08-22 10:06:29</time>
      </trkpt>
      <trkpt lat="41.23166" lon="1.06271">
        <ele>554</ele>
        <time>2020-08-22 10:06:30</time>
      </trkpt>
      <trkpt lat="41.23165" lon="1.06268">
        <ele>554.2</ele>
        <time>2020-08-22 10:06:31</time>
      </trkpt>
      <trkpt lat="41.23164" lon="1.06265">
        <ele>554.2</ele>
        <time>2020-08-22 10:06:32</time>
      </trkpt>
      <trkpt lat="41.23164" lon="1.06262">
        <ele>554.4</ele>
        <time>2020-08-22 10:06:33</time>
      </trkpt>
      <trkpt lat="41.23163" lon="1.06259">
        <ele>554.6</ele>
        <time>2020-08-22 10:06:34</time>
      </trkpt>
      <trkpt lat="41.23164" lon="1.06256">
        <ele>555</ele>
        <time>2020-08-22 10:06:35</time>
      </trkpt>
      <trkpt lat="41.23163" lon="1.06253">
        <ele>555.6</ele>
        <time>2020-08-22 10:06:36</time>
      </trkpt>
      <trkpt lat="41.23163" lon="1.0625">
        <ele>555.8</ele>
        <time>2020-08-22 10:06:37</time>
      </trkpt>
      <trkpt lat="41.23162" lon="1.06247">
        <ele>556</ele>
        <time>2020-08-22 10:06:38</time>
      </trkpt>
      <trkpt lat="41.23161" lon="1.06244">
        <ele>556.2</ele>
        <time>2020-08-22 10:06:39</time>
      </trkpt>
      <trkpt lat="41.2316" lon="1.0624">
        <ele>556.4</ele>
        <time>2020-08-22 10:06:40</time>
      </trkpt>
      <trkpt lat="41.23159" lon="1.06238">
        <ele>556.4</ele>
        <time>2020-08-22 10:06:41</time>
      </trkpt>
      <trkpt lat="41.23158" lon="1.06236">
        <ele>556.6</ele>
        <time>2020-08-22 10:06:42</time>
      </trkpt>
      <trkpt lat="41.23156" lon="1.06234">
        <ele>556.4</ele>
        <time>2020-08-22 10:06:43</time>
      </trkpt>
      <trkpt lat="41.23154" lon="1.06232">
        <ele>556.4</ele>
        <time>2020-08-22 10:06:44</time>
      </trkpt>
      <trkpt lat="41.23153" lon="1.06229">
        <ele>556.8</ele>
        <time>2020-08-22 10:06:45</time>
      </trkpt>
      <trkpt lat="41.23152" lon="1.06226">
        <ele>557</ele>
        <time>2020-08-22 10:06:46</time>
      </trkpt>
      <trkpt lat="41.23151" lon="1.06223">
        <ele>557.4</ele>
        <time>2020-08-22 10:06:47</time>
      </trkpt>
      <trkpt lat="41.23151" lon="1.0622">
        <ele>557.6</ele>
        <time>2020-08-22 10:06:48</time>
      </trkpt>
      <trkpt lat="41.23152" lon="1.06217">
        <ele>557.8</ele>
        <time>2020-08-22 10:06:49</time>
      </trkpt>
      <trkpt lat="41.23153" lon="1.06213">
        <ele>558</ele>
        <time>2020-08-22 10:06:50</time>
      </trkpt>
      <trkpt lat="41.23154" lon="1.06211">
        <ele>558</ele>
        <time>2020-08-22 10:06:51</time>
      </trkpt>
      <trkpt lat="41.23155" lon="1.06209">
        <ele>558.2</ele>
        <time>2020-08-22 10:06:52</time>
      </trkpt>
      <trkpt lat="41.23156" lon="1.06206">
        <ele>558.4</ele>
        <time>2020-08-22 10:06:53</time>
      </trkpt>
      <trkpt lat="41.23157" lon="1.06204">
        <ele>558.6</ele>
        <time>2020-08-22 10:06:54</time>
      </trkpt>
      <trkpt lat="41.23158" lon="1.06201">
        <ele>558.8</ele>
        <time>2020-08-22 10:06:55</time>
      </trkpt>
      <trkpt lat="41.23159" lon="1.06199">
        <ele>559</ele>
        <time>2020-08-22 10:06:56</time>
      </trkpt>
      <trkpt lat="41.2316" lon="1.06196">
        <ele>559.2</ele>
        <time>2020-08-22 10:06:57</time>
      </trkpt>
      <trkpt lat="41.23162" lon="1.06194">
        <ele>559.4</ele>
        <time>2020-08-22 10:06:58</time>
      </trkpt>
      <trkpt lat="41.23163" lon="1.06191">
        <ele>559.6</ele>
        <time>2020-08-22 10:06:59</time>
      </trkpt>
      <trkpt lat="41.23164" lon="1.06189">
        <ele>559.6</ele>
        <time>2020-08-22 10:07:00</time>
      </trkpt>
      <trkpt lat="41.23164" lon="1.06186">
        <ele>559.8</ele>
        <time>2020-08-22 10:07:01</time>
      </trkpt>
      <trkpt lat="41.23165" lon="1.06182">
        <ele>560</ele>
        <time>2020-08-22 10:07:02</time>
      </trkpt>
      <trkpt lat="41.23165" lon="1.06178">
        <ele>560.2</ele>
        <time>2020-08-22 10:07:03</time>
      </trkpt>
      <trkpt lat="41.23165" lon="1.06175">
        <ele>560.4</ele>
        <time>2020-08-22 10:07:04</time>
      </trkpt>
      <trkpt lat="41.23164" lon="1.06171">
        <ele>560.4</ele>
        <time>2020-08-22 10:07:05</time>
      </trkpt>
      <trkpt lat="41.23163" lon="1.06167">
        <ele>560.8</ele>
        <time>2020-08-22 10:07:06</time>
      </trkpt>
      <trkpt lat="41.23162" lon="1.06163">
        <ele>560.8</ele>
        <time>2020-08-22 10:07:07</time>
      </trkpt>
      <trkpt lat="41.23161" lon="1.06158">
        <ele>561</ele>
        <time>2020-08-22 10:07:08</time>
      </trkpt>
      <trkpt lat="41.23161" lon="1.06154">
        <ele>561.4</ele>
        <time>2020-08-22 10:07:09</time>
      </trkpt>
      <trkpt lat="41.2316" lon="1.0615">
        <ele>561.6</ele>
        <time>2020-08-22 10:07:10</time>
      </trkpt>
      <trkpt lat="41.23161" lon="1.06146">
        <ele>561.8</ele>
        <time>2020-08-22 10:07:11</time>
      </trkpt>
      <trkpt lat="41.2316" lon="1.06141">
        <ele>562</ele>
        <time>2020-08-22 10:07:12</time>
      </trkpt>
      <trkpt lat="41.2316" lon="1.06136">
        <ele>562.2</ele>
        <time>2020-08-22 10:07:13</time>
      </trkpt>
      <trkpt lat="41.23159" lon="1.06131">
        <ele>562.4</ele>
        <time>2020-08-22 10:07:14</time>
      </trkpt>
      <trkpt lat="41.23158" lon="1.06127">
        <ele>562.6</ele>
        <time>2020-08-22 10:07:15</time>
      </trkpt>
      <trkpt lat="41.23155" lon="1.06124">
        <ele>562.8</ele>
        <time>2020-08-22 10:07:16</time>
      </trkpt>
      <trkpt lat="41.23152" lon="1.06123">
        <ele>563</ele>
        <time>2020-08-22 10:07:17</time>
      </trkpt>
      <trkpt lat="41.2315" lon="1.06121">
        <ele>563.2</ele>
        <time>2020-08-22 10:07:18</time>
      </trkpt>
      <trkpt lat="41.23147" lon="1.0612">
        <ele>563.4</ele>
        <time>2020-08-22 10:07:19</time>
      </trkpt>
      <trkpt lat="41.23144" lon="1.06118">
        <ele>563.4</ele>
        <time>2020-08-22 10:07:20</time>
      </trkpt>
      <trkpt lat="41.23141" lon="1.06118">
        <ele>563.8</ele>
        <time>2020-08-22 10:07:21</time>
      </trkpt>
      <trkpt lat="41.23139" lon="1.06117">
        <ele>564</ele>
        <time>2020-08-22 10:07:22</time>
      </trkpt>
      <trkpt lat="41.23137" lon="1.06115">
        <ele>564.2</ele>
        <time>2020-08-22 10:07:23</time>
      </trkpt>
      <trkpt lat="41.23134" lon="1.06113">
        <ele>564</ele>
        <time>2020-08-22 10:07:24</time>
      </trkpt>
      <trkpt lat="41.23131" lon="1.0611">
        <ele>564.2</ele>
        <time>2020-08-22 10:07:25</time>
      </trkpt>
      <trkpt lat="41.23129" lon="1.06109">
        <ele>564.2</ele>
        <time>2020-08-22 10:07:26</time>
      </trkpt>
      <trkpt lat="41.23127" lon="1.06108">
        <ele>564.4</ele>
        <time>2020-08-22 10:07:27</time>
      </trkpt>
      <trkpt lat="41.23125" lon="1.06106">
        <ele>564.8</ele>
        <time>2020-08-22 10:07:28</time>
      </trkpt>
      <trkpt lat="41.23122" lon="1.06104">
        <ele>564.8</ele>
        <time>2020-08-22 10:07:29</time>
      </trkpt>
      <trkpt lat="41.2312" lon="1.06102">
        <ele>565</ele>
        <time>2020-08-22 10:07:30</time>
      </trkpt>
      <trkpt lat="41.23118" lon="1.061">
        <ele>565.2</ele>
        <time>2020-08-22 10:07:31</time>
      </trkpt>
      <trkpt lat="41.23116" lon="1.06097">
        <ele>565.4</ele>
        <time>2020-08-22 10:07:32</time>
      </trkpt>
      <trkpt lat="41.23113" lon="1.06094">
        <ele>565.6</ele>
        <time>2020-08-22 10:07:33</time>
      </trkpt>
      <trkpt lat="41.23111" lon="1.06091">
        <ele>565.8</ele>
        <time>2020-08-22 10:07:34</time>
      </trkpt>
      <trkpt lat="41.23108" lon="1.06089">
        <ele>566</ele>
        <time>2020-08-22 10:07:35</time>
      </trkpt>
      <trkpt lat="41.23107" lon="1.06087">
        <ele>566</ele>
        <time>2020-08-22 10:07:36</time>
      </trkpt>
      <trkpt lat="41.23106" lon="1.06085">
        <ele>566.2</ele>
        <time>2020-08-22 10:07:37</time>
      </trkpt>
      <trkpt lat="41.23104" lon="1.06082">
        <ele>566.4</ele>
        <time>2020-08-22 10:07:38</time>
      </trkpt>
      <trkpt lat="41.23101" lon="1.0608">
        <ele>566.6</ele>
        <time>2020-08-22 10:07:39</time>
      </trkpt>
      <trkpt lat="41.23098" lon="1.06077">
        <ele>566.6</ele>
        <time>2020-08-22 10:07:40</time>
      </trkpt>
      <trkpt lat="41.23097" lon="1.06074">
        <ele>566.8</ele>
        <time>2020-08-22 10:07:41</time>
      </trkpt>
      <trkpt lat="41.23096" lon="1.06072">
        <ele>566.6</ele>
        <time>2020-08-22 10:07:42</time>
      </trkpt>
      <trkpt lat="41.23095" lon="1.0607">
        <ele>566.8</ele>
        <time>2020-08-22 10:07:43</time>
      </trkpt>
      <trkpt lat="41.23093" lon="1.06067">
        <ele>567.2</ele>
        <time>2020-08-22 10:07:44</time>
      </trkpt>
      <trkpt lat="41.23091" lon="1.06064">
        <ele>567.4</ele>
        <time>2020-08-22 10:07:45</time>
      </trkpt>
      <trkpt lat="41.2309" lon="1.06062">
        <ele>567.8</ele>
        <time>2020-08-22 10:07:46</time>
      </trkpt>
      <trkpt lat="41.23088" lon="1.0606">
        <ele>568</ele>
        <time>2020-08-22 10:07:47</time>
      </trkpt>
      <trkpt lat="41.23087" lon="1.06057">
        <ele>568</ele>
        <time>2020-08-22 10:07:48</time>
      </trkpt>
      <trkpt lat="41.23086" lon="1.06055">
        <ele>568.2</ele>
        <time>2020-08-22 10:07:49</time>
      </trkpt>
      <trkpt lat="41.23085" lon="1.06052">
        <ele>568.4</ele>
        <time>2020-08-22 10:07:50</time>
      </trkpt>
      <trkpt lat="41.23085" lon="1.06049">
        <ele>568.6</ele>
        <time>2020-08-22 10:07:51</time>
      </trkpt>
      <trkpt lat="41.23084" lon="1.06046">
        <ele>568.6</ele>
        <time>2020-08-22 10:07:52</time>
      </trkpt>
      <trkpt lat="41.23083" lon="1.06043">
        <ele>568.8</ele>
        <time>2020-08-22 10:07:53</time>
      </trkpt>
      <trkpt lat="41.23083" lon="1.0604">
        <ele>568.8</ele>
        <time>2020-08-22 10:07:54</time>
      </trkpt>
      <trkpt lat="41.23082" lon="1.06036">
        <ele>569</ele>
        <time>2020-08-22 10:07:55</time>
      </trkpt>
      <trkpt lat="41.23081" lon="1.06033">
        <ele>569.2</ele>
        <time>2020-08-22 10:07:56</time>
      </trkpt>
      <trkpt lat="41.2308" lon="1.0603">
        <ele>569.4</ele>
        <time>2020-08-22 10:07:57</time>
      </trkpt>
      <trkpt lat="41.2308" lon="1.06026">
        <ele>569.6</ele>
        <time>2020-08-22 10:07:58</time>
      </trkpt>
      <trkpt lat="41.2308" lon="1.06024">
        <ele>569.8</ele>
        <time>2020-08-22 10:07:59</time>
      </trkpt>
      <trkpt lat="41.23079" lon="1.0602">
        <ele>570</ele>
        <time>2020-08-22 10:08:00</time>
      </trkpt>
      <trkpt lat="41.23079" lon="1.06017">
        <ele>570</ele>
        <time>2020-08-22 10:08:01</time>
      </trkpt>
      <trkpt lat="41.23079" lon="1.06013">
        <ele>570.4</ele>
        <time>2020-08-22 10:08:02</time>
      </trkpt>
      <trkpt lat="41.23079" lon="1.06011">
        <ele>570.4</ele>
        <time>2020-08-22 10:08:03</time>
      </trkpt>
      <trkpt lat="41.23079" lon="1.06008">
        <ele>570.8</ele>
        <time>2020-08-22 10:08:04</time>
      </trkpt>
      <trkpt lat="41.2308" lon="1.06005">
        <ele>571</ele>
        <time>2020-08-22 10:08:05</time>
      </trkpt>
      <trkpt lat="41.23081" lon="1.06002">
        <ele>571</ele>
        <time>2020-08-22 10:08:06</time>
      </trkpt>
      <trkpt lat="41.23082" lon="1.05999">
        <ele>571.4</ele>
        <time>2020-08-22 10:08:07</time>
      </trkpt>
      <trkpt lat="41.23081" lon="1.05995">
        <ele>571.6</ele>
        <time>2020-08-22 10:08:08</time>
      </trkpt>
      <trkpt lat="41.23082" lon="1.05991">
        <ele>571.8</ele>
        <time>2020-08-22 10:08:09</time>
      </trkpt>
      <trkpt lat="41.23082" lon="1.05987">
        <ele>572</ele>
        <time>2020-08-22 10:08:10</time>
      </trkpt>
      <trkpt lat="41.23083" lon="1.05984">
        <ele>572.2</ele>
        <time>2020-08-22 10:08:11</time>
      </trkpt>
      <trkpt lat="41.23084" lon="1.05981">
        <ele>572.6</ele>
        <time>2020-08-22 10:08:12</time>
      </trkpt>
      <trkpt lat="41.23086" lon="1.05978">
        <ele>572.8</ele>
        <time>2020-08-22 10:08:13</time>
      </trkpt>
      <trkpt lat="41.23087" lon="1.05975">
        <ele>573</ele>
        <time>2020-08-22 10:08:14</time>
      </trkpt>
      <trkpt lat="41.23088" lon="1.05972">
        <ele>573</ele>
        <time>2020-08-22 10:08:15</time>
      </trkpt>
      <trkpt lat="41.23091" lon="1.05969">
        <ele>573.2</ele>
        <time>2020-08-22 10:08:16</time>
      </trkpt>
      <trkpt lat="41.23092" lon="1.05966">
        <ele>573.4</ele>
        <time>2020-08-22 10:08:17</time>
      </trkpt>
      <trkpt lat="41.23094" lon="1.05963">
        <ele>573.4</ele>
        <time>2020-08-22 10:08:18</time>
      </trkpt>
      <trkpt lat="41.23095" lon="1.0596">
        <ele>573.6</ele>
        <time>2020-08-22 10:08:19</time>
      </trkpt>
      <trkpt lat="41.23097" lon="1.05958">
        <ele>574</ele>
        <time>2020-08-22 10:08:20</time>
      </trkpt>
      <trkpt lat="41.23098" lon="1.05955">
        <ele>574.2</ele>
        <time>2020-08-22 10:08:21</time>
      </trkpt>
      <trkpt lat="41.231" lon="1.05952">
        <ele>574.4</ele>
        <time>2020-08-22 10:08:22</time>
      </trkpt>
      <trkpt lat="41.23101" lon="1.05948">
        <ele>574.8</ele>
        <time>2020-08-22 10:08:23</time>
      </trkpt>
      <trkpt lat="41.23102" lon="1.05945">
        <ele>574.8</ele>
        <time>2020-08-22 10:08:24</time>
      </trkpt>
      <trkpt lat="41.23105" lon="1.05941">
        <ele>575</ele>
        <time>2020-08-22 10:08:25</time>
      </trkpt>
      <trkpt lat="41.23107" lon="1.05938">
        <ele>575.2</ele>
        <time>2020-08-22 10:08:26</time>
      </trkpt>
      <trkpt lat="41.2311" lon="1.05936">
        <ele>575.2</ele>
        <time>2020-08-22 10:08:27</time>
      </trkpt>
      <trkpt lat="41.23111" lon="1.05932">
        <ele>575.4</ele>
        <time>2020-08-22 10:08:28</time>
      </trkpt>
      <trkpt lat="41.23114" lon="1.05929">
        <ele>575.4</ele>
        <time>2020-08-22 10:08:29</time>
      </trkpt>
      <trkpt lat="41.23116" lon="1.05927">
        <ele>575.8</ele>
        <time>2020-08-22 10:08:30</time>
      </trkpt>
      <trkpt lat="41.23118" lon="1.05925">
        <ele>576</ele>
        <time>2020-08-22 10:08:31</time>
      </trkpt>
      <trkpt lat="41.2312" lon="1.05923">
        <ele>576.2</ele>
        <time>2020-08-22 10:08:32</time>
      </trkpt>
      <trkpt lat="41.23123" lon="1.05922">
        <ele>576.4</ele>
        <time>2020-08-22 10:08:33</time>
      </trkpt>
      <trkpt lat="41.23126" lon="1.05921">
        <ele>576.6</ele>
        <time>2020-08-22 10:08:34</time>
      </trkpt>
      <trkpt lat="41.23129" lon="1.0592">
        <ele>576.4</ele>
        <time>2020-08-22 10:08:35</time>
      </trkpt>
      <trkpt lat="41.23131" lon="1.05918">
        <ele>576.8</ele>
        <time>2020-08-22 10:08:36</time>
      </trkpt>
      <trkpt lat="41.23133" lon="1.05916">
        <ele>576.6</ele>
        <time>2020-08-22 10:08:37</time>
      </trkpt>
      <trkpt lat="41.23136" lon="1.05915">
        <ele>577</ele>
        <time>2020-08-22 10:08:38</time>
      </trkpt>
      <trkpt lat="41.23138" lon="1.05913">
        <ele>577.4</ele>
        <time>2020-08-22 10:08:39</time>
      </trkpt>
      <trkpt lat="41.2314" lon="1.05912">
        <ele>577.6</ele>
        <time>2020-08-22 10:08:40</time>
      </trkpt>
      <trkpt lat="41.23142" lon="1.0591">
        <ele>578</ele>
        <time>2020-08-22 10:08:41</time>
      </trkpt>
      <trkpt lat="41.23144" lon="1.05909">
        <ele>578</ele>
        <time>2020-08-22 10:08:42</time>
      </trkpt>
      <trkpt lat="41.23146" lon="1.05907">
        <ele>578.2</ele>
        <time>2020-08-22 10:08:43</time>
      </trkpt>
      <trkpt lat="41.23148" lon="1.05905">
        <ele>578.4</ele>
        <time>2020-08-22 10:08:44</time>
      </trkpt>
      <trkpt lat="41.2315" lon="1.05903">
        <ele>578.4</ele>
        <time>2020-08-22 10:08:45</time>
      </trkpt>
      <trkpt lat="41.23152" lon="1.05901">
        <ele>578.8</ele>
        <time>2020-08-22 10:08:46</time>
      </trkpt>
      <trkpt lat="41.23155" lon="1.05899">
        <ele>578.8</ele>
        <time>2020-08-22 10:08:47</time>
      </trkpt>
      <trkpt lat="41.23157" lon="1.05898">
        <ele>579</ele>
        <time>2020-08-22 10:08:48</time>
      </trkpt>
      <trkpt lat="41.2316" lon="1.05896">
        <ele>579.2</ele>
        <time>2020-08-22 10:08:49</time>
      </trkpt>
      <trkpt lat="41.23162" lon="1.05895">
        <ele>579.2</ele>
        <time>2020-08-22 10:08:50</time>
      </trkpt>
      <trkpt lat="41.23164" lon="1.05895">
        <ele>579.4</ele>
        <time>2020-08-22 10:08:51</time>
      </trkpt>
      <trkpt lat="41.23167" lon="1.05894">
        <ele>580</ele>
        <time>2020-08-22 10:08:52</time>
      </trkpt>
      <trkpt lat="41.2317" lon="1.05894">
        <ele>580</ele>
        <time>2020-08-22 10:08:53</time>
      </trkpt>
      <trkpt lat="41.23173" lon="1.05892">
        <ele>580.4</ele>
        <time>2020-08-22 10:08:54</time>
      </trkpt>
      <trkpt lat="41.23175" lon="1.05891">
        <ele>580.6</ele>
        <time>2020-08-22 10:08:55</time>
      </trkpt>
      <trkpt lat="41.23177" lon="1.0589">
        <ele>580.8</ele>
        <time>2020-08-22 10:08:56</time>
      </trkpt>
      <trkpt lat="41.2318" lon="1.05889">
        <ele>581</ele>
        <time>2020-08-22 10:08:57</time>
      </trkpt>
      <trkpt lat="41.23183" lon="1.05887">
        <ele>581</ele>
        <time>2020-08-22 10:08:58</time>
      </trkpt>
      <trkpt lat="41.23185" lon="1.05886">
        <ele>581.2</ele>
        <time>2020-08-22 10:08:59</time>
      </trkpt>
      <trkpt lat="41.23188" lon="1.05885">
        <ele>581.4</ele>
        <time>2020-08-22 10:09:00</time>
      </trkpt>
      <trkpt lat="41.2319" lon="1.05885">
        <ele>581.6</ele>
        <time>2020-08-22 10:09:01</time>
      </trkpt>
      <trkpt lat="41.23193" lon="1.05885">
        <ele>581.8</ele>
        <time>2020-08-22 10:09:02</time>
      </trkpt>
      <trkpt lat="41.23195" lon="1.05885">
        <ele>582</ele>
        <time>2020-08-22 10:09:03</time>
      </trkpt>
      <trkpt lat="41.23196" lon="1.05885">
        <ele>582.4</ele>
        <time>2020-08-22 10:09:04</time>
      </trkpt>
      <trkpt lat="41.23198" lon="1.05886">
        <ele>582.6</ele>
        <time>2020-08-22 10:09:05</time>
      </trkpt>
      <trkpt lat="41.23201" lon="1.05886">
        <ele>582.8</ele>
        <time>2020-08-22 10:09:06</time>
      </trkpt>
      <trkpt lat="41.23204" lon="1.05887">
        <ele>583</ele>
        <time>2020-08-22 10:09:07</time>
      </trkpt>
      <trkpt lat="41.23206" lon="1.05887">
        <ele>583.4</ele>
        <time>2020-08-22 10:09:08</time>
      </trkpt>
      <trkpt lat="41.23208" lon="1.05888">
        <ele>583.6</ele>
        <time>2020-08-22 10:09:09</time>
      </trkpt>
      <trkpt lat="41.2321" lon="1.05889">
        <ele>584</ele>
        <time>2020-08-22 10:09:10</time>
      </trkpt>
      <trkpt lat="41.23211" lon="1.05889">
        <ele>584.2</ele>
        <time>2020-08-22 10:09:11</time>
      </trkpt>
      <trkpt lat="41.23213" lon="1.0589">
        <ele>584.4</ele>
        <time>2020-08-22 10:09:12</time>
      </trkpt>
      <trkpt lat="41.23215" lon="1.05891">
        <ele>584.4</ele>
        <time>2020-08-22 10:09:13</time>
      </trkpt>
      <trkpt lat="41.23217" lon="1.05892">
        <ele>584.6</ele>
        <time>2020-08-22 10:09:14</time>
      </trkpt>
      <trkpt lat="41.23219" lon="1.05893">
        <ele>584.8</ele>
        <time>2020-08-22 10:09:15</time>
      </trkpt>
      <trkpt lat="41.23222" lon="1.05893">
        <ele>585</ele>
        <time>2020-08-22 10:09:16</time>
      </trkpt>
      <trkpt lat="41.23225" lon="1.05894">
        <ele>585.2</ele>
        <time>2020-08-22 10:09:17</time>
      </trkpt>
      <trkpt lat="41.23227" lon="1.05894">
        <ele>585.2</ele>
        <time>2020-08-22 10:09:18</time>
      </trkpt>
      <trkpt lat="41.23229" lon="1.05895">
        <ele>585.4</ele>
        <time>2020-08-22 10:09:19</time>
      </trkpt>
      <trkpt lat="41.23232" lon="1.05896">
        <ele>585.8</ele>
        <time>2020-08-22 10:09:20</time>
      </trkpt>
      <trkpt lat="41.23234" lon="1.05895">
        <ele>585.8</ele>
        <time>2020-08-22 10:09:21</time>
      </trkpt>
      <trkpt lat="41.23236" lon="1.05894">
        <ele>586.2</ele>
        <time>2020-08-22 10:09:22</time>
      </trkpt>
      <trkpt lat="41.23239" lon="1.05893">
        <ele>586.4</ele>
        <time>2020-08-22 10:09:23</time>
      </trkpt>
      <trkpt lat="41.23242" lon="1.05892">
        <ele>586.6</ele>
        <time>2020-08-22 10:09:24</time>
      </trkpt>
      <trkpt lat="41.23245" lon="1.05891">
        <ele>586.6</ele>
        <time>2020-08-22 10:09:25</time>
      </trkpt>
      <trkpt lat="41.23248" lon="1.05889">
        <ele>587</ele>
        <time>2020-08-22 10:09:26</time>
      </trkpt>
      <trkpt lat="41.23251" lon="1.05888">
        <ele>587</ele>
        <time>2020-08-22 10:09:27</time>
      </trkpt>
      <trkpt lat="41.23254" lon="1.05887">
        <ele>587.2</ele>
        <time>2020-08-22 10:09:28</time>
      </trkpt>
      <trkpt lat="41.23256" lon="1.05886">
        <ele>587.6</ele>
        <time>2020-08-22 10:09:29</time>
      </trkpt>
      <trkpt lat="41.23259" lon="1.05885">
        <ele>587.8</ele>
        <time>2020-08-22 10:09:30</time>
      </trkpt>
      <trkpt lat="41.23261" lon="1.05883">
        <ele>588</ele>
        <time>2020-08-22 10:09:31</time>
      </trkpt>
      <trkpt lat="41.23263" lon="1.05881">
        <ele>588.2</ele>
        <time>2020-08-22 10:09:32</time>
      </trkpt>
      <trkpt lat="41.23266" lon="1.05878">
        <ele>588.4</ele>
        <time>2020-08-22 10:09:33</time>
      </trkpt>
      <trkpt lat="41.23268" lon="1.05875">
        <ele>588.6</ele>
        <time>2020-08-22 10:09:34</time>
      </trkpt>
      <trkpt lat="41.2327" lon="1.05872">
        <ele>588.8</ele>
        <time>2020-08-22 10:09:35</time>
      </trkpt>
      <trkpt lat="41.23272" lon="1.05868">
        <ele>589</ele>
        <time>2020-08-22 10:09:36</time>
      </trkpt>
      <trkpt lat="41.23273" lon="1.05865">
        <ele>589.2</ele>
        <time>2020-08-22 10:09:37</time>
      </trkpt>
      <trkpt lat="41.23275" lon="1.05862">
        <ele>589.8</ele>
        <time>2020-08-22 10:09:38</time>
      </trkpt>
      <trkpt lat="41.23277" lon="1.05858">
        <ele>589.8</ele>
        <time>2020-08-22 10:09:39</time>
      </trkpt>
      <trkpt lat="41.2328" lon="1.05855">
        <ele>590.2</ele>
        <time>2020-08-22 10:09:40</time>
      </trkpt>
      <trkpt lat="41.23282" lon="1.05852">
        <ele>590.2</ele>
        <time>2020-08-22 10:09:41</time>
      </trkpt>
      <trkpt lat="41.23283" lon="1.05849">
        <ele>590.2</ele>
        <time>2020-08-22 10:09:42</time>
      </trkpt>
      <trkpt lat="41.23283" lon="1.05846">
        <ele>590.2</ele>
        <time>2020-08-22 10:09:43</time>
      </trkpt>
      <trkpt lat="41.23284" lon="1.05843">
        <ele>590.4</ele>
        <time>2020-08-22 10:09:44</time>
      </trkpt>
      <trkpt lat="41.23284" lon="1.0584">
        <ele>590.4</ele>
        <time>2020-08-22 10:09:45</time>
      </trkpt>
      <trkpt lat="41.23285" lon="1.05837">
        <ele>590.6</ele>
        <time>2020-08-22 10:09:46</time>
      </trkpt>
      <trkpt lat="41.23286" lon="1.05833">
        <ele>590.8</ele>
        <time>2020-08-22 10:09:47</time>
      </trkpt>
      <trkpt lat="41.23286" lon="1.0583">
        <ele>591</ele>
        <time>2020-08-22 10:09:48</time>
      </trkpt>
      <trkpt lat="41.23285" lon="1.05827">
        <ele>591.4</ele>
        <time>2020-08-22 10:09:49</time>
      </trkpt>
      <trkpt lat="41.23285" lon="1.05824">
        <ele>591.6</ele>
        <time>2020-08-22 10:09:50</time>
      </trkpt>
      <trkpt lat="41.23286" lon="1.05821">
        <ele>592</ele>
        <time>2020-08-22 10:09:51</time>
      </trkpt>
      <trkpt lat="41.23286" lon="1.05817">
        <ele>592.2</ele>
        <time>2020-08-22 10:09:52</time>
      </trkpt>
      <trkpt lat="41.23286" lon="1.05814">
        <ele>592.4</ele>
        <time>2020-08-22 10:09:53</time>
      </trkpt>
      <trkpt lat="41.23287" lon="1.0581">
        <ele>592.6</ele>
        <time>2020-08-22 10:09:54</time>
      </trkpt>
      <trkpt lat="41.23287" lon="1.05807">
        <ele>592.6</ele>
        <time>2020-08-22 10:09:55</time>
      </trkpt>
      <trkpt lat="41.23287" lon="1.05804">
        <ele>592.8</ele>
        <time>2020-08-22 10:09:56</time>
      </trkpt>
      <trkpt lat="41.23287" lon="1.05801">
        <ele>592.8</ele>
        <time>2020-08-22 10:09:57</time>
      </trkpt>
      <trkpt lat="41.23288" lon="1.05798">
        <ele>593</ele>
        <time>2020-08-22 10:09:58</time>
      </trkpt>
      <trkpt lat="41.23289" lon="1.05795">
        <ele>593.2</ele>
        <time>2020-08-22 10:09:59</time>
      </trkpt>
      <trkpt lat="41.2329" lon="1.05792">
        <ele>593.4</ele>
        <time>2020-08-22 10:10:00</time>
      </trkpt>
      <trkpt lat="41.23291" lon="1.0579">
        <ele>593.6</ele>
        <time>2020-08-22 10:10:01</time>
      </trkpt>
      <trkpt lat="41.23293" lon="1.05789">
        <ele>593.8</ele>
        <time>2020-08-22 10:10:02</time>
      </trkpt>
      <trkpt lat="41.23295" lon="1.05787">
        <ele>594</ele>
        <time>2020-08-22 10:10:03</time>
      </trkpt>
      <trkpt lat="41.23297" lon="1.05785">
        <ele>594.2</ele>
        <time>2020-08-22 10:10:04</time>
      </trkpt>
      <trkpt lat="41.233" lon="1.05784">
        <ele>594.4</ele>
        <time>2020-08-22 10:10:05</time>
      </trkpt>
      <trkpt lat="41.23302" lon="1.05781">
        <ele>594.6</ele>
        <time>2020-08-22 10:10:06</time>
      </trkpt>
      <trkpt lat="41.23304" lon="1.05779">
        <ele>594.6</ele>
        <time>2020-08-22 10:10:07</time>
      </trkpt>
      <trkpt lat="41.23306" lon="1.05776">
        <ele>594.8</ele>
        <time>2020-08-22 10:10:08</time>
      </trkpt>
      <trkpt lat="41.23306" lon="1.05772">
        <ele>594.8</ele>
        <time>2020-08-22 10:10:09</time>
      </trkpt>
      <trkpt lat="41.23307" lon="1.05769">
        <ele>595</ele>
        <time>2020-08-22 10:10:10</time>
      </trkpt>
      <trkpt lat="41.23308" lon="1.05766">
        <ele>595.4</ele>
        <time>2020-08-22 10:10:11</time>
      </trkpt>
      <trkpt lat="41.2331" lon="1.05762">
        <ele>596</ele>
        <time>2020-08-22 10:10:12</time>
      </trkpt>
      <trkpt lat="41.23312" lon="1.05759">
        <ele>596.2</ele>
        <time>2020-08-22 10:10:13</time>
      </trkpt>
      <trkpt lat="41.23313" lon="1.05754">
        <ele>596.4</ele>
        <time>2020-08-22 10:10:14</time>
      </trkpt>
      <trkpt lat="41.23314" lon="1.0575">
        <ele>596.6</ele>
        <time>2020-08-22 10:10:15</time>
      </trkpt>
      <trkpt lat="41.23315" lon="1.05747">
        <ele>596.8</ele>
        <time>2020-08-22 10:10:16</time>
      </trkpt>
      <trkpt lat="41.23316" lon="1.05743">
        <ele>596.8</ele>
        <time>2020-08-22 10:10:17</time>
      </trkpt>
      <trkpt lat="41.23316" lon="1.05738">
        <ele>597</ele>
        <time>2020-08-22 10:10:18</time>
      </trkpt>
      <trkpt lat="41.23317" lon="1.05734">
        <ele>597.4</ele>
        <time>2020-08-22 10:10:19</time>
      </trkpt>
      <trkpt lat="41.23319" lon="1.05731">
        <ele>597.4</ele>
        <time>2020-08-22 10:10:20</time>
      </trkpt>
      <trkpt lat="41.2332" lon="1.05728">
        <ele>597.8</ele>
        <time>2020-08-22 10:10:21</time>
      </trkpt>
      <trkpt lat="41.23322" lon="1.05724">
        <ele>597.8</ele>
        <time>2020-08-22 10:10:22</time>
      </trkpt>
      <trkpt lat="41.23323" lon="1.0572">
        <ele>598</ele>
        <time>2020-08-22 10:10:23</time>
      </trkpt>
      <trkpt lat="41.23326" lon="1.05718">
        <ele>598.2</ele>
        <time>2020-08-22 10:10:24</time>
      </trkpt>
      <trkpt lat="41.23328" lon="1.05716">
        <ele>598.4</ele>
        <time>2020-08-22 10:10:25</time>
      </trkpt>
      <trkpt lat="41.23331" lon="1.05714">
        <ele>598.6</ele>
        <time>2020-08-22 10:10:26</time>
      </trkpt>
      <trkpt lat="41.23332" lon="1.0571">
        <ele>598.6</ele>
        <time>2020-08-22 10:10:27</time>
      </trkpt>
      <trkpt lat="41.23334" lon="1.05708">
        <ele>598.8</ele>
        <time>2020-08-22 10:10:28</time>
      </trkpt>
      <trkpt lat="41.23337" lon="1.05707">
        <ele>599</ele>
        <time>2020-08-22 10:10:29</time>
      </trkpt>
      <trkpt lat="41.23339" lon="1.05705">
        <ele>599.2</ele>
        <time>2020-08-22 10:10:30</time>
      </trkpt>
      <trkpt lat="41.23342" lon="1.05704">
        <ele>599.2</ele>
        <time>2020-08-22 10:10:31</time>
      </trkpt>
      <trkpt lat="41.23345" lon="1.05702">
        <ele>599.6</ele>
        <time>2020-08-22 10:10:32</time>
      </trkpt>
      <trkpt lat="41.23347" lon="1.05699">
        <ele>599.8</ele>
        <time>2020-08-22 10:10:33</time>
      </trkpt>
      <trkpt lat="41.23349" lon="1.05697">
        <ele>600.2</ele>
        <time>2020-08-22 10:10:34</time>
      </trkpt>
      <trkpt lat="41.23351" lon="1.05695">
        <ele>600.2</ele>
        <time>2020-08-22 10:10:35</time>
      </trkpt>
      <trkpt lat="41.23354" lon="1.05694">
        <ele>600.6</ele>
        <time>2020-08-22 10:10:36</time>
      </trkpt>
      <trkpt lat="41.23358" lon="1.05695">
        <ele>600.8</ele>
        <time>2020-08-22 10:10:37</time>
      </trkpt>
      <trkpt lat="41.2336" lon="1.05696">
        <ele>601</ele>
        <time>2020-08-22 10:10:38</time>
      </trkpt>
      <trkpt lat="41.23362" lon="1.05695">
        <ele>601.2</ele>
        <time>2020-08-22 10:10:39</time>
      </trkpt>
      <trkpt lat="41.23364" lon="1.05693">
        <ele>601.2</ele>
        <time>2020-08-22 10:10:40</time>
      </trkpt>
      <trkpt lat="41.23366" lon="1.0569">
        <ele>601.4</ele>
        <time>2020-08-22 10:10:41</time>
      </trkpt>
      <trkpt lat="41.23368" lon="1.05688">
        <ele>601.4</ele>
        <time>2020-08-22 10:10:42</time>
      </trkpt>
      <trkpt lat="41.23369" lon="1.05686">
        <ele>601.4</ele>
        <time>2020-08-22 10:10:43</time>
      </trkpt>
      <trkpt lat="41.2337" lon="1.05683">
        <ele>601.6</ele>
        <time>2020-08-22 10:10:44</time>
      </trkpt>
      <trkpt lat="41.23372" lon="1.05681">
        <ele>601.6</ele>
        <time>2020-08-22 10:10:45</time>
      </trkpt>
      <trkpt lat="41.23373" lon="1.05679">
        <ele>601.6</ele>
        <time>2020-08-22 10:10:46</time>
      </trkpt>
      <trkpt lat="41.23374" lon="1.05677">
        <ele>601.8</ele>
        <time>2020-08-22 10:10:47</time>
      </trkpt>
      <trkpt lat="41.23376" lon="1.05676">
        <ele>602</ele>
        <time>2020-08-22 10:10:48</time>
      </trkpt>
      <trkpt lat="41.23378" lon="1.05675">
        <ele>602.2</ele>
        <time>2020-08-22 10:10:49</time>
      </trkpt>
      <trkpt lat="41.2338" lon="1.05675">
        <ele>602.6</ele>
        <time>2020-08-22 10:10:50</time>
      </trkpt>
      <trkpt lat="41.23383" lon="1.05675">
        <ele>603</ele>
        <time>2020-08-22 10:10:51</time>
      </trkpt>
      <trkpt lat="41.23386" lon="1.05675">
        <ele>603.4</ele>
        <time>2020-08-22 10:10:52</time>
      </trkpt>
      <trkpt lat="41.23388" lon="1.05676">
        <ele>603.6</ele>
        <time>2020-08-22 10:10:53</time>
      </trkpt>
      <trkpt lat="41.23391" lon="1.05675">
        <ele>603.8</ele>
        <time>2020-08-22 10:10:54</time>
      </trkpt>
      <trkpt lat="41.23393" lon="1.05676">
        <ele>604</ele>
        <time>2020-08-22 10:10:55</time>
      </trkpt>
      <trkpt lat="41.23395" lon="1.05677">
        <ele>604</ele>
        <time>2020-08-22 10:10:56</time>
      </trkpt>
      <trkpt lat="41.23397" lon="1.05677">
        <ele>604.2</ele>
        <time>2020-08-22 10:10:57</time>
      </trkpt>
      <trkpt lat="41.234" lon="1.05678">
        <ele>604.2</ele>
        <time>2020-08-22 10:10:58</time>
      </trkpt>
      <trkpt lat="41.23403" lon="1.0568">
        <ele>604.4</ele>
        <time>2020-08-22 10:10:59</time>
      </trkpt>
      <trkpt lat="41.23406" lon="1.05681">
        <ele>604.6</ele>
        <time>2020-08-22 10:11:00</time>
      </trkpt>
      <trkpt lat="41.23409" lon="1.05681">
        <ele>605</ele>
        <time>2020-08-22 10:11:01</time>
      </trkpt>
      <trkpt lat="41.23411" lon="1.05682">
        <ele>605.2</ele>
        <time>2020-08-22 10:11:02</time>
      </trkpt>
      <trkpt lat="41.23414" lon="1.05682">
        <ele>605.4</ele>
        <time>2020-08-22 10:11:03</time>
      </trkpt>
      <trkpt lat="41.23417" lon="1.05683">
        <ele>605.6</ele>
        <time>2020-08-22 10:11:04</time>
      </trkpt>
      <trkpt lat="41.2342" lon="1.05683">
        <ele>605.6</ele>
        <time>2020-08-22 10:11:05</time>
      </trkpt>
      <trkpt lat="41.23423" lon="1.05683">
        <ele>606</ele>
        <time>2020-08-22 10:11:06</time>
      </trkpt>
      <trkpt lat="41.23426" lon="1.05683">
        <ele>606</ele>
        <time>2020-08-22 10:11:07</time>
      </trkpt>
      <trkpt lat="41.2343" lon="1.05682">
        <ele>606.4</ele>
        <time>2020-08-22 10:11:08</time>
      </trkpt>
      <trkpt lat="41.23433" lon="1.05681">
        <ele>606.4</ele>
        <time>2020-08-22 10:11:09</time>
      </trkpt>
      <trkpt lat="41.23436" lon="1.05681">
        <ele>606.6</ele>
        <time>2020-08-22 10:11:10</time>
      </trkpt>
      <trkpt lat="41.23439" lon="1.0568">
        <ele>607</ele>
        <time>2020-08-22 10:11:11</time>
      </trkpt>
      <trkpt lat="41.23442" lon="1.0568">
        <ele>607.2</ele>
        <time>2020-08-22 10:11:12</time>
      </trkpt>
      <trkpt lat="41.23445" lon="1.05678">
        <ele>607.4</ele>
        <time>2020-08-22 10:11:13</time>
      </trkpt>
      <trkpt lat="41.23447" lon="1.05676">
        <ele>607.4</ele>
        <time>2020-08-22 10:11:14</time>
      </trkpt>
      <trkpt lat="41.2345" lon="1.05675">
        <ele>607.6</ele>
        <time>2020-08-22 10:11:15</time>
      </trkpt>
      <trkpt lat="41.23454" lon="1.0567">
        <ele>607.6</ele>
        <time>2020-08-22 10:11:16</time>
      </trkpt>
      <trkpt lat="41.23456" lon="1.05669">
        <ele>607.8</ele>
        <time>2020-08-22 10:11:17</time>
      </trkpt>
      <trkpt lat="41.23458" lon="1.05668">
        <ele>608</ele>
        <time>2020-08-22 10:11:18</time>
      </trkpt>
      <trkpt lat="41.23461" lon="1.05666">
        <ele>608.4</ele>
        <time>2020-08-22 10:11:19</time>
      </trkpt>
      <trkpt lat="41.23463" lon="1.05664">
        <ele>608.6</ele>
        <time>2020-08-22 10:11:20</time>
      </trkpt>
      <trkpt lat="41.23465" lon="1.05661">
        <ele>608.6</ele>
        <time>2020-08-22 10:11:21</time>
      </trkpt>
      <trkpt lat="41.23466" lon="1.05657">
        <ele>609</ele>
        <time>2020-08-22 10:11:22</time>
      </trkpt>
      <trkpt lat="41.23467" lon="1.05653">
        <ele>608.8</ele>
        <time>2020-08-22 10:11:23</time>
      </trkpt>
      <trkpt lat="41.23468" lon="1.05649">
        <ele>609.6</ele>
        <time>2020-08-22 10:11:24</time>
      </trkpt>
      <trkpt lat="41.23469" lon="1.05646">
        <ele>609.6</ele>
        <time>2020-08-22 10:11:25</time>
      </trkpt>
      <trkpt lat="41.23471" lon="1.05644">
        <ele>610</ele>
        <time>2020-08-22 10:11:26</time>
      </trkpt>
      <trkpt lat="41.23473" lon="1.05643">
        <ele>610.4</ele>
        <time>2020-08-22 10:11:27</time>
      </trkpt>
      <trkpt lat="41.23475" lon="1.05641">
        <ele>610.4</ele>
        <time>2020-08-22 10:11:28</time>
      </trkpt>
      <trkpt lat="41.23477" lon="1.05639">
        <ele>610.8</ele>
        <time>2020-08-22 10:11:29</time>
      </trkpt>
      <trkpt lat="41.23479" lon="1.05638">
        <ele>610.8</ele>
        <time>2020-08-22 10:11:30</time>
      </trkpt>
      <trkpt lat="41.2348" lon="1.05638">
        <ele>611</ele>
        <time>2020-08-22 10:11:31</time>
      </trkpt>
      <trkpt lat="41.23482" lon="1.05639">
        <ele>611.2</ele>
        <time>2020-08-22 10:11:32</time>
      </trkpt>
      <trkpt lat="41.23483" lon="1.05642">
        <ele>611.4</ele>
        <time>2020-08-22 10:11:33</time>
      </trkpt>
      <trkpt lat="41.23483" lon="1.05645">
        <ele>611.6</ele>
        <time>2020-08-22 10:11:34</time>
      </trkpt>
      <trkpt lat="41.23482" lon="1.05648">
        <ele>612</ele>
        <time>2020-08-22 10:11:35</time>
      </trkpt>
      <trkpt lat="41.23481" lon="1.0565">
        <ele>612.8</ele>
        <time>2020-08-22 10:11:36</time>
      </trkpt>
      <trkpt lat="41.23479" lon="1.05653">
        <ele>613</ele>
        <time>2020-08-22 10:11:37</time>
      </trkpt>
      <trkpt lat="41.23478" lon="1.05656">
        <ele>613.4</ele>
        <time>2020-08-22 10:11:38</time>
      </trkpt>
      <trkpt lat="41.23476" lon="1.05659">
        <ele>613.6</ele>
        <time>2020-08-22 10:11:39</time>
      </trkpt>
      <trkpt lat="41.23475" lon="1.05663">
        <ele>613.6</ele>
        <time>2020-08-22 10:11:40</time>
      </trkpt>
      <trkpt lat="41.23473" lon="1.05666">
        <ele>613.8</ele>
        <time>2020-08-22 10:11:41</time>
      </trkpt>
      <trkpt lat="41.23471" lon="1.05669">
        <ele>614</ele>
        <time>2020-08-22 10:11:42</time>
      </trkpt>
      <trkpt lat="41.23469" lon="1.05671">
        <ele>614</ele>
        <time>2020-08-22 10:11:43</time>
      </trkpt>
      <trkpt lat="41.23467" lon="1.05674">
        <ele>614.2</ele>
        <time>2020-08-22 10:11:44</time>
      </trkpt>
      <trkpt lat="41.23464" lon="1.05677">
        <ele>614.6</ele>
        <time>2020-08-22 10:11:45</time>
      </trkpt>
      <trkpt lat="41.23462" lon="1.0568">
        <ele>614.8</ele>
        <time>2020-08-22 10:11:46</time>
      </trkpt>
      <trkpt lat="41.23459" lon="1.05683">
        <ele>615</ele>
        <time>2020-08-22 10:11:47</time>
      </trkpt>
      <trkpt lat="41.23456" lon="1.05685">
        <ele>615.2</ele>
        <time>2020-08-22 10:11:48</time>
      </trkpt>
      <trkpt lat="41.23452" lon="1.05688">
        <ele>615.4</ele>
        <time>2020-08-22 10:11:49</time>
      </trkpt>
      <trkpt lat="41.23449" lon="1.0569">
        <ele>615.6</ele>
        <time>2020-08-22 10:11:50</time>
      </trkpt>
      <trkpt lat="41.23446" lon="1.05692">
        <ele>615.8</ele>
        <time>2020-08-22 10:11:51</time>
      </trkpt>
      <trkpt lat="41.23442" lon="1.05694">
        <ele>616.2</ele>
        <time>2020-08-22 10:11:52</time>
      </trkpt>
      <trkpt lat="41.23439" lon="1.05696">
        <ele>616.4</ele>
        <time>2020-08-22 10:11:53</time>
      </trkpt>
      <trkpt lat="41.23436" lon="1.05699">
        <ele>616.6</ele>
        <time>2020-08-22 10:11:54</time>
      </trkpt>
      <trkpt lat="41.23433" lon="1.05701">
        <ele>616.8</ele>
        <time>2020-08-22 10:11:55</time>
      </trkpt>
      <trkpt lat="41.2343" lon="1.05704">
        <ele>617</ele>
        <time>2020-08-22 10:11:56</time>
      </trkpt>
      <trkpt lat="41.23427" lon="1.05707">
        <ele>617.2</ele>
        <time>2020-08-22 10:11:57</time>
      </trkpt>
      <trkpt lat="41.23424" lon="1.0571">
        <ele>617.6</ele>
        <time>2020-08-22 10:11:58</time>
      </trkpt>
      <trkpt lat="41.23422" lon="1.05713">
        <ele>617.8</ele>
        <time>2020-08-22 10:11:59</time>
      </trkpt>
      <trkpt lat="41.23419" lon="1.05716">
        <ele>618.2</ele>
        <time>2020-08-22 10:12:00</time>
      </trkpt>
      <trkpt lat="41.23416" lon="1.05718">
        <ele>618.4</ele>
        <time>2020-08-22 10:12:01</time>
      </trkpt>
      <trkpt lat="41.23413" lon="1.05721">
        <ele>618.6</ele>
        <time>2020-08-22 10:12:02</time>
      </trkpt>
      <trkpt lat="41.23411" lon="1.05724">
        <ele>619</ele>
        <time>2020-08-22 10:12:03</time>
      </trkpt>
      <trkpt lat="41.23407" lon="1.05727">
        <ele>619</ele>
        <time>2020-08-22 10:12:04</time>
      </trkpt>
      <trkpt lat="41.23404" lon="1.0573">
        <ele>619.4</ele>
        <time>2020-08-22 10:12:05</time>
      </trkpt>
      <trkpt lat="41.23401" lon="1.05732">
        <ele>619.6</ele>
        <time>2020-08-22 10:12:06</time>
      </trkpt>
      <trkpt lat="41.23398" lon="1.05735">
        <ele>620</ele>
        <time>2020-08-22 10:12:07</time>
      </trkpt>
      <trkpt lat="41.23395" lon="1.05738">
        <ele>620.2</ele>
        <time>2020-08-22 10:12:08</time>
      </trkpt>
      <trkpt lat="41.23391" lon="1.05739">
        <ele>620.6</ele>
        <time>2020-08-22 10:12:09</time>
      </trkpt>
      <trkpt lat="41.23388" lon="1.05741">
        <ele>621</ele>
        <time>2020-08-22 10:12:10</time>
      </trkpt>
      <trkpt lat="41.23385" lon="1.05743">
        <ele>621</ele>
        <time>2020-08-22 10:12:11</time>
      </trkpt>
      <trkpt lat="41.23382" lon="1.05746">
        <ele>621.6</ele>
        <time>2020-08-22 10:12:12</time>
      </trkpt>
      <trkpt lat="41.2338" lon="1.05748">
        <ele>621.8</ele>
        <time>2020-08-22 10:12:13</time>
      </trkpt>
      <trkpt lat="41.23377" lon="1.0575">
        <ele>622</ele>
        <time>2020-08-22 10:12:14</time>
      </trkpt>
      <trkpt lat="41.23374" lon="1.05753">
        <ele>622.4</ele>
        <time>2020-08-22 10:12:15</time>
      </trkpt>
      <trkpt lat="41.23372" lon="1.05756">
        <ele>623</ele>
        <time>2020-08-22 10:12:16</time>
      </trkpt>
      <trkpt lat="41.23369" lon="1.05758">
        <ele>623</ele>
        <time>2020-08-22 10:12:17</time>
      </trkpt>
      <trkpt lat="41.23367" lon="1.05761">
        <ele>623.6</ele>
        <time>2020-08-22 10:12:18</time>
      </trkpt>
      <trkpt lat="41.23364" lon="1.05765">
        <ele>623.8</ele>
        <time>2020-08-22 10:12:19</time>
      </trkpt>
      <trkpt lat="41.23362" lon="1.05768">
        <ele>624</ele>
        <time>2020-08-22 10:12:20</time>
      </trkpt>
      <trkpt lat="41.23361" lon="1.05772">
        <ele>624.4</ele>
        <time>2020-08-22 10:12:21</time>
      </trkpt>
      <trkpt lat="41.23359" lon="1.05776">
        <ele>624.6</ele>
        <time>2020-08-22 10:12:22</time>
      </trkpt>
      <trkpt lat="41.23357" lon="1.0578">
        <ele>625</ele>
        <time>2020-08-22 10:12:23</time>
      </trkpt>
      <trkpt lat="41.23356" lon="1.05784">
        <ele>625</ele>
        <time>2020-08-22 10:12:24</time>
      </trkpt>
      <trkpt lat="41.23354" lon="1.05788">
        <ele>625.4</ele>
        <time>2020-08-22 10:12:25</time>
      </trkpt>
      <trkpt lat="41.23352" lon="1.05792">
        <ele>625.6</ele>
        <time>2020-08-22 10:12:26</time>
      </trkpt>
      <trkpt lat="41.2335" lon="1.05796">
        <ele>625.8</ele>
        <time>2020-08-22 10:12:27</time>
      </trkpt>
      <trkpt lat="41.23348" lon="1.058">
        <ele>626.2</ele>
        <time>2020-08-22 10:12:28</time>
      </trkpt>
      <trkpt lat="41.23346" lon="1.05804">
        <ele>626.4</ele>
        <time>2020-08-22 10:12:29</time>
      </trkpt>
      <trkpt lat="41.23345" lon="1.05808">
        <ele>626.6</ele>
        <time>2020-08-22 10:12:30</time>
      </trkpt>
      <trkpt lat="41.23343" lon="1.05812">
        <ele>626.8</ele>
        <time>2020-08-22 10:12:31</time>
      </trkpt>
      <trkpt lat="41.23341" lon="1.05817">
        <ele>627.2</ele>
        <time>2020-08-22 10:12:32</time>
      </trkpt>
      <trkpt lat="41.2334" lon="1.05822">
        <ele>627.4</ele>
        <time>2020-08-22 10:12:33</time>
      </trkpt>
      <trkpt lat="41.23339" lon="1.05827">
        <ele>627.8</ele>
        <time>2020-08-22 10:12:34</time>
      </trkpt>
      <trkpt lat="41.23339" lon="1.05832">
        <ele>627.8</ele>
        <time>2020-08-22 10:12:35</time>
      </trkpt>
      <trkpt lat="41.23338" lon="1.05837">
        <ele>628</ele>
        <time>2020-08-22 10:12:36</time>
      </trkpt>
      <trkpt lat="41.23337" lon="1.05842">
        <ele>628.4</ele>
        <time>2020-08-22 10:12:37</time>
      </trkpt>
      <trkpt lat="41.23337" lon="1.05847">
        <ele>628.4</ele>
        <time>2020-08-22 10:12:38</time>
      </trkpt>
      <trkpt lat="41.23336" lon="1.05852">
        <ele>628.8</ele>
        <time>2020-08-22 10:12:39</time>
      </trkpt>
      <trkpt lat="41.23336" lon="1.05857">
        <ele>628.8</ele>
        <time>2020-08-22 10:12:40</time>
      </trkpt>
      <trkpt lat="41.23335" lon="1.05862">
        <ele>629.2</ele>
        <time>2020-08-22 10:12:41</time>
      </trkpt>
      <trkpt lat="41.23334" lon="1.05866">
        <ele>629.2</ele>
        <time>2020-08-22 10:12:42</time>
      </trkpt>
      <trkpt lat="41.23333" lon="1.0587">
        <ele>629.6</ele>
        <time>2020-08-22 10:12:43</time>
      </trkpt>
      <trkpt lat="41.23332" lon="1.05875">
        <ele>630</ele>
        <time>2020-08-22 10:12:44</time>
      </trkpt>
      <trkpt lat="41.23331" lon="1.0588">
        <ele>630.2</ele>
        <time>2020-08-22 10:12:45</time>
      </trkpt>
      <trkpt lat="41.2333" lon="1.05885">
        <ele>630.6</ele>
        <time>2020-08-22 10:12:46</time>
      </trkpt>
      <trkpt lat="41.23329" lon="1.05889">
        <ele>630.6</ele>
        <time>2020-08-22 10:12:47</time>
      </trkpt>
      <trkpt lat="41.23329" lon="1.05893">
        <ele>631</ele>
        <time>2020-08-22 10:12:48</time>
      </trkpt>
      <trkpt lat="41.23328" lon="1.05897">
        <ele>631.2</ele>
        <time>2020-08-22 10:12:49</time>
      </trkpt>
      <trkpt lat="41.23328" lon="1.05901">
        <ele>631.6</ele>
        <time>2020-08-22 10:12:50</time>
      </trkpt>
      <trkpt lat="41.23327" lon="1.05905">
        <ele>631.8</ele>
        <time>2020-08-22 10:12:51</time>
      </trkpt>
      <trkpt lat="41.23326" lon="1.0591">
        <ele>632</ele>
        <time>2020-08-22 10:12:52</time>
      </trkpt>
      <trkpt lat="41.23324" lon="1.05914">
        <ele>632.4</ele>
        <time>2020-08-22 10:12:53</time>
      </trkpt>
      <trkpt lat="41.23323" lon="1.05918">
        <ele>632.6</ele>
        <time>2020-08-22 10:12:54</time>
      </trkpt>
      <trkpt lat="41.23321" lon="1.05922">
        <ele>632.8</ele>
        <time>2020-08-22 10:12:55</time>
      </trkpt>
      <trkpt lat="41.23319" lon="1.05926">
        <ele>633</ele>
        <time>2020-08-22 10:12:56</time>
      </trkpt>
      <trkpt lat="41.23318" lon="1.0593">
        <ele>633.4</ele>
        <time>2020-08-22 10:12:57</time>
      </trkpt>
      <trkpt lat="41.23316" lon="1.05934">
        <ele>633.4</ele>
        <time>2020-08-22 10:12:58</time>
      </trkpt>
      <trkpt lat="41.23314" lon="1.05939">
        <ele>633.8</ele>
        <time>2020-08-22 10:12:59</time>
      </trkpt>
      <trkpt lat="41.23312" lon="1.05943">
        <ele>633.8</ele>
        <time>2020-08-22 10:13:00</time>
      </trkpt>
      <trkpt lat="41.2331" lon="1.05947">
        <ele>634</ele>
        <time>2020-08-22 10:13:01</time>
      </trkpt>
      <trkpt lat="41.23308" lon="1.05951">
        <ele>634.4</ele>
        <time>2020-08-22 10:13:02</time>
      </trkpt>
      <trkpt lat="41.23306" lon="1.05955">
        <ele>634.6</ele>
        <time>2020-08-22 10:13:03</time>
      </trkpt>
      <trkpt lat="41.23304" lon="1.05959">
        <ele>634.8</ele>
        <time>2020-08-22 10:13:04</time>
      </trkpt>
      <trkpt lat="41.23302" lon="1.05963">
        <ele>635</ele>
        <time>2020-08-22 10:13:05</time>
      </trkpt>
      <trkpt lat="41.233" lon="1.05967">
        <ele>635.4</ele>
        <time>2020-08-22 10:13:06</time>
      </trkpt>
      <trkpt lat="41.23298" lon="1.05971">
        <ele>635.6</ele>
        <time>2020-08-22 10:13:07</time>
      </trkpt>
      <trkpt lat="41.23297" lon="1.05975">
        <ele>636</ele>
        <time>2020-08-22 10:13:08</time>
      </trkpt>
      <trkpt lat="41.23295" lon="1.05979">
        <ele>636.2</ele>
        <time>2020-08-22 10:13:09</time>
      </trkpt>
      <trkpt lat="41.23294" lon="1.05984">
        <ele>636.6</ele>
        <time>2020-08-22 10:13:10</time>
      </trkpt>
      <trkpt lat="41.23292" lon="1.05989">
        <ele>636.8</ele>
        <time>2020-08-22 10:13:11</time>
      </trkpt>
      <trkpt lat="41.23291" lon="1.05993">
        <ele>637</ele>
        <time>2020-08-22 10:13:12</time>
      </trkpt>
      <trkpt lat="41.2329" lon="1.05998">
        <ele>637.2</ele>
        <time>2020-08-22 10:13:13</time>
      </trkpt>
      <trkpt lat="41.23289" lon="1.06003">
        <ele>637.4</ele>
        <time>2020-08-22 10:13:14</time>
      </trkpt>
      <trkpt lat="41.23289" lon="1.06009">
        <ele>637.8</ele>
        <time>2020-08-22 10:13:15</time>
      </trkpt>
      <trkpt lat="41.2329" lon="1.06013">
        <ele>637.8</ele>
        <time>2020-08-22 10:13:16</time>
      </trkpt>
      <trkpt lat="41.2329" lon="1.06019">
        <ele>638.6</ele>
        <time>2020-08-22 10:13:17</time>
      </trkpt>
      <trkpt lat="41.23292" lon="1.06025">
        <ele>639</ele>
        <time>2020-08-22 10:13:18</time>
      </trkpt>
      <trkpt lat="41.23293" lon="1.06029">
        <ele>639.4</ele>
        <time>2020-08-22 10:13:19</time>
      </trkpt>
      <trkpt lat="41.23296" lon="1.06035">
        <ele>639.8</ele>
        <time>2020-08-22 10:13:20</time>
      </trkpt>
      <trkpt lat="41.23298" lon="1.06038">
        <ele>640</ele>
        <time>2020-08-22 10:13:21</time>
      </trkpt>
      <trkpt lat="41.233" lon="1.06042">
        <ele>640.8</ele>
        <time>2020-08-22 10:13:22</time>
      </trkpt>
      <trkpt lat="41.23302" lon="1.06047">
        <ele>640.8</ele>
        <time>2020-08-22 10:13:23</time>
      </trkpt>
      <trkpt lat="41.23304" lon="1.06051">
        <ele>641.2</ele>
        <time>2020-08-22 10:13:24</time>
      </trkpt>
      <trkpt lat="41.23306" lon="1.06056">
        <ele>641.4</ele>
        <time>2020-08-22 10:13:25</time>
      </trkpt>
      <trkpt lat="41.23307" lon="1.06059">
        <ele>641.6</ele>
        <time>2020-08-22 10:13:26</time>
      </trkpt>
      <trkpt lat="41.23309" lon="1.06063">
        <ele>642.2</ele>
        <time>2020-08-22 10:13:27</time>
      </trkpt>
      <trkpt lat="41.23311" lon="1.06067">
        <ele>642.4</ele>
        <time>2020-08-22 10:13:28</time>
      </trkpt>
      <trkpt lat="41.23313" lon="1.06072">
        <ele>642.8</ele>
        <time>2020-08-22 10:13:29</time>
      </trkpt>
      <trkpt lat="41.23316" lon="1.06077">
        <ele>643</ele>
        <time>2020-08-22 10:13:30</time>
      </trkpt>
      <trkpt lat="41.23317" lon="1.06081">
        <ele>643.2</ele>
        <time>2020-08-22 10:13:31</time>
      </trkpt>
      <trkpt lat="41.23319" lon="1.06085">
        <ele>643.4</ele>
        <time>2020-08-22 10:13:32</time>
      </trkpt>
      <trkpt lat="41.23321" lon="1.06089">
        <ele>643.6</ele>
        <time>2020-08-22 10:13:33</time>
      </trkpt>
      <trkpt lat="41.23322" lon="1.06094">
        <ele>643.8</ele>
        <time>2020-08-22 10:13:34</time>
      </trkpt>
      <trkpt lat="41.23324" lon="1.06098">
        <ele>644.2</ele>
        <time>2020-08-22 10:13:35</time>
      </trkpt>
      <trkpt lat="41.23326" lon="1.06103">
        <ele>644.6</ele>
        <time>2020-08-22 10:13:36</time>
      </trkpt>
      <trkpt lat="41.23327" lon="1.06107">
        <ele>644.8</ele>
        <time>2020-08-22 10:13:37</time>
      </trkpt>
      <trkpt lat="41.23328" lon="1.06111">
        <ele>645</ele>
        <time>2020-08-22 10:13:38</time>
      </trkpt>
      <trkpt lat="41.23329" lon="1.06116">
        <ele>645.2</ele>
        <time>2020-08-22 10:13:39</time>
      </trkpt>
      <trkpt lat="41.23331" lon="1.0612">
        <ele>645.6</ele>
        <time>2020-08-22 10:13:40</time>
      </trkpt>
      <trkpt lat="41.23333" lon="1.06125">
        <ele>645.8</ele>
        <time>2020-08-22 10:13:41</time>
      </trkpt>
      <trkpt lat="41.23334" lon="1.06128">
        <ele>646</ele>
        <time>2020-08-22 10:13:42</time>
      </trkpt>
      <trkpt lat="41.23337" lon="1.06131">
        <ele>646.2</ele>
        <time>2020-08-22 10:13:43</time>
      </trkpt>
      <trkpt lat="41.2334" lon="1.06132">
        <ele>646.6</ele>
        <time>2020-08-22 10:13:44</time>
      </trkpt>
      <trkpt lat="41.23344" lon="1.06133">
        <ele>646.8</ele>
        <time>2020-08-22 10:13:45</time>
      </trkpt>
      <trkpt lat="41.23347" lon="1.06131">
        <ele>647</ele>
        <time>2020-08-22 10:13:46</time>
      </trkpt>
      <trkpt lat="41.23349" lon="1.0613">
        <ele>647.2</ele>
        <time>2020-08-22 10:13:47</time>
      </trkpt>
      <trkpt lat="41.23352" lon="1.06128">
        <ele>647.2</ele>
        <time>2020-08-22 10:13:48</time>
      </trkpt>
      <trkpt lat="41.23354" lon="1.06124">
        <ele>647.6</ele>
        <time>2020-08-22 10:13:49</time>
      </trkpt>
      <trkpt lat="41.23355" lon="1.06119">
        <ele>647.8</ele>
        <time>2020-08-22 10:13:50</time>
      </trkpt>
      <trkpt lat="41.23356" lon="1.06114">
        <ele>648</ele>
        <time>2020-08-22 10:13:51</time>
      </trkpt>
      <trkpt lat="41.23356" lon="1.06109">
        <ele>648.4</ele>
        <time>2020-08-22 10:13:52</time>
      </trkpt>
      <trkpt lat="41.23355" lon="1.06105">
        <ele>648.4</ele>
        <time>2020-08-22 10:13:53</time>
      </trkpt>
      <trkpt lat="41.23353" lon="1.061">
        <ele>648.8</ele>
        <time>2020-08-22 10:13:54</time>
      </trkpt>
      <trkpt lat="41.23351" lon="1.06096">
        <ele>648.8</ele>
        <time>2020-08-22 10:13:55</time>
      </trkpt>
      <trkpt lat="41.23348" lon="1.06092">
        <ele>649</ele>
        <time>2020-08-22 10:13:56</time>
      </trkpt>
      <trkpt lat="41.23346" lon="1.06089">
        <ele>649</ele>
        <time>2020-08-22 10:13:57</time>
      </trkpt>
      <trkpt lat="41.23344" lon="1.06086">
        <ele>649.2</ele>
        <time>2020-08-22 10:13:58</time>
      </trkpt>
      <trkpt lat="41.23342" lon="1.06082">
        <ele>649.4</ele>
        <time>2020-08-22 10:13:59</time>
      </trkpt>
      <trkpt lat="41.23339" lon="1.06079">
        <ele>649.6</ele>
        <time>2020-08-22 10:14:00</time>
      </trkpt>
      <trkpt lat="41.23337" lon="1.06076">
        <ele>649.8</ele>
        <time>2020-08-22 10:14:01</time>
      </trkpt>
      <trkpt lat="41.23335" lon="1.06072">
        <ele>649.8</ele>
        <time>2020-08-22 10:14:02</time>
      </trkpt>
      <trkpt lat="41.23333" lon="1.06068">
        <ele>650</ele>
        <time>2020-08-22 10:14:03</time>
      </trkpt>
      <trkpt lat="41.23331" lon="1.06064">
        <ele>650.2</ele>
        <time>2020-08-22 10:14:04</time>
      </trkpt>
      <trkpt lat="41.2333" lon="1.0606">
        <ele>650.4</ele>
        <time>2020-08-22 10:14:05</time>
      </trkpt>
      <trkpt lat="41.23329" lon="1.06055">
        <ele>650.4</ele>
        <time>2020-08-22 10:14:06</time>
      </trkpt>
      <trkpt lat="41.23328" lon="1.0605">
        <ele>650.8</ele>
        <time>2020-08-22 10:14:07</time>
      </trkpt>
      <trkpt lat="41.23329" lon="1.06046">
        <ele>651</ele>
        <time>2020-08-22 10:14:08</time>
      </trkpt>
      <trkpt lat="41.23331" lon="1.06042">
        <ele>650.8</ele>
        <time>2020-08-22 10:14:09</time>
      </trkpt>
      <trkpt lat="41.23333" lon="1.0604">
        <ele>651.2</ele>
        <time>2020-08-22 10:14:10</time>
      </trkpt>
      <trkpt lat="41.23336" lon="1.06039">
        <ele>651.6</ele>
        <time>2020-08-22 10:14:11</time>
      </trkpt>
      <trkpt lat="41.2334" lon="1.06039">
        <ele>652</ele>
        <time>2020-08-22 10:14:12</time>
      </trkpt>
      <trkpt lat="41.23343" lon="1.0604">
        <ele>652.2</ele>
        <time>2020-08-22 10:14:13</time>
      </trkpt>
      <trkpt lat="41.23346" lon="1.06042">
        <ele>652.4</ele>
        <time>2020-08-22 10:14:14</time>
      </trkpt>
      <trkpt lat="41.23349" lon="1.06044">
        <ele>652.6</ele>
        <time>2020-08-22 10:14:15</time>
      </trkpt>
      <trkpt lat="41.23353" lon="1.06046">
        <ele>652.8</ele>
        <time>2020-08-22 10:14:16</time>
      </trkpt>
      <trkpt lat="41.23355" lon="1.06048">
        <ele>653</ele>
        <time>2020-08-22 10:14:17</time>
      </trkpt>
      <trkpt lat="41.23358" lon="1.06051">
        <ele>653.8</ele>
        <time>2020-08-22 10:14:18</time>
      </trkpt>
      <trkpt lat="41.23361" lon="1.06054">
        <ele>654.2</ele>
        <time>2020-08-22 10:14:19</time>
      </trkpt>
      <trkpt lat="41.23363" lon="1.06058">
        <ele>654.4</ele>
        <time>2020-08-22 10:14:20</time>
      </trkpt>
      <trkpt lat="41.23366" lon="1.06061">
        <ele>654.8</ele>
        <time>2020-08-22 10:14:21</time>
      </trkpt>
      <trkpt lat="41.23369" lon="1.06064">
        <ele>655</ele>
        <time>2020-08-22 10:14:22</time>
      </trkpt>
      <trkpt lat="41.23371" lon="1.06068">
        <ele>655.4</ele>
        <time>2020-08-22 10:14:23</time>
      </trkpt>
      <trkpt lat="41.23374" lon="1.06071">
        <ele>655.6</ele>
        <time>2020-08-22 10:14:24</time>
      </trkpt>
      <trkpt lat="41.23376" lon="1.06074">
        <ele>656</ele>
        <time>2020-08-22 10:14:25</time>
      </trkpt>
      <trkpt lat="41.23378" lon="1.06078">
        <ele>656.2</ele>
        <time>2020-08-22 10:14:26</time>
      </trkpt>
      <trkpt lat="41.2338" lon="1.06082">
        <ele>656.4</ele>
        <time>2020-08-22 10:14:27</time>
      </trkpt>
      <trkpt lat="41.23382" lon="1.06086">
        <ele>656.8</ele>
        <time>2020-08-22 10:14:28</time>
      </trkpt>
      <trkpt lat="41.23383" lon="1.0609">
        <ele>657</ele>
        <time>2020-08-22 10:14:29</time>
      </trkpt>
      <trkpt lat="41.23383" lon="1.06095">
        <ele>657.6</ele>
        <time>2020-08-22 10:14:30</time>
      </trkpt>
      <trkpt lat="41.23384" lon="1.061">
        <ele>657.6</ele>
        <time>2020-08-22 10:14:31</time>
      </trkpt>
      <trkpt lat="41.23384" lon="1.06105">
        <ele>658</ele>
        <time>2020-08-22 10:14:32</time>
      </trkpt>
      <trkpt lat="41.23383" lon="1.0611">
        <ele>658</ele>
        <time>2020-08-22 10:14:33</time>
      </trkpt>
      <trkpt lat="41.23383" lon="1.06115">
        <ele>658.2</ele>
        <time>2020-08-22 10:14:34</time>
      </trkpt>
      <trkpt lat="41.23383" lon="1.0612">
        <ele>658.4</ele>
        <time>2020-08-22 10:14:35</time>
      </trkpt>
      <trkpt lat="41.23382" lon="1.06125">
        <ele>658.6</ele>
        <time>2020-08-22 10:14:36</time>
      </trkpt>
      <trkpt lat="41.23383" lon="1.06131">
        <ele>659</ele>
        <time>2020-08-22 10:14:37</time>
      </trkpt>
      <trkpt lat="41.23383" lon="1.06135">
        <ele>659.2</ele>
        <time>2020-08-22 10:14:38</time>
      </trkpt>
      <trkpt lat="41.23384" lon="1.0614">
        <ele>659.4</ele>
        <time>2020-08-22 10:14:39</time>
      </trkpt>
      <trkpt lat="41.23385" lon="1.06145">
        <ele>659.2</ele>
        <time>2020-08-22 10:14:40</time>
      </trkpt>
      <trkpt lat="41.23387" lon="1.06149">
        <ele>659.6</ele>
        <time>2020-08-22 10:14:41</time>
      </trkpt>
      <trkpt lat="41.23389" lon="1.06152">
        <ele>659.8</ele>
        <time>2020-08-22 10:14:42</time>
      </trkpt>
      <trkpt lat="41.23392" lon="1.06156">
        <ele>660</ele>
        <time>2020-08-22 10:14:43</time>
      </trkpt>
      <trkpt lat="41.23395" lon="1.06159">
        <ele>660.2</ele>
        <time>2020-08-22 10:14:44</time>
      </trkpt>
      <trkpt lat="41.23399" lon="1.0616">
        <ele>660.4</ele>
        <time>2020-08-22 10:14:45</time>
      </trkpt>
      <trkpt lat="41.23403" lon="1.06161">
        <ele>660.6</ele>
        <time>2020-08-22 10:14:46</time>
      </trkpt>
      <trkpt lat="41.23406" lon="1.0616">
        <ele>660.6</ele>
        <time>2020-08-22 10:14:47</time>
      </trkpt>
      <trkpt lat="41.23409" lon="1.06158">
        <ele>660.8</ele>
        <time>2020-08-22 10:14:48</time>
      </trkpt>
      <trkpt lat="41.23411" lon="1.06154">
        <ele>661</ele>
        <time>2020-08-22 10:14:49</time>
      </trkpt>
      <trkpt lat="41.23412" lon="1.0615">
        <ele>661.2</ele>
        <time>2020-08-22 10:14:50</time>
      </trkpt>
      <trkpt lat="41.23413" lon="1.06146">
        <ele>661.4</ele>
        <time>2020-08-22 10:14:51</time>
      </trkpt>
      <trkpt lat="41.23413" lon="1.06141">
        <ele>661.6</ele>
        <time>2020-08-22 10:14:52</time>
      </trkpt>
      <trkpt lat="41.23413" lon="1.06136">
        <ele>662.2</ele>
        <time>2020-08-22 10:14:53</time>
      </trkpt>
      <trkpt lat="41.23412" lon="1.06132">
        <ele>662.2</ele>
        <time>2020-08-22 10:14:54</time>
      </trkpt>
      <trkpt lat="41.23411" lon="1.06127">
        <ele>662.6</ele>
        <time>2020-08-22 10:14:55</time>
      </trkpt>
      <trkpt lat="41.2341" lon="1.06123">
        <ele>662.8</ele>
        <time>2020-08-22 10:14:56</time>
      </trkpt>
      <trkpt lat="41.23409" lon="1.06118">
        <ele>663</ele>
        <time>2020-08-22 10:14:57</time>
      </trkpt>
      <trkpt lat="41.23408" lon="1.06114">
        <ele>663.2</ele>
        <time>2020-08-22 10:14:58</time>
      </trkpt>
      <trkpt lat="41.23407" lon="1.06109">
        <ele>663.6</ele>
        <time>2020-08-22 10:14:59</time>
      </trkpt>
      <trkpt lat="41.23406" lon="1.06104">
        <ele>663.8</ele>
        <time>2020-08-22 10:15:00</time>
      </trkpt>
      <trkpt lat="41.23405" lon="1.061">
        <ele>664.2</ele>
        <time>2020-08-22 10:15:01</time>
      </trkpt>
      <trkpt lat="41.23404" lon="1.06096">
        <ele>664.6</ele>
        <time>2020-08-22 10:15:02</time>
      </trkpt>
      <trkpt lat="41.23403" lon="1.06092">
        <ele>664.6</ele>
        <time>2020-08-22 10:15:03</time>
      </trkpt>
      <trkpt lat="41.23402" lon="1.06088">
        <ele>664.8</ele>
        <time>2020-08-22 10:15:04</time>
      </trkpt>
      <trkpt lat="41.23401" lon="1.06084">
        <ele>664.8</ele>
        <time>2020-08-22 10:15:05</time>
      </trkpt>
      <trkpt lat="41.234" lon="1.0608">
        <ele>665</ele>
        <time>2020-08-22 10:15:06</time>
      </trkpt>
      <trkpt lat="41.23399" lon="1.06075">
        <ele>665.4</ele>
        <time>2020-08-22 10:15:07</time>
      </trkpt>
      <trkpt lat="41.23398" lon="1.06071">
        <ele>665.6</ele>
        <time>2020-08-22 10:15:08</time>
      </trkpt>
      <trkpt lat="41.23397" lon="1.06067">
        <ele>666</ele>
        <time>2020-08-22 10:15:09</time>
      </trkpt>
      <trkpt lat="41.23396" lon="1.06063">
        <ele>666.2</ele>
        <time>2020-08-22 10:15:10</time>
      </trkpt>
      <trkpt lat="41.23395" lon="1.06059">
        <ele>666.4</ele>
        <time>2020-08-22 10:15:11</time>
      </trkpt>
      <trkpt lat="41.23394" lon="1.06054">
        <ele>666.6</ele>
        <time>2020-08-22 10:15:12</time>
      </trkpt>
      <trkpt lat="41.23393" lon="1.06051">
        <ele>667</ele>
        <time>2020-08-22 10:15:13</time>
      </trkpt>
      <trkpt lat="41.23391" lon="1.06047">
        <ele>667</ele>
        <time>2020-08-22 10:15:14</time>
      </trkpt>
      <trkpt lat="41.23389" lon="1.06043">
        <ele>667.4</ele>
        <time>2020-08-22 10:15:15</time>
      </trkpt>
      <trkpt lat="41.23387" lon="1.0604">
        <ele>667.6</ele>
        <time>2020-08-22 10:15:16</time>
      </trkpt>
      <trkpt lat="41.23385" lon="1.06037">
        <ele>668</ele>
        <time>2020-08-22 10:15:17</time>
      </trkpt>
      <trkpt lat="41.23383" lon="1.06034">
        <ele>668.2</ele>
        <time>2020-08-22 10:15:18</time>
      </trkpt>
      <trkpt lat="41.23381" lon="1.0603">
        <ele>668.4</ele>
        <time>2020-08-22 10:15:19</time>
      </trkpt>
      <trkpt lat="41.23379" lon="1.06027">
        <ele>668.6</ele>
        <time>2020-08-22 10:15:20</time>
      </trkpt>
      <trkpt lat="41.23377" lon="1.06024">
        <ele>668.8</ele>
        <time>2020-08-22 10:15:21</time>
      </trkpt>
      <trkpt lat="41.23375" lon="1.06021">
        <ele>669.2</ele>
        <time>2020-08-22 10:15:22</time>
      </trkpt>
      <trkpt lat="41.23373" lon="1.06018">
        <ele>669.6</ele>
        <time>2020-08-22 10:15:23</time>
      </trkpt>
      <trkpt lat="41.23371" lon="1.06015">
        <ele>670</ele>
        <time>2020-08-22 10:15:24</time>
      </trkpt>
      <trkpt lat="41.23369" lon="1.06012">
        <ele>670.2</ele>
        <time>2020-08-22 10:15:25</time>
      </trkpt>
      <trkpt lat="41.23367" lon="1.06008">
        <ele>670.4</ele>
        <time>2020-08-22 10:15:26</time>
      </trkpt>
      <trkpt lat="41.23366" lon="1.06005">
        <ele>670.6</ele>
        <time>2020-08-22 10:15:27</time>
      </trkpt>
      <trkpt lat="41.23365" lon="1.06001">
        <ele>670.8</ele>
        <time>2020-08-22 10:15:28</time>
      </trkpt>
      <trkpt lat="41.23365" lon="1.05997">
        <ele>671.2</ele>
        <time>2020-08-22 10:15:29</time>
      </trkpt>
      <trkpt lat="41.23366" lon="1.05992">
        <ele>671.4</ele>
        <time>2020-08-22 10:15:30</time>
      </trkpt>
      <trkpt lat="41.23367" lon="1.05988">
        <ele>671.6</ele>
        <time>2020-08-22 10:15:31</time>
      </trkpt>
      <trkpt lat="41.23369" lon="1.05985">
        <ele>671.6</ele>
        <time>2020-08-22 10:15:32</time>
      </trkpt>
      <trkpt lat="41.23371" lon="1.05981">
        <ele>672</ele>
        <time>2020-08-22 10:15:33</time>
      </trkpt>
      <trkpt lat="41.23373" lon="1.05978">
        <ele>672</ele>
        <time>2020-08-22 10:15:34</time>
      </trkpt>
      <trkpt lat="41.23376" lon="1.05975">
        <ele>672.6</ele>
        <time>2020-08-22 10:15:35</time>
      </trkpt>
      <trkpt lat="41.23378" lon="1.05972">
        <ele>673</ele>
        <time>2020-08-22 10:15:36</time>
      </trkpt>
      <trkpt lat="41.2338" lon="1.05968">
        <ele>673.2</ele>
        <time>2020-08-22 10:15:37</time>
      </trkpt>
      <trkpt lat="41.23382" lon="1.05965">
        <ele>673.6</ele>
        <time>2020-08-22 10:15:38</time>
      </trkpt>
      <trkpt lat="41.23384" lon="1.05961">
        <ele>673.8</ele>
        <time>2020-08-22 10:15:39</time>
      </trkpt>
      <trkpt lat="41.23385" lon="1.05958">
        <ele>674.2</ele>
        <time>2020-08-22 10:15:40</time>
      </trkpt>
      <trkpt lat="41.23386" lon="1.05953">
        <ele>674.4</ele>
        <time>2020-08-22 10:15:41</time>
      </trkpt>
      <trkpt lat="41.23387" lon="1.0595">
        <ele>674.6</ele>
        <time>2020-08-22 10:15:42</time>
      </trkpt>
      <trkpt lat="41.23388" lon="1.05946">
        <ele>674.8</ele>
        <time>2020-08-22 10:15:43</time>
      </trkpt>
      <trkpt lat="41.2339" lon="1.05942">
        <ele>675</ele>
        <time>2020-08-22 10:15:44</time>
      </trkpt>
      <trkpt lat="41.23391" lon="1.05939">
        <ele>675.4</ele>
        <time>2020-08-22 10:15:45</time>
      </trkpt>
      <trkpt lat="41.23392" lon="1.05935">
        <ele>675.6</ele>
        <time>2020-08-22 10:15:46</time>
      </trkpt>
      <trkpt lat="41.23393" lon="1.05931">
        <ele>676</ele>
        <time>2020-08-22 10:15:47</time>
      </trkpt>
      <trkpt lat="41.23395" lon="1.05927">
        <ele>676.2</ele>
        <time>2020-08-22 10:15:48</time>
      </trkpt>
      <trkpt lat="41.23396" lon="1.05924">
        <ele>676.4</ele>
        <time>2020-08-22 10:15:49</time>
      </trkpt>
      <trkpt lat="41.23397" lon="1.0592">
        <ele>676.6</ele>
        <time>2020-08-22 10:15:50</time>
      </trkpt>
      <trkpt lat="41.23399" lon="1.05916">
        <ele>676.8</ele>
        <time>2020-08-22 10:15:51</time>
      </trkpt>
      <trkpt lat="41.23401" lon="1.05912">
        <ele>677.2</ele>
        <time>2020-08-22 10:15:52</time>
      </trkpt>
      <trkpt lat="41.23403" lon="1.05909">
        <ele>677.4</ele>
        <time>2020-08-22 10:15:53</time>
      </trkpt>
      <trkpt lat="41.23405" lon="1.05906">
        <ele>677.6</ele>
        <time>2020-08-22 10:15:54</time>
      </trkpt>
      <trkpt lat="41.23408" lon="1.05904">
        <ele>677.8</ele>
        <time>2020-08-22 10:15:55</time>
      </trkpt>
      <trkpt lat="41.2341" lon="1.05902">
        <ele>678</ele>
        <time>2020-08-22 10:15:56</time>
      </trkpt>
      <trkpt lat="41.23413" lon="1.05902">
        <ele>678.4</ele>
        <time>2020-08-22 10:15:57</time>
      </trkpt>
      <trkpt lat="41.23416" lon="1.05902">
        <ele>678.6</ele>
        <time>2020-08-22 10:15:58</time>
      </trkpt>
      <trkpt lat="41.23419" lon="1.05903">
        <ele>678.8</ele>
        <time>2020-08-22 10:15:59</time>
      </trkpt>
      <trkpt lat="41.23422" lon="1.05905">
        <ele>679</ele>
        <time>2020-08-22 10:16:00</time>
      </trkpt>
      <trkpt lat="41.23425" lon="1.05907">
        <ele>679.4</ele>
        <time>2020-08-22 10:16:01</time>
      </trkpt>
      <trkpt lat="41.23427" lon="1.0591">
        <ele>679.6</ele>
        <time>2020-08-22 10:16:02</time>
      </trkpt>
      <trkpt lat="41.23428" lon="1.05913">
        <ele>679.8</ele>
        <time>2020-08-22 10:16:03</time>
      </trkpt>
      <trkpt lat="41.23429" lon="1.05917">
        <ele>680</ele>
        <time>2020-08-22 10:16:04</time>
      </trkpt>
      <trkpt lat="41.23429" lon="1.0592">
        <ele>680.6</ele>
        <time>2020-08-22 10:16:05</time>
      </trkpt>
      <trkpt lat="41.23429" lon="1.05923">
        <ele>680.8</ele>
        <time>2020-08-22 10:16:06</time>
      </trkpt>
      <trkpt lat="41.23428" lon="1.05926">
        <ele>681.2</ele>
        <time>2020-08-22 10:16:07</time>
      </trkpt>
      <trkpt lat="41.23426" lon="1.05929">
        <ele>681.2</ele>
        <time>2020-08-22 10:16:08</time>
      </trkpt>
      <trkpt lat="41.23425" lon="1.05932">
        <ele>681.6</ele>
        <time>2020-08-22 10:16:09</time>
      </trkpt>
      <trkpt lat="41.23423" lon="1.05936">
        <ele>681.8</ele>
        <time>2020-08-22 10:16:10</time>
      </trkpt>
      <trkpt lat="41.23421" lon="1.05938">
        <ele>681.8</ele>
        <time>2020-08-22 10:16:11</time>
      </trkpt>
      <trkpt lat="41.23419" lon="1.05941">
        <ele>682.4</ele>
        <time>2020-08-22 10:16:12</time>
      </trkpt>
      <trkpt lat="41.23417" lon="1.05945">
        <ele>682.6</ele>
        <time>2020-08-22 10:16:13</time>
      </trkpt>
      <trkpt lat="41.23415" lon="1.05948">
        <ele>683</ele>
        <time>2020-08-22 10:16:14</time>
      </trkpt>
      <trkpt lat="41.23413" lon="1.0595">
        <ele>683.2</ele>
        <time>2020-08-22 10:16:15</time>
      </trkpt>
      <trkpt lat="41.23412" lon="1.05953">
        <ele>683.6</ele>
        <time>2020-08-22 10:16:16</time>
      </trkpt>
      <trkpt lat="41.23411" lon="1.05956">
        <ele>683.8</ele>
        <time>2020-08-22 10:16:17</time>
      </trkpt>
      <trkpt lat="41.2341" lon="1.05959">
        <ele>684</ele>
        <time>2020-08-22 10:16:18</time>
      </trkpt>
      <trkpt lat="41.2341" lon="1.05962">
        <ele>684.2</ele>
        <time>2020-08-22 10:16:19</time>
      </trkpt>
      <trkpt lat="41.23409" lon="1.05966">
        <ele>684.4</ele>
        <time>2020-08-22 10:16:20</time>
      </trkpt>
      <trkpt lat="41.23409" lon="1.05969">
        <ele>684.6</ele>
        <time>2020-08-22 10:16:21</time>
      </trkpt>
      <trkpt lat="41.2341" lon="1.05973">
        <ele>684.8</ele>
        <time>2020-08-22 10:16:22</time>
      </trkpt>
      <trkpt lat="41.23411" lon="1.05977">
        <ele>685</ele>
        <time>2020-08-22 10:16:23</time>
      </trkpt>
      <trkpt lat="41.23412" lon="1.0598">
        <ele>685.2</ele>
        <time>2020-08-22 10:16:24</time>
      </trkpt>
      <trkpt lat="41.23414" lon="1.05983">
        <ele>685.2</ele>
        <time>2020-08-22 10:16:25</time>
      </trkpt>
      <trkpt lat="41.23415" lon="1.05986">
        <ele>685.4</ele>
        <time>2020-08-22 10:16:26</time>
      </trkpt>
      <trkpt lat="41.23417" lon="1.05989">
        <ele>685.6</ele>
        <time>2020-08-22 10:16:27</time>
      </trkpt>
      <trkpt lat="41.23418" lon="1.05992">
        <ele>685.8</ele>
        <time>2020-08-22 10:16:28</time>
      </trkpt>
      <trkpt lat="41.2342" lon="1.05995">
        <ele>686</ele>
        <time>2020-08-22 10:16:29</time>
      </trkpt>
      <trkpt lat="41.23421" lon="1.05998">
        <ele>686.2</ele>
        <time>2020-08-22 10:16:30</time>
      </trkpt>
      <trkpt lat="41.23422" lon="1.06002">
        <ele>686.4</ele>
        <time>2020-08-22 10:16:31</time>
      </trkpt>
      <trkpt lat="41.23424" lon="1.06005">
        <ele>686.6</ele>
        <time>2020-08-22 10:16:32</time>
      </trkpt>
      <trkpt lat="41.23425" lon="1.06008">
        <ele>686.6</ele>
        <time>2020-08-22 10:16:33</time>
      </trkpt>
      <trkpt lat="41.23427" lon="1.06012">
        <ele>686.8</ele>
        <time>2020-08-22 10:16:34</time>
      </trkpt>
      <trkpt lat="41.23429" lon="1.06015">
        <ele>687</ele>
        <time>2020-08-22 10:16:35</time>
      </trkpt>
      <trkpt lat="41.2343" lon="1.06018">
        <ele>687</ele>
        <time>2020-08-22 10:16:36</time>
      </trkpt>
      <trkpt lat="41.23432" lon="1.06022">
        <ele>687.2</ele>
        <time>2020-08-22 10:16:37</time>
      </trkpt>
      <trkpt lat="41.23434" lon="1.06026">
        <ele>687.4</ele>
        <time>2020-08-22 10:16:38</time>
      </trkpt>
      <trkpt lat="41.23436" lon="1.0603">
        <ele>687.8</ele>
        <time>2020-08-22 10:16:39</time>
      </trkpt>
      <trkpt lat="41.23438" lon="1.06033">
        <ele>688</ele>
        <time>2020-08-22 10:16:40</time>
      </trkpt>
      <trkpt lat="41.2344" lon="1.06036">
        <ele>688.4</ele>
        <time>2020-08-22 10:16:41</time>
      </trkpt>
      <trkpt lat="41.23442" lon="1.06039">
        <ele>688.6</ele>
        <time>2020-08-22 10:16:42</time>
      </trkpt>
      <trkpt lat="41.23446" lon="1.06042">
        <ele>688.8</ele>
        <time>2020-08-22 10:16:43</time>
      </trkpt>
      <trkpt lat="41.23448" lon="1.06045">
        <ele>689</ele>
        <time>2020-08-22 10:16:44</time>
      </trkpt>
      <trkpt lat="41.23451" lon="1.06048">
        <ele>689.2</ele>
        <time>2020-08-22 10:16:45</time>
      </trkpt>
      <trkpt lat="41.23454" lon="1.0605">
        <ele>689.6</ele>
        <time>2020-08-22 10:16:46</time>
      </trkpt>
      <trkpt lat="41.23457" lon="1.06052">
        <ele>689.8</ele>
        <time>2020-08-22 10:16:47</time>
      </trkpt>
      <trkpt lat="41.2346" lon="1.06053">
        <ele>690.2</ele>
        <time>2020-08-22 10:16:48</time>
      </trkpt>
      <trkpt lat="41.23464" lon="1.06056">
        <ele>690.2</ele>
        <time>2020-08-22 10:16:49</time>
      </trkpt>
      <trkpt lat="41.23466" lon="1.06058">
        <ele>690.4</ele>
        <time>2020-08-22 10:16:50</time>
      </trkpt>
      <trkpt lat="41.23469" lon="1.0606">
        <ele>690.6</ele>
        <time>2020-08-22 10:16:51</time>
      </trkpt>
      <trkpt lat="41.23473" lon="1.06062">
        <ele>690.8</ele>
        <time>2020-08-22 10:16:52</time>
      </trkpt>
      <trkpt lat="41.23476" lon="1.06064">
        <ele>691</ele>
        <time>2020-08-22 10:16:53</time>
      </trkpt>
      <trkpt lat="41.23479" lon="1.06066">
        <ele>691.2</ele>
        <time>2020-08-22 10:16:54</time>
      </trkpt>
      <trkpt lat="41.23482" lon="1.06068">
        <ele>691.4</ele>
        <time>2020-08-22 10:16:55</time>
      </trkpt>
      <trkpt lat="41.23485" lon="1.0607">
        <ele>691.6</ele>
        <time>2020-08-22 10:16:56</time>
      </trkpt>
      <trkpt lat="41.23489" lon="1.06072">
        <ele>691.8</ele>
        <time>2020-08-22 10:16:57</time>
      </trkpt>
      <trkpt lat="41.23492" lon="1.06074">
        <ele>692</ele>
        <time>2020-08-22 10:16:58</time>
      </trkpt>
      <trkpt lat="41.23495" lon="1.06076">
        <ele>692.4</ele>
        <time>2020-08-22 10:16:59</time>
      </trkpt>
      <trkpt lat="41.23498" lon="1.06078">
        <ele>692.6</ele>
        <time>2020-08-22 10:17:00</time>
      </trkpt>
      <trkpt lat="41.23501" lon="1.0608">
        <ele>692.8</ele>
        <time>2020-08-22 10:17:01</time>
      </trkpt>
      <trkpt lat="41.23505" lon="1.06082">
        <ele>693</ele>
        <time>2020-08-22 10:17:02</time>
      </trkpt>
      <trkpt lat="41.23508" lon="1.06083">
        <ele>693.2</ele>
        <time>2020-08-22 10:17:03</time>
      </trkpt>
      <trkpt lat="41.23512" lon="1.06084">
        <ele>693.4</ele>
        <time>2020-08-22 10:17:04</time>
      </trkpt>
      <trkpt lat="41.23515" lon="1.06083">
        <ele>693.6</ele>
        <time>2020-08-22 10:17:05</time>
      </trkpt>
      <trkpt lat="41.23519" lon="1.06082">
        <ele>693.8</ele>
        <time>2020-08-22 10:17:06</time>
      </trkpt>
      <trkpt lat="41.23522" lon="1.06081">
        <ele>693.8</ele>
        <time>2020-08-22 10:17:07</time>
      </trkpt>
      <trkpt lat="41.23525" lon="1.06078">
        <ele>694.2</ele>
        <time>2020-08-22 10:17:08</time>
      </trkpt>
      <trkpt lat="41.23528" lon="1.06076">
        <ele>694.6</ele>
        <time>2020-08-22 10:17:09</time>
      </trkpt>
      <trkpt lat="41.23532" lon="1.06073">
        <ele>694.8</ele>
        <time>2020-08-22 10:17:10</time>
      </trkpt>
      <trkpt lat="41.23535" lon="1.0607">
        <ele>694.8</ele>
        <time>2020-08-22 10:17:11</time>
      </trkpt>
      <trkpt lat="41.23538" lon="1.06067">
        <ele>695</ele>
        <time>2020-08-22 10:17:12</time>
      </trkpt>
      <trkpt lat="41.23541" lon="1.06064">
        <ele>695.4</ele>
        <time>2020-08-22 10:17:13</time>
      </trkpt>
      <trkpt lat="41.23544" lon="1.0606">
        <ele>695.4</ele>
        <time>2020-08-22 10:17:14</time>
      </trkpt>
      <trkpt lat="41.23547" lon="1.06057">
        <ele>695.6</ele>
        <time>2020-08-22 10:17:15</time>
      </trkpt>
      <trkpt lat="41.2355" lon="1.06053">
        <ele>695.8</ele>
        <time>2020-08-22 10:17:16</time>
      </trkpt>
      <trkpt lat="41.23553" lon="1.06049">
        <ele>696.2</ele>
        <time>2020-08-22 10:17:17</time>
      </trkpt>
      <trkpt lat="41.23555" lon="1.06045">
        <ele>696.6</ele>
        <time>2020-08-22 10:17:18</time>
      </trkpt>
      <trkpt lat="41.23558" lon="1.06041">
        <ele>696.8</ele>
        <time>2020-08-22 10:17:19</time>
      </trkpt>
      <trkpt lat="41.23559" lon="1.06036">
        <ele>697.2</ele>
        <time>2020-08-22 10:17:20</time>
      </trkpt>
      <trkpt lat="41.23559" lon="1.06031">
        <ele>697.4</ele>
        <time>2020-08-22 10:17:21</time>
      </trkpt>
      <trkpt lat="41.23559" lon="1.06026">
        <ele>697.8</ele>
        <time>2020-08-22 10:17:22</time>
      </trkpt>
      <trkpt lat="41.23558" lon="1.06021">
        <ele>698.2</ele>
        <time>2020-08-22 10:17:23</time>
      </trkpt>
      <trkpt lat="41.23556" lon="1.06016">
        <ele>698.6</ele>
        <time>2020-08-22 10:17:24</time>
      </trkpt>
      <trkpt lat="41.23554" lon="1.06011">
        <ele>698.6</ele>
        <time>2020-08-22 10:17:25</time>
      </trkpt>
      <trkpt lat="41.23551" lon="1.06007">
        <ele>699.4</ele>
        <time>2020-08-22 10:17:26</time>
      </trkpt>
      <trkpt lat="41.23548" lon="1.06003">
        <ele>699.6</ele>
        <time>2020-08-22 10:17:27</time>
      </trkpt>
      <trkpt lat="41.23544" lon="1.06">
        <ele>699.8</ele>
        <time>2020-08-22 10:17:28</time>
      </trkpt>
      <trkpt lat="41.23541" lon="1.05997">
        <ele>700</ele>
        <time>2020-08-22 10:17:29</time>
      </trkpt>
      <trkpt lat="41.23537" lon="1.05993">
        <ele>699.8</ele>
        <time>2020-08-22 10:17:30</time>
      </trkpt>
      <trkpt lat="41.23534" lon="1.05991">
        <ele>700</ele>
        <time>2020-08-22 10:17:31</time>
      </trkpt>
      <trkpt lat="41.23531" lon="1.05987">
        <ele>700.2</ele>
        <time>2020-08-22 10:17:32</time>
      </trkpt>
      <trkpt lat="41.23527" lon="1.05984">
        <ele>700.4</ele>
        <time>2020-08-22 10:17:33</time>
      </trkpt>
      <trkpt lat="41.23524" lon="1.0598">
        <ele>700.6</ele>
        <time>2020-08-22 10:17:34</time>
      </trkpt>
      <trkpt lat="41.23521" lon="1.05975">
        <ele>700.8</ele>
        <time>2020-08-22 10:17:35</time>
      </trkpt>
      <trkpt lat="41.23519" lon="1.05971">
        <ele>701.2</ele>
        <time>2020-08-22 10:17:36</time>
      </trkpt>
      <trkpt lat="41.23517" lon="1.05966">
        <ele>701.4</ele>
        <time>2020-08-22 10:17:37</time>
      </trkpt>
      <trkpt lat="41.23515" lon="1.05961">
        <ele>701.6</ele>
        <time>2020-08-22 10:17:38</time>
      </trkpt>
      <trkpt lat="41.23514" lon="1.05956">
        <ele>701.6</ele>
        <time>2020-08-22 10:17:39</time>
      </trkpt>
      <trkpt lat="41.23512" lon="1.05951">
        <ele>702</ele>
        <time>2020-08-22 10:17:40</time>
      </trkpt>
      <trkpt lat="41.2351" lon="1.05945">
        <ele>702</ele>
        <time>2020-08-22 10:17:41</time>
      </trkpt>
      <trkpt lat="41.23509" lon="1.05939">
        <ele>702.4</ele>
        <time>2020-08-22 10:17:42</time>
      </trkpt>
      <trkpt lat="41.23508" lon="1.05933">
        <ele>702.6</ele>
        <time>2020-08-22 10:17:43</time>
      </trkpt>
      <trkpt lat="41.23507" lon="1.05927">
        <ele>702.6</ele>
        <time>2020-08-22 10:17:44</time>
      </trkpt>
      <trkpt lat="41.23506" lon="1.05921">
        <ele>702.8</ele>
        <time>2020-08-22 10:17:45</time>
      </trkpt>
      <trkpt lat="41.23507" lon="1.05915">
        <ele>702.8</ele>
        <time>2020-08-22 10:17:46</time>
      </trkpt>
      <trkpt lat="41.23508" lon="1.05909">
        <ele>703</ele>
        <time>2020-08-22 10:17:47</time>
      </trkpt>
      <trkpt lat="41.23511" lon="1.05904">
        <ele>703</ele>
        <time>2020-08-22 10:17:48</time>
      </trkpt>
      <trkpt lat="41.23515" lon="1.05901">
        <ele>703</ele>
        <time>2020-08-22 10:17:49</time>
      </trkpt>
      <trkpt lat="41.23519" lon="1.059">
        <ele>703.2</ele>
        <time>2020-08-22 10:17:50</time>
      </trkpt>
      <trkpt lat="41.23523" lon="1.05901">
        <ele>703.4</ele>
        <time>2020-08-22 10:17:51</time>
      </trkpt>
      <trkpt lat="41.23526" lon="1.05903">
        <ele>703.6</ele>
        <time>2020-08-22 10:17:52</time>
      </trkpt>
      <trkpt lat="41.23529" lon="1.05906">
        <ele>703.8</ele>
        <time>2020-08-22 10:17:53</time>
      </trkpt>
      <trkpt lat="41.23532" lon="1.05909">
        <ele>704</ele>
        <time>2020-08-22 10:17:54</time>
      </trkpt>
      <trkpt lat="41.23534" lon="1.05912">
        <ele>704</ele>
        <time>2020-08-22 10:17:55</time>
      </trkpt>
      <trkpt lat="41.23536" lon="1.05916">
        <ele>704.4</ele>
        <time>2020-08-22 10:17:56</time>
      </trkpt>
      <trkpt lat="41.23538" lon="1.0592">
        <ele>704.6</ele>
        <time>2020-08-22 10:17:57</time>
      </trkpt>
      <trkpt lat="41.23541" lon="1.05923">
        <ele>705</ele>
        <time>2020-08-22 10:17:58</time>
      </trkpt>
      <trkpt lat="41.23544" lon="1.05926">
        <ele>705</ele>
        <time>2020-08-22 10:17:59</time>
      </trkpt>
      <trkpt lat="41.23546" lon="1.0593">
        <ele>705.6</ele>
        <time>2020-08-22 10:18:00</time>
      </trkpt>
      <trkpt lat="41.23548" lon="1.05934">
        <ele>706</ele>
        <time>2020-08-22 10:18:01</time>
      </trkpt>
      <trkpt lat="41.2355" lon="1.05937">
        <ele>706</ele>
        <time>2020-08-22 10:18:02</time>
      </trkpt>
      <trkpt lat="41.23553" lon="1.05941">
        <ele>706.6</ele>
        <time>2020-08-22 10:18:03</time>
      </trkpt>
      <trkpt lat="41.23556" lon="1.05944">
        <ele>706.8</ele>
        <time>2020-08-22 10:18:04</time>
      </trkpt>
      <trkpt lat="41.23559" lon="1.05948">
        <ele>707</ele>
        <time>2020-08-22 10:18:05</time>
      </trkpt>
      <trkpt lat="41.23562" lon="1.05951">
        <ele>707.2</ele>
        <time>2020-08-22 10:18:06</time>
      </trkpt>
      <trkpt lat="41.23564" lon="1.05954">
        <ele>707.4</ele>
        <time>2020-08-22 10:18:07</time>
      </trkpt>
      <trkpt lat="41.23567" lon="1.05957">
        <ele>708</ele>
        <time>2020-08-22 10:18:08</time>
      </trkpt>
      <trkpt lat="41.23569" lon="1.0596">
        <ele>708.2</ele>
        <time>2020-08-22 10:18:09</time>
      </trkpt>
      <trkpt lat="41.23571" lon="1.05964">
        <ele>708.6</ele>
        <time>2020-08-22 10:18:10</time>
      </trkpt>
      <trkpt lat="41.23574" lon="1.05967">
        <ele>708.6</ele>
        <time>2020-08-22 10:18:11</time>
      </trkpt>
      <trkpt lat="41.23575" lon="1.0597">
        <ele>709.2</ele>
        <time>2020-08-22 10:18:12</time>
      </trkpt>
      <trkpt lat="41.23578" lon="1.05974">
        <ele>709.4</ele>
        <time>2020-08-22 10:18:13</time>
      </trkpt>
      <trkpt lat="41.23581" lon="1.05978">
        <ele>709.6</ele>
        <time>2020-08-22 10:18:14</time>
      </trkpt>
      <trkpt lat="41.23583" lon="1.05982">
        <ele>709.8</ele>
        <time>2020-08-22 10:18:15</time>
      </trkpt>
      <trkpt lat="41.23585" lon="1.05986">
        <ele>710</ele>
        <time>2020-08-22 10:18:16</time>
      </trkpt>
      <trkpt lat="41.23587" lon="1.0599">
        <ele>710.2</ele>
        <time>2020-08-22 10:18:17</time>
      </trkpt>
      <trkpt lat="41.23589" lon="1.05995">
        <ele>710.6</ele>
        <time>2020-08-22 10:18:18</time>
      </trkpt>
      <trkpt lat="41.23591" lon="1.05999">
        <ele>710.8</ele>
        <time>2020-08-22 10:18:19</time>
      </trkpt>
      <trkpt lat="41.23593" lon="1.06003">
        <ele>711</ele>
        <time>2020-08-22 10:18:20</time>
      </trkpt>
      <trkpt lat="41.23595" lon="1.06008">
        <ele>711.4</ele>
        <time>2020-08-22 10:18:21</time>
      </trkpt>
      <trkpt lat="41.23597" lon="1.06013">
        <ele>711.4</ele>
        <time>2020-08-22 10:18:22</time>
      </trkpt>
      <trkpt lat="41.23599" lon="1.06018">
        <ele>712.2</ele>
        <time>2020-08-22 10:18:23</time>
      </trkpt>
      <trkpt lat="41.23601" lon="1.06022">
        <ele>712.2</ele>
        <time>2020-08-22 10:18:24</time>
      </trkpt>
      <trkpt lat="41.23604" lon="1.06026">
        <ele>712.6</ele>
        <time>2020-08-22 10:18:25</time>
      </trkpt>
      <trkpt lat="41.23606" lon="1.0603">
        <ele>713</ele>
        <time>2020-08-22 10:18:26</time>
      </trkpt>
      <trkpt lat="41.23608" lon="1.06034">
        <ele>713</ele>
        <time>2020-08-22 10:18:27</time>
      </trkpt>
      <trkpt lat="41.23609" lon="1.06039">
        <ele>713.6</ele>
        <time>2020-08-22 10:18:28</time>
      </trkpt>
      <trkpt lat="41.23611" lon="1.06044">
        <ele>713.8</ele>
        <time>2020-08-22 10:18:29</time>
      </trkpt>
      <trkpt lat="41.23612" lon="1.06048">
        <ele>714</ele>
        <time>2020-08-22 10:18:30</time>
      </trkpt>
      <trkpt lat="41.23614" lon="1.06053">
        <ele>714</ele>
        <time>2020-08-22 10:18:31</time>
      </trkpt>
      <trkpt lat="41.23616" lon="1.06057">
        <ele>714.4</ele>
        <time>2020-08-22 10:18:32</time>
      </trkpt>
      <trkpt lat="41.23618" lon="1.06061">
        <ele>714.4</ele>
        <time>2020-08-22 10:18:33</time>
      </trkpt>
      <trkpt lat="41.23621" lon="1.06064">
        <ele>714.8</ele>
        <time>2020-08-22 10:18:34</time>
      </trkpt>
      <trkpt lat="41.23624" lon="1.06068">
        <ele>715.2</ele>
        <time>2020-08-22 10:18:35</time>
      </trkpt>
      <trkpt lat="41.23627" lon="1.0607">
        <ele>715.4</ele>
        <time>2020-08-22 10:18:36</time>
      </trkpt>
      <trkpt lat="41.2363" lon="1.06072">
        <ele>715.6</ele>
        <time>2020-08-22 10:18:37</time>
      </trkpt>
      <trkpt lat="41.23634" lon="1.06074">
        <ele>715.8</ele>
        <time>2020-08-22 10:18:38</time>
      </trkpt>
      <trkpt lat="41.23637" lon="1.06074">
        <ele>716.2</ele>
        <time>2020-08-22 10:18:39</time>
      </trkpt>
      <trkpt lat="41.2364" lon="1.06074">
        <ele>716.2</ele>
        <time>2020-08-22 10:18:40</time>
      </trkpt>
      <trkpt lat="41.23643" lon="1.06072">
        <ele>716.6</ele>
        <time>2020-08-22 10:18:41</time>
      </trkpt>
      <trkpt lat="41.23646" lon="1.0607">
        <ele>717</ele>
        <time>2020-08-22 10:18:42</time>
      </trkpt>
      <trkpt lat="41.23648" lon="1.06066">
        <ele>717.2</ele>
        <time>2020-08-22 10:18:43</time>
      </trkpt>
      <trkpt lat="41.23649" lon="1.06062">
        <ele>717.4</ele>
        <time>2020-08-22 10:18:44</time>
      </trkpt>
      <trkpt lat="41.2365" lon="1.06057">
        <ele>717.6</ele>
        <time>2020-08-22 10:18:45</time>
      </trkpt>
      <trkpt lat="41.2365" lon="1.06053">
        <ele>718</ele>
        <time>2020-08-22 10:18:46</time>
      </trkpt>
      <trkpt lat="41.2365" lon="1.06048">
        <ele>718.4</ele>
        <time>2020-08-22 10:18:47</time>
      </trkpt>
      <trkpt lat="41.23648" lon="1.06043">
        <ele>718.8</ele>
        <time>2020-08-22 10:18:48</time>
      </trkpt>
      <trkpt lat="41.23647" lon="1.06039">
        <ele>719</ele>
        <time>2020-08-22 10:18:49</time>
      </trkpt>
      <trkpt lat="41.23646" lon="1.06035">
        <ele>719.4</ele>
        <time>2020-08-22 10:18:50</time>
      </trkpt>
      <trkpt lat="41.23644" lon="1.0603">
        <ele>719.8</ele>
        <time>2020-08-22 10:18:51</time>
      </trkpt>
      <trkpt lat="41.23642" lon="1.06026">
        <ele>720</ele>
        <time>2020-08-22 10:18:52</time>
      </trkpt>
      <trkpt lat="41.23641" lon="1.06022">
        <ele>720.4</ele>
        <time>2020-08-22 10:18:53</time>
      </trkpt>
      <trkpt lat="41.23639" lon="1.06018">
        <ele>720.6</ele>
        <time>2020-08-22 10:18:54</time>
      </trkpt>
      <trkpt lat="41.23637" lon="1.06013">
        <ele>720.6</ele>
        <time>2020-08-22 10:18:55</time>
      </trkpt>
      <trkpt lat="41.23635" lon="1.06009">
        <ele>721</ele>
        <time>2020-08-22 10:18:56</time>
      </trkpt>
      <trkpt lat="41.23633" lon="1.06005">
        <ele>721.4</ele>
        <time>2020-08-22 10:18:57</time>
      </trkpt>
      <trkpt lat="41.23631" lon="1.06001">
        <ele>721.6</ele>
        <time>2020-08-22 10:18:58</time>
      </trkpt>
      <trkpt lat="41.23629" lon="1.05998">
        <ele>722</ele>
        <time>2020-08-22 10:18:59</time>
      </trkpt>
      <trkpt lat="41.23627" lon="1.05993">
        <ele>722.4</ele>
        <time>2020-08-22 10:19:00</time>
      </trkpt>
      <trkpt lat="41.23625" lon="1.05989">
        <ele>722.6</ele>
        <time>2020-08-22 10:19:01</time>
      </trkpt>
      <trkpt lat="41.23624" lon="1.05985">
        <ele>723</ele>
        <time>2020-08-22 10:19:02</time>
      </trkpt>
      <trkpt lat="41.23622" lon="1.05981">
        <ele>723.2</ele>
        <time>2020-08-22 10:19:03</time>
      </trkpt>
      <trkpt lat="41.2362" lon="1.05977">
        <ele>723.4</ele>
        <time>2020-08-22 10:19:04</time>
      </trkpt>
      <trkpt lat="41.23618" lon="1.05973">
        <ele>723.8</ele>
        <time>2020-08-22 10:19:05</time>
      </trkpt>
      <trkpt lat="41.23616" lon="1.05968">
        <ele>724</ele>
        <time>2020-08-22 10:19:06</time>
      </trkpt>
      <trkpt lat="41.23614" lon="1.05964">
        <ele>724.2</ele>
        <time>2020-08-22 10:19:07</time>
      </trkpt>
      <trkpt lat="41.23613" lon="1.0596">
        <ele>724.6</ele>
        <time>2020-08-22 10:19:08</time>
      </trkpt>
      <trkpt lat="41.23611" lon="1.05956">
        <ele>725</ele>
        <time>2020-08-22 10:19:09</time>
      </trkpt>
      <trkpt lat="41.23608" lon="1.05952">
        <ele>725.2</ele>
        <time>2020-08-22 10:19:10</time>
      </trkpt>
      <trkpt lat="41.23606" lon="1.05948">
        <ele>725.4</ele>
        <time>2020-08-22 10:19:11</time>
      </trkpt>
      <trkpt lat="41.23604" lon="1.05944">
        <ele>725.6</ele>
        <time>2020-08-22 10:19:12</time>
      </trkpt>
      <trkpt lat="41.23601" lon="1.05941">
        <ele>725.6</ele>
        <time>2020-08-22 10:19:13</time>
      </trkpt>
      <trkpt lat="41.23599" lon="1.05937">
        <ele>725.8</ele>
        <time>2020-08-22 10:19:14</time>
      </trkpt>
      <trkpt lat="41.23596" lon="1.05934">
        <ele>726.2</ele>
        <time>2020-08-22 10:19:15</time>
      </trkpt>
      <trkpt lat="41.23594" lon="1.0593">
        <ele>726.6</ele>
        <time>2020-08-22 10:19:16</time>
      </trkpt>
      <trkpt lat="41.23592" lon="1.05927">
        <ele>726.8</ele>
        <time>2020-08-22 10:19:17</time>
      </trkpt>
      <trkpt lat="41.2359" lon="1.05923">
        <ele>727.2</ele>
        <time>2020-08-22 10:19:18</time>
      </trkpt>
      <trkpt lat="41.23588" lon="1.05919">
        <ele>727.4</ele>
        <time>2020-08-22 10:19:19</time>
      </trkpt>
      <trkpt lat="41.23587" lon="1.05915">
        <ele>727.8</ele>
        <time>2020-08-22 10:19:20</time>
      </trkpt>
      <trkpt lat="41.23587" lon="1.05911">
        <ele>727.8</ele>
        <time>2020-08-22 10:19:21</time>
      </trkpt>
      <trkpt lat="41.23588" lon="1.05906">
        <ele>728</ele>
        <time>2020-08-22 10:19:22</time>
      </trkpt>
      <trkpt lat="41.2359" lon="1.05903">
        <ele>728.4</ele>
        <time>2020-08-22 10:19:23</time>
      </trkpt>
      <trkpt lat="41.23592" lon="1.059">
        <ele>728.8</ele>
        <time>2020-08-22 10:19:24</time>
      </trkpt>
      <trkpt lat="41.23595" lon="1.05896">
        <ele>729.2</ele>
        <time>2020-08-22 10:19:25</time>
      </trkpt>
      <trkpt lat="41.23598" lon="1.05894">
        <ele>729.4</ele>
        <time>2020-08-22 10:19:26</time>
      </trkpt>
      <trkpt lat="41.236" lon="1.05893">
        <ele>729.8</ele>
        <time>2020-08-22 10:19:27</time>
      </trkpt>
      <trkpt lat="41.23604" lon="1.05892">
        <ele>730</ele>
        <time>2020-08-22 10:19:28</time>
      </trkpt>
      <trkpt lat="41.23607" lon="1.05891">
        <ele>730.2</ele>
        <time>2020-08-22 10:19:29</time>
      </trkpt>
      <trkpt lat="41.2361" lon="1.05891">
        <ele>730.4</ele>
        <time>2020-08-22 10:19:30</time>
      </trkpt>
      <trkpt lat="41.23614" lon="1.05891">
        <ele>730.6</ele>
        <time>2020-08-22 10:19:31</time>
      </trkpt>
      <trkpt lat="41.23618" lon="1.05891">
        <ele>730.6</ele>
        <time>2020-08-22 10:19:32</time>
      </trkpt>
      <trkpt lat="41.23621" lon="1.05891">
        <ele>731</ele>
        <time>2020-08-22 10:19:33</time>
      </trkpt>
      <trkpt lat="41.23625" lon="1.05892">
        <ele>731.2</ele>
        <time>2020-08-22 10:19:34</time>
      </trkpt>
      <trkpt lat="41.23628" lon="1.05893">
        <ele>731.4</ele>
        <time>2020-08-22 10:19:35</time>
      </trkpt>
      <trkpt lat="41.23632" lon="1.05895">
        <ele>731.8</ele>
        <time>2020-08-22 10:19:36</time>
      </trkpt>
      <trkpt lat="41.23635" lon="1.05899">
        <ele>732</ele>
        <time>2020-08-22 10:19:37</time>
      </trkpt>
      <trkpt lat="41.23637" lon="1.05903">
        <ele>732.2</ele>
        <time>2020-08-22 10:19:38</time>
      </trkpt>
      <trkpt lat="41.23639" lon="1.05906">
        <ele>732.4</ele>
        <time>2020-08-22 10:19:39</time>
      </trkpt>
      <trkpt lat="41.23641" lon="1.0591">
        <ele>732.8</ele>
        <time>2020-08-22 10:19:40</time>
      </trkpt>
      <trkpt lat="41.23643" lon="1.05913">
        <ele>733</ele>
        <time>2020-08-22 10:19:41</time>
      </trkpt>
      <trkpt lat="41.23645" lon="1.05917">
        <ele>733.2</ele>
        <time>2020-08-22 10:19:42</time>
      </trkpt>
      <trkpt lat="41.23647" lon="1.05921">
        <ele>733.4</ele>
        <time>2020-08-22 10:19:43</time>
      </trkpt>
      <trkpt lat="41.2365" lon="1.05924">
        <ele>733.6</ele>
        <time>2020-08-22 10:19:44</time>
      </trkpt>
      <trkpt lat="41.23651" lon="1.05928">
        <ele>734</ele>
        <time>2020-08-22 10:19:45</time>
      </trkpt>
      <trkpt lat="41.23653" lon="1.05931">
        <ele>734.2</ele>
        <time>2020-08-22 10:19:46</time>
      </trkpt>
      <trkpt lat="41.23655" lon="1.05933">
        <ele>734.6</ele>
        <time>2020-08-22 10:19:47</time>
      </trkpt>
      <trkpt lat="41.23657" lon="1.05938">
        <ele>734.8</ele>
        <time>2020-08-22 10:19:48</time>
      </trkpt>
      <trkpt lat="41.23659" lon="1.05942">
        <ele>735.2</ele>
        <time>2020-08-22 10:19:49</time>
      </trkpt>
      <trkpt lat="41.23661" lon="1.05945">
        <ele>735.6</ele>
        <time>2020-08-22 10:19:50</time>
      </trkpt>
      <trkpt lat="41.23663" lon="1.05949">
        <ele>735.8</ele>
        <time>2020-08-22 10:19:51</time>
      </trkpt>
      <trkpt lat="41.23665" lon="1.05952">
        <ele>736.2</ele>
        <time>2020-08-22 10:19:52</time>
      </trkpt>
      <trkpt lat="41.23668" lon="1.05956">
        <ele>736.4</ele>
        <time>2020-08-22 10:19:53</time>
      </trkpt>
      <trkpt lat="41.2367" lon="1.05959">
        <ele>736.8</ele>
        <time>2020-08-22 10:19:54</time>
      </trkpt>
      <trkpt lat="41.23672" lon="1.05963">
        <ele>736.8</ele>
        <time>2020-08-22 10:19:55</time>
      </trkpt>
      <trkpt lat="41.23674" lon="1.05966">
        <ele>737.2</ele>
        <time>2020-08-22 10:19:56</time>
      </trkpt>
      <trkpt lat="41.23677" lon="1.05969">
        <ele>737.4</ele>
        <time>2020-08-22 10:19:57</time>
      </trkpt>
      <trkpt lat="41.2368" lon="1.05972">
        <ele>737.6</ele>
        <time>2020-08-22 10:19:58</time>
      </trkpt>
      <trkpt lat="41.23682" lon="1.05975">
        <ele>738</ele>
        <time>2020-08-22 10:19:59</time>
      </trkpt>
      <trkpt lat="41.23685" lon="1.05977">
        <ele>738.2</ele>
        <time>2020-08-22 10:20:00</time>
      </trkpt>
      <trkpt lat="41.23687" lon="1.0598">
        <ele>738.4</ele>
        <time>2020-08-22 10:20:01</time>
      </trkpt>
      <trkpt lat="41.2369" lon="1.05983">
        <ele>738.6</ele>
        <time>2020-08-22 10:20:02</time>
      </trkpt>
      <trkpt lat="41.23693" lon="1.05987">
        <ele>738.8</ele>
        <time>2020-08-22 10:20:03</time>
      </trkpt>
      <trkpt lat="41.23695" lon="1.0599">
        <ele>739</ele>
        <time>2020-08-22 10:20:04</time>
      </trkpt>
      <trkpt lat="41.23698" lon="1.05993">
        <ele>739.4</ele>
        <time>2020-08-22 10:20:05</time>
      </trkpt>
      <trkpt lat="41.23701" lon="1.05996">
        <ele>739.6</ele>
        <time>2020-08-22 10:20:06</time>
      </trkpt>
      <trkpt lat="41.23704" lon="1.05999">
        <ele>739.8</ele>
        <time>2020-08-22 10:20:07</time>
      </trkpt>
      <trkpt lat="41.23706" lon="1.06002">
        <ele>739.8</ele>
        <time>2020-08-22 10:20:08</time>
      </trkpt>
      <trkpt lat="41.23709" lon="1.06005">
        <ele>740</ele>
        <time>2020-08-22 10:20:09</time>
      </trkpt>
      <trkpt lat="41.23711" lon="1.06007">
        <ele>740.2</ele>
        <time>2020-08-22 10:20:10</time>
      </trkpt>
      <trkpt lat="41.23714" lon="1.0601">
        <ele>740.2</ele>
        <time>2020-08-22 10:20:11</time>
      </trkpt>
      <trkpt lat="41.23716" lon="1.06013">
        <ele>740.6</ele>
        <time>2020-08-22 10:20:12</time>
      </trkpt>
      <trkpt lat="41.23719" lon="1.06016">
        <ele>740.8</ele>
        <time>2020-08-22 10:20:13</time>
      </trkpt>
      <trkpt lat="41.23722" lon="1.0602">
        <ele>741</ele>
        <time>2020-08-22 10:20:14</time>
      </trkpt>
      <trkpt lat="41.23726" lon="1.06024">
        <ele>741.2</ele>
        <time>2020-08-22 10:20:15</time>
      </trkpt>
      <trkpt lat="41.23729" lon="1.06027">
        <ele>741.2</ele>
        <time>2020-08-22 10:20:16</time>
      </trkpt>
      <trkpt lat="41.23732" lon="1.06029">
        <ele>741.4</ele>
        <time>2020-08-22 10:20:17</time>
      </trkpt>
      <trkpt lat="41.23736" lon="1.06031">
        <ele>741.6</ele>
        <time>2020-08-22 10:20:18</time>
      </trkpt>
      <trkpt lat="41.23739" lon="1.06032">
        <ele>741.8</ele>
        <time>2020-08-22 10:20:19</time>
      </trkpt>
      <trkpt lat="41.23743" lon="1.06031">
        <ele>741.8</ele>
        <time>2020-08-22 10:20:20</time>
      </trkpt>
      <trkpt lat="41.23746" lon="1.0603">
        <ele>742</ele>
        <time>2020-08-22 10:20:21</time>
      </trkpt>
      <trkpt lat="41.2375" lon="1.06028">
        <ele>742.2</ele>
        <time>2020-08-22 10:20:22</time>
      </trkpt>
      <trkpt lat="41.23752" lon="1.06026">
        <ele>742.6</ele>
        <time>2020-08-22 10:20:23</time>
      </trkpt>
      <trkpt lat="41.23754" lon="1.06023">
        <ele>742.8</ele>
        <time>2020-08-22 10:20:24</time>
      </trkpt>
      <trkpt lat="41.23755" lon="1.06019">
        <ele>742.8</ele>
        <time>2020-08-22 10:20:25</time>
      </trkpt>
      <trkpt lat="41.23756" lon="1.06015">
        <ele>743.2</ele>
        <time>2020-08-22 10:20:26</time>
      </trkpt>
      <trkpt lat="41.23756" lon="1.0601">
        <ele>743.4</ele>
        <time>2020-08-22 10:20:27</time>
      </trkpt>
      <trkpt lat="41.23755" lon="1.06006">
        <ele>743.8</ele>
        <time>2020-08-22 10:20:28</time>
      </trkpt>
      <trkpt lat="41.23754" lon="1.06001">
        <ele>743.8</ele>
        <time>2020-08-22 10:20:29</time>
      </trkpt>
      <trkpt lat="41.23752" lon="1.05998">
        <ele>744</ele>
        <time>2020-08-22 10:20:30</time>
      </trkpt>
      <trkpt lat="41.23751" lon="1.05994">
        <ele>744</ele>
        <time>2020-08-22 10:20:31</time>
      </trkpt>
      <trkpt lat="41.23749" lon="1.05991">
        <ele>744</ele>
        <time>2020-08-22 10:20:32</time>
      </trkpt>
      <trkpt lat="41.23746" lon="1.05988">
        <ele>744</ele>
        <time>2020-08-22 10:20:33</time>
      </trkpt>
      <trkpt lat="41.23744" lon="1.05985">
        <ele>744.2</ele>
        <time>2020-08-22 10:20:34</time>
      </trkpt>
      <trkpt lat="41.23742" lon="1.05982">
        <ele>744.4</ele>
        <time>2020-08-22 10:20:35</time>
      </trkpt>
      <trkpt lat="41.2374" lon="1.05979">
        <ele>744.6</ele>
        <time>2020-08-22 10:20:36</time>
      </trkpt>
      <trkpt lat="41.23738" lon="1.05976">
        <ele>745.6</ele>
        <time>2020-08-22 10:20:37</time>
      </trkpt>
      <trkpt lat="41.23735" lon="1.05972">
        <ele>746.4</ele>
        <time>2020-08-22 10:20:38</time>
      </trkpt>
      <trkpt lat="41.23733" lon="1.05969">
        <ele>747</ele>
        <time>2020-08-22 10:20:39</time>
      </trkpt>
      <trkpt lat="41.23731" lon="1.05965">
        <ele>747.2</ele>
        <time>2020-08-22 10:20:40</time>
      </trkpt>
      <trkpt lat="41.23729" lon="1.05962">
        <ele>747.4</ele>
        <time>2020-08-22 10:20:41</time>
      </trkpt>
      <trkpt lat="41.23727" lon="1.05959">
        <ele>747.4</ele>
        <time>2020-08-22 10:20:42</time>
      </trkpt>
      <trkpt lat="41.23724" lon="1.05955">
        <ele>747.4</ele>
        <time>2020-08-22 10:20:43</time>
      </trkpt>
      <trkpt lat="41.23722" lon="1.05951">
        <ele>747.4</ele>
        <time>2020-08-22 10:20:44</time>
      </trkpt>
      <trkpt lat="41.23719" lon="1.05947">
        <ele>747.4</ele>
        <time>2020-08-22 10:20:45</time>
      </trkpt>
      <trkpt lat="41.23716" lon="1.05943">
        <ele>747.4</ele>
        <time>2020-08-22 10:20:46</time>
      </trkpt>
      <trkpt lat="41.23712" lon="1.05938">
        <ele>747.4</ele>
        <time>2020-08-22 10:20:47</time>
      </trkpt>
      <trkpt lat="41.23709" lon="1.05933">
        <ele>747.4</ele>
        <time>2020-08-22 10:20:48</time>
      </trkpt>
      <trkpt lat="41.23704" lon="1.05923">
        <ele>747.4</ele>
        <time>2020-08-22 10:20:50</time>
      </trkpt>
      <trkpt lat="41.23702" lon="1.05918">
        <ele>747.4</ele>
        <time>2020-08-22 10:20:51</time>
      </trkpt>
      <trkpt lat="41.237" lon="1.05912">
        <ele>747.4</ele>
        <time>2020-08-22 10:20:52</time>
      </trkpt>
      <trkpt lat="41.23698" lon="1.05906">
        <ele>747.4</ele>
        <time>2020-08-22 10:20:53</time>
      </trkpt>
      <trkpt lat="41.23697" lon="1.059">
        <ele>747.6</ele>
        <time>2020-08-22 10:20:54</time>
      </trkpt>
      <trkpt lat="41.23698" lon="1.05894">
        <ele>747.6</ele>
        <time>2020-08-22 10:20:55</time>
      </trkpt>
      <trkpt lat="41.23699" lon="1.05888">
        <ele>747.8</ele>
        <time>2020-08-22 10:20:56</time>
      </trkpt>
      <trkpt lat="41.23701" lon="1.05883">
        <ele>747.8</ele>
        <time>2020-08-22 10:20:57</time>
      </trkpt>
      <trkpt lat="41.23704" lon="1.0588">
        <ele>747.8</ele>
        <time>2020-08-22 10:20:58</time>
      </trkpt>
      <trkpt lat="41.23708" lon="1.05879">
        <ele>747.8</ele>
        <time>2020-08-22 10:20:59</time>
      </trkpt>
      <trkpt lat="41.23711" lon="1.0588">
        <ele>748</ele>
        <time>2020-08-22 10:21:00</time>
      </trkpt>
      <trkpt lat="41.23714" lon="1.05883">
        <ele>748.2</ele>
        <time>2020-08-22 10:21:01</time>
      </trkpt>
      <trkpt lat="41.23717" lon="1.05887">
        <ele>748.4</ele>
        <time>2020-08-22 10:21:02</time>
      </trkpt>
      <trkpt lat="41.23719" lon="1.05891">
        <ele>748.6</ele>
        <time>2020-08-22 10:21:03</time>
      </trkpt>
      <trkpt lat="41.23721" lon="1.05896">
        <ele>749</ele>
        <time>2020-08-22 10:21:04</time>
      </trkpt>
      <trkpt lat="41.23723" lon="1.05901">
        <ele>749.2</ele>
        <time>2020-08-22 10:21:05</time>
      </trkpt>
      <trkpt lat="41.23724" lon="1.05905">
        <ele>749.4</ele>
        <time>2020-08-22 10:21:06</time>
      </trkpt>
      <trkpt lat="41.23726" lon="1.0591">
        <ele>749.6</ele>
        <time>2020-08-22 10:21:07</time>
      </trkpt>
      <trkpt lat="41.23728" lon="1.05914">
        <ele>749.6</ele>
        <time>2020-08-22 10:21:08</time>
      </trkpt>
      <trkpt lat="41.23729" lon="1.05919">
        <ele>750</ele>
        <time>2020-08-22 10:21:09</time>
      </trkpt>
      <trkpt lat="41.23731" lon="1.05924">
        <ele>750</ele>
        <time>2020-08-22 10:21:10</time>
      </trkpt>
      <trkpt lat="41.23733" lon="1.05928">
        <ele>750.6</ele>
        <time>2020-08-22 10:21:11</time>
      </trkpt>
      <trkpt lat="41.23735" lon="1.05933">
        <ele>750.6</ele>
        <time>2020-08-22 10:21:12</time>
      </trkpt>
      <trkpt lat="41.23736" lon="1.05936">
        <ele>751</ele>
        <time>2020-08-22 10:21:13</time>
      </trkpt>
      <trkpt lat="41.23738" lon="1.0594">
        <ele>751.4</ele>
        <time>2020-08-22 10:21:14</time>
      </trkpt>
      <trkpt lat="41.23739" lon="1.05944">
        <ele>751.6</ele>
        <time>2020-08-22 10:21:15</time>
      </trkpt>
      <trkpt lat="41.23741" lon="1.05947">
        <ele>752</ele>
        <time>2020-08-22 10:21:16</time>
      </trkpt>
      <trkpt lat="41.23743" lon="1.05951">
        <ele>752.2</ele>
        <time>2020-08-22 10:21:17</time>
      </trkpt>
      <trkpt lat="41.23744" lon="1.05955">
        <ele>752.4</ele>
        <time>2020-08-22 10:21:18</time>
      </trkpt>
      <trkpt lat="41.23746" lon="1.05959">
        <ele>752.6</ele>
        <time>2020-08-22 10:21:19</time>
      </trkpt>
      <trkpt lat="41.23748" lon="1.05963">
        <ele>753</ele>
        <time>2020-08-22 10:21:20</time>
      </trkpt>
      <trkpt lat="41.2375" lon="1.05967">
        <ele>753</ele>
        <time>2020-08-22 10:21:21</time>
      </trkpt>
      <trkpt lat="41.23752" lon="1.05971">
        <ele>753.4</ele>
        <time>2020-08-22 10:21:22</time>
      </trkpt>
      <trkpt lat="41.23753" lon="1.05974">
        <ele>753.8</ele>
        <time>2020-08-22 10:21:23</time>
      </trkpt>
      <trkpt lat="41.23756" lon="1.05979">
        <ele>754</ele>
        <time>2020-08-22 10:21:24</time>
      </trkpt>
      <trkpt lat="41.23758" lon="1.05982">
        <ele>754.2</ele>
        <time>2020-08-22 10:21:25</time>
      </trkpt>
      <trkpt lat="41.2376" lon="1.05985">
        <ele>754.2</ele>
        <time>2020-08-22 10:21:26</time>
      </trkpt>
      <trkpt lat="41.23763" lon="1.05987">
        <ele>754.4</ele>
        <time>2020-08-22 10:21:27</time>
      </trkpt>
      <trkpt lat="41.23767" lon="1.05989">
        <ele>754.4</ele>
        <time>2020-08-22 10:21:28</time>
      </trkpt>
      <trkpt lat="41.2377" lon="1.0599">
        <ele>754.6</ele>
        <time>2020-08-22 10:21:29</time>
      </trkpt>
      <trkpt lat="41.23774" lon="1.05989">
        <ele>754.8</ele>
        <time>2020-08-22 10:21:30</time>
      </trkpt>
      <trkpt lat="41.23777" lon="1.05987">
        <ele>755</ele>
        <time>2020-08-22 10:21:31</time>
      </trkpt>
      <trkpt lat="41.23779" lon="1.05983">
        <ele>755.2</ele>
        <time>2020-08-22 10:21:32</time>
      </trkpt>
      <trkpt lat="41.23781" lon="1.05979">
        <ele>755.2</ele>
        <time>2020-08-22 10:21:33</time>
      </trkpt>
      <trkpt lat="41.23782" lon="1.05975">
        <ele>755.2</ele>
        <time>2020-08-22 10:21:34</time>
      </trkpt>
      <trkpt lat="41.23781" lon="1.0597">
        <ele>755.2</ele>
        <time>2020-08-22 10:21:35</time>
      </trkpt>
      <trkpt lat="41.2378" lon="1.05966">
        <ele>755.2</ele>
        <time>2020-08-22 10:21:36</time>
      </trkpt>
      <trkpt lat="41.23779" lon="1.05962">
        <ele>755.4</ele>
        <time>2020-08-22 10:21:37</time>
      </trkpt>
      <trkpt lat="41.23777" lon="1.05957">
        <ele>755.8</ele>
        <time>2020-08-22 10:21:38</time>
      </trkpt>
      <trkpt lat="41.23775" lon="1.05953">
        <ele>756.2</ele>
        <time>2020-08-22 10:21:39</time>
      </trkpt>
      <trkpt lat="41.23772" lon="1.0595">
        <ele>756.4</ele>
        <time>2020-08-22 10:21:40</time>
      </trkpt>
      <trkpt lat="41.23769" lon="1.05947">
        <ele>756.8</ele>
        <time>2020-08-22 10:21:41</time>
      </trkpt>
      <trkpt lat="41.23767" lon="1.05943">
        <ele>757</ele>
        <time>2020-08-22 10:21:42</time>
      </trkpt>
      <trkpt lat="41.23764" lon="1.0594">
        <ele>757.2</ele>
        <time>2020-08-22 10:21:43</time>
      </trkpt>
      <trkpt lat="41.23762" lon="1.05936">
        <ele>757.4</ele>
        <time>2020-08-22 10:21:44</time>
      </trkpt>
      <trkpt lat="41.23759" lon="1.05932">
        <ele>758</ele>
        <time>2020-08-22 10:21:45</time>
      </trkpt>
      <trkpt lat="41.23757" lon="1.05928">
        <ele>758</ele>
        <time>2020-08-22 10:21:46</time>
      </trkpt>
      <trkpt lat="41.23754" lon="1.05924">
        <ele>758.2</ele>
        <time>2020-08-22 10:21:47</time>
      </trkpt>
      <trkpt lat="41.23752" lon="1.0592">
        <ele>758.6</ele>
        <time>2020-08-22 10:21:48</time>
      </trkpt>
      <trkpt lat="41.23749" lon="1.05916">
        <ele>758.8</ele>
        <time>2020-08-22 10:21:49</time>
      </trkpt>
      <trkpt lat="41.23747" lon="1.05912">
        <ele>759</ele>
        <time>2020-08-22 10:21:50</time>
      </trkpt>
      <trkpt lat="41.23744" lon="1.05908">
        <ele>759</ele>
        <time>2020-08-22 10:21:51</time>
      </trkpt>
      <trkpt lat="41.23742" lon="1.05904">
        <ele>759.4</ele>
        <time>2020-08-22 10:21:52</time>
      </trkpt>
      <trkpt lat="41.2374" lon="1.059">
        <ele>759.6</ele>
        <time>2020-08-22 10:21:53</time>
      </trkpt>
      <trkpt lat="41.23738" lon="1.05896">
        <ele>760</ele>
        <time>2020-08-22 10:21:54</time>
      </trkpt>
      <trkpt lat="41.23736" lon="1.05891">
        <ele>760.2</ele>
        <time>2020-08-22 10:21:55</time>
      </trkpt>
      <trkpt lat="41.23734" lon="1.05887">
        <ele>760.4</ele>
        <time>2020-08-22 10:21:56</time>
      </trkpt>
      <trkpt lat="41.23732" lon="1.05883">
        <ele>760.6</ele>
        <time>2020-08-22 10:21:57</time>
      </trkpt>
      <trkpt lat="41.23729" lon="1.05878">
        <ele>760.8</ele>
        <time>2020-08-22 10:21:58</time>
      </trkpt>
      <trkpt lat="41.23728" lon="1.05873">
        <ele>761</ele>
        <time>2020-08-22 10:21:59</time>
      </trkpt>
      <trkpt lat="41.23727" lon="1.05868">
        <ele>761.2</ele>
        <time>2020-08-22 10:22:00</time>
      </trkpt>
      <trkpt lat="41.23727" lon="1.05864">
        <ele>761.4</ele>
        <time>2020-08-22 10:22:01</time>
      </trkpt>
      <trkpt lat="41.23729" lon="1.05859">
        <ele>761.6</ele>
        <time>2020-08-22 10:22:02</time>
      </trkpt>
      <trkpt lat="41.23731" lon="1.05856">
        <ele>762</ele>
        <time>2020-08-22 10:22:03</time>
      </trkpt>
      <trkpt lat="41.23734" lon="1.05854">
        <ele>762.2</ele>
        <time>2020-08-22 10:22:04</time>
      </trkpt>
      <trkpt lat="41.23736" lon="1.05853">
        <ele>762.2</ele>
        <time>2020-08-22 10:22:05</time>
      </trkpt>
      <trkpt lat="41.23739" lon="1.05854">
        <ele>762.6</ele>
        <time>2020-08-22 10:22:06</time>
      </trkpt>
      <trkpt lat="41.23742" lon="1.05857">
        <ele>762.6</ele>
        <time>2020-08-22 10:22:07</time>
      </trkpt>
      <trkpt lat="41.23745" lon="1.05859">
        <ele>763.2</ele>
        <time>2020-08-22 10:22:08</time>
      </trkpt>
      <trkpt lat="41.23747" lon="1.05862">
        <ele>763.6</ele>
        <time>2020-08-22 10:22:09</time>
      </trkpt>
      <trkpt lat="41.23749" lon="1.05865">
        <ele>764</ele>
        <time>2020-08-22 10:22:10</time>
      </trkpt>
      <trkpt lat="41.2375" lon="1.05868">
        <ele>764.2</ele>
        <time>2020-08-22 10:22:11</time>
      </trkpt>
      <trkpt lat="41.23752" lon="1.05871">
        <ele>764.6</ele>
        <time>2020-08-22 10:22:12</time>
      </trkpt>
      <trkpt lat="41.23754" lon="1.05874">
        <ele>765.2</ele>
        <time>2020-08-22 10:22:13</time>
      </trkpt>
      <trkpt lat="41.23756" lon="1.05878">
        <ele>765.2</ele>
        <time>2020-08-22 10:22:14</time>
      </trkpt>
      <trkpt lat="41.23757" lon="1.05881">
        <ele>765.8</ele>
        <time>2020-08-22 10:22:15</time>
      </trkpt>
      <trkpt lat="41.23759" lon="1.05883">
        <ele>766</ele>
        <time>2020-08-22 10:22:16</time>
      </trkpt>
      <trkpt lat="41.23761" lon="1.05886">
        <ele>766.2</ele>
        <time>2020-08-22 10:22:17</time>
      </trkpt>
      <trkpt lat="41.23763" lon="1.05888">
        <ele>766.4</ele>
        <time>2020-08-22 10:22:18</time>
      </trkpt>
      <trkpt lat="41.23765" lon="1.05892">
        <ele>766.6</ele>
        <time>2020-08-22 10:22:19</time>
      </trkpt>
      <trkpt lat="41.23767" lon="1.05895">
        <ele>766.8</ele>
        <time>2020-08-22 10:22:20</time>
      </trkpt>
      <trkpt lat="41.23769" lon="1.05898">
        <ele>767.2</ele>
        <time>2020-08-22 10:22:21</time>
      </trkpt>
      <trkpt lat="41.23771" lon="1.05901">
        <ele>767.2</ele>
        <time>2020-08-22 10:22:22</time>
      </trkpt>
      <trkpt lat="41.23773" lon="1.05905">
        <ele>767.4</ele>
        <time>2020-08-22 10:22:23</time>
      </trkpt>
      <trkpt lat="41.23775" lon="1.05909">
        <ele>767.8</ele>
        <time>2020-08-22 10:22:24</time>
      </trkpt>
      <trkpt lat="41.23776" lon="1.05912">
        <ele>768</ele>
        <time>2020-08-22 10:22:25</time>
      </trkpt>
      <trkpt lat="41.23778" lon="1.05916">
        <ele>768.2</ele>
        <time>2020-08-22 10:22:26</time>
      </trkpt>
      <trkpt lat="41.2378" lon="1.0592">
        <ele>768.4</ele>
        <time>2020-08-22 10:22:27</time>
      </trkpt>
      <trkpt lat="41.23781" lon="1.05924">
        <ele>768.6</ele>
        <time>2020-08-22 10:22:28</time>
      </trkpt>
      <trkpt lat="41.23782" lon="1.05927">
        <ele>768.8</ele>
        <time>2020-08-22 10:22:29</time>
      </trkpt>
      <trkpt lat="41.23784" lon="1.05931">
        <ele>769</ele>
        <time>2020-08-22 10:22:30</time>
      </trkpt>
      <trkpt lat="41.23785" lon="1.05935">
        <ele>769.4</ele>
        <time>2020-08-22 10:22:31</time>
      </trkpt>
      <trkpt lat="41.23786" lon="1.05938">
        <ele>769.4</ele>
        <time>2020-08-22 10:22:32</time>
      </trkpt>
      <trkpt lat="41.23788" lon="1.05942">
        <ele>769.6</ele>
        <time>2020-08-22 10:22:33</time>
      </trkpt>
      <trkpt lat="41.23789" lon="1.05946">
        <ele>769.8</ele>
        <time>2020-08-22 10:22:34</time>
      </trkpt>
      <trkpt lat="41.23791" lon="1.05949">
        <ele>770</ele>
        <time>2020-08-22 10:22:35</time>
      </trkpt>
      <trkpt lat="41.23793" lon="1.05952">
        <ele>770.2</ele>
        <time>2020-08-22 10:22:36</time>
      </trkpt>
      <trkpt lat="41.23795" lon="1.05956">
        <ele>770.4</ele>
        <time>2020-08-22 10:22:37</time>
      </trkpt>
      <trkpt lat="41.23796" lon="1.0596">
        <ele>770.6</ele>
        <time>2020-08-22 10:22:38</time>
      </trkpt>
      <trkpt lat="41.23798" lon="1.05964">
        <ele>771</ele>
        <time>2020-08-22 10:22:39</time>
      </trkpt>
      <trkpt lat="41.238" lon="1.05968">
        <ele>771.2</ele>
        <time>2020-08-22 10:22:40</time>
      </trkpt>
      <trkpt lat="41.23802" lon="1.05972">
        <ele>771.4</ele>
        <time>2020-08-22 10:22:41</time>
      </trkpt>
      <trkpt lat="41.23804" lon="1.05975">
        <ele>771.6</ele>
        <time>2020-08-22 10:22:42</time>
      </trkpt>
      <trkpt lat="41.23807" lon="1.05977">
        <ele>771.8</ele>
        <time>2020-08-22 10:22:43</time>
      </trkpt>
      <trkpt lat="41.23809" lon="1.0598">
        <ele>772</ele>
        <time>2020-08-22 10:22:44</time>
      </trkpt>
      <trkpt lat="41.23811" lon="1.05983">
        <ele>772.4</ele>
        <time>2020-08-22 10:22:45</time>
      </trkpt>
      <trkpt lat="41.23813" lon="1.05986">
        <ele>772.6</ele>
        <time>2020-08-22 10:22:46</time>
      </trkpt>
      <trkpt lat="41.23816" lon="1.05989">
        <ele>773</ele>
        <time>2020-08-22 10:22:47</time>
      </trkpt>
      <trkpt lat="41.23818" lon="1.05992">
        <ele>773</ele>
        <time>2020-08-22 10:22:48</time>
      </trkpt>
      <trkpt lat="41.2382" lon="1.05996">
        <ele>773.4</ele>
        <time>2020-08-22 10:22:49</time>
      </trkpt>
      <trkpt lat="41.23823" lon="1.05999">
        <ele>773.6</ele>
        <time>2020-08-22 10:22:50</time>
      </trkpt>
      <trkpt lat="41.23825" lon="1.06003">
        <ele>773.8</ele>
        <time>2020-08-22 10:22:51</time>
      </trkpt>
      <trkpt lat="41.23828" lon="1.06006">
        <ele>774</ele>
        <time>2020-08-22 10:22:52</time>
      </trkpt>
      <trkpt lat="41.2383" lon="1.06009">
        <ele>774.4</ele>
        <time>2020-08-22 10:22:53</time>
      </trkpt>
      <trkpt lat="41.23832" lon="1.06013">
        <ele>774.4</ele>
        <time>2020-08-22 10:22:54</time>
      </trkpt>
      <trkpt lat="41.23835" lon="1.06016">
        <ele>774.8</ele>
        <time>2020-08-22 10:22:55</time>
      </trkpt>
      <trkpt lat="41.23837" lon="1.06018">
        <ele>775.2</ele>
        <time>2020-08-22 10:22:56</time>
      </trkpt>
      <trkpt lat="41.23839" lon="1.0602">
        <ele>775.4</ele>
        <time>2020-08-22 10:22:57</time>
      </trkpt>
      <trkpt lat="41.23841" lon="1.06024">
        <ele>775.4</ele>
        <time>2020-08-22 10:22:58</time>
      </trkpt>
      <trkpt lat="41.23843" lon="1.06027">
        <ele>775.6</ele>
        <time>2020-08-22 10:22:59</time>
      </trkpt>
      <trkpt lat="41.23846" lon="1.0603">
        <ele>776</ele>
        <time>2020-08-22 10:23:00</time>
      </trkpt>
      <trkpt lat="41.23848" lon="1.06033">
        <ele>776.2</ele>
        <time>2020-08-22 10:23:01</time>
      </trkpt>
      <trkpt lat="41.23851" lon="1.06037">
        <ele>776.4</ele>
        <time>2020-08-22 10:23:02</time>
      </trkpt>
      <trkpt lat="41.23853" lon="1.0604">
        <ele>776.4</ele>
        <time>2020-08-22 10:23:03</time>
      </trkpt>
      <trkpt lat="41.23855" lon="1.06043">
        <ele>776.8</ele>
        <time>2020-08-22 10:23:04</time>
      </trkpt>
      <trkpt lat="41.23858" lon="1.06046">
        <ele>777.6</ele>
        <time>2020-08-22 10:23:05</time>
      </trkpt>
      <trkpt lat="41.2386" lon="1.06049">
        <ele>777.8</ele>
        <time>2020-08-22 10:23:06</time>
      </trkpt>
      <trkpt lat="41.23862" lon="1.06053">
        <ele>778</ele>
        <time>2020-08-22 10:23:07</time>
      </trkpt>
      <trkpt lat="41.23864" lon="1.06056">
        <ele>778.2</ele>
        <time>2020-08-22 10:23:08</time>
      </trkpt>
      <trkpt lat="41.23866" lon="1.06058">
        <ele>778.4</ele>
        <time>2020-08-22 10:23:09</time>
      </trkpt>
      <trkpt lat="41.23868" lon="1.06062">
        <ele>778.6</ele>
        <time>2020-08-22 10:23:10</time>
      </trkpt>
      <trkpt lat="41.23869" lon="1.06066">
        <ele>779</ele>
        <time>2020-08-22 10:23:11</time>
      </trkpt>
      <trkpt lat="41.23871" lon="1.0607">
        <ele>779.2</ele>
        <time>2020-08-22 10:23:12</time>
      </trkpt>
      <trkpt lat="41.23873" lon="1.06075">
        <ele>779.4</ele>
        <time>2020-08-22 10:23:13</time>
      </trkpt>
      <trkpt lat="41.23875" lon="1.06079">
        <ele>779.8</ele>
        <time>2020-08-22 10:23:14</time>
      </trkpt>
      <trkpt lat="41.23876" lon="1.06083">
        <ele>779.8</ele>
        <time>2020-08-22 10:23:15</time>
      </trkpt>
      <trkpt lat="41.23878" lon="1.06087">
        <ele>780</ele>
        <time>2020-08-22 10:23:16</time>
      </trkpt>
      <trkpt lat="41.23879" lon="1.06091">
        <ele>780.2</ele>
        <time>2020-08-22 10:23:17</time>
      </trkpt>
      <trkpt lat="41.23881" lon="1.06094">
        <ele>780.2</ele>
        <time>2020-08-22 10:23:18</time>
      </trkpt>
      <trkpt lat="41.23883" lon="1.06099">
        <ele>780.4</ele>
        <time>2020-08-22 10:23:19</time>
      </trkpt>
      <trkpt lat="41.23884" lon="1.06102">
        <ele>780.6</ele>
        <time>2020-08-22 10:23:20</time>
      </trkpt>
      <trkpt lat="41.23886" lon="1.06106">
        <ele>780.8</ele>
        <time>2020-08-22 10:23:21</time>
      </trkpt>
      <trkpt lat="41.23888" lon="1.0611">
        <ele>780.8</ele>
        <time>2020-08-22 10:23:22</time>
      </trkpt>
      <trkpt lat="41.2389" lon="1.06114">
        <ele>781</ele>
        <time>2020-08-22 10:23:23</time>
      </trkpt>
      <trkpt lat="41.23892" lon="1.06117">
        <ele>781.2</ele>
        <time>2020-08-22 10:23:24</time>
      </trkpt>
      <trkpt lat="41.23894" lon="1.06122">
        <ele>781.6</ele>
        <time>2020-08-22 10:23:25</time>
      </trkpt>
      <trkpt lat="41.23895" lon="1.06126">
        <ele>781.8</ele>
        <time>2020-08-22 10:23:26</time>
      </trkpt>
      <trkpt lat="41.23897" lon="1.06129">
        <ele>782.2</ele>
        <time>2020-08-22 10:23:27</time>
      </trkpt>
      <trkpt lat="41.23899" lon="1.06134">
        <ele>782.4</ele>
        <time>2020-08-22 10:23:28</time>
      </trkpt>
      <trkpt lat="41.23901" lon="1.06139">
        <ele>782.8</ele>
        <time>2020-08-22 10:23:29</time>
      </trkpt>
      <trkpt lat="41.23903" lon="1.06143">
        <ele>783</ele>
        <time>2020-08-22 10:23:30</time>
      </trkpt>
      <trkpt lat="41.23904" lon="1.06147">
        <ele>783</ele>
        <time>2020-08-22 10:23:31</time>
      </trkpt>
      <trkpt lat="41.23906" lon="1.0615">
        <ele>783.4</ele>
        <time>2020-08-22 10:23:32</time>
      </trkpt>
      <trkpt lat="41.23908" lon="1.06154">
        <ele>783.4</ele>
        <time>2020-08-22 10:23:33</time>
      </trkpt>
      <trkpt lat="41.23911" lon="1.06158">
        <ele>783.6</ele>
        <time>2020-08-22 10:23:34</time>
      </trkpt>
      <trkpt lat="41.23913" lon="1.06161">
        <ele>783.6</ele>
        <time>2020-08-22 10:23:35</time>
      </trkpt>
      <trkpt lat="41.23916" lon="1.06164">
        <ele>783.8</ele>
        <time>2020-08-22 10:23:36</time>
      </trkpt>
      <trkpt lat="41.23919" lon="1.06166">
        <ele>784</ele>
        <time>2020-08-22 10:23:37</time>
      </trkpt>
      <trkpt lat="41.23922" lon="1.06169">
        <ele>784.4</ele>
        <time>2020-08-22 10:23:38</time>
      </trkpt>
      <trkpt lat="41.23925" lon="1.06172">
        <ele>784.6</ele>
        <time>2020-08-22 10:23:39</time>
      </trkpt>
      <trkpt lat="41.23928" lon="1.06174">
        <ele>784.6</ele>
        <time>2020-08-22 10:23:40</time>
      </trkpt>
      <trkpt lat="41.2393" lon="1.06175">
        <ele>784.8</ele>
        <time>2020-08-22 10:23:41</time>
      </trkpt>
      <trkpt lat="41.23934" lon="1.06177">
        <ele>785</ele>
        <time>2020-08-22 10:23:42</time>
      </trkpt>
      <trkpt lat="41.23938" lon="1.06178">
        <ele>785.2</ele>
        <time>2020-08-22 10:23:43</time>
      </trkpt>
      <trkpt lat="41.23942" lon="1.06179">
        <ele>785.2</ele>
        <time>2020-08-22 10:23:44</time>
      </trkpt>
      <trkpt lat="41.23946" lon="1.06179">
        <ele>785.6</ele>
        <time>2020-08-22 10:23:45</time>
      </trkpt>
      <trkpt lat="41.23949" lon="1.0618">
        <ele>785.8</ele>
        <time>2020-08-22 10:23:46</time>
      </trkpt>
      <trkpt lat="41.23953" lon="1.0618">
        <ele>786.2</ele>
        <time>2020-08-22 10:23:47</time>
      </trkpt>
      <trkpt lat="41.23957" lon="1.06181">
        <ele>786.2</ele>
        <time>2020-08-22 10:23:48</time>
      </trkpt>
      <trkpt lat="41.23961" lon="1.06181">
        <ele>786.4</ele>
        <time>2020-08-22 10:23:49</time>
      </trkpt>
      <trkpt lat="41.23965" lon="1.0618">
        <ele>786.6</ele>
        <time>2020-08-22 10:23:50</time>
      </trkpt>
      <trkpt lat="41.23969" lon="1.0618">
        <ele>786.8</ele>
        <time>2020-08-22 10:23:51</time>
      </trkpt>
      <trkpt lat="41.23972" lon="1.06179">
        <ele>787</ele>
        <time>2020-08-22 10:23:52</time>
      </trkpt>
      <trkpt lat="41.23976" lon="1.06179">
        <ele>787.2</ele>
        <time>2020-08-22 10:23:53</time>
      </trkpt>
      <trkpt lat="41.23979" lon="1.06178">
        <ele>787.4</ele>
        <time>2020-08-22 10:23:54</time>
      </trkpt>
      <trkpt lat="41.23983" lon="1.06178">
        <ele>787.6</ele>
        <time>2020-08-22 10:23:55</time>
      </trkpt>
      <trkpt lat="41.23987" lon="1.06177">
        <ele>787.8</ele>
        <time>2020-08-22 10:23:56</time>
      </trkpt>
      <trkpt lat="41.2399" lon="1.06178">
        <ele>788</ele>
        <time>2020-08-22 10:23:57</time>
      </trkpt>
      <trkpt lat="41.23994" lon="1.06179">
        <ele>788.2</ele>
        <time>2020-08-22 10:23:58</time>
      </trkpt>
      <trkpt lat="41.23998" lon="1.06181">
        <ele>788.4</ele>
        <time>2020-08-22 10:23:59</time>
      </trkpt>
      <trkpt lat="41.24002" lon="1.06183">
        <ele>788.4</ele>
        <time>2020-08-22 10:24:00</time>
      </trkpt>
      <trkpt lat="41.24006" lon="1.06187">
        <ele>788.8</ele>
        <time>2020-08-22 10:24:01</time>
      </trkpt>
      <trkpt lat="41.24009" lon="1.0619">
        <ele>789</ele>
        <time>2020-08-22 10:24:02</time>
      </trkpt>
      <trkpt lat="41.24014" lon="1.06194">
        <ele>789.2</ele>
        <time>2020-08-22 10:24:03</time>
      </trkpt>
      <trkpt lat="41.24017" lon="1.06197">
        <ele>789.2</ele>
        <time>2020-08-22 10:24:04</time>
      </trkpt>
      <trkpt lat="41.24021" lon="1.06201">
        <ele>789.4</ele>
        <time>2020-08-22 10:24:05</time>
      </trkpt>
      <trkpt lat="41.24024" lon="1.06205">
        <ele>789.6</ele>
        <time>2020-08-22 10:24:06</time>
      </trkpt>
      <trkpt lat="41.24028" lon="1.06209">
        <ele>789.6</ele>
        <time>2020-08-22 10:24:07</time>
      </trkpt>
      <trkpt lat="41.24032" lon="1.06213">
        <ele>789.8</ele>
        <time>2020-08-22 10:24:08</time>
      </trkpt>
      <trkpt lat="41.24036" lon="1.06217">
        <ele>789.8</ele>
        <time>2020-08-22 10:24:09</time>
      </trkpt>
      <trkpt lat="41.24039" lon="1.0622">
        <ele>790</ele>
        <time>2020-08-22 10:24:10</time>
      </trkpt>
      <trkpt lat="41.24043" lon="1.06223">
        <ele>790</ele>
        <time>2020-08-22 10:24:11</time>
      </trkpt>
      <trkpt lat="41.24048" lon="1.06228">
        <ele>790</ele>
        <time>2020-08-22 10:24:12</time>
      </trkpt>
      <trkpt lat="41.24052" lon="1.06232">
        <ele>790</ele>
        <time>2020-08-22 10:24:13</time>
      </trkpt>
      <trkpt lat="41.24058" lon="1.06236">
        <ele>790</ele>
        <time>2020-08-22 10:24:14</time>
      </trkpt>
      <trkpt lat="41.24064" lon="1.06239">
        <ele>790.2</ele>
        <time>2020-08-22 10:24:15</time>
      </trkpt>
      <trkpt lat="41.24068" lon="1.0624">
        <ele>790.2</ele>
        <time>2020-08-22 10:24:16</time>
      </trkpt>
      <trkpt lat="41.24075" lon="1.06241">
        <ele>790.4</ele>
        <time>2020-08-22 10:24:17</time>
      </trkpt>
      <trkpt lat="41.24103" lon="1.06242">
        <ele>790.4</ele>
        <time>2020-08-22 10:24:22</time>
      </trkpt>
      <trkpt lat="41.24114" lon="1.06242">
        <ele>790.6</ele>
        <time>2020-08-22 10:24:24</time>
      </trkpt>
      <trkpt lat="41.2412" lon="1.06241">
        <ele>790.6</ele>
        <time>2020-08-22 10:24:25</time>
      </trkpt>
      <trkpt lat="41.24124" lon="1.06239">
        <ele>790.6</ele>
        <time>2020-08-22 10:24:26</time>
      </trkpt>
      <trkpt lat="41.2413" lon="1.06238">
        <ele>790.4</ele>
        <time>2020-08-22 10:24:27</time>
      </trkpt>
      <trkpt lat="41.24136" lon="1.06236">
        <ele>790.6</ele>
        <time>2020-08-22 10:24:28</time>
      </trkpt>
      <trkpt lat="41.24141" lon="1.06234">
        <ele>790.8</ele>
        <time>2020-08-22 10:24:29</time>
      </trkpt>
      <trkpt lat="41.24146" lon="1.06232">
        <ele>791</ele>
        <time>2020-08-22 10:24:30</time>
      </trkpt>
      <trkpt lat="41.24151" lon="1.06231">
        <ele>791.4</ele>
        <time>2020-08-22 10:24:31</time>
      </trkpt>
      <trkpt lat="41.24156" lon="1.06229">
        <ele>791.6</ele>
        <time>2020-08-22 10:24:32</time>
      </trkpt>
      <trkpt lat="41.24161" lon="1.06228">
        <ele>791.6</ele>
        <time>2020-08-22 10:24:33</time>
      </trkpt>
      <trkpt lat="41.24166" lon="1.06225">
        <ele>792</ele>
        <time>2020-08-22 10:24:34</time>
      </trkpt>
      <trkpt lat="41.24171" lon="1.06223">
        <ele>792.4</ele>
        <time>2020-08-22 10:24:35</time>
      </trkpt>
      <trkpt lat="41.24174" lon="1.06221">
        <ele>792.6</ele>
        <time>2020-08-22 10:24:36</time>
      </trkpt>
      <trkpt lat="41.24179" lon="1.06218">
        <ele>793</ele>
        <time>2020-08-22 10:24:37</time>
      </trkpt>
      <trkpt lat="41.24183" lon="1.06215">
        <ele>793.4</ele>
        <time>2020-08-22 10:24:38</time>
      </trkpt>
      <trkpt lat="41.24187" lon="1.06212">
        <ele>793.6</ele>
        <time>2020-08-22 10:24:39</time>
      </trkpt>
      <trkpt lat="41.2419" lon="1.06208">
        <ele>794</ele>
        <time>2020-08-22 10:24:40</time>
      </trkpt>
      <trkpt lat="41.24193" lon="1.06205">
        <ele>794.2</ele>
        <time>2020-08-22 10:24:41</time>
      </trkpt>
      <trkpt lat="41.24196" lon="1.06201">
        <ele>794.4</ele>
        <time>2020-08-22 10:24:42</time>
      </trkpt>
      <trkpt lat="41.242" lon="1.06198">
        <ele>794.6</ele>
        <time>2020-08-22 10:24:43</time>
      </trkpt>
      <trkpt lat="41.24202" lon="1.06194">
        <ele>795</ele>
        <time>2020-08-22 10:24:44</time>
      </trkpt>
      <trkpt lat="41.24205" lon="1.0619">
        <ele>795</ele>
        <time>2020-08-22 10:24:45</time>
      </trkpt>
      <trkpt lat="41.24208" lon="1.06187">
        <ele>795.6</ele>
        <time>2020-08-22 10:24:46</time>
      </trkpt>
      <trkpt lat="41.24211" lon="1.06183">
        <ele>796</ele>
        <time>2020-08-22 10:24:47</time>
      </trkpt>
      <trkpt lat="41.24213" lon="1.06179">
        <ele>796.2</ele>
        <time>2020-08-22 10:24:48</time>
      </trkpt>
      <trkpt lat="41.24216" lon="1.06175">
        <ele>796.6</ele>
        <time>2020-08-22 10:24:49</time>
      </trkpt>
      <trkpt lat="41.24219" lon="1.06172">
        <ele>796.8</ele>
        <time>2020-08-22 10:24:50</time>
      </trkpt>
      <trkpt lat="41.24223" lon="1.06169">
        <ele>797.2</ele>
        <time>2020-08-22 10:24:51</time>
      </trkpt>
      <trkpt lat="41.24226" lon="1.06166">
        <ele>797.4</ele>
        <time>2020-08-22 10:24:52</time>
      </trkpt>
      <trkpt lat="41.24229" lon="1.06164">
        <ele>797.8</ele>
        <time>2020-08-22 10:24:53</time>
      </trkpt>
      <trkpt lat="41.24233" lon="1.06162">
        <ele>798</ele>
        <time>2020-08-22 10:24:54</time>
      </trkpt>
      <trkpt lat="41.24237" lon="1.0616">
        <ele>798.2</ele>
        <time>2020-08-22 10:24:55</time>
      </trkpt>
      <trkpt lat="41.2424" lon="1.06159">
        <ele>798.6</ele>
        <time>2020-08-22 10:24:56</time>
      </trkpt>
      <trkpt lat="41.24244" lon="1.06158">
        <ele>798.6</ele>
        <time>2020-08-22 10:24:57</time>
      </trkpt>
      <trkpt lat="41.24248" lon="1.06157">
        <ele>798.8</ele>
        <time>2020-08-22 10:24:58</time>
      </trkpt>
      <trkpt lat="41.24252" lon="1.06156">
        <ele>799</ele>
        <time>2020-08-22 10:24:59</time>
      </trkpt>
      <trkpt lat="41.24256" lon="1.06155">
        <ele>799.4</ele>
        <time>2020-08-22 10:25:00</time>
      </trkpt>
      <trkpt lat="41.2426" lon="1.06154">
        <ele>799.4</ele>
        <time>2020-08-22 10:25:01</time>
      </trkpt>
      <trkpt lat="41.24264" lon="1.06153">
        <ele>799.8</ele>
        <time>2020-08-22 10:25:02</time>
      </trkpt>
      <trkpt lat="41.24268" lon="1.06152">
        <ele>800.2</ele>
        <time>2020-08-22 10:25:03</time>
      </trkpt>
      <trkpt lat="41.24272" lon="1.06151">
        <ele>800.4</ele>
        <time>2020-08-22 10:25:04</time>
      </trkpt>
      <trkpt lat="41.24275" lon="1.0615">
        <ele>800.8</ele>
        <time>2020-08-22 10:25:05</time>
      </trkpt>
      <trkpt lat="41.24279" lon="1.06149">
        <ele>801</ele>
        <time>2020-08-22 10:25:06</time>
      </trkpt>
      <trkpt lat="41.24283" lon="1.06148">
        <ele>801.2</ele>
        <time>2020-08-22 10:25:07</time>
      </trkpt>
      <trkpt lat="41.24287" lon="1.06147">
        <ele>801.2</ele>
        <time>2020-08-22 10:25:08</time>
      </trkpt>
      <trkpt lat="41.24291" lon="1.06146">
        <ele>801.6</ele>
        <time>2020-08-22 10:25:09</time>
      </trkpt>
      <trkpt lat="41.24295" lon="1.06145">
        <ele>801.8</ele>
        <time>2020-08-22 10:25:10</time>
      </trkpt>
      <trkpt lat="41.24299" lon="1.06144">
        <ele>802</ele>
        <time>2020-08-22 10:25:11</time>
      </trkpt>
      <trkpt lat="41.24302" lon="1.06144">
        <ele>802.4</ele>
        <time>2020-08-22 10:25:12</time>
      </trkpt>
      <trkpt lat="41.24306" lon="1.06144">
        <ele>802.6</ele>
        <time>2020-08-22 10:25:13</time>
      </trkpt>
      <trkpt lat="41.24309" lon="1.06146">
        <ele>802.8</ele>
        <time>2020-08-22 10:25:14</time>
      </trkpt>
      <trkpt lat="41.2431" lon="1.0615">
        <ele>802.8</ele>
        <time>2020-08-22 10:25:15</time>
      </trkpt>
      <trkpt lat="41.2431" lon="1.06153">
        <ele>803.2</ele>
        <time>2020-08-22 10:25:16</time>
      </trkpt>
      <trkpt lat="41.24311" lon="1.06159">
        <ele>803.2</ele>
        <time>2020-08-22 10:25:17</time>
      </trkpt>
      <trkpt lat="41.24311" lon="1.06166">
        <ele>803.4</ele>
        <time>2020-08-22 10:25:18</time>
      </trkpt>
      <trkpt lat="41.24312" lon="1.06172">
        <ele>803.4</ele>
        <time>2020-08-22 10:25:19</time>
      </trkpt>
      <trkpt lat="41.24312" lon="1.06177">
        <ele>803.4</ele>
        <time>2020-08-22 10:25:20</time>
      </trkpt>
      <trkpt lat="41.24314" lon="1.06183">
        <ele>803.4</ele>
        <time>2020-08-22 10:25:21</time>
      </trkpt>
      <trkpt lat="41.24316" lon="1.06192">
        <ele>803.4</ele>
        <time>2020-08-22 10:25:22</time>
      </trkpt>
      <trkpt lat="41.24321" lon="1.06214">
        <ele>803</ele>
        <time>2020-08-22 10:25:25</time>
      </trkpt>
      <trkpt lat="41.24321" lon="1.06222">
        <ele>803</ele>
        <time>2020-08-22 10:25:26</time>
      </trkpt>
      <trkpt lat="41.24322" lon="1.0623">
        <ele>802.8</ele>
        <time>2020-08-22 10:25:27</time>
      </trkpt>
      <trkpt lat="41.24322" lon="1.06237">
        <ele>802.6</ele>
        <time>2020-08-22 10:25:28</time>
      </trkpt>
      <trkpt lat="41.24323" lon="1.06243">
        <ele>802.6</ele>
        <time>2020-08-22 10:25:29</time>
      </trkpt>
      <trkpt lat="41.24323" lon="1.06248">
        <ele>802.4</ele>
        <time>2020-08-22 10:25:30</time>
      </trkpt>
      <trkpt lat="41.24322" lon="1.06254">
        <ele>802.6</ele>
        <time>2020-08-22 10:25:31</time>
      </trkpt>
      <trkpt lat="41.24319" lon="1.06261">
        <ele>802.8</ele>
        <time>2020-08-22 10:25:32</time>
      </trkpt>
      <trkpt lat="41.24314" lon="1.06279">
        <ele>802.8</ele>
        <time>2020-08-22 10:25:35</time>
      </trkpt>
      <trkpt lat="41.24313" lon="1.06287">
        <ele>803.2</ele>
        <time>2020-08-22 10:25:36</time>
      </trkpt>
      <trkpt lat="41.24311" lon="1.06306">
        <ele>803.4</ele>
        <time>2020-08-22 10:25:38</time>
      </trkpt>
      <trkpt lat="41.2431" lon="1.06314">
        <ele>803.4</ele>
        <time>2020-08-22 10:25:39</time>
      </trkpt>
      <trkpt lat="41.24308" lon="1.0632">
        <ele>803.4</ele>
        <time>2020-08-22 10:25:40</time>
      </trkpt>
      <trkpt lat="41.24306" lon="1.06327">
        <ele>803.4</ele>
        <time>2020-08-22 10:25:41</time>
      </trkpt>
      <trkpt lat="41.24304" lon="1.06336">
        <ele>803.4</ele>
        <time>2020-08-22 10:25:42</time>
      </trkpt>
      <trkpt lat="41.24303" lon="1.06343">
        <ele>803.2</ele>
        <time>2020-08-22 10:25:43</time>
      </trkpt>
      <trkpt lat="41.24303" lon="1.0635">
        <ele>803</ele>
        <time>2020-08-22 10:25:44</time>
      </trkpt>
      <trkpt lat="41.24302" lon="1.06357">
        <ele>803</ele>
        <time>2020-08-22 10:25:45</time>
      </trkpt>
      <trkpt lat="41.24302" lon="1.06365">
        <ele>803</ele>
        <time>2020-08-22 10:25:46</time>
      </trkpt>
      <trkpt lat="41.24302" lon="1.06372">
        <ele>803</ele>
        <time>2020-08-22 10:25:47</time>
      </trkpt>
      <trkpt lat="41.24302" lon="1.0638">
        <ele>803</ele>
        <time>2020-08-22 10:25:48</time>
      </trkpt>
      <trkpt lat="41.24303" lon="1.06387">
        <ele>803</ele>
        <time>2020-08-22 10:25:49</time>
      </trkpt>
      <trkpt lat="41.24304" lon="1.06394">
        <ele>803</ele>
        <time>2020-08-22 10:25:50</time>
      </trkpt>
      <trkpt lat="41.24305" lon="1.06402">
        <ele>803</ele>
        <time>2020-08-22 10:25:51</time>
      </trkpt>
      <trkpt lat="41.24307" lon="1.0641">
        <ele>803</ele>
        <time>2020-08-22 10:25:52</time>
      </trkpt>
      <trkpt lat="41.24308" lon="1.06417">
        <ele>803</ele>
        <time>2020-08-22 10:25:53</time>
      </trkpt>
      <trkpt lat="41.2431" lon="1.06425">
        <ele>803.2</ele>
        <time>2020-08-22 10:25:54</time>
      </trkpt>
      <trkpt lat="41.24312" lon="1.0643">
        <ele>803.2</ele>
        <time>2020-08-22 10:25:55</time>
      </trkpt>
      <trkpt lat="41.24313" lon="1.06438">
        <ele>803.2</ele>
        <time>2020-08-22 10:25:56</time>
      </trkpt>
      <trkpt lat="41.24315" lon="1.06459">
        <ele>803.2</ele>
        <time>2020-08-22 10:25:59</time>
      </trkpt>
      <trkpt lat="41.24314" lon="1.06468">
        <ele>803.2</ele>
        <time>2020-08-22 10:26:00</time>
      </trkpt>
      <trkpt lat="41.24312" lon="1.06476">
        <ele>803</ele>
        <time>2020-08-22 10:26:01</time>
      </trkpt>
      <trkpt lat="41.24309" lon="1.065">
        <ele>802.6</ele>
        <time>2020-08-22 10:26:04</time>
      </trkpt>
      <trkpt lat="41.24308" lon="1.0651">
        <ele>802</ele>
        <time>2020-08-22 10:26:05</time>
      </trkpt>
      <trkpt lat="41.24307" lon="1.06521">
        <ele>801.2</ele>
        <time>2020-08-22 10:26:06</time>
      </trkpt>
      <trkpt lat="41.24307" lon="1.0653">
        <ele>800.6</ele>
        <time>2020-08-22 10:26:07</time>
      </trkpt>
      <trkpt lat="41.24309" lon="1.06539">
        <ele>799.2</ele>
        <time>2020-08-22 10:26:08</time>
      </trkpt>
      <trkpt lat="41.24311" lon="1.06546">
        <ele>798.6</ele>
        <time>2020-08-22 10:26:09</time>
      </trkpt>
      <trkpt lat="41.24314" lon="1.06551">
        <ele>797.2</ele>
        <time>2020-08-22 10:26:10</time>
      </trkpt>
      <trkpt lat="41.24321" lon="1.06557">
        <ele>796.2</ele>
        <time>2020-08-22 10:26:11</time>
      </trkpt>
      <trkpt lat="41.24333" lon="1.06567">
        <ele>794.8</ele>
        <time>2020-08-22 10:26:13</time>
      </trkpt>
      <trkpt lat="41.24339" lon="1.06571">
        <ele>794.6</ele>
        <time>2020-08-22 10:26:14</time>
      </trkpt>
      <trkpt lat="41.24346" lon="1.06576">
        <ele>793.8</ele>
        <time>2020-08-22 10:26:15</time>
      </trkpt>
      <trkpt lat="41.24353" lon="1.0658">
        <ele>793.6</ele>
        <time>2020-08-22 10:26:16</time>
      </trkpt>
      <trkpt lat="41.24359" lon="1.06584">
        <ele>793</ele>
        <time>2020-08-22 10:26:17</time>
      </trkpt>
      <trkpt lat="41.24364" lon="1.06588">
        <ele>792.6</ele>
        <time>2020-08-22 10:26:18</time>
      </trkpt>
      <trkpt lat="41.24371" lon="1.06591">
        <ele>791.4</ele>
        <time>2020-08-22 10:26:19</time>
      </trkpt>
      <trkpt lat="41.24376" lon="1.06592">
        <ele>790.6</ele>
        <time>2020-08-22 10:26:20</time>
      </trkpt>
      <trkpt lat="41.24382" lon="1.06592">
        <ele>790.4</ele>
        <time>2020-08-22 10:26:21</time>
      </trkpt>
      <trkpt lat="41.24387" lon="1.06591">
        <ele>789.8</ele>
        <time>2020-08-22 10:26:22</time>
      </trkpt>
      <trkpt lat="41.24394" lon="1.06591">
        <ele>789.2</ele>
        <time>2020-08-22 10:26:23</time>
      </trkpt>
      <trkpt lat="41.244" lon="1.06592">
        <ele>788.8</ele>
        <time>2020-08-22 10:26:24</time>
      </trkpt>
      <trkpt lat="41.24406" lon="1.06596">
        <ele>788.6</ele>
        <time>2020-08-22 10:26:25</time>
      </trkpt>
      <trkpt lat="41.24411" lon="1.06601">
        <ele>787.2</ele>
        <time>2020-08-22 10:26:26</time>
      </trkpt>
      <trkpt lat="41.24416" lon="1.06605">
        <ele>786.4</ele>
        <time>2020-08-22 10:26:27</time>
      </trkpt>
      <trkpt lat="41.24421" lon="1.0661">
        <ele>785.6</ele>
        <time>2020-08-22 10:26:28</time>
      </trkpt>
      <trkpt lat="41.24426" lon="1.06615">
        <ele>784.8</ele>
        <time>2020-08-22 10:26:29</time>
      </trkpt>
      <trkpt lat="41.2443" lon="1.06619">
        <ele>784.8</ele>
        <time>2020-08-22 10:26:30</time>
      </trkpt>
      <trkpt lat="41.24435" lon="1.06622">
        <ele>784.6</ele>
        <time>2020-08-22 10:26:31</time>
      </trkpt>
      <trkpt lat="41.2444" lon="1.06628">
        <ele>784.6</ele>
        <time>2020-08-22 10:26:32</time>
      </trkpt>
      <trkpt lat="41.24444" lon="1.06634">
        <ele>784.4</ele>
        <time>2020-08-22 10:26:33</time>
      </trkpt>
      <trkpt lat="41.24448" lon="1.0664">
        <ele>784.4</ele>
        <time>2020-08-22 10:26:34</time>
      </trkpt>
      <trkpt lat="41.24451" lon="1.06645">
        <ele>784.4</ele>
        <time>2020-08-22 10:26:35</time>
      </trkpt>
      <trkpt lat="41.24454" lon="1.06651">
        <ele>784.4</ele>
        <time>2020-08-22 10:26:36</time>
      </trkpt>
      <trkpt lat="41.24457" lon="1.06656">
        <ele>784.4</ele>
        <time>2020-08-22 10:26:37</time>
      </trkpt>
      <trkpt lat="41.2446" lon="1.0666">
        <ele>784.4</ele>
        <time>2020-08-22 10:26:38</time>
      </trkpt>
      <trkpt lat="41.24462" lon="1.06666">
        <ele>784.4</ele>
        <time>2020-08-22 10:26:39</time>
      </trkpt>
      <trkpt lat="41.24466" lon="1.06673">
        <ele>784.4</ele>
        <time>2020-08-22 10:26:40</time>
      </trkpt>
      <trkpt lat="41.24469" lon="1.06679">
        <ele>784.6</ele>
        <time>2020-08-22 10:26:41</time>
      </trkpt>
      <trkpt lat="41.24472" lon="1.06684">
        <ele>784.6</ele>
        <time>2020-08-22 10:26:42</time>
      </trkpt>
      <trkpt lat="41.24474" lon="1.06688">
        <ele>784.6</ele>
        <time>2020-08-22 10:26:43</time>
      </trkpt>
      <trkpt lat="41.24477" lon="1.06693">
        <ele>784.6</ele>
        <time>2020-08-22 10:26:44</time>
      </trkpt>
      <trkpt lat="41.24481" lon="1.067">
        <ele>784.8</ele>
        <time>2020-08-22 10:26:45</time>
      </trkpt>
      <trkpt lat="41.24484" lon="1.06706">
        <ele>784.8</ele>
        <time>2020-08-22 10:26:46</time>
      </trkpt>
      <trkpt lat="41.24488" lon="1.06711">
        <ele>785</ele>
        <time>2020-08-22 10:26:47</time>
      </trkpt>
      <trkpt lat="41.2449" lon="1.06715">
        <ele>785</ele>
        <time>2020-08-22 10:26:48</time>
      </trkpt>
      <trkpt lat="41.24493" lon="1.0672">
        <ele>785.2</ele>
        <time>2020-08-22 10:26:49</time>
      </trkpt>
      <trkpt lat="41.24497" lon="1.06725">
        <ele>785.2</ele>
        <time>2020-08-22 10:26:50</time>
      </trkpt>
      <trkpt lat="41.245" lon="1.06729">
        <ele>785.4</ele>
        <time>2020-08-22 10:26:51</time>
      </trkpt>
      <trkpt lat="41.24503" lon="1.06734">
        <ele>785.4</ele>
        <time>2020-08-22 10:26:52</time>
      </trkpt>
      <trkpt lat="41.24504" lon="1.06738">
        <ele>785.6</ele>
        <time>2020-08-22 10:26:53</time>
      </trkpt>
      <trkpt lat="41.24507" lon="1.06743">
        <ele>786</ele>
        <time>2020-08-22 10:26:54</time>
      </trkpt>
      <trkpt lat="41.24509" lon="1.06749">
        <ele>786.2</ele>
        <time>2020-08-22 10:26:55</time>
      </trkpt>
      <trkpt lat="41.24512" lon="1.06754">
        <ele>786.6</ele>
        <time>2020-08-22 10:26:56</time>
      </trkpt>
      <trkpt lat="41.24515" lon="1.06758">
        <ele>786.8</ele>
        <time>2020-08-22 10:26:57</time>
      </trkpt>
      <trkpt lat="41.24518" lon="1.06761">
        <ele>787</ele>
        <time>2020-08-22 10:26:58</time>
      </trkpt>
      <trkpt lat="41.24522" lon="1.06764">
        <ele>787.2</ele>
        <time>2020-08-22 10:26:59</time>
      </trkpt>
      <trkpt lat="41.24525" lon="1.06765">
        <ele>787.4</ele>
        <time>2020-08-22 10:27:00</time>
      </trkpt>
      <trkpt lat="41.24529" lon="1.06766">
        <ele>787.6</ele>
        <time>2020-08-22 10:27:01</time>
      </trkpt>
      <trkpt lat="41.24533" lon="1.06766">
        <ele>787.8</ele>
        <time>2020-08-22 10:27:02</time>
      </trkpt>
      <trkpt lat="41.24538" lon="1.06764">
        <ele>787.8</ele>
        <time>2020-08-22 10:27:03</time>
      </trkpt>
      <trkpt lat="41.24543" lon="1.06761">
        <ele>787.8</ele>
        <time>2020-08-22 10:27:04</time>
      </trkpt>
      <trkpt lat="41.24548" lon="1.06757">
        <ele>787.8</ele>
        <time>2020-08-22 10:27:05</time>
      </trkpt>
      <trkpt lat="41.24552" lon="1.06753">
        <ele>787.8</ele>
        <time>2020-08-22 10:27:06</time>
      </trkpt>
      <trkpt lat="41.24564" lon="1.06742">
        <ele>787.8</ele>
        <time>2020-08-22 10:27:09</time>
      </trkpt>
      <trkpt lat="41.24569" lon="1.06739">
        <ele>787.8</ele>
        <time>2020-08-22 10:27:10</time>
      </trkpt>
      <trkpt lat="41.24578" lon="1.06734">
        <ele>787.8</ele>
        <time>2020-08-22 10:27:12</time>
      </trkpt>
      <trkpt lat="41.24581" lon="1.06733">
        <ele>787.8</ele>
        <time>2020-08-22 10:27:13</time>
      </trkpt>
      <trkpt lat="41.24587" lon="1.06732">
        <ele>787.6</ele>
        <time>2020-08-22 10:27:14</time>
      </trkpt>
      <trkpt lat="41.24591" lon="1.06733">
        <ele>787.6</ele>
        <time>2020-08-22 10:27:15</time>
      </trkpt>
      <trkpt lat="41.24596" lon="1.06734">
        <ele>787.4</ele>
        <time>2020-08-22 10:27:16</time>
      </trkpt>
      <trkpt lat="41.246" lon="1.06734">
        <ele>787.4</ele>
        <time>2020-08-22 10:27:17</time>
      </trkpt>
      <trkpt lat="41.24606" lon="1.06734">
        <ele>787</ele>
        <time>2020-08-22 10:27:18</time>
      </trkpt>
      <trkpt lat="41.24617" lon="1.06734">
        <ele>786.4</ele>
        <time>2020-08-22 10:27:20</time>
      </trkpt>
      <trkpt lat="41.24624" lon="1.06735">
        <ele>785.8</ele>
        <time>2020-08-22 10:27:21</time>
      </trkpt>
      <trkpt lat="41.24629" lon="1.06736">
        <ele>785.4</ele>
        <time>2020-08-22 10:27:22</time>
      </trkpt>
      <trkpt lat="41.24635" lon="1.06738">
        <ele>784.8</ele>
        <time>2020-08-22 10:27:23</time>
      </trkpt>
      <trkpt lat="41.2464" lon="1.0674">
        <ele>784.6</ele>
        <time>2020-08-22 10:27:24</time>
      </trkpt>
      <trkpt lat="41.24646" lon="1.06744">
        <ele>784.2</ele>
        <time>2020-08-22 10:27:25</time>
      </trkpt>
      <trkpt lat="41.2465" lon="1.0675">
        <ele>783.8</ele>
        <time>2020-08-22 10:27:26</time>
      </trkpt>
      <trkpt lat="41.24654" lon="1.06756">
        <ele>782.6</ele>
        <time>2020-08-22 10:27:27</time>
      </trkpt>
      <trkpt lat="41.24657" lon="1.06765">
        <ele>781.6</ele>
        <time>2020-08-22 10:27:28</time>
      </trkpt>
      <trkpt lat="41.2466" lon="1.06775">
        <ele>781</ele>
        <time>2020-08-22 10:27:29</time>
      </trkpt>
      <trkpt lat="41.24664" lon="1.06782">
        <ele>780</ele>
        <time>2020-08-22 10:27:30</time>
      </trkpt>
      <trkpt lat="41.24668" lon="1.06788">
        <ele>779.6</ele>
        <time>2020-08-22 10:27:31</time>
      </trkpt>
      <trkpt lat="41.24673" lon="1.06791">
        <ele>778.6</ele>
        <time>2020-08-22 10:27:32</time>
      </trkpt>
      <trkpt lat="41.24677" lon="1.06794">
        <ele>778.4</ele>
        <time>2020-08-22 10:27:33</time>
      </trkpt>
      <trkpt lat="41.24684" lon="1.06797">
        <ele>777.8</ele>
        <time>2020-08-22 10:27:34</time>
      </trkpt>
      <trkpt lat="41.2469" lon="1.06801">
        <ele>777.6</ele>
        <time>2020-08-22 10:27:35</time>
      </trkpt>
      <trkpt lat="41.24696" lon="1.06807">
        <ele>777.2</ele>
        <time>2020-08-22 10:27:36</time>
      </trkpt>
      <trkpt lat="41.24702" lon="1.06814">
        <ele>776.8</ele>
        <time>2020-08-22 10:27:37</time>
      </trkpt>
      <trkpt lat="41.24707" lon="1.06821">
        <ele>776.6</ele>
        <time>2020-08-22 10:27:38</time>
      </trkpt>
      <trkpt lat="41.24719" lon="1.06838">
        <ele>775.4</ele>
        <time>2020-08-22 10:27:40</time>
      </trkpt>
      <trkpt lat="41.24724" lon="1.06841">
        <ele>774.8</ele>
        <time>2020-08-22 10:27:41</time>
      </trkpt>
      <trkpt lat="41.24728" lon="1.06841">
        <ele>774</ele>
        <time>2020-08-22 10:27:42</time>
      </trkpt>
      <trkpt lat="41.24733" lon="1.0684">
        <ele>772.8</ele>
        <time>2020-08-22 10:27:43</time>
      </trkpt>
      <trkpt lat="41.24737" lon="1.06837">
        <ele>772.4</ele>
        <time>2020-08-22 10:27:44</time>
      </trkpt>
      <trkpt lat="41.24741" lon="1.06833">
        <ele>772</ele>
        <time>2020-08-22 10:27:45</time>
      </trkpt>
      <trkpt lat="41.24745" lon="1.0683">
        <ele>772</ele>
        <time>2020-08-22 10:27:46</time>
      </trkpt>
      <trkpt lat="41.24749" lon="1.06826">
        <ele>771.8</ele>
        <time>2020-08-22 10:27:47</time>
      </trkpt>
      <trkpt lat="41.24753" lon="1.06825">
        <ele>771.8</ele>
        <time>2020-08-22 10:27:48</time>
      </trkpt>
      <trkpt lat="41.24755" lon="1.06826">
        <ele>771.8</ele>
        <time>2020-08-22 10:27:49</time>
      </trkpt>
      <trkpt lat="41.24757" lon="1.06827">
        <ele>771.8</ele>
        <time>2020-08-22 10:27:50</time>
      </trkpt>
      <trkpt lat="41.24758" lon="1.06828">
        <ele>771.8</ele>
        <time>2020-08-22 10:27:51</time>
      </trkpt>
      <trkpt lat="41.24757" lon="1.06828">
        <ele>772.2</ele>
        <time>2020-08-22 10:27:54</time>
      </trkpt>
      <trkpt lat="41.24757" lon="1.06827">
        <ele>772.6</ele>
        <time>2020-08-22 10:27:55</time>
      </trkpt>
      <trkpt lat="41.24756" lon="1.06827">
        <ele>772.6</ele>
        <time>2020-08-22 10:27:56</time>
      </trkpt>
      <trkpt lat="41.24755" lon="1.06826">
        <ele>772.8</ele>
        <time>2020-08-22 10:27:58</time>
      </trkpt>
      <trkpt lat="41.24756" lon="1.06828">
        <ele>772.2</ele>
        <time>2020-08-22 10:29:28</time>
      </trkpt>
      <trkpt lat="41.24756" lon="1.06828">
        <ele>772.2</ele>
        <time>2020-08-22 10:29:29</time>
      </trkpt>
      <trkpt lat="41.24755" lon="1.06828">
        <ele>772.4</ele>
        <time>2020-08-22 10:29:31</time>
      </trkpt>
      <trkpt lat="41.24753" lon="1.06829">
        <ele>772.4</ele>
        <time>2020-08-22 10:29:32</time>
      </trkpt>
      <trkpt lat="41.2475" lon="1.06831">
        <ele>772.4</ele>
        <time>2020-08-22 10:29:33</time>
      </trkpt>
      <trkpt lat="41.24747" lon="1.06833">
        <ele>772.4</ele>
        <time>2020-08-22 10:29:34</time>
      </trkpt>
      <trkpt lat="41.24745" lon="1.06834">
        <ele>772.4</ele>
        <time>2020-08-22 10:29:35</time>
      </trkpt>
      <trkpt lat="41.24744" lon="1.06835">
        <ele>772.4</ele>
        <time>2020-08-22 10:29:36</time>
      </trkpt>
      <trkpt lat="41.24743" lon="1.06836">
        <ele>772.2</ele>
        <time>2020-08-22 10:29:37</time>
      </trkpt>
      <trkpt lat="41.24743" lon="1.06836">
        <ele>772.2</ele>
        <time>2020-08-22 10:29:38</time>
      </trkpt>
      <trkpt lat="41.24732" lon="1.06839">
        <ele>806.8</ele>
        <time>2020-08-22 10:33:10</time>
      </trkpt>
      <trkpt lat="41.24731" lon="1.06839">
        <ele>806.6</ele>
        <time>2020-08-22 10:33:15</time>
      </trkpt>
      <trkpt lat="41.2473" lon="1.06838">
        <ele>806.4</ele>
        <time>2020-08-22 10:33:16</time>
      </trkpt>
      <trkpt lat="41.24727" lon="1.06837">
        <ele>806.4</ele>
        <time>2020-08-22 10:33:18</time>
      </trkpt>
      <trkpt lat="41.24725" lon="1.06836">
        <ele>806.4</ele>
        <time>2020-08-22 10:33:19</time>
      </trkpt>
      <trkpt lat="41.24723" lon="1.06836">
        <ele>806.4</ele>
        <time>2020-08-22 10:33:20</time>
      </trkpt>
      <trkpt lat="41.2472" lon="1.06833">
        <ele>806.6</ele>
        <time>2020-08-22 10:33:22</time>
      </trkpt>
      <trkpt lat="41.24718" lon="1.06831">
        <ele>806.6</ele>
        <time>2020-08-22 10:33:23</time>
      </trkpt>
      <trkpt lat="41.24715" lon="1.06828">
        <ele>806.6</ele>
        <time>2020-08-22 10:33:25</time>
      </trkpt>
      <trkpt lat="41.24714" lon="1.06824">
        <ele>807</ele>
        <time>2020-08-22 10:33:27</time>
      </trkpt>
      <trkpt lat="41.24712" lon="1.06818">
        <ele>807.4</ele>
        <time>2020-08-22 10:33:29</time>
      </trkpt>
      <trkpt lat="41.24711" lon="1.06816">
        <ele>807.6</ele>
        <time>2020-08-22 10:33:30</time>
      </trkpt>
      <trkpt lat="41.24711" lon="1.06815">
        <ele>807.6</ele>
        <time>2020-08-22 10:33:31</time>
      </trkpt>
      <trkpt lat="41.24709" lon="1.06815">
        <ele>807.8</ele>
        <time>2020-08-22 10:33:32</time>
      </trkpt>
      <trkpt lat="41.24707" lon="1.06815">
        <ele>807.8</ele>
        <time>2020-08-22 10:33:33</time>
      </trkpt>
      <trkpt lat="41.24707" lon="1.06816">
        <ele>807.8</ele>
        <time>2020-08-22 10:33:34</time>
      </trkpt>
      <trkpt lat="41.24708" lon="1.06817">
        <ele>808</ele>
        <time>2020-08-22 10:33:35</time>
      </trkpt>
      <trkpt lat="41.24709" lon="1.06818">
        <ele>808</ele>
        <time>2020-08-22 10:33:36</time>
      </trkpt>
      <trkpt lat="41.2471" lon="1.0682">
        <ele>807.8</ele>
        <time>2020-08-22 10:33:37</time>
      </trkpt>
      <trkpt lat="41.24711" lon="1.06823">
        <ele>808</ele>
        <time>2020-08-22 10:33:38</time>
      </trkpt>
      <trkpt lat="41.24713" lon="1.06829">
        <ele>808</ele>
        <time>2020-08-22 10:33:40</time>
      </trkpt>
      <trkpt lat="41.24715" lon="1.06831">
        <ele>808</ele>
        <time>2020-08-22 10:33:41</time>
      </trkpt>
      <trkpt lat="41.24716" lon="1.06835">
        <ele>808</ele>
        <time>2020-08-22 10:33:42</time>
      </trkpt>
      <trkpt lat="41.2472" lon="1.06841">
        <ele>807.8</ele>
        <time>2020-08-22 10:33:44</time>
      </trkpt>
      <trkpt lat="41.24721" lon="1.06843">
        <ele>807.8</ele>
        <time>2020-08-22 10:33:45</time>
      </trkpt>
      <trkpt lat="41.24722" lon="1.06845">
        <ele>807.6</ele>
        <time>2020-08-22 10:33:46</time>
      </trkpt>
      <trkpt lat="41.24723" lon="1.06847">
        <ele>807.6</ele>
        <time>2020-08-22 10:33:47</time>
      </trkpt>
      <trkpt lat="41.24724" lon="1.06848">
        <ele>807.4</ele>
        <time>2020-08-22 10:33:48</time>
      </trkpt>
      <trkpt lat="41.24726" lon="1.06848">
        <ele>807.2</ele>
        <time>2020-08-22 10:33:49</time>
      </trkpt>
      <trkpt lat="41.24728" lon="1.06849">
        <ele>807</ele>
        <time>2020-08-22 10:33:50</time>
      </trkpt>
      <trkpt lat="41.24729" lon="1.0685">
        <ele>806.6</ele>
        <time>2020-08-22 10:33:51</time>
      </trkpt>
      <trkpt lat="41.24729" lon="1.0685">
        <ele>806.2</ele>
        <time>2020-08-22 10:33:52</time>
      </trkpt>
      <trkpt lat="41.24729" lon="1.0685">
        <ele>805.4</ele>
        <time>2020-08-22 10:33:54</time>
      </trkpt>
      <trkpt lat="41.24729" lon="1.0685">
        <ele>805.2</ele>
        <time>2020-08-22 10:33:55</time>
      </trkpt>
      <trkpt lat="41.2473" lon="1.06851">
        <ele>805</ele>
        <time>2020-08-22 10:33:57</time>
      </trkpt>
      <trkpt lat="41.24731" lon="1.06852">
        <ele>804.8</ele>
        <time>2020-08-22 10:33:58</time>
      </trkpt>
      <trkpt lat="41.24733" lon="1.06852">
        <ele>804.8</ele>
        <time>2020-08-22 10:33:59</time>
      </trkpt>
      <trkpt lat="41.24734" lon="1.06853">
        <ele>804.8</ele>
        <time>2020-08-22 10:34:00</time>
      </trkpt>
      <trkpt lat="41.24737" lon="1.06853">
        <ele>804.6</ele>
        <time>2020-08-22 10:34:01</time>
      </trkpt>
      <trkpt lat="41.24739" lon="1.06853">
        <ele>804.4</ele>
        <time>2020-08-22 10:34:02</time>
      </trkpt>
      <trkpt lat="41.24741" lon="1.06853">
        <ele>804.2</ele>
        <time>2020-08-22 10:34:03</time>
      </trkpt>
      <trkpt lat="41.24742" lon="1.06853">
        <ele>803.8</ele>
        <time>2020-08-22 10:34:04</time>
      </trkpt>
      <trkpt lat="41.24744" lon="1.06853">
        <ele>803.6</ele>
        <time>2020-08-22 10:34:05</time>
      </trkpt>
      <trkpt lat="41.24746" lon="1.06853">
        <ele>803.6</ele>
        <time>2020-08-22 10:34:06</time>
      </trkpt>
      <trkpt lat="41.24747" lon="1.06853">
        <ele>803</ele>
        <time>2020-08-22 10:34:07</time>
      </trkpt>
      <trkpt lat="41.24748" lon="1.06854">
        <ele>802.6</ele>
        <time>2020-08-22 10:34:08</time>
      </trkpt>
      <trkpt lat="41.2475" lon="1.06855">
        <ele>801.6</ele>
        <time>2020-08-22 10:34:09</time>
      </trkpt>
      <trkpt lat="41.24752" lon="1.06855">
        <ele>801</ele>
        <time>2020-08-22 10:34:10</time>
      </trkpt>
      <trkpt lat="41.24753" lon="1.06855">
        <ele>800.6</ele>
        <time>2020-08-22 10:34:11</time>
      </trkpt>
      <trkpt lat="41.24757" lon="1.06856">
        <ele>800.4</ele>
        <time>2020-08-22 10:34:12</time>
      </trkpt>
      <trkpt lat="41.24759" lon="1.06856">
        <ele>800.2</ele>
        <time>2020-08-22 10:34:13</time>
      </trkpt>
      <trkpt lat="41.24761" lon="1.06858">
        <ele>800</ele>
        <time>2020-08-22 10:34:14</time>
      </trkpt>
      <trkpt lat="41.24762" lon="1.0686">
        <ele>800</ele>
        <time>2020-08-22 10:34:15</time>
      </trkpt>
      <trkpt lat="41.24764" lon="1.06869">
        <ele>799.4</ele>
        <time>2020-08-22 10:34:17</time>
      </trkpt>
      <trkpt lat="41.24766" lon="1.06873">
        <ele>798.8</ele>
        <time>2020-08-22 10:34:18</time>
      </trkpt>
      <trkpt lat="41.24775" lon="1.06891">
        <ele>798.4</ele>
        <time>2020-08-22 10:34:22</time>
      </trkpt>
      <trkpt lat="41.24777" lon="1.06895">
        <ele>798.4</ele>
        <time>2020-08-22 10:34:23</time>
      </trkpt>
      <trkpt lat="41.24782" lon="1.06902">
        <ele>798.6</ele>
        <time>2020-08-22 10:34:25</time>
      </trkpt>
      <trkpt lat="41.24784" lon="1.06905">
        <ele>798.6</ele>
        <time>2020-08-22 10:34:26</time>
      </trkpt>
      <trkpt lat="41.24787" lon="1.06907">
        <ele>798.4</ele>
        <time>2020-08-22 10:34:27</time>
      </trkpt>
      <trkpt lat="41.2479" lon="1.0691">
        <ele>798.6</ele>
        <time>2020-08-22 10:34:28</time>
      </trkpt>
      <trkpt lat="41.24793" lon="1.06914">
        <ele>798.6</ele>
        <time>2020-08-22 10:34:29</time>
      </trkpt>
      <trkpt lat="41.24796" lon="1.06919">
        <ele>798.6</ele>
        <time>2020-08-22 10:34:30</time>
      </trkpt>
      <trkpt lat="41.24802" lon="1.06928">
        <ele>798.4</ele>
        <time>2020-08-22 10:34:32</time>
      </trkpt>
      <trkpt lat="41.24815" lon="1.06943">
        <ele>797.6</ele>
        <time>2020-08-22 10:34:35</time>
      </trkpt>
      <trkpt lat="41.24822" lon="1.06953">
        <ele>797.2</ele>
        <time>2020-08-22 10:34:37</time>
      </trkpt>
      <trkpt lat="41.24826" lon="1.06959">
        <ele>797</ele>
        <time>2020-08-22 10:34:38</time>
      </trkpt>
      <trkpt lat="41.2483" lon="1.06967">
        <ele>796.8</ele>
        <time>2020-08-22 10:34:39</time>
      </trkpt>
      <trkpt lat="41.24833" lon="1.06972">
        <ele>796.4</ele>
        <time>2020-08-22 10:34:40</time>
      </trkpt>
      <trkpt lat="41.24833" lon="1.06978">
        <ele>795.6</ele>
        <time>2020-08-22 10:34:41</time>
      </trkpt>
      <trkpt lat="41.24833" lon="1.06984">
        <ele>795.4</ele>
        <time>2020-08-22 10:34:42</time>
      </trkpt>
      <trkpt lat="41.24833" lon="1.06988">
        <ele>795.2</ele>
        <time>2020-08-22 10:34:43</time>
      </trkpt>
      <trkpt lat="41.24834" lon="1.06992">
        <ele>795</ele>
        <time>2020-08-22 10:34:44</time>
      </trkpt>
      <trkpt lat="41.24836" lon="1.06996">
        <ele>795</ele>
        <time>2020-08-22 10:34:45</time>
      </trkpt>
      <trkpt lat="41.24839" lon="1.07007">
        <ele>795</ele>
        <time>2020-08-22 10:34:47</time>
      </trkpt>
      <trkpt lat="41.2484" lon="1.07012">
        <ele>795.6</ele>
        <time>2020-08-22 10:34:48</time>
      </trkpt>
      <trkpt lat="41.2484" lon="1.07022">
        <ele>796.2</ele>
        <time>2020-08-22 10:34:50</time>
      </trkpt>
      <trkpt lat="41.2484" lon="1.07025">
        <ele>796.6</ele>
        <time>2020-08-22 10:34:51</time>
      </trkpt>
      <trkpt lat="41.24839" lon="1.07029">
        <ele>797</ele>
        <time>2020-08-22 10:34:52</time>
      </trkpt>
      <trkpt lat="41.24839" lon="1.07033">
        <ele>797.4</ele>
        <time>2020-08-22 10:34:53</time>
      </trkpt>
      <trkpt lat="41.24839" lon="1.07037">
        <ele>797.4</ele>
        <time>2020-08-22 10:34:54</time>
      </trkpt>
      <trkpt lat="41.2484" lon="1.07044">
        <ele>797.6</ele>
        <time>2020-08-22 10:34:55</time>
      </trkpt>
      <trkpt lat="41.2484" lon="1.07048">
        <ele>797.6</ele>
        <time>2020-08-22 10:34:56</time>
      </trkpt>
      <trkpt lat="41.24841" lon="1.07052">
        <ele>797.6</ele>
        <time>2020-08-22 10:34:57</time>
      </trkpt>
      <trkpt lat="41.24841" lon="1.07055">
        <ele>797.6</ele>
        <time>2020-08-22 10:34:58</time>
      </trkpt>
      <trkpt lat="41.24843" lon="1.07057">
        <ele>797.6</ele>
        <time>2020-08-22 10:34:59</time>
      </trkpt>
      <trkpt lat="41.24844" lon="1.07059">
        <ele>797.6</ele>
        <time>2020-08-22 10:35:00</time>
      </trkpt>
      <trkpt lat="41.24846" lon="1.07062">
        <ele>797.6</ele>
        <time>2020-08-22 10:35:01</time>
      </trkpt>
      <trkpt lat="41.24846" lon="1.07064">
        <ele>797.6</ele>
        <time>2020-08-22 10:35:02</time>
      </trkpt>
      <trkpt lat="41.24847" lon="1.07065">
        <ele>797.6</ele>
        <time>2020-08-22 10:35:03</time>
      </trkpt>
      <trkpt lat="41.24848" lon="1.07065">
        <ele>797.8</ele>
        <time>2020-08-22 10:35:04</time>
      </trkpt>
      <trkpt lat="41.24848" lon="1.07065">
        <ele>797.8</ele>
        <time>2020-08-22 10:35:05</time>
      </trkpt>
      <trkpt lat="41.24848" lon="1.07069">
        <ele>798.4</ele>
        <time>2020-08-22 10:35:07</time>
      </trkpt>
      <trkpt lat="41.24848" lon="1.07071">
        <ele>798.8</ele>
        <time>2020-08-22 10:35:08</time>
      </trkpt>
      <trkpt lat="41.24849" lon="1.07074">
        <ele>799</ele>
        <time>2020-08-22 10:35:09</time>
      </trkpt>
      <trkpt lat="41.24848" lon="1.07077">
        <ele>799.2</ele>
        <time>2020-08-22 10:35:10</time>
      </trkpt>
      <trkpt lat="41.24848" lon="1.07079">
        <ele>799.4</ele>
        <time>2020-08-22 10:35:11</time>
      </trkpt>
      <trkpt lat="41.24848" lon="1.0708">
        <ele>799.4</ele>
        <time>2020-08-22 10:35:12</time>
      </trkpt>
      <trkpt lat="41.24848" lon="1.0708">
        <ele>799.6</ele>
        <time>2020-08-22 10:35:13</time>
      </trkpt>
      <trkpt lat="41.24848" lon="1.0708">
        <ele>799.8</ele>
        <time>2020-08-22 10:35:14</time>
      </trkpt>
      <trkpt lat="41.24848" lon="1.0708">
        <ele>800.2</ele>
        <time>2020-08-22 10:35:15</time>
      </trkpt>
      <trkpt lat="41.24849" lon="1.07082">
        <ele>800.6</ele>
        <time>2020-08-22 10:35:19</time>
      </trkpt>
      <trkpt lat="41.24849" lon="1.07084">
        <ele>800.6</ele>
        <time>2020-08-22 10:35:20</time>
      </trkpt>
      <trkpt lat="41.24849" lon="1.07086">
        <ele>800.6</ele>
        <time>2020-08-22 10:35:21</time>
      </trkpt>
      <trkpt lat="41.24849" lon="1.07089">
        <ele>800.6</ele>
        <time>2020-08-22 10:35:22</time>
      </trkpt>
      <trkpt lat="41.24848" lon="1.07091">
        <ele>800.6</ele>
        <time>2020-08-22 10:35:23</time>
      </trkpt>
      <trkpt lat="41.24848" lon="1.07094">
        <ele>800.6</ele>
        <time>2020-08-22 10:35:24</time>
      </trkpt>
      <trkpt lat="41.24847" lon="1.07099">
        <ele>800.8</ele>
        <time>2020-08-22 10:35:26</time>
      </trkpt>
      <trkpt lat="41.24847" lon="1.07101">
        <ele>800.8</ele>
        <time>2020-08-22 10:35:27</time>
      </trkpt>
      <trkpt lat="41.24846" lon="1.07104">
        <ele>801</ele>
        <time>2020-08-22 10:35:28</time>
      </trkpt>
      <trkpt lat="41.24845" lon="1.07111">
        <ele>801</ele>
        <time>2020-08-22 10:35:30</time>
      </trkpt>
      <trkpt lat="41.24846" lon="1.07113">
        <ele>801</ele>
        <time>2020-08-22 10:35:31</time>
      </trkpt>
      <trkpt lat="41.24846" lon="1.07115">
        <ele>801</ele>
        <time>2020-08-22 10:35:32</time>
      </trkpt>
      <trkpt lat="41.24847" lon="1.07117">
        <ele>801</ele>
        <time>2020-08-22 10:35:33</time>
      </trkpt>
      <trkpt lat="41.24848" lon="1.07119">
        <ele>801</ele>
        <time>2020-08-22 10:35:34</time>
      </trkpt>
      <trkpt lat="41.24848" lon="1.07121">
        <ele>801</ele>
        <time>2020-08-22 10:35:35</time>
      </trkpt>
      <trkpt lat="41.24849" lon="1.07126">
        <ele>801.4</ele>
        <time>2020-08-22 10:35:38</time>
      </trkpt>
      <trkpt lat="41.24849" lon="1.07129">
        <ele>801.6</ele>
        <time>2020-08-22 10:35:39</time>
      </trkpt>
      <trkpt lat="41.24849" lon="1.07131">
        <ele>801.6</ele>
        <time>2020-08-22 10:35:40</time>
      </trkpt>
      <trkpt lat="41.24849" lon="1.07133">
        <ele>801.8</ele>
        <time>2020-08-22 10:35:41</time>
      </trkpt>
      <trkpt lat="41.24848" lon="1.07136">
        <ele>802</ele>
        <time>2020-08-22 10:35:42</time>
      </trkpt>
      <trkpt lat="41.24848" lon="1.07138">
        <ele>802</ele>
        <time>2020-08-22 10:35:43</time>
      </trkpt>
      <trkpt lat="41.24848" lon="1.07141">
        <ele>802</ele>
        <time>2020-08-22 10:35:44</time>
      </trkpt>
      <trkpt lat="41.24848" lon="1.07144">
        <ele>802.2</ele>
        <time>2020-08-22 10:35:45</time>
      </trkpt>
      <trkpt lat="41.24849" lon="1.07148">
        <ele>802.2</ele>
        <time>2020-08-22 10:35:46</time>
      </trkpt>
      <trkpt lat="41.2485" lon="1.07155">
        <ele>802.2</ele>
        <time>2020-08-22 10:35:48</time>
      </trkpt>
      <trkpt lat="41.24852" lon="1.07169">
        <ele>801.6</ele>
        <time>2020-08-22 10:35:51</time>
      </trkpt>
      <trkpt lat="41.24852" lon="1.07174">
        <ele>801.2</ele>
        <time>2020-08-22 10:35:52</time>
      </trkpt>
      <trkpt lat="41.24852" lon="1.07179">
        <ele>801</ele>
        <time>2020-08-22 10:35:53</time>
      </trkpt>
      <trkpt lat="41.24852" lon="1.07184">
        <ele>801</ele>
        <time>2020-08-22 10:35:54</time>
      </trkpt>
      <trkpt lat="41.24852" lon="1.07189">
        <ele>801</ele>
        <time>2020-08-22 10:35:55</time>
      </trkpt>
      <trkpt lat="41.24852" lon="1.07193">
        <ele>801</ele>
        <time>2020-08-22 10:35:56</time>
      </trkpt>
      <trkpt lat="41.24853" lon="1.07198">
        <ele>801</ele>
        <time>2020-08-22 10:35:57</time>
      </trkpt>
      <trkpt lat="41.24853" lon="1.07202">
        <ele>800.8</ele>
        <time>2020-08-22 10:35:58</time>
      </trkpt>
      <trkpt lat="41.24853" lon="1.07206">
        <ele>800.8</ele>
        <time>2020-08-22 10:35:59</time>
      </trkpt>
      <trkpt lat="41.24855" lon="1.0721">
        <ele>800.8</ele>
        <time>2020-08-22 10:36:00</time>
      </trkpt>
      <trkpt lat="41.24856" lon="1.07214">
        <ele>800.8</ele>
        <time>2020-08-22 10:36:01</time>
      </trkpt>
      <trkpt lat="41.24856" lon="1.07218">
        <ele>800.8</ele>
        <time>2020-08-22 10:36:02</time>
      </trkpt>
      <trkpt lat="41.24855" lon="1.07223">
        <ele>801</ele>
        <time>2020-08-22 10:36:03</time>
      </trkpt>
      <trkpt lat="41.24855" lon="1.07228">
        <ele>801</ele>
        <time>2020-08-22 10:36:04</time>
      </trkpt>
      <trkpt lat="41.24855" lon="1.07233">
        <ele>801</ele>
        <time>2020-08-22 10:36:05</time>
      </trkpt>
      <trkpt lat="41.24855" lon="1.07238">
        <ele>801.2</ele>
        <time>2020-08-22 10:36:06</time>
      </trkpt>
      <trkpt lat="41.24855" lon="1.07243">
        <ele>801.4</ele>
        <time>2020-08-22 10:36:07</time>
      </trkpt>
      <trkpt lat="41.24857" lon="1.07246">
        <ele>801.6</ele>
        <time>2020-08-22 10:36:08</time>
      </trkpt>
      <trkpt lat="41.2486" lon="1.07253">
        <ele>801.8</ele>
        <time>2020-08-22 10:36:10</time>
      </trkpt>
      <trkpt lat="41.24862" lon="1.07258">
        <ele>802</ele>
        <time>2020-08-22 10:36:11</time>
      </trkpt>
      <trkpt lat="41.24863" lon="1.07263">
        <ele>802.2</ele>
        <time>2020-08-22 10:36:12</time>
      </trkpt>
      <trkpt lat="41.24864" lon="1.07269">
        <ele>802.4</ele>
        <time>2020-08-22 10:36:13</time>
      </trkpt>
      <trkpt lat="41.24864" lon="1.07272">
        <ele>802.8</ele>
        <time>2020-08-22 10:36:14</time>
      </trkpt>
      <trkpt lat="41.24865" lon="1.07276">
        <ele>802.8</ele>
        <time>2020-08-22 10:36:15</time>
      </trkpt>
      <trkpt lat="41.24865" lon="1.0728">
        <ele>803</ele>
        <time>2020-08-22 10:36:16</time>
      </trkpt>
      <trkpt lat="41.24865" lon="1.07284">
        <ele>803</ele>
        <time>2020-08-22 10:36:17</time>
      </trkpt>
      <trkpt lat="41.24865" lon="1.07288">
        <ele>803.2</ele>
        <time>2020-08-22 10:36:18</time>
      </trkpt>
      <trkpt lat="41.24865" lon="1.07291">
        <ele>803.2</ele>
        <time>2020-08-22 10:36:19</time>
      </trkpt>
      <trkpt lat="41.24866" lon="1.07294">
        <ele>803.2</ele>
        <time>2020-08-22 10:36:20</time>
      </trkpt>
      <trkpt lat="41.24865" lon="1.07299">
        <ele>803.2</ele>
        <time>2020-08-22 10:36:21</time>
      </trkpt>
      <trkpt lat="41.24865" lon="1.07304">
        <ele>803</ele>
        <time>2020-08-22 10:36:22</time>
      </trkpt>
      <trkpt lat="41.24864" lon="1.07309">
        <ele>802.8</ele>
        <time>2020-08-22 10:36:23</time>
      </trkpt>
      <trkpt lat="41.24863" lon="1.07312">
        <ele>802.8</ele>
        <time>2020-08-22 10:36:24</time>
      </trkpt>
      <trkpt lat="41.24862" lon="1.07315">
        <ele>802.6</ele>
        <time>2020-08-22 10:36:25</time>
      </trkpt>
      <trkpt lat="41.2486" lon="1.07319">
        <ele>802.6</ele>
        <time>2020-08-22 10:36:26</time>
      </trkpt>
      <trkpt lat="41.2486" lon="1.07319">
        <ele>802.6</ele>
        <time>2020-08-22 10:36:27</time>
      </trkpt>
      <trkpt lat="41.24859" lon="1.07321">
        <ele>802.4</ele>
        <time>2020-08-22 10:36:28</time>
      </trkpt>
      <trkpt lat="41.24859" lon="1.07322">
        <ele>802.4</ele>
        <time>2020-08-22 10:36:29</time>
      </trkpt>
      <trkpt lat="41.24858" lon="1.07324">
        <ele>802.4</ele>
        <time>2020-08-22 10:36:30</time>
      </trkpt>
      <trkpt lat="41.24858" lon="1.07325">
        <ele>802.2</ele>
        <time>2020-08-22 10:36:31</time>
      </trkpt>
      <trkpt lat="41.24857" lon="1.07329">
        <ele>802</ele>
        <time>2020-08-22 10:36:32</time>
      </trkpt>
      <trkpt lat="41.24856" lon="1.07334">
        <ele>802</ele>
        <time>2020-08-22 10:36:33</time>
      </trkpt>
      <trkpt lat="41.24855" lon="1.07338">
        <ele>801.8</ele>
        <time>2020-08-22 10:36:34</time>
      </trkpt>
      <trkpt lat="41.24855" lon="1.07341">
        <ele>801.6</ele>
        <time>2020-08-22 10:36:35</time>
      </trkpt>
      <trkpt lat="41.24856" lon="1.07343">
        <ele>801.4</ele>
        <time>2020-08-22 10:36:36</time>
      </trkpt>
      <trkpt lat="41.24856" lon="1.07343">
        <ele>801.2</ele>
        <time>2020-08-22 10:36:37</time>
      </trkpt>
      <trkpt lat="41.24856" lon="1.07343">
        <ele>801.2</ele>
        <time>2020-08-22 10:36:38</time>
      </trkpt>
      <trkpt lat="41.24856" lon="1.07343">
        <ele>801.2</ele>
        <time>2020-08-22 10:36:43</time>
      </trkpt>
      <trkpt lat="41.24856" lon="1.07343">
        <ele>801.2</ele>
        <time>2020-08-22 10:36:45</time>
      </trkpt>
      <trkpt lat="41.24856" lon="1.07343">
        <ele>800.8</ele>
        <time>2020-08-22 10:36:54</time>
      </trkpt>
      <trkpt lat="41.24856" lon="1.07343">
        <ele>800.8</ele>
        <time>2020-08-22 10:36:55</time>
      </trkpt>
      <trkpt lat="41.24853" lon="1.07343">
        <ele>800.6</ele>
        <time>2020-08-22 10:36:58</time>
      </trkpt>
      <trkpt lat="41.24853" lon="1.07343">
        <ele>800.4</ele>
        <time>2020-08-22 10:36:59</time>
      </trkpt>
      <trkpt lat="41.24853" lon="1.07343">
        <ele>800.2</ele>
        <time>2020-08-22 10:37:00</time>
      </trkpt>
      <trkpt lat="41.24852" lon="1.07344">
        <ele>800</ele>
        <time>2020-08-22 10:37:01</time>
      </trkpt>
      <trkpt lat="41.2485" lon="1.07346">
        <ele>799.8</ele>
        <time>2020-08-22 10:37:02</time>
      </trkpt>
      <trkpt lat="41.24849" lon="1.07347">
        <ele>799.4</ele>
        <time>2020-08-22 10:37:03</time>
      </trkpt>
      <trkpt lat="41.24848" lon="1.07349">
        <ele>798.8</ele>
        <time>2020-08-22 10:37:04</time>
      </trkpt>
      <trkpt lat="41.24848" lon="1.0735">
        <ele>798.8</ele>
        <time>2020-08-22 10:37:05</time>
      </trkpt>
      <trkpt lat="41.24846" lon="1.07352">
        <ele>798.2</ele>
        <time>2020-08-22 10:37:07</time>
      </trkpt>
      <trkpt lat="41.24845" lon="1.07353">
        <ele>797.8</ele>
        <time>2020-08-22 10:37:08</time>
      </trkpt>
      <trkpt lat="41.24844" lon="1.07354">
        <ele>797.4</ele>
        <time>2020-08-22 10:37:09</time>
      </trkpt>
      <trkpt lat="41.24843" lon="1.07357">
        <ele>797.2</ele>
        <time>2020-08-22 10:37:10</time>
      </trkpt>
      <trkpt lat="41.24841" lon="1.0736">
        <ele>797</ele>
        <time>2020-08-22 10:37:11</time>
      </trkpt>
      <trkpt lat="41.2484" lon="1.07365">
        <ele>797</ele>
        <time>2020-08-22 10:37:12</time>
      </trkpt>
      <trkpt lat="41.24839" lon="1.0737">
        <ele>796.8</ele>
        <time>2020-08-22 10:37:13</time>
      </trkpt>
      <trkpt lat="41.24837" lon="1.07376">
        <ele>796.8</ele>
        <time>2020-08-22 10:37:15</time>
      </trkpt>
      <trkpt lat="41.24837" lon="1.07379">
        <ele>796.8</ele>
        <time>2020-08-22 10:37:16</time>
      </trkpt>
      <trkpt lat="41.24837" lon="1.07381">
        <ele>796.8</ele>
        <time>2020-08-22 10:37:17</time>
      </trkpt>
      <trkpt lat="41.24837" lon="1.07383">
        <ele>797</ele>
        <time>2020-08-22 10:37:18</time>
      </trkpt>
      <trkpt lat="41.24837" lon="1.07383">
        <ele>797</ele>
        <time>2020-08-22 10:37:19</time>
      </trkpt>
      <trkpt lat="41.24837" lon="1.07383">
        <ele>797</ele>
        <time>2020-08-22 10:37:20</time>
      </trkpt>
      <trkpt lat="41.24835" lon="1.07384">
        <ele>797.2</ele>
        <time>2020-08-22 10:37:21</time>
      </trkpt>
      <trkpt lat="41.24834" lon="1.07386">
        <ele>797.8</ele>
        <time>2020-08-22 10:37:22</time>
      </trkpt>
      <trkpt lat="41.24834" lon="1.07387">
        <ele>798.2</ele>
        <time>2020-08-22 10:37:23</time>
      </trkpt>
      <trkpt lat="41.24833" lon="1.07388">
        <ele>798.4</ele>
        <time>2020-08-22 10:37:24</time>
      </trkpt>
      <trkpt lat="41.24832" lon="1.07388">
        <ele>798.6</ele>
        <time>2020-08-22 10:37:25</time>
      </trkpt>
      <trkpt lat="41.24831" lon="1.07389">
        <ele>798.8</ele>
        <time>2020-08-22 10:37:26</time>
      </trkpt>
      <trkpt lat="41.2483" lon="1.07391">
        <ele>799.2</ele>
        <time>2020-08-22 10:37:27</time>
      </trkpt>
      <trkpt lat="41.24829" lon="1.07392">
        <ele>799.2</ele>
        <time>2020-08-22 10:37:28</time>
      </trkpt>
      <trkpt lat="41.24829" lon="1.07394">
        <ele>799.4</ele>
        <time>2020-08-22 10:37:29</time>
      </trkpt>
      <trkpt lat="41.24828" lon="1.07397">
        <ele>799.6</ele>
        <time>2020-08-22 10:37:30</time>
      </trkpt>
      <trkpt lat="41.24827" lon="1.07399">
        <ele>799.6</ele>
        <time>2020-08-22 10:37:31</time>
      </trkpt>
      <trkpt lat="41.24827" lon="1.07401">
        <ele>799.6</ele>
        <time>2020-08-22 10:37:32</time>
      </trkpt>
      <trkpt lat="41.24826" lon="1.07403">
        <ele>799.6</ele>
        <time>2020-08-22 10:37:33</time>
      </trkpt>
      <trkpt lat="41.24826" lon="1.07405">
        <ele>799.8</ele>
        <time>2020-08-22 10:37:34</time>
      </trkpt>
      <trkpt lat="41.24825" lon="1.07407">
        <ele>799.8</ele>
        <time>2020-08-22 10:37:35</time>
      </trkpt>
      <trkpt lat="41.24825" lon="1.0741">
        <ele>799.8</ele>
        <time>2020-08-22 10:37:36</time>
      </trkpt>
      <trkpt lat="41.24826" lon="1.07417">
        <ele>799.8</ele>
        <time>2020-08-22 10:37:39</time>
      </trkpt>
      <trkpt lat="41.24826" lon="1.07419">
        <ele>799.8</ele>
        <time>2020-08-22 10:37:40</time>
      </trkpt>
      <trkpt lat="41.24828" lon="1.07425">
        <ele>800</ele>
        <time>2020-08-22 10:37:42</time>
      </trkpt>
      <trkpt lat="41.24831" lon="1.07429">
        <ele>800</ele>
        <time>2020-08-22 10:37:44</time>
      </trkpt>
      <trkpt lat="41.24834" lon="1.07434">
        <ele>800.4</ele>
        <time>2020-08-22 10:37:47</time>
      </trkpt>
      <trkpt lat="41.24835" lon="1.07436">
        <ele>800.6</ele>
        <time>2020-08-22 10:37:48</time>
      </trkpt>
      <trkpt lat="41.24836" lon="1.07438">
        <ele>801</ele>
        <time>2020-08-22 10:37:49</time>
      </trkpt>
      <trkpt lat="41.24837" lon="1.07441">
        <ele>801.4</ele>
        <time>2020-08-22 10:37:50</time>
      </trkpt>
      <trkpt lat="41.24838" lon="1.07444">
        <ele>802.2</ele>
        <time>2020-08-22 10:37:51</time>
      </trkpt>
      <trkpt lat="41.24838" lon="1.07447">
        <ele>802.6</ele>
        <time>2020-08-22 10:37:52</time>
      </trkpt>
      <trkpt lat="41.24838" lon="1.07451">
        <ele>802.8</ele>
        <time>2020-08-22 10:37:53</time>
      </trkpt>
      <trkpt lat="41.24838" lon="1.07454">
        <ele>803</ele>
        <time>2020-08-22 10:37:54</time>
      </trkpt>
      <trkpt lat="41.24838" lon="1.07457">
        <ele>803.2</ele>
        <time>2020-08-22 10:37:55</time>
      </trkpt>
      <trkpt lat="41.24839" lon="1.07461">
        <ele>803.6</ele>
        <time>2020-08-22 10:37:56</time>
      </trkpt>
      <trkpt lat="41.24838" lon="1.07465">
        <ele>803.8</ele>
        <time>2020-08-22 10:37:57</time>
      </trkpt>
      <trkpt lat="41.24838" lon="1.07468">
        <ele>804</ele>
        <time>2020-08-22 10:37:58</time>
      </trkpt>
      <trkpt lat="41.24837" lon="1.07471">
        <ele>804.2</ele>
        <time>2020-08-22 10:37:59</time>
      </trkpt>
      <trkpt lat="41.24836" lon="1.07474">
        <ele>804.4</ele>
        <time>2020-08-22 10:38:00</time>
      </trkpt>
      <trkpt lat="41.24836" lon="1.07478">
        <ele>804.6</ele>
        <time>2020-08-22 10:38:01</time>
      </trkpt>
      <trkpt lat="41.24836" lon="1.07481">
        <ele>804.8</ele>
        <time>2020-08-22 10:38:02</time>
      </trkpt>
      <trkpt lat="41.24837" lon="1.07485">
        <ele>805</ele>
        <time>2020-08-22 10:38:03</time>
      </trkpt>
      <trkpt lat="41.24839" lon="1.07488">
        <ele>805</ele>
        <time>2020-08-22 10:38:04</time>
      </trkpt>
      <trkpt lat="41.24841" lon="1.07491">
        <ele>805.2</ele>
        <time>2020-08-22 10:38:05</time>
      </trkpt>
      <trkpt lat="41.24842" lon="1.07494">
        <ele>805.4</ele>
        <time>2020-08-22 10:38:06</time>
      </trkpt>
      <trkpt lat="41.24842" lon="1.07497">
        <ele>805.6</ele>
        <time>2020-08-22 10:38:07</time>
      </trkpt>
      <trkpt lat="41.24842" lon="1.075">
        <ele>805.6</ele>
        <time>2020-08-22 10:38:08</time>
      </trkpt>
      <trkpt lat="41.24841" lon="1.07503">
        <ele>805.8</ele>
        <time>2020-08-22 10:38:09</time>
      </trkpt>
      <trkpt lat="41.24839" lon="1.07507">
        <ele>806</ele>
        <time>2020-08-22 10:38:10</time>
      </trkpt>
      <trkpt lat="41.24839" lon="1.0751">
        <ele>806</ele>
        <time>2020-08-22 10:38:11</time>
      </trkpt>
      <trkpt lat="41.24837" lon="1.07513">
        <ele>806.4</ele>
        <time>2020-08-22 10:38:12</time>
      </trkpt>
      <trkpt lat="41.24836" lon="1.07516">
        <ele>806.4</ele>
        <time>2020-08-22 10:38:13</time>
      </trkpt>
      <trkpt lat="41.24835" lon="1.07519">
        <ele>806.6</ele>
        <time>2020-08-22 10:38:14</time>
      </trkpt>
      <trkpt lat="41.24833" lon="1.07523">
        <ele>806.6</ele>
        <time>2020-08-22 10:38:15</time>
      </trkpt>
      <trkpt lat="41.24832" lon="1.07528">
        <ele>806.6</ele>
        <time>2020-08-22 10:38:16</time>
      </trkpt>
      <trkpt lat="41.24832" lon="1.07533">
        <ele>806.6</ele>
        <time>2020-08-22 10:38:17</time>
      </trkpt>
      <trkpt lat="41.24832" lon="1.07537">
        <ele>806.6</ele>
        <time>2020-08-22 10:38:18</time>
      </trkpt>
      <trkpt lat="41.24832" lon="1.07542">
        <ele>806.4</ele>
        <time>2020-08-22 10:38:19</time>
      </trkpt>
      <trkpt lat="41.24831" lon="1.07546">
        <ele>806.4</ele>
        <time>2020-08-22 10:38:20</time>
      </trkpt>
      <trkpt lat="41.24829" lon="1.0755">
        <ele>806.2</ele>
        <time>2020-08-22 10:38:21</time>
      </trkpt>
      <trkpt lat="41.24827" lon="1.07553">
        <ele>806.2</ele>
        <time>2020-08-22 10:38:22</time>
      </trkpt>
      <trkpt lat="41.24825" lon="1.07556">
        <ele>806.2</ele>
        <time>2020-08-22 10:38:23</time>
      </trkpt>
      <trkpt lat="41.24824" lon="1.07559">
        <ele>806</ele>
        <time>2020-08-22 10:38:24</time>
      </trkpt>
      <trkpt lat="41.24824" lon="1.07563">
        <ele>806</ele>
        <time>2020-08-22 10:38:25</time>
      </trkpt>
      <trkpt lat="41.24824" lon="1.07567">
        <ele>805.6</ele>
        <time>2020-08-22 10:38:26</time>
      </trkpt>
      <trkpt lat="41.24824" lon="1.07572">
        <ele>805.6</ele>
        <time>2020-08-22 10:38:27</time>
      </trkpt>
      <trkpt lat="41.24823" lon="1.07577">
        <ele>805.4</ele>
        <time>2020-08-22 10:38:28</time>
      </trkpt>
      <trkpt lat="41.24822" lon="1.07583">
        <ele>805</ele>
        <time>2020-08-22 10:38:29</time>
      </trkpt>
      <trkpt lat="41.24822" lon="1.07589">
        <ele>804.6</ele>
        <time>2020-08-22 10:38:30</time>
      </trkpt>
      <trkpt lat="41.24823" lon="1.07595">
        <ele>804.4</ele>
        <time>2020-08-22 10:38:31</time>
      </trkpt>
      <trkpt lat="41.24824" lon="1.07599">
        <ele>804</ele>
        <time>2020-08-22 10:38:32</time>
      </trkpt>
      <trkpt lat="41.24826" lon="1.07602">
        <ele>803.8</ele>
        <time>2020-08-22 10:38:33</time>
      </trkpt>
      <trkpt lat="41.24829" lon="1.07605">
        <ele>803.4</ele>
        <time>2020-08-22 10:38:34</time>
      </trkpt>
      <trkpt lat="41.24835" lon="1.07612">
        <ele>803.2</ele>
        <time>2020-08-22 10:38:36</time>
      </trkpt>
      <trkpt lat="41.24836" lon="1.07616">
        <ele>803.2</ele>
        <time>2020-08-22 10:38:37</time>
      </trkpt>
      <trkpt lat="41.24838" lon="1.0762">
        <ele>803.2</ele>
        <time>2020-08-22 10:38:38</time>
      </trkpt>
      <trkpt lat="41.24842" lon="1.0763">
        <ele>803.2</ele>
        <time>2020-08-22 10:38:40</time>
      </trkpt>
      <trkpt lat="41.24844" lon="1.07635">
        <ele>803.2</ele>
        <time>2020-08-22 10:38:41</time>
      </trkpt>
      <trkpt lat="41.2485" lon="1.07651">
        <ele>803.6</ele>
        <time>2020-08-22 10:38:44</time>
      </trkpt>
      <trkpt lat="41.24853" lon="1.07659">
        <ele>804</ele>
        <time>2020-08-22 10:38:46</time>
      </trkpt>
      <trkpt lat="41.24855" lon="1.07664">
        <ele>804</ele>
        <time>2020-08-22 10:38:47</time>
      </trkpt>
      <trkpt lat="41.24856" lon="1.07669">
        <ele>804.4</ele>
        <time>2020-08-22 10:38:48</time>
      </trkpt>
      <trkpt lat="41.24858" lon="1.07674">
        <ele>804.4</ele>
        <time>2020-08-22 10:38:49</time>
      </trkpt>
      <trkpt lat="41.24859" lon="1.07679">
        <ele>804.6</ele>
        <time>2020-08-22 10:38:50</time>
      </trkpt>
      <trkpt lat="41.2486" lon="1.07684">
        <ele>804.8</ele>
        <time>2020-08-22 10:38:51</time>
      </trkpt>
      <trkpt lat="41.24861" lon="1.07689">
        <ele>804.8</ele>
        <time>2020-08-22 10:38:52</time>
      </trkpt>
      <trkpt lat="41.24862" lon="1.07694">
        <ele>804.8</ele>
        <time>2020-08-22 10:38:53</time>
      </trkpt>
      <trkpt lat="41.24863" lon="1.07699">
        <ele>804.8</ele>
        <time>2020-08-22 10:38:54</time>
      </trkpt>
      <trkpt lat="41.24864" lon="1.07703">
        <ele>805</ele>
        <time>2020-08-22 10:38:55</time>
      </trkpt>
      <trkpt lat="41.24865" lon="1.07708">
        <ele>805.2</ele>
        <time>2020-08-22 10:38:56</time>
      </trkpt>
      <trkpt lat="41.24865" lon="1.07713">
        <ele>805.6</ele>
        <time>2020-08-22 10:38:57</time>
      </trkpt>
      <trkpt lat="41.24866" lon="1.07718">
        <ele>805.8</ele>
        <time>2020-08-22 10:38:58</time>
      </trkpt>
      <trkpt lat="41.24867" lon="1.07723">
        <ele>806.2</ele>
        <time>2020-08-22 10:38:59</time>
      </trkpt>
      <trkpt lat="41.24869" lon="1.07728">
        <ele>806.4</ele>
        <time>2020-08-22 10:39:00</time>
      </trkpt>
      <trkpt lat="41.24871" lon="1.07732">
        <ele>806.4</ele>
        <time>2020-08-22 10:39:01</time>
      </trkpt>
      <trkpt lat="41.24872" lon="1.07736">
        <ele>806.8</ele>
        <time>2020-08-22 10:39:02</time>
      </trkpt>
      <trkpt lat="41.24875" lon="1.07739">
        <ele>806.8</ele>
        <time>2020-08-22 10:39:03</time>
      </trkpt>
      <trkpt lat="41.24878" lon="1.07741">
        <ele>807</ele>
        <time>2020-08-22 10:39:04</time>
      </trkpt>
      <trkpt lat="41.24881" lon="1.07743">
        <ele>807</ele>
        <time>2020-08-22 10:39:05</time>
      </trkpt>
      <trkpt lat="41.24884" lon="1.07744">
        <ele>807</ele>
        <time>2020-08-22 10:39:06</time>
      </trkpt>
      <trkpt lat="41.24886" lon="1.07744">
        <ele>807</ele>
        <time>2020-08-22 10:39:07</time>
      </trkpt>
      <trkpt lat="41.24888" lon="1.07743">
        <ele>807.4</ele>
        <time>2020-08-22 10:39:08</time>
      </trkpt>
      <trkpt lat="41.2489" lon="1.07741">
        <ele>807.6</ele>
        <time>2020-08-22 10:39:09</time>
      </trkpt>
      <trkpt lat="41.24891" lon="1.07739">
        <ele>807.6</ele>
        <time>2020-08-22 10:39:10</time>
      </trkpt>
      <trkpt lat="41.24893" lon="1.07736">
        <ele>808</ele>
        <time>2020-08-22 10:39:11</time>
      </trkpt>
      <trkpt lat="41.24894" lon="1.07733">
        <ele>808.6</ele>
        <time>2020-08-22 10:39:12</time>
      </trkpt>
      <trkpt lat="41.24894" lon="1.0773">
        <ele>809.4</ele>
        <time>2020-08-22 10:39:13</time>
      </trkpt>
      <trkpt lat="41.24894" lon="1.07727">
        <ele>809.8</ele>
        <time>2020-08-22 10:39:14</time>
      </trkpt>
      <trkpt lat="41.24894" lon="1.07724">
        <ele>810.2</ele>
        <time>2020-08-22 10:39:15</time>
      </trkpt>
      <trkpt lat="41.24894" lon="1.07721">
        <ele>810.4</ele>
        <time>2020-08-22 10:39:16</time>
      </trkpt>
      <trkpt lat="41.24893" lon="1.07717">
        <ele>810.8</ele>
        <time>2020-08-22 10:39:17</time>
      </trkpt>
      <trkpt lat="41.24892" lon="1.07714">
        <ele>811</ele>
        <time>2020-08-22 10:39:18</time>
      </trkpt>
      <trkpt lat="41.24891" lon="1.07711">
        <ele>811.2</ele>
        <time>2020-08-22 10:39:19</time>
      </trkpt>
      <trkpt lat="41.24891" lon="1.07707">
        <ele>811.6</ele>
        <time>2020-08-22 10:39:20</time>
      </trkpt>
      <trkpt lat="41.2489" lon="1.07704">
        <ele>812</ele>
        <time>2020-08-22 10:39:21</time>
      </trkpt>
      <trkpt lat="41.2489" lon="1.077">
        <ele>812.4</ele>
        <time>2020-08-22 10:39:22</time>
      </trkpt>
      <trkpt lat="41.2489" lon="1.07696">
        <ele>812.6</ele>
        <time>2020-08-22 10:39:23</time>
      </trkpt>
      <trkpt lat="41.2489" lon="1.07693">
        <ele>813</ele>
        <time>2020-08-22 10:39:24</time>
      </trkpt>
      <trkpt lat="41.2489" lon="1.07689">
        <ele>813.2</ele>
        <time>2020-08-22 10:39:25</time>
      </trkpt>
      <trkpt lat="41.24891" lon="1.07685">
        <ele>813.6</ele>
        <time>2020-08-22 10:39:26</time>
      </trkpt>
      <trkpt lat="41.24893" lon="1.07682">
        <ele>813.8</ele>
        <time>2020-08-22 10:39:27</time>
      </trkpt>
      <trkpt lat="41.24895" lon="1.07679">
        <ele>814</ele>
        <time>2020-08-22 10:39:28</time>
      </trkpt>
      <trkpt lat="41.24897" lon="1.07678">
        <ele>814.6</ele>
        <time>2020-08-22 10:39:29</time>
      </trkpt>
      <trkpt lat="41.24899" lon="1.07679">
        <ele>815</ele>
        <time>2020-08-22 10:39:30</time>
      </trkpt>
      <trkpt lat="41.24901" lon="1.07681">
        <ele>815.2</ele>
        <time>2020-08-22 10:39:31</time>
      </trkpt>
      <trkpt lat="41.24902" lon="1.07683">
        <ele>815.4</ele>
        <time>2020-08-22 10:39:32</time>
      </trkpt>
      <trkpt lat="41.24903" lon="1.07686">
        <ele>815.8</ele>
        <time>2020-08-22 10:39:33</time>
      </trkpt>
      <trkpt lat="41.24904" lon="1.07688">
        <ele>816</ele>
        <time>2020-08-22 10:39:34</time>
      </trkpt>
      <trkpt lat="41.24905" lon="1.07691">
        <ele>816.2</ele>
        <time>2020-08-22 10:39:35</time>
      </trkpt>
      <trkpt lat="41.24906" lon="1.07695">
        <ele>816.8</ele>
        <time>2020-08-22 10:39:36</time>
      </trkpt>
      <trkpt lat="41.24907" lon="1.07698">
        <ele>817</ele>
        <time>2020-08-22 10:39:37</time>
      </trkpt>
      <trkpt lat="41.24909" lon="1.07701">
        <ele>817.2</ele>
        <time>2020-08-22 10:39:38</time>
      </trkpt>
      <trkpt lat="41.24911" lon="1.07704">
        <ele>817.4</ele>
        <time>2020-08-22 10:39:39</time>
      </trkpt>
      <trkpt lat="41.24912" lon="1.07706">
        <ele>817.8</ele>
        <time>2020-08-22 10:39:40</time>
      </trkpt>
      <trkpt lat="41.24914" lon="1.07709">
        <ele>817.8</ele>
        <time>2020-08-22 10:39:41</time>
      </trkpt>
      <trkpt lat="41.24916" lon="1.07712">
        <ele>818</ele>
        <time>2020-08-22 10:39:42</time>
      </trkpt>
      <trkpt lat="41.24917" lon="1.07715">
        <ele>818.2</ele>
        <time>2020-08-22 10:39:43</time>
      </trkpt>
      <trkpt lat="41.24919" lon="1.07718">
        <ele>818.4</ele>
        <time>2020-08-22 10:39:44</time>
      </trkpt>
      <trkpt lat="41.24921" lon="1.0772">
        <ele>818.6</ele>
        <time>2020-08-22 10:39:45</time>
      </trkpt>
      <trkpt lat="41.24923" lon="1.07723">
        <ele>818.8</ele>
        <time>2020-08-22 10:39:46</time>
      </trkpt>
      <trkpt lat="41.24925" lon="1.07726">
        <ele>819</ele>
        <time>2020-08-22 10:39:47</time>
      </trkpt>
      <trkpt lat="41.24928" lon="1.07729">
        <ele>819.2</ele>
        <time>2020-08-22 10:39:48</time>
      </trkpt>
      <trkpt lat="41.2493" lon="1.07732">
        <ele>819.2</ele>
        <time>2020-08-22 10:39:49</time>
      </trkpt>
      <trkpt lat="41.24932" lon="1.07735">
        <ele>819.2</ele>
        <time>2020-08-22 10:39:50</time>
      </trkpt>
      <trkpt lat="41.24934" lon="1.07739">
        <ele>819.4</ele>
        <time>2020-08-22 10:39:51</time>
      </trkpt>
      <trkpt lat="41.24937" lon="1.07742">
        <ele>819.6</ele>
        <time>2020-08-22 10:39:52</time>
      </trkpt>
      <trkpt lat="41.2494" lon="1.07745">
        <ele>819.6</ele>
        <time>2020-08-22 10:39:53</time>
      </trkpt>
      <trkpt lat="41.24943" lon="1.07748">
        <ele>819.6</ele>
        <time>2020-08-22 10:39:54</time>
      </trkpt>
      <trkpt lat="41.24945" lon="1.07751">
        <ele>819.6</ele>
        <time>2020-08-22 10:39:55</time>
      </trkpt>
      <trkpt lat="41.24963" lon="1.07773">
        <ele>819.8</ele>
        <time>2020-08-22 10:40:01</time>
      </trkpt>
      <trkpt lat="41.24965" lon="1.07777">
        <ele>819.8</ele>
        <time>2020-08-22 10:40:02</time>
      </trkpt>
      <trkpt lat="41.24971" lon="1.07789">
        <ele>820</ele>
        <time>2020-08-22 10:40:05</time>
      </trkpt>
      <trkpt lat="41.24973" lon="1.07794">
        <ele>820.2</ele>
        <time>2020-08-22 10:40:06</time>
      </trkpt>
      <trkpt lat="41.24975" lon="1.07798">
        <ele>820.2</ele>
        <time>2020-08-22 10:40:07</time>
      </trkpt>
      <trkpt lat="41.24977" lon="1.07802">
        <ele>820.4</ele>
        <time>2020-08-22 10:40:08</time>
      </trkpt>
      <trkpt lat="41.24979" lon="1.07806">
        <ele>820.4</ele>
        <time>2020-08-22 10:40:09</time>
      </trkpt>
      <trkpt lat="41.24981" lon="1.07811">
        <ele>820.8</ele>
        <time>2020-08-22 10:40:10</time>
      </trkpt>
      <trkpt lat="41.24982" lon="1.07813">
        <ele>821.2</ele>
        <time>2020-08-22 10:40:11</time>
      </trkpt>
      <trkpt lat="41.24984" lon="1.07817">
        <ele>821.6</ele>
        <time>2020-08-22 10:40:12</time>
      </trkpt>
      <trkpt lat="41.24985" lon="1.07821">
        <ele>821.8</ele>
        <time>2020-08-22 10:40:13</time>
      </trkpt>
      <trkpt lat="41.24986" lon="1.07824">
        <ele>822.2</ele>
        <time>2020-08-22 10:40:14</time>
      </trkpt>
      <trkpt lat="41.24987" lon="1.07828">
        <ele>822.4</ele>
        <time>2020-08-22 10:40:15</time>
      </trkpt>
      <trkpt lat="41.24988" lon="1.07831">
        <ele>823</ele>
        <time>2020-08-22 10:40:16</time>
      </trkpt>
      <trkpt lat="41.24989" lon="1.07835">
        <ele>823.4</ele>
        <time>2020-08-22 10:40:17</time>
      </trkpt>
      <trkpt lat="41.2499" lon="1.07838">
        <ele>823.6</ele>
        <time>2020-08-22 10:40:18</time>
      </trkpt>
      <trkpt lat="41.24991" lon="1.07842">
        <ele>823.8</ele>
        <time>2020-08-22 10:40:19</time>
      </trkpt>
      <trkpt lat="41.24992" lon="1.07846">
        <ele>823.8</ele>
        <time>2020-08-22 10:40:20</time>
      </trkpt>
      <trkpt lat="41.24994" lon="1.0785">
        <ele>824.2</ele>
        <time>2020-08-22 10:40:21</time>
      </trkpt>
      <trkpt lat="41.24995" lon="1.07855">
        <ele>824.4</ele>
        <time>2020-08-22 10:40:22</time>
      </trkpt>
      <trkpt lat="41.24997" lon="1.07859">
        <ele>824.8</ele>
        <time>2020-08-22 10:40:23</time>
      </trkpt>
      <trkpt lat="41.24998" lon="1.07863">
        <ele>825</ele>
        <time>2020-08-22 10:40:24</time>
      </trkpt>
      <trkpt lat="41.25" lon="1.07867">
        <ele>825</ele>
        <time>2020-08-22 10:40:25</time>
      </trkpt>
      <trkpt lat="41.25001" lon="1.07871">
        <ele>825.2</ele>
        <time>2020-08-22 10:40:26</time>
      </trkpt>
      <trkpt lat="41.25002" lon="1.07875">
        <ele>825.2</ele>
        <time>2020-08-22 10:40:27</time>
      </trkpt>
      <trkpt lat="41.25004" lon="1.07879">
        <ele>825.4</ele>
        <time>2020-08-22 10:40:28</time>
      </trkpt>
      <trkpt lat="41.25005" lon="1.07883">
        <ele>825.4</ele>
        <time>2020-08-22 10:40:29</time>
      </trkpt>
      <trkpt lat="41.25007" lon="1.07887">
        <ele>825.6</ele>
        <time>2020-08-22 10:40:30</time>
      </trkpt>
      <trkpt lat="41.25007" lon="1.07891">
        <ele>825.8</ele>
        <time>2020-08-22 10:40:31</time>
      </trkpt>
      <trkpt lat="41.25008" lon="1.07895">
        <ele>825.8</ele>
        <time>2020-08-22 10:40:32</time>
      </trkpt>
      <trkpt lat="41.2501" lon="1.07899">
        <ele>826</ele>
        <time>2020-08-22 10:40:33</time>
      </trkpt>
      <trkpt lat="41.25012" lon="1.07903">
        <ele>826.2</ele>
        <time>2020-08-22 10:40:34</time>
      </trkpt>
      <trkpt lat="41.25014" lon="1.07907">
        <ele>826.4</ele>
        <time>2020-08-22 10:40:35</time>
      </trkpt>
      <trkpt lat="41.25015" lon="1.0791">
        <ele>826.6</ele>
        <time>2020-08-22 10:40:36</time>
      </trkpt>
      <trkpt lat="41.25017" lon="1.07913">
        <ele>827</ele>
        <time>2020-08-22 10:40:37</time>
      </trkpt>
      <trkpt lat="41.25019" lon="1.07915">
        <ele>827</ele>
        <time>2020-08-22 10:40:38</time>
      </trkpt>
      <trkpt lat="41.25022" lon="1.07917">
        <ele>827.2</ele>
        <time>2020-08-22 10:40:39</time>
      </trkpt>
      <trkpt lat="41.25025" lon="1.07917">
        <ele>827.4</ele>
        <time>2020-08-22 10:40:40</time>
      </trkpt>
      <trkpt lat="41.25027" lon="1.07917">
        <ele>827.8</ele>
        <time>2020-08-22 10:40:41</time>
      </trkpt>
      <trkpt lat="41.25029" lon="1.07915">
        <ele>828</ele>
        <time>2020-08-22 10:40:42</time>
      </trkpt>
      <trkpt lat="41.25031" lon="1.07913">
        <ele>828.4</ele>
        <time>2020-08-22 10:40:43</time>
      </trkpt>
      <trkpt lat="41.25033" lon="1.07912">
        <ele>828.8</ele>
        <time>2020-08-22 10:40:44</time>
      </trkpt>
      <trkpt lat="41.25035" lon="1.0791">
        <ele>829</ele>
        <time>2020-08-22 10:40:45</time>
      </trkpt>
      <trkpt lat="41.25038" lon="1.07909">
        <ele>829.4</ele>
        <time>2020-08-22 10:40:46</time>
      </trkpt>
      <trkpt lat="41.2504" lon="1.07908">
        <ele>829.6</ele>
        <time>2020-08-22 10:40:47</time>
      </trkpt>
      <trkpt lat="41.25043" lon="1.07906">
        <ele>829.8</ele>
        <time>2020-08-22 10:40:48</time>
      </trkpt>
      <trkpt lat="41.25045" lon="1.07905">
        <ele>829.8</ele>
        <time>2020-08-22 10:40:49</time>
      </trkpt>
      <trkpt lat="41.25048" lon="1.07904">
        <ele>830.2</ele>
        <time>2020-08-22 10:40:50</time>
      </trkpt>
      <trkpt lat="41.2505" lon="1.07902">
        <ele>830.6</ele>
        <time>2020-08-22 10:40:51</time>
      </trkpt>
      <trkpt lat="41.25053" lon="1.07901">
        <ele>830.8</ele>
        <time>2020-08-22 10:40:52</time>
      </trkpt>
      <trkpt lat="41.25056" lon="1.079">
        <ele>831.2</ele>
        <time>2020-08-22 10:40:53</time>
      </trkpt>
      <trkpt lat="41.25058" lon="1.07899">
        <ele>831.2</ele>
        <time>2020-08-22 10:40:54</time>
      </trkpt>
      <trkpt lat="41.25061" lon="1.07898">
        <ele>831.4</ele>
        <time>2020-08-22 10:40:55</time>
      </trkpt>
      <trkpt lat="41.25063" lon="1.07896">
        <ele>831.6</ele>
        <time>2020-08-22 10:40:56</time>
      </trkpt>
      <trkpt lat="41.25065" lon="1.07895">
        <ele>832</ele>
        <time>2020-08-22 10:40:57</time>
      </trkpt>
      <trkpt lat="41.25067" lon="1.07894">
        <ele>832.2</ele>
        <time>2020-08-22 10:40:58</time>
      </trkpt>
      <trkpt lat="41.2507" lon="1.07893">
        <ele>832.4</ele>
        <time>2020-08-22 10:40:59</time>
      </trkpt>
      <trkpt lat="41.25072" lon="1.07892">
        <ele>832.8</ele>
        <time>2020-08-22 10:41:00</time>
      </trkpt>
      <trkpt lat="41.25074" lon="1.07891">
        <ele>833</ele>
        <time>2020-08-22 10:41:01</time>
      </trkpt>
      <trkpt lat="41.25076" lon="1.0789">
        <ele>834</ele>
        <time>2020-08-22 10:41:02</time>
      </trkpt>
      <trkpt lat="41.25078" lon="1.07888">
        <ele>834.2</ele>
        <time>2020-08-22 10:41:03</time>
      </trkpt>
      <trkpt lat="41.25079" lon="1.07886">
        <ele>834.6</ele>
        <time>2020-08-22 10:41:04</time>
      </trkpt>
      <trkpt lat="41.25081" lon="1.07884">
        <ele>834.8</ele>
        <time>2020-08-22 10:41:05</time>
      </trkpt>
      <trkpt lat="41.25082" lon="1.07883">
        <ele>835</ele>
        <time>2020-08-22 10:41:06</time>
      </trkpt>
      <trkpt lat="41.25084" lon="1.07881">
        <ele>835.2</ele>
        <time>2020-08-22 10:41:07</time>
      </trkpt>
      <trkpt lat="41.25085" lon="1.0788">
        <ele>836.2</ele>
        <time>2020-08-22 10:41:08</time>
      </trkpt>
      <trkpt lat="41.25086" lon="1.07878">
        <ele>836.8</ele>
        <time>2020-08-22 10:41:09</time>
      </trkpt>
      <trkpt lat="41.25088" lon="1.07878">
        <ele>837.2</ele>
        <time>2020-08-22 10:41:10</time>
      </trkpt>
      <trkpt lat="41.25091" lon="1.07877">
        <ele>837.8</ele>
        <time>2020-08-22 10:41:11</time>
      </trkpt>
      <trkpt lat="41.25094" lon="1.07877">
        <ele>838</ele>
        <time>2020-08-22 10:41:12</time>
      </trkpt>
      <trkpt lat="41.25097" lon="1.07876">
        <ele>838.2</ele>
        <time>2020-08-22 10:41:13</time>
      </trkpt>
      <trkpt lat="41.25101" lon="1.07875">
        <ele>838.2</ele>
        <time>2020-08-22 10:41:14</time>
      </trkpt>
      <trkpt lat="41.25105" lon="1.07874">
        <ele>838.2</ele>
        <time>2020-08-22 10:41:15</time>
      </trkpt>
      <trkpt lat="41.25109" lon="1.07873">
        <ele>838.2</ele>
        <time>2020-08-22 10:41:16</time>
      </trkpt>
      <trkpt lat="41.25114" lon="1.07871">
        <ele>838.2</ele>
        <time>2020-08-22 10:41:17</time>
      </trkpt>
      <trkpt lat="41.2512" lon="1.07871">
        <ele>838.2</ele>
        <time>2020-08-22 10:41:18</time>
      </trkpt>
      <trkpt lat="41.25126" lon="1.07872">
        <ele>838.2</ele>
        <time>2020-08-22 10:41:19</time>
      </trkpt>
      <trkpt lat="41.25139" lon="1.07877">
        <ele>838</ele>
        <time>2020-08-22 10:41:21</time>
      </trkpt>
      <trkpt lat="41.2515" lon="1.07883">
        <ele>837.4</ele>
        <time>2020-08-22 10:41:23</time>
      </trkpt>
      <trkpt lat="41.25156" lon="1.07888">
        <ele>837</ele>
        <time>2020-08-22 10:41:24</time>
      </trkpt>
      <trkpt lat="41.25161" lon="1.07892">
        <ele>836.8</ele>
        <time>2020-08-22 10:41:25</time>
      </trkpt>
      <trkpt lat="41.2519" lon="1.07912">
        <ele>836.2</ele>
        <time>2020-08-22 10:41:29</time>
      </trkpt>
      <trkpt lat="41.25196" lon="1.07916">
        <ele>835.8</ele>
        <time>2020-08-22 10:41:30</time>
      </trkpt>
      <trkpt lat="41.25211" lon="1.07925">
        <ele>834.8</ele>
        <time>2020-08-22 10:41:32</time>
      </trkpt>
      <trkpt lat="41.25219" lon="1.0793">
        <ele>834.4</ele>
        <time>2020-08-22 10:41:33</time>
      </trkpt>
      <trkpt lat="41.25234" lon="1.07941">
        <ele>833.8</ele>
        <time>2020-08-22 10:41:35</time>
      </trkpt>
      <trkpt lat="41.25241" lon="1.07949">
        <ele>833.4</ele>
        <time>2020-08-22 10:41:36</time>
      </trkpt>
      <trkpt lat="41.25248" lon="1.0796">
        <ele>833.4</ele>
        <time>2020-08-22 10:41:37</time>
      </trkpt>
      <trkpt lat="41.25252" lon="1.07968">
        <ele>833</ele>
        <time>2020-08-22 10:41:38</time>
      </trkpt>
      <trkpt lat="41.25254" lon="1.07981">
        <ele>832.6</ele>
        <time>2020-08-22 10:41:39</time>
      </trkpt>
      <trkpt lat="41.25255" lon="1.07993">
        <ele>832.2</ele>
        <time>2020-08-22 10:41:40</time>
      </trkpt>
      <trkpt lat="41.25255" lon="1.08004">
        <ele>831.8</ele>
        <time>2020-08-22 10:41:41</time>
      </trkpt>
      <trkpt lat="41.25256" lon="1.08027">
        <ele>831</ele>
        <time>2020-08-22 10:41:43</time>
      </trkpt>
      <trkpt lat="41.25258" lon="1.08039">
        <ele>831</ele>
        <time>2020-08-22 10:41:44</time>
      </trkpt>
      <trkpt lat="41.25262" lon="1.08051">
        <ele>830.4</ele>
        <time>2020-08-22 10:41:45</time>
      </trkpt>
      <trkpt lat="41.25265" lon="1.08062">
        <ele>830.2</ele>
        <time>2020-08-22 10:41:46</time>
      </trkpt>
      <trkpt lat="41.25268" lon="1.08075">
        <ele>829.6</ele>
        <time>2020-08-22 10:41:47</time>
      </trkpt>
      <trkpt lat="41.25269" lon="1.08088">
        <ele>829.4</ele>
        <time>2020-08-22 10:41:48</time>
      </trkpt>
      <trkpt lat="41.25271" lon="1.08103">
        <ele>829</ele>
        <time>2020-08-22 10:41:49</time>
      </trkpt>
      <trkpt lat="41.25274" lon="1.08117">
        <ele>828.2</ele>
        <time>2020-08-22 10:41:50</time>
      </trkpt>
      <trkpt lat="41.25282" lon="1.08147">
        <ele>826.8</ele>
        <time>2020-08-22 10:41:52</time>
      </trkpt>
      <trkpt lat="41.25291" lon="1.08192">
        <ele>825.6</ele>
        <time>2020-08-22 10:41:55</time>
      </trkpt>
      <trkpt lat="41.25292" lon="1.08207">
        <ele>824.4</ele>
        <time>2020-08-22 10:41:56</time>
      </trkpt>
      <trkpt lat="41.25292" lon="1.08224">
        <ele>824</ele>
        <time>2020-08-22 10:41:57</time>
      </trkpt>
      <trkpt lat="41.25291" lon="1.08235">
        <ele>823</ele>
        <time>2020-08-22 10:41:58</time>
      </trkpt>
      <trkpt lat="41.2529" lon="1.08252">
        <ele>822.4</ele>
        <time>2020-08-22 10:41:59</time>
      </trkpt>
      <trkpt lat="41.2529" lon="1.08262">
        <ele>822.2</ele>
        <time>2020-08-22 10:42:00</time>
      </trkpt>
      <trkpt lat="41.2529" lon="1.08275">
        <ele>821.8</ele>
        <time>2020-08-22 10:42:01</time>
      </trkpt>
      <trkpt lat="41.2529" lon="1.0829">
        <ele>821.6</ele>
        <time>2020-08-22 10:42:02</time>
      </trkpt>
      <trkpt lat="41.2529" lon="1.083">
        <ele>821.2</ele>
        <time>2020-08-22 10:42:03</time>
      </trkpt>
      <trkpt lat="41.2529" lon="1.08314">
        <ele>821</ele>
        <time>2020-08-22 10:42:04</time>
      </trkpt>
      <trkpt lat="41.2529" lon="1.08323">
        <ele>820.6</ele>
        <time>2020-08-22 10:42:05</time>
      </trkpt>
      <trkpt lat="41.25291" lon="1.08334">
        <ele>820.4</ele>
        <time>2020-08-22 10:42:06</time>
      </trkpt>
      <trkpt lat="41.25291" lon="1.08345">
        <ele>820</ele>
        <time>2020-08-22 10:42:07</time>
      </trkpt>
      <trkpt lat="41.25293" lon="1.08356">
        <ele>819.8</ele>
        <time>2020-08-22 10:42:08</time>
      </trkpt>
      <trkpt lat="41.25295" lon="1.08378">
        <ele>819.4</ele>
        <time>2020-08-22 10:42:10</time>
      </trkpt>
      <trkpt lat="41.25295" lon="1.08389">
        <ele>819.2</ele>
        <time>2020-08-22 10:42:11</time>
      </trkpt>
      <trkpt lat="41.25294" lon="1.08403">
        <ele>819</ele>
        <time>2020-08-22 10:42:12</time>
      </trkpt>
      <trkpt lat="41.25292" lon="1.08415">
        <ele>819</ele>
        <time>2020-08-22 10:42:13</time>
      </trkpt>
      <trkpt lat="41.2529" lon="1.08426">
        <ele>818.6</ele>
        <time>2020-08-22 10:42:14</time>
      </trkpt>
      <trkpt lat="41.25289" lon="1.08435">
        <ele>818.6</ele>
        <time>2020-08-22 10:42:15</time>
      </trkpt>
      <trkpt lat="41.25289" lon="1.08446">
        <ele>818.4</ele>
        <time>2020-08-22 10:42:16</time>
      </trkpt>
      <trkpt lat="41.25289" lon="1.08457">
        <ele>818</ele>
        <time>2020-08-22 10:42:17</time>
      </trkpt>
      <trkpt lat="41.2529" lon="1.0847">
        <ele>817.4</ele>
        <time>2020-08-22 10:42:18</time>
      </trkpt>
      <trkpt lat="41.2529" lon="1.0848">
        <ele>817.2</ele>
        <time>2020-08-22 10:42:19</time>
      </trkpt>
      <trkpt lat="41.2529" lon="1.08488">
        <ele>817</ele>
        <time>2020-08-22 10:42:20</time>
      </trkpt>
      <trkpt lat="41.2529" lon="1.08498">
        <ele>816.8</ele>
        <time>2020-08-22 10:42:21</time>
      </trkpt>
      <trkpt lat="41.25289" lon="1.0851">
        <ele>816.8</ele>
        <time>2020-08-22 10:42:22</time>
      </trkpt>
      <trkpt lat="41.25288" lon="1.08518">
        <ele>817</ele>
        <time>2020-08-22 10:42:23</time>
      </trkpt>
      <trkpt lat="41.25288" lon="1.08526">
        <ele>817</ele>
        <time>2020-08-22 10:42:24</time>
      </trkpt>
      <trkpt lat="41.25288" lon="1.08534">
        <ele>817</ele>
        <time>2020-08-22 10:42:25</time>
      </trkpt>
      <trkpt lat="41.25288" lon="1.08541">
        <ele>817.2</ele>
        <time>2020-08-22 10:42:26</time>
      </trkpt>
      <trkpt lat="41.25288" lon="1.08549">
        <ele>817.2</ele>
        <time>2020-08-22 10:42:27</time>
      </trkpt>
      <trkpt lat="41.25289" lon="1.08556">
        <ele>817.6</ele>
        <time>2020-08-22 10:42:28</time>
      </trkpt>
      <trkpt lat="41.25291" lon="1.08562">
        <ele>817.8</ele>
        <time>2020-08-22 10:42:29</time>
      </trkpt>
      <trkpt lat="41.25292" lon="1.08568">
        <ele>818.4</ele>
        <time>2020-08-22 10:42:30</time>
      </trkpt>
      <trkpt lat="41.25293" lon="1.08575">
        <ele>818.6</ele>
        <time>2020-08-22 10:42:31</time>
      </trkpt>
      <trkpt lat="41.25294" lon="1.08581">
        <ele>819</ele>
        <time>2020-08-22 10:42:32</time>
      </trkpt>
      <trkpt lat="41.25295" lon="1.08586">
        <ele>819.6</ele>
        <time>2020-08-22 10:42:33</time>
      </trkpt>
      <trkpt lat="41.25294" lon="1.08592">
        <ele>819.6</ele>
        <time>2020-08-22 10:42:34</time>
      </trkpt>
      <trkpt lat="41.25294" lon="1.08598">
        <ele>820.6</ele>
        <time>2020-08-22 10:42:35</time>
      </trkpt>
      <trkpt lat="41.25292" lon="1.08605">
        <ele>821</ele>
        <time>2020-08-22 10:42:36</time>
      </trkpt>
      <trkpt lat="41.25291" lon="1.08611">
        <ele>821.6</ele>
        <time>2020-08-22 10:42:37</time>
      </trkpt>
      <trkpt lat="41.2529" lon="1.08618">
        <ele>822</ele>
        <time>2020-08-22 10:42:38</time>
      </trkpt>
      <trkpt lat="41.25288" lon="1.08625">
        <ele>822.4</ele>
        <time>2020-08-22 10:42:39</time>
      </trkpt>
      <trkpt lat="41.25287" lon="1.08633">
        <ele>822.6</ele>
        <time>2020-08-22 10:42:40</time>
      </trkpt>
      <trkpt lat="41.25288" lon="1.0864">
        <ele>822.6</ele>
        <time>2020-08-22 10:42:41</time>
      </trkpt>
      <trkpt lat="41.25289" lon="1.08647">
        <ele>822.8</ele>
        <time>2020-08-22 10:42:42</time>
      </trkpt>
      <trkpt lat="41.2529" lon="1.08654">
        <ele>822.8</ele>
        <time>2020-08-22 10:42:43</time>
      </trkpt>
      <trkpt lat="41.25292" lon="1.0866">
        <ele>822.8</ele>
        <time>2020-08-22 10:42:44</time>
      </trkpt>
      <trkpt lat="41.25294" lon="1.08664">
        <ele>822.8</ele>
        <time>2020-08-22 10:42:45</time>
      </trkpt>
      <trkpt lat="41.25296" lon="1.08671">
        <ele>822.8</ele>
        <time>2020-08-22 10:42:46</time>
      </trkpt>
      <trkpt lat="41.25298" lon="1.08676">
        <ele>822.6</ele>
        <time>2020-08-22 10:42:47</time>
      </trkpt>
      <trkpt lat="41.253" lon="1.08683">
        <ele>822.6</ele>
        <time>2020-08-22 10:42:48</time>
      </trkpt>
      <trkpt lat="41.25301" lon="1.0869">
        <ele>822.8</ele>
        <time>2020-08-22 10:42:49</time>
      </trkpt>
      <trkpt lat="41.25302" lon="1.08697">
        <ele>822.8</ele>
        <time>2020-08-22 10:42:50</time>
      </trkpt>
      <trkpt lat="41.25302" lon="1.08703">
        <ele>822.6</ele>
        <time>2020-08-22 10:42:51</time>
      </trkpt>
      <trkpt lat="41.25302" lon="1.08709">
        <ele>822.4</ele>
        <time>2020-08-22 10:42:52</time>
      </trkpt>
      <trkpt lat="41.25301" lon="1.08716">
        <ele>822</ele>
        <time>2020-08-22 10:42:53</time>
      </trkpt>
      <trkpt lat="41.253" lon="1.08722">
        <ele>822</ele>
        <time>2020-08-22 10:42:54</time>
      </trkpt>
      <trkpt lat="41.25298" lon="1.08729">
        <ele>821.8</ele>
        <time>2020-08-22 10:42:55</time>
      </trkpt>
      <trkpt lat="41.25297" lon="1.08735">
        <ele>821.6</ele>
        <time>2020-08-22 10:42:56</time>
      </trkpt>
      <trkpt lat="41.25295" lon="1.08741">
        <ele>821.4</ele>
        <time>2020-08-22 10:42:57</time>
      </trkpt>
      <trkpt lat="41.25293" lon="1.08747">
        <ele>821.4</ele>
        <time>2020-08-22 10:42:58</time>
      </trkpt>
      <trkpt lat="41.25291" lon="1.08754">
        <ele>821.4</ele>
        <time>2020-08-22 10:42:59</time>
      </trkpt>
      <trkpt lat="41.25289" lon="1.08759">
        <ele>821.2</ele>
        <time>2020-08-22 10:43:00</time>
      </trkpt>
      <trkpt lat="41.25285" lon="1.08766">
        <ele>821</ele>
        <time>2020-08-22 10:43:01</time>
      </trkpt>
      <trkpt lat="41.25282" lon="1.08772">
        <ele>820.8</ele>
        <time>2020-08-22 10:43:02</time>
      </trkpt>
      <trkpt lat="41.25275" lon="1.08784">
        <ele>820.6</ele>
        <time>2020-08-22 10:43:04</time>
      </trkpt>
      <trkpt lat="41.25265" lon="1.08795">
        <ele>820</ele>
        <time>2020-08-22 10:43:06</time>
      </trkpt>
      <trkpt lat="41.2526" lon="1.088">
        <ele>819.6</ele>
        <time>2020-08-22 10:43:07</time>
      </trkpt>
      <trkpt lat="41.2525" lon="1.08809">
        <ele>819.2</ele>
        <time>2020-08-22 10:43:09</time>
      </trkpt>
      <trkpt lat="41.25244" lon="1.08814">
        <ele>819.2</ele>
        <time>2020-08-22 10:43:10</time>
      </trkpt>
      <trkpt lat="41.25238" lon="1.08818">
        <ele>819</ele>
        <time>2020-08-22 10:43:11</time>
      </trkpt>
      <trkpt lat="41.25232" lon="1.08822">
        <ele>818.8</ele>
        <time>2020-08-22 10:43:12</time>
      </trkpt>
      <trkpt lat="41.25226" lon="1.08826">
        <ele>818.6</ele>
        <time>2020-08-22 10:43:13</time>
      </trkpt>
      <trkpt lat="41.2522" lon="1.08831">
        <ele>818.6</ele>
        <time>2020-08-22 10:43:14</time>
      </trkpt>
      <trkpt lat="41.25216" lon="1.08836">
        <ele>818.4</ele>
        <time>2020-08-22 10:43:15</time>
      </trkpt>
      <trkpt lat="41.25211" lon="1.08845">
        <ele>818.4</ele>
        <time>2020-08-22 10:43:16</time>
      </trkpt>
      <trkpt lat="41.2521" lon="1.08853">
        <ele>818.2</ele>
        <time>2020-08-22 10:43:17</time>
      </trkpt>
      <trkpt lat="41.25211" lon="1.08861">
        <ele>817.8</ele>
        <time>2020-08-22 10:43:18</time>
      </trkpt>
      <trkpt lat="41.25212" lon="1.08867">
        <ele>817.6</ele>
        <time>2020-08-22 10:43:19</time>
      </trkpt>
      <trkpt lat="41.25214" lon="1.08875">
        <ele>817.4</ele>
        <time>2020-08-22 10:43:20</time>
      </trkpt>
      <trkpt lat="41.25214" lon="1.0888">
        <ele>817.2</ele>
        <time>2020-08-22 10:43:21</time>
      </trkpt>
      <trkpt lat="41.25213" lon="1.08887">
        <ele>817</ele>
        <time>2020-08-22 10:43:22</time>
      </trkpt>
      <trkpt lat="41.25212" lon="1.08892">
        <ele>816.8</ele>
        <time>2020-08-22 10:43:23</time>
      </trkpt>
      <trkpt lat="41.25211" lon="1.08897">
        <ele>816.6</ele>
        <time>2020-08-22 10:43:24</time>
      </trkpt>
      <trkpt lat="41.25211" lon="1.08902">
        <ele>816.4</ele>
        <time>2020-08-22 10:43:25</time>
      </trkpt>
      <trkpt lat="41.25211" lon="1.08905">
        <ele>816.4</ele>
        <time>2020-08-22 10:43:26</time>
      </trkpt>
      <trkpt lat="41.25211" lon="1.08907">
        <ele>816.2</ele>
        <time>2020-08-22 10:43:27</time>
      </trkpt>
      <trkpt lat="41.25211" lon="1.08908">
        <ele>816.2</ele>
        <time>2020-08-22 10:43:28</time>
      </trkpt>
      <trkpt lat="41.25211" lon="1.08909">
        <ele>816.2</ele>
        <time>2020-08-22 10:43:29</time>
      </trkpt>
      <trkpt lat="41.25211" lon="1.08909">
        <ele>816</ele>
        <time>2020-08-22 10:43:31</time>
      </trkpt>
      <trkpt lat="41.25211" lon="1.08909">
        <ele>815.8</ele>
        <time>2020-08-22 10:43:32</time>
      </trkpt>
      <trkpt lat="41.25211" lon="1.08909">
        <ele>815.6</ele>
        <time>2020-08-22 10:43:35</time>
      </trkpt>
      <trkpt lat="41.25211" lon="1.08909">
        <ele>815.2</ele>
        <time>2020-08-22 10:43:41</time>
      </trkpt>
      <trkpt lat="41.25211" lon="1.08909">
        <ele>815.2</ele>
        <time>2020-08-22 10:43:49</time>
      </trkpt>
      <trkpt lat="41.25211" lon="1.08909">
        <ele>815.2</ele>
        <time>2020-08-22 10:44:03</time>
      </trkpt>
      <trkpt lat="41.25211" lon="1.08909">
        <ele>815</ele>
        <time>2020-08-22 10:44:05</time>
      </trkpt>
      <trkpt lat="41.25211" lon="1.08909">
        <ele>814.8</ele>
        <time>2020-08-22 10:44:07</time>
      </trkpt>
      <trkpt lat="41.25211" lon="1.08909">
        <ele>814.8</ele>
        <time>2020-08-22 10:44:15</time>
      </trkpt>
      <trkpt lat="41.25211" lon="1.08909">
        <ele>814.8</ele>
        <time>2020-08-22 10:44:22</time>
      </trkpt>
      <trkpt lat="41.25211" lon="1.08911">
        <ele>814.8</ele>
        <time>2020-08-22 10:44:24</time>
      </trkpt>
      <trkpt lat="41.2521" lon="1.08912">
        <ele>814.8</ele>
        <time>2020-08-22 10:44:25</time>
      </trkpt>
      <trkpt lat="41.25209" lon="1.08913">
        <ele>814.8</ele>
        <time>2020-08-22 10:44:26</time>
      </trkpt>
      <trkpt lat="41.25207" lon="1.08918">
        <ele>814.8</ele>
        <time>2020-08-22 10:44:28</time>
      </trkpt>
      <trkpt lat="41.25206" lon="1.08924">
        <ele>814.8</ele>
        <time>2020-08-22 10:44:30</time>
      </trkpt>
      <trkpt lat="41.25207" lon="1.08928">
        <ele>814.8</ele>
        <time>2020-08-22 10:44:31</time>
      </trkpt>
      <trkpt lat="41.25209" lon="1.08939">
        <ele>814.6</ele>
        <time>2020-08-22 10:44:34</time>
      </trkpt>
      <trkpt lat="41.25208" lon="1.08942">
        <ele>814.6</ele>
        <time>2020-08-22 10:44:35</time>
      </trkpt>
      <trkpt lat="41.25205" lon="1.08945">
        <ele>814.6</ele>
        <time>2020-08-22 10:44:36</time>
      </trkpt>
      <trkpt lat="41.25193" lon="1.08954">
        <ele>814.4</ele>
        <time>2020-08-22 10:44:38</time>
      </trkpt>
      <trkpt lat="41.25189" lon="1.08956">
        <ele>814.2</ele>
        <time>2020-08-22 10:44:39</time>
      </trkpt>
      <trkpt lat="41.25186" lon="1.08958">
        <ele>813.8</ele>
        <time>2020-08-22 10:44:40</time>
      </trkpt>
      <trkpt lat="41.25182" lon="1.08956">
        <ele>813.6</ele>
        <time>2020-08-22 10:44:41</time>
      </trkpt>
      <trkpt lat="41.25179" lon="1.08952">
        <ele>813</ele>
        <time>2020-08-22 10:44:42</time>
      </trkpt>
      <trkpt lat="41.25176" lon="1.08946">
        <ele>812.8</ele>
        <time>2020-08-22 10:44:43</time>
      </trkpt>
      <trkpt lat="41.25174" lon="1.0894">
        <ele>812.2</ele>
        <time>2020-08-22 10:44:44</time>
      </trkpt>
      <trkpt lat="41.25172" lon="1.08931">
        <ele>812.2</ele>
        <time>2020-08-22 10:44:45</time>
      </trkpt>
      <trkpt lat="41.25169" lon="1.08923">
        <ele>811.2</ele>
        <time>2020-08-22 10:44:46</time>
      </trkpt>
      <trkpt lat="41.25167" lon="1.08914">
        <ele>810.8</ele>
        <time>2020-08-22 10:44:47</time>
      </trkpt>
      <trkpt lat="41.25165" lon="1.08904">
        <ele>810.4</ele>
        <time>2020-08-22 10:44:48</time>
      </trkpt>
      <trkpt lat="41.25164" lon="1.08894">
        <ele>810</ele>
        <time>2020-08-22 10:44:49</time>
      </trkpt>
      <trkpt lat="41.25165" lon="1.08874">
        <ele>809.4</ele>
        <time>2020-08-22 10:44:51</time>
      </trkpt>
      <trkpt lat="41.25167" lon="1.08863">
        <ele>809.2</ele>
        <time>2020-08-22 10:44:52</time>
      </trkpt>
      <trkpt lat="41.25169" lon="1.08855">
        <ele>808.8</ele>
        <time>2020-08-22 10:44:53</time>
      </trkpt>
      <trkpt lat="41.25175" lon="1.0882">
        <ele>807.6</ele>
        <time>2020-08-22 10:44:56</time>
      </trkpt>
      <trkpt lat="41.25176" lon="1.08807">
        <ele>807.4</ele>
        <time>2020-08-22 10:44:57</time>
      </trkpt>
      <trkpt lat="41.25179" lon="1.08784">
        <ele>806.6</ele>
        <time>2020-08-22 10:44:59</time>
      </trkpt>
      <trkpt lat="41.25181" lon="1.08758">
        <ele>805.4</ele>
        <time>2020-08-22 10:45:01</time>
      </trkpt>
      <trkpt lat="41.25181" lon="1.08744">
        <ele>804.8</ele>
        <time>2020-08-22 10:45:02</time>
      </trkpt>
      <trkpt lat="41.25178" lon="1.08727">
        <ele>804.2</ele>
        <time>2020-08-22 10:45:03</time>
      </trkpt>
      <trkpt lat="41.25174" lon="1.08714">
        <ele>803.4</ele>
        <time>2020-08-22 10:45:04</time>
      </trkpt>
      <trkpt lat="41.25167" lon="1.08704">
        <ele>803</ele>
        <time>2020-08-22 10:45:05</time>
      </trkpt>
      <trkpt lat="41.25158" lon="1.08699">
        <ele>802.4</ele>
        <time>2020-08-22 10:45:06</time>
      </trkpt>
      <trkpt lat="41.2515" lon="1.087">
        <ele>801.6</ele>
        <time>2020-08-22 10:45:07</time>
      </trkpt>
      <trkpt lat="41.25144" lon="1.08706">
        <ele>801</ele>
        <time>2020-08-22 10:45:08</time>
      </trkpt>
      <trkpt lat="41.25138" lon="1.08717">
        <ele>800.2</ele>
        <time>2020-08-22 10:45:09</time>
      </trkpt>
      <trkpt lat="41.25134" lon="1.08729">
        <ele>799.8</ele>
        <time>2020-08-22 10:45:10</time>
      </trkpt>
      <trkpt lat="41.25131" lon="1.0874">
        <ele>799.2</ele>
        <time>2020-08-22 10:45:11</time>
      </trkpt>
      <trkpt lat="41.25126" lon="1.08751">
        <ele>798.8</ele>
        <time>2020-08-22 10:45:12</time>
      </trkpt>
      <trkpt lat="41.25121" lon="1.0876">
        <ele>798.6</ele>
        <time>2020-08-22 10:45:13</time>
      </trkpt>
      <trkpt lat="41.25113" lon="1.08771">
        <ele>798</ele>
        <time>2020-08-22 10:45:14</time>
      </trkpt>
      <trkpt lat="41.25104" lon="1.08778">
        <ele>797.8</ele>
        <time>2020-08-22 10:45:15</time>
      </trkpt>
      <trkpt lat="41.25095" lon="1.08784">
        <ele>797</ele>
        <time>2020-08-22 10:45:16</time>
      </trkpt>
      <trkpt lat="41.25085" lon="1.08788">
        <ele>796.6</ele>
        <time>2020-08-22 10:45:17</time>
      </trkpt>
      <trkpt lat="41.25076" lon="1.08793">
        <ele>796</ele>
        <time>2020-08-22 10:45:18</time>
      </trkpt>
      <trkpt lat="41.25057" lon="1.08804">
        <ele>794.8</ele>
        <time>2020-08-22 10:45:20</time>
      </trkpt>
      <trkpt lat="41.25049" lon="1.08813">
        <ele>794.2</ele>
        <time>2020-08-22 10:45:21</time>
      </trkpt>
      <trkpt lat="41.25043" lon="1.08824">
        <ele>793.4</ele>
        <time>2020-08-22 10:45:22</time>
      </trkpt>
      <trkpt lat="41.25039" lon="1.08836">
        <ele>792.6</ele>
        <time>2020-08-22 10:45:23</time>
      </trkpt>
      <trkpt lat="41.25039" lon="1.0885">
        <ele>792.4</ele>
        <time>2020-08-22 10:45:24</time>
      </trkpt>
      <trkpt lat="41.25043" lon="1.08878">
        <ele>791.4</ele>
        <time>2020-08-22 10:45:26</time>
      </trkpt>
      <trkpt lat="41.25044" lon="1.08892">
        <ele>790.6</ele>
        <time>2020-08-22 10:45:27</time>
      </trkpt>
      <trkpt lat="41.25046" lon="1.08921">
        <ele>789.6</ele>
        <time>2020-08-22 10:45:29</time>
      </trkpt>
      <trkpt lat="41.25047" lon="1.08936">
        <ele>789.4</ele>
        <time>2020-08-22 10:45:30</time>
      </trkpt>
      <trkpt lat="41.25047" lon="1.08951">
        <ele>788.6</ele>
        <time>2020-08-22 10:45:31</time>
      </trkpt>
      <trkpt lat="41.25047" lon="1.08966">
        <ele>787.6</ele>
        <time>2020-08-22 10:45:32</time>
      </trkpt>
      <trkpt lat="41.25047" lon="1.08997">
        <ele>786.2</ele>
        <time>2020-08-22 10:45:34</time>
      </trkpt>
      <trkpt lat="41.25047" lon="1.09028">
        <ele>784.8</ele>
        <time>2020-08-22 10:45:36</time>
      </trkpt>
      <trkpt lat="41.25048" lon="1.09059">
        <ele>783.2</ele>
        <time>2020-08-22 10:45:38</time>
      </trkpt>
      <trkpt lat="41.25049" lon="1.09089">
        <ele>781.8</ele>
        <time>2020-08-22 10:45:40</time>
      </trkpt>
      <trkpt lat="41.2505" lon="1.09105">
        <ele>781</ele>
        <time>2020-08-22 10:45:41</time>
      </trkpt>
      <trkpt lat="41.25053" lon="1.0912">
        <ele>780.4</ele>
        <time>2020-08-22 10:45:42</time>
      </trkpt>
      <trkpt lat="41.25057" lon="1.09134">
        <ele>779.6</ele>
        <time>2020-08-22 10:45:43</time>
      </trkpt>
      <trkpt lat="41.25062" lon="1.09147">
        <ele>779</ele>
        <time>2020-08-22 10:45:44</time>
      </trkpt>
      <trkpt lat="41.25074" lon="1.09173">
        <ele>777.8</ele>
        <time>2020-08-22 10:45:46</time>
      </trkpt>
      <trkpt lat="41.25086" lon="1.092">
        <ele>775.8</ele>
        <time>2020-08-22 10:45:48</time>
      </trkpt>
      <trkpt lat="41.25099" lon="1.09228">
        <ele>774.4</ele>
        <time>2020-08-22 10:45:50</time>
      </trkpt>
      <trkpt lat="41.25107" lon="1.09241">
        <ele>773.6</ele>
        <time>2020-08-22 10:45:51</time>
      </trkpt>
      <trkpt lat="41.25116" lon="1.09251">
        <ele>772.2</ele>
        <time>2020-08-22 10:45:52</time>
      </trkpt>
      <trkpt lat="41.25138" lon="1.09269">
        <ele>770.6</ele>
        <time>2020-08-22 10:45:54</time>
      </trkpt>
      <trkpt lat="41.25162" lon="1.09284">
        <ele>768.6</ele>
        <time>2020-08-22 10:45:56</time>
      </trkpt>
      <trkpt lat="41.25173" lon="1.09291">
        <ele>767.6</ele>
        <time>2020-08-22 10:45:57</time>
      </trkpt>
      <trkpt lat="41.25186" lon="1.09294">
        <ele>767.2</ele>
        <time>2020-08-22 10:45:58</time>
      </trkpt>
      <trkpt lat="41.25199" lon="1.09294">
        <ele>766.4</ele>
        <time>2020-08-22 10:45:59</time>
      </trkpt>
      <trkpt lat="41.25211" lon="1.09293">
        <ele>766</ele>
        <time>2020-08-22 10:46:00</time>
      </trkpt>
      <trkpt lat="41.25224" lon="1.0929">
        <ele>765.2</ele>
        <time>2020-08-22 10:46:01</time>
      </trkpt>
      <trkpt lat="41.25236" lon="1.09287">
        <ele>764.8</ele>
        <time>2020-08-22 10:46:02</time>
      </trkpt>
      <trkpt lat="41.25248" lon="1.09285">
        <ele>764</ele>
        <time>2020-08-22 10:46:03</time>
      </trkpt>
      <trkpt lat="41.2526" lon="1.09284">
        <ele>763.6</ele>
        <time>2020-08-22 10:46:04</time>
      </trkpt>
      <trkpt lat="41.25271" lon="1.09284">
        <ele>763</ele>
        <time>2020-08-22 10:46:05</time>
      </trkpt>
      <trkpt lat="41.25281" lon="1.09286">
        <ele>762.2</ele>
        <time>2020-08-22 10:46:06</time>
      </trkpt>
      <trkpt lat="41.25294" lon="1.0929">
        <ele>761.8</ele>
        <time>2020-08-22 10:46:07</time>
      </trkpt>
      <trkpt lat="41.25305" lon="1.09296">
        <ele>761</ele>
        <time>2020-08-22 10:46:08</time>
      </trkpt>
      <trkpt lat="41.25313" lon="1.09304">
        <ele>760.8</ele>
        <time>2020-08-22 10:46:09</time>
      </trkpt>
      <trkpt lat="41.25317" lon="1.09314">
        <ele>760.4</ele>
        <time>2020-08-22 10:46:10</time>
      </trkpt>
      <trkpt lat="41.25316" lon="1.09324">
        <ele>760</ele>
        <time>2020-08-22 10:46:11</time>
      </trkpt>
      <trkpt lat="41.25313" lon="1.09333">
        <ele>759.6</ele>
        <time>2020-08-22 10:46:12</time>
      </trkpt>
      <trkpt lat="41.25306" lon="1.09337">
        <ele>758.8</ele>
        <time>2020-08-22 10:46:13</time>
      </trkpt>
      <trkpt lat="41.25297" lon="1.09336">
        <ele>758.2</ele>
        <time>2020-08-22 10:46:14</time>
      </trkpt>
      <trkpt lat="41.25289" lon="1.09333">
        <ele>756.8</ele>
        <time>2020-08-22 10:46:15</time>
      </trkpt>
      <trkpt lat="41.2527" lon="1.0933">
        <ele>754.8</ele>
        <time>2020-08-22 10:46:17</time>
      </trkpt>
      <trkpt lat="41.25261" lon="1.09331">
        <ele>754.4</ele>
        <time>2020-08-22 10:46:18</time>
      </trkpt>
      <trkpt lat="41.25251" lon="1.09335">
        <ele>753.6</ele>
        <time>2020-08-22 10:46:19</time>
      </trkpt>
      <trkpt lat="41.25241" lon="1.0934">
        <ele>753.2</ele>
        <time>2020-08-22 10:46:20</time>
      </trkpt>
      <trkpt lat="41.25231" lon="1.09346">
        <ele>752.2</ele>
        <time>2020-08-22 10:46:21</time>
      </trkpt>
      <trkpt lat="41.25222" lon="1.09353">
        <ele>751.2</ele>
        <time>2020-08-22 10:46:22</time>
      </trkpt>
      <trkpt lat="41.25203" lon="1.09367">
        <ele>750</ele>
        <time>2020-08-22 10:46:24</time>
      </trkpt>
      <trkpt lat="41.25193" lon="1.09373">
        <ele>749.8</ele>
        <time>2020-08-22 10:46:25</time>
      </trkpt>
      <trkpt lat="41.25182" lon="1.09377">
        <ele>748.8</ele>
        <time>2020-08-22 10:46:26</time>
      </trkpt>
      <trkpt lat="41.25171" lon="1.0938">
        <ele>748.6</ele>
        <time>2020-08-22 10:46:27</time>
      </trkpt>
      <trkpt lat="41.2516" lon="1.09381">
        <ele>747.8</ele>
        <time>2020-08-22 10:46:28</time>
      </trkpt>
      <trkpt lat="41.25149" lon="1.09381">
        <ele>747.2</ele>
        <time>2020-08-22 10:46:29</time>
      </trkpt>
      <trkpt lat="41.25137" lon="1.0938">
        <ele>745.8</ele>
        <time>2020-08-22 10:46:30</time>
      </trkpt>
      <trkpt lat="41.25126" lon="1.09379">
        <ele>744.8</ele>
        <time>2020-08-22 10:46:31</time>
      </trkpt>
      <trkpt lat="41.25104" lon="1.09377">
        <ele>743.2</ele>
        <time>2020-08-22 10:46:33</time>
      </trkpt>
      <trkpt lat="41.25093" lon="1.09378">
        <ele>742.8</ele>
        <time>2020-08-22 10:46:34</time>
      </trkpt>
      <trkpt lat="41.25083" lon="1.09383">
        <ele>741.8</ele>
        <time>2020-08-22 10:46:35</time>
      </trkpt>
      <trkpt lat="41.25073" lon="1.09391">
        <ele>741.4</ele>
        <time>2020-08-22 10:46:36</time>
      </trkpt>
      <trkpt lat="41.25065" lon="1.09401">
        <ele>740.6</ele>
        <time>2020-08-22 10:46:37</time>
      </trkpt>
      <trkpt lat="41.25059" lon="1.09415">
        <ele>740</ele>
        <time>2020-08-22 10:46:38</time>
      </trkpt>
      <trkpt lat="41.25055" lon="1.0943">
        <ele>739.2</ele>
        <time>2020-08-22 10:46:39</time>
      </trkpt>
      <trkpt lat="41.25052" lon="1.09445">
        <ele>738</ele>
        <time>2020-08-22 10:46:40</time>
      </trkpt>
      <trkpt lat="41.25052" lon="1.0946">
        <ele>737.4</ele>
        <time>2020-08-22 10:46:41</time>
      </trkpt>
      <trkpt lat="41.25054" lon="1.09475">
        <ele>735.8</ele>
        <time>2020-08-22 10:46:42</time>
      </trkpt>
      <trkpt lat="41.25057" lon="1.09486">
        <ele>735.4</ele>
        <time>2020-08-22 10:46:43</time>
      </trkpt>
      <trkpt lat="41.25063" lon="1.09504">
        <ele>734.8</ele>
        <time>2020-08-22 10:46:44</time>
      </trkpt>
      <trkpt lat="41.25068" lon="1.09517">
        <ele>734.4</ele>
        <time>2020-08-22 10:46:45</time>
      </trkpt>
      <trkpt lat="41.25072" lon="1.09531">
        <ele>733.8</ele>
        <time>2020-08-22 10:46:46</time>
      </trkpt>
      <trkpt lat="41.25077" lon="1.09545">
        <ele>733.2</ele>
        <time>2020-08-22 10:46:47</time>
      </trkpt>
      <trkpt lat="41.25087" lon="1.09572">
        <ele>732.6</ele>
        <time>2020-08-22 10:46:49</time>
      </trkpt>
      <trkpt lat="41.25091" lon="1.09585">
        <ele>732.4</ele>
        <time>2020-08-22 10:46:50</time>
      </trkpt>
      <trkpt lat="41.25096" lon="1.09598">
        <ele>732</ele>
        <time>2020-08-22 10:46:51</time>
      </trkpt>
      <trkpt lat="41.25101" lon="1.09612">
        <ele>731.4</ele>
        <time>2020-08-22 10:46:52</time>
      </trkpt>
      <trkpt lat="41.25106" lon="1.09625">
        <ele>730.8</ele>
        <time>2020-08-22 10:46:53</time>
      </trkpt>
      <trkpt lat="41.25111" lon="1.09638">
        <ele>730.6</ele>
        <time>2020-08-22 10:46:54</time>
      </trkpt>
      <trkpt lat="41.25115" lon="1.09651">
        <ele>730.6</ele>
        <time>2020-08-22 10:46:55</time>
      </trkpt>
      <trkpt lat="41.2512" lon="1.09664">
        <ele>730</ele>
        <time>2020-08-22 10:46:56</time>
      </trkpt>
      <trkpt lat="41.25124" lon="1.09676">
        <ele>729.8</ele>
        <time>2020-08-22 10:46:57</time>
      </trkpt>
      <trkpt lat="41.25129" lon="1.09688">
        <ele>729.4</ele>
        <time>2020-08-22 10:46:58</time>
      </trkpt>
      <trkpt lat="41.25133" lon="1.09701">
        <ele>729.4</ele>
        <time>2020-08-22 10:46:59</time>
      </trkpt>
      <trkpt lat="41.25137" lon="1.09713">
        <ele>729</ele>
        <time>2020-08-22 10:47:00</time>
      </trkpt>
      <trkpt lat="41.2514" lon="1.09723">
        <ele>728.6</ele>
        <time>2020-08-22 10:47:01</time>
      </trkpt>
      <trkpt lat="41.25144" lon="1.09737">
        <ele>728.2</ele>
        <time>2020-08-22 10:47:02</time>
      </trkpt>
      <trkpt lat="41.25146" lon="1.0975">
        <ele>728</ele>
        <time>2020-08-22 10:47:03</time>
      </trkpt>
      <trkpt lat="41.25146" lon="1.0976">
        <ele>727.6</ele>
        <time>2020-08-22 10:47:04</time>
      </trkpt>
      <trkpt lat="41.25146" lon="1.09775">
        <ele>727.2</ele>
        <time>2020-08-22 10:47:05</time>
      </trkpt>
      <trkpt lat="41.25146" lon="1.09788">
        <ele>727</ele>
        <time>2020-08-22 10:47:06</time>
      </trkpt>
      <trkpt lat="41.25146" lon="1.09798">
        <ele>726.4</ele>
        <time>2020-08-22 10:47:07</time>
      </trkpt>
      <trkpt lat="41.25146" lon="1.09814">
        <ele>726.2</ele>
        <time>2020-08-22 10:47:08</time>
      </trkpt>
      <trkpt lat="41.25146" lon="1.09827">
        <ele>725.8</ele>
        <time>2020-08-22 10:47:09</time>
      </trkpt>
      <trkpt lat="41.25146" lon="1.0984">
        <ele>725.4</ele>
        <time>2020-08-22 10:47:10</time>
      </trkpt>
      <trkpt lat="41.25147" lon="1.09853">
        <ele>724.8</ele>
        <time>2020-08-22 10:47:11</time>
      </trkpt>
      <trkpt lat="41.25149" lon="1.09867">
        <ele>724.6</ele>
        <time>2020-08-22 10:47:12</time>
      </trkpt>
      <trkpt lat="41.25157" lon="1.09907">
        <ele>723.4</ele>
        <time>2020-08-22 10:47:15</time>
      </trkpt>
      <trkpt lat="41.2516" lon="1.09919">
        <ele>723</ele>
        <time>2020-08-22 10:47:16</time>
      </trkpt>
      <trkpt lat="41.25163" lon="1.09931">
        <ele>722.6</ele>
        <time>2020-08-22 10:47:17</time>
      </trkpt>
      <trkpt lat="41.25165" lon="1.09943">
        <ele>722.2</ele>
        <time>2020-08-22 10:47:18</time>
      </trkpt>
      <trkpt lat="41.25167" lon="1.09954">
        <ele>722</ele>
        <time>2020-08-22 10:47:19</time>
      </trkpt>
      <trkpt lat="41.25169" lon="1.09966">
        <ele>722</ele>
        <time>2020-08-22 10:47:20</time>
      </trkpt>
      <trkpt lat="41.2517" lon="1.09974">
        <ele>722</ele>
        <time>2020-08-22 10:47:21</time>
      </trkpt>
      <trkpt lat="41.25171" lon="1.09987">
        <ele>722</ele>
        <time>2020-08-22 10:47:22</time>
      </trkpt>
      <trkpt lat="41.25172" lon="1.09998">
        <ele>721.8</ele>
        <time>2020-08-22 10:47:23</time>
      </trkpt>
      <trkpt lat="41.25173" lon="1.10008">
        <ele>722</ele>
        <time>2020-08-22 10:47:24</time>
      </trkpt>
      <trkpt lat="41.25174" lon="1.10018">
        <ele>722.4</ele>
        <time>2020-08-22 10:47:25</time>
      </trkpt>
      <trkpt lat="41.25175" lon="1.10026">
        <ele>722.4</ele>
        <time>2020-08-22 10:47:26</time>
      </trkpt>
      <trkpt lat="41.25176" lon="1.10038">
        <ele>722.4</ele>
        <time>2020-08-22 10:47:27</time>
      </trkpt>
      <trkpt lat="41.25176" lon="1.10048">
        <ele>722.4</ele>
        <time>2020-08-22 10:47:28</time>
      </trkpt>
      <trkpt lat="41.25176" lon="1.10058">
        <ele>722.4</ele>
        <time>2020-08-22 10:47:29</time>
      </trkpt>
      <trkpt lat="41.25175" lon="1.10068">
        <ele>722.4</ele>
        <time>2020-08-22 10:47:30</time>
      </trkpt>
      <trkpt lat="41.25174" lon="1.10078">
        <ele>722.6</ele>
        <time>2020-08-22 10:47:31</time>
      </trkpt>
      <trkpt lat="41.25172" lon="1.10087">
        <ele>722.6</ele>
        <time>2020-08-22 10:47:32</time>
      </trkpt>
      <trkpt lat="41.25171" lon="1.10097">
        <ele>722.6</ele>
        <time>2020-08-22 10:47:33</time>
      </trkpt>
      <trkpt lat="41.25169" lon="1.10107">
        <ele>722.4</ele>
        <time>2020-08-22 10:47:34</time>
      </trkpt>
      <trkpt lat="41.25167" lon="1.10117">
        <ele>722.4</ele>
        <time>2020-08-22 10:47:35</time>
      </trkpt>
      <trkpt lat="41.25163" lon="1.10137">
        <ele>722.2</ele>
        <time>2020-08-22 10:47:37</time>
      </trkpt>
      <trkpt lat="41.2516" lon="1.10146">
        <ele>722</ele>
        <time>2020-08-22 10:47:38</time>
      </trkpt>
      <trkpt lat="41.25153" lon="1.10162">
        <ele>722</ele>
        <time>2020-08-22 10:47:40</time>
      </trkpt>
      <trkpt lat="41.25147" lon="1.10174">
        <ele>721.8</ele>
        <time>2020-08-22 10:47:41</time>
      </trkpt>
      <trkpt lat="41.25142" lon="1.10184">
        <ele>721.8</ele>
        <time>2020-08-22 10:47:42</time>
      </trkpt>
      <trkpt lat="41.25119" lon="1.10227">
        <ele>720.8</ele>
        <time>2020-08-22 10:47:46</time>
      </trkpt>
      <trkpt lat="41.25113" lon="1.10238">
        <ele>720.4</ele>
        <time>2020-08-22 10:47:47</time>
      </trkpt>
      <trkpt lat="41.25107" lon="1.1025">
        <ele>719.4</ele>
        <time>2020-08-22 10:47:48</time>
      </trkpt>
      <trkpt lat="41.25096" lon="1.10272">
        <ele>717.6</ele>
        <time>2020-08-22 10:47:50</time>
      </trkpt>
      <trkpt lat="41.2509" lon="1.10284">
        <ele>717</ele>
        <time>2020-08-22 10:47:51</time>
      </trkpt>
      <trkpt lat="41.25084" lon="1.10295">
        <ele>716</ele>
        <time>2020-08-22 10:47:52</time>
      </trkpt>
      <trkpt lat="41.25078" lon="1.10306">
        <ele>715.4</ele>
        <time>2020-08-22 10:47:53</time>
      </trkpt>
      <trkpt lat="41.25073" lon="1.10315">
        <ele>714.6</ele>
        <time>2020-08-22 10:47:54</time>
      </trkpt>
      <trkpt lat="41.25061" lon="1.10341">
        <ele>713.4</ele>
        <time>2020-08-22 10:47:56</time>
      </trkpt>
      <trkpt lat="41.2505" lon="1.10367">
        <ele>712.2</ele>
        <time>2020-08-22 10:47:58</time>
      </trkpt>
      <trkpt lat="41.25045" lon="1.1038">
        <ele>711.2</ele>
        <time>2020-08-22 10:47:59</time>
      </trkpt>
      <trkpt lat="41.25043" lon="1.10395">
        <ele>710.8</ele>
        <time>2020-08-22 10:48:00</time>
      </trkpt>
      <trkpt lat="41.25043" lon="1.1041">
        <ele>710</ele>
        <time>2020-08-22 10:48:01</time>
      </trkpt>
      <trkpt lat="41.25045" lon="1.10425">
        <ele>709.6</ele>
        <time>2020-08-22 10:48:02</time>
      </trkpt>
      <trkpt lat="41.25049" lon="1.10437">
        <ele>709</ele>
        <time>2020-08-22 10:48:03</time>
      </trkpt>
      <trkpt lat="41.25053" lon="1.10451">
        <ele>707.4</ele>
        <time>2020-08-22 10:48:04</time>
      </trkpt>
      <trkpt lat="41.2506" lon="1.10467">
        <ele>707</ele>
        <time>2020-08-22 10:48:05</time>
      </trkpt>
      <trkpt lat="41.25066" lon="1.1048">
        <ele>705.8</ele>
        <time>2020-08-22 10:48:06</time>
      </trkpt>
      <trkpt lat="41.2508" lon="1.10506">
        <ele>704.4</ele>
        <time>2020-08-22 10:48:08</time>
      </trkpt>
      <trkpt lat="41.25102" lon="1.10546">
        <ele>703.2</ele>
        <time>2020-08-22 10:48:11</time>
      </trkpt>
      <trkpt lat="41.25108" lon="1.10556">
        <ele>702.4</ele>
        <time>2020-08-22 10:48:12</time>
      </trkpt>
      <trkpt lat="41.25116" lon="1.10569">
        <ele>701.4</ele>
        <time>2020-08-22 10:48:13</time>
      </trkpt>
      <trkpt lat="41.25133" lon="1.106">
        <ele>700.4</ele>
        <time>2020-08-22 10:48:15</time>
      </trkpt>
      <trkpt lat="41.25139" lon="1.10615">
        <ele>699.8</ele>
        <time>2020-08-22 10:48:16</time>
      </trkpt>
      <trkpt lat="41.25145" lon="1.1063">
        <ele>698.6</ele>
        <time>2020-08-22 10:48:17</time>
      </trkpt>
      <trkpt lat="41.25152" lon="1.10664">
        <ele>697.2</ele>
        <time>2020-08-22 10:48:19</time>
      </trkpt>
      <trkpt lat="41.25154" lon="1.10681">
        <ele>696.8</ele>
        <time>2020-08-22 10:48:20</time>
      </trkpt>
      <trkpt lat="41.25156" lon="1.10698">
        <ele>695.6</ele>
        <time>2020-08-22 10:48:21</time>
      </trkpt>
      <trkpt lat="41.25157" lon="1.10715">
        <ele>694.2</ele>
        <time>2020-08-22 10:48:22</time>
      </trkpt>
      <trkpt lat="41.25161" lon="1.10745">
        <ele>692.6</ele>
        <time>2020-08-22 10:48:24</time>
      </trkpt>
      <trkpt lat="41.25161" lon="1.10764">
        <ele>692</ele>
        <time>2020-08-22 10:48:25</time>
      </trkpt>
      <trkpt lat="41.2516" lon="1.1078">
        <ele>691</ele>
        <time>2020-08-22 10:48:26</time>
      </trkpt>
      <trkpt lat="41.25156" lon="1.10796">
        <ele>690.6</ele>
        <time>2020-08-22 10:48:27</time>
      </trkpt>
      <trkpt lat="41.25151" lon="1.1081">
        <ele>689.8</ele>
        <time>2020-08-22 10:48:28</time>
      </trkpt>
      <trkpt lat="41.25146" lon="1.10825">
        <ele>689.2</ele>
        <time>2020-08-22 10:48:29</time>
      </trkpt>
      <trkpt lat="41.25141" lon="1.1084">
        <ele>688.6</ele>
        <time>2020-08-22 10:48:30</time>
      </trkpt>
      <trkpt lat="41.25138" lon="1.10856">
        <ele>687.8</ele>
        <time>2020-08-22 10:48:31</time>
      </trkpt>
      <trkpt lat="41.25136" lon="1.10873">
        <ele>687.6</ele>
        <time>2020-08-22 10:48:32</time>
      </trkpt>
      <trkpt lat="41.25134" lon="1.10889">
        <ele>686.2</ele>
        <time>2020-08-22 10:48:33</time>
      </trkpt>
      <trkpt lat="41.2513" lon="1.10905">
        <ele>685.6</ele>
        <time>2020-08-22 10:48:34</time>
      </trkpt>
      <trkpt lat="41.25126" lon="1.10921">
        <ele>683.8</ele>
        <time>2020-08-22 10:48:35</time>
      </trkpt>
      <trkpt lat="41.25115" lon="1.10948">
        <ele>682</ele>
        <time>2020-08-22 10:48:37</time>
      </trkpt>
      <trkpt lat="41.25108" lon="1.10967">
        <ele>681.6</ele>
        <time>2020-08-22 10:48:38</time>
      </trkpt>
      <trkpt lat="41.25103" lon="1.10983">
        <ele>680.2</ele>
        <time>2020-08-22 10:48:39</time>
      </trkpt>
      <trkpt lat="41.251" lon="1.11">
        <ele>679</ele>
        <time>2020-08-22 10:48:40</time>
      </trkpt>
      <trkpt lat="41.25099" lon="1.11014">
        <ele>678.4</ele>
        <time>2020-08-22 10:48:41</time>
      </trkpt>
      <trkpt lat="41.25099" lon="1.11035">
        <ele>677</ele>
        <time>2020-08-22 10:48:42</time>
      </trkpt>
      <trkpt lat="41.25103" lon="1.1107">
        <ele>675.2</ele>
        <time>2020-08-22 10:48:44</time>
      </trkpt>
      <trkpt lat="41.25107" lon="1.11101">
        <ele>673</ele>
        <time>2020-08-22 10:48:46</time>
      </trkpt>
      <trkpt lat="41.2511" lon="1.11119">
        <ele>671.8</ele>
        <time>2020-08-22 10:48:47</time>
      </trkpt>
      <trkpt lat="41.25114" lon="1.11155">
        <ele>669.4</ele>
        <time>2020-08-22 10:48:49</time>
      </trkpt>
      <trkpt lat="41.25119" lon="1.1119">
        <ele>667</ele>
        <time>2020-08-22 10:48:51</time>
      </trkpt>
      <trkpt lat="41.25122" lon="1.11226">
        <ele>665.2</ele>
        <time>2020-08-22 10:48:53</time>
      </trkpt>
      <trkpt lat="41.25123" lon="1.11248">
        <ele>665</ele>
        <time>2020-08-22 10:48:54</time>
      </trkpt>
      <trkpt lat="41.25123" lon="1.11266">
        <ele>663.8</ele>
        <time>2020-08-22 10:48:55</time>
      </trkpt>
      <trkpt lat="41.25123" lon="1.11284">
        <ele>662.2</ele>
        <time>2020-08-22 10:48:56</time>
      </trkpt>
      <trkpt lat="41.25122" lon="1.11301">
        <ele>661.4</ele>
        <time>2020-08-22 10:48:57</time>
      </trkpt>
      <trkpt lat="41.25121" lon="1.11318">
        <ele>660.2</ele>
        <time>2020-08-22 10:48:58</time>
      </trkpt>
      <trkpt lat="41.2512" lon="1.11335">
        <ele>659.6</ele>
        <time>2020-08-22 10:48:59</time>
      </trkpt>
      <trkpt lat="41.25119" lon="1.11351">
        <ele>658.2</ele>
        <time>2020-08-22 10:49:00</time>
      </trkpt>
      <trkpt lat="41.25119" lon="1.11368">
        <ele>657.4</ele>
        <time>2020-08-22 10:49:01</time>
      </trkpt>
      <trkpt lat="41.2512" lon="1.11384">
        <ele>656.2</ele>
        <time>2020-08-22 10:49:02</time>
      </trkpt>
      <trkpt lat="41.25122" lon="1.114">
        <ele>655.4</ele>
        <time>2020-08-22 10:49:03</time>
      </trkpt>
      <trkpt lat="41.25124" lon="1.11415">
        <ele>654.2</ele>
        <time>2020-08-22 10:49:04</time>
      </trkpt>
      <trkpt lat="41.25126" lon="1.11429">
        <ele>653</ele>
        <time>2020-08-22 10:49:05</time>
      </trkpt>
      <trkpt lat="41.25126" lon="1.11442">
        <ele>652.6</ele>
        <time>2020-08-22 10:49:06</time>
      </trkpt>
      <trkpt lat="41.25121" lon="1.11452">
        <ele>651.8</ele>
        <time>2020-08-22 10:49:07</time>
      </trkpt>
      <trkpt lat="41.25114" lon="1.11458">
        <ele>651.2</ele>
        <time>2020-08-22 10:49:08</time>
      </trkpt>
      <trkpt lat="41.25108" lon="1.1146">
        <ele>650.4</ele>
        <time>2020-08-22 10:49:09</time>
      </trkpt>
      <trkpt lat="41.25101" lon="1.11457">
        <ele>650</ele>
        <time>2020-08-22 10:49:10</time>
      </trkpt>
      <trkpt lat="41.25096" lon="1.1145">
        <ele>649.6</ele>
        <time>2020-08-22 10:49:11</time>
      </trkpt>
      <trkpt lat="41.25093" lon="1.11439">
        <ele>649.4</ele>
        <time>2020-08-22 10:49:12</time>
      </trkpt>
      <trkpt lat="41.25095" lon="1.11428">
        <ele>648.6</ele>
        <time>2020-08-22 10:49:13</time>
      </trkpt>
      <trkpt lat="41.251" lon="1.11408">
        <ele>647.4</ele>
        <time>2020-08-22 10:49:15</time>
      </trkpt>
      <trkpt lat="41.25103" lon="1.11395">
        <ele>646.8</ele>
        <time>2020-08-22 10:49:16</time>
      </trkpt>
      <trkpt lat="41.25104" lon="1.11383">
        <ele>646.6</ele>
        <time>2020-08-22 10:49:17</time>
      </trkpt>
      <trkpt lat="41.25103" lon="1.11371">
        <ele>646.2</ele>
        <time>2020-08-22 10:49:18</time>
      </trkpt>
      <trkpt lat="41.25101" lon="1.11347">
        <ele>645.6</ele>
        <time>2020-08-22 10:49:20</time>
      </trkpt>
      <trkpt lat="41.25099" lon="1.11334">
        <ele>645.2</ele>
        <time>2020-08-22 10:49:21</time>
      </trkpt>
      <trkpt lat="41.25087" lon="1.11281">
        <ele>644.4</ele>
        <time>2020-08-22 10:49:25</time>
      </trkpt>
      <trkpt lat="41.25083" lon="1.11267">
        <ele>644.2</ele>
        <time>2020-08-22 10:49:26</time>
      </trkpt>
      <trkpt lat="41.25075" lon="1.1124">
        <ele>643.2</ele>
        <time>2020-08-22 10:49:28</time>
      </trkpt>
      <trkpt lat="41.25066" lon="1.11211">
        <ele>641.4</ele>
        <time>2020-08-22 10:49:30</time>
      </trkpt>
      <trkpt lat="41.25058" lon="1.11181">
        <ele>639.8</ele>
        <time>2020-08-22 10:49:32</time>
      </trkpt>
      <trkpt lat="41.25053" lon="1.11166">
        <ele>639.2</ele>
        <time>2020-08-22 10:49:33</time>
      </trkpt>
      <trkpt lat="41.25049" lon="1.11151">
        <ele>638.2</ele>
        <time>2020-08-22 10:49:34</time>
      </trkpt>
      <trkpt lat="41.25041" lon="1.11122">
        <ele>636.8</ele>
        <time>2020-08-22 10:49:36</time>
      </trkpt>
      <trkpt lat="41.25034" lon="1.11091">
        <ele>635.2</ele>
        <time>2020-08-22 10:49:38</time>
      </trkpt>
      <trkpt lat="41.2503" lon="1.11074">
        <ele>634.2</ele>
        <time>2020-08-22 10:49:39</time>
      </trkpt>
      <trkpt lat="41.25028" lon="1.11059">
        <ele>633.8</ele>
        <time>2020-08-22 10:49:40</time>
      </trkpt>
      <trkpt lat="41.25024" lon="1.11042">
        <ele>633.2</ele>
        <time>2020-08-22 10:49:41</time>
      </trkpt>
      <trkpt lat="41.25015" lon="1.1101">
        <ele>631.8</ele>
        <time>2020-08-22 10:49:43</time>
      </trkpt>
      <trkpt lat="41.25012" lon="1.10994">
        <ele>631.2</ele>
        <time>2020-08-22 10:49:44</time>
      </trkpt>
      <trkpt lat="41.2501" lon="1.10977">
        <ele>630</ele>
        <time>2020-08-22 10:49:45</time>
      </trkpt>
      <trkpt lat="41.25009" lon="1.10943">
        <ele>628.8</ele>
        <time>2020-08-22 10:49:47</time>
      </trkpt>
      <trkpt lat="41.25011" lon="1.10927">
        <ele>627.4</ele>
        <time>2020-08-22 10:49:48</time>
      </trkpt>
      <trkpt lat="41.25014" lon="1.10895">
        <ele>625.4</ele>
        <time>2020-08-22 10:49:50</time>
      </trkpt>
      <trkpt lat="41.25014" lon="1.10879">
        <ele>624.8</ele>
        <time>2020-08-22 10:49:51</time>
      </trkpt>
      <trkpt lat="41.25012" lon="1.10863">
        <ele>623.6</ele>
        <time>2020-08-22 10:49:52</time>
      </trkpt>
      <trkpt lat="41.25009" lon="1.10847">
        <ele>623.2</ele>
        <time>2020-08-22 10:49:53</time>
      </trkpt>
      <trkpt lat="41.25006" lon="1.10832">
        <ele>622.4</ele>
        <time>2020-08-22 10:49:54</time>
      </trkpt>
      <trkpt lat="41.25" lon="1.10819">
        <ele>622.2</ele>
        <time>2020-08-22 10:49:55</time>
      </trkpt>
      <trkpt lat="41.24993" lon="1.10808">
        <ele>621.2</ele>
        <time>2020-08-22 10:49:56</time>
      </trkpt>
      <trkpt lat="41.24983" lon="1.10802">
        <ele>620.2</ele>
        <time>2020-08-22 10:49:57</time>
      </trkpt>
      <trkpt lat="41.24972" lon="1.10797">
        <ele>619.8</ele>
        <time>2020-08-22 10:49:58</time>
      </trkpt>
      <trkpt lat="41.24951" lon="1.1079">
        <ele>618.4</ele>
        <time>2020-08-22 10:50:00</time>
      </trkpt>
      <trkpt lat="41.24939" lon="1.10789">
        <ele>617.6</ele>
        <time>2020-08-22 10:50:01</time>
      </trkpt>
      <trkpt lat="41.24928" lon="1.10791">
        <ele>617.4</ele>
        <time>2020-08-22 10:50:02</time>
      </trkpt>
      <trkpt lat="41.2492" lon="1.10796">
        <ele>616.6</ele>
        <time>2020-08-22 10:50:03</time>
      </trkpt>
      <trkpt lat="41.24908" lon="1.10802">
        <ele>615.2</ele>
        <time>2020-08-22 10:50:04</time>
      </trkpt>
      <trkpt lat="41.24899" lon="1.10806">
        <ele>614.8</ele>
        <time>2020-08-22 10:50:05</time>
      </trkpt>
      <trkpt lat="41.24889" lon="1.10809">
        <ele>613.8</ele>
        <time>2020-08-22 10:50:06</time>
      </trkpt>
      <trkpt lat="41.24878" lon="1.10809">
        <ele>613.6</ele>
        <time>2020-08-22 10:50:07</time>
      </trkpt>
      <trkpt lat="41.24868" lon="1.10805">
        <ele>612.6</ele>
        <time>2020-08-22 10:50:08</time>
      </trkpt>
      <trkpt lat="41.24858" lon="1.10797">
        <ele>612</ele>
        <time>2020-08-22 10:50:09</time>
      </trkpt>
      <trkpt lat="41.24854" lon="1.1079">
        <ele>611.4</ele>
        <time>2020-08-22 10:50:10</time>
      </trkpt>
      <trkpt lat="41.2485" lon="1.10781">
        <ele>611</ele>
        <time>2020-08-22 10:50:11</time>
      </trkpt>
      <trkpt lat="41.24846" lon="1.10769">
        <ele>610.6</ele>
        <time>2020-08-22 10:50:12</time>
      </trkpt>
      <trkpt lat="41.24841" lon="1.1076">
        <ele>610.4</ele>
        <time>2020-08-22 10:50:13</time>
      </trkpt>
      <trkpt lat="41.24837" lon="1.10751">
        <ele>610.4</ele>
        <time>2020-08-22 10:50:14</time>
      </trkpt>
      <trkpt lat="41.24832" lon="1.10743">
        <ele>610.4</ele>
        <time>2020-08-22 10:50:15</time>
      </trkpt>
      <trkpt lat="41.24827" lon="1.10737">
        <ele>610.4</ele>
        <time>2020-08-22 10:50:16</time>
      </trkpt>
      <trkpt lat="41.24821" lon="1.10731">
        <ele>610.2</ele>
        <time>2020-08-22 10:50:17</time>
      </trkpt>
      <trkpt lat="41.24814" lon="1.10726">
        <ele>610.2</ele>
        <time>2020-08-22 10:50:18</time>
      </trkpt>
      <trkpt lat="41.24808" lon="1.10721">
        <ele>610.4</ele>
        <time>2020-08-22 10:50:19</time>
      </trkpt>
      <trkpt lat="41.24802" lon="1.10716">
        <ele>610.6</ele>
        <time>2020-08-22 10:50:20</time>
      </trkpt>
      <trkpt lat="41.24796" lon="1.10711">
        <ele>611</ele>
        <time>2020-08-22 10:50:21</time>
      </trkpt>
      <trkpt lat="41.24791" lon="1.10706">
        <ele>611.4</ele>
        <time>2020-08-22 10:50:22</time>
      </trkpt>
      <trkpt lat="41.24786" lon="1.10699">
        <ele>611.6</ele>
        <time>2020-08-22 10:50:23</time>
      </trkpt>
      <trkpt lat="41.24781" lon="1.10692">
        <ele>612</ele>
        <time>2020-08-22 10:50:24</time>
      </trkpt>
      <trkpt lat="41.24777" lon="1.10685">
        <ele>612.2</ele>
        <time>2020-08-22 10:50:25</time>
      </trkpt>
      <trkpt lat="41.24773" lon="1.10677">
        <ele>612.6</ele>
        <time>2020-08-22 10:50:26</time>
      </trkpt>
      <trkpt lat="41.24771" lon="1.1067">
        <ele>612.8</ele>
        <time>2020-08-22 10:50:27</time>
      </trkpt>
      <trkpt lat="41.24769" lon="1.10661">
        <ele>613</ele>
        <time>2020-08-22 10:50:28</time>
      </trkpt>
      <trkpt lat="41.24767" lon="1.1065">
        <ele>613</ele>
        <time>2020-08-22 10:50:29</time>
      </trkpt>
      <trkpt lat="41.24765" lon="1.10641">
        <ele>613.2</ele>
        <time>2020-08-22 10:50:30</time>
      </trkpt>
      <trkpt lat="41.24764" lon="1.10634">
        <ele>613.4</ele>
        <time>2020-08-22 10:50:31</time>
      </trkpt>
      <trkpt lat="41.24762" lon="1.10624">
        <ele>613.6</ele>
        <time>2020-08-22 10:50:32</time>
      </trkpt>
      <trkpt lat="41.2476" lon="1.10615">
        <ele>613.8</ele>
        <time>2020-08-22 10:50:33</time>
      </trkpt>
      <trkpt lat="41.24757" lon="1.10605">
        <ele>614</ele>
        <time>2020-08-22 10:50:34</time>
      </trkpt>
      <trkpt lat="41.24754" lon="1.10596">
        <ele>614</ele>
        <time>2020-08-22 10:50:35</time>
      </trkpt>
      <trkpt lat="41.24752" lon="1.10587">
        <ele>614.2</ele>
        <time>2020-08-22 10:50:36</time>
      </trkpt>
      <trkpt lat="41.2475" lon="1.1058">
        <ele>614.4</ele>
        <time>2020-08-22 10:50:37</time>
      </trkpt>
      <trkpt lat="41.24747" lon="1.10572">
        <ele>614.4</ele>
        <time>2020-08-22 10:50:38</time>
      </trkpt>
      <trkpt lat="41.24744" lon="1.10561">
        <ele>614.6</ele>
        <time>2020-08-22 10:50:39</time>
      </trkpt>
      <trkpt lat="41.24742" lon="1.10552">
        <ele>614.6</ele>
        <time>2020-08-22 10:50:40</time>
      </trkpt>
      <trkpt lat="41.24739" lon="1.10544">
        <ele>614.8</ele>
        <time>2020-08-22 10:50:41</time>
      </trkpt>
      <trkpt lat="41.24737" lon="1.10535">
        <ele>614.8</ele>
        <time>2020-08-22 10:50:42</time>
      </trkpt>
      <trkpt lat="41.24734" lon="1.10527">
        <ele>614.8</ele>
        <time>2020-08-22 10:50:43</time>
      </trkpt>
      <trkpt lat="41.2473" lon="1.10519">
        <ele>614.8</ele>
        <time>2020-08-22 10:50:44</time>
      </trkpt>
      <trkpt lat="41.24726" lon="1.10512">
        <ele>614.8</ele>
        <time>2020-08-22 10:50:45</time>
      </trkpt>
      <trkpt lat="41.24721" lon="1.10505">
        <ele>614.8</ele>
        <time>2020-08-22 10:50:46</time>
      </trkpt>
      <trkpt lat="41.24715" lon="1.105">
        <ele>614.8</ele>
        <time>2020-08-22 10:50:47</time>
      </trkpt>
      <trkpt lat="41.24709" lon="1.10496">
        <ele>614.8</ele>
        <time>2020-08-22 10:50:48</time>
      </trkpt>
      <trkpt lat="41.24703" lon="1.10492">
        <ele>614.8</ele>
        <time>2020-08-22 10:50:49</time>
      </trkpt>
      <trkpt lat="41.24696" lon="1.10488">
        <ele>614.8</ele>
        <time>2020-08-22 10:50:50</time>
      </trkpt>
      <trkpt lat="41.2469" lon="1.10484">
        <ele>614.8</ele>
        <time>2020-08-22 10:50:51</time>
      </trkpt>
      <trkpt lat="41.24677" lon="1.10474">
        <ele>614.6</ele>
        <time>2020-08-22 10:50:53</time>
      </trkpt>
      <trkpt lat="41.24671" lon="1.10467">
        <ele>614.6</ele>
        <time>2020-08-22 10:50:54</time>
      </trkpt>
      <trkpt lat="41.24665" lon="1.1046">
        <ele>614.4</ele>
        <time>2020-08-22 10:50:55</time>
      </trkpt>
      <trkpt lat="41.24654" lon="1.10442">
        <ele>614.2</ele>
        <time>2020-08-22 10:50:57</time>
      </trkpt>
      <trkpt lat="41.2465" lon="1.10433">
        <ele>613.8</ele>
        <time>2020-08-22 10:50:58</time>
      </trkpt>
      <trkpt lat="41.24646" lon="1.10423">
        <ele>613.8</ele>
        <time>2020-08-22 10:50:59</time>
      </trkpt>
      <trkpt lat="41.24643" lon="1.10413">
        <ele>613.4</ele>
        <time>2020-08-22 10:51:00</time>
      </trkpt>
      <trkpt lat="41.24641" lon="1.10403">
        <ele>613.2</ele>
        <time>2020-08-22 10:51:01</time>
      </trkpt>
      <trkpt lat="41.2464" lon="1.10393">
        <ele>613</ele>
        <time>2020-08-22 10:51:02</time>
      </trkpt>
      <trkpt lat="41.24641" lon="1.10383">
        <ele>612.6</ele>
        <time>2020-08-22 10:51:03</time>
      </trkpt>
      <trkpt lat="41.24643" lon="1.10373">
        <ele>612.2</ele>
        <time>2020-08-22 10:51:04</time>
      </trkpt>
      <trkpt lat="41.24647" lon="1.10363">
        <ele>612</ele>
        <time>2020-08-22 10:51:05</time>
      </trkpt>
      <trkpt lat="41.24651" lon="1.10354">
        <ele>612</ele>
        <time>2020-08-22 10:51:06</time>
      </trkpt>
      <trkpt lat="41.24656" lon="1.10345">
        <ele>611.6</ele>
        <time>2020-08-22 10:51:07</time>
      </trkpt>
      <trkpt lat="41.24662" lon="1.10337">
        <ele>611.6</ele>
        <time>2020-08-22 10:51:08</time>
      </trkpt>
      <trkpt lat="41.24668" lon="1.10329">
        <ele>611.2</ele>
        <time>2020-08-22 10:51:09</time>
      </trkpt>
      <trkpt lat="41.24673" lon="1.10321">
        <ele>611.2</ele>
        <time>2020-08-22 10:51:10</time>
      </trkpt>
      <trkpt lat="41.24679" lon="1.10313">
        <ele>611</ele>
        <time>2020-08-22 10:51:11</time>
      </trkpt>
      <trkpt lat="41.24684" lon="1.10305">
        <ele>610.8</ele>
        <time>2020-08-22 10:51:12</time>
      </trkpt>
      <trkpt lat="41.24688" lon="1.10295">
        <ele>610.8</ele>
        <time>2020-08-22 10:51:13</time>
      </trkpt>
      <trkpt lat="41.2469" lon="1.10284">
        <ele>610.6</ele>
        <time>2020-08-22 10:51:14</time>
      </trkpt>
      <trkpt lat="41.2469" lon="1.10272">
        <ele>610.6</ele>
        <time>2020-08-22 10:51:15</time>
      </trkpt>
      <trkpt lat="41.24686" lon="1.10263">
        <ele>610.4</ele>
        <time>2020-08-22 10:51:16</time>
      </trkpt>
      <trkpt lat="41.24677" lon="1.10256">
        <ele>610.2</ele>
        <time>2020-08-22 10:51:17</time>
      </trkpt>
      <trkpt lat="41.24667" lon="1.10254">
        <ele>610</ele>
        <time>2020-08-22 10:51:18</time>
      </trkpt>
      <trkpt lat="41.24657" lon="1.10255">
        <ele>609.8</ele>
        <time>2020-08-22 10:51:19</time>
      </trkpt>
      <trkpt lat="41.24646" lon="1.10258">
        <ele>608.8</ele>
        <time>2020-08-22 10:51:20</time>
      </trkpt>
      <trkpt lat="41.24634" lon="1.10254">
        <ele>608.4</ele>
        <time>2020-08-22 10:51:21</time>
      </trkpt>
      <trkpt lat="41.24624" lon="1.10247">
        <ele>607.2</ele>
        <time>2020-08-22 10:51:22</time>
      </trkpt>
      <trkpt lat="41.24614" lon="1.10239">
        <ele>606</ele>
        <time>2020-08-22 10:51:23</time>
      </trkpt>
      <trkpt lat="41.24594" lon="1.10221">
        <ele>604</ele>
        <time>2020-08-22 10:51:25</time>
      </trkpt>
      <trkpt lat="41.24585" lon="1.10216">
        <ele>603.4</ele>
        <time>2020-08-22 10:51:26</time>
      </trkpt>
      <trkpt lat="41.24571" lon="1.10212">
        <ele>601.8</ele>
        <time>2020-08-22 10:51:27</time>
      </trkpt>
      <trkpt lat="41.24559" lon="1.10213">
        <ele>601</ele>
        <time>2020-08-22 10:51:28</time>
      </trkpt>
      <trkpt lat="41.24548" lon="1.10217">
        <ele>600</ele>
        <time>2020-08-22 10:51:29</time>
      </trkpt>
      <trkpt lat="41.24524" lon="1.10228">
        <ele>598</ele>
        <time>2020-08-22 10:51:31</time>
      </trkpt>
      <trkpt lat="41.24511" lon="1.10231">
        <ele>596.6</ele>
        <time>2020-08-22 10:51:32</time>
      </trkpt>
      <trkpt lat="41.24498" lon="1.1023">
        <ele>596.2</ele>
        <time>2020-08-22 10:51:33</time>
      </trkpt>
      <trkpt lat="41.24488" lon="1.10228">
        <ele>595.2</ele>
        <time>2020-08-22 10:51:34</time>
      </trkpt>
      <trkpt lat="41.24475" lon="1.10224">
        <ele>594.2</ele>
        <time>2020-08-22 10:51:35</time>
      </trkpt>
      <trkpt lat="41.24462" lon="1.10223">
        <ele>592.6</ele>
        <time>2020-08-22 10:51:36</time>
      </trkpt>
      <trkpt lat="41.24454" lon="1.10224">
        <ele>591.6</ele>
        <time>2020-08-22 10:51:37</time>
      </trkpt>
      <trkpt lat="41.24444" lon="1.10228">
        <ele>590</ele>
        <time>2020-08-22 10:51:38</time>
      </trkpt>
      <trkpt lat="41.2444" lon="1.10236">
        <ele>588.4</ele>
        <time>2020-08-22 10:51:39</time>
      </trkpt>
      <trkpt lat="41.24436" lon="1.10248">
        <ele>587.4</ele>
        <time>2020-08-22 10:51:40</time>
      </trkpt>
      <trkpt lat="41.24432" lon="1.10264">
        <ele>585.6</ele>
        <time>2020-08-22 10:51:41</time>
      </trkpt>
      <trkpt lat="41.24429" lon="1.10277">
        <ele>584.6</ele>
        <time>2020-08-22 10:51:42</time>
      </trkpt>
      <trkpt lat="41.24425" lon="1.10291">
        <ele>583.2</ele>
        <time>2020-08-22 10:51:43</time>
      </trkpt>
      <trkpt lat="41.2442" lon="1.10304">
        <ele>582.4</ele>
        <time>2020-08-22 10:51:44</time>
      </trkpt>
      <trkpt lat="41.24414" lon="1.10313">
        <ele>580.8</ele>
        <time>2020-08-22 10:51:45</time>
      </trkpt>
      <trkpt lat="41.24405" lon="1.10327">
        <ele>580.2</ele>
        <time>2020-08-22 10:51:46</time>
      </trkpt>
      <trkpt lat="41.24396" lon="1.10336">
        <ele>578.8</ele>
        <time>2020-08-22 10:51:47</time>
      </trkpt>
      <trkpt lat="41.2438" lon="1.10355">
        <ele>577.4</ele>
        <time>2020-08-22 10:51:49</time>
      </trkpt>
      <trkpt lat="41.24373" lon="1.10371">
        <ele>576.4</ele>
        <time>2020-08-22 10:51:50</time>
      </trkpt>
      <trkpt lat="41.24369" lon="1.10385">
        <ele>575.8</ele>
        <time>2020-08-22 10:51:51</time>
      </trkpt>
      <trkpt lat="41.24368" lon="1.104">
        <ele>574.6</ele>
        <time>2020-08-22 10:51:52</time>
      </trkpt>
      <trkpt lat="41.24368" lon="1.1041">
        <ele>574.2</ele>
        <time>2020-08-22 10:51:53</time>
      </trkpt>
      <trkpt lat="41.2437" lon="1.10422">
        <ele>572.8</ele>
        <time>2020-08-22 10:51:54</time>
      </trkpt>
      <trkpt lat="41.24373" lon="1.10431">
        <ele>572.2</ele>
        <time>2020-08-22 10:51:55</time>
      </trkpt>
      <trkpt lat="41.24375" lon="1.10438">
        <ele>571</ele>
        <time>2020-08-22 10:51:56</time>
      </trkpt>
      <trkpt lat="41.24376" lon="1.10444">
        <ele>569.6</ele>
        <time>2020-08-22 10:51:57</time>
      </trkpt>
      <trkpt lat="41.24375" lon="1.10448">
        <ele>568.6</ele>
        <time>2020-08-22 10:51:58</time>
      </trkpt>
      <trkpt lat="41.24372" lon="1.1045">
        <ele>567.2</ele>
        <time>2020-08-22 10:51:59</time>
      </trkpt>
      <trkpt lat="41.24367" lon="1.1045">
        <ele>566.6</ele>
        <time>2020-08-22 10:52:00</time>
      </trkpt>
      <trkpt lat="41.24362" lon="1.10447">
        <ele>565</ele>
        <time>2020-08-22 10:52:01</time>
      </trkpt>
      <trkpt lat="41.24358" lon="1.10442">
        <ele>564.4</ele>
        <time>2020-08-22 10:52:02</time>
      </trkpt>
      <trkpt lat="41.24355" lon="1.10435">
        <ele>563.2</ele>
        <time>2020-08-22 10:52:03</time>
      </trkpt>
      <trkpt lat="41.24353" lon="1.10426">
        <ele>562.8</ele>
        <time>2020-08-22 10:52:04</time>
      </trkpt>
      <trkpt lat="41.24347" lon="1.10418">
        <ele>561.8</ele>
        <time>2020-08-22 10:52:05</time>
      </trkpt>
      <trkpt lat="41.2434" lon="1.10414">
        <ele>560.8</ele>
        <time>2020-08-22 10:52:06</time>
      </trkpt>
      <trkpt lat="41.24333" lon="1.10413">
        <ele>560.4</ele>
        <time>2020-08-22 10:52:07</time>
      </trkpt>
      <trkpt lat="41.24325" lon="1.10413">
        <ele>559.6</ele>
        <time>2020-08-22 10:52:08</time>
      </trkpt>
      <trkpt lat="41.24318" lon="1.1041">
        <ele>559.4</ele>
        <time>2020-08-22 10:52:09</time>
      </trkpt>
      <trkpt lat="41.24312" lon="1.10403">
        <ele>558.6</ele>
        <time>2020-08-22 10:52:10</time>
      </trkpt>
      <trkpt lat="41.24307" lon="1.10396">
        <ele>558.2</ele>
        <time>2020-08-22 10:52:11</time>
      </trkpt>
      <trkpt lat="41.24304" lon="1.10388">
        <ele>557.4</ele>
        <time>2020-08-22 10:52:12</time>
      </trkpt>
      <trkpt lat="41.24303" lon="1.10382">
        <ele>557</ele>
        <time>2020-08-22 10:52:13</time>
      </trkpt>
      <trkpt lat="41.24304" lon="1.10377">
        <ele>556.4</ele>
        <time>2020-08-22 10:52:14</time>
      </trkpt>
      <trkpt lat="41.24307" lon="1.10374">
        <ele>555.4</ele>
        <time>2020-08-22 10:52:15</time>
      </trkpt>
      <trkpt lat="41.2431" lon="1.10372">
        <ele>555</ele>
        <time>2020-08-22 10:52:16</time>
      </trkpt>
      <trkpt lat="41.24313" lon="1.10369">
        <ele>554.4</ele>
        <time>2020-08-22 10:52:17</time>
      </trkpt>
      <trkpt lat="41.24316" lon="1.10367">
        <ele>554</ele>
        <time>2020-08-22 10:52:18</time>
      </trkpt>
      <trkpt lat="41.24318" lon="1.10366">
        <ele>553.6</ele>
        <time>2020-08-22 10:52:19</time>
      </trkpt>
      <trkpt lat="41.24321" lon="1.10366">
        <ele>553.4</ele>
        <time>2020-08-22 10:52:20</time>
      </trkpt>
      <trkpt lat="41.24324" lon="1.10364">
        <ele>553.2</ele>
        <time>2020-08-22 10:52:21</time>
      </trkpt>
      <trkpt lat="41.24327" lon="1.10362">
        <ele>553</ele>
        <time>2020-08-22 10:52:22</time>
      </trkpt>
      <trkpt lat="41.24331" lon="1.10357">
        <ele>552.8</ele>
        <time>2020-08-22 10:52:23</time>
      </trkpt>
      <trkpt lat="41.24336" lon="1.10349">
        <ele>552.6</ele>
        <time>2020-08-22 10:52:24</time>
      </trkpt>
      <trkpt lat="41.24339" lon="1.10343">
        <ele>552.4</ele>
        <time>2020-08-22 10:52:25</time>
      </trkpt>
      <trkpt lat="41.24343" lon="1.10336">
        <ele>552.6</ele>
        <time>2020-08-22 10:52:26</time>
      </trkpt>
      <trkpt lat="41.2435" lon="1.10323">
        <ele>552.4</ele>
        <time>2020-08-22 10:52:28</time>
      </trkpt>
      <trkpt lat="41.24354" lon="1.10314">
        <ele>552.4</ele>
        <time>2020-08-22 10:52:29</time>
      </trkpt>
      <trkpt lat="41.24357" lon="1.10306">
        <ele>552.2</ele>
        <time>2020-08-22 10:52:30</time>
      </trkpt>
      <trkpt lat="41.24366" lon="1.10279">
        <ele>552.2</ele>
        <time>2020-08-22 10:52:33</time>
      </trkpt>
      <trkpt lat="41.24369" lon="1.10269">
        <ele>552</ele>
        <time>2020-08-22 10:52:34</time>
      </trkpt>
      <trkpt lat="41.24377" lon="1.10242">
        <ele>551.8</ele>
        <time>2020-08-22 10:52:37</time>
      </trkpt>
      <trkpt lat="41.24378" lon="1.10232">
        <ele>551.6</ele>
        <time>2020-08-22 10:52:38</time>
      </trkpt>
      <trkpt lat="41.24376" lon="1.10224">
        <ele>551</ele>
        <time>2020-08-22 10:52:39</time>
      </trkpt>
      <trkpt lat="41.24372" lon="1.10215">
        <ele>550.2</ele>
        <time>2020-08-22 10:52:40</time>
      </trkpt>
      <trkpt lat="41.24367" lon="1.10206">
        <ele>550</ele>
        <time>2020-08-22 10:52:41</time>
      </trkpt>
      <trkpt lat="41.24362" lon="1.10195">
        <ele>549.6</ele>
        <time>2020-08-22 10:52:42</time>
      </trkpt>
      <trkpt lat="41.24357" lon="1.10186">
        <ele>549.4</ele>
        <time>2020-08-22 10:52:43</time>
      </trkpt>
      <trkpt lat="41.24351" lon="1.10179">
        <ele>549</ele>
        <time>2020-08-22 10:52:44</time>
      </trkpt>
      <trkpt lat="41.24339" lon="1.10163">
        <ele>548.6</ele>
        <time>2020-08-22 10:52:46</time>
      </trkpt>
      <trkpt lat="41.24334" lon="1.10155">
        <ele>548.2</ele>
        <time>2020-08-22 10:52:47</time>
      </trkpt>
      <trkpt lat="41.24329" lon="1.10143">
        <ele>547.6</ele>
        <time>2020-08-22 10:52:48</time>
      </trkpt>
      <trkpt lat="41.24325" lon="1.10132">
        <ele>547</ele>
        <time>2020-08-22 10:52:49</time>
      </trkpt>
      <trkpt lat="41.24322" lon="1.10121">
        <ele>546.4</ele>
        <time>2020-08-22 10:52:50</time>
      </trkpt>
      <trkpt lat="41.24318" lon="1.10109">
        <ele>544.8</ele>
        <time>2020-08-22 10:52:51</time>
      </trkpt>
      <trkpt lat="41.24312" lon="1.10099">
        <ele>544.2</ele>
        <time>2020-08-22 10:52:52</time>
      </trkpt>
      <trkpt lat="41.24306" lon="1.10089">
        <ele>543.6</ele>
        <time>2020-08-22 10:52:53</time>
      </trkpt>
      <trkpt lat="41.24299" lon="1.10081">
        <ele>543.2</ele>
        <time>2020-08-22 10:52:54</time>
      </trkpt>
      <trkpt lat="41.24291" lon="1.10072">
        <ele>542.6</ele>
        <time>2020-08-22 10:52:55</time>
      </trkpt>
      <trkpt lat="41.24279" lon="1.10055">
        <ele>540.4</ele>
        <time>2020-08-22 10:52:57</time>
      </trkpt>
      <trkpt lat="41.24275" lon="1.10046">
        <ele>539.6</ele>
        <time>2020-08-22 10:52:58</time>
      </trkpt>
      <trkpt lat="41.24273" lon="1.10037">
        <ele>539.2</ele>
        <time>2020-08-22 10:52:59</time>
      </trkpt>
      <trkpt lat="41.24276" lon="1.10029">
        <ele>538.2</ele>
        <time>2020-08-22 10:53:00</time>
      </trkpt>
      <trkpt lat="41.24281" lon="1.10023">
        <ele>537.4</ele>
        <time>2020-08-22 10:53:01</time>
      </trkpt>
      <trkpt lat="41.24286" lon="1.10018">
        <ele>536.2</ele>
        <time>2020-08-22 10:53:02</time>
      </trkpt>
      <trkpt lat="41.24292" lon="1.10013">
        <ele>535.6</ele>
        <time>2020-08-22 10:53:03</time>
      </trkpt>
      <trkpt lat="41.24299" lon="1.10008">
        <ele>534.8</ele>
        <time>2020-08-22 10:53:04</time>
      </trkpt>
      <trkpt lat="41.24304" lon="1.10005">
        <ele>534.4</ele>
        <time>2020-08-22 10:53:05</time>
      </trkpt>
      <trkpt lat="41.2431" lon="1.10003">
        <ele>534.4</ele>
        <time>2020-08-22 10:53:06</time>
      </trkpt>
      <trkpt lat="41.24318" lon="1.10003">
        <ele>534.4</ele>
        <time>2020-08-22 10:53:07</time>
      </trkpt>
      <trkpt lat="41.24325" lon="1.10004">
        <ele>534.2</ele>
        <time>2020-08-22 10:53:08</time>
      </trkpt>
      <trkpt lat="41.24333" lon="1.10006">
        <ele>534.2</ele>
        <time>2020-08-22 10:53:09</time>
      </trkpt>
      <trkpt lat="41.24341" lon="1.10007">
        <ele>534.2</ele>
        <time>2020-08-22 10:53:10</time>
      </trkpt>
      <trkpt lat="41.24347" lon="1.10009">
        <ele>534.2</ele>
        <time>2020-08-22 10:53:11</time>
      </trkpt>
      <trkpt lat="41.24355" lon="1.10013">
        <ele>534.2</ele>
        <time>2020-08-22 10:53:12</time>
      </trkpt>
      <trkpt lat="41.24362" lon="1.10017">
        <ele>534.2</ele>
        <time>2020-08-22 10:53:13</time>
      </trkpt>
      <trkpt lat="41.24369" lon="1.10022">
        <ele>534.2</ele>
        <time>2020-08-22 10:53:14</time>
      </trkpt>
      <trkpt lat="41.24381" lon="1.10032">
        <ele>534.4</ele>
        <time>2020-08-22 10:53:16</time>
      </trkpt>
      <trkpt lat="41.24388" lon="1.10041">
        <ele>534.2</ele>
        <time>2020-08-22 10:53:17</time>
      </trkpt>
      <trkpt lat="41.24392" lon="1.10049">
        <ele>534</ele>
        <time>2020-08-22 10:53:18</time>
      </trkpt>
      <trkpt lat="41.24395" lon="1.10058">
        <ele>534</ele>
        <time>2020-08-22 10:53:19</time>
      </trkpt>
      <trkpt lat="41.244" lon="1.10075">
        <ele>533.8</ele>
        <time>2020-08-22 10:53:21</time>
      </trkpt>
      <trkpt lat="41.24405" lon="1.10081">
        <ele>533.8</ele>
        <time>2020-08-22 10:53:22</time>
      </trkpt>
      <trkpt lat="41.24411" lon="1.10081">
        <ele>533.6</ele>
        <time>2020-08-22 10:53:23</time>
      </trkpt>
      <trkpt lat="41.24417" lon="1.10079">
        <ele>533.6</ele>
        <time>2020-08-22 10:53:24</time>
      </trkpt>
      <trkpt lat="41.24423" lon="1.10076">
        <ele>533.4</ele>
        <time>2020-08-22 10:53:25</time>
      </trkpt>
      <trkpt lat="41.24438" lon="1.10069">
        <ele>533</ele>
        <time>2020-08-22 10:53:27</time>
      </trkpt>
      <trkpt lat="41.24445" lon="1.10072">
        <ele>533</ele>
        <time>2020-08-22 10:53:28</time>
      </trkpt>
      <trkpt lat="41.24451" lon="1.10078">
        <ele>532.8</ele>
        <time>2020-08-22 10:53:29</time>
      </trkpt>
      <trkpt lat="41.24463" lon="1.10088">
        <ele>532.4</ele>
        <time>2020-08-22 10:53:31</time>
      </trkpt>
      <trkpt lat="41.24471" lon="1.10092">
        <ele>532.2</ele>
        <time>2020-08-22 10:53:32</time>
      </trkpt>
      <trkpt lat="41.24487" lon="1.10103">
        <ele>531.6</ele>
        <time>2020-08-22 10:53:34</time>
      </trkpt>
      <trkpt lat="41.24496" lon="1.10108">
        <ele>531.4</ele>
        <time>2020-08-22 10:53:35</time>
      </trkpt>
      <trkpt lat="41.24503" lon="1.10108">
        <ele>531.2</ele>
        <time>2020-08-22 10:53:36</time>
      </trkpt>
      <trkpt lat="41.2451" lon="1.10106">
        <ele>531</ele>
        <time>2020-08-22 10:53:37</time>
      </trkpt>
      <trkpt lat="41.24515" lon="1.101">
        <ele>530.4</ele>
        <time>2020-08-22 10:53:38</time>
      </trkpt>
      <trkpt lat="41.24517" lon="1.10093">
        <ele>530.2</ele>
        <time>2020-08-22 10:53:39</time>
      </trkpt>
      <trkpt lat="41.24516" lon="1.10086">
        <ele>529.8</ele>
        <time>2020-08-22 10:53:40</time>
      </trkpt>
      <trkpt lat="41.24514" lon="1.1008">
        <ele>529.2</ele>
        <time>2020-08-22 10:53:41</time>
      </trkpt>
      <trkpt lat="41.24511" lon="1.10077">
        <ele>529</ele>
        <time>2020-08-22 10:53:42</time>
      </trkpt>
      <trkpt lat="41.24508" lon="1.10077">
        <ele>528.4</ele>
        <time>2020-08-22 10:53:43</time>
      </trkpt>
      <trkpt lat="41.24504" lon="1.1008">
        <ele>528.2</ele>
        <time>2020-08-22 10:53:44</time>
      </trkpt>
      <trkpt lat="41.24499" lon="1.10082">
        <ele>527.6</ele>
        <time>2020-08-22 10:53:45</time>
      </trkpt>
      <trkpt lat="41.24493" lon="1.10086">
        <ele>527.2</ele>
        <time>2020-08-22 10:53:46</time>
      </trkpt>
      <trkpt lat="41.24487" lon="1.10087">
        <ele>526.8</ele>
        <time>2020-08-22 10:53:47</time>
      </trkpt>
      <trkpt lat="41.24481" lon="1.10085">
        <ele>526.4</ele>
        <time>2020-08-22 10:53:48</time>
      </trkpt>
      <trkpt lat="41.24476" lon="1.1008">
        <ele>526.2</ele>
        <time>2020-08-22 10:53:49</time>
      </trkpt>
      <trkpt lat="41.24467" lon="1.10067">
        <ele>526</ele>
        <time>2020-08-22 10:53:51</time>
      </trkpt>
      <trkpt lat="41.24461" lon="1.10061">
        <ele>525.8</ele>
        <time>2020-08-22 10:53:52</time>
      </trkpt>
      <trkpt lat="41.24447" lon="1.10049">
        <ele>525.8</ele>
        <time>2020-08-22 10:53:54</time>
      </trkpt>
      <trkpt lat="41.24439" lon="1.10047">
        <ele>525.8</ele>
        <time>2020-08-22 10:53:55</time>
      </trkpt>
      <trkpt lat="41.24432" lon="1.10049">
        <ele>525.6</ele>
        <time>2020-08-22 10:53:56</time>
      </trkpt>
      <trkpt lat="41.24425" lon="1.10049">
        <ele>525.2</ele>
        <time>2020-08-22 10:53:57</time>
      </trkpt>
      <trkpt lat="41.24419" lon="1.10046">
        <ele>525.2</ele>
        <time>2020-08-22 10:53:58</time>
      </trkpt>
      <trkpt lat="41.24416" lon="1.10041">
        <ele>524.6</ele>
        <time>2020-08-22 10:53:59</time>
      </trkpt>
      <trkpt lat="41.24413" lon="1.10034">
        <ele>524.4</ele>
        <time>2020-08-22 10:54:00</time>
      </trkpt>
      <trkpt lat="41.2441" lon="1.10026">
        <ele>524</ele>
        <time>2020-08-22 10:54:01</time>
      </trkpt>
      <trkpt lat="41.24406" lon="1.10018">
        <ele>523.6</ele>
        <time>2020-08-22 10:54:02</time>
      </trkpt>
      <trkpt lat="41.24401" lon="1.10012">
        <ele>523</ele>
        <time>2020-08-22 10:54:03</time>
      </trkpt>
      <trkpt lat="41.24394" lon="1.1">
        <ele>522.6</ele>
        <time>2020-08-22 10:54:04</time>
      </trkpt>
      <trkpt lat="41.24389" lon="1.09992">
        <ele>522.4</ele>
        <time>2020-08-22 10:54:05</time>
      </trkpt>
      <trkpt lat="41.2438" lon="1.09983">
        <ele>521.4</ele>
        <time>2020-08-22 10:54:06</time>
      </trkpt>
      <trkpt lat="41.24371" lon="1.09974">
        <ele>520.8</ele>
        <time>2020-08-22 10:54:07</time>
      </trkpt>
      <trkpt lat="41.24364" lon="1.09965">
        <ele>520</ele>
        <time>2020-08-22 10:54:08</time>
      </trkpt>
      <trkpt lat="41.24354" lon="1.09954">
        <ele>519.6</ele>
        <time>2020-08-22 10:54:09</time>
      </trkpt>
      <trkpt lat="41.24347" lon="1.09948">
        <ele>518.8</ele>
        <time>2020-08-22 10:54:10</time>
      </trkpt>
      <trkpt lat="41.2434" lon="1.09945">
        <ele>518.4</ele>
        <time>2020-08-22 10:54:11</time>
      </trkpt>
      <trkpt lat="41.24332" lon="1.09943">
        <ele>517</ele>
        <time>2020-08-22 10:54:12</time>
      </trkpt>
      <trkpt lat="41.24324" lon="1.09941">
        <ele>516.6</ele>
        <time>2020-08-22 10:54:13</time>
      </trkpt>
      <trkpt lat="41.24315" lon="1.0994">
        <ele>515.6</ele>
        <time>2020-08-22 10:54:14</time>
      </trkpt>
      <trkpt lat="41.24306" lon="1.09939">
        <ele>514.8</ele>
        <time>2020-08-22 10:54:15</time>
      </trkpt>
      <trkpt lat="41.24296" lon="1.09939">
        <ele>514.4</ele>
        <time>2020-08-22 10:54:16</time>
      </trkpt>
      <trkpt lat="41.24287" lon="1.09939">
        <ele>513</ele>
        <time>2020-08-22 10:54:17</time>
      </trkpt>
      <trkpt lat="41.24278" lon="1.0994">
        <ele>512.4</ele>
        <time>2020-08-22 10:54:18</time>
      </trkpt>
      <trkpt lat="41.24269" lon="1.09941">
        <ele>511.6</ele>
        <time>2020-08-22 10:54:19</time>
      </trkpt>
      <trkpt lat="41.24259" lon="1.09943">
        <ele>511.2</ele>
        <time>2020-08-22 10:54:20</time>
      </trkpt>
      <trkpt lat="41.24251" lon="1.09946">
        <ele>510.2</ele>
        <time>2020-08-22 10:54:21</time>
      </trkpt>
      <trkpt lat="41.24242" lon="1.0995">
        <ele>509.8</ele>
        <time>2020-08-22 10:54:22</time>
      </trkpt>
      <trkpt lat="41.24233" lon="1.09955">
        <ele>509</ele>
        <time>2020-08-22 10:54:23</time>
      </trkpt>
      <trkpt lat="41.24214" lon="1.09962">
        <ele>507.4</ele>
        <time>2020-08-22 10:54:25</time>
      </trkpt>
      <trkpt lat="41.24205" lon="1.09967">
        <ele>506</ele>
        <time>2020-08-22 10:54:26</time>
      </trkpt>
      <trkpt lat="41.24195" lon="1.09972">
        <ele>505.4</ele>
        <time>2020-08-22 10:54:27</time>
      </trkpt>
      <trkpt lat="41.24185" lon="1.09976">
        <ele>504.4</ele>
        <time>2020-08-22 10:54:28</time>
      </trkpt>
      <trkpt lat="41.24168" lon="1.09982">
        <ele>502.4</ele>
        <time>2020-08-22 10:54:30</time>
      </trkpt>
      <trkpt lat="41.24161" lon="1.09986">
        <ele>501.8</ele>
        <time>2020-08-22 10:54:31</time>
      </trkpt>
      <trkpt lat="41.24155" lon="1.0999">
        <ele>501</ele>
        <time>2020-08-22 10:54:32</time>
      </trkpt>
      <trkpt lat="41.24152" lon="1.09994">
        <ele>499.6</ele>
        <time>2020-08-22 10:54:33</time>
      </trkpt>
      <trkpt lat="41.24148" lon="1.10001">
        <ele>499</ele>
        <time>2020-08-22 10:54:34</time>
      </trkpt>
      <trkpt lat="41.24145" lon="1.10012">
        <ele>498</ele>
        <time>2020-08-22 10:54:35</time>
      </trkpt>
      <trkpt lat="41.24143" lon="1.10032">
        <ele>495.6</ele>
        <time>2020-08-22 10:54:37</time>
      </trkpt>
      <trkpt lat="41.24143" lon="1.10039">
        <ele>494.8</ele>
        <time>2020-08-22 10:54:38</time>
      </trkpt>
      <trkpt lat="41.24144" lon="1.10047">
        <ele>493.8</ele>
        <time>2020-08-22 10:54:39</time>
      </trkpt>
      <trkpt lat="41.24147" lon="1.10056">
        <ele>492.4</ele>
        <time>2020-08-22 10:54:40</time>
      </trkpt>
      <trkpt lat="41.24151" lon="1.10062">
        <ele>492</ele>
        <time>2020-08-22 10:54:41</time>
      </trkpt>
      <trkpt lat="41.24156" lon="1.10069">
        <ele>491.4</ele>
        <time>2020-08-22 10:54:42</time>
      </trkpt>
      <trkpt lat="41.24161" lon="1.10077">
        <ele>491.2</ele>
        <time>2020-08-22 10:54:43</time>
      </trkpt>
      <trkpt lat="41.24164" lon="1.10084">
        <ele>490.4</ele>
        <time>2020-08-22 10:54:44</time>
      </trkpt>
      <trkpt lat="41.24166" lon="1.10092">
        <ele>490</ele>
        <time>2020-08-22 10:54:45</time>
      </trkpt>
      <trkpt lat="41.24164" lon="1.10096">
        <ele>489.2</ele>
        <time>2020-08-22 10:54:46</time>
      </trkpt>
      <trkpt lat="41.2416" lon="1.10098">
        <ele>489</ele>
        <time>2020-08-22 10:54:47</time>
      </trkpt>
      <trkpt lat="41.24155" lon="1.10099">
        <ele>488.6</ele>
        <time>2020-08-22 10:54:48</time>
      </trkpt>
      <trkpt lat="41.24149" lon="1.10101">
        <ele>488.2</ele>
        <time>2020-08-22 10:54:49</time>
      </trkpt>
      <trkpt lat="41.24141" lon="1.10102">
        <ele>488</ele>
        <time>2020-08-22 10:54:50</time>
      </trkpt>
      <trkpt lat="41.24133" lon="1.10103">
        <ele>487.4</ele>
        <time>2020-08-22 10:54:51</time>
      </trkpt>
      <trkpt lat="41.24125" lon="1.10103">
        <ele>487.4</ele>
        <time>2020-08-22 10:54:52</time>
      </trkpt>
      <trkpt lat="41.24116" lon="1.10101">
        <ele>487</ele>
        <time>2020-08-22 10:54:53</time>
      </trkpt>
      <trkpt lat="41.24087" lon="1.1009">
        <ele>486.2</ele>
        <time>2020-08-22 10:54:56</time>
      </trkpt>
      <trkpt lat="41.24077" lon="1.10083">
        <ele>485.2</ele>
        <time>2020-08-22 10:54:57</time>
      </trkpt>
      <trkpt lat="41.24058" lon="1.1007">
        <ele>484</ele>
        <time>2020-08-22 10:54:59</time>
      </trkpt>
      <trkpt lat="41.24051" lon="1.10066">
        <ele>483.2</ele>
        <time>2020-08-22 10:55:00</time>
      </trkpt>
      <trkpt lat="41.24041" lon="1.10058">
        <ele>482.6</ele>
        <time>2020-08-22 10:55:01</time>
      </trkpt>
      <trkpt lat="41.24025" lon="1.10046">
        <ele>481.4</ele>
        <time>2020-08-22 10:55:03</time>
      </trkpt>
      <trkpt lat="41.24018" lon="1.1004">
        <ele>480.8</ele>
        <time>2020-08-22 10:55:04</time>
      </trkpt>
      <trkpt lat="41.24013" lon="1.10033">
        <ele>479.6</ele>
        <time>2020-08-22 10:55:05</time>
      </trkpt>
      <trkpt lat="41.2401" lon="1.10025">
        <ele>479.2</ele>
        <time>2020-08-22 10:55:06</time>
      </trkpt>
      <trkpt lat="41.24008" lon="1.10016">
        <ele>478.2</ele>
        <time>2020-08-22 10:55:07</time>
      </trkpt>
      <trkpt lat="41.24006" lon="1.10006">
        <ele>477.4</ele>
        <time>2020-08-22 10:55:08</time>
      </trkpt>
      <trkpt lat="41.24006" lon="1.09995">
        <ele>476.6</ele>
        <time>2020-08-22 10:55:09</time>
      </trkpt>
      <trkpt lat="41.24006" lon="1.09983">
        <ele>475.6</ele>
        <time>2020-08-22 10:55:10</time>
      </trkpt>
      <trkpt lat="41.24006" lon="1.09974">
        <ele>473.8</ele>
        <time>2020-08-22 10:55:11</time>
      </trkpt>
      <trkpt lat="41.24004" lon="1.09967">
        <ele>473.2</ele>
        <time>2020-08-22 10:55:12</time>
      </trkpt>
      <trkpt lat="41.24" lon="1.09964">
        <ele>472</ele>
        <time>2020-08-22 10:55:13</time>
      </trkpt>
      <trkpt lat="41.23995" lon="1.09962">
        <ele>471.2</ele>
        <time>2020-08-22 10:55:14</time>
      </trkpt>
      <trkpt lat="41.23989" lon="1.0996">
        <ele>470.6</ele>
        <time>2020-08-22 10:55:15</time>
      </trkpt>
      <trkpt lat="41.23983" lon="1.09956">
        <ele>469.6</ele>
        <time>2020-08-22 10:55:16</time>
      </trkpt>
      <trkpt lat="41.2398" lon="1.0995">
        <ele>468.6</ele>
        <time>2020-08-22 10:55:17</time>
      </trkpt>
      <trkpt lat="41.23977" lon="1.09943">
        <ele>467.6</ele>
        <time>2020-08-22 10:55:18</time>
      </trkpt>
      <trkpt lat="41.23973" lon="1.09933">
        <ele>467.2</ele>
        <time>2020-08-22 10:55:19</time>
      </trkpt>
      <trkpt lat="41.23971" lon="1.09926">
        <ele>466.4</ele>
        <time>2020-08-22 10:55:20</time>
      </trkpt>
      <trkpt lat="41.23966" lon="1.09918">
        <ele>466</ele>
        <time>2020-08-22 10:55:21</time>
      </trkpt>
      <trkpt lat="41.23961" lon="1.09914">
        <ele>465.6</ele>
        <time>2020-08-22 10:55:22</time>
      </trkpt>
      <trkpt lat="41.23956" lon="1.09909">
        <ele>465.6</ele>
        <time>2020-08-22 10:55:23</time>
      </trkpt>
      <trkpt lat="41.23948" lon="1.09906">
        <ele>465.4</ele>
        <time>2020-08-22 10:55:24</time>
      </trkpt>
      <trkpt lat="41.23942" lon="1.09903">
        <ele>465.2</ele>
        <time>2020-08-22 10:55:25</time>
      </trkpt>
      <trkpt lat="41.23922" lon="1.09886">
        <ele>465</ele>
        <time>2020-08-22 10:55:28</time>
      </trkpt>
      <trkpt lat="41.23914" lon="1.09877">
        <ele>464.8</ele>
        <time>2020-08-22 10:55:29</time>
      </trkpt>
      <trkpt lat="41.23908" lon="1.09868">
        <ele>464.8</ele>
        <time>2020-08-22 10:55:30</time>
      </trkpt>
      <trkpt lat="41.23903" lon="1.09857">
        <ele>464.2</ele>
        <time>2020-08-22 10:55:31</time>
      </trkpt>
      <trkpt lat="41.23899" lon="1.0985">
        <ele>463.6</ele>
        <time>2020-08-22 10:55:32</time>
      </trkpt>
      <trkpt lat="41.23894" lon="1.09843">
        <ele>463.2</ele>
        <time>2020-08-22 10:55:33</time>
      </trkpt>
      <trkpt lat="41.23886" lon="1.09838">
        <ele>462.4</ele>
        <time>2020-08-22 10:55:34</time>
      </trkpt>
      <trkpt lat="41.23878" lon="1.09836">
        <ele>461.8</ele>
        <time>2020-08-22 10:55:35</time>
      </trkpt>
      <trkpt lat="41.23869" lon="1.09836">
        <ele>460.8</ele>
        <time>2020-08-22 10:55:36</time>
      </trkpt>
      <trkpt lat="41.23862" lon="1.09835">
        <ele>459.4</ele>
        <time>2020-08-22 10:55:37</time>
      </trkpt>
      <trkpt lat="41.23853" lon="1.09834">
        <ele>458</ele>
        <time>2020-08-22 10:55:38</time>
      </trkpt>
      <trkpt lat="41.23832" lon="1.09832">
        <ele>456.6</ele>
        <time>2020-08-22 10:55:40</time>
      </trkpt>
      <trkpt lat="41.23823" lon="1.09834">
        <ele>455.8</ele>
        <time>2020-08-22 10:55:41</time>
      </trkpt>
      <trkpt lat="41.23816" lon="1.09837">
        <ele>455.4</ele>
        <time>2020-08-22 10:55:42</time>
      </trkpt>
      <trkpt lat="41.23807" lon="1.09841">
        <ele>454.2</ele>
        <time>2020-08-22 10:55:43</time>
      </trkpt>
      <trkpt lat="41.23798" lon="1.09845">
        <ele>453.6</ele>
        <time>2020-08-22 10:55:44</time>
      </trkpt>
      <trkpt lat="41.23792" lon="1.09848">
        <ele>452.8</ele>
        <time>2020-08-22 10:55:45</time>
      </trkpt>
      <trkpt lat="41.23785" lon="1.09851">
        <ele>452.6</ele>
        <time>2020-08-22 10:55:46</time>
      </trkpt>
      <trkpt lat="41.23777" lon="1.09854">
        <ele>452.4</ele>
        <time>2020-08-22 10:55:47</time>
      </trkpt>
      <trkpt lat="41.23771" lon="1.09857">
        <ele>452.2</ele>
        <time>2020-08-22 10:55:48</time>
      </trkpt>
      <trkpt lat="41.23764" lon="1.09859">
        <ele>452.2</ele>
        <time>2020-08-22 10:55:49</time>
      </trkpt>
      <trkpt lat="41.23749" lon="1.09864">
        <ele>452</ele>
        <time>2020-08-22 10:55:51</time>
      </trkpt>
      <trkpt lat="41.23744" lon="1.09868">
        <ele>451.6</ele>
        <time>2020-08-22 10:55:52</time>
      </trkpt>
      <trkpt lat="41.2374" lon="1.09875">
        <ele>451.2</ele>
        <time>2020-08-22 10:55:53</time>
      </trkpt>
      <trkpt lat="41.23737" lon="1.09881">
        <ele>450.6</ele>
        <time>2020-08-22 10:55:54</time>
      </trkpt>
      <trkpt lat="41.23733" lon="1.09888">
        <ele>450.2</ele>
        <time>2020-08-22 10:55:55</time>
      </trkpt>
      <trkpt lat="41.23726" lon="1.09894">
        <ele>449.2</ele>
        <time>2020-08-22 10:55:56</time>
      </trkpt>
      <trkpt lat="41.2372" lon="1.09896">
        <ele>448.6</ele>
        <time>2020-08-22 10:55:57</time>
      </trkpt>
      <trkpt lat="41.23711" lon="1.09897">
        <ele>448.4</ele>
        <time>2020-08-22 10:55:58</time>
      </trkpt>
      <trkpt lat="41.23703" lon="1.09897">
        <ele>447.8</ele>
        <time>2020-08-22 10:55:59</time>
      </trkpt>
      <trkpt lat="41.23687" lon="1.09901">
        <ele>447.4</ele>
        <time>2020-08-22 10:56:01</time>
      </trkpt>
      <trkpt lat="41.23681" lon="1.09907">
        <ele>447.2</ele>
        <time>2020-08-22 10:56:02</time>
      </trkpt>
      <trkpt lat="41.23676" lon="1.09913">
        <ele>446</ele>
        <time>2020-08-22 10:56:03</time>
      </trkpt>
      <trkpt lat="41.2367" lon="1.0992">
        <ele>445.6</ele>
        <time>2020-08-22 10:56:04</time>
      </trkpt>
      <trkpt lat="41.23664" lon="1.09924">
        <ele>444</ele>
        <time>2020-08-22 10:56:05</time>
      </trkpt>
      <trkpt lat="41.23659" lon="1.09923">
        <ele>442.2</ele>
        <time>2020-08-22 10:56:06</time>
      </trkpt>
      <trkpt lat="41.23653" lon="1.0992">
        <ele>441.6</ele>
        <time>2020-08-22 10:56:07</time>
      </trkpt>
      <trkpt lat="41.23647" lon="1.09914">
        <ele>440.2</ele>
        <time>2020-08-22 10:56:08</time>
      </trkpt>
      <trkpt lat="41.23641" lon="1.09906">
        <ele>439.6</ele>
        <time>2020-08-22 10:56:09</time>
      </trkpt>
      <trkpt lat="41.23636" lon="1.09898">
        <ele>438</ele>
        <time>2020-08-22 10:56:10</time>
      </trkpt>
      <trkpt lat="41.23624" lon="1.09879">
        <ele>436.2</ele>
        <time>2020-08-22 10:56:12</time>
      </trkpt>
      <trkpt lat="41.23618" lon="1.0987">
        <ele>435.8</ele>
        <time>2020-08-22 10:56:13</time>
      </trkpt>
      <trkpt lat="41.23611" lon="1.0986">
        <ele>434.4</ele>
        <time>2020-08-22 10:56:14</time>
      </trkpt>
      <trkpt lat="41.23607" lon="1.0985">
        <ele>433.4</ele>
        <time>2020-08-22 10:56:15</time>
      </trkpt>
      <trkpt lat="41.23606" lon="1.09842">
        <ele>433</ele>
        <time>2020-08-22 10:56:16</time>
      </trkpt>
      <trkpt lat="41.23605" lon="1.09832">
        <ele>432.6</ele>
        <time>2020-08-22 10:56:17</time>
      </trkpt>
      <trkpt lat="41.23603" lon="1.09822">
        <ele>432.6</ele>
        <time>2020-08-22 10:56:18</time>
      </trkpt>
      <trkpt lat="41.236" lon="1.09812">
        <ele>431.2</ele>
        <time>2020-08-22 10:56:19</time>
      </trkpt>
      <trkpt lat="41.23596" lon="1.09802">
        <ele>430.8</ele>
        <time>2020-08-22 10:56:20</time>
      </trkpt>
      <trkpt lat="41.23592" lon="1.09792">
        <ele>429.8</ele>
        <time>2020-08-22 10:56:21</time>
      </trkpt>
      <trkpt lat="41.23587" lon="1.09783">
        <ele>429.4</ele>
        <time>2020-08-22 10:56:22</time>
      </trkpt>
      <trkpt lat="41.23582" lon="1.09774">
        <ele>428.8</ele>
        <time>2020-08-22 10:56:23</time>
      </trkpt>
      <trkpt lat="41.23576" lon="1.09767">
        <ele>428.2</ele>
        <time>2020-08-22 10:56:24</time>
      </trkpt>
      <trkpt lat="41.23571" lon="1.09764">
        <ele>427.8</ele>
        <time>2020-08-22 10:56:25</time>
      </trkpt>
      <trkpt lat="41.23565" lon="1.09763">
        <ele>427.6</ele>
        <time>2020-08-22 10:56:26</time>
      </trkpt>
      <trkpt lat="41.23559" lon="1.09762">
        <ele>427.6</ele>
        <time>2020-08-22 10:56:27</time>
      </trkpt>
      <trkpt lat="41.23554" lon="1.09761">
        <ele>427</ele>
        <time>2020-08-22 10:56:28</time>
      </trkpt>
      <trkpt lat="41.23546" lon="1.09759">
        <ele>426.8</ele>
        <time>2020-08-22 10:56:29</time>
      </trkpt>
      <trkpt lat="41.23541" lon="1.09759">
        <ele>426.6</ele>
        <time>2020-08-22 10:56:30</time>
      </trkpt>
      <trkpt lat="41.23535" lon="1.09759">
        <ele>426.2</ele>
        <time>2020-08-22 10:56:31</time>
      </trkpt>
      <trkpt lat="41.23529" lon="1.0976">
        <ele>426.2</ele>
        <time>2020-08-22 10:56:32</time>
      </trkpt>
      <trkpt lat="41.23509" lon="1.09761">
        <ele>425.4</ele>
        <time>2020-08-22 10:56:35</time>
      </trkpt>
      <trkpt lat="41.23502" lon="1.09762">
        <ele>425.2</ele>
        <time>2020-08-22 10:56:36</time>
      </trkpt>
      <trkpt lat="41.23497" lon="1.09764">
        <ele>425.2</ele>
        <time>2020-08-22 10:56:37</time>
      </trkpt>
      <trkpt lat="41.23485" lon="1.0977">
        <ele>425.2</ele>
        <time>2020-08-22 10:56:39</time>
      </trkpt>
      <trkpt lat="41.2348" lon="1.09774">
        <ele>425.2</ele>
        <time>2020-08-22 10:56:40</time>
      </trkpt>
      <trkpt lat="41.23475" lon="1.09778">
        <ele>425</ele>
        <time>2020-08-22 10:56:41</time>
      </trkpt>
      <trkpt lat="41.2347" lon="1.09781">
        <ele>425</ele>
        <time>2020-08-22 10:56:42</time>
      </trkpt>
      <trkpt lat="41.23465" lon="1.09784">
        <ele>425</ele>
        <time>2020-08-22 10:56:43</time>
      </trkpt>
      <trkpt lat="41.23459" lon="1.09787">
        <ele>425</ele>
        <time>2020-08-22 10:56:44</time>
      </trkpt>
      <trkpt lat="41.23455" lon="1.09788">
        <ele>425</ele>
        <time>2020-08-22 10:56:45</time>
      </trkpt>
      <trkpt lat="41.23449" lon="1.09789">
        <ele>425</ele>
        <time>2020-08-22 10:56:46</time>
      </trkpt>
      <trkpt lat="41.23443" lon="1.0979">
        <ele>425</ele>
        <time>2020-08-22 10:56:47</time>
      </trkpt>
      <trkpt lat="41.23438" lon="1.09792">
        <ele>425</ele>
        <time>2020-08-22 10:56:48</time>
      </trkpt>
      <trkpt lat="41.23432" lon="1.09793">
        <ele>425</ele>
        <time>2020-08-22 10:56:49</time>
      </trkpt>
      <trkpt lat="41.23428" lon="1.09794">
        <ele>425</ele>
        <time>2020-08-22 10:56:50</time>
      </trkpt>
      <trkpt lat="41.23423" lon="1.09795">
        <ele>425.2</ele>
        <time>2020-08-22 10:56:51</time>
      </trkpt>
      <trkpt lat="41.23418" lon="1.09796">
        <ele>425.2</ele>
        <time>2020-08-22 10:56:52</time>
      </trkpt>
      <trkpt lat="41.23413" lon="1.09796">
        <ele>425.4</ele>
        <time>2020-08-22 10:56:53</time>
      </trkpt>
      <trkpt lat="41.23408" lon="1.09796">
        <ele>425.4</ele>
        <time>2020-08-22 10:56:54</time>
      </trkpt>
      <trkpt lat="41.23402" lon="1.09794">
        <ele>425.8</ele>
        <time>2020-08-22 10:56:55</time>
      </trkpt>
      <trkpt lat="41.23398" lon="1.09792">
        <ele>425.8</ele>
        <time>2020-08-22 10:56:56</time>
      </trkpt>
      <trkpt lat="41.23394" lon="1.09789">
        <ele>426</ele>
        <time>2020-08-22 10:56:57</time>
      </trkpt>
      <trkpt lat="41.2339" lon="1.09785">
        <ele>426.2</ele>
        <time>2020-08-22 10:56:58</time>
      </trkpt>
      <trkpt lat="41.23386" lon="1.09781">
        <ele>426.2</ele>
        <time>2020-08-22 10:56:59</time>
      </trkpt>
      <trkpt lat="41.23383" lon="1.09777">
        <ele>426.4</ele>
        <time>2020-08-22 10:57:00</time>
      </trkpt>
      <trkpt lat="41.23379" lon="1.09772">
        <ele>426.4</ele>
        <time>2020-08-22 10:57:01</time>
      </trkpt>
      <trkpt lat="41.23376" lon="1.09767">
        <ele>426.4</ele>
        <time>2020-08-22 10:57:02</time>
      </trkpt>
      <trkpt lat="41.23372" lon="1.09763">
        <ele>426.6</ele>
        <time>2020-08-22 10:57:03</time>
      </trkpt>
      <trkpt lat="41.23368" lon="1.09759">
        <ele>426.6</ele>
        <time>2020-08-22 10:57:04</time>
      </trkpt>
      <trkpt lat="41.23352" lon="1.09749">
        <ele>426.4</ele>
        <time>2020-08-22 10:57:07</time>
      </trkpt>
      <trkpt lat="41.2334" lon="1.09749">
        <ele>426.4</ele>
        <time>2020-08-22 10:57:09</time>
      </trkpt>
      <trkpt lat="41.23332" lon="1.09749">
        <ele>426.4</ele>
        <time>2020-08-22 10:57:10</time>
      </trkpt>
      <trkpt lat="41.23327" lon="1.09748">
        <ele>426.2</ele>
        <time>2020-08-22 10:57:11</time>
      </trkpt>
      <trkpt lat="41.23319" lon="1.09747">
        <ele>426.2</ele>
        <time>2020-08-22 10:57:12</time>
      </trkpt>
      <trkpt lat="41.23289" lon="1.09737">
        <ele>424.4</ele>
        <time>2020-08-22 10:57:16</time>
      </trkpt>
      <trkpt lat="41.23282" lon="1.09732">
        <ele>424.2</ele>
        <time>2020-08-22 10:57:17</time>
      </trkpt>
      <trkpt lat="41.23268" lon="1.09724">
        <ele>423.4</ele>
        <time>2020-08-22 10:57:19</time>
      </trkpt>
      <trkpt lat="41.23262" lon="1.0972">
        <ele>423.4</ele>
        <time>2020-08-22 10:57:20</time>
      </trkpt>
      <trkpt lat="41.23255" lon="1.09719">
        <ele>423.2</ele>
        <time>2020-08-22 10:57:21</time>
      </trkpt>
      <trkpt lat="41.23248" lon="1.09719">
        <ele>423</ele>
        <time>2020-08-22 10:57:22</time>
      </trkpt>
      <trkpt lat="41.23241" lon="1.09718">
        <ele>423</ele>
        <time>2020-08-22 10:57:23</time>
      </trkpt>
      <trkpt lat="41.23235" lon="1.09716">
        <ele>422.8</ele>
        <time>2020-08-22 10:57:24</time>
      </trkpt>
      <trkpt lat="41.2323" lon="1.09714">
        <ele>422.6</ele>
        <time>2020-08-22 10:57:25</time>
      </trkpt>
      <trkpt lat="41.23227" lon="1.09713">
        <ele>422.4</ele>
        <time>2020-08-22 10:57:26</time>
      </trkpt>
      <trkpt lat="41.23225" lon="1.09712">
        <ele>422</ele>
        <time>2020-08-22 10:57:27</time>
      </trkpt>
      <trkpt lat="41.23223" lon="1.09712">
        <ele>421.8</ele>
        <time>2020-08-22 10:57:28</time>
      </trkpt>
      <trkpt lat="41.23221" lon="1.09712">
        <ele>420.6</ele>
        <time>2020-08-22 10:57:29</time>
      </trkpt>
      <trkpt lat="41.23219" lon="1.09713">
        <ele>420.2</ele>
        <time>2020-08-22 10:57:30</time>
      </trkpt>
      <trkpt lat="41.23216" lon="1.09713">
        <ele>419.6</ele>
        <time>2020-08-22 10:57:31</time>
      </trkpt>
      <trkpt lat="41.23212" lon="1.09712">
        <ele>419.2</ele>
        <time>2020-08-22 10:57:32</time>
      </trkpt>
      <trkpt lat="41.23203" lon="1.09712">
        <ele>418.8</ele>
        <time>2020-08-22 10:57:34</time>
      </trkpt>
      <trkpt lat="41.23191" lon="1.09708">
        <ele>418.8</ele>
        <time>2020-08-22 10:57:36</time>
      </trkpt>
      <trkpt lat="41.23186" lon="1.09706">
        <ele>418.6</ele>
        <time>2020-08-22 10:57:37</time>
      </trkpt>
      <trkpt lat="41.23158" lon="1.09689">
        <ele>418</ele>
        <time>2020-08-22 10:57:41</time>
      </trkpt>
      <trkpt lat="41.23152" lon="1.09685">
        <ele>418.2</ele>
        <time>2020-08-22 10:57:42</time>
      </trkpt>
      <trkpt lat="41.23146" lon="1.0968">
        <ele>417.4</ele>
        <time>2020-08-22 10:57:43</time>
      </trkpt>
      <trkpt lat="41.23142" lon="1.09678">
        <ele>417</ele>
        <time>2020-08-22 10:57:44</time>
      </trkpt>
      <trkpt lat="41.23139" lon="1.09678">
        <ele>415.4</ele>
        <time>2020-08-22 10:57:45</time>
      </trkpt>
      <trkpt lat="41.23138" lon="1.09681">
        <ele>414.8</ele>
        <time>2020-08-22 10:57:46</time>
      </trkpt>
      <trkpt lat="41.23139" lon="1.09687">
        <ele>413.8</ele>
        <time>2020-08-22 10:57:47</time>
      </trkpt>
      <trkpt lat="41.23142" lon="1.09694">
        <ele>413.2</ele>
        <time>2020-08-22 10:57:48</time>
      </trkpt>
      <trkpt lat="41.23145" lon="1.09697">
        <ele>412.8</ele>
        <time>2020-08-22 10:57:49</time>
      </trkpt>
      <trkpt lat="41.2315" lon="1.09701">
        <ele>412.4</ele>
        <time>2020-08-22 10:57:50</time>
      </trkpt>
      <trkpt lat="41.23153" lon="1.09705">
        <ele>412.2</ele>
        <time>2020-08-22 10:57:51</time>
      </trkpt>
      <trkpt lat="41.23157" lon="1.09712">
        <ele>411.2</ele>
        <time>2020-08-22 10:57:52</time>
      </trkpt>
      <trkpt lat="41.23162" lon="1.09719">
        <ele>410.6</ele>
        <time>2020-08-22 10:57:53</time>
      </trkpt>
      <trkpt lat="41.23168" lon="1.09726">
        <ele>409.8</ele>
        <time>2020-08-22 10:57:54</time>
      </trkpt>
      <trkpt lat="41.23179" lon="1.09739">
        <ele>408.4</ele>
        <time>2020-08-22 10:57:56</time>
      </trkpt>
      <trkpt lat="41.2318" lon="1.09745">
        <ele>407.2</ele>
        <time>2020-08-22 10:57:57</time>
      </trkpt>
      <trkpt lat="41.23178" lon="1.0975">
        <ele>406.8</ele>
        <time>2020-08-22 10:57:58</time>
      </trkpt>
      <trkpt lat="41.23175" lon="1.09754">
        <ele>405.6</ele>
        <time>2020-08-22 10:57:59</time>
      </trkpt>
      <trkpt lat="41.2317" lon="1.09753">
        <ele>405.4</ele>
        <time>2020-08-22 10:58:00</time>
      </trkpt>
      <trkpt lat="41.23167" lon="1.09752">
        <ele>404.2</ele>
        <time>2020-08-22 10:58:01</time>
      </trkpt>
      <trkpt lat="41.23162" lon="1.0975">
        <ele>403.6</ele>
        <time>2020-08-22 10:58:02</time>
      </trkpt>
      <trkpt lat="41.23155" lon="1.09745">
        <ele>402.6</ele>
        <time>2020-08-22 10:58:03</time>
      </trkpt>
      <trkpt lat="41.23145" lon="1.0974">
        <ele>402.2</ele>
        <time>2020-08-22 10:58:04</time>
      </trkpt>
      <trkpt lat="41.23137" lon="1.09736">
        <ele>400.8</ele>
        <time>2020-08-22 10:58:05</time>
      </trkpt>
      <trkpt lat="41.23128" lon="1.09732">
        <ele>399.6</ele>
        <time>2020-08-22 10:58:06</time>
      </trkpt>
      <trkpt lat="41.2312" lon="1.09728">
        <ele>399.2</ele>
        <time>2020-08-22 10:58:07</time>
      </trkpt>
      <trkpt lat="41.2311" lon="1.09724">
        <ele>398.4</ele>
        <time>2020-08-22 10:58:08</time>
      </trkpt>
      <trkpt lat="41.231" lon="1.09719">
        <ele>398.2</ele>
        <time>2020-08-22 10:58:09</time>
      </trkpt>
      <trkpt lat="41.2309" lon="1.09714">
        <ele>396</ele>
        <time>2020-08-22 10:58:10</time>
      </trkpt>
      <trkpt lat="41.23071" lon="1.09706">
        <ele>394.2</ele>
        <time>2020-08-22 10:58:12</time>
      </trkpt>
      <trkpt lat="41.23063" lon="1.09702">
        <ele>394</ele>
        <time>2020-08-22 10:58:13</time>
      </trkpt>
      <trkpt lat="41.23053" lon="1.09696">
        <ele>393.4</ele>
        <time>2020-08-22 10:58:14</time>
      </trkpt>
      <trkpt lat="41.23047" lon="1.09692">
        <ele>392.4</ele>
        <time>2020-08-22 10:58:15</time>
      </trkpt>
      <trkpt lat="41.23039" lon="1.09687">
        <ele>391.6</ele>
        <time>2020-08-22 10:58:16</time>
      </trkpt>
      <trkpt lat="41.23033" lon="1.09683">
        <ele>390.4</ele>
        <time>2020-08-22 10:58:17</time>
      </trkpt>
      <trkpt lat="41.23026" lon="1.09679">
        <ele>389.8</ele>
        <time>2020-08-22 10:58:18</time>
      </trkpt>
      <trkpt lat="41.23021" lon="1.09677">
        <ele>389</ele>
        <time>2020-08-22 10:58:19</time>
      </trkpt>
      <trkpt lat="41.23018" lon="1.0968">
        <ele>388.4</ele>
        <time>2020-08-22 10:58:20</time>
      </trkpt>
      <trkpt lat="41.23016" lon="1.09686">
        <ele>387.2</ele>
        <time>2020-08-22 10:58:21</time>
      </trkpt>
      <trkpt lat="41.23017" lon="1.09693">
        <ele>386.2</ele>
        <time>2020-08-22 10:58:22</time>
      </trkpt>
      <trkpt lat="41.2302" lon="1.09701">
        <ele>384.4</ele>
        <time>2020-08-22 10:58:23</time>
      </trkpt>
      <trkpt lat="41.23025" lon="1.0971">
        <ele>382.8</ele>
        <time>2020-08-22 10:58:24</time>
      </trkpt>
      <trkpt lat="41.2303" lon="1.09719">
        <ele>382</ele>
        <time>2020-08-22 10:58:25</time>
      </trkpt>
      <trkpt lat="41.23035" lon="1.09728">
        <ele>380.8</ele>
        <time>2020-08-22 10:58:26</time>
      </trkpt>
      <trkpt lat="41.23047" lon="1.09748">
        <ele>379</ele>
        <time>2020-08-22 10:58:28</time>
      </trkpt>
      <trkpt lat="41.23055" lon="1.0976">
        <ele>378.6</ele>
        <time>2020-08-22 10:58:29</time>
      </trkpt>
      <trkpt lat="41.23062" lon="1.09769">
        <ele>377</ele>
        <time>2020-08-22 10:58:30</time>
      </trkpt>
      <trkpt lat="41.23069" lon="1.09776">
        <ele>376.2</ele>
        <time>2020-08-22 10:58:31</time>
      </trkpt>
      <trkpt lat="41.23074" lon="1.0978">
        <ele>375.6</ele>
        <time>2020-08-22 10:58:32</time>
      </trkpt>
      <trkpt lat="41.23079" lon="1.09785">
        <ele>374.8</ele>
        <time>2020-08-22 10:58:33</time>
      </trkpt>
      <trkpt lat="41.23084" lon="1.09789">
        <ele>374.2</ele>
        <time>2020-08-22 10:58:34</time>
      </trkpt>
      <trkpt lat="41.23086" lon="1.09794">
        <ele>373.6</ele>
        <time>2020-08-22 10:58:35</time>
      </trkpt>
      <trkpt lat="41.23087" lon="1.09798">
        <ele>373.4</ele>
        <time>2020-08-22 10:58:36</time>
      </trkpt>
      <trkpt lat="41.23087" lon="1.09801">
        <ele>371.8</ele>
        <time>2020-08-22 10:58:37</time>
      </trkpt>
      <trkpt lat="41.23086" lon="1.09804">
        <ele>371</ele>
        <time>2020-08-22 10:58:38</time>
      </trkpt>
      <trkpt lat="41.23084" lon="1.09806">
        <ele>370</ele>
        <time>2020-08-22 10:58:39</time>
      </trkpt>
      <trkpt lat="41.23082" lon="1.09805">
        <ele>369.6</ele>
        <time>2020-08-22 10:58:40</time>
      </trkpt>
      <trkpt lat="41.23079" lon="1.09803">
        <ele>369.4</ele>
        <time>2020-08-22 10:58:41</time>
      </trkpt>
      <trkpt lat="41.23076" lon="1.098">
        <ele>369.4</ele>
        <time>2020-08-22 10:58:42</time>
      </trkpt>
      <trkpt lat="41.23069" lon="1.09793">
        <ele>369.2</ele>
        <time>2020-08-22 10:58:44</time>
      </trkpt>
      <trkpt lat="41.23062" lon="1.09787">
        <ele>369.2</ele>
        <time>2020-08-22 10:58:46</time>
      </trkpt>
      <trkpt lat="41.23059" lon="1.09783">
        <ele>369.2</ele>
        <time>2020-08-22 10:58:47</time>
      </trkpt>
      <trkpt lat="41.23041" lon="1.09761">
        <ele>369.6</ele>
        <time>2020-08-22 10:58:52</time>
      </trkpt>
      <trkpt lat="41.23038" lon="1.09755">
        <ele>369.8</ele>
        <time>2020-08-22 10:58:53</time>
      </trkpt>
      <trkpt lat="41.23028" lon="1.0974">
        <ele>370.2</ele>
        <time>2020-08-22 10:58:56</time>
      </trkpt>
      <trkpt lat="41.23025" lon="1.09734">
        <ele>370.4</ele>
        <time>2020-08-22 10:58:57</time>
      </trkpt>
      <trkpt lat="41.23021" lon="1.09729">
        <ele>370.4</ele>
        <time>2020-08-22 10:58:58</time>
      </trkpt>
      <trkpt lat="41.23018" lon="1.09723">
        <ele>370.6</ele>
        <time>2020-08-22 10:58:59</time>
      </trkpt>
      <trkpt lat="41.23015" lon="1.09717">
        <ele>370.6</ele>
        <time>2020-08-22 10:59:00</time>
      </trkpt>
      <trkpt lat="41.23012" lon="1.09712">
        <ele>370.6</ele>
        <time>2020-08-22 10:59:01</time>
      </trkpt>
      <trkpt lat="41.23009" lon="1.09706">
        <ele>370.8</ele>
        <time>2020-08-22 10:59:02</time>
      </trkpt>
      <trkpt lat="41.22995" lon="1.09681">
        <ele>370.8</ele>
        <time>2020-08-22 10:59:06</time>
      </trkpt>
      <trkpt lat="41.22985" lon="1.09663">
        <ele>371</ele>
        <time>2020-08-22 10:59:09</time>
      </trkpt>
      <trkpt lat="41.22955" lon="1.09611">
        <ele>370.6</ele>
        <time>2020-08-22 10:59:17</time>
      </trkpt>
      <trkpt lat="41.22924" lon="1.09549">
        <ele>369.4</ele>
        <time>2020-08-22 10:59:25</time>
      </trkpt>
      <trkpt lat="41.22911" lon="1.09512">
        <ele>369.2</ele>
        <time>2020-08-22 10:59:30</time>
      </trkpt>
      <trkpt lat="41.22909" lon="1.09504">
        <ele>369.2</ele>
        <time>2020-08-22 10:59:31</time>
      </trkpt>
      <trkpt lat="41.22908" lon="1.09497">
        <ele>369.4</ele>
        <time>2020-08-22 10:59:32</time>
      </trkpt>
      <trkpt lat="41.22906" lon="1.0949">
        <ele>369.4</ele>
        <time>2020-08-22 10:59:33</time>
      </trkpt>
      <trkpt lat="41.22905" lon="1.0948">
        <ele>369.4</ele>
        <time>2020-08-22 10:59:34</time>
      </trkpt>
      <trkpt lat="41.22904" lon="1.09474">
        <ele>369.6</ele>
        <time>2020-08-22 10:59:35</time>
      </trkpt>
      <trkpt lat="41.22903" lon="1.09466">
        <ele>369.6</ele>
        <time>2020-08-22 10:59:36</time>
      </trkpt>
      <trkpt lat="41.22901" lon="1.09457">
        <ele>369.8</ele>
        <time>2020-08-22 10:59:37</time>
      </trkpt>
      <trkpt lat="41.229" lon="1.09452">
        <ele>369.8</ele>
        <time>2020-08-22 10:59:38</time>
      </trkpt>
      <trkpt lat="41.229" lon="1.09444">
        <ele>370</ele>
        <time>2020-08-22 10:59:39</time>
      </trkpt>
      <trkpt lat="41.229" lon="1.09435">
        <ele>370</ele>
        <time>2020-08-22 10:59:40</time>
      </trkpt>
      <trkpt lat="41.229" lon="1.09428">
        <ele>370.2</ele>
        <time>2020-08-22 10:59:41</time>
      </trkpt>
      <trkpt lat="41.22899" lon="1.09421">
        <ele>370.2</ele>
        <time>2020-08-22 10:59:42</time>
      </trkpt>
      <trkpt lat="41.229" lon="1.09416">
        <ele>370.4</ele>
        <time>2020-08-22 10:59:43</time>
      </trkpt>
      <trkpt lat="41.229" lon="1.09408">
        <ele>370.6</ele>
        <time>2020-08-22 10:59:44</time>
      </trkpt>
      <trkpt lat="41.229" lon="1.09403">
        <ele>371</ele>
        <time>2020-08-22 10:59:45</time>
      </trkpt>
      <trkpt lat="41.22901" lon="1.09397">
        <ele>371.2</ele>
        <time>2020-08-22 10:59:46</time>
      </trkpt>
      <trkpt lat="41.22901" lon="1.09392">
        <ele>371.4</ele>
        <time>2020-08-22 10:59:47</time>
      </trkpt>
      <trkpt lat="41.22902" lon="1.09387">
        <ele>371.8</ele>
        <time>2020-08-22 10:59:48</time>
      </trkpt>
      <trkpt lat="41.22902" lon="1.09382">
        <ele>371.8</ele>
        <time>2020-08-22 10:59:49</time>
      </trkpt>
      <trkpt lat="41.22903" lon="1.09377">
        <ele>372</ele>
        <time>2020-08-22 10:59:50</time>
      </trkpt>
      <trkpt lat="41.22904" lon="1.09371">
        <ele>372</ele>
        <time>2020-08-22 10:59:51</time>
      </trkpt>
      <trkpt lat="41.22904" lon="1.09366">
        <ele>372.4</ele>
        <time>2020-08-22 10:59:52</time>
      </trkpt>
      <trkpt lat="41.22904" lon="1.0936">
        <ele>372.6</ele>
        <time>2020-08-22 10:59:53</time>
      </trkpt>
      <trkpt lat="41.22906" lon="1.09354">
        <ele>372.8</ele>
        <time>2020-08-22 10:59:54</time>
      </trkpt>
      <trkpt lat="41.22906" lon="1.0935">
        <ele>373</ele>
        <time>2020-08-22 10:59:55</time>
      </trkpt>
      <trkpt lat="41.22907" lon="1.09345">
        <ele>373.6</ele>
        <time>2020-08-22 10:59:56</time>
      </trkpt>
      <trkpt lat="41.22908" lon="1.0934">
        <ele>374</ele>
        <time>2020-08-22 10:59:57</time>
      </trkpt>
      <trkpt lat="41.22909" lon="1.09335">
        <ele>374.2</ele>
        <time>2020-08-22 10:59:58</time>
      </trkpt>
      <trkpt lat="41.2291" lon="1.09329">
        <ele>374.6</ele>
        <time>2020-08-22 10:59:59</time>
      </trkpt>
      <trkpt lat="41.22911" lon="1.09324">
        <ele>374.8</ele>
        <time>2020-08-22 11:00:00</time>
      </trkpt>
      <trkpt lat="41.22912" lon="1.09318">
        <ele>375.2</ele>
        <time>2020-08-22 11:00:01</time>
      </trkpt>
      <trkpt lat="41.22913" lon="1.09314">
        <ele>375.2</ele>
        <time>2020-08-22 11:00:02</time>
      </trkpt>
      <trkpt lat="41.22914" lon="1.09309">
        <ele>375.8</ele>
        <time>2020-08-22 11:00:03</time>
      </trkpt>
      <trkpt lat="41.22915" lon="1.09304">
        <ele>376</ele>
        <time>2020-08-22 11:00:04</time>
      </trkpt>
      <trkpt lat="41.22915" lon="1.09299">
        <ele>376.4</ele>
        <time>2020-08-22 11:00:05</time>
      </trkpt>
      <trkpt lat="41.22916" lon="1.09293">
        <ele>376.8</ele>
        <time>2020-08-22 11:00:06</time>
      </trkpt>
      <trkpt lat="41.22917" lon="1.09289">
        <ele>377.2</ele>
        <time>2020-08-22 11:00:07</time>
      </trkpt>
      <trkpt lat="41.22918" lon="1.09284">
        <ele>377.8</ele>
        <time>2020-08-22 11:00:08</time>
      </trkpt>
      <trkpt lat="41.22919" lon="1.09279">
        <ele>378</ele>
        <time>2020-08-22 11:00:09</time>
      </trkpt>
      <trkpt lat="41.2292" lon="1.09275">
        <ele>378.4</ele>
        <time>2020-08-22 11:00:10</time>
      </trkpt>
      <trkpt lat="41.2292" lon="1.0927">
        <ele>378.6</ele>
        <time>2020-08-22 11:00:11</time>
      </trkpt>
      <trkpt lat="41.22921" lon="1.09266">
        <ele>379.2</ele>
        <time>2020-08-22 11:00:12</time>
      </trkpt>
      <trkpt lat="41.22922" lon="1.09261">
        <ele>379.4</ele>
        <time>2020-08-22 11:00:13</time>
      </trkpt>
      <trkpt lat="41.22922" lon="1.09257">
        <ele>379.8</ele>
        <time>2020-08-22 11:00:14</time>
      </trkpt>
      <trkpt lat="41.22923" lon="1.09252">
        <ele>380.2</ele>
        <time>2020-08-22 11:00:15</time>
      </trkpt>
      <trkpt lat="41.22923" lon="1.09248">
        <ele>380.4</ele>
        <time>2020-08-22 11:00:16</time>
      </trkpt>
      <trkpt lat="41.22924" lon="1.09244">
        <ele>380.8</ele>
        <time>2020-08-22 11:00:17</time>
      </trkpt>
      <trkpt lat="41.22924" lon="1.09239">
        <ele>381.2</ele>
        <time>2020-08-22 11:00:18</time>
      </trkpt>
      <trkpt lat="41.22924" lon="1.09235">
        <ele>381.6</ele>
        <time>2020-08-22 11:00:19</time>
      </trkpt>
      <trkpt lat="41.22925" lon="1.0923">
        <ele>382</ele>
        <time>2020-08-22 11:00:20</time>
      </trkpt>
      <trkpt lat="41.22925" lon="1.09225">
        <ele>382.4</ele>
        <time>2020-08-22 11:00:21</time>
      </trkpt>
      <trkpt lat="41.22925" lon="1.09222">
        <ele>383</ele>
        <time>2020-08-22 11:00:22</time>
      </trkpt>
      <trkpt lat="41.22925" lon="1.09218">
        <ele>383.2</ele>
        <time>2020-08-22 11:00:23</time>
      </trkpt>
      <trkpt lat="41.22925" lon="1.09214">
        <ele>383.8</ele>
        <time>2020-08-22 11:00:24</time>
      </trkpt>
      <trkpt lat="41.22925" lon="1.0921">
        <ele>384</ele>
        <time>2020-08-22 11:00:25</time>
      </trkpt>
      <trkpt lat="41.22925" lon="1.09207">
        <ele>384.6</ele>
        <time>2020-08-22 11:00:26</time>
      </trkpt>
      <trkpt lat="41.22925" lon="1.09204">
        <ele>385</ele>
        <time>2020-08-22 11:00:27</time>
      </trkpt>
      <trkpt lat="41.22925" lon="1.092">
        <ele>385.2</ele>
        <time>2020-08-22 11:00:28</time>
      </trkpt>
      <trkpt lat="41.22925" lon="1.09197">
        <ele>385.6</ele>
        <time>2020-08-22 11:00:29</time>
      </trkpt>
      <trkpt lat="41.22925" lon="1.09193">
        <ele>386</ele>
        <time>2020-08-22 11:00:30</time>
      </trkpt>
      <trkpt lat="41.22925" lon="1.0919">
        <ele>386.4</ele>
        <time>2020-08-22 11:00:31</time>
      </trkpt>
      <trkpt lat="41.22924" lon="1.09186">
        <ele>386.8</ele>
        <time>2020-08-22 11:00:32</time>
      </trkpt>
      <trkpt lat="41.22924" lon="1.09182">
        <ele>387.2</ele>
        <time>2020-08-22 11:00:33</time>
      </trkpt>
      <trkpt lat="41.22923" lon="1.09178">
        <ele>387.4</ele>
        <time>2020-08-22 11:00:34</time>
      </trkpt>
      <trkpt lat="41.22923" lon="1.09173">
        <ele>387.8</ele>
        <time>2020-08-22 11:00:35</time>
      </trkpt>
      <trkpt lat="41.22923" lon="1.09169">
        <ele>388</ele>
        <time>2020-08-22 11:00:36</time>
      </trkpt>
      <trkpt lat="41.22922" lon="1.09166">
        <ele>388.4</ele>
        <time>2020-08-22 11:00:37</time>
      </trkpt>
      <trkpt lat="41.22922" lon="1.09162">
        <ele>388.4</ele>
        <time>2020-08-22 11:00:38</time>
      </trkpt>
      <trkpt lat="41.22921" lon="1.09158">
        <ele>388.8</ele>
        <time>2020-08-22 11:00:39</time>
      </trkpt>
      <trkpt lat="41.22921" lon="1.09154">
        <ele>389.2</ele>
        <time>2020-08-22 11:00:40</time>
      </trkpt>
      <trkpt lat="41.22921" lon="1.0915">
        <ele>389.4</ele>
        <time>2020-08-22 11:00:41</time>
      </trkpt>
      <trkpt lat="41.2292" lon="1.09146">
        <ele>389.8</ele>
        <time>2020-08-22 11:00:42</time>
      </trkpt>
      <trkpt lat="41.2292" lon="1.09142">
        <ele>389.8</ele>
        <time>2020-08-22 11:00:43</time>
      </trkpt>
      <trkpt lat="41.22919" lon="1.09138">
        <ele>390.4</ele>
        <time>2020-08-22 11:00:44</time>
      </trkpt>
      <trkpt lat="41.22918" lon="1.09134">
        <ele>390.6</ele>
        <time>2020-08-22 11:00:45</time>
      </trkpt>
      <trkpt lat="41.22918" lon="1.0913">
        <ele>391.2</ele>
        <time>2020-08-22 11:00:46</time>
      </trkpt>
      <trkpt lat="41.22917" lon="1.09126">
        <ele>391.4</ele>
        <time>2020-08-22 11:00:47</time>
      </trkpt>
      <trkpt lat="41.22916" lon="1.09123">
        <ele>392</ele>
        <time>2020-08-22 11:00:48</time>
      </trkpt>
      <trkpt lat="41.22915" lon="1.09119">
        <ele>392.4</ele>
        <time>2020-08-22 11:00:49</time>
      </trkpt>
      <trkpt lat="41.22914" lon="1.09115">
        <ele>392.6</ele>
        <time>2020-08-22 11:00:50</time>
      </trkpt>
      <trkpt lat="41.22913" lon="1.09112">
        <ele>393</ele>
        <time>2020-08-22 11:00:51</time>
      </trkpt>
      <trkpt lat="41.22912" lon="1.09108">
        <ele>393.2</ele>
        <time>2020-08-22 11:00:52</time>
      </trkpt>
      <trkpt lat="41.2291" lon="1.09104">
        <ele>393.6</ele>
        <time>2020-08-22 11:00:53</time>
      </trkpt>
      <trkpt lat="41.22909" lon="1.091">
        <ele>394</ele>
        <time>2020-08-22 11:00:54</time>
      </trkpt>
      <trkpt lat="41.22908" lon="1.09097">
        <ele>394.2</ele>
        <time>2020-08-22 11:00:55</time>
      </trkpt>
      <trkpt lat="41.22907" lon="1.09093">
        <ele>394.6</ele>
        <time>2020-08-22 11:00:56</time>
      </trkpt>
      <trkpt lat="41.22906" lon="1.0909">
        <ele>394.8</ele>
        <time>2020-08-22 11:00:57</time>
      </trkpt>
      <trkpt lat="41.22904" lon="1.09087">
        <ele>395.4</ele>
        <time>2020-08-22 11:00:58</time>
      </trkpt>
      <trkpt lat="41.22903" lon="1.09084">
        <ele>395.4</ele>
        <time>2020-08-22 11:00:59</time>
      </trkpt>
      <trkpt lat="41.22902" lon="1.0908">
        <ele>395.8</ele>
        <time>2020-08-22 11:01:00</time>
      </trkpt>
      <trkpt lat="41.229" lon="1.09077">
        <ele>396</ele>
        <time>2020-08-22 11:01:01</time>
      </trkpt>
      <trkpt lat="41.22899" lon="1.09074">
        <ele>396.8</ele>
        <time>2020-08-22 11:01:02</time>
      </trkpt>
      <trkpt lat="41.22898" lon="1.0907">
        <ele>397</ele>
        <time>2020-08-22 11:01:03</time>
      </trkpt>
      <trkpt lat="41.22897" lon="1.09066">
        <ele>397.2</ele>
        <time>2020-08-22 11:01:04</time>
      </trkpt>
      <trkpt lat="41.22896" lon="1.09062">
        <ele>397.6</ele>
        <time>2020-08-22 11:01:05</time>
      </trkpt>
      <trkpt lat="41.22894" lon="1.09058">
        <ele>397.6</ele>
        <time>2020-08-22 11:01:06</time>
      </trkpt>
      <trkpt lat="41.22893" lon="1.09056">
        <ele>398</ele>
        <time>2020-08-22 11:01:07</time>
      </trkpt>
      <trkpt lat="41.22892" lon="1.09051">
        <ele>398.2</ele>
        <time>2020-08-22 11:01:08</time>
      </trkpt>
      <trkpt lat="41.22891" lon="1.09048">
        <ele>398.8</ele>
        <time>2020-08-22 11:01:09</time>
      </trkpt>
      <trkpt lat="41.2289" lon="1.09044">
        <ele>399</ele>
        <time>2020-08-22 11:01:10</time>
      </trkpt>
      <trkpt lat="41.22889" lon="1.0904">
        <ele>399.4</ele>
        <time>2020-08-22 11:01:11</time>
      </trkpt>
      <trkpt lat="41.22888" lon="1.09037">
        <ele>399.6</ele>
        <time>2020-08-22 11:01:12</time>
      </trkpt>
      <trkpt lat="41.22887" lon="1.09034">
        <ele>400</ele>
        <time>2020-08-22 11:01:13</time>
      </trkpt>
      <trkpt lat="41.22885" lon="1.0903">
        <ele>400.4</ele>
        <time>2020-08-22 11:01:14</time>
      </trkpt>
      <trkpt lat="41.22884" lon="1.09027">
        <ele>400.6</ele>
        <time>2020-08-22 11:01:15</time>
      </trkpt>
      <trkpt lat="41.22883" lon="1.09024">
        <ele>401</ele>
        <time>2020-08-22 11:01:16</time>
      </trkpt>
      <trkpt lat="41.22882" lon="1.0902">
        <ele>401.2</ele>
        <time>2020-08-22 11:01:17</time>
      </trkpt>
      <trkpt lat="41.22881" lon="1.09017">
        <ele>401.4</ele>
        <time>2020-08-22 11:01:18</time>
      </trkpt>
      <trkpt lat="41.22879" lon="1.09013">
        <ele>401.6</ele>
        <time>2020-08-22 11:01:19</time>
      </trkpt>
      <trkpt lat="41.22877" lon="1.0901">
        <ele>402</ele>
        <time>2020-08-22 11:01:20</time>
      </trkpt>
      <trkpt lat="41.22876" lon="1.09006">
        <ele>402.2</ele>
        <time>2020-08-22 11:01:21</time>
      </trkpt>
      <trkpt lat="41.22875" lon="1.09003">
        <ele>402.8</ele>
        <time>2020-08-22 11:01:22</time>
      </trkpt>
      <trkpt lat="41.22874" lon="1.09">
        <ele>403.4</ele>
        <time>2020-08-22 11:01:23</time>
      </trkpt>
      <trkpt lat="41.22871" lon="1.08996">
        <ele>403.6</ele>
        <time>2020-08-22 11:01:24</time>
      </trkpt>
      <trkpt lat="41.2287" lon="1.08992">
        <ele>404</ele>
        <time>2020-08-22 11:01:25</time>
      </trkpt>
      <trkpt lat="41.22868" lon="1.08989">
        <ele>404.2</ele>
        <time>2020-08-22 11:01:26</time>
      </trkpt>
      <trkpt lat="41.22867" lon="1.08985">
        <ele>404.6</ele>
        <time>2020-08-22 11:01:27</time>
      </trkpt>
      <trkpt lat="41.22865" lon="1.08982">
        <ele>405</ele>
        <time>2020-08-22 11:01:28</time>
      </trkpt>
      <trkpt lat="41.22864" lon="1.08979">
        <ele>405.2</ele>
        <time>2020-08-22 11:01:29</time>
      </trkpt>
      <trkpt lat="41.22862" lon="1.08976">
        <ele>405.8</ele>
        <time>2020-08-22 11:01:30</time>
      </trkpt>
      <trkpt lat="41.22861" lon="1.08973">
        <ele>406</ele>
        <time>2020-08-22 11:01:31</time>
      </trkpt>
      <trkpt lat="41.22859" lon="1.0897">
        <ele>406.2</ele>
        <time>2020-08-22 11:01:32</time>
      </trkpt>
      <trkpt lat="41.22858" lon="1.08966">
        <ele>406.4</ele>
        <time>2020-08-22 11:01:33</time>
      </trkpt>
      <trkpt lat="41.22856" lon="1.08963">
        <ele>406.8</ele>
        <time>2020-08-22 11:01:34</time>
      </trkpt>
      <trkpt lat="41.22854" lon="1.0896">
        <ele>407</ele>
        <time>2020-08-22 11:01:35</time>
      </trkpt>
      <trkpt lat="41.22853" lon="1.08956">
        <ele>407.6</ele>
        <time>2020-08-22 11:01:36</time>
      </trkpt>
      <trkpt lat="41.22852" lon="1.08953">
        <ele>407.6</ele>
        <time>2020-08-22 11:01:37</time>
      </trkpt>
      <trkpt lat="41.2285" lon="1.08949">
        <ele>408.2</ele>
        <time>2020-08-22 11:01:38</time>
      </trkpt>
      <trkpt lat="41.22849" lon="1.08945">
        <ele>408.8</ele>
        <time>2020-08-22 11:01:39</time>
      </trkpt>
      <trkpt lat="41.22848" lon="1.08942">
        <ele>409</ele>
        <time>2020-08-22 11:01:40</time>
      </trkpt>
      <trkpt lat="41.22847" lon="1.08938">
        <ele>409.4</ele>
        <time>2020-08-22 11:01:41</time>
      </trkpt>
      <trkpt lat="41.22846" lon="1.08935">
        <ele>409.6</ele>
        <time>2020-08-22 11:01:42</time>
      </trkpt>
      <trkpt lat="41.22844" lon="1.08932">
        <ele>410.2</ele>
        <time>2020-08-22 11:01:43</time>
      </trkpt>
      <trkpt lat="41.22843" lon="1.08928">
        <ele>410.4</ele>
        <time>2020-08-22 11:01:44</time>
      </trkpt>
      <trkpt lat="41.22842" lon="1.08924">
        <ele>410.6</ele>
        <time>2020-08-22 11:01:45</time>
      </trkpt>
      <trkpt lat="41.2284" lon="1.0892">
        <ele>410.8</ele>
        <time>2020-08-22 11:01:46</time>
      </trkpt>
      <trkpt lat="41.22839" lon="1.08917">
        <ele>411.2</ele>
        <time>2020-08-22 11:01:47</time>
      </trkpt>
      <trkpt lat="41.22837" lon="1.08914">
        <ele>411.8</ele>
        <time>2020-08-22 11:01:48</time>
      </trkpt>
      <trkpt lat="41.22835" lon="1.0891">
        <ele>412</ele>
        <time>2020-08-22 11:01:49</time>
      </trkpt>
      <trkpt lat="41.22834" lon="1.08907">
        <ele>412.4</ele>
        <time>2020-08-22 11:01:50</time>
      </trkpt>
      <trkpt lat="41.22833" lon="1.08903">
        <ele>412.6</ele>
        <time>2020-08-22 11:01:51</time>
      </trkpt>
      <trkpt lat="41.22831" lon="1.089">
        <ele>413</ele>
        <time>2020-08-22 11:01:52</time>
      </trkpt>
      <trkpt lat="41.22829" lon="1.08897">
        <ele>413.2</ele>
        <time>2020-08-22 11:01:53</time>
      </trkpt>
      <trkpt lat="41.22828" lon="1.08894">
        <ele>413.6</ele>
        <time>2020-08-22 11:01:54</time>
      </trkpt>
      <trkpt lat="41.22826" lon="1.0889">
        <ele>413.8</ele>
        <time>2020-08-22 11:01:55</time>
      </trkpt>
      <trkpt lat="41.22824" lon="1.08887">
        <ele>414.2</ele>
        <time>2020-08-22 11:01:56</time>
      </trkpt>
      <trkpt lat="41.22823" lon="1.08884">
        <ele>414.4</ele>
        <time>2020-08-22 11:01:57</time>
      </trkpt>
      <trkpt lat="41.22821" lon="1.08881">
        <ele>414.4</ele>
        <time>2020-08-22 11:01:58</time>
      </trkpt>
      <trkpt lat="41.22819" lon="1.08877">
        <ele>415</ele>
        <time>2020-08-22 11:01:59</time>
      </trkpt>
      <trkpt lat="41.22817" lon="1.08874">
        <ele>415.2</ele>
        <time>2020-08-22 11:02:00</time>
      </trkpt>
      <trkpt lat="41.22816" lon="1.08872">
        <ele>415.6</ele>
        <time>2020-08-22 11:02:01</time>
      </trkpt>
      <trkpt lat="41.22814" lon="1.08868">
        <ele>415.6</ele>
        <time>2020-08-22 11:02:02</time>
      </trkpt>
      <trkpt lat="41.22812" lon="1.08864">
        <ele>416</ele>
        <time>2020-08-22 11:02:03</time>
      </trkpt>
      <trkpt lat="41.22811" lon="1.08861">
        <ele>416.4</ele>
        <time>2020-08-22 11:02:04</time>
      </trkpt>
      <trkpt lat="41.22809" lon="1.08858">
        <ele>416.4</ele>
        <time>2020-08-22 11:02:05</time>
      </trkpt>
      <trkpt lat="41.22807" lon="1.08855">
        <ele>416.8</ele>
        <time>2020-08-22 11:02:06</time>
      </trkpt>
      <trkpt lat="41.22805" lon="1.08852">
        <ele>417</ele>
        <time>2020-08-22 11:02:07</time>
      </trkpt>
      <trkpt lat="41.22803" lon="1.08849">
        <ele>417.4</ele>
        <time>2020-08-22 11:02:08</time>
      </trkpt>
      <trkpt lat="41.22801" lon="1.08845">
        <ele>417.2</ele>
        <time>2020-08-22 11:02:09</time>
      </trkpt>
      <trkpt lat="41.228" lon="1.08842">
        <ele>417.8</ele>
        <time>2020-08-22 11:02:10</time>
      </trkpt>
      <trkpt lat="41.22798" lon="1.08838">
        <ele>418</ele>
        <time>2020-08-22 11:02:11</time>
      </trkpt>
      <trkpt lat="41.22796" lon="1.08834">
        <ele>418.4</ele>
        <time>2020-08-22 11:02:12</time>
      </trkpt>
      <trkpt lat="41.22794" lon="1.08829">
        <ele>418.6</ele>
        <time>2020-08-22 11:02:13</time>
      </trkpt>
      <trkpt lat="41.22792" lon="1.08825">
        <ele>418.8</ele>
        <time>2020-08-22 11:02:14</time>
      </trkpt>
      <trkpt lat="41.22789" lon="1.08821">
        <ele>419.2</ele>
        <time>2020-08-22 11:02:15</time>
      </trkpt>
      <trkpt lat="41.22787" lon="1.08816">
        <ele>419.4</ele>
        <time>2020-08-22 11:02:16</time>
      </trkpt>
      <trkpt lat="41.22786" lon="1.08813">
        <ele>419.6</ele>
        <time>2020-08-22 11:02:17</time>
      </trkpt>
      <trkpt lat="41.22784" lon="1.08809">
        <ele>419.8</ele>
        <time>2020-08-22 11:02:18</time>
      </trkpt>
      <trkpt lat="41.22781" lon="1.08804">
        <ele>420</ele>
        <time>2020-08-22 11:02:19</time>
      </trkpt>
      <trkpt lat="41.22779" lon="1.088">
        <ele>420.2</ele>
        <time>2020-08-22 11:02:20</time>
      </trkpt>
      <trkpt lat="41.22777" lon="1.08796">
        <ele>420.8</ele>
        <time>2020-08-22 11:02:21</time>
      </trkpt>
      <trkpt lat="41.22775" lon="1.08792">
        <ele>421.2</ele>
        <time>2020-08-22 11:02:22</time>
      </trkpt>
      <trkpt lat="41.22773" lon="1.08788">
        <ele>421.4</ele>
        <time>2020-08-22 11:02:23</time>
      </trkpt>
      <trkpt lat="41.2277" lon="1.08783">
        <ele>421.8</ele>
        <time>2020-08-22 11:02:24</time>
      </trkpt>
      <trkpt lat="41.22768" lon="1.08779">
        <ele>422</ele>
        <time>2020-08-22 11:02:25</time>
      </trkpt>
      <trkpt lat="41.22766" lon="1.08775">
        <ele>422.2</ele>
        <time>2020-08-22 11:02:26</time>
      </trkpt>
      <trkpt lat="41.22764" lon="1.08771">
        <ele>422.4</ele>
        <time>2020-08-22 11:02:27</time>
      </trkpt>
      <trkpt lat="41.22762" lon="1.08767">
        <ele>422.6</ele>
        <time>2020-08-22 11:02:28</time>
      </trkpt>
      <trkpt lat="41.22759" lon="1.08763">
        <ele>422.8</ele>
        <time>2020-08-22 11:02:29</time>
      </trkpt>
      <trkpt lat="41.22757" lon="1.08759">
        <ele>423.2</ele>
        <time>2020-08-22 11:02:30</time>
      </trkpt>
      <trkpt lat="41.22754" lon="1.08755">
        <ele>423.4</ele>
        <time>2020-08-22 11:02:31</time>
      </trkpt>
      <trkpt lat="41.22752" lon="1.08751">
        <ele>423.6</ele>
        <time>2020-08-22 11:02:32</time>
      </trkpt>
      <trkpt lat="41.2275" lon="1.08747">
        <ele>423.8</ele>
        <time>2020-08-22 11:02:33</time>
      </trkpt>
      <trkpt lat="41.22748" lon="1.08744">
        <ele>424</ele>
        <time>2020-08-22 11:02:34</time>
      </trkpt>
      <trkpt lat="41.22746" lon="1.08739">
        <ele>424.2</ele>
        <time>2020-08-22 11:02:35</time>
      </trkpt>
      <trkpt lat="41.22743" lon="1.08735">
        <ele>424.2</ele>
        <time>2020-08-22 11:02:36</time>
      </trkpt>
      <trkpt lat="41.22742" lon="1.08732">
        <ele>424.4</ele>
        <time>2020-08-22 11:02:37</time>
      </trkpt>
      <trkpt lat="41.2274" lon="1.08727">
        <ele>424.8</ele>
        <time>2020-08-22 11:02:38</time>
      </trkpt>
      <trkpt lat="41.22737" lon="1.08722">
        <ele>424.8</ele>
        <time>2020-08-22 11:02:39</time>
      </trkpt>
      <trkpt lat="41.22734" lon="1.08719">
        <ele>424.8</ele>
        <time>2020-08-22 11:02:40</time>
      </trkpt>
      <trkpt lat="41.22732" lon="1.08715">
        <ele>425</ele>
        <time>2020-08-22 11:02:41</time>
      </trkpt>
      <trkpt lat="41.2273" lon="1.08711">
        <ele>425.4</ele>
        <time>2020-08-22 11:02:42</time>
      </trkpt>
      <trkpt lat="41.22728" lon="1.08707">
        <ele>425.4</ele>
        <time>2020-08-22 11:02:43</time>
      </trkpt>
      <trkpt lat="41.22725" lon="1.08703">
        <ele>425.6</ele>
        <time>2020-08-22 11:02:44</time>
      </trkpt>
      <trkpt lat="41.22722" lon="1.08698">
        <ele>425.6</ele>
        <time>2020-08-22 11:02:45</time>
      </trkpt>
      <trkpt lat="41.2272" lon="1.08694">
        <ele>426</ele>
        <time>2020-08-22 11:02:46</time>
      </trkpt>
      <trkpt lat="41.22717" lon="1.0869">
        <ele>426.2</ele>
        <time>2020-08-22 11:02:47</time>
      </trkpt>
      <trkpt lat="41.22715" lon="1.08686">
        <ele>426.2</ele>
        <time>2020-08-22 11:02:48</time>
      </trkpt>
      <trkpt lat="41.22712" lon="1.08682">
        <ele>426.4</ele>
        <time>2020-08-22 11:02:49</time>
      </trkpt>
      <trkpt lat="41.2271" lon="1.08678">
        <ele>426.6</ele>
        <time>2020-08-22 11:02:50</time>
      </trkpt>
      <trkpt lat="41.22707" lon="1.08674">
        <ele>426.6</ele>
        <time>2020-08-22 11:02:51</time>
      </trkpt>
      <trkpt lat="41.22705" lon="1.0867">
        <ele>426.8</ele>
        <time>2020-08-22 11:02:52</time>
      </trkpt>
      <trkpt lat="41.22703" lon="1.08667">
        <ele>427</ele>
        <time>2020-08-22 11:02:53</time>
      </trkpt>
      <trkpt lat="41.227" lon="1.08662">
        <ele>427.2</ele>
        <time>2020-08-22 11:02:54</time>
      </trkpt>
      <trkpt lat="41.22697" lon="1.08658">
        <ele>427.4</ele>
        <time>2020-08-22 11:02:55</time>
      </trkpt>
      <trkpt lat="41.22694" lon="1.08655">
        <ele>427.6</ele>
        <time>2020-08-22 11:02:56</time>
      </trkpt>
      <trkpt lat="41.22692" lon="1.08652">
        <ele>427.8</ele>
        <time>2020-08-22 11:02:57</time>
      </trkpt>
      <trkpt lat="41.2269" lon="1.08648">
        <ele>428</ele>
        <time>2020-08-22 11:02:58</time>
      </trkpt>
      <trkpt lat="41.22687" lon="1.08643">
        <ele>428</ele>
        <time>2020-08-22 11:02:59</time>
      </trkpt>
      <trkpt lat="41.22684" lon="1.0864">
        <ele>428.2</ele>
        <time>2020-08-22 11:03:00</time>
      </trkpt>
      <trkpt lat="41.22682" lon="1.08636">
        <ele>428.2</ele>
        <time>2020-08-22 11:03:01</time>
      </trkpt>
      <trkpt lat="41.2268" lon="1.08633">
        <ele>428.4</ele>
        <time>2020-08-22 11:03:02</time>
      </trkpt>
      <trkpt lat="41.22677" lon="1.08629">
        <ele>428.4</ele>
        <time>2020-08-22 11:03:03</time>
      </trkpt>
      <trkpt lat="41.22674" lon="1.08624">
        <ele>429</ele>
        <time>2020-08-22 11:03:04</time>
      </trkpt>
      <trkpt lat="41.22671" lon="1.0862">
        <ele>429.4</ele>
        <time>2020-08-22 11:03:05</time>
      </trkpt>
      <trkpt lat="41.22668" lon="1.08616">
        <ele>429.6</ele>
        <time>2020-08-22 11:03:06</time>
      </trkpt>
      <trkpt lat="41.22666" lon="1.08613">
        <ele>429.8</ele>
        <time>2020-08-22 11:03:07</time>
      </trkpt>
      <trkpt lat="41.22663" lon="1.0861">
        <ele>429.8</ele>
        <time>2020-08-22 11:03:08</time>
      </trkpt>
      <trkpt lat="41.2266" lon="1.08605">
        <ele>430</ele>
        <time>2020-08-22 11:03:09</time>
      </trkpt>
      <trkpt lat="41.22657" lon="1.08601">
        <ele>430.2</ele>
        <time>2020-08-22 11:03:10</time>
      </trkpt>
      <trkpt lat="41.22655" lon="1.08598">
        <ele>430.4</ele>
        <time>2020-08-22 11:03:11</time>
      </trkpt>
      <trkpt lat="41.22653" lon="1.08594">
        <ele>430.8</ele>
        <time>2020-08-22 11:03:12</time>
      </trkpt>
      <trkpt lat="41.2265" lon="1.0859">
        <ele>431</ele>
        <time>2020-08-22 11:03:13</time>
      </trkpt>
      <trkpt lat="41.22647" lon="1.08586">
        <ele>431.2</ele>
        <time>2020-08-22 11:03:14</time>
      </trkpt>
      <trkpt lat="41.22644" lon="1.08582">
        <ele>431.4</ele>
        <time>2020-08-22 11:03:15</time>
      </trkpt>
      <trkpt lat="41.22642" lon="1.08579">
        <ele>431.6</ele>
        <time>2020-08-22 11:03:16</time>
      </trkpt>
      <trkpt lat="41.22639" lon="1.08575">
        <ele>431.6</ele>
        <time>2020-08-22 11:03:17</time>
      </trkpt>
      <trkpt lat="41.22637" lon="1.08572">
        <ele>432</ele>
        <time>2020-08-22 11:03:18</time>
      </trkpt>
      <trkpt lat="41.22633" lon="1.08567">
        <ele>432.2</ele>
        <time>2020-08-22 11:03:19</time>
      </trkpt>
      <trkpt lat="41.22631" lon="1.08564">
        <ele>432.6</ele>
        <time>2020-08-22 11:03:20</time>
      </trkpt>
      <trkpt lat="41.22628" lon="1.0856">
        <ele>433</ele>
        <time>2020-08-22 11:03:21</time>
      </trkpt>
      <trkpt lat="41.22625" lon="1.08556">
        <ele>433</ele>
        <time>2020-08-22 11:03:22</time>
      </trkpt>
      <trkpt lat="41.22623" lon="1.08553">
        <ele>433.2</ele>
        <time>2020-08-22 11:03:23</time>
      </trkpt>
      <trkpt lat="41.2262" lon="1.08549">
        <ele>433.6</ele>
        <time>2020-08-22 11:03:24</time>
      </trkpt>
      <trkpt lat="41.22617" lon="1.08546">
        <ele>434</ele>
        <time>2020-08-22 11:03:25</time>
      </trkpt>
      <trkpt lat="41.22614" lon="1.08542">
        <ele>434.2</ele>
        <time>2020-08-22 11:03:26</time>
      </trkpt>
      <trkpt lat="41.22611" lon="1.08538">
        <ele>434.4</ele>
        <time>2020-08-22 11:03:27</time>
      </trkpt>
      <trkpt lat="41.22609" lon="1.08535">
        <ele>434.8</ele>
        <time>2020-08-22 11:03:28</time>
      </trkpt>
      <trkpt lat="41.22606" lon="1.08531">
        <ele>435.2</ele>
        <time>2020-08-22 11:03:29</time>
      </trkpt>
      <trkpt lat="41.22603" lon="1.08528">
        <ele>435.6</ele>
        <time>2020-08-22 11:03:30</time>
      </trkpt>
      <trkpt lat="41.22599" lon="1.08524">
        <ele>435.8</ele>
        <time>2020-08-22 11:03:31</time>
      </trkpt>
      <trkpt lat="41.22597" lon="1.0852">
        <ele>436.4</ele>
        <time>2020-08-22 11:03:32</time>
      </trkpt>
      <trkpt lat="41.22594" lon="1.08518">
        <ele>436.6</ele>
        <time>2020-08-22 11:03:33</time>
      </trkpt>
      <trkpt lat="41.22591" lon="1.08514">
        <ele>436.8</ele>
        <time>2020-08-22 11:03:34</time>
      </trkpt>
      <trkpt lat="41.22587" lon="1.0851">
        <ele>437</ele>
        <time>2020-08-22 11:03:35</time>
      </trkpt>
      <trkpt lat="41.22584" lon="1.08506">
        <ele>437.2</ele>
        <time>2020-08-22 11:03:36</time>
      </trkpt>
      <trkpt lat="41.22581" lon="1.08503">
        <ele>437.2</ele>
        <time>2020-08-22 11:03:37</time>
      </trkpt>
      <trkpt lat="41.22579" lon="1.085">
        <ele>437.4</ele>
        <time>2020-08-22 11:03:38</time>
      </trkpt>
      <trkpt lat="41.22576" lon="1.08497">
        <ele>437.8</ele>
        <time>2020-08-22 11:03:39</time>
      </trkpt>
      <trkpt lat="41.22573" lon="1.08493">
        <ele>438.2</ele>
        <time>2020-08-22 11:03:40</time>
      </trkpt>
      <trkpt lat="41.22569" lon="1.08489">
        <ele>438.6</ele>
        <time>2020-08-22 11:03:41</time>
      </trkpt>
      <trkpt lat="41.22567" lon="1.08486">
        <ele>438.6</ele>
        <time>2020-08-22 11:03:42</time>
      </trkpt>
      <trkpt lat="41.22564" lon="1.08482">
        <ele>439</ele>
        <time>2020-08-22 11:03:43</time>
      </trkpt>
      <trkpt lat="41.22561" lon="1.08479">
        <ele>439.2</ele>
        <time>2020-08-22 11:03:44</time>
      </trkpt>
      <trkpt lat="41.22558" lon="1.08474">
        <ele>439.6</ele>
        <time>2020-08-22 11:03:45</time>
      </trkpt>
      <trkpt lat="41.22555" lon="1.0847">
        <ele>440</ele>
        <time>2020-08-22 11:03:46</time>
      </trkpt>
      <trkpt lat="41.22552" lon="1.08466">
        <ele>440.2</ele>
        <time>2020-08-22 11:03:47</time>
      </trkpt>
      <trkpt lat="41.22549" lon="1.08463">
        <ele>440.6</ele>
        <time>2020-08-22 11:03:48</time>
      </trkpt>
      <trkpt lat="41.22546" lon="1.0846">
        <ele>440.6</ele>
        <time>2020-08-22 11:03:49</time>
      </trkpt>
      <trkpt lat="41.22543" lon="1.08456">
        <ele>441</ele>
        <time>2020-08-22 11:03:50</time>
      </trkpt>
      <trkpt lat="41.22541" lon="1.08452">
        <ele>441.2</ele>
        <time>2020-08-22 11:03:51</time>
      </trkpt>
      <trkpt lat="41.22538" lon="1.08448">
        <ele>441.6</ele>
        <time>2020-08-22 11:03:52</time>
      </trkpt>
      <trkpt lat="41.22535" lon="1.08444">
        <ele>441.8</ele>
        <time>2020-08-22 11:03:53</time>
      </trkpt>
      <trkpt lat="41.22532" lon="1.0844">
        <ele>442</ele>
        <time>2020-08-22 11:03:54</time>
      </trkpt>
      <trkpt lat="41.22529" lon="1.08436">
        <ele>442.6</ele>
        <time>2020-08-22 11:03:55</time>
      </trkpt>
      <trkpt lat="41.22527" lon="1.08433">
        <ele>442.6</ele>
        <time>2020-08-22 11:03:56</time>
      </trkpt>
      <trkpt lat="41.22524" lon="1.08429">
        <ele>443</ele>
        <time>2020-08-22 11:03:57</time>
      </trkpt>
      <trkpt lat="41.22522" lon="1.08425">
        <ele>443</ele>
        <time>2020-08-22 11:03:58</time>
      </trkpt>
      <trkpt lat="41.22519" lon="1.08422">
        <ele>443.4</ele>
        <time>2020-08-22 11:03:59</time>
      </trkpt>
      <trkpt lat="41.22516" lon="1.08418">
        <ele>443.6</ele>
        <time>2020-08-22 11:04:00</time>
      </trkpt>
      <trkpt lat="41.22514" lon="1.08413">
        <ele>443.8</ele>
        <time>2020-08-22 11:04:01</time>
      </trkpt>
      <trkpt lat="41.22512" lon="1.08409">
        <ele>444</ele>
        <time>2020-08-22 11:04:02</time>
      </trkpt>
      <trkpt lat="41.22509" lon="1.08405">
        <ele>444.2</ele>
        <time>2020-08-22 11:04:03</time>
      </trkpt>
      <trkpt lat="41.22506" lon="1.08401">
        <ele>444.4</ele>
        <time>2020-08-22 11:04:04</time>
      </trkpt>
      <trkpt lat="41.22504" lon="1.08397">
        <ele>444.4</ele>
        <time>2020-08-22 11:04:05</time>
      </trkpt>
      <trkpt lat="41.22501" lon="1.08392">
        <ele>444.8</ele>
        <time>2020-08-22 11:04:06</time>
      </trkpt>
      <trkpt lat="41.22499" lon="1.08389">
        <ele>445</ele>
        <time>2020-08-22 11:04:07</time>
      </trkpt>
      <trkpt lat="41.22496" lon="1.08385">
        <ele>445.2</ele>
        <time>2020-08-22 11:04:08</time>
      </trkpt>
      <trkpt lat="41.22494" lon="1.08381">
        <ele>445.2</ele>
        <time>2020-08-22 11:04:09</time>
      </trkpt>
      <trkpt lat="41.22491" lon="1.08376">
        <ele>445.4</ele>
        <time>2020-08-22 11:04:10</time>
      </trkpt>
      <trkpt lat="41.22488" lon="1.08371">
        <ele>445.6</ele>
        <time>2020-08-22 11:04:11</time>
      </trkpt>
      <trkpt lat="41.22486" lon="1.08367">
        <ele>445.8</ele>
        <time>2020-08-22 11:04:12</time>
      </trkpt>
      <trkpt lat="41.22484" lon="1.08362">
        <ele>446</ele>
        <time>2020-08-22 11:04:13</time>
      </trkpt>
      <trkpt lat="41.22483" lon="1.08359">
        <ele>446</ele>
        <time>2020-08-22 11:04:14</time>
      </trkpt>
      <trkpt lat="41.2248" lon="1.08354">
        <ele>446.2</ele>
        <time>2020-08-22 11:04:15</time>
      </trkpt>
      <trkpt lat="41.22478" lon="1.08349">
        <ele>446.2</ele>
        <time>2020-08-22 11:04:16</time>
      </trkpt>
      <trkpt lat="41.22476" lon="1.08344">
        <ele>446.4</ele>
        <time>2020-08-22 11:04:17</time>
      </trkpt>
      <trkpt lat="41.22473" lon="1.0834">
        <ele>446.6</ele>
        <time>2020-08-22 11:04:18</time>
      </trkpt>
      <trkpt lat="41.22472" lon="1.08336">
        <ele>446.8</ele>
        <time>2020-08-22 11:04:19</time>
      </trkpt>
      <trkpt lat="41.22469" lon="1.08331">
        <ele>446.8</ele>
        <time>2020-08-22 11:04:20</time>
      </trkpt>
      <trkpt lat="41.22467" lon="1.08327">
        <ele>447</ele>
        <time>2020-08-22 11:04:21</time>
      </trkpt>
      <trkpt lat="41.22465" lon="1.08322">
        <ele>447.2</ele>
        <time>2020-08-22 11:04:22</time>
      </trkpt>
      <trkpt lat="41.22463" lon="1.08318">
        <ele>447.4</ele>
        <time>2020-08-22 11:04:23</time>
      </trkpt>
      <trkpt lat="41.22461" lon="1.08314">
        <ele>447.6</ele>
        <time>2020-08-22 11:04:24</time>
      </trkpt>
      <trkpt lat="41.22458" lon="1.08308">
        <ele>447.6</ele>
        <time>2020-08-22 11:04:25</time>
      </trkpt>
      <trkpt lat="41.22456" lon="1.08303">
        <ele>447.6</ele>
        <time>2020-08-22 11:04:26</time>
      </trkpt>
      <trkpt lat="41.22455" lon="1.08298">
        <ele>447.8</ele>
        <time>2020-08-22 11:04:27</time>
      </trkpt>
      <trkpt lat="41.22454" lon="1.08295">
        <ele>447.8</ele>
        <time>2020-08-22 11:04:28</time>
      </trkpt>
      <trkpt lat="41.22452" lon="1.0829">
        <ele>448</ele>
        <time>2020-08-22 11:04:29</time>
      </trkpt>
      <trkpt lat="41.2245" lon="1.08285">
        <ele>448</ele>
        <time>2020-08-22 11:04:30</time>
      </trkpt>
      <trkpt lat="41.22448" lon="1.0828">
        <ele>448.2</ele>
        <time>2020-08-22 11:04:31</time>
      </trkpt>
      <trkpt lat="41.22446" lon="1.08275">
        <ele>448.2</ele>
        <time>2020-08-22 11:04:32</time>
      </trkpt>
      <trkpt lat="41.22445" lon="1.08272">
        <ele>448.4</ele>
        <time>2020-08-22 11:04:33</time>
      </trkpt>
      <trkpt lat="41.22443" lon="1.08267">
        <ele>448.4</ele>
        <time>2020-08-22 11:04:34</time>
      </trkpt>
      <trkpt lat="41.22441" lon="1.08261">
        <ele>448.6</ele>
        <time>2020-08-22 11:04:35</time>
      </trkpt>
      <trkpt lat="41.2244" lon="1.08256">
        <ele>449</ele>
        <time>2020-08-22 11:04:36</time>
      </trkpt>
      <trkpt lat="41.22438" lon="1.08251">
        <ele>449.2</ele>
        <time>2020-08-22 11:04:37</time>
      </trkpt>
      <trkpt lat="41.22436" lon="1.08247">
        <ele>449.4</ele>
        <time>2020-08-22 11:04:38</time>
      </trkpt>
      <trkpt lat="41.22435" lon="1.08242">
        <ele>449.6</ele>
        <time>2020-08-22 11:04:39</time>
      </trkpt>
      <trkpt lat="41.22433" lon="1.08236">
        <ele>449.8</ele>
        <time>2020-08-22 11:04:40</time>
      </trkpt>
      <trkpt lat="41.22432" lon="1.08231">
        <ele>449.8</ele>
        <time>2020-08-22 11:04:41</time>
      </trkpt>
      <trkpt lat="41.2243" lon="1.08226">
        <ele>450</ele>
        <time>2020-08-22 11:04:42</time>
      </trkpt>
      <trkpt lat="41.22429" lon="1.08222">
        <ele>450</ele>
        <time>2020-08-22 11:04:43</time>
      </trkpt>
      <trkpt lat="41.22428" lon="1.08216">
        <ele>450</ele>
        <time>2020-08-22 11:04:44</time>
      </trkpt>
      <trkpt lat="41.22426" lon="1.0821">
        <ele>450</ele>
        <time>2020-08-22 11:04:45</time>
      </trkpt>
      <trkpt lat="41.22424" lon="1.082">
        <ele>450.4</ele>
        <time>2020-08-22 11:04:47</time>
      </trkpt>
      <trkpt lat="41.22421" lon="1.08189">
        <ele>450.6</ele>
        <time>2020-08-22 11:04:49</time>
      </trkpt>
      <trkpt lat="41.2242" lon="1.08184">
        <ele>450.6</ele>
        <time>2020-08-22 11:04:50</time>
      </trkpt>
      <trkpt lat="41.22418" lon="1.08179">
        <ele>450.8</ele>
        <time>2020-08-22 11:04:51</time>
      </trkpt>
      <trkpt lat="41.22418" lon="1.08175">
        <ele>451</ele>
        <time>2020-08-22 11:04:52</time>
      </trkpt>
      <trkpt lat="41.22417" lon="1.08169">
        <ele>451</ele>
        <time>2020-08-22 11:04:53</time>
      </trkpt>
      <trkpt lat="41.22415" lon="1.08163">
        <ele>451.2</ele>
        <time>2020-08-22 11:04:54</time>
      </trkpt>
      <trkpt lat="41.22414" lon="1.08157">
        <ele>451.2</ele>
        <time>2020-08-22 11:04:55</time>
      </trkpt>
      <trkpt lat="41.22413" lon="1.08151">
        <ele>451.4</ele>
        <time>2020-08-22 11:04:56</time>
      </trkpt>
      <trkpt lat="41.22412" lon="1.08146">
        <ele>451.6</ele>
        <time>2020-08-22 11:04:57</time>
      </trkpt>
      <trkpt lat="41.22412" lon="1.08141">
        <ele>451.6</ele>
        <time>2020-08-22 11:04:58</time>
      </trkpt>
      <trkpt lat="41.22411" lon="1.08135">
        <ele>451.8</ele>
        <time>2020-08-22 11:04:59</time>
      </trkpt>
      <trkpt lat="41.2241" lon="1.08129">
        <ele>452</ele>
        <time>2020-08-22 11:05:00</time>
      </trkpt>
      <trkpt lat="41.22409" lon="1.08124">
        <ele>452</ele>
        <time>2020-08-22 11:05:01</time>
      </trkpt>
      <trkpt lat="41.22409" lon="1.08119">
        <ele>452.2</ele>
        <time>2020-08-22 11:05:02</time>
      </trkpt>
      <trkpt lat="41.22408" lon="1.08113">
        <ele>452.2</ele>
        <time>2020-08-22 11:05:03</time>
      </trkpt>
      <trkpt lat="41.22407" lon="1.08107">
        <ele>452.4</ele>
        <time>2020-08-22 11:05:04</time>
      </trkpt>
      <trkpt lat="41.22407" lon="1.08102">
        <ele>452.6</ele>
        <time>2020-08-22 11:05:05</time>
      </trkpt>
      <trkpt lat="41.22406" lon="1.08097">
        <ele>452.6</ele>
        <time>2020-08-22 11:05:06</time>
      </trkpt>
      <trkpt lat="41.22406" lon="1.08092">
        <ele>452.8</ele>
        <time>2020-08-22 11:05:07</time>
      </trkpt>
      <trkpt lat="41.22405" lon="1.08086">
        <ele>453</ele>
        <time>2020-08-22 11:05:08</time>
      </trkpt>
      <trkpt lat="41.22405" lon="1.0808">
        <ele>453.2</ele>
        <time>2020-08-22 11:05:09</time>
      </trkpt>
      <trkpt lat="41.22404" lon="1.08074">
        <ele>453.4</ele>
        <time>2020-08-22 11:05:10</time>
      </trkpt>
      <trkpt lat="41.22404" lon="1.08068">
        <ele>453.6</ele>
        <time>2020-08-22 11:05:11</time>
      </trkpt>
      <trkpt lat="41.22404" lon="1.08064">
        <ele>453.6</ele>
        <time>2020-08-22 11:05:12</time>
      </trkpt>
      <trkpt lat="41.22403" lon="1.08058">
        <ele>453.8</ele>
        <time>2020-08-22 11:05:13</time>
      </trkpt>
      <trkpt lat="41.22403" lon="1.08052">
        <ele>453.8</ele>
        <time>2020-08-22 11:05:14</time>
      </trkpt>
      <trkpt lat="41.22403" lon="1.08046">
        <ele>454</ele>
        <time>2020-08-22 11:05:15</time>
      </trkpt>
      <trkpt lat="41.22403" lon="1.08041">
        <ele>454.2</ele>
        <time>2020-08-22 11:05:16</time>
      </trkpt>
      <trkpt lat="41.22402" lon="1.08036">
        <ele>454.4</ele>
        <time>2020-08-22 11:05:17</time>
      </trkpt>
      <trkpt lat="41.22402" lon="1.0803">
        <ele>454.6</ele>
        <time>2020-08-22 11:05:18</time>
      </trkpt>
      <trkpt lat="41.22403" lon="1.08026">
        <ele>454.6</ele>
        <time>2020-08-22 11:05:19</time>
      </trkpt>
      <trkpt lat="41.22403" lon="1.08019">
        <ele>454.8</ele>
        <time>2020-08-22 11:05:20</time>
      </trkpt>
      <trkpt lat="41.22403" lon="1.08015">
        <ele>455</ele>
        <time>2020-08-22 11:05:21</time>
      </trkpt>
      <trkpt lat="41.22403" lon="1.08009">
        <ele>455</ele>
        <time>2020-08-22 11:05:22</time>
      </trkpt>
      <trkpt lat="41.22403" lon="1.08003">
        <ele>455.2</ele>
        <time>2020-08-22 11:05:23</time>
      </trkpt>
      <trkpt lat="41.22403" lon="1.07997">
        <ele>455.2</ele>
        <time>2020-08-22 11:05:24</time>
      </trkpt>
      <trkpt lat="41.22403" lon="1.07991">
        <ele>455.4</ele>
        <time>2020-08-22 11:05:25</time>
      </trkpt>
      <trkpt lat="41.22403" lon="1.07987">
        <ele>455.4</ele>
        <time>2020-08-22 11:05:26</time>
      </trkpt>
      <trkpt lat="41.22404" lon="1.07981">
        <ele>455.4</ele>
        <time>2020-08-22 11:05:27</time>
      </trkpt>
      <trkpt lat="41.22405" lon="1.07958">
        <ele>455.8</ele>
        <time>2020-08-22 11:05:31</time>
      </trkpt>
      <trkpt lat="41.22406" lon="1.07939">
        <ele>456.2</ele>
        <time>2020-08-22 11:05:34</time>
      </trkpt>
      <trkpt lat="41.22407" lon="1.07933">
        <ele>456.4</ele>
        <time>2020-08-22 11:05:35</time>
      </trkpt>
      <trkpt lat="41.22407" lon="1.07928">
        <ele>456.4</ele>
        <time>2020-08-22 11:05:36</time>
      </trkpt>
      <trkpt lat="41.22408" lon="1.07921">
        <ele>456.6</ele>
        <time>2020-08-22 11:05:37</time>
      </trkpt>
      <trkpt lat="41.22409" lon="1.07915">
        <ele>456.6</ele>
        <time>2020-08-22 11:05:38</time>
      </trkpt>
      <trkpt lat="41.2241" lon="1.07908">
        <ele>457</ele>
        <time>2020-08-22 11:05:39</time>
      </trkpt>
      <trkpt lat="41.2241" lon="1.07903">
        <ele>457</ele>
        <time>2020-08-22 11:05:40</time>
      </trkpt>
      <trkpt lat="41.22411" lon="1.07896">
        <ele>457.2</ele>
        <time>2020-08-22 11:05:41</time>
      </trkpt>
      <trkpt lat="41.22412" lon="1.07889">
        <ele>457.2</ele>
        <time>2020-08-22 11:05:42</time>
      </trkpt>
      <trkpt lat="41.22413" lon="1.07882">
        <ele>457.4</ele>
        <time>2020-08-22 11:05:43</time>
      </trkpt>
      <trkpt lat="41.22414" lon="1.07876">
        <ele>457.6</ele>
        <time>2020-08-22 11:05:44</time>
      </trkpt>
      <trkpt lat="41.22415" lon="1.07871">
        <ele>458</ele>
        <time>2020-08-22 11:05:45</time>
      </trkpt>
      <trkpt lat="41.22415" lon="1.07865">
        <ele>458</ele>
        <time>2020-08-22 11:05:46</time>
      </trkpt>
      <trkpt lat="41.22417" lon="1.07857">
        <ele>458</ele>
        <time>2020-08-22 11:05:47</time>
      </trkpt>
      <trkpt lat="41.22417" lon="1.07851">
        <ele>458.2</ele>
        <time>2020-08-22 11:05:48</time>
      </trkpt>
      <trkpt lat="41.22418" lon="1.07845">
        <ele>458.4</ele>
        <time>2020-08-22 11:05:49</time>
      </trkpt>
      <trkpt lat="41.22419" lon="1.0784">
        <ele>458.4</ele>
        <time>2020-08-22 11:05:50</time>
      </trkpt>
      <trkpt lat="41.2242" lon="1.07832">
        <ele>458.6</ele>
        <time>2020-08-22 11:05:51</time>
      </trkpt>
      <trkpt lat="41.22421" lon="1.07826">
        <ele>458.8</ele>
        <time>2020-08-22 11:05:52</time>
      </trkpt>
      <trkpt lat="41.22422" lon="1.07819">
        <ele>459</ele>
        <time>2020-08-22 11:05:53</time>
      </trkpt>
      <trkpt lat="41.22423" lon="1.07813">
        <ele>459.2</ele>
        <time>2020-08-22 11:05:54</time>
      </trkpt>
      <trkpt lat="41.22424" lon="1.07806">
        <ele>459.4</ele>
        <time>2020-08-22 11:05:55</time>
      </trkpt>
      <trkpt lat="41.22425" lon="1.078">
        <ele>459.4</ele>
        <time>2020-08-22 11:05:56</time>
      </trkpt>
      <trkpt lat="41.22426" lon="1.07794">
        <ele>459.6</ele>
        <time>2020-08-22 11:05:57</time>
      </trkpt>
      <trkpt lat="41.22427" lon="1.07787">
        <ele>459.6</ele>
        <time>2020-08-22 11:05:58</time>
      </trkpt>
      <trkpt lat="41.22427" lon="1.07782">
        <ele>459.8</ele>
        <time>2020-08-22 11:05:59</time>
      </trkpt>
      <trkpt lat="41.22428" lon="1.07776">
        <ele>460</ele>
        <time>2020-08-22 11:06:00</time>
      </trkpt>
      <trkpt lat="41.22429" lon="1.07769">
        <ele>460.2</ele>
        <time>2020-08-22 11:06:01</time>
      </trkpt>
      <trkpt lat="41.2243" lon="1.07763">
        <ele>460.2</ele>
        <time>2020-08-22 11:06:02</time>
      </trkpt>
      <trkpt lat="41.22431" lon="1.07757">
        <ele>460.4</ele>
        <time>2020-08-22 11:06:03</time>
      </trkpt>
      <trkpt lat="41.22432" lon="1.07752">
        <ele>460.6</ele>
        <time>2020-08-22 11:06:04</time>
      </trkpt>
      <trkpt lat="41.22433" lon="1.07744">
        <ele>460.8</ele>
        <time>2020-08-22 11:06:05</time>
      </trkpt>
      <trkpt lat="41.22434" lon="1.07738">
        <ele>461</ele>
        <time>2020-08-22 11:06:06</time>
      </trkpt>
      <trkpt lat="41.22435" lon="1.07732">
        <ele>461</ele>
        <time>2020-08-22 11:06:07</time>
      </trkpt>
      <trkpt lat="41.22436" lon="1.07726">
        <ele>461.2</ele>
        <time>2020-08-22 11:06:08</time>
      </trkpt>
      <trkpt lat="41.22437" lon="1.07721">
        <ele>461.2</ele>
        <time>2020-08-22 11:06:09</time>
      </trkpt>
      <trkpt lat="41.22438" lon="1.07714">
        <ele>461.4</ele>
        <time>2020-08-22 11:06:10</time>
      </trkpt>
      <trkpt lat="41.22438" lon="1.0771">
        <ele>461.4</ele>
        <time>2020-08-22 11:06:11</time>
      </trkpt>
      <trkpt lat="41.2244" lon="1.07703">
        <ele>461.6</ele>
        <time>2020-08-22 11:06:12</time>
      </trkpt>
      <trkpt lat="41.2244" lon="1.07698">
        <ele>461.8</ele>
        <time>2020-08-22 11:06:13</time>
      </trkpt>
      <trkpt lat="41.22442" lon="1.07693">
        <ele>462</ele>
        <time>2020-08-22 11:06:14</time>
      </trkpt>
      <trkpt lat="41.22444" lon="1.07688">
        <ele>462</ele>
        <time>2020-08-22 11:06:15</time>
      </trkpt>
      <trkpt lat="41.22447" lon="1.07685">
        <ele>462.2</ele>
        <time>2020-08-22 11:06:16</time>
      </trkpt>
      <trkpt lat="41.22451" lon="1.07681">
        <ele>462.4</ele>
        <time>2020-08-22 11:06:17</time>
      </trkpt>
      <trkpt lat="41.22452" lon="1.07679">
        <ele>462.4</ele>
        <time>2020-08-22 11:06:18</time>
      </trkpt>
      <trkpt lat="41.22454" lon="1.07677">
        <ele>462.6</ele>
        <time>2020-08-22 11:06:19</time>
      </trkpt>
      <trkpt lat="41.22454" lon="1.07674">
        <ele>463</ele>
        <time>2020-08-22 11:06:20</time>
      </trkpt>
      <trkpt lat="41.22455" lon="1.07671">
        <ele>463.2</ele>
        <time>2020-08-22 11:06:21</time>
      </trkpt>
      <trkpt lat="41.22456" lon="1.07666">
        <ele>463.6</ele>
        <time>2020-08-22 11:06:22</time>
      </trkpt>
      <trkpt lat="41.22457" lon="1.07663">
        <ele>463.8</ele>
        <time>2020-08-22 11:06:23</time>
      </trkpt>
      <trkpt lat="41.22457" lon="1.07659">
        <ele>464.2</ele>
        <time>2020-08-22 11:06:24</time>
      </trkpt>
      <trkpt lat="41.22458" lon="1.07655">
        <ele>464.4</ele>
        <time>2020-08-22 11:06:25</time>
      </trkpt>
      <trkpt lat="41.22459" lon="1.07652">
        <ele>464.8</ele>
        <time>2020-08-22 11:06:26</time>
      </trkpt>
      <trkpt lat="41.2246" lon="1.07648">
        <ele>465</ele>
        <time>2020-08-22 11:06:27</time>
      </trkpt>
      <trkpt lat="41.2246" lon="1.07645">
        <ele>465.4</ele>
        <time>2020-08-22 11:06:28</time>
      </trkpt>
      <trkpt lat="41.22461" lon="1.07642">
        <ele>465.8</ele>
        <time>2020-08-22 11:06:29</time>
      </trkpt>
      <trkpt lat="41.22462" lon="1.07638">
        <ele>466</ele>
        <time>2020-08-22 11:06:30</time>
      </trkpt>
      <trkpt lat="41.22462" lon="1.07635">
        <ele>466.4</ele>
        <time>2020-08-22 11:06:31</time>
      </trkpt>
      <trkpt lat="41.22463" lon="1.0763">
        <ele>466.6</ele>
        <time>2020-08-22 11:06:32</time>
      </trkpt>
      <trkpt lat="41.22463" lon="1.07628">
        <ele>467</ele>
        <time>2020-08-22 11:06:33</time>
      </trkpt>
      <trkpt lat="41.22463" lon="1.07625">
        <ele>467.4</ele>
        <time>2020-08-22 11:06:34</time>
      </trkpt>
      <trkpt lat="41.22464" lon="1.07621">
        <ele>467.6</ele>
        <time>2020-08-22 11:06:35</time>
      </trkpt>
      <trkpt lat="41.22464" lon="1.07618">
        <ele>467.8</ele>
        <time>2020-08-22 11:06:36</time>
      </trkpt>
      <trkpt lat="41.22462" lon="1.07614">
        <ele>468.8</ele>
        <time>2020-08-22 11:06:37</time>
      </trkpt>
      <trkpt lat="41.22461" lon="1.07611">
        <ele>469.6</ele>
        <time>2020-08-22 11:06:38</time>
      </trkpt>
      <trkpt lat="41.22458" lon="1.07608">
        <ele>469.8</ele>
        <time>2020-08-22 11:06:39</time>
      </trkpt>
      <trkpt lat="41.22454" lon="1.07605">
        <ele>470</ele>
        <time>2020-08-22 11:06:40</time>
      </trkpt>
      <trkpt lat="41.2245" lon="1.07603">
        <ele>470</ele>
        <time>2020-08-22 11:06:41</time>
      </trkpt>
      <trkpt lat="41.22447" lon="1.076">
        <ele>470.2</ele>
        <time>2020-08-22 11:06:42</time>
      </trkpt>
      <trkpt lat="41.22445" lon="1.07598">
        <ele>470.4</ele>
        <time>2020-08-22 11:06:43</time>
      </trkpt>
      <trkpt lat="41.22443" lon="1.07595">
        <ele>470.4</ele>
        <time>2020-08-22 11:06:44</time>
      </trkpt>
      <trkpt lat="41.22441" lon="1.07591">
        <ele>470.4</ele>
        <time>2020-08-22 11:06:45</time>
      </trkpt>
      <trkpt lat="41.22438" lon="1.07587">
        <ele>470.6</ele>
        <time>2020-08-22 11:06:46</time>
      </trkpt>
      <trkpt lat="41.22435" lon="1.07583">
        <ele>470.6</ele>
        <time>2020-08-22 11:06:47</time>
      </trkpt>
      <trkpt lat="41.22432" lon="1.0758">
        <ele>470.6</ele>
        <time>2020-08-22 11:06:48</time>
      </trkpt>
      <trkpt lat="41.22429" lon="1.07577">
        <ele>470.6</ele>
        <time>2020-08-22 11:06:49</time>
      </trkpt>
      <trkpt lat="41.22422" lon="1.07573">
        <ele>470.8</ele>
        <time>2020-08-22 11:06:51</time>
      </trkpt>
      <trkpt lat="41.22415" lon="1.07571">
        <ele>470.8</ele>
        <time>2020-08-22 11:06:53</time>
      </trkpt>
      <trkpt lat="41.22412" lon="1.07571">
        <ele>470.8</ele>
        <time>2020-08-22 11:06:54</time>
      </trkpt>
      <trkpt lat="41.22409" lon="1.07571">
        <ele>471</ele>
        <time>2020-08-22 11:06:55</time>
      </trkpt>
      <trkpt lat="41.22406" lon="1.07571">
        <ele>471.2</ele>
        <time>2020-08-22 11:06:56</time>
      </trkpt>
      <trkpt lat="41.22403" lon="1.0757">
        <ele>471.2</ele>
        <time>2020-08-22 11:06:57</time>
      </trkpt>
      <trkpt lat="41.22401" lon="1.07569">
        <ele>471.4</ele>
        <time>2020-08-22 11:06:58</time>
      </trkpt>
      <trkpt lat="41.22398" lon="1.07568">
        <ele>471.6</ele>
        <time>2020-08-22 11:06:59</time>
      </trkpt>
      <trkpt lat="41.22396" lon="1.07567">
        <ele>472</ele>
        <time>2020-08-22 11:07:00</time>
      </trkpt>
      <trkpt lat="41.22393" lon="1.07565">
        <ele>472.2</ele>
        <time>2020-08-22 11:07:01</time>
      </trkpt>
      <trkpt lat="41.22391" lon="1.07564">
        <ele>472.4</ele>
        <time>2020-08-22 11:07:02</time>
      </trkpt>
      <trkpt lat="41.22388" lon="1.07562">
        <ele>472.8</ele>
        <time>2020-08-22 11:07:03</time>
      </trkpt>
      <trkpt lat="41.22386" lon="1.0756">
        <ele>473</ele>
        <time>2020-08-22 11:07:04</time>
      </trkpt>
      <trkpt lat="41.22383" lon="1.07558">
        <ele>473.2</ele>
        <time>2020-08-22 11:07:05</time>
      </trkpt>
      <trkpt lat="41.22381" lon="1.07556">
        <ele>473.4</ele>
        <time>2020-08-22 11:07:06</time>
      </trkpt>
      <trkpt lat="41.22378" lon="1.07554">
        <ele>473.6</ele>
        <time>2020-08-22 11:07:07</time>
      </trkpt>
      <trkpt lat="41.22376" lon="1.07552">
        <ele>473.8</ele>
        <time>2020-08-22 11:07:08</time>
      </trkpt>
      <trkpt lat="41.22373" lon="1.0755">
        <ele>474.2</ele>
        <time>2020-08-22 11:07:09</time>
      </trkpt>
      <trkpt lat="41.2237" lon="1.07548">
        <ele>474.4</ele>
        <time>2020-08-22 11:07:10</time>
      </trkpt>
      <trkpt lat="41.22367" lon="1.07546">
        <ele>474.8</ele>
        <time>2020-08-22 11:07:11</time>
      </trkpt>
      <trkpt lat="41.22365" lon="1.07543">
        <ele>475.2</ele>
        <time>2020-08-22 11:07:12</time>
      </trkpt>
      <trkpt lat="41.22362" lon="1.07541">
        <ele>475.4</ele>
        <time>2020-08-22 11:07:13</time>
      </trkpt>
      <trkpt lat="41.22359" lon="1.07538">
        <ele>475.8</ele>
        <time>2020-08-22 11:07:14</time>
      </trkpt>
      <trkpt lat="41.22356" lon="1.07536">
        <ele>476</ele>
        <time>2020-08-22 11:07:15</time>
      </trkpt>
      <trkpt lat="41.22354" lon="1.07534">
        <ele>476.2</ele>
        <time>2020-08-22 11:07:16</time>
      </trkpt>
      <trkpt lat="41.22351" lon="1.07532">
        <ele>476.2</ele>
        <time>2020-08-22 11:07:17</time>
      </trkpt>
      <trkpt lat="41.22349" lon="1.07529">
        <ele>476.4</ele>
        <time>2020-08-22 11:07:18</time>
      </trkpt>
      <trkpt lat="41.22347" lon="1.07527">
        <ele>476.6</ele>
        <time>2020-08-22 11:07:19</time>
      </trkpt>
      <trkpt lat="41.22345" lon="1.07524">
        <ele>477</ele>
        <time>2020-08-22 11:07:20</time>
      </trkpt>
      <trkpt lat="41.22342" lon="1.07521">
        <ele>477.2</ele>
        <time>2020-08-22 11:07:21</time>
      </trkpt>
      <trkpt lat="41.22339" lon="1.07519">
        <ele>477.4</ele>
        <time>2020-08-22 11:07:22</time>
      </trkpt>
      <trkpt lat="41.22337" lon="1.07517">
        <ele>477.8</ele>
        <time>2020-08-22 11:07:23</time>
      </trkpt>
      <trkpt lat="41.22334" lon="1.07515">
        <ele>477.8</ele>
        <time>2020-08-22 11:07:24</time>
      </trkpt>
      <trkpt lat="41.22331" lon="1.07513">
        <ele>478</ele>
        <time>2020-08-22 11:07:25</time>
      </trkpt>
      <trkpt lat="41.22327" lon="1.07511">
        <ele>478.2</ele>
        <time>2020-08-22 11:07:26</time>
      </trkpt>
      <trkpt lat="41.22324" lon="1.07509">
        <ele>478.4</ele>
        <time>2020-08-22 11:07:27</time>
      </trkpt>
      <trkpt lat="41.22322" lon="1.07507">
        <ele>478.6</ele>
        <time>2020-08-22 11:07:28</time>
      </trkpt>
      <trkpt lat="41.22318" lon="1.07506">
        <ele>478.8</ele>
        <time>2020-08-22 11:07:29</time>
      </trkpt>
      <trkpt lat="41.22316" lon="1.07504">
        <ele>479</ele>
        <time>2020-08-22 11:07:30</time>
      </trkpt>
      <trkpt lat="41.22313" lon="1.07502">
        <ele>479.2</ele>
        <time>2020-08-22 11:07:31</time>
      </trkpt>
      <trkpt lat="41.2231" lon="1.07501">
        <ele>479.4</ele>
        <time>2020-08-22 11:07:32</time>
      </trkpt>
      <trkpt lat="41.22307" lon="1.07499">
        <ele>479.4</ele>
        <time>2020-08-22 11:07:33</time>
      </trkpt>
      <trkpt lat="41.22304" lon="1.07498">
        <ele>479.8</ele>
        <time>2020-08-22 11:07:34</time>
      </trkpt>
      <trkpt lat="41.22301" lon="1.07496">
        <ele>480</ele>
        <time>2020-08-22 11:07:35</time>
      </trkpt>
      <trkpt lat="41.22298" lon="1.07494">
        <ele>480.2</ele>
        <time>2020-08-22 11:07:36</time>
      </trkpt>
      <trkpt lat="41.22295" lon="1.07492">
        <ele>480.4</ele>
        <time>2020-08-22 11:07:37</time>
      </trkpt>
      <trkpt lat="41.22292" lon="1.0749">
        <ele>480.6</ele>
        <time>2020-08-22 11:07:38</time>
      </trkpt>
      <trkpt lat="41.22289" lon="1.07487">
        <ele>480.8</ele>
        <time>2020-08-22 11:07:39</time>
      </trkpt>
      <trkpt lat="41.22287" lon="1.07485">
        <ele>481</ele>
        <time>2020-08-22 11:07:40</time>
      </trkpt>
      <trkpt lat="41.22285" lon="1.07482">
        <ele>481.4</ele>
        <time>2020-08-22 11:07:41</time>
      </trkpt>
      <trkpt lat="41.22282" lon="1.07479">
        <ele>481.6</ele>
        <time>2020-08-22 11:07:42</time>
      </trkpt>
      <trkpt lat="41.22279" lon="1.07477">
        <ele>482</ele>
        <time>2020-08-22 11:07:43</time>
      </trkpt>
      <trkpt lat="41.22277" lon="1.07474">
        <ele>482</ele>
        <time>2020-08-22 11:07:44</time>
      </trkpt>
      <trkpt lat="41.22275" lon="1.0747">
        <ele>482.2</ele>
        <time>2020-08-22 11:07:45</time>
      </trkpt>
      <trkpt lat="41.22273" lon="1.07467">
        <ele>482.4</ele>
        <time>2020-08-22 11:07:46</time>
      </trkpt>
      <trkpt lat="41.22272" lon="1.07463">
        <ele>482.6</ele>
        <time>2020-08-22 11:07:47</time>
      </trkpt>
      <trkpt lat="41.2227" lon="1.0746">
        <ele>483</ele>
        <time>2020-08-22 11:07:48</time>
      </trkpt>
      <trkpt lat="41.22268" lon="1.07457">
        <ele>483.2</ele>
        <time>2020-08-22 11:07:49</time>
      </trkpt>
      <trkpt lat="41.22266" lon="1.07454">
        <ele>483.4</ele>
        <time>2020-08-22 11:07:50</time>
      </trkpt>
      <trkpt lat="41.22264" lon="1.0745">
        <ele>483.6</ele>
        <time>2020-08-22 11:07:51</time>
      </trkpt>
      <trkpt lat="41.22262" lon="1.07448">
        <ele>483.8</ele>
        <time>2020-08-22 11:07:52</time>
      </trkpt>
      <trkpt lat="41.22259" lon="1.07445">
        <ele>483.8</ele>
        <time>2020-08-22 11:07:53</time>
      </trkpt>
      <trkpt lat="41.22255" lon="1.07443">
        <ele>484</ele>
        <time>2020-08-22 11:07:54</time>
      </trkpt>
      <trkpt lat="41.22251" lon="1.07441">
        <ele>484.2</ele>
        <time>2020-08-22 11:07:55</time>
      </trkpt>
      <trkpt lat="41.22247" lon="1.0744">
        <ele>484.2</ele>
        <time>2020-08-22 11:07:56</time>
      </trkpt>
      <trkpt lat="41.22244" lon="1.07438">
        <ele>484.4</ele>
        <time>2020-08-22 11:07:57</time>
      </trkpt>
      <trkpt lat="41.2224" lon="1.07436">
        <ele>484.4</ele>
        <time>2020-08-22 11:07:58</time>
      </trkpt>
      <trkpt lat="41.22236" lon="1.07432">
        <ele>484.4</ele>
        <time>2020-08-22 11:07:59</time>
      </trkpt>
      <trkpt lat="41.22234" lon="1.07428">
        <ele>484.4</ele>
        <time>2020-08-22 11:08:00</time>
      </trkpt>
      <trkpt lat="41.2223" lon="1.07419">
        <ele>484.6</ele>
        <time>2020-08-22 11:08:02</time>
      </trkpt>
      <trkpt lat="41.22227" lon="1.0741">
        <ele>484.6</ele>
        <time>2020-08-22 11:08:04</time>
      </trkpt>
      <trkpt lat="41.22226" lon="1.07406">
        <ele>484.8</ele>
        <time>2020-08-22 11:08:05</time>
      </trkpt>
      <trkpt lat="41.22224" lon="1.07401">
        <ele>484.8</ele>
        <time>2020-08-22 11:08:06</time>
      </trkpt>
      <trkpt lat="41.22223" lon="1.07396">
        <ele>484.8</ele>
        <time>2020-08-22 11:08:07</time>
      </trkpt>
      <trkpt lat="41.22221" lon="1.07392">
        <ele>484.8</ele>
        <time>2020-08-22 11:08:08</time>
      </trkpt>
      <trkpt lat="41.2222" lon="1.07387">
        <ele>484.8</ele>
        <time>2020-08-22 11:08:09</time>
      </trkpt>
      <trkpt lat="41.22219" lon="1.07383">
        <ele>485</ele>
        <time>2020-08-22 11:08:10</time>
      </trkpt>
      <trkpt lat="41.22217" lon="1.07378">
        <ele>485</ele>
        <time>2020-08-22 11:08:11</time>
      </trkpt>
      <trkpt lat="41.22216" lon="1.07373">
        <ele>485</ele>
        <time>2020-08-22 11:08:12</time>
      </trkpt>
      <trkpt lat="41.22213" lon="1.07362">
        <ele>485.2</ele>
        <time>2020-08-22 11:08:14</time>
      </trkpt>
      <trkpt lat="41.22213" lon="1.07358">
        <ele>485.4</ele>
        <time>2020-08-22 11:08:15</time>
      </trkpt>
      <trkpt lat="41.22211" lon="1.07353">
        <ele>485.4</ele>
        <time>2020-08-22 11:08:16</time>
      </trkpt>
      <trkpt lat="41.2221" lon="1.07349">
        <ele>485.6</ele>
        <time>2020-08-22 11:08:17</time>
      </trkpt>
      <trkpt lat="41.22207" lon="1.07345">
        <ele>485.6</ele>
        <time>2020-08-22 11:08:18</time>
      </trkpt>
      <trkpt lat="41.22205" lon="1.07343">
        <ele>485.6</ele>
        <time>2020-08-22 11:08:19</time>
      </trkpt>
      <trkpt lat="41.22202" lon="1.07342">
        <ele>485.6</ele>
        <time>2020-08-22 11:08:20</time>
      </trkpt>
      <trkpt lat="41.22197" lon="1.0734">
        <ele>485.8</ele>
        <time>2020-08-22 11:08:21</time>
      </trkpt>
      <trkpt lat="41.22188" lon="1.07339">
        <ele>485.8</ele>
        <time>2020-08-22 11:08:23</time>
      </trkpt>
      <trkpt lat="41.22184" lon="1.07337">
        <ele>486</ele>
        <time>2020-08-22 11:08:24</time>
      </trkpt>
      <trkpt lat="41.22181" lon="1.07335">
        <ele>486</ele>
        <time>2020-08-22 11:08:25</time>
      </trkpt>
      <trkpt lat="41.22177" lon="1.07332">
        <ele>486</ele>
        <time>2020-08-22 11:08:26</time>
      </trkpt>
      <trkpt lat="41.22174" lon="1.07328">
        <ele>486</ele>
        <time>2020-08-22 11:08:27</time>
      </trkpt>
      <trkpt lat="41.2217" lon="1.07325">
        <ele>486.2</ele>
        <time>2020-08-22 11:08:28</time>
      </trkpt>
      <trkpt lat="41.22166" lon="1.07323">
        <ele>486.4</ele>
        <time>2020-08-22 11:08:29</time>
      </trkpt>
      <trkpt lat="41.22163" lon="1.07323">
        <ele>486.4</ele>
        <time>2020-08-22 11:08:30</time>
      </trkpt>
      <trkpt lat="41.22159" lon="1.07323">
        <ele>486.6</ele>
        <time>2020-08-22 11:08:31</time>
      </trkpt>
      <trkpt lat="41.22155" lon="1.07324">
        <ele>486.6</ele>
        <time>2020-08-22 11:08:32</time>
      </trkpt>
      <trkpt lat="41.22151" lon="1.07326">
        <ele>487</ele>
        <time>2020-08-22 11:08:33</time>
      </trkpt>
      <trkpt lat="41.22148" lon="1.07328">
        <ele>487.2</ele>
        <time>2020-08-22 11:08:34</time>
      </trkpt>
      <trkpt lat="41.22144" lon="1.07329">
        <ele>487.4</ele>
        <time>2020-08-22 11:08:35</time>
      </trkpt>
      <trkpt lat="41.22141" lon="1.07331">
        <ele>487.6</ele>
        <time>2020-08-22 11:08:36</time>
      </trkpt>
      <trkpt lat="41.22137" lon="1.07332">
        <ele>487.8</ele>
        <time>2020-08-22 11:08:37</time>
      </trkpt>
      <trkpt lat="41.22134" lon="1.07334">
        <ele>488</ele>
        <time>2020-08-22 11:08:38</time>
      </trkpt>
      <trkpt lat="41.2213" lon="1.07335">
        <ele>488.2</ele>
        <time>2020-08-22 11:08:39</time>
      </trkpt>
      <trkpt lat="41.22127" lon="1.07333">
        <ele>488.4</ele>
        <time>2020-08-22 11:08:40</time>
      </trkpt>
      <trkpt lat="41.22124" lon="1.07329">
        <ele>488.6</ele>
        <time>2020-08-22 11:08:41</time>
      </trkpt>
      <trkpt lat="41.22122" lon="1.07324">
        <ele>488.8</ele>
        <time>2020-08-22 11:08:42</time>
      </trkpt>
      <trkpt lat="41.2212" lon="1.07318">
        <ele>489</ele>
        <time>2020-08-22 11:08:43</time>
      </trkpt>
      <trkpt lat="41.22119" lon="1.07312">
        <ele>488.8</ele>
        <time>2020-08-22 11:08:44</time>
      </trkpt>
      <trkpt lat="41.22116" lon="1.07307">
        <ele>489</ele>
        <time>2020-08-22 11:08:45</time>
      </trkpt>
      <trkpt lat="41.22113" lon="1.07304">
        <ele>489</ele>
        <time>2020-08-22 11:08:46</time>
      </trkpt>
      <trkpt lat="41.22109" lon="1.07302">
        <ele>489.4</ele>
        <time>2020-08-22 11:08:47</time>
      </trkpt>
      <trkpt lat="41.22105" lon="1.07301">
        <ele>489.4</ele>
        <time>2020-08-22 11:08:48</time>
      </trkpt>
      <trkpt lat="41.221" lon="1.07301">
        <ele>489.6</ele>
        <time>2020-08-22 11:08:49</time>
      </trkpt>
      <trkpt lat="41.22096" lon="1.07302">
        <ele>489.6</ele>
        <time>2020-08-22 11:08:50</time>
      </trkpt>
      <trkpt lat="41.22093" lon="1.07304">
        <ele>489.8</ele>
        <time>2020-08-22 11:08:51</time>
      </trkpt>
      <trkpt lat="41.22089" lon="1.07306">
        <ele>489.8</ele>
        <time>2020-08-22 11:08:52</time>
      </trkpt>
      <trkpt lat="41.22085" lon="1.07308">
        <ele>490.2</ele>
        <time>2020-08-22 11:08:53</time>
      </trkpt>
      <trkpt lat="41.22082" lon="1.0731">
        <ele>490.4</ele>
        <time>2020-08-22 11:08:54</time>
      </trkpt>
      <trkpt lat="41.22078" lon="1.07311">
        <ele>490.4</ele>
        <time>2020-08-22 11:08:55</time>
      </trkpt>
      <trkpt lat="41.22074" lon="1.07312">
        <ele>490.6</ele>
        <time>2020-08-22 11:08:56</time>
      </trkpt>
      <trkpt lat="41.2207" lon="1.07312">
        <ele>490.6</ele>
        <time>2020-08-22 11:08:57</time>
      </trkpt>
      <trkpt lat="41.22066" lon="1.07312">
        <ele>490.8</ele>
        <time>2020-08-22 11:08:58</time>
      </trkpt>
      <trkpt lat="41.22063" lon="1.07311">
        <ele>490.8</ele>
        <time>2020-08-22 11:08:59</time>
      </trkpt>
      <trkpt lat="41.2206" lon="1.0731">
        <ele>491</ele>
        <time>2020-08-22 11:09:00</time>
      </trkpt>
      <trkpt lat="41.22058" lon="1.07307">
        <ele>491.2</ele>
        <time>2020-08-22 11:09:01</time>
      </trkpt>
      <trkpt lat="41.22056" lon="1.07304">
        <ele>491.6</ele>
        <time>2020-08-22 11:09:02</time>
      </trkpt>
      <trkpt lat="41.22053" lon="1.07299">
        <ele>491.8</ele>
        <time>2020-08-22 11:09:03</time>
      </trkpt>
      <trkpt lat="41.22052" lon="1.07295">
        <ele>491.8</ele>
        <time>2020-08-22 11:09:04</time>
      </trkpt>
      <trkpt lat="41.22052" lon="1.0729">
        <ele>492</ele>
        <time>2020-08-22 11:09:05</time>
      </trkpt>
      <trkpt lat="41.22051" lon="1.07285">
        <ele>492</ele>
        <time>2020-08-22 11:09:06</time>
      </trkpt>
      <trkpt lat="41.22049" lon="1.0728">
        <ele>492.4</ele>
        <time>2020-08-22 11:09:07</time>
      </trkpt>
      <trkpt lat="41.22048" lon="1.07276">
        <ele>492.4</ele>
        <time>2020-08-22 11:09:08</time>
      </trkpt>
      <trkpt lat="41.22046" lon="1.07271">
        <ele>492.8</ele>
        <time>2020-08-22 11:09:09</time>
      </trkpt>
      <trkpt lat="41.22043" lon="1.07267">
        <ele>493</ele>
        <time>2020-08-22 11:09:10</time>
      </trkpt>
      <trkpt lat="41.22041" lon="1.07263">
        <ele>493.4</ele>
        <time>2020-08-22 11:09:11</time>
      </trkpt>
      <trkpt lat="41.22037" lon="1.07259">
        <ele>493.6</ele>
        <time>2020-08-22 11:09:12</time>
      </trkpt>
      <trkpt lat="41.22033" lon="1.07257">
        <ele>493.6</ele>
        <time>2020-08-22 11:09:13</time>
      </trkpt>
      <trkpt lat="41.22029" lon="1.07255">
        <ele>494</ele>
        <time>2020-08-22 11:09:14</time>
      </trkpt>
      <trkpt lat="41.22025" lon="1.07254">
        <ele>494</ele>
        <time>2020-08-22 11:09:15</time>
      </trkpt>
      <trkpt lat="41.2202" lon="1.07255">
        <ele>494.2</ele>
        <time>2020-08-22 11:09:16</time>
      </trkpt>
      <trkpt lat="41.22016" lon="1.07255">
        <ele>494.4</ele>
        <time>2020-08-22 11:09:17</time>
      </trkpt>
      <trkpt lat="41.22012" lon="1.07256">
        <ele>494.6</ele>
        <time>2020-08-22 11:09:18</time>
      </trkpt>
      <trkpt lat="41.22008" lon="1.07258">
        <ele>494.8</ele>
        <time>2020-08-22 11:09:19</time>
      </trkpt>
      <trkpt lat="41.22004" lon="1.0726">
        <ele>494.8</ele>
        <time>2020-08-22 11:09:20</time>
      </trkpt>
      <trkpt lat="41.22001" lon="1.07262">
        <ele>495</ele>
        <time>2020-08-22 11:09:21</time>
      </trkpt>
      <trkpt lat="41.21997" lon="1.07264">
        <ele>495</ele>
        <time>2020-08-22 11:09:22</time>
      </trkpt>
      <trkpt lat="41.21993" lon="1.07266">
        <ele>495.2</ele>
        <time>2020-08-22 11:09:23</time>
      </trkpt>
      <trkpt lat="41.21989" lon="1.07269">
        <ele>495.4</ele>
        <time>2020-08-22 11:09:24</time>
      </trkpt>
      <trkpt lat="41.21986" lon="1.07272">
        <ele>495.6</ele>
        <time>2020-08-22 11:09:25</time>
      </trkpt>
      <trkpt lat="41.21983" lon="1.07274">
        <ele>495.8</ele>
        <time>2020-08-22 11:09:26</time>
      </trkpt>
      <trkpt lat="41.21979" lon="1.07277">
        <ele>496</ele>
        <time>2020-08-22 11:09:27</time>
      </trkpt>
      <trkpt lat="41.21975" lon="1.07278">
        <ele>496</ele>
        <time>2020-08-22 11:09:28</time>
      </trkpt>
      <trkpt lat="41.21971" lon="1.0728">
        <ele>496.2</ele>
        <time>2020-08-22 11:09:29</time>
      </trkpt>
      <trkpt lat="41.21967" lon="1.0728">
        <ele>496.4</ele>
        <time>2020-08-22 11:09:30</time>
      </trkpt>
      <trkpt lat="41.21963" lon="1.07281">
        <ele>496.6</ele>
        <time>2020-08-22 11:09:31</time>
      </trkpt>
      <trkpt lat="41.21958" lon="1.07281">
        <ele>496.6</ele>
        <time>2020-08-22 11:09:32</time>
      </trkpt>
      <trkpt lat="41.21954" lon="1.07282">
        <ele>496.6</ele>
        <time>2020-08-22 11:09:33</time>
      </trkpt>
      <trkpt lat="41.21951" lon="1.07283">
        <ele>497</ele>
        <time>2020-08-22 11:09:34</time>
      </trkpt>
      <trkpt lat="41.21947" lon="1.07283">
        <ele>497.2</ele>
        <time>2020-08-22 11:09:35</time>
      </trkpt>
      <trkpt lat="41.21945" lon="1.07285">
        <ele>497.4</ele>
        <time>2020-08-22 11:09:36</time>
      </trkpt>
      <trkpt lat="41.21941" lon="1.07286">
        <ele>497.6</ele>
        <time>2020-08-22 11:09:37</time>
      </trkpt>
      <trkpt lat="41.21938" lon="1.07287">
        <ele>497.8</ele>
        <time>2020-08-22 11:09:38</time>
      </trkpt>
      <trkpt lat="41.21934" lon="1.07289">
        <ele>498</ele>
        <time>2020-08-22 11:09:39</time>
      </trkpt>
      <trkpt lat="41.2193" lon="1.07289">
        <ele>498.2</ele>
        <time>2020-08-22 11:09:40</time>
      </trkpt>
      <trkpt lat="41.21925" lon="1.0729">
        <ele>498.4</ele>
        <time>2020-08-22 11:09:41</time>
      </trkpt>
      <trkpt lat="41.21921" lon="1.0729">
        <ele>498.4</ele>
        <time>2020-08-22 11:09:42</time>
      </trkpt>
      <trkpt lat="41.21917" lon="1.0729">
        <ele>498.6</ele>
        <time>2020-08-22 11:09:43</time>
      </trkpt>
      <trkpt lat="41.21913" lon="1.0729">
        <ele>498.8</ele>
        <time>2020-08-22 11:09:44</time>
      </trkpt>
      <trkpt lat="41.21909" lon="1.0729">
        <ele>499.2</ele>
        <time>2020-08-22 11:09:45</time>
      </trkpt>
      <trkpt lat="41.21905" lon="1.0729">
        <ele>499.4</ele>
        <time>2020-08-22 11:09:46</time>
      </trkpt>
      <trkpt lat="41.21902" lon="1.0729">
        <ele>499.6</ele>
        <time>2020-08-22 11:09:47</time>
      </trkpt>
      <trkpt lat="41.21898" lon="1.0729">
        <ele>500</ele>
        <time>2020-08-22 11:09:48</time>
      </trkpt>
      <trkpt lat="41.21894" lon="1.0729">
        <ele>500</ele>
        <time>2020-08-22 11:09:49</time>
      </trkpt>
      <trkpt lat="41.2189" lon="1.0729">
        <ele>500.2</ele>
        <time>2020-08-22 11:09:50</time>
      </trkpt>
      <trkpt lat="41.21886" lon="1.07289">
        <ele>500.4</ele>
        <time>2020-08-22 11:09:51</time>
      </trkpt>
      <trkpt lat="41.21882" lon="1.07288">
        <ele>500.6</ele>
        <time>2020-08-22 11:09:52</time>
      </trkpt>
      <trkpt lat="41.21877" lon="1.07287">
        <ele>500.8</ele>
        <time>2020-08-22 11:09:53</time>
      </trkpt>
      <trkpt lat="41.21873" lon="1.07286">
        <ele>500.8</ele>
        <time>2020-08-22 11:09:54</time>
      </trkpt>
      <trkpt lat="41.21869" lon="1.07285">
        <ele>501</ele>
        <time>2020-08-22 11:09:55</time>
      </trkpt>
      <trkpt lat="41.21866" lon="1.07284">
        <ele>501</ele>
        <time>2020-08-22 11:09:56</time>
      </trkpt>
      <trkpt lat="41.21861" lon="1.07282">
        <ele>501.2</ele>
        <time>2020-08-22 11:09:57</time>
      </trkpt>
      <trkpt lat="41.21857" lon="1.07281">
        <ele>501.2</ele>
        <time>2020-08-22 11:09:58</time>
      </trkpt>
      <trkpt lat="41.21853" lon="1.0728">
        <ele>501.2</ele>
        <time>2020-08-22 11:09:59</time>
      </trkpt>
      <trkpt lat="41.21823" lon="1.07275">
        <ele>501.4</ele>
        <time>2020-08-22 11:10:06</time>
      </trkpt>
      <trkpt lat="41.21811" lon="1.07275">
        <ele>501.4</ele>
        <time>2020-08-22 11:10:09</time>
      </trkpt>
      <trkpt lat="41.21802" lon="1.07275">
        <ele>501.6</ele>
        <time>2020-08-22 11:10:11</time>
      </trkpt>
      <trkpt lat="41.21798" lon="1.07275">
        <ele>501.6</ele>
        <time>2020-08-22 11:10:12</time>
      </trkpt>
      <trkpt lat="41.21794" lon="1.07276">
        <ele>501.8</ele>
        <time>2020-08-22 11:10:13</time>
      </trkpt>
      <trkpt lat="41.2179" lon="1.07276">
        <ele>501.8</ele>
        <time>2020-08-22 11:10:14</time>
      </trkpt>
      <trkpt lat="41.21786" lon="1.07276">
        <ele>502</ele>
        <time>2020-08-22 11:10:15</time>
      </trkpt>
      <trkpt lat="41.21782" lon="1.07276">
        <ele>502</ele>
        <time>2020-08-22 11:10:16</time>
      </trkpt>
      <trkpt lat="41.21778" lon="1.07276">
        <ele>502.2</ele>
        <time>2020-08-22 11:10:17</time>
      </trkpt>
      <trkpt lat="41.2177" lon="1.07275">
        <ele>502.4</ele>
        <time>2020-08-22 11:10:19</time>
      </trkpt>
      <trkpt lat="41.21765" lon="1.07275">
        <ele>502.6</ele>
        <time>2020-08-22 11:10:20</time>
      </trkpt>
      <trkpt lat="41.21762" lon="1.07275">
        <ele>502.8</ele>
        <time>2020-08-22 11:10:21</time>
      </trkpt>
      <trkpt lat="41.21759" lon="1.07274">
        <ele>502.8</ele>
        <time>2020-08-22 11:10:22</time>
      </trkpt>
      <trkpt lat="41.21755" lon="1.07274">
        <ele>503</ele>
        <time>2020-08-22 11:10:23</time>
      </trkpt>
      <trkpt lat="41.21751" lon="1.07273">
        <ele>503.2</ele>
        <time>2020-08-22 11:10:24</time>
      </trkpt>
      <trkpt lat="41.21747" lon="1.07272">
        <ele>503.4</ele>
        <time>2020-08-22 11:10:25</time>
      </trkpt>
      <trkpt lat="41.21743" lon="1.07271">
        <ele>503.6</ele>
        <time>2020-08-22 11:10:26</time>
      </trkpt>
      <trkpt lat="41.21739" lon="1.0727">
        <ele>504</ele>
        <time>2020-08-22 11:10:27</time>
      </trkpt>
      <trkpt lat="41.21735" lon="1.07269">
        <ele>504</ele>
        <time>2020-08-22 11:10:28</time>
      </trkpt>
      <trkpt lat="41.21731" lon="1.07268">
        <ele>504.2</ele>
        <time>2020-08-22 11:10:29</time>
      </trkpt>
      <trkpt lat="41.21727" lon="1.07267">
        <ele>504.2</ele>
        <time>2020-08-22 11:10:30</time>
      </trkpt>
      <trkpt lat="41.21723" lon="1.07267">
        <ele>504.4</ele>
        <time>2020-08-22 11:10:31</time>
      </trkpt>
      <trkpt lat="41.21719" lon="1.07266">
        <ele>504.6</ele>
        <time>2020-08-22 11:10:32</time>
      </trkpt>
      <trkpt lat="41.21715" lon="1.07265">
        <ele>504.8</ele>
        <time>2020-08-22 11:10:33</time>
      </trkpt>
      <trkpt lat="41.21711" lon="1.07263">
        <ele>505</ele>
        <time>2020-08-22 11:10:34</time>
      </trkpt>
      <trkpt lat="41.21707" lon="1.07261">
        <ele>505</ele>
        <time>2020-08-22 11:10:35</time>
      </trkpt>
      <trkpt lat="41.21705" lon="1.07258">
        <ele>505.2</ele>
        <time>2020-08-22 11:10:36</time>
      </trkpt>
      <trkpt lat="41.21703" lon="1.07255">
        <ele>505.4</ele>
        <time>2020-08-22 11:10:37</time>
      </trkpt>
      <trkpt lat="41.21702" lon="1.07251">
        <ele>505.4</ele>
        <time>2020-08-22 11:10:38</time>
      </trkpt>
      <trkpt lat="41.217" lon="1.07247">
        <ele>505.6</ele>
        <time>2020-08-22 11:10:39</time>
      </trkpt>
      <trkpt lat="41.21698" lon="1.07243">
        <ele>505.6</ele>
        <time>2020-08-22 11:10:40</time>
      </trkpt>
      <trkpt lat="41.21695" lon="1.07239">
        <ele>505.8</ele>
        <time>2020-08-22 11:10:41</time>
      </trkpt>
      <trkpt lat="41.21692" lon="1.07236">
        <ele>506</ele>
        <time>2020-08-22 11:10:42</time>
      </trkpt>
      <trkpt lat="41.2169" lon="1.07233">
        <ele>506.2</ele>
        <time>2020-08-22 11:10:43</time>
      </trkpt>
      <trkpt lat="41.21687" lon="1.07231">
        <ele>506.4</ele>
        <time>2020-08-22 11:10:44</time>
      </trkpt>
      <trkpt lat="41.21684" lon="1.07229">
        <ele>506.6</ele>
        <time>2020-08-22 11:10:45</time>
      </trkpt>
      <trkpt lat="41.21681" lon="1.07227">
        <ele>506.8</ele>
        <time>2020-08-22 11:10:46</time>
      </trkpt>
      <trkpt lat="41.21677" lon="1.07226">
        <ele>507.2</ele>
        <time>2020-08-22 11:10:47</time>
      </trkpt>
      <trkpt lat="41.21673" lon="1.07224">
        <ele>507.2</ele>
        <time>2020-08-22 11:10:48</time>
      </trkpt>
      <trkpt lat="41.21669" lon="1.07223">
        <ele>507.4</ele>
        <time>2020-08-22 11:10:49</time>
      </trkpt>
      <trkpt lat="41.21664" lon="1.07221">
        <ele>507.6</ele>
        <time>2020-08-22 11:10:50</time>
      </trkpt>
      <trkpt lat="41.2166" lon="1.0722">
        <ele>507.8</ele>
        <time>2020-08-22 11:10:51</time>
      </trkpt>
      <trkpt lat="41.21655" lon="1.07219">
        <ele>507.8</ele>
        <time>2020-08-22 11:10:52</time>
      </trkpt>
      <trkpt lat="41.21651" lon="1.0722">
        <ele>508</ele>
        <time>2020-08-22 11:10:53</time>
      </trkpt>
      <trkpt lat="41.21647" lon="1.07222">
        <ele>508</ele>
        <time>2020-08-22 11:10:54</time>
      </trkpt>
      <trkpt lat="41.21643" lon="1.07227">
        <ele>508</ele>
        <time>2020-08-22 11:10:55</time>
      </trkpt>
      <trkpt lat="41.21639" lon="1.07232">
        <ele>508</ele>
        <time>2020-08-22 11:10:56</time>
      </trkpt>
      <trkpt lat="41.21628" lon="1.07249">
        <ele>508.2</ele>
        <time>2020-08-22 11:10:59</time>
      </trkpt>
      <trkpt lat="41.21624" lon="1.07254">
        <ele>508.2</ele>
        <time>2020-08-22 11:11:00</time>
      </trkpt>
      <trkpt lat="41.21621" lon="1.0726">
        <ele>508</ele>
        <time>2020-08-22 11:11:01</time>
      </trkpt>
      <trkpt lat="41.21617" lon="1.07266">
        <ele>508</ele>
        <time>2020-08-22 11:11:02</time>
      </trkpt>
      <trkpt lat="41.21613" lon="1.07271">
        <ele>508</ele>
        <time>2020-08-22 11:11:03</time>
      </trkpt>
      <trkpt lat="41.21605" lon="1.07282">
        <ele>507.6</ele>
        <time>2020-08-22 11:11:05</time>
      </trkpt>
      <trkpt lat="41.21602" lon="1.07288">
        <ele>507.4</ele>
        <time>2020-08-22 11:11:06</time>
      </trkpt>
      <trkpt lat="41.21586" lon="1.07316">
        <ele>506.2</ele>
        <time>2020-08-22 11:11:10</time>
      </trkpt>
      <trkpt lat="41.21583" lon="1.07323">
        <ele>506</ele>
        <time>2020-08-22 11:11:11</time>
      </trkpt>
      <trkpt lat="41.21579" lon="1.0733">
        <ele>505.6</ele>
        <time>2020-08-22 11:11:12</time>
      </trkpt>
      <trkpt lat="41.21572" lon="1.07344">
        <ele>504.8</ele>
        <time>2020-08-22 11:11:14</time>
      </trkpt>
      <trkpt lat="41.21564" lon="1.07358">
        <ele>504.4</ele>
        <time>2020-08-22 11:11:16</time>
      </trkpt>
      <trkpt lat="41.2156" lon="1.07365">
        <ele>504.2</ele>
        <time>2020-08-22 11:11:17</time>
      </trkpt>
      <trkpt lat="41.21556" lon="1.07372">
        <ele>504</ele>
        <time>2020-08-22 11:11:18</time>
      </trkpt>
      <trkpt lat="41.21551" lon="1.07379">
        <ele>503.8</ele>
        <time>2020-08-22 11:11:19</time>
      </trkpt>
      <trkpt lat="41.21537" lon="1.074">
        <ele>503.4</ele>
        <time>2020-08-22 11:11:22</time>
      </trkpt>
      <trkpt lat="41.21529" lon="1.07414">
        <ele>503</ele>
        <time>2020-08-22 11:11:24</time>
      </trkpt>
      <trkpt lat="41.21525" lon="1.0742">
        <ele>503</ele>
        <time>2020-08-22 11:11:25</time>
      </trkpt>
      <trkpt lat="41.21516" lon="1.07435">
        <ele>502.6</ele>
        <time>2020-08-22 11:11:27</time>
      </trkpt>
      <trkpt lat="41.21507" lon="1.07452">
        <ele>502.4</ele>
        <time>2020-08-22 11:11:29</time>
      </trkpt>
      <trkpt lat="41.21499" lon="1.0747">
        <ele>501.6</ele>
        <time>2020-08-22 11:11:31</time>
      </trkpt>
      <trkpt lat="41.21496" lon="1.0748">
        <ele>501.2</ele>
        <time>2020-08-22 11:11:32</time>
      </trkpt>
      <trkpt lat="41.21494" lon="1.0749">
        <ele>501.2</ele>
        <time>2020-08-22 11:11:33</time>
      </trkpt>
      <trkpt lat="41.21492" lon="1.07499">
        <ele>500.6</ele>
        <time>2020-08-22 11:11:34</time>
      </trkpt>
      <trkpt lat="41.21489" lon="1.07507">
        <ele>500.2</ele>
        <time>2020-08-22 11:11:35</time>
      </trkpt>
      <trkpt lat="41.21484" lon="1.07512">
        <ele>499.8</ele>
        <time>2020-08-22 11:11:36</time>
      </trkpt>
      <trkpt lat="41.21479" lon="1.07517">
        <ele>499.2</ele>
        <time>2020-08-22 11:11:37</time>
      </trkpt>
      <trkpt lat="41.21475" lon="1.07523">
        <ele>498.8</ele>
        <time>2020-08-22 11:11:38</time>
      </trkpt>
      <trkpt lat="41.21472" lon="1.07531">
        <ele>498.2</ele>
        <time>2020-08-22 11:11:39</time>
      </trkpt>
      <trkpt lat="41.21471" lon="1.0754">
        <ele>498</ele>
        <time>2020-08-22 11:11:40</time>
      </trkpt>
      <trkpt lat="41.2147" lon="1.07549">
        <ele>497.4</ele>
        <time>2020-08-22 11:11:41</time>
      </trkpt>
      <trkpt lat="41.21468" lon="1.07557">
        <ele>497.4</ele>
        <time>2020-08-22 11:11:42</time>
      </trkpt>
      <trkpt lat="41.21466" lon="1.07565">
        <ele>497</ele>
        <time>2020-08-22 11:11:43</time>
      </trkpt>
      <trkpt lat="41.21464" lon="1.07573">
        <ele>496.6</ele>
        <time>2020-08-22 11:11:44</time>
      </trkpt>
      <trkpt lat="41.21462" lon="1.07581">
        <ele>496.4</ele>
        <time>2020-08-22 11:11:45</time>
      </trkpt>
      <trkpt lat="41.2146" lon="1.07589">
        <ele>496</ele>
        <time>2020-08-22 11:11:46</time>
      </trkpt>
      <trkpt lat="41.21457" lon="1.07597">
        <ele>495.8</ele>
        <time>2020-08-22 11:11:47</time>
      </trkpt>
      <trkpt lat="41.21454" lon="1.07605">
        <ele>495.6</ele>
        <time>2020-08-22 11:11:48</time>
      </trkpt>
      <trkpt lat="41.21444" lon="1.07629">
        <ele>495</ele>
        <time>2020-08-22 11:11:51</time>
      </trkpt>
      <trkpt lat="41.21444" lon="1.07635">
        <ele>494.6</ele>
        <time>2020-08-22 11:11:52</time>
      </trkpt>
      <trkpt lat="41.21444" lon="1.07641">
        <ele>494</ele>
        <time>2020-08-22 11:11:53</time>
      </trkpt>
      <trkpt lat="41.21445" lon="1.07647">
        <ele>493.6</ele>
        <time>2020-08-22 11:11:54</time>
      </trkpt>
      <trkpt lat="41.21446" lon="1.07653">
        <ele>493.2</ele>
        <time>2020-08-22 11:11:55</time>
      </trkpt>
      <trkpt lat="41.21447" lon="1.07658">
        <ele>493</ele>
        <time>2020-08-22 11:11:56</time>
      </trkpt>
      <trkpt lat="41.21447" lon="1.07663">
        <ele>492.6</ele>
        <time>2020-08-22 11:11:57</time>
      </trkpt>
      <trkpt lat="41.21446" lon="1.07667">
        <ele>492.4</ele>
        <time>2020-08-22 11:11:58</time>
      </trkpt>
      <trkpt lat="41.21445" lon="1.07671">
        <ele>492.2</ele>
        <time>2020-08-22 11:11:59</time>
      </trkpt>
      <trkpt lat="41.21442" lon="1.07673">
        <ele>492</ele>
        <time>2020-08-22 11:12:00</time>
      </trkpt>
      <trkpt lat="41.2144" lon="1.07676">
        <ele>491.8</ele>
        <time>2020-08-22 11:12:01</time>
      </trkpt>
      <trkpt lat="41.21432" lon="1.07689">
        <ele>491.4</ele>
        <time>2020-08-22 11:12:04</time>
      </trkpt>
      <trkpt lat="41.2143" lon="1.07694">
        <ele>491.4</ele>
        <time>2020-08-22 11:12:05</time>
      </trkpt>
      <trkpt lat="41.21425" lon="1.07706">
        <ele>491.4</ele>
        <time>2020-08-22 11:12:07</time>
      </trkpt>
      <trkpt lat="41.21421" lon="1.07711">
        <ele>491.4</ele>
        <time>2020-08-22 11:12:08</time>
      </trkpt>
      <trkpt lat="41.21417" lon="1.07716">
        <ele>491.2</ele>
        <time>2020-08-22 11:12:09</time>
      </trkpt>
      <trkpt lat="41.21403" lon="1.07733">
        <ele>491</ele>
        <time>2020-08-22 11:12:12</time>
      </trkpt>
      <trkpt lat="41.21398" lon="1.0774">
        <ele>490.8</ele>
        <time>2020-08-22 11:12:13</time>
      </trkpt>
      <trkpt lat="41.21393" lon="1.07748">
        <ele>490.6</ele>
        <time>2020-08-22 11:12:14</time>
      </trkpt>
      <trkpt lat="41.21391" lon="1.07755">
        <ele>490.2</ele>
        <time>2020-08-22 11:12:15</time>
      </trkpt>
      <trkpt lat="41.2139" lon="1.07763">
        <ele>490</ele>
        <time>2020-08-22 11:12:16</time>
      </trkpt>
      <trkpt lat="41.2139" lon="1.07769">
        <ele>489.6</ele>
        <time>2020-08-22 11:12:17</time>
      </trkpt>
      <trkpt lat="41.21389" lon="1.07773">
        <ele>488.8</ele>
        <time>2020-08-22 11:12:18</time>
      </trkpt>
      <trkpt lat="41.21387" lon="1.07777">
        <ele>487.8</ele>
        <time>2020-08-22 11:12:19</time>
      </trkpt>
      <trkpt lat="41.21384" lon="1.07778">
        <ele>486.4</ele>
        <time>2020-08-22 11:12:20</time>
      </trkpt>
      <trkpt lat="41.21379" lon="1.07777">
        <ele>485.8</ele>
        <time>2020-08-22 11:12:21</time>
      </trkpt>
      <trkpt lat="41.21375" lon="1.07774">
        <ele>484.8</ele>
        <time>2020-08-22 11:12:22</time>
      </trkpt>
      <trkpt lat="41.21363" lon="1.07767">
        <ele>483.8</ele>
        <time>2020-08-22 11:12:24</time>
      </trkpt>
      <trkpt lat="41.21357" lon="1.07765">
        <ele>483.6</ele>
        <time>2020-08-22 11:12:25</time>
      </trkpt>
      <trkpt lat="41.2135" lon="1.07764">
        <ele>483.2</ele>
        <time>2020-08-22 11:12:26</time>
      </trkpt>
      <trkpt lat="41.21343" lon="1.07764">
        <ele>483</ele>
        <time>2020-08-22 11:12:27</time>
      </trkpt>
      <trkpt lat="41.21337" lon="1.07764">
        <ele>483</ele>
        <time>2020-08-22 11:12:28</time>
      </trkpt>
      <trkpt lat="41.2133" lon="1.07764">
        <ele>482.8</ele>
        <time>2020-08-22 11:12:29</time>
      </trkpt>
      <trkpt lat="41.21317" lon="1.07765">
        <ele>482.6</ele>
        <time>2020-08-22 11:12:31</time>
      </trkpt>
      <trkpt lat="41.21311" lon="1.07766">
        <ele>482.6</ele>
        <time>2020-08-22 11:12:32</time>
      </trkpt>
      <trkpt lat="41.21305" lon="1.07768">
        <ele>482</ele>
        <time>2020-08-22 11:12:33</time>
      </trkpt>
      <trkpt lat="41.21301" lon="1.0777">
        <ele>481.6</ele>
        <time>2020-08-22 11:12:34</time>
      </trkpt>
      <trkpt lat="41.21298" lon="1.07772">
        <ele>481.2</ele>
        <time>2020-08-22 11:12:35</time>
      </trkpt>
      <trkpt lat="41.21295" lon="1.07774">
        <ele>480.8</ele>
        <time>2020-08-22 11:12:36</time>
      </trkpt>
      <trkpt lat="41.21291" lon="1.07777">
        <ele>480.6</ele>
        <time>2020-08-22 11:12:37</time>
      </trkpt>
      <trkpt lat="41.21275" lon="1.07788">
        <ele>480.4</ele>
        <time>2020-08-22 11:12:41</time>
      </trkpt>
      <trkpt lat="41.21269" lon="1.0779">
        <ele>480.2</ele>
        <time>2020-08-22 11:12:42</time>
      </trkpt>
      <trkpt lat="41.21263" lon="1.07792">
        <ele>480.2</ele>
        <time>2020-08-22 11:12:43</time>
      </trkpt>
      <trkpt lat="41.21257" lon="1.07791">
        <ele>480.2</ele>
        <time>2020-08-22 11:12:44</time>
      </trkpt>
      <trkpt lat="41.21244" lon="1.07786">
        <ele>480.2</ele>
        <time>2020-08-22 11:12:46</time>
      </trkpt>
      <trkpt lat="41.21237" lon="1.07783">
        <ele>480.2</ele>
        <time>2020-08-22 11:12:47</time>
      </trkpt>
      <trkpt lat="41.21231" lon="1.07783">
        <ele>480.2</ele>
        <time>2020-08-22 11:12:48</time>
      </trkpt>
      <trkpt lat="41.21226" lon="1.07786">
        <ele>480.4</ele>
        <time>2020-08-22 11:12:49</time>
      </trkpt>
      <trkpt lat="41.21221" lon="1.07791">
        <ele>480.6</ele>
        <time>2020-08-22 11:12:50</time>
      </trkpt>
      <trkpt lat="41.21217" lon="1.07795">
        <ele>480.6</ele>
        <time>2020-08-22 11:12:51</time>
      </trkpt>
      <trkpt lat="41.21213" lon="1.07799">
        <ele>480.6</ele>
        <time>2020-08-22 11:12:52</time>
      </trkpt>
      <trkpt lat="41.21208" lon="1.07802">
        <ele>480.8</ele>
        <time>2020-08-22 11:12:53</time>
      </trkpt>
      <trkpt lat="41.21203" lon="1.07803">
        <ele>481</ele>
        <time>2020-08-22 11:12:54</time>
      </trkpt>
      <trkpt lat="41.21197" lon="1.07804">
        <ele>481.2</ele>
        <time>2020-08-22 11:12:55</time>
      </trkpt>
      <trkpt lat="41.21192" lon="1.07805">
        <ele>481.4</ele>
        <time>2020-08-22 11:12:56</time>
      </trkpt>
      <trkpt lat="41.21188" lon="1.07807">
        <ele>482</ele>
        <time>2020-08-22 11:12:57</time>
      </trkpt>
      <trkpt lat="41.21184" lon="1.07809">
        <ele>482.4</ele>
        <time>2020-08-22 11:12:58</time>
      </trkpt>
      <trkpt lat="41.2118" lon="1.07813">
        <ele>482.6</ele>
        <time>2020-08-22 11:12:59</time>
      </trkpt>
      <trkpt lat="41.21176" lon="1.07815">
        <ele>482.6</ele>
        <time>2020-08-22 11:13:00</time>
      </trkpt>
      <trkpt lat="41.21169" lon="1.07817">
        <ele>482.8</ele>
        <time>2020-08-22 11:13:01</time>
      </trkpt>
      <trkpt lat="41.21163" lon="1.07818">
        <ele>482.8</ele>
        <time>2020-08-22 11:13:02</time>
      </trkpt>
      <trkpt lat="41.21158" lon="1.07819">
        <ele>482.8</ele>
        <time>2020-08-22 11:13:03</time>
      </trkpt>
      <trkpt lat="41.21152" lon="1.0782">
        <ele>482.8</ele>
        <time>2020-08-22 11:13:04</time>
      </trkpt>
      <trkpt lat="41.21146" lon="1.07821">
        <ele>482.6</ele>
        <time>2020-08-22 11:13:05</time>
      </trkpt>
      <trkpt lat="41.21141" lon="1.07824">
        <ele>482.6</ele>
        <time>2020-08-22 11:13:06</time>
      </trkpt>
      <trkpt lat="41.21136" lon="1.0783">
        <ele>482.2</ele>
        <time>2020-08-22 11:13:07</time>
      </trkpt>
      <trkpt lat="41.21133" lon="1.07836">
        <ele>482</ele>
        <time>2020-08-22 11:13:08</time>
      </trkpt>
      <trkpt lat="41.2113" lon="1.07844">
        <ele>481.8</ele>
        <time>2020-08-22 11:13:09</time>
      </trkpt>
      <trkpt lat="41.21128" lon="1.07854">
        <ele>480.6</ele>
        <time>2020-08-22 11:13:10</time>
      </trkpt>
      <trkpt lat="41.21125" lon="1.07875">
        <ele>478.6</ele>
        <time>2020-08-22 11:13:12</time>
      </trkpt>
      <trkpt lat="41.21122" lon="1.07887">
        <ele>478.2</ele>
        <time>2020-08-22 11:13:13</time>
      </trkpt>
      <trkpt lat="41.21122" lon="1.07902">
        <ele>477.6</ele>
        <time>2020-08-22 11:13:14</time>
      </trkpt>
      <trkpt lat="41.21125" lon="1.07927">
        <ele>476.8</ele>
        <time>2020-08-22 11:13:16</time>
      </trkpt>
      <trkpt lat="41.2113" lon="1.07941">
        <ele>476.4</ele>
        <time>2020-08-22 11:13:17</time>
      </trkpt>
      <trkpt lat="41.21134" lon="1.07954">
        <ele>475.2</ele>
        <time>2020-08-22 11:13:18</time>
      </trkpt>
      <trkpt lat="41.21139" lon="1.07967">
        <ele>474</ele>
        <time>2020-08-22 11:13:19</time>
      </trkpt>
      <trkpt lat="41.21144" lon="1.07981">
        <ele>473.4</ele>
        <time>2020-08-22 11:13:20</time>
      </trkpt>
      <trkpt lat="41.21147" lon="1.07996">
        <ele>472</ele>
        <time>2020-08-22 11:13:21</time>
      </trkpt>
      <trkpt lat="41.2115" lon="1.08009">
        <ele>471.4</ele>
        <time>2020-08-22 11:13:22</time>
      </trkpt>
      <trkpt lat="41.21152" lon="1.0802">
        <ele>470</ele>
        <time>2020-08-22 11:13:23</time>
      </trkpt>
      <trkpt lat="41.21153" lon="1.0803">
        <ele>469.6</ele>
        <time>2020-08-22 11:13:24</time>
      </trkpt>
      <trkpt lat="41.21151" lon="1.08036">
        <ele>468.2</ele>
        <time>2020-08-22 11:13:25</time>
      </trkpt>
      <trkpt lat="41.21148" lon="1.08039">
        <ele>466.6</ele>
        <time>2020-08-22 11:13:26</time>
      </trkpt>
      <trkpt lat="41.21143" lon="1.08041">
        <ele>464.8</ele>
        <time>2020-08-22 11:13:27</time>
      </trkpt>
      <trkpt lat="41.21138" lon="1.0804">
        <ele>463</ele>
        <time>2020-08-22 11:13:28</time>
      </trkpt>
      <trkpt lat="41.21133" lon="1.08037">
        <ele>462.2</ele>
        <time>2020-08-22 11:13:29</time>
      </trkpt>
      <trkpt lat="41.2113" lon="1.08034">
        <ele>461.4</ele>
        <time>2020-08-22 11:13:30</time>
      </trkpt>
      <trkpt lat="41.21127" lon="1.08032">
        <ele>461.2</ele>
        <time>2020-08-22 11:13:31</time>
      </trkpt>
      <trkpt lat="41.21123" lon="1.08029">
        <ele>461</ele>
        <time>2020-08-22 11:13:32</time>
      </trkpt>
      <trkpt lat="41.2112" lon="1.08026">
        <ele>460.8</ele>
        <time>2020-08-22 11:13:33</time>
      </trkpt>
      <trkpt lat="41.21117" lon="1.08023">
        <ele>460.8</ele>
        <time>2020-08-22 11:13:34</time>
      </trkpt>
      <trkpt lat="41.21113" lon="1.08021">
        <ele>460.8</ele>
        <time>2020-08-22 11:13:35</time>
      </trkpt>
      <trkpt lat="41.21106" lon="1.08019">
        <ele>460.8</ele>
        <time>2020-08-22 11:13:37</time>
      </trkpt>
      <trkpt lat="41.21102" lon="1.08017">
        <ele>461</ele>
        <time>2020-08-22 11:13:38</time>
      </trkpt>
      <trkpt lat="41.21099" lon="1.08015">
        <ele>461.2</ele>
        <time>2020-08-22 11:13:39</time>
      </trkpt>
      <trkpt lat="41.21095" lon="1.08014">
        <ele>461.4</ele>
        <time>2020-08-22 11:13:40</time>
      </trkpt>
      <trkpt lat="41.21093" lon="1.08013">
        <ele>461.6</ele>
        <time>2020-08-22 11:13:41</time>
      </trkpt>
      <trkpt lat="41.21089" lon="1.08011">
        <ele>461.8</ele>
        <time>2020-08-22 11:13:42</time>
      </trkpt>
      <trkpt lat="41.21087" lon="1.08009">
        <ele>462</ele>
        <time>2020-08-22 11:13:43</time>
      </trkpt>
      <trkpt lat="41.21084" lon="1.08008">
        <ele>462.6</ele>
        <time>2020-08-22 11:13:44</time>
      </trkpt>
      <trkpt lat="41.21081" lon="1.08007">
        <ele>463</ele>
        <time>2020-08-22 11:13:45</time>
      </trkpt>
      <trkpt lat="41.21078" lon="1.08005">
        <ele>463.4</ele>
        <time>2020-08-22 11:13:46</time>
      </trkpt>
      <trkpt lat="41.21075" lon="1.08003">
        <ele>463.6</ele>
        <time>2020-08-22 11:13:47</time>
      </trkpt>
      <trkpt lat="41.21072" lon="1.08">
        <ele>464</ele>
        <time>2020-08-22 11:13:48</time>
      </trkpt>
      <trkpt lat="41.21069" lon="1.07998">
        <ele>464.2</ele>
        <time>2020-08-22 11:13:49</time>
      </trkpt>
      <trkpt lat="41.21065" lon="1.07995">
        <ele>464.6</ele>
        <time>2020-08-22 11:13:50</time>
      </trkpt>
      <trkpt lat="41.21061" lon="1.07991">
        <ele>465</ele>
        <time>2020-08-22 11:13:51</time>
      </trkpt>
      <trkpt lat="41.21058" lon="1.07989">
        <ele>466</ele>
        <time>2020-08-22 11:13:52</time>
      </trkpt>
      <trkpt lat="41.21055" lon="1.07987">
        <ele>466.6</ele>
        <time>2020-08-22 11:13:53</time>
      </trkpt>
      <trkpt lat="41.21051" lon="1.07985">
        <ele>467</ele>
        <time>2020-08-22 11:13:54</time>
      </trkpt>
      <trkpt lat="41.21048" lon="1.07982">
        <ele>467.6</ele>
        <time>2020-08-22 11:13:55</time>
      </trkpt>
      <trkpt lat="41.21045" lon="1.07979">
        <ele>467.8</ele>
        <time>2020-08-22 11:13:56</time>
      </trkpt>
      <trkpt lat="41.21042" lon="1.07975">
        <ele>468.4</ele>
        <time>2020-08-22 11:13:57</time>
      </trkpt>
      <trkpt lat="41.21039" lon="1.07971">
        <ele>468.6</ele>
        <time>2020-08-22 11:13:58</time>
      </trkpt>
      <trkpt lat="41.21037" lon="1.07968">
        <ele>469</ele>
        <time>2020-08-22 11:13:59</time>
      </trkpt>
      <trkpt lat="41.21033" lon="1.07965">
        <ele>469.2</ele>
        <time>2020-08-22 11:14:00</time>
      </trkpt>
      <trkpt lat="41.2103" lon="1.07963">
        <ele>469.6</ele>
        <time>2020-08-22 11:14:01</time>
      </trkpt>
      <trkpt lat="41.21027" lon="1.07961">
        <ele>470</ele>
        <time>2020-08-22 11:14:02</time>
      </trkpt>
      <trkpt lat="41.21025" lon="1.07961">
        <ele>470.6</ele>
        <time>2020-08-22 11:14:03</time>
      </trkpt>
      <trkpt lat="41.21022" lon="1.0796">
        <ele>471.2</ele>
        <time>2020-08-22 11:14:04</time>
      </trkpt>
      <trkpt lat="41.21019" lon="1.07961">
        <ele>471.6</ele>
        <time>2020-08-22 11:14:05</time>
      </trkpt>
      <trkpt lat="41.21016" lon="1.07962">
        <ele>472</ele>
        <time>2020-08-22 11:14:06</time>
      </trkpt>
      <trkpt lat="41.21014" lon="1.07963">
        <ele>472.2</ele>
        <time>2020-08-22 11:14:07</time>
      </trkpt>
      <trkpt lat="41.21011" lon="1.07964">
        <ele>472.6</ele>
        <time>2020-08-22 11:14:08</time>
      </trkpt>
      <trkpt lat="41.21009" lon="1.07966">
        <ele>472.8</ele>
        <time>2020-08-22 11:14:09</time>
      </trkpt>
      <trkpt lat="41.21006" lon="1.07968">
        <ele>473</ele>
        <time>2020-08-22 11:14:10</time>
      </trkpt>
      <trkpt lat="41.21004" lon="1.0797">
        <ele>473.2</ele>
        <time>2020-08-22 11:14:11</time>
      </trkpt>
      <trkpt lat="41.21002" lon="1.07973">
        <ele>473.4</ele>
        <time>2020-08-22 11:14:12</time>
      </trkpt>
      <trkpt lat="41.21" lon="1.07975">
        <ele>474</ele>
        <time>2020-08-22 11:14:13</time>
      </trkpt>
      <trkpt lat="41.20998" lon="1.07978">
        <ele>474.4</ele>
        <time>2020-08-22 11:14:14</time>
      </trkpt>
      <trkpt lat="41.20996" lon="1.07981">
        <ele>474.8</ele>
        <time>2020-08-22 11:14:15</time>
      </trkpt>
      <trkpt lat="41.20994" lon="1.07983">
        <ele>475</ele>
        <time>2020-08-22 11:14:16</time>
      </trkpt>
      <trkpt lat="41.20991" lon="1.07984">
        <ele>475.4</ele>
        <time>2020-08-22 11:14:17</time>
      </trkpt>
      <trkpt lat="41.20988" lon="1.07986">
        <ele>475.4</ele>
        <time>2020-08-22 11:14:18</time>
      </trkpt>
      <trkpt lat="41.20985" lon="1.07986">
        <ele>475.8</ele>
        <time>2020-08-22 11:14:19</time>
      </trkpt>
      <trkpt lat="41.20982" lon="1.07986">
        <ele>476</ele>
        <time>2020-08-22 11:14:20</time>
      </trkpt>
      <trkpt lat="41.20979" lon="1.07985">
        <ele>476.2</ele>
        <time>2020-08-22 11:14:21</time>
      </trkpt>
      <trkpt lat="41.20976" lon="1.07983">
        <ele>476.6</ele>
        <time>2020-08-22 11:14:22</time>
      </trkpt>
      <trkpt lat="41.20973" lon="1.07982">
        <ele>476.8</ele>
        <time>2020-08-22 11:14:23</time>
      </trkpt>
      <trkpt lat="41.20971" lon="1.07982">
        <ele>477</ele>
        <time>2020-08-22 11:14:24</time>
      </trkpt>
      <trkpt lat="41.20968" lon="1.07982">
        <ele>477.2</ele>
        <time>2020-08-22 11:14:25</time>
      </trkpt>
      <trkpt lat="41.20965" lon="1.07981">
        <ele>477.2</ele>
        <time>2020-08-22 11:14:26</time>
      </trkpt>
      <trkpt lat="41.20962" lon="1.07981">
        <ele>477.4</ele>
        <time>2020-08-22 11:14:27</time>
      </trkpt>
      <trkpt lat="41.20959" lon="1.07981">
        <ele>477.6</ele>
        <time>2020-08-22 11:14:28</time>
      </trkpt>
      <trkpt lat="41.20956" lon="1.07982">
        <ele>477.8</ele>
        <time>2020-08-22 11:14:29</time>
      </trkpt>
      <trkpt lat="41.20953" lon="1.07983">
        <ele>477.8</ele>
        <time>2020-08-22 11:14:30</time>
      </trkpt>
      <trkpt lat="41.2095" lon="1.07984">
        <ele>478.2</ele>
        <time>2020-08-22 11:14:31</time>
      </trkpt>
      <trkpt lat="41.20947" lon="1.07985">
        <ele>478.6</ele>
        <time>2020-08-22 11:14:32</time>
      </trkpt>
      <trkpt lat="41.20944" lon="1.07986">
        <ele>479.2</ele>
        <time>2020-08-22 11:14:33</time>
      </trkpt>
      <trkpt lat="41.20941" lon="1.07987">
        <ele>479.4</ele>
        <time>2020-08-22 11:14:34</time>
      </trkpt>
      <trkpt lat="41.20938" lon="1.07988">
        <ele>479.6</ele>
        <time>2020-08-22 11:14:35</time>
      </trkpt>
      <trkpt lat="41.20936" lon="1.07989">
        <ele>479.8</ele>
        <time>2020-08-22 11:14:36</time>
      </trkpt>
      <trkpt lat="41.20933" lon="1.0799">
        <ele>479.8</ele>
        <time>2020-08-22 11:14:37</time>
      </trkpt>
      <trkpt lat="41.2093" lon="1.07991">
        <ele>480.4</ele>
        <time>2020-08-22 11:14:38</time>
      </trkpt>
      <trkpt lat="41.20927" lon="1.07991">
        <ele>480.6</ele>
        <time>2020-08-22 11:14:39</time>
      </trkpt>
      <trkpt lat="41.20924" lon="1.07992">
        <ele>481.4</ele>
        <time>2020-08-22 11:14:40</time>
      </trkpt>
      <trkpt lat="41.20921" lon="1.07993">
        <ele>481.6</ele>
        <time>2020-08-22 11:14:41</time>
      </trkpt>
      <trkpt lat="41.20918" lon="1.07994">
        <ele>482</ele>
        <time>2020-08-22 11:14:42</time>
      </trkpt>
      <trkpt lat="41.20915" lon="1.07995">
        <ele>482.4</ele>
        <time>2020-08-22 11:14:43</time>
      </trkpt>
      <trkpt lat="41.20912" lon="1.07996">
        <ele>482.8</ele>
        <time>2020-08-22 11:14:44</time>
      </trkpt>
      <trkpt lat="41.2091" lon="1.07998">
        <ele>483</ele>
        <time>2020-08-22 11:14:45</time>
      </trkpt>
      <trkpt lat="41.20907" lon="1.07999">
        <ele>483.2</ele>
        <time>2020-08-22 11:14:46</time>
      </trkpt>
      <trkpt lat="41.20904" lon="1.07999">
        <ele>483.4</ele>
        <time>2020-08-22 11:14:47</time>
      </trkpt>
      <trkpt lat="41.20902" lon="1.08">
        <ele>483.8</ele>
        <time>2020-08-22 11:14:48</time>
      </trkpt>
      <trkpt lat="41.20899" lon="1.08001">
        <ele>484.2</ele>
        <time>2020-08-22 11:14:49</time>
      </trkpt>
      <trkpt lat="41.20896" lon="1.08003">
        <ele>484.4</ele>
        <time>2020-08-22 11:14:50</time>
      </trkpt>
      <trkpt lat="41.20894" lon="1.08004">
        <ele>485.2</ele>
        <time>2020-08-22 11:14:51</time>
      </trkpt>
      <trkpt lat="41.20891" lon="1.08005">
        <ele>485.6</ele>
        <time>2020-08-22 11:14:52</time>
      </trkpt>
      <trkpt lat="41.20889" lon="1.08007">
        <ele>486.2</ele>
        <time>2020-08-22 11:14:53</time>
      </trkpt>
      <trkpt lat="41.20886" lon="1.08008">
        <ele>486.8</ele>
        <time>2020-08-22 11:14:54</time>
      </trkpt>
      <trkpt lat="41.20884" lon="1.0801">
        <ele>487.2</ele>
        <time>2020-08-22 11:14:55</time>
      </trkpt>
      <trkpt lat="41.20883" lon="1.08013">
        <ele>487.8</ele>
        <time>2020-08-22 11:14:56</time>
      </trkpt>
      <trkpt lat="41.20882" lon="1.08015">
        <ele>488</ele>
        <time>2020-08-22 11:14:57</time>
      </trkpt>
      <trkpt lat="41.20881" lon="1.08019">
        <ele>488.4</ele>
        <time>2020-08-22 11:14:58</time>
      </trkpt>
      <trkpt lat="41.2088" lon="1.08022">
        <ele>488.6</ele>
        <time>2020-08-22 11:14:59</time>
      </trkpt>
      <trkpt lat="41.2088" lon="1.08026">
        <ele>489.2</ele>
        <time>2020-08-22 11:15:00</time>
      </trkpt>
      <trkpt lat="41.2088" lon="1.0803">
        <ele>489.4</ele>
        <time>2020-08-22 11:15:01</time>
      </trkpt>
      <trkpt lat="41.2088" lon="1.08033">
        <ele>489.6</ele>
        <time>2020-08-22 11:15:02</time>
      </trkpt>
      <trkpt lat="41.20881" lon="1.08037">
        <ele>489.6</ele>
        <time>2020-08-22 11:15:03</time>
      </trkpt>
      <trkpt lat="41.20882" lon="1.08041">
        <ele>489.8</ele>
        <time>2020-08-22 11:15:04</time>
      </trkpt>
      <trkpt lat="41.20883" lon="1.08045">
        <ele>489.8</ele>
        <time>2020-08-22 11:15:05</time>
      </trkpt>
      <trkpt lat="41.20884" lon="1.08048">
        <ele>489.8</ele>
        <time>2020-08-22 11:15:06</time>
      </trkpt>
      <trkpt lat="41.20885" lon="1.08052">
        <ele>490</ele>
        <time>2020-08-22 11:15:07</time>
      </trkpt>
      <trkpt lat="41.20887" lon="1.08055">
        <ele>490</ele>
        <time>2020-08-22 11:15:08</time>
      </trkpt>
      <trkpt lat="41.20888" lon="1.08059">
        <ele>490</ele>
        <time>2020-08-22 11:15:09</time>
      </trkpt>
      <trkpt lat="41.2089" lon="1.08062">
        <ele>490</ele>
        <time>2020-08-22 11:15:10</time>
      </trkpt>
      <trkpt lat="41.20891" lon="1.08065">
        <ele>490.2</ele>
        <time>2020-08-22 11:15:11</time>
      </trkpt>
      <trkpt lat="41.20895" lon="1.08073">
        <ele>490.4</ele>
        <time>2020-08-22 11:15:13</time>
      </trkpt>
      <trkpt lat="41.20904" lon="1.0809">
        <ele>490.6</ele>
        <time>2020-08-22 11:15:18</time>
      </trkpt>
      <trkpt lat="41.20913" lon="1.08103">
        <ele>491</ele>
        <time>2020-08-22 11:15:22</time>
      </trkpt>
      <trkpt lat="41.20916" lon="1.08107">
        <ele>491.2</ele>
        <time>2020-08-22 11:15:23</time>
      </trkpt>
      <trkpt lat="41.20918" lon="1.0811">
        <ele>491.2</ele>
        <time>2020-08-22 11:15:24</time>
      </trkpt>
      <trkpt lat="41.2092" lon="1.08113">
        <ele>491.4</ele>
        <time>2020-08-22 11:15:25</time>
      </trkpt>
      <trkpt lat="41.20922" lon="1.08117">
        <ele>491.4</ele>
        <time>2020-08-22 11:15:26</time>
      </trkpt>
      <trkpt lat="41.20923" lon="1.0812">
        <ele>491.6</ele>
        <time>2020-08-22 11:15:27</time>
      </trkpt>
      <trkpt lat="41.20925" lon="1.08123">
        <ele>491.8</ele>
        <time>2020-08-22 11:15:28</time>
      </trkpt>
      <trkpt lat="41.20927" lon="1.08128">
        <ele>492</ele>
        <time>2020-08-22 11:15:29</time>
      </trkpt>
      <trkpt lat="41.20928" lon="1.08131">
        <ele>492.4</ele>
        <time>2020-08-22 11:15:30</time>
      </trkpt>
      <trkpt lat="41.20929" lon="1.08134">
        <ele>492.6</ele>
        <time>2020-08-22 11:15:31</time>
      </trkpt>
      <trkpt lat="41.20931" lon="1.08138">
        <ele>492.8</ele>
        <time>2020-08-22 11:15:32</time>
      </trkpt>
      <trkpt lat="41.20932" lon="1.08143">
        <ele>492.8</ele>
        <time>2020-08-22 11:15:33</time>
      </trkpt>
      <trkpt lat="41.20933" lon="1.08148">
        <ele>493</ele>
        <time>2020-08-22 11:15:34</time>
      </trkpt>
      <trkpt lat="41.20934" lon="1.08152">
        <ele>493</ele>
        <time>2020-08-22 11:15:35</time>
      </trkpt>
      <trkpt lat="41.20935" lon="1.08155">
        <ele>493</ele>
        <time>2020-08-22 11:15:36</time>
      </trkpt>
      <trkpt lat="41.20936" lon="1.0816">
        <ele>493</ele>
        <time>2020-08-22 11:15:37</time>
      </trkpt>
      <trkpt lat="41.20937" lon="1.08165">
        <ele>493.2</ele>
        <time>2020-08-22 11:15:38</time>
      </trkpt>
      <trkpt lat="41.20937" lon="1.08169">
        <ele>493.4</ele>
        <time>2020-08-22 11:15:39</time>
      </trkpt>
      <trkpt lat="41.20938" lon="1.08172">
        <ele>493.4</ele>
        <time>2020-08-22 11:15:40</time>
      </trkpt>
      <trkpt lat="41.20938" lon="1.08177">
        <ele>493.4</ele>
        <time>2020-08-22 11:15:41</time>
      </trkpt>
      <trkpt lat="41.20938" lon="1.08186">
        <ele>493.8</ele>
        <time>2020-08-22 11:15:43</time>
      </trkpt>
      <trkpt lat="41.20939" lon="1.08191">
        <ele>494</ele>
        <time>2020-08-22 11:15:44</time>
      </trkpt>
      <trkpt lat="41.2094" lon="1.08195">
        <ele>494.2</ele>
        <time>2020-08-22 11:15:45</time>
      </trkpt>
      <trkpt lat="41.2094" lon="1.082">
        <ele>494.4</ele>
        <time>2020-08-22 11:15:46</time>
      </trkpt>
      <trkpt lat="41.2094" lon="1.08206">
        <ele>494.6</ele>
        <time>2020-08-22 11:15:47</time>
      </trkpt>
      <trkpt lat="41.20939" lon="1.08212">
        <ele>494.8</ele>
        <time>2020-08-22 11:15:48</time>
      </trkpt>
      <trkpt lat="41.20937" lon="1.08218">
        <ele>494.8</ele>
        <time>2020-08-22 11:15:49</time>
      </trkpt>
      <trkpt lat="41.20933" lon="1.08222">
        <ele>495</ele>
        <time>2020-08-22 11:15:50</time>
      </trkpt>
      <trkpt lat="41.20929" lon="1.08224">
        <ele>495</ele>
        <time>2020-08-22 11:15:51</time>
      </trkpt>
      <trkpt lat="41.20926" lon="1.08225">
        <ele>495</ele>
        <time>2020-08-22 11:15:52</time>
      </trkpt>
      <trkpt lat="41.2092" lon="1.08226">
        <ele>495</ele>
        <time>2020-08-22 11:15:53</time>
      </trkpt>
      <trkpt lat="41.20915" lon="1.08225">
        <ele>495</ele>
        <time>2020-08-22 11:15:54</time>
      </trkpt>
      <trkpt lat="41.2091" lon="1.08224">
        <ele>495</ele>
        <time>2020-08-22 11:15:55</time>
      </trkpt>
      <trkpt lat="41.20906" lon="1.08221">
        <ele>495</ele>
        <time>2020-08-22 11:15:56</time>
      </trkpt>
      <trkpt lat="41.20901" lon="1.08216">
        <ele>494.8</ele>
        <time>2020-08-22 11:15:57</time>
      </trkpt>
      <trkpt lat="41.20897" lon="1.08212">
        <ele>494.6</ele>
        <time>2020-08-22 11:15:58</time>
      </trkpt>
      <trkpt lat="41.20892" lon="1.08208">
        <ele>494.4</ele>
        <time>2020-08-22 11:15:59</time>
      </trkpt>
      <trkpt lat="41.20887" lon="1.08206">
        <ele>494.2</ele>
        <time>2020-08-22 11:16:00</time>
      </trkpt>
      <trkpt lat="41.20881" lon="1.08203">
        <ele>493.8</ele>
        <time>2020-08-22 11:16:01</time>
      </trkpt>
      <trkpt lat="41.20875" lon="1.082">
        <ele>493.6</ele>
        <time>2020-08-22 11:16:02</time>
      </trkpt>
      <trkpt lat="41.20868" lon="1.08199">
        <ele>493.4</ele>
        <time>2020-08-22 11:16:03</time>
      </trkpt>
      <trkpt lat="41.20861" lon="1.08199">
        <ele>493.2</ele>
        <time>2020-08-22 11:16:04</time>
      </trkpt>
      <trkpt lat="41.20855" lon="1.08201">
        <ele>493</ele>
        <time>2020-08-22 11:16:05</time>
      </trkpt>
      <trkpt lat="41.2084" lon="1.08206">
        <ele>492.6</ele>
        <time>2020-08-22 11:16:07</time>
      </trkpt>
      <trkpt lat="41.20833" lon="1.08209">
        <ele>492</ele>
        <time>2020-08-22 11:16:08</time>
      </trkpt>
      <trkpt lat="41.20827" lon="1.08213">
        <ele>491.6</ele>
        <time>2020-08-22 11:16:09</time>
      </trkpt>
      <trkpt lat="41.2082" lon="1.08217">
        <ele>491</ele>
        <time>2020-08-22 11:16:10</time>
      </trkpt>
      <trkpt lat="41.20814" lon="1.08224">
        <ele>490.4</ele>
        <time>2020-08-22 11:16:11</time>
      </trkpt>
      <trkpt lat="41.20809" lon="1.08231">
        <ele>490.2</ele>
        <time>2020-08-22 11:16:12</time>
      </trkpt>
      <trkpt lat="41.20804" lon="1.0824">
        <ele>489.8</ele>
        <time>2020-08-22 11:16:13</time>
      </trkpt>
      <trkpt lat="41.20801" lon="1.08249">
        <ele>489.4</ele>
        <time>2020-08-22 11:16:14</time>
      </trkpt>
      <trkpt lat="41.20798" lon="1.08259">
        <ele>489</ele>
        <time>2020-08-22 11:16:15</time>
      </trkpt>
      <trkpt lat="41.20796" lon="1.08269">
        <ele>488.8</ele>
        <time>2020-08-22 11:16:16</time>
      </trkpt>
      <trkpt lat="41.20795" lon="1.0829">
        <ele>488.2</ele>
        <time>2020-08-22 11:16:18</time>
      </trkpt>
      <trkpt lat="41.20793" lon="1.0831">
        <ele>487.6</ele>
        <time>2020-08-22 11:16:20</time>
      </trkpt>
      <trkpt lat="41.20793" lon="1.08319">
        <ele>487.6</ele>
        <time>2020-08-22 11:16:21</time>
      </trkpt>
      <trkpt lat="41.20796" lon="1.0833">
        <ele>487.2</ele>
        <time>2020-08-22 11:16:22</time>
      </trkpt>
      <trkpt lat="41.20798" lon="1.08338">
        <ele>487</ele>
        <time>2020-08-22 11:16:23</time>
      </trkpt>
      <trkpt lat="41.20801" lon="1.08347">
        <ele>486.8</ele>
        <time>2020-08-22 11:16:24</time>
      </trkpt>
      <trkpt lat="41.20802" lon="1.08353">
        <ele>486.8</ele>
        <time>2020-08-22 11:16:25</time>
      </trkpt>
      <trkpt lat="41.20801" lon="1.08362">
        <ele>486.6</ele>
        <time>2020-08-22 11:16:26</time>
      </trkpt>
      <trkpt lat="41.20798" lon="1.0837">
        <ele>486.4</ele>
        <time>2020-08-22 11:16:27</time>
      </trkpt>
      <trkpt lat="41.20794" lon="1.08375">
        <ele>486.2</ele>
        <time>2020-08-22 11:16:28</time>
      </trkpt>
      <trkpt lat="41.20789" lon="1.08377">
        <ele>486</ele>
        <time>2020-08-22 11:16:29</time>
      </trkpt>
      <trkpt lat="41.20783" lon="1.0838">
        <ele>485.8</ele>
        <time>2020-08-22 11:16:30</time>
      </trkpt>
      <trkpt lat="41.2077" lon="1.08387">
        <ele>485.6</ele>
        <time>2020-08-22 11:16:32</time>
      </trkpt>
      <trkpt lat="41.20763" lon="1.08391">
        <ele>485.2</ele>
        <time>2020-08-22 11:16:33</time>
      </trkpt>
      <trkpt lat="41.20747" lon="1.08398">
        <ele>484.6</ele>
        <time>2020-08-22 11:16:35</time>
      </trkpt>
      <trkpt lat="41.20742" lon="1.084">
        <ele>484.2</ele>
        <time>2020-08-22 11:16:36</time>
      </trkpt>
      <trkpt lat="41.20735" lon="1.08401">
        <ele>484.2</ele>
        <time>2020-08-22 11:16:37</time>
      </trkpt>
      <trkpt lat="41.20727" lon="1.084">
        <ele>483.8</ele>
        <time>2020-08-22 11:16:38</time>
      </trkpt>
      <trkpt lat="41.2072" lon="1.08397">
        <ele>483.8</ele>
        <time>2020-08-22 11:16:39</time>
      </trkpt>
      <trkpt lat="41.20713" lon="1.08394">
        <ele>483.4</ele>
        <time>2020-08-22 11:16:40</time>
      </trkpt>
      <trkpt lat="41.20704" lon="1.08393">
        <ele>483.4</ele>
        <time>2020-08-22 11:16:41</time>
      </trkpt>
      <trkpt lat="41.20695" lon="1.08396">
        <ele>483.2</ele>
        <time>2020-08-22 11:16:42</time>
      </trkpt>
      <trkpt lat="41.20685" lon="1.084">
        <ele>483</ele>
        <time>2020-08-22 11:16:43</time>
      </trkpt>
      <trkpt lat="41.20679" lon="1.08405">
        <ele>482.2</ele>
        <time>2020-08-22 11:16:44</time>
      </trkpt>
      <trkpt lat="41.20664" lon="1.08419">
        <ele>481</ele>
        <time>2020-08-22 11:16:46</time>
      </trkpt>
      <trkpt lat="41.20657" lon="1.08427">
        <ele>480.4</ele>
        <time>2020-08-22 11:16:47</time>
      </trkpt>
      <trkpt lat="41.2065" lon="1.08436">
        <ele>480.2</ele>
        <time>2020-08-22 11:16:48</time>
      </trkpt>
      <trkpt lat="41.20642" lon="1.08444">
        <ele>479.2</ele>
        <time>2020-08-22 11:16:49</time>
      </trkpt>
      <trkpt lat="41.20635" lon="1.08451">
        <ele>478.8</ele>
        <time>2020-08-22 11:16:50</time>
      </trkpt>
      <trkpt lat="41.20626" lon="1.08458">
        <ele>478.2</ele>
        <time>2020-08-22 11:16:51</time>
      </trkpt>
      <trkpt lat="41.20619" lon="1.08465">
        <ele>477.4</ele>
        <time>2020-08-22 11:16:52</time>
      </trkpt>
      <trkpt lat="41.20606" lon="1.08484">
        <ele>476.4</ele>
        <time>2020-08-22 11:16:54</time>
      </trkpt>
      <trkpt lat="41.20599" lon="1.08493">
        <ele>475.8</ele>
        <time>2020-08-22 11:16:55</time>
      </trkpt>
      <trkpt lat="41.20592" lon="1.08501">
        <ele>475</ele>
        <time>2020-08-22 11:16:56</time>
      </trkpt>
      <trkpt lat="41.20584" lon="1.08509">
        <ele>474.6</ele>
        <time>2020-08-22 11:16:57</time>
      </trkpt>
      <trkpt lat="41.20577" lon="1.0852">
        <ele>474.4</ele>
        <time>2020-08-22 11:16:58</time>
      </trkpt>
      <trkpt lat="41.20572" lon="1.08528">
        <ele>474.2</ele>
        <time>2020-08-22 11:16:59</time>
      </trkpt>
      <trkpt lat="41.20565" lon="1.08539">
        <ele>473.8</ele>
        <time>2020-08-22 11:17:00</time>
      </trkpt>
      <trkpt lat="41.20547" lon="1.08571">
        <ele>472.4</ele>
        <time>2020-08-22 11:17:03</time>
      </trkpt>
      <trkpt lat="41.20543" lon="1.08579">
        <ele>471.6</ele>
        <time>2020-08-22 11:17:04</time>
      </trkpt>
      <trkpt lat="41.20539" lon="1.08589">
        <ele>470.2</ele>
        <time>2020-08-22 11:17:05</time>
      </trkpt>
      <trkpt lat="41.20536" lon="1.08601">
        <ele>469.8</ele>
        <time>2020-08-22 11:17:06</time>
      </trkpt>
      <trkpt lat="41.20535" lon="1.08613">
        <ele>468.8</ele>
        <time>2020-08-22 11:17:07</time>
      </trkpt>
      <trkpt lat="41.20533" lon="1.08628">
        <ele>468.4</ele>
        <time>2020-08-22 11:17:08</time>
      </trkpt>
      <trkpt lat="41.20531" lon="1.08639">
        <ele>467</ele>
        <time>2020-08-22 11:17:09</time>
      </trkpt>
      <trkpt lat="41.20529" lon="1.08647">
        <ele>465.8</ele>
        <time>2020-08-22 11:17:10</time>
      </trkpt>
      <trkpt lat="41.20528" lon="1.08655">
        <ele>465.2</ele>
        <time>2020-08-22 11:17:11</time>
      </trkpt>
      <trkpt lat="41.20528" lon="1.08664">
        <ele>463</ele>
        <time>2020-08-22 11:17:12</time>
      </trkpt>
      <trkpt lat="41.20527" lon="1.08673">
        <ele>462</ele>
        <time>2020-08-22 11:17:13</time>
      </trkpt>
      <trkpt lat="41.20526" lon="1.08683">
        <ele>460.6</ele>
        <time>2020-08-22 11:17:14</time>
      </trkpt>
      <trkpt lat="41.20525" lon="1.08693">
        <ele>459.4</ele>
        <time>2020-08-22 11:17:15</time>
      </trkpt>
      <trkpt lat="41.20523" lon="1.08704">
        <ele>457.8</ele>
        <time>2020-08-22 11:17:16</time>
      </trkpt>
      <trkpt lat="41.2052" lon="1.08713">
        <ele>457.2</ele>
        <time>2020-08-22 11:17:17</time>
      </trkpt>
      <trkpt lat="41.20516" lon="1.08723">
        <ele>456.4</ele>
        <time>2020-08-22 11:17:18</time>
      </trkpt>
      <trkpt lat="41.20506" lon="1.08746">
        <ele>455</ele>
        <time>2020-08-22 11:17:20</time>
      </trkpt>
      <trkpt lat="41.20499" lon="1.0876">
        <ele>453.8</ele>
        <time>2020-08-22 11:17:21</time>
      </trkpt>
      <trkpt lat="41.20493" lon="1.0877">
        <ele>453.4</ele>
        <time>2020-08-22 11:17:22</time>
      </trkpt>
      <trkpt lat="41.20486" lon="1.0878">
        <ele>453</ele>
        <time>2020-08-22 11:17:23</time>
      </trkpt>
      <trkpt lat="41.20479" lon="1.08788">
        <ele>453</ele>
        <time>2020-08-22 11:17:24</time>
      </trkpt>
      <trkpt lat="41.20472" lon="1.08797">
        <ele>452.4</ele>
        <time>2020-08-22 11:17:25</time>
      </trkpt>
      <trkpt lat="41.20466" lon="1.08805">
        <ele>452</ele>
        <time>2020-08-22 11:17:26</time>
      </trkpt>
      <trkpt lat="41.20461" lon="1.08811">
        <ele>451.2</ele>
        <time>2020-08-22 11:17:27</time>
      </trkpt>
      <trkpt lat="41.20459" lon="1.08817">
        <ele>450.6</ele>
        <time>2020-08-22 11:17:28</time>
      </trkpt>
      <trkpt lat="41.20459" lon="1.08822">
        <ele>449.8</ele>
        <time>2020-08-22 11:17:29</time>
      </trkpt>
      <trkpt lat="41.2046" lon="1.08826">
        <ele>448.4</ele>
        <time>2020-08-22 11:17:30</time>
      </trkpt>
      <trkpt lat="41.20462" lon="1.08829">
        <ele>447.6</ele>
        <time>2020-08-22 11:17:31</time>
      </trkpt>
      <trkpt lat="41.20465" lon="1.0883">
        <ele>446.8</ele>
        <time>2020-08-22 11:17:32</time>
      </trkpt>
      <trkpt lat="41.20467" lon="1.08828">
        <ele>446.4</ele>
        <time>2020-08-22 11:17:33</time>
      </trkpt>
      <trkpt lat="41.20469" lon="1.08827">
        <ele>446</ele>
        <time>2020-08-22 11:17:34</time>
      </trkpt>
      <trkpt lat="41.2047" lon="1.08823">
        <ele>445.8</ele>
        <time>2020-08-22 11:17:35</time>
      </trkpt>
      <trkpt lat="41.20472" lon="1.08819">
        <ele>445.8</ele>
        <time>2020-08-22 11:17:36</time>
      </trkpt>
      <trkpt lat="41.20474" lon="1.08815">
        <ele>445.6</ele>
        <time>2020-08-22 11:17:37</time>
      </trkpt>
      <trkpt lat="41.20476" lon="1.08811">
        <ele>445.6</ele>
        <time>2020-08-22 11:17:38</time>
      </trkpt>
      <trkpt lat="41.20477" lon="1.08808">
        <ele>446</ele>
        <time>2020-08-22 11:17:39</time>
      </trkpt>
      <trkpt lat="41.20479" lon="1.08805">
        <ele>446.2</ele>
        <time>2020-08-22 11:17:40</time>
      </trkpt>
      <trkpt lat="41.20481" lon="1.08802">
        <ele>446.4</ele>
        <time>2020-08-22 11:17:41</time>
      </trkpt>
      <trkpt lat="41.20483" lon="1.08799">
        <ele>446.8</ele>
        <time>2020-08-22 11:17:42</time>
      </trkpt>
      <trkpt lat="41.20485" lon="1.08797">
        <ele>447.2</ele>
        <time>2020-08-22 11:17:43</time>
      </trkpt>
      <trkpt lat="41.20487" lon="1.08794">
        <ele>447.6</ele>
        <time>2020-08-22 11:17:44</time>
      </trkpt>
      <trkpt lat="41.20489" lon="1.08792">
        <ele>448</ele>
        <time>2020-08-22 11:17:45</time>
      </trkpt>
      <trkpt lat="41.2049" lon="1.0879">
        <ele>448.2</ele>
        <time>2020-08-22 11:17:46</time>
      </trkpt>
      <trkpt lat="41.20492" lon="1.08787">
        <ele>448.4</ele>
        <time>2020-08-22 11:17:47</time>
      </trkpt>
      <trkpt lat="41.20494" lon="1.08785">
        <ele>449</ele>
        <time>2020-08-22 11:17:48</time>
      </trkpt>
      <trkpt lat="41.20496" lon="1.08782">
        <ele>449.4</ele>
        <time>2020-08-22 11:17:49</time>
      </trkpt>
      <trkpt lat="41.20498" lon="1.08779">
        <ele>449.8</ele>
        <time>2020-08-22 11:17:50</time>
      </trkpt>
      <trkpt lat="41.205" lon="1.08775">
        <ele>450</ele>
        <time>2020-08-22 11:17:51</time>
      </trkpt>
      <trkpt lat="41.20501" lon="1.08772">
        <ele>450.6</ele>
        <time>2020-08-22 11:17:52</time>
      </trkpt>
      <trkpt lat="41.20502" lon="1.08768">
        <ele>450.8</ele>
        <time>2020-08-22 11:17:53</time>
      </trkpt>
      <trkpt lat="41.20504" lon="1.08765">
        <ele>451</ele>
        <time>2020-08-22 11:17:54</time>
      </trkpt>
      <trkpt lat="41.20505" lon="1.08761">
        <ele>451.2</ele>
        <time>2020-08-22 11:17:55</time>
      </trkpt>
      <trkpt lat="41.20507" lon="1.08758">
        <ele>451.4</ele>
        <time>2020-08-22 11:17:56</time>
      </trkpt>
      <trkpt lat="41.20509" lon="1.08754">
        <ele>451.4</ele>
        <time>2020-08-22 11:17:57</time>
      </trkpt>
      <trkpt lat="41.2051" lon="1.08752">
        <ele>451.6</ele>
        <time>2020-08-22 11:17:58</time>
      </trkpt>
      <trkpt lat="41.20511" lon="1.08749">
        <ele>451.8</ele>
        <time>2020-08-22 11:17:59</time>
      </trkpt>
      <trkpt lat="41.20513" lon="1.08746">
        <ele>451.8</ele>
        <time>2020-08-22 11:18:00</time>
      </trkpt>
      <trkpt lat="41.20515" lon="1.08744">
        <ele>452</ele>
        <time>2020-08-22 11:18:01</time>
      </trkpt>
      <trkpt lat="41.20516" lon="1.08741">
        <ele>452.4</ele>
        <time>2020-08-22 11:18:02</time>
      </trkpt>
      <trkpt lat="41.20518" lon="1.08738">
        <ele>452.4</ele>
        <time>2020-08-22 11:18:03</time>
      </trkpt>
      <trkpt lat="41.2052" lon="1.08737">
        <ele>452.6</ele>
        <time>2020-08-22 11:18:04</time>
      </trkpt>
      <trkpt lat="41.20522" lon="1.08734">
        <ele>452.6</ele>
        <time>2020-08-22 11:18:05</time>
      </trkpt>
      <trkpt lat="41.20523" lon="1.08732">
        <ele>452.8</ele>
        <time>2020-08-22 11:18:06</time>
      </trkpt>
      <trkpt lat="41.20525" lon="1.08729">
        <ele>453</ele>
        <time>2020-08-22 11:18:07</time>
      </trkpt>
      <trkpt lat="41.20526" lon="1.08726">
        <ele>453</ele>
        <time>2020-08-22 11:18:08</time>
      </trkpt>
      <trkpt lat="41.20527" lon="1.08724">
        <ele>453.2</ele>
        <time>2020-08-22 11:18:09</time>
      </trkpt>
      <trkpt lat="41.20528" lon="1.08721">
        <ele>453.4</ele>
        <time>2020-08-22 11:18:10</time>
      </trkpt>
      <trkpt lat="41.20529" lon="1.08719">
        <ele>453.8</ele>
        <time>2020-08-22 11:18:11</time>
      </trkpt>
      <trkpt lat="41.20531" lon="1.08716">
        <ele>454</ele>
        <time>2020-08-22 11:18:12</time>
      </trkpt>
      <trkpt lat="41.20532" lon="1.08714">
        <ele>454.4</ele>
        <time>2020-08-22 11:18:13</time>
      </trkpt>
      <trkpt lat="41.20533" lon="1.08712">
        <ele>454.4</ele>
        <time>2020-08-22 11:18:14</time>
      </trkpt>
      <trkpt lat="41.20534" lon="1.08709">
        <ele>454.6</ele>
        <time>2020-08-22 11:18:15</time>
      </trkpt>
      <trkpt lat="41.20535" lon="1.08707">
        <ele>454.6</ele>
        <time>2020-08-22 11:18:16</time>
      </trkpt>
      <trkpt lat="41.20536" lon="1.08704">
        <ele>455</ele>
        <time>2020-08-22 11:18:17</time>
      </trkpt>
      <trkpt lat="41.20537" lon="1.08702">
        <ele>455.8</ele>
        <time>2020-08-22 11:18:18</time>
      </trkpt>
      <trkpt lat="41.20537" lon="1.08699">
        <ele>456</ele>
        <time>2020-08-22 11:18:19</time>
      </trkpt>
      <trkpt lat="41.20538" lon="1.08696">
        <ele>456.4</ele>
        <time>2020-08-22 11:18:20</time>
      </trkpt>
      <trkpt lat="41.20538" lon="1.08693">
        <ele>456.6</ele>
        <time>2020-08-22 11:18:21</time>
      </trkpt>
      <trkpt lat="41.20538" lon="1.08691">
        <ele>457</ele>
        <time>2020-08-22 11:18:22</time>
      </trkpt>
      <trkpt lat="41.20539" lon="1.08688">
        <ele>457.2</ele>
        <time>2020-08-22 11:18:23</time>
      </trkpt>
      <trkpt lat="41.2054" lon="1.08686">
        <ele>457.6</ele>
        <time>2020-08-22 11:18:24</time>
      </trkpt>
      <trkpt lat="41.2054" lon="1.08683">
        <ele>457.8</ele>
        <time>2020-08-22 11:18:25</time>
      </trkpt>
      <trkpt lat="41.20541" lon="1.0868">
        <ele>458</ele>
        <time>2020-08-22 11:18:26</time>
      </trkpt>
      <trkpt lat="41.20541" lon="1.08677">
        <ele>458.4</ele>
        <time>2020-08-22 11:18:27</time>
      </trkpt>
      <trkpt lat="41.20542" lon="1.08674">
        <ele>458.6</ele>
        <time>2020-08-22 11:18:28</time>
      </trkpt>
      <trkpt lat="41.20543" lon="1.08671">
        <ele>459.2</ele>
        <time>2020-08-22 11:18:29</time>
      </trkpt>
      <trkpt lat="41.20543" lon="1.08668">
        <ele>459.4</ele>
        <time>2020-08-22 11:18:30</time>
      </trkpt>
      <trkpt lat="41.20544" lon="1.08666">
        <ele>459.6</ele>
        <time>2020-08-22 11:18:31</time>
      </trkpt>
      <trkpt lat="41.20545" lon="1.08664">
        <ele>459.8</ele>
        <time>2020-08-22 11:18:32</time>
      </trkpt>
      <trkpt lat="41.20547" lon="1.08662">
        <ele>460</ele>
        <time>2020-08-22 11:18:33</time>
      </trkpt>
      <trkpt lat="41.20548" lon="1.0866">
        <ele>460.2</ele>
        <time>2020-08-22 11:18:34</time>
      </trkpt>
      <trkpt lat="41.2055" lon="1.08658">
        <ele>460.6</ele>
        <time>2020-08-22 11:18:35</time>
      </trkpt>
      <trkpt lat="41.20551" lon="1.08656">
        <ele>461</ele>
        <time>2020-08-22 11:18:36</time>
      </trkpt>
      <trkpt lat="41.20552" lon="1.08655">
        <ele>461</ele>
        <time>2020-08-22 11:18:37</time>
      </trkpt>
      <trkpt lat="41.20554" lon="1.08654">
        <ele>461.6</ele>
        <time>2020-08-22 11:18:38</time>
      </trkpt>
      <trkpt lat="41.20555" lon="1.08653">
        <ele>461.6</ele>
        <time>2020-08-22 11:18:39</time>
      </trkpt>
      <trkpt lat="41.20557" lon="1.08651">
        <ele>462</ele>
        <time>2020-08-22 11:18:40</time>
      </trkpt>
      <trkpt lat="41.20558" lon="1.08651">
        <ele>462.4</ele>
        <time>2020-08-22 11:18:41</time>
      </trkpt>
      <trkpt lat="41.20559" lon="1.0865">
        <ele>463.2</ele>
        <time>2020-08-22 11:18:42</time>
      </trkpt>
      <trkpt lat="41.20561" lon="1.08648">
        <ele>463.4</ele>
        <time>2020-08-22 11:18:43</time>
      </trkpt>
      <trkpt lat="41.20562" lon="1.08648">
        <ele>463.6</ele>
        <time>2020-08-22 11:18:44</time>
      </trkpt>
      <trkpt lat="41.20564" lon="1.08647">
        <ele>464</ele>
        <time>2020-08-22 11:18:45</time>
      </trkpt>
      <trkpt lat="41.20565" lon="1.08646">
        <ele>464.2</ele>
        <time>2020-08-22 11:18:46</time>
      </trkpt>
      <trkpt lat="41.20567" lon="1.08645">
        <ele>464.8</ele>
        <time>2020-08-22 11:18:47</time>
      </trkpt>
      <trkpt lat="41.20568" lon="1.08644">
        <ele>465</ele>
        <time>2020-08-22 11:18:48</time>
      </trkpt>
      <trkpt lat="41.20569" lon="1.08642">
        <ele>465.6</ele>
        <time>2020-08-22 11:18:49</time>
      </trkpt>
      <trkpt lat="41.20571" lon="1.08641">
        <ele>465.8</ele>
        <time>2020-08-22 11:18:50</time>
      </trkpt>
      <trkpt lat="41.20572" lon="1.08639">
        <ele>466.2</ele>
        <time>2020-08-22 11:18:51</time>
      </trkpt>
      <trkpt lat="41.20573" lon="1.08637">
        <ele>466.4</ele>
        <time>2020-08-22 11:18:52</time>
      </trkpt>
      <trkpt lat="41.20574" lon="1.08636">
        <ele>466.6</ele>
        <time>2020-08-22 11:18:53</time>
      </trkpt>
      <trkpt lat="41.20575" lon="1.08634">
        <ele>467</ele>
        <time>2020-08-22 11:18:54</time>
      </trkpt>
      <trkpt lat="41.20576" lon="1.08632">
        <ele>467.2</ele>
        <time>2020-08-22 11:18:55</time>
      </trkpt>
      <trkpt lat="41.20577" lon="1.0863">
        <ele>467.6</ele>
        <time>2020-08-22 11:18:56</time>
      </trkpt>
      <trkpt lat="41.20578" lon="1.08629">
        <ele>467.8</ele>
        <time>2020-08-22 11:18:57</time>
      </trkpt>
      <trkpt lat="41.20579" lon="1.08628">
        <ele>468.4</ele>
        <time>2020-08-22 11:18:58</time>
      </trkpt>
      <trkpt lat="41.2058" lon="1.08626">
        <ele>468.6</ele>
        <time>2020-08-22 11:18:59</time>
      </trkpt>
      <trkpt lat="41.2058" lon="1.08624">
        <ele>468.8</ele>
        <time>2020-08-22 11:19:00</time>
      </trkpt>
      <trkpt lat="41.20581" lon="1.08622">
        <ele>469</ele>
        <time>2020-08-22 11:19:01</time>
      </trkpt>
      <trkpt lat="41.20582" lon="1.0862">
        <ele>469</ele>
        <time>2020-08-22 11:19:02</time>
      </trkpt>
      <trkpt lat="41.20583" lon="1.08617">
        <ele>469.2</ele>
        <time>2020-08-22 11:19:03</time>
      </trkpt>
      <trkpt lat="41.20584" lon="1.08615">
        <ele>469.4</ele>
        <time>2020-08-22 11:19:04</time>
      </trkpt>
      <trkpt lat="41.20585" lon="1.08613">
        <ele>469.6</ele>
        <time>2020-08-22 11:19:05</time>
      </trkpt>
      <trkpt lat="41.20586" lon="1.0861">
        <ele>469.8</ele>
        <time>2020-08-22 11:19:06</time>
      </trkpt>
      <trkpt lat="41.20587" lon="1.08607">
        <ele>470</ele>
        <time>2020-08-22 11:19:07</time>
      </trkpt>
      <trkpt lat="41.20588" lon="1.08605">
        <ele>470.2</ele>
        <time>2020-08-22 11:19:08</time>
      </trkpt>
      <trkpt lat="41.20589" lon="1.08602">
        <ele>470.6</ele>
        <time>2020-08-22 11:19:09</time>
      </trkpt>
      <trkpt lat="41.2059" lon="1.086">
        <ele>470.8</ele>
        <time>2020-08-22 11:19:10</time>
      </trkpt>
      <trkpt lat="41.20592" lon="1.08598">
        <ele>471</ele>
        <time>2020-08-22 11:19:11</time>
      </trkpt>
      <trkpt lat="41.20593" lon="1.08596">
        <ele>471.4</ele>
        <time>2020-08-22 11:19:12</time>
      </trkpt>
      <trkpt lat="41.20594" lon="1.08593">
        <ele>471.6</ele>
        <time>2020-08-22 11:19:13</time>
      </trkpt>
      <trkpt lat="41.20595" lon="1.08591">
        <ele>471.8</ele>
        <time>2020-08-22 11:19:14</time>
      </trkpt>
      <trkpt lat="41.20596" lon="1.08588">
        <ele>471.8</ele>
        <time>2020-08-22 11:19:15</time>
      </trkpt>
      <trkpt lat="41.20597" lon="1.08585">
        <ele>472.4</ele>
        <time>2020-08-22 11:19:16</time>
      </trkpt>
      <trkpt lat="41.20597" lon="1.08583">
        <ele>472.6</ele>
        <time>2020-08-22 11:19:17</time>
      </trkpt>
      <trkpt lat="41.20598" lon="1.0858">
        <ele>473.2</ele>
        <time>2020-08-22 11:19:18</time>
      </trkpt>
      <trkpt lat="41.20599" lon="1.08578">
        <ele>473.6</ele>
        <time>2020-08-22 11:19:19</time>
      </trkpt>
      <trkpt lat="41.206" lon="1.08576">
        <ele>473.6</ele>
        <time>2020-08-22 11:19:20</time>
      </trkpt>
      <trkpt lat="41.20599" lon="1.08574">
        <ele>474</ele>
        <time>2020-08-22 11:19:21</time>
      </trkpt>
      <trkpt lat="41.206" lon="1.08571">
        <ele>474.2</ele>
        <time>2020-08-22 11:19:22</time>
      </trkpt>
      <trkpt lat="41.20601" lon="1.08569">
        <ele>474.4</ele>
        <time>2020-08-22 11:19:23</time>
      </trkpt>
      <trkpt lat="41.20602" lon="1.08567">
        <ele>474.8</ele>
        <time>2020-08-22 11:19:24</time>
      </trkpt>
      <trkpt lat="41.20602" lon="1.08565">
        <ele>475</ele>
        <time>2020-08-22 11:19:25</time>
      </trkpt>
      <trkpt lat="41.20603" lon="1.08563">
        <ele>475.4</ele>
        <time>2020-08-22 11:19:26</time>
      </trkpt>
      <trkpt lat="41.20604" lon="1.08561">
        <ele>475.6</ele>
        <time>2020-08-22 11:19:27</time>
      </trkpt>
      <trkpt lat="41.20604" lon="1.08558">
        <ele>476.2</ele>
        <time>2020-08-22 11:19:28</time>
      </trkpt>
      <trkpt lat="41.20605" lon="1.08556">
        <ele>476.6</ele>
        <time>2020-08-22 11:19:29</time>
      </trkpt>
      <trkpt lat="41.20606" lon="1.08554">
        <ele>477</ele>
        <time>2020-08-22 11:19:30</time>
      </trkpt>
      <trkpt lat="41.20607" lon="1.08552">
        <ele>477.2</ele>
        <time>2020-08-22 11:19:31</time>
      </trkpt>
      <trkpt lat="41.20608" lon="1.0855">
        <ele>477.6</ele>
        <time>2020-08-22 11:19:32</time>
      </trkpt>
      <trkpt lat="41.20609" lon="1.08548">
        <ele>478</ele>
        <time>2020-08-22 11:19:33</time>
      </trkpt>
      <trkpt lat="41.2061" lon="1.08545">
        <ele>478.4</ele>
        <time>2020-08-22 11:19:34</time>
      </trkpt>
      <trkpt lat="41.20611" lon="1.08543">
        <ele>478.8</ele>
        <time>2020-08-22 11:19:35</time>
      </trkpt>
      <trkpt lat="41.20612" lon="1.08541">
        <ele>479</ele>
        <time>2020-08-22 11:19:36</time>
      </trkpt>
      <trkpt lat="41.20613" lon="1.08539">
        <ele>479.4</ele>
        <time>2020-08-22 11:19:37</time>
      </trkpt>
      <trkpt lat="41.20614" lon="1.08537">
        <ele>479.6</ele>
        <time>2020-08-22 11:19:38</time>
      </trkpt>
      <trkpt lat="41.20615" lon="1.08535">
        <ele>479.8</ele>
        <time>2020-08-22 11:19:39</time>
      </trkpt>
      <trkpt lat="41.20617" lon="1.08533">
        <ele>480</ele>
        <time>2020-08-22 11:19:40</time>
      </trkpt>
      <trkpt lat="41.20618" lon="1.08532">
        <ele>480.2</ele>
        <time>2020-08-22 11:19:41</time>
      </trkpt>
      <trkpt lat="41.2062" lon="1.0853">
        <ele>480.2</ele>
        <time>2020-08-22 11:19:42</time>
      </trkpt>
      <trkpt lat="41.20621" lon="1.08529">
        <ele>480.6</ele>
        <time>2020-08-22 11:19:43</time>
      </trkpt>
      <trkpt lat="41.20622" lon="1.08527">
        <ele>481</ele>
        <time>2020-08-22 11:19:44</time>
      </trkpt>
      <trkpt lat="41.20624" lon="1.08526">
        <ele>481.2</ele>
        <time>2020-08-22 11:19:45</time>
      </trkpt>
      <trkpt lat="41.20625" lon="1.08524">
        <ele>481.4</ele>
        <time>2020-08-22 11:19:46</time>
      </trkpt>
      <trkpt lat="41.20626" lon="1.08522">
        <ele>481.6</ele>
        <time>2020-08-22 11:19:47</time>
      </trkpt>
      <trkpt lat="41.20628" lon="1.0852">
        <ele>481.8</ele>
        <time>2020-08-22 11:19:48</time>
      </trkpt>
      <trkpt lat="41.20629" lon="1.08518">
        <ele>481.8</ele>
        <time>2020-08-22 11:19:49</time>
      </trkpt>
      <trkpt lat="41.2063" lon="1.08517">
        <ele>482.4</ele>
        <time>2020-08-22 11:19:50</time>
      </trkpt>
      <trkpt lat="41.20632" lon="1.08515">
        <ele>482.6</ele>
        <time>2020-08-22 11:19:51</time>
      </trkpt>
      <trkpt lat="41.20633" lon="1.08514">
        <ele>483</ele>
        <time>2020-08-22 11:19:52</time>
      </trkpt>
      <trkpt lat="41.20635" lon="1.08512">
        <ele>483.4</ele>
        <time>2020-08-22 11:19:53</time>
      </trkpt>
      <trkpt lat="41.20636" lon="1.0851">
        <ele>483.4</ele>
        <time>2020-08-22 11:19:54</time>
      </trkpt>
      <trkpt lat="41.20637" lon="1.08509">
        <ele>483.8</ele>
        <time>2020-08-22 11:19:55</time>
      </trkpt>
      <trkpt lat="41.20638" lon="1.08507">
        <ele>483.8</ele>
        <time>2020-08-22 11:19:56</time>
      </trkpt>
      <trkpt lat="41.2064" lon="1.08506">
        <ele>484.2</ele>
        <time>2020-08-22 11:19:57</time>
      </trkpt>
      <trkpt lat="41.20641" lon="1.08505">
        <ele>484.4</ele>
        <time>2020-08-22 11:19:58</time>
      </trkpt>
      <trkpt lat="41.20643" lon="1.08503">
        <ele>484.6</ele>
        <time>2020-08-22 11:19:59</time>
      </trkpt>
      <trkpt lat="41.20645" lon="1.08502">
        <ele>484.8</ele>
        <time>2020-08-22 11:20:00</time>
      </trkpt>
      <trkpt lat="41.20646" lon="1.085">
        <ele>484.8</ele>
        <time>2020-08-22 11:20:01</time>
      </trkpt>
      <trkpt lat="41.20648" lon="1.08499">
        <ele>485.2</ele>
        <time>2020-08-22 11:20:02</time>
      </trkpt>
      <trkpt lat="41.20649" lon="1.08497">
        <ele>485.2</ele>
        <time>2020-08-22 11:20:03</time>
      </trkpt>
      <trkpt lat="41.20651" lon="1.08496">
        <ele>485.4</ele>
        <time>2020-08-22 11:20:04</time>
      </trkpt>
      <trkpt lat="41.20653" lon="1.08494">
        <ele>485.4</ele>
        <time>2020-08-22 11:20:05</time>
      </trkpt>
      <trkpt lat="41.20655" lon="1.08493">
        <ele>485.6</ele>
        <time>2020-08-22 11:20:06</time>
      </trkpt>
      <trkpt lat="41.20657" lon="1.08493">
        <ele>485.6</ele>
        <time>2020-08-22 11:20:07</time>
      </trkpt>
      <trkpt lat="41.20659" lon="1.08492">
        <ele>485.8</ele>
        <time>2020-08-22 11:20:08</time>
      </trkpt>
      <trkpt lat="41.20662" lon="1.08491">
        <ele>485.8</ele>
        <time>2020-08-22 11:20:09</time>
      </trkpt>
      <trkpt lat="41.20666" lon="1.08489">
        <ele>485.8</ele>
        <time>2020-08-22 11:20:11</time>
      </trkpt>
      <trkpt lat="41.2067" lon="1.08485">
        <ele>485.8</ele>
        <time>2020-08-22 11:20:13</time>
      </trkpt>
      <trkpt lat="41.20674" lon="1.08483">
        <ele>485.8</ele>
        <time>2020-08-22 11:20:15</time>
      </trkpt>
      <trkpt lat="41.20678" lon="1.08481">
        <ele>485.8</ele>
        <time>2020-08-22 11:20:17</time>
      </trkpt>
      <trkpt lat="41.20682" lon="1.08478">
        <ele>485.8</ele>
        <time>2020-08-22 11:20:19</time>
      </trkpt>
      <trkpt lat="41.20684" lon="1.08477">
        <ele>485.8</ele>
        <time>2020-08-22 11:20:20</time>
      </trkpt>
      <trkpt lat="41.20686" lon="1.08475">
        <ele>486</ele>
        <time>2020-08-22 11:20:21</time>
      </trkpt>
      <trkpt lat="41.20687" lon="1.08473">
        <ele>486</ele>
        <time>2020-08-22 11:20:22</time>
      </trkpt>
      <trkpt lat="41.20693" lon="1.08466">
        <ele>486.4</ele>
        <time>2020-08-22 11:20:25</time>
      </trkpt>
      <trkpt lat="41.20694" lon="1.08464">
        <ele>486.6</ele>
        <time>2020-08-22 11:20:26</time>
      </trkpt>
      <trkpt lat="41.20696" lon="1.08462">
        <ele>486.8</ele>
        <time>2020-08-22 11:20:27</time>
      </trkpt>
      <trkpt lat="41.20698" lon="1.08461">
        <ele>486.8</ele>
        <time>2020-08-22 11:20:28</time>
      </trkpt>
      <trkpt lat="41.207" lon="1.08459">
        <ele>486.8</ele>
        <time>2020-08-22 11:20:29</time>
      </trkpt>
      <trkpt lat="41.20701" lon="1.08457">
        <ele>487</ele>
        <time>2020-08-22 11:20:30</time>
      </trkpt>
      <trkpt lat="41.20703" lon="1.08455">
        <ele>487.4</ele>
        <time>2020-08-22 11:20:31</time>
      </trkpt>
      <trkpt lat="41.20705" lon="1.08454">
        <ele>487.4</ele>
        <time>2020-08-22 11:20:32</time>
      </trkpt>
      <trkpt lat="41.20707" lon="1.08452">
        <ele>487.6</ele>
        <time>2020-08-22 11:20:33</time>
      </trkpt>
      <trkpt lat="41.20709" lon="1.08451">
        <ele>487.8</ele>
        <time>2020-08-22 11:20:34</time>
      </trkpt>
      <trkpt lat="41.20711" lon="1.0845">
        <ele>487.8</ele>
        <time>2020-08-22 11:20:35</time>
      </trkpt>
      <trkpt lat="41.20713" lon="1.08449">
        <ele>488</ele>
        <time>2020-08-22 11:20:36</time>
      </trkpt>
      <trkpt lat="41.20716" lon="1.08448">
        <ele>488.2</ele>
        <time>2020-08-22 11:20:37</time>
      </trkpt>
      <trkpt lat="41.20718" lon="1.08448">
        <ele>488.2</ele>
        <time>2020-08-22 11:20:38</time>
      </trkpt>
      <trkpt lat="41.2072" lon="1.08447">
        <ele>488.4</ele>
        <time>2020-08-22 11:20:39</time>
      </trkpt>
      <trkpt lat="41.20723" lon="1.08447">
        <ele>488.4</ele>
        <time>2020-08-22 11:20:40</time>
      </trkpt>
      <trkpt lat="41.20725" lon="1.08447">
        <ele>488.4</ele>
        <time>2020-08-22 11:20:41</time>
      </trkpt>
      <trkpt lat="41.20727" lon="1.08447">
        <ele>488.8</ele>
        <time>2020-08-22 11:20:42</time>
      </trkpt>
      <trkpt lat="41.20729" lon="1.08447">
        <ele>488.8</ele>
        <time>2020-08-22 11:20:43</time>
      </trkpt>
      <trkpt lat="41.20732" lon="1.08448">
        <ele>489</ele>
        <time>2020-08-22 11:20:44</time>
      </trkpt>
      <trkpt lat="41.20734" lon="1.08448">
        <ele>489.2</ele>
        <time>2020-08-22 11:20:45</time>
      </trkpt>
      <trkpt lat="41.20736" lon="1.08449">
        <ele>489.4</ele>
        <time>2020-08-22 11:20:46</time>
      </trkpt>
      <trkpt lat="41.20738" lon="1.0845">
        <ele>489.6</ele>
        <time>2020-08-22 11:20:47</time>
      </trkpt>
      <trkpt lat="41.2074" lon="1.08452">
        <ele>489.8</ele>
        <time>2020-08-22 11:20:48</time>
      </trkpt>
      <trkpt lat="41.20741" lon="1.08453">
        <ele>490.2</ele>
        <time>2020-08-22 11:20:49</time>
      </trkpt>
      <trkpt lat="41.20743" lon="1.08455">
        <ele>490.4</ele>
        <time>2020-08-22 11:20:50</time>
      </trkpt>
      <trkpt lat="41.20745" lon="1.08457">
        <ele>490.8</ele>
        <time>2020-08-22 11:20:51</time>
      </trkpt>
      <trkpt lat="41.20746" lon="1.08459">
        <ele>491</ele>
        <time>2020-08-22 11:20:52</time>
      </trkpt>
      <trkpt lat="41.20748" lon="1.08461">
        <ele>491</ele>
        <time>2020-08-22 11:20:53</time>
      </trkpt>
      <trkpt lat="41.2075" lon="1.08463">
        <ele>491.2</ele>
        <time>2020-08-22 11:20:54</time>
      </trkpt>
      <trkpt lat="41.20751" lon="1.08465">
        <ele>491.6</ele>
        <time>2020-08-22 11:20:55</time>
      </trkpt>
      <trkpt lat="41.20752" lon="1.08467">
        <ele>492</ele>
        <time>2020-08-22 11:20:56</time>
      </trkpt>
      <trkpt lat="41.20753" lon="1.08469">
        <ele>492.2</ele>
        <time>2020-08-22 11:20:57</time>
      </trkpt>
      <trkpt lat="41.20754" lon="1.08471">
        <ele>492.6</ele>
        <time>2020-08-22 11:20:58</time>
      </trkpt>
      <trkpt lat="41.20756" lon="1.08473">
        <ele>493</ele>
        <time>2020-08-22 11:20:59</time>
      </trkpt>
      <trkpt lat="41.20757" lon="1.08474">
        <ele>493.4</ele>
        <time>2020-08-22 11:21:00</time>
      </trkpt>
      <trkpt lat="41.20759" lon="1.08476">
        <ele>493.6</ele>
        <time>2020-08-22 11:21:01</time>
      </trkpt>
      <trkpt lat="41.2076" lon="1.08478">
        <ele>493.8</ele>
        <time>2020-08-22 11:21:02</time>
      </trkpt>
      <trkpt lat="41.20762" lon="1.08479">
        <ele>494.6</ele>
        <time>2020-08-22 11:21:03</time>
      </trkpt>
      <trkpt lat="41.20763" lon="1.08481">
        <ele>494.8</ele>
        <time>2020-08-22 11:21:04</time>
      </trkpt>
      <trkpt lat="41.20765" lon="1.08483">
        <ele>495.2</ele>
        <time>2020-08-22 11:21:05</time>
      </trkpt>
      <trkpt lat="41.20766" lon="1.08484">
        <ele>495.4</ele>
        <time>2020-08-22 11:21:06</time>
      </trkpt>
      <trkpt lat="41.20768" lon="1.08485">
        <ele>496</ele>
        <time>2020-08-22 11:21:07</time>
      </trkpt>
      <trkpt lat="41.20769" lon="1.08487">
        <ele>496</ele>
        <time>2020-08-22 11:21:08</time>
      </trkpt>
      <trkpt lat="41.20771" lon="1.08488">
        <ele>496.4</ele>
        <time>2020-08-22 11:21:09</time>
      </trkpt>
      <trkpt lat="41.20772" lon="1.0849">
        <ele>497.2</ele>
        <time>2020-08-22 11:21:10</time>
      </trkpt>
      <trkpt lat="41.20774" lon="1.08491">
        <ele>497.4</ele>
        <time>2020-08-22 11:21:11</time>
      </trkpt>
      <trkpt lat="41.20775" lon="1.08492">
        <ele>498.2</ele>
        <time>2020-08-22 11:21:12</time>
      </trkpt>
      <trkpt lat="41.20776" lon="1.08494">
        <ele>498.4</ele>
        <time>2020-08-22 11:21:13</time>
      </trkpt>
      <trkpt lat="41.20778" lon="1.08495">
        <ele>499.2</ele>
        <time>2020-08-22 11:21:14</time>
      </trkpt>
      <trkpt lat="41.2078" lon="1.08496">
        <ele>499.6</ele>
        <time>2020-08-22 11:21:15</time>
      </trkpt>
      <trkpt lat="41.20782" lon="1.08497">
        <ele>500</ele>
        <time>2020-08-22 11:21:16</time>
      </trkpt>
      <trkpt lat="41.20784" lon="1.08497">
        <ele>500.4</ele>
        <time>2020-08-22 11:21:17</time>
      </trkpt>
      <trkpt lat="41.20785" lon="1.08498">
        <ele>500.8</ele>
        <time>2020-08-22 11:21:18</time>
      </trkpt>
      <trkpt lat="41.20787" lon="1.08499">
        <ele>501.4</ele>
        <time>2020-08-22 11:21:19</time>
      </trkpt>
      <trkpt lat="41.20789" lon="1.08501">
        <ele>501.6</ele>
        <time>2020-08-22 11:21:20</time>
      </trkpt>
      <trkpt lat="41.2079" lon="1.08502">
        <ele>502</ele>
        <time>2020-08-22 11:21:21</time>
      </trkpt>
      <trkpt lat="41.20792" lon="1.08503">
        <ele>502.6</ele>
        <time>2020-08-22 11:21:22</time>
      </trkpt>
      <trkpt lat="41.20793" lon="1.08505">
        <ele>503.2</ele>
        <time>2020-08-22 11:21:23</time>
      </trkpt>
      <trkpt lat="41.20794" lon="1.08507">
        <ele>503.4</ele>
        <time>2020-08-22 11:21:24</time>
      </trkpt>
      <trkpt lat="41.20796" lon="1.08508">
        <ele>503.6</ele>
        <time>2020-08-22 11:21:25</time>
      </trkpt>
      <trkpt lat="41.20797" lon="1.0851">
        <ele>503.8</ele>
        <time>2020-08-22 11:21:26</time>
      </trkpt>
      <trkpt lat="41.20798" lon="1.08512">
        <ele>504</ele>
        <time>2020-08-22 11:21:27</time>
      </trkpt>
      <trkpt lat="41.20799" lon="1.08515">
        <ele>504.4</ele>
        <time>2020-08-22 11:21:28</time>
      </trkpt>
      <trkpt lat="41.208" lon="1.08516">
        <ele>504.6</ele>
        <time>2020-08-22 11:21:29</time>
      </trkpt>
      <trkpt lat="41.20802" lon="1.08518">
        <ele>505</ele>
        <time>2020-08-22 11:21:30</time>
      </trkpt>
      <trkpt lat="41.20803" lon="1.0852">
        <ele>505.2</ele>
        <time>2020-08-22 11:21:31</time>
      </trkpt>
      <trkpt lat="41.20804" lon="1.08522">
        <ele>505.6</ele>
        <time>2020-08-22 11:21:32</time>
      </trkpt>
      <trkpt lat="41.20805" lon="1.08524">
        <ele>505.8</ele>
        <time>2020-08-22 11:21:33</time>
      </trkpt>
      <trkpt lat="41.20805" lon="1.08525">
        <ele>506.2</ele>
        <time>2020-08-22 11:21:34</time>
      </trkpt>
      <trkpt lat="41.20806" lon="1.08527">
        <ele>506.6</ele>
        <time>2020-08-22 11:21:35</time>
      </trkpt>
      <trkpt lat="41.20807" lon="1.08529">
        <ele>506.8</ele>
        <time>2020-08-22 11:21:36</time>
      </trkpt>
      <trkpt lat="41.20808" lon="1.08531">
        <ele>506.8</ele>
        <time>2020-08-22 11:21:37</time>
      </trkpt>
      <trkpt lat="41.20809" lon="1.08532">
        <ele>507.2</ele>
        <time>2020-08-22 11:21:38</time>
      </trkpt>
      <trkpt lat="41.2081" lon="1.08534">
        <ele>507.4</ele>
        <time>2020-08-22 11:21:39</time>
      </trkpt>
      <trkpt lat="41.20811" lon="1.08536">
        <ele>507.6</ele>
        <time>2020-08-22 11:21:40</time>
      </trkpt>
      <trkpt lat="41.20812" lon="1.08537">
        <ele>508</ele>
        <time>2020-08-22 11:21:41</time>
      </trkpt>
      <trkpt lat="41.20812" lon="1.08539">
        <ele>508</ele>
        <time>2020-08-22 11:21:42</time>
      </trkpt>
      <trkpt lat="41.20813" lon="1.08541">
        <ele>508.4</ele>
        <time>2020-08-22 11:21:43</time>
      </trkpt>
      <trkpt lat="41.20815" lon="1.08542">
        <ele>509</ele>
        <time>2020-08-22 11:21:44</time>
      </trkpt>
      <trkpt lat="41.20816" lon="1.08542">
        <ele>509.2</ele>
        <time>2020-08-22 11:21:45</time>
      </trkpt>
      <trkpt lat="41.20817" lon="1.08543">
        <ele>509.6</ele>
        <time>2020-08-22 11:21:46</time>
      </trkpt>
      <trkpt lat="41.20819" lon="1.08544">
        <ele>509.8</ele>
        <time>2020-08-22 11:21:47</time>
      </trkpt>
      <trkpt lat="41.2082" lon="1.08544">
        <ele>510</ele>
        <time>2020-08-22 11:21:48</time>
      </trkpt>
      <trkpt lat="41.20821" lon="1.08544">
        <ele>510.4</ele>
        <time>2020-08-22 11:21:49</time>
      </trkpt>
      <trkpt lat="41.20823" lon="1.08545">
        <ele>510.8</ele>
        <time>2020-08-22 11:21:50</time>
      </trkpt>
      <trkpt lat="41.20824" lon="1.08545">
        <ele>510.8</ele>
        <time>2020-08-22 11:21:51</time>
      </trkpt>
      <trkpt lat="41.20826" lon="1.08544">
        <ele>511</ele>
        <time>2020-08-22 11:21:52</time>
      </trkpt>
      <trkpt lat="41.20828" lon="1.08543">
        <ele>511.4</ele>
        <time>2020-08-22 11:21:53</time>
      </trkpt>
      <trkpt lat="41.20829" lon="1.08543">
        <ele>511.6</ele>
        <time>2020-08-22 11:21:54</time>
      </trkpt>
      <trkpt lat="41.20831" lon="1.08542">
        <ele>512</ele>
        <time>2020-08-22 11:21:55</time>
      </trkpt>
      <trkpt lat="41.20832" lon="1.08541">
        <ele>512.2</ele>
        <time>2020-08-22 11:21:56</time>
      </trkpt>
      <trkpt lat="41.20833" lon="1.08539">
        <ele>512.4</ele>
        <time>2020-08-22 11:21:57</time>
      </trkpt>
      <trkpt lat="41.20833" lon="1.08537">
        <ele>512.4</ele>
        <time>2020-08-22 11:21:58</time>
      </trkpt>
      <trkpt lat="41.20833" lon="1.08535">
        <ele>512.8</ele>
        <time>2020-08-22 11:21:59</time>
      </trkpt>
      <trkpt lat="41.20834" lon="1.08534">
        <ele>513.2</ele>
        <time>2020-08-22 11:22:00</time>
      </trkpt>
      <trkpt lat="41.20834" lon="1.08532">
        <ele>513.4</ele>
        <time>2020-08-22 11:22:01</time>
      </trkpt>
      <trkpt lat="41.20834" lon="1.08531">
        <ele>513.6</ele>
        <time>2020-08-22 11:22:02</time>
      </trkpt>
      <trkpt lat="41.20834" lon="1.08529">
        <ele>513.8</ele>
        <time>2020-08-22 11:22:03</time>
      </trkpt>
      <trkpt lat="41.20834" lon="1.08527">
        <ele>514.2</ele>
        <time>2020-08-22 11:22:04</time>
      </trkpt>
      <trkpt lat="41.20834" lon="1.08525">
        <ele>514.4</ele>
        <time>2020-08-22 11:22:05</time>
      </trkpt>
      <trkpt lat="41.20834" lon="1.08523">
        <ele>515</ele>
        <time>2020-08-22 11:22:06</time>
      </trkpt>
      <trkpt lat="41.20833" lon="1.08522">
        <ele>515.4</ele>
        <time>2020-08-22 11:22:07</time>
      </trkpt>
      <trkpt lat="41.20833" lon="1.0852">
        <ele>515.8</ele>
        <time>2020-08-22 11:22:08</time>
      </trkpt>
      <trkpt lat="41.20833" lon="1.08519">
        <ele>516.2</ele>
        <time>2020-08-22 11:22:09</time>
      </trkpt>
      <trkpt lat="41.20833" lon="1.08518">
        <ele>516.4</ele>
        <time>2020-08-22 11:22:10</time>
      </trkpt>
      <trkpt lat="41.20832" lon="1.08516">
        <ele>516.8</ele>
        <time>2020-08-22 11:22:11</time>
      </trkpt>
      <trkpt lat="41.20832" lon="1.08514">
        <ele>517</ele>
        <time>2020-08-22 11:22:12</time>
      </trkpt>
      <trkpt lat="41.20831" lon="1.08512">
        <ele>517.2</ele>
        <time>2020-08-22 11:22:13</time>
      </trkpt>
      <trkpt lat="41.20831" lon="1.08511">
        <ele>517.2</ele>
        <time>2020-08-22 11:22:14</time>
      </trkpt>
      <trkpt lat="41.2083" lon="1.08509">
        <ele>517.8</ele>
        <time>2020-08-22 11:22:15</time>
      </trkpt>
      <trkpt lat="41.2083" lon="1.08507">
        <ele>518</ele>
        <time>2020-08-22 11:22:16</time>
      </trkpt>
      <trkpt lat="41.20829" lon="1.08505">
        <ele>518.4</ele>
        <time>2020-08-22 11:22:17</time>
      </trkpt>
      <trkpt lat="41.20829" lon="1.08502">
        <ele>518.6</ele>
        <time>2020-08-22 11:22:18</time>
      </trkpt>
      <trkpt lat="41.20829" lon="1.08501">
        <ele>518.6</ele>
        <time>2020-08-22 11:22:19</time>
      </trkpt>
      <trkpt lat="41.20829" lon="1.08498">
        <ele>518.8</ele>
        <time>2020-08-22 11:22:20</time>
      </trkpt>
      <trkpt lat="41.20829" lon="1.08496">
        <ele>519</ele>
        <time>2020-08-22 11:22:21</time>
      </trkpt>
      <trkpt lat="41.20829" lon="1.08494">
        <ele>519.4</ele>
        <time>2020-08-22 11:22:22</time>
      </trkpt>
      <trkpt lat="41.2083" lon="1.08492">
        <ele>519.6</ele>
        <time>2020-08-22 11:22:23</time>
      </trkpt>
      <trkpt lat="41.2083" lon="1.0849">
        <ele>519.8</ele>
        <time>2020-08-22 11:22:24</time>
      </trkpt>
      <trkpt lat="41.20831" lon="1.08488">
        <ele>519.8</ele>
        <time>2020-08-22 11:22:25</time>
      </trkpt>
      <trkpt lat="41.20832" lon="1.08487">
        <ele>520.2</ele>
        <time>2020-08-22 11:22:26</time>
      </trkpt>
      <trkpt lat="41.20833" lon="1.08485">
        <ele>520.6</ele>
        <time>2020-08-22 11:22:27</time>
      </trkpt>
      <trkpt lat="41.20834" lon="1.08484">
        <ele>520.6</ele>
        <time>2020-08-22 11:22:28</time>
      </trkpt>
      <trkpt lat="41.20835" lon="1.08482">
        <ele>520.8</ele>
        <time>2020-08-22 11:22:29</time>
      </trkpt>
      <trkpt lat="41.20836" lon="1.08481">
        <ele>521.2</ele>
        <time>2020-08-22 11:22:30</time>
      </trkpt>
      <trkpt lat="41.20838" lon="1.0848">
        <ele>521.2</ele>
        <time>2020-08-22 11:22:31</time>
      </trkpt>
      <trkpt lat="41.20839" lon="1.08479">
        <ele>521.2</ele>
        <time>2020-08-22 11:22:32</time>
      </trkpt>
      <trkpt lat="41.20841" lon="1.08478">
        <ele>521.6</ele>
        <time>2020-08-22 11:22:33</time>
      </trkpt>
      <trkpt lat="41.20842" lon="1.08478">
        <ele>521.8</ele>
        <time>2020-08-22 11:22:34</time>
      </trkpt>
      <trkpt lat="41.20844" lon="1.08477">
        <ele>522.2</ele>
        <time>2020-08-22 11:22:35</time>
      </trkpt>
      <trkpt lat="41.20845" lon="1.08477">
        <ele>522.4</ele>
        <time>2020-08-22 11:22:36</time>
      </trkpt>
      <trkpt lat="41.20847" lon="1.08477">
        <ele>522.6</ele>
        <time>2020-08-22 11:22:37</time>
      </trkpt>
      <trkpt lat="41.20848" lon="1.08477">
        <ele>523.2</ele>
        <time>2020-08-22 11:22:38</time>
      </trkpt>
      <trkpt lat="41.2085" lon="1.08477">
        <ele>523.4</ele>
        <time>2020-08-22 11:22:39</time>
      </trkpt>
      <trkpt lat="41.20852" lon="1.08477">
        <ele>523.6</ele>
        <time>2020-08-22 11:22:40</time>
      </trkpt>
      <trkpt lat="41.20853" lon="1.08477">
        <ele>523.8</ele>
        <time>2020-08-22 11:22:41</time>
      </trkpt>
      <trkpt lat="41.20855" lon="1.08477">
        <ele>524</ele>
        <time>2020-08-22 11:22:42</time>
      </trkpt>
      <trkpt lat="41.20857" lon="1.08477">
        <ele>524.2</ele>
        <time>2020-08-22 11:22:43</time>
      </trkpt>
      <trkpt lat="41.20858" lon="1.08477">
        <ele>524.2</ele>
        <time>2020-08-22 11:22:44</time>
      </trkpt>
      <trkpt lat="41.2086" lon="1.08477">
        <ele>524.4</ele>
        <time>2020-08-22 11:22:45</time>
      </trkpt>
      <trkpt lat="41.20862" lon="1.08477">
        <ele>524.6</ele>
        <time>2020-08-22 11:22:46</time>
      </trkpt>
      <trkpt lat="41.20864" lon="1.08478">
        <ele>524.8</ele>
        <time>2020-08-22 11:22:47</time>
      </trkpt>
      <trkpt lat="41.20866" lon="1.08478">
        <ele>524.8</ele>
        <time>2020-08-22 11:22:48</time>
      </trkpt>
      <trkpt lat="41.20868" lon="1.08478">
        <ele>525</ele>
        <time>2020-08-22 11:22:49</time>
      </trkpt>
      <trkpt lat="41.2087" lon="1.08478">
        <ele>525</ele>
        <time>2020-08-22 11:22:50</time>
      </trkpt>
      <trkpt lat="41.20872" lon="1.08477">
        <ele>525.2</ele>
        <time>2020-08-22 11:22:51</time>
      </trkpt>
      <trkpt lat="41.20874" lon="1.08477">
        <ele>525.4</ele>
        <time>2020-08-22 11:22:52</time>
      </trkpt>
      <trkpt lat="41.20876" lon="1.08476">
        <ele>525.4</ele>
        <time>2020-08-22 11:22:53</time>
      </trkpt>
      <trkpt lat="41.20877" lon="1.08476">
        <ele>525.6</ele>
        <time>2020-08-22 11:22:54</time>
      </trkpt>
      <trkpt lat="41.20879" lon="1.08475">
        <ele>525.6</ele>
        <time>2020-08-22 11:22:55</time>
      </trkpt>
      <trkpt lat="41.20881" lon="1.08474">
        <ele>525.8</ele>
        <time>2020-08-22 11:22:56</time>
      </trkpt>
      <trkpt lat="41.20883" lon="1.08474">
        <ele>525.8</ele>
        <time>2020-08-22 11:22:57</time>
      </trkpt>
      <trkpt lat="41.20885" lon="1.08473">
        <ele>526.2</ele>
        <time>2020-08-22 11:22:58</time>
      </trkpt>
      <trkpt lat="41.20887" lon="1.08472">
        <ele>526.2</ele>
        <time>2020-08-22 11:22:59</time>
      </trkpt>
      <trkpt lat="41.20889" lon="1.08471">
        <ele>526.4</ele>
        <time>2020-08-22 11:23:00</time>
      </trkpt>
      <trkpt lat="41.20891" lon="1.08469">
        <ele>526.8</ele>
        <time>2020-08-22 11:23:01</time>
      </trkpt>
      <trkpt lat="41.20892" lon="1.08468">
        <ele>526.8</ele>
        <time>2020-08-22 11:23:02</time>
      </trkpt>
      <trkpt lat="41.20894" lon="1.08466">
        <ele>527</ele>
        <time>2020-08-22 11:23:03</time>
      </trkpt>
      <trkpt lat="41.20895" lon="1.08464">
        <ele>527</ele>
        <time>2020-08-22 11:23:04</time>
      </trkpt>
      <trkpt lat="41.20896" lon="1.08461">
        <ele>527.2</ele>
        <time>2020-08-22 11:23:05</time>
      </trkpt>
      <trkpt lat="41.20897" lon="1.08459">
        <ele>527.4</ele>
        <time>2020-08-22 11:23:06</time>
      </trkpt>
      <trkpt lat="41.20899" lon="1.08456">
        <ele>528</ele>
        <time>2020-08-22 11:23:07</time>
      </trkpt>
      <trkpt lat="41.20899" lon="1.08454">
        <ele>528</ele>
        <time>2020-08-22 11:23:08</time>
      </trkpt>
      <trkpt lat="41.209" lon="1.08451">
        <ele>528.4</ele>
        <time>2020-08-22 11:23:09</time>
      </trkpt>
      <trkpt lat="41.20901" lon="1.08449">
        <ele>528.6</ele>
        <time>2020-08-22 11:23:10</time>
      </trkpt>
      <trkpt lat="41.20901" lon="1.08446">
        <ele>529</ele>
        <time>2020-08-22 11:23:11</time>
      </trkpt>
      <trkpt lat="41.20902" lon="1.08444">
        <ele>529.2</ele>
        <time>2020-08-22 11:23:12</time>
      </trkpt>
      <trkpt lat="41.20903" lon="1.08441">
        <ele>529.2</ele>
        <time>2020-08-22 11:23:13</time>
      </trkpt>
      <trkpt lat="41.20904" lon="1.08439">
        <ele>529.6</ele>
        <time>2020-08-22 11:23:14</time>
      </trkpt>
      <trkpt lat="41.20904" lon="1.08436">
        <ele>529.8</ele>
        <time>2020-08-22 11:23:15</time>
      </trkpt>
      <trkpt lat="41.20905" lon="1.08434">
        <ele>530</ele>
        <time>2020-08-22 11:23:16</time>
      </trkpt>
      <trkpt lat="41.20905" lon="1.08431">
        <ele>530.2</ele>
        <time>2020-08-22 11:23:17</time>
      </trkpt>
      <trkpt lat="41.20905" lon="1.08428">
        <ele>530.6</ele>
        <time>2020-08-22 11:23:18</time>
      </trkpt>
      <trkpt lat="41.20906" lon="1.08426">
        <ele>530.8</ele>
        <time>2020-08-22 11:23:19</time>
      </trkpt>
      <trkpt lat="41.20906" lon="1.08423">
        <ele>531</ele>
        <time>2020-08-22 11:23:20</time>
      </trkpt>
      <trkpt lat="41.20907" lon="1.08421">
        <ele>531.4</ele>
        <time>2020-08-22 11:23:21</time>
      </trkpt>
      <trkpt lat="41.20907" lon="1.08418">
        <ele>531.4</ele>
        <time>2020-08-22 11:23:22</time>
      </trkpt>
      <trkpt lat="41.20908" lon="1.08415">
        <ele>531.8</ele>
        <time>2020-08-22 11:23:23</time>
      </trkpt>
      <trkpt lat="41.20909" lon="1.08413">
        <ele>531.8</ele>
        <time>2020-08-22 11:23:24</time>
      </trkpt>
      <trkpt lat="41.20909" lon="1.0841">
        <ele>532</ele>
        <time>2020-08-22 11:23:25</time>
      </trkpt>
      <trkpt lat="41.2091" lon="1.08407">
        <ele>532.6</ele>
        <time>2020-08-22 11:23:26</time>
      </trkpt>
      <trkpt lat="41.2091" lon="1.08405">
        <ele>532.8</ele>
        <time>2020-08-22 11:23:27</time>
      </trkpt>
      <trkpt lat="41.20911" lon="1.08402">
        <ele>533</ele>
        <time>2020-08-22 11:23:28</time>
      </trkpt>
      <trkpt lat="41.20913" lon="1.08401">
        <ele>533.2</ele>
        <time>2020-08-22 11:23:29</time>
      </trkpt>
      <trkpt lat="41.20914" lon="1.08399">
        <ele>533.4</ele>
        <time>2020-08-22 11:23:30</time>
      </trkpt>
      <trkpt lat="41.20916" lon="1.08398">
        <ele>533.4</ele>
        <time>2020-08-22 11:23:31</time>
      </trkpt>
      <trkpt lat="41.20918" lon="1.08396">
        <ele>533.6</ele>
        <time>2020-08-22 11:23:32</time>
      </trkpt>
      <trkpt lat="41.20919" lon="1.08395">
        <ele>533.8</ele>
        <time>2020-08-22 11:23:33</time>
      </trkpt>
      <trkpt lat="41.20921" lon="1.08394">
        <ele>534.2</ele>
        <time>2020-08-22 11:23:34</time>
      </trkpt>
      <trkpt lat="41.20923" lon="1.08392">
        <ele>534.6</ele>
        <time>2020-08-22 11:23:35</time>
      </trkpt>
      <trkpt lat="41.20925" lon="1.08392">
        <ele>534.8</ele>
        <time>2020-08-22 11:23:36</time>
      </trkpt>
      <trkpt lat="41.20927" lon="1.08392">
        <ele>535</ele>
        <time>2020-08-22 11:23:37</time>
      </trkpt>
      <trkpt lat="41.20929" lon="1.08392">
        <ele>535</ele>
        <time>2020-08-22 11:23:38</time>
      </trkpt>
      <trkpt lat="41.20931" lon="1.08391">
        <ele>535.4</ele>
        <time>2020-08-22 11:23:39</time>
      </trkpt>
      <trkpt lat="41.20933" lon="1.08391">
        <ele>535.4</ele>
        <time>2020-08-22 11:23:40</time>
      </trkpt>
      <trkpt lat="41.20935" lon="1.08391">
        <ele>535.8</ele>
        <time>2020-08-22 11:23:41</time>
      </trkpt>
      <trkpt lat="41.20937" lon="1.0839">
        <ele>535.8</ele>
        <time>2020-08-22 11:23:42</time>
      </trkpt>
      <trkpt lat="41.20939" lon="1.0839">
        <ele>536.4</ele>
        <time>2020-08-22 11:23:43</time>
      </trkpt>
      <trkpt lat="41.20941" lon="1.08389">
        <ele>537</ele>
        <time>2020-08-22 11:23:44</time>
      </trkpt>
      <trkpt lat="41.20943" lon="1.08389">
        <ele>537.2</ele>
        <time>2020-08-22 11:23:45</time>
      </trkpt>
      <trkpt lat="41.20944" lon="1.08388">
        <ele>537.6</ele>
        <time>2020-08-22 11:23:46</time>
      </trkpt>
      <trkpt lat="41.20946" lon="1.08387">
        <ele>537.6</ele>
        <time>2020-08-22 11:23:47</time>
      </trkpt>
      <trkpt lat="41.20948" lon="1.08385">
        <ele>538.2</ele>
        <time>2020-08-22 11:23:48</time>
      </trkpt>
      <trkpt lat="41.2095" lon="1.08384">
        <ele>538.4</ele>
        <time>2020-08-22 11:23:49</time>
      </trkpt>
      <trkpt lat="41.20952" lon="1.08383">
        <ele>538.8</ele>
        <time>2020-08-22 11:23:50</time>
      </trkpt>
      <trkpt lat="41.20953" lon="1.08381">
        <ele>539</ele>
        <time>2020-08-22 11:23:51</time>
      </trkpt>
      <trkpt lat="41.20955" lon="1.0838">
        <ele>539.4</ele>
        <time>2020-08-22 11:23:52</time>
      </trkpt>
      <trkpt lat="41.20956" lon="1.08379">
        <ele>539.8</ele>
        <time>2020-08-22 11:23:53</time>
      </trkpt>
      <trkpt lat="41.20958" lon="1.08379">
        <ele>539.8</ele>
        <time>2020-08-22 11:23:54</time>
      </trkpt>
      <trkpt lat="41.2096" lon="1.08379">
        <ele>540.2</ele>
        <time>2020-08-22 11:23:55</time>
      </trkpt>
      <trkpt lat="41.20962" lon="1.08379">
        <ele>540.2</ele>
        <time>2020-08-22 11:23:56</time>
      </trkpt>
      <trkpt lat="41.20964" lon="1.0838">
        <ele>540.4</ele>
        <time>2020-08-22 11:23:57</time>
      </trkpt>
      <trkpt lat="41.20966" lon="1.08382">
        <ele>540.6</ele>
        <time>2020-08-22 11:23:58</time>
      </trkpt>
      <trkpt lat="41.20967" lon="1.08384">
        <ele>541</ele>
        <time>2020-08-22 11:23:59</time>
      </trkpt>
      <trkpt lat="41.20968" lon="1.08386">
        <ele>541.2</ele>
        <time>2020-08-22 11:24:00</time>
      </trkpt>
      <trkpt lat="41.20968" lon="1.08388">
        <ele>541.4</ele>
        <time>2020-08-22 11:24:01</time>
      </trkpt>
      <trkpt lat="41.20968" lon="1.08391">
        <ele>541.8</ele>
        <time>2020-08-22 11:24:02</time>
      </trkpt>
      <trkpt lat="41.20968" lon="1.08393">
        <ele>541.8</ele>
        <time>2020-08-22 11:24:03</time>
      </trkpt>
      <trkpt lat="41.20968" lon="1.08396">
        <ele>542.2</ele>
        <time>2020-08-22 11:24:04</time>
      </trkpt>
      <trkpt lat="41.20968" lon="1.08398">
        <ele>542.6</ele>
        <time>2020-08-22 11:24:05</time>
      </trkpt>
      <trkpt lat="41.20967" lon="1.08401">
        <ele>543</ele>
        <time>2020-08-22 11:24:06</time>
      </trkpt>
      <trkpt lat="41.20967" lon="1.08404">
        <ele>543</ele>
        <time>2020-08-22 11:24:07</time>
      </trkpt>
      <trkpt lat="41.20968" lon="1.08407">
        <ele>543.2</ele>
        <time>2020-08-22 11:24:08</time>
      </trkpt>
      <trkpt lat="41.20968" lon="1.0841">
        <ele>543.4</ele>
        <time>2020-08-22 11:24:09</time>
      </trkpt>
      <trkpt lat="41.20969" lon="1.08412">
        <ele>543.6</ele>
        <time>2020-08-22 11:24:10</time>
      </trkpt>
      <trkpt lat="41.20969" lon="1.08415">
        <ele>543.8</ele>
        <time>2020-08-22 11:24:11</time>
      </trkpt>
      <trkpt lat="41.2097" lon="1.08418">
        <ele>544</ele>
        <time>2020-08-22 11:24:12</time>
      </trkpt>
      <trkpt lat="41.20971" lon="1.0842">
        <ele>544.2</ele>
        <time>2020-08-22 11:24:13</time>
      </trkpt>
      <trkpt lat="41.20972" lon="1.08422">
        <ele>544.2</ele>
        <time>2020-08-22 11:24:14</time>
      </trkpt>
      <trkpt lat="41.20973" lon="1.08424">
        <ele>544.4</ele>
        <time>2020-08-22 11:24:15</time>
      </trkpt>
      <trkpt lat="41.20975" lon="1.08425">
        <ele>544.6</ele>
        <time>2020-08-22 11:24:16</time>
      </trkpt>
      <trkpt lat="41.20977" lon="1.08427">
        <ele>544.8</ele>
        <time>2020-08-22 11:24:17</time>
      </trkpt>
      <trkpt lat="41.20978" lon="1.08428">
        <ele>545</ele>
        <time>2020-08-22 11:24:18</time>
      </trkpt>
      <trkpt lat="41.2098" lon="1.08428">
        <ele>545</ele>
        <time>2020-08-22 11:24:19</time>
      </trkpt>
      <trkpt lat="41.20982" lon="1.08428">
        <ele>545.4</ele>
        <time>2020-08-22 11:24:20</time>
      </trkpt>
      <trkpt lat="41.20984" lon="1.08426">
        <ele>545.4</ele>
        <time>2020-08-22 11:24:21</time>
      </trkpt>
      <trkpt lat="41.20986" lon="1.08424">
        <ele>545.6</ele>
        <time>2020-08-22 11:24:22</time>
      </trkpt>
      <trkpt lat="41.20987" lon="1.08422">
        <ele>545.6</ele>
        <time>2020-08-22 11:24:23</time>
      </trkpt>
      <trkpt lat="41.20987" lon="1.0842">
        <ele>545.8</ele>
        <time>2020-08-22 11:24:24</time>
      </trkpt>
      <trkpt lat="41.20988" lon="1.08419">
        <ele>545.8</ele>
        <time>2020-08-22 11:24:25</time>
      </trkpt>
      <trkpt lat="41.20989" lon="1.08417">
        <ele>546.4</ele>
        <time>2020-08-22 11:24:26</time>
      </trkpt>
      <trkpt lat="41.2099" lon="1.08415">
        <ele>547</ele>
        <time>2020-08-22 11:24:27</time>
      </trkpt>
      <trkpt lat="41.20992" lon="1.08413">
        <ele>547.2</ele>
        <time>2020-08-22 11:24:28</time>
      </trkpt>
      <trkpt lat="41.20992" lon="1.0841">
        <ele>548</ele>
        <time>2020-08-22 11:24:29</time>
      </trkpt>
      <trkpt lat="41.20993" lon="1.08407">
        <ele>548.2</ele>
        <time>2020-08-22 11:24:30</time>
      </trkpt>
      <trkpt lat="41.20993" lon="1.08404">
        <ele>548.6</ele>
        <time>2020-08-22 11:24:31</time>
      </trkpt>
      <trkpt lat="41.20994" lon="1.08401">
        <ele>548.8</ele>
        <time>2020-08-22 11:24:32</time>
      </trkpt>
      <trkpt lat="41.20994" lon="1.08397">
        <ele>549.2</ele>
        <time>2020-08-22 11:24:33</time>
      </trkpt>
      <trkpt lat="41.20994" lon="1.08394">
        <ele>549.2</ele>
        <time>2020-08-22 11:24:34</time>
      </trkpt>
      <trkpt lat="41.20995" lon="1.08391">
        <ele>549.4</ele>
        <time>2020-08-22 11:24:35</time>
      </trkpt>
      <trkpt lat="41.20997" lon="1.08387">
        <ele>549.6</ele>
        <time>2020-08-22 11:24:36</time>
      </trkpt>
      <trkpt lat="41.20998" lon="1.08384">
        <ele>549.6</ele>
        <time>2020-08-22 11:24:37</time>
      </trkpt>
      <trkpt lat="41.20999" lon="1.08379">
        <ele>549.6</ele>
        <time>2020-08-22 11:24:38</time>
      </trkpt>
      <trkpt lat="41.21001" lon="1.08374">
        <ele>549.4</ele>
        <time>2020-08-22 11:24:39</time>
      </trkpt>
      <trkpt lat="41.21003" lon="1.0837">
        <ele>549.6</ele>
        <time>2020-08-22 11:24:40</time>
      </trkpt>
      <trkpt lat="41.21005" lon="1.08363">
        <ele>549.2</ele>
        <time>2020-08-22 11:24:42</time>
      </trkpt>
      <trkpt lat="41.21006" lon="1.08361">
        <ele>549.2</ele>
        <time>2020-08-22 11:24:43</time>
      </trkpt>
      <trkpt lat="41.21008" lon="1.08358">
        <ele>549.2</ele>
        <time>2020-08-22 11:24:44</time>
      </trkpt>
      <trkpt lat="41.21008" lon="1.08356">
        <ele>549</ele>
        <time>2020-08-22 11:24:45</time>
      </trkpt>
      <trkpt lat="41.2101" lon="1.08353">
        <ele>548.4</ele>
        <time>2020-08-22 11:24:46</time>
      </trkpt>
      <trkpt lat="41.2101" lon="1.08348">
        <ele>547.6</ele>
        <time>2020-08-22 11:24:47</time>
      </trkpt>
      <trkpt lat="41.21011" lon="1.08341">
        <ele>547.2</ele>
        <time>2020-08-22 11:24:48</time>
      </trkpt>
      <trkpt lat="41.21011" lon="1.08335">
        <ele>546.6</ele>
        <time>2020-08-22 11:24:49</time>
      </trkpt>
      <trkpt lat="41.21012" lon="1.0833">
        <ele>546.2</ele>
        <time>2020-08-22 11:24:50</time>
      </trkpt>
      <trkpt lat="41.21013" lon="1.08326">
        <ele>545.8</ele>
        <time>2020-08-22 11:24:51</time>
      </trkpt>
      <trkpt lat="41.21014" lon="1.08322">
        <ele>545.6</ele>
        <time>2020-08-22 11:24:52</time>
      </trkpt>
      <trkpt lat="41.21013" lon="1.08317">
        <ele>544.8</ele>
        <time>2020-08-22 11:24:53</time>
      </trkpt>
      <trkpt lat="41.21013" lon="1.08314">
        <ele>543.4</ele>
        <time>2020-08-22 11:24:54</time>
      </trkpt>
      <trkpt lat="41.21012" lon="1.0831">
        <ele>542.6</ele>
        <time>2020-08-22 11:24:55</time>
      </trkpt>
      <trkpt lat="41.21011" lon="1.08306">
        <ele>541.6</ele>
        <time>2020-08-22 11:24:56</time>
      </trkpt>
      <trkpt lat="41.21012" lon="1.08301">
        <ele>541.4</ele>
        <time>2020-08-22 11:24:57</time>
      </trkpt>
      <trkpt lat="41.21013" lon="1.08296">
        <ele>539.6</ele>
        <time>2020-08-22 11:24:58</time>
      </trkpt>
      <trkpt lat="41.21014" lon="1.08291">
        <ele>539.2</ele>
        <time>2020-08-22 11:24:59</time>
      </trkpt>
      <trkpt lat="41.21013" lon="1.08286">
        <ele>538.6</ele>
        <time>2020-08-22 11:25:00</time>
      </trkpt>
      <trkpt lat="41.21012" lon="1.08278">
        <ele>537.2</ele>
        <time>2020-08-22 11:25:02</time>
      </trkpt>
      <trkpt lat="41.21011" lon="1.08273">
        <ele>536.6</ele>
        <time>2020-08-22 11:25:03</time>
      </trkpt>
      <trkpt lat="41.21011" lon="1.0827">
        <ele>536</ele>
        <time>2020-08-22 11:25:04</time>
      </trkpt>
      <trkpt lat="41.21011" lon="1.08266">
        <ele>534.4</ele>
        <time>2020-08-22 11:25:05</time>
      </trkpt>
      <trkpt lat="41.2101" lon="1.08263">
        <ele>534</ele>
        <time>2020-08-22 11:25:06</time>
      </trkpt>
      <trkpt lat="41.21008" lon="1.08261">
        <ele>533</ele>
        <time>2020-08-22 11:25:07</time>
      </trkpt>
      <trkpt lat="41.21006" lon="1.08258">
        <ele>532.6</ele>
        <time>2020-08-22 11:25:08</time>
      </trkpt>
      <trkpt lat="41.21004" lon="1.08255">
        <ele>531.8</ele>
        <time>2020-08-22 11:25:09</time>
      </trkpt>
      <trkpt lat="41.21003" lon="1.0825">
        <ele>531.2</ele>
        <time>2020-08-22 11:25:10</time>
      </trkpt>
      <trkpt lat="41.20999" lon="1.08238">
        <ele>530.2</ele>
        <time>2020-08-22 11:25:12</time>
      </trkpt>
      <trkpt lat="41.20997" lon="1.08226">
        <ele>528.8</ele>
        <time>2020-08-22 11:25:14</time>
      </trkpt>
      <trkpt lat="41.20996" lon="1.08222">
        <ele>528.4</ele>
        <time>2020-08-22 11:25:15</time>
      </trkpt>
      <trkpt lat="41.20996" lon="1.08217">
        <ele>527.4</ele>
        <time>2020-08-22 11:25:16</time>
      </trkpt>
      <trkpt lat="41.20994" lon="1.08214">
        <ele>527.2</ele>
        <time>2020-08-22 11:25:17</time>
      </trkpt>
      <trkpt lat="41.20991" lon="1.0821">
        <ele>526.2</ele>
        <time>2020-08-22 11:25:18</time>
      </trkpt>
      <trkpt lat="41.20988" lon="1.08207">
        <ele>525.6</ele>
        <time>2020-08-22 11:25:19</time>
      </trkpt>
      <trkpt lat="41.20986" lon="1.08203">
        <ele>525.2</ele>
        <time>2020-08-22 11:25:20</time>
      </trkpt>
      <trkpt lat="41.20984" lon="1.082">
        <ele>524.4</ele>
        <time>2020-08-22 11:25:21</time>
      </trkpt>
      <trkpt lat="41.20983" lon="1.08197">
        <ele>523.8</ele>
        <time>2020-08-22 11:25:22</time>
      </trkpt>
      <trkpt lat="41.20983" lon="1.08195">
        <ele>522.8</ele>
        <time>2020-08-22 11:25:23</time>
      </trkpt>
      <trkpt lat="41.20982" lon="1.08192">
        <ele>522</ele>
        <time>2020-08-22 11:25:24</time>
      </trkpt>
      <trkpt lat="41.20982" lon="1.08189">
        <ele>520.8</ele>
        <time>2020-08-22 11:25:25</time>
      </trkpt>
      <trkpt lat="41.2098" lon="1.08187">
        <ele>520.2</ele>
        <time>2020-08-22 11:25:26</time>
      </trkpt>
      <trkpt lat="41.20978" lon="1.08185">
        <ele>519</ele>
        <time>2020-08-22 11:25:27</time>
      </trkpt>
      <trkpt lat="41.20977" lon="1.08183">
        <ele>518</ele>
        <time>2020-08-22 11:25:28</time>
      </trkpt>
      <trkpt lat="41.20975" lon="1.0818">
        <ele>517.4</ele>
        <time>2020-08-22 11:25:29</time>
      </trkpt>
      <trkpt lat="41.20972" lon="1.08167">
        <ele>516.2</ele>
        <time>2020-08-22 11:25:32</time>
      </trkpt>
      <trkpt lat="41.20967" lon="1.08155">
        <ele>515.2</ele>
        <time>2020-08-22 11:25:34</time>
      </trkpt>
      <trkpt lat="41.20963" lon="1.08142">
        <ele>513.2</ele>
        <time>2020-08-22 11:25:36</time>
      </trkpt>
      <trkpt lat="41.2096" lon="1.08137">
        <ele>511.6</ele>
        <time>2020-08-22 11:25:37</time>
      </trkpt>
      <trkpt lat="41.20958" lon="1.08132">
        <ele>511.2</ele>
        <time>2020-08-22 11:25:38</time>
      </trkpt>
      <trkpt lat="41.20956" lon="1.08127">
        <ele>509.4</ele>
        <time>2020-08-22 11:25:39</time>
      </trkpt>
      <trkpt lat="41.20952" lon="1.08121">
        <ele>508.6</ele>
        <time>2020-08-22 11:25:40</time>
      </trkpt>
      <trkpt lat="41.20949" lon="1.08116">
        <ele>506.8</ele>
        <time>2020-08-22 11:25:41</time>
      </trkpt>
      <trkpt lat="41.20942" lon="1.08104">
        <ele>505.2</ele>
        <time>2020-08-22 11:25:43</time>
      </trkpt>
      <trkpt lat="41.20939" lon="1.08097">
        <ele>504.4</ele>
        <time>2020-08-22 11:25:44</time>
      </trkpt>
      <trkpt lat="41.20937" lon="1.08091">
        <ele>504</ele>
        <time>2020-08-22 11:25:45</time>
      </trkpt>
      <trkpt lat="41.20934" lon="1.08086">
        <ele>503.4</ele>
        <time>2020-08-22 11:25:46</time>
      </trkpt>
      <trkpt lat="41.20931" lon="1.08081">
        <ele>503.2</ele>
        <time>2020-08-22 11:25:47</time>
      </trkpt>
      <trkpt lat="41.20929" lon="1.08075">
        <ele>502.8</ele>
        <time>2020-08-22 11:25:48</time>
      </trkpt>
      <trkpt lat="41.20913" lon="1.08052">
        <ele>501.8</ele>
        <time>2020-08-22 11:25:52</time>
      </trkpt>
      <trkpt lat="41.20909" lon="1.08048">
        <ele>501.6</ele>
        <time>2020-08-22 11:25:53</time>
      </trkpt>
      <trkpt lat="41.20905" lon="1.08044">
        <ele>501.4</ele>
        <time>2020-08-22 11:25:54</time>
      </trkpt>
      <trkpt lat="41.20902" lon="1.08039">
        <ele>501.2</ele>
        <time>2020-08-22 11:25:55</time>
      </trkpt>
      <trkpt lat="41.20898" lon="1.08035">
        <ele>500.8</ele>
        <time>2020-08-22 11:25:56</time>
      </trkpt>
      <trkpt lat="41.20894" lon="1.08032">
        <ele>499.8</ele>
        <time>2020-08-22 11:25:57</time>
      </trkpt>
      <trkpt lat="41.20891" lon="1.0803">
        <ele>499.2</ele>
        <time>2020-08-22 11:25:58</time>
      </trkpt>
      <trkpt lat="41.20888" lon="1.08026">
        <ele>498.4</ele>
        <time>2020-08-22 11:25:59</time>
      </trkpt>
      <trkpt lat="41.20886" lon="1.08022">
        <ele>497.6</ele>
        <time>2020-08-22 11:26:00</time>
      </trkpt>
      <trkpt lat="41.20884" lon="1.08019">
        <ele>496.4</ele>
        <time>2020-08-22 11:26:01</time>
      </trkpt>
      <trkpt lat="41.20882" lon="1.08016">
        <ele>495</ele>
        <time>2020-08-22 11:26:02</time>
      </trkpt>
      <trkpt lat="41.20879" lon="1.08014">
        <ele>494.2</ele>
        <time>2020-08-22 11:26:03</time>
      </trkpt>
      <trkpt lat="41.20876" lon="1.08013">
        <ele>492.8</ele>
        <time>2020-08-22 11:26:04</time>
      </trkpt>
      <trkpt lat="41.20873" lon="1.08012">
        <ele>492.4</ele>
        <time>2020-08-22 11:26:05</time>
      </trkpt>
      <trkpt lat="41.2087" lon="1.08012">
        <ele>491.2</ele>
        <time>2020-08-22 11:26:06</time>
      </trkpt>
      <trkpt lat="41.20861" lon="1.08011">
        <ele>489.6</ele>
        <time>2020-08-22 11:26:08</time>
      </trkpt>
      <trkpt lat="41.20856" lon="1.08009">
        <ele>489.4</ele>
        <time>2020-08-22 11:26:09</time>
      </trkpt>
      <trkpt lat="41.20848" lon="1.08005">
        <ele>488.6</ele>
        <time>2020-08-22 11:26:11</time>
      </trkpt>
      <trkpt lat="41.20844" lon="1.08003">
        <ele>488.4</ele>
        <time>2020-08-22 11:26:12</time>
      </trkpt>
      <trkpt lat="41.2084" lon="1.08">
        <ele>488.4</ele>
        <time>2020-08-22 11:26:13</time>
      </trkpt>
      <trkpt lat="41.20836" lon="1.07997">
        <ele>488.2</ele>
        <time>2020-08-22 11:26:14</time>
      </trkpt>
      <trkpt lat="41.20832" lon="1.07994">
        <ele>488.2</ele>
        <time>2020-08-22 11:26:15</time>
      </trkpt>
      <trkpt lat="41.20828" lon="1.07991">
        <ele>488.4</ele>
        <time>2020-08-22 11:26:16</time>
      </trkpt>
      <trkpt lat="41.20821" lon="1.07985">
        <ele>488.6</ele>
        <time>2020-08-22 11:26:18</time>
      </trkpt>
      <trkpt lat="41.20817" lon="1.07981">
        <ele>489</ele>
        <time>2020-08-22 11:26:19</time>
      </trkpt>
      <trkpt lat="41.20814" lon="1.07977">
        <ele>489</ele>
        <time>2020-08-22 11:26:20</time>
      </trkpt>
      <trkpt lat="41.20811" lon="1.07974">
        <ele>489.2</ele>
        <time>2020-08-22 11:26:21</time>
      </trkpt>
      <trkpt lat="41.20808" lon="1.0797">
        <ele>489.4</ele>
        <time>2020-08-22 11:26:22</time>
      </trkpt>
      <trkpt lat="41.20804" lon="1.07967">
        <ele>489.4</ele>
        <time>2020-08-22 11:26:23</time>
      </trkpt>
      <trkpt lat="41.208" lon="1.07964">
        <ele>489.4</ele>
        <time>2020-08-22 11:26:24</time>
      </trkpt>
      <trkpt lat="41.20796" lon="1.0796">
        <ele>489.4</ele>
        <time>2020-08-22 11:26:25</time>
      </trkpt>
      <trkpt lat="41.20786" lon="1.07948">
        <ele>489.6</ele>
        <time>2020-08-22 11:26:28</time>
      </trkpt>
      <trkpt lat="41.20782" lon="1.07944">
        <ele>489.6</ele>
        <time>2020-08-22 11:26:29</time>
      </trkpt>
      <trkpt lat="41.20766" lon="1.07926">
        <ele>489.4</ele>
        <time>2020-08-22 11:26:33</time>
      </trkpt>
      <trkpt lat="41.20763" lon="1.0792">
        <ele>489.2</ele>
        <time>2020-08-22 11:26:34</time>
      </trkpt>
      <trkpt lat="41.20761" lon="1.07914">
        <ele>489.2</ele>
        <time>2020-08-22 11:26:35</time>
      </trkpt>
      <trkpt lat="41.2076" lon="1.07906">
        <ele>489</ele>
        <time>2020-08-22 11:26:36</time>
      </trkpt>
      <trkpt lat="41.2076" lon="1.07899">
        <ele>488.8</ele>
        <time>2020-08-22 11:26:37</time>
      </trkpt>
      <trkpt lat="41.20759" lon="1.07889">
        <ele>488.4</ele>
        <time>2020-08-22 11:26:38</time>
      </trkpt>
      <trkpt lat="41.20758" lon="1.0787">
        <ele>487.8</ele>
        <time>2020-08-22 11:26:40</time>
      </trkpt>
      <trkpt lat="41.20758" lon="1.07864">
        <ele>487.6</ele>
        <time>2020-08-22 11:26:41</time>
      </trkpt>
      <trkpt lat="41.20758" lon="1.07857">
        <ele>487.2</ele>
        <time>2020-08-22 11:26:42</time>
      </trkpt>
      <trkpt lat="41.20755" lon="1.0785">
        <ele>487.2</ele>
        <time>2020-08-22 11:26:43</time>
      </trkpt>
      <trkpt lat="41.20752" lon="1.07844">
        <ele>486.8</ele>
        <time>2020-08-22 11:26:44</time>
      </trkpt>
      <trkpt lat="41.20741" lon="1.07824">
        <ele>486.4</ele>
        <time>2020-08-22 11:26:47</time>
      </trkpt>
      <trkpt lat="41.2074" lon="1.07814">
        <ele>486.4</ele>
        <time>2020-08-22 11:26:48</time>
      </trkpt>
      <trkpt lat="41.20739" lon="1.07807">
        <ele>486.2</ele>
        <time>2020-08-22 11:26:49</time>
      </trkpt>
      <trkpt lat="41.20738" lon="1.07787">
        <ele>485.8</ele>
        <time>2020-08-22 11:26:51</time>
      </trkpt>
      <trkpt lat="41.20739" lon="1.07777">
        <ele>485.8</ele>
        <time>2020-08-22 11:26:52</time>
      </trkpt>
      <trkpt lat="41.20738" lon="1.07769">
        <ele>485.4</ele>
        <time>2020-08-22 11:26:53</time>
      </trkpt>
      <trkpt lat="41.20736" lon="1.0776">
        <ele>485.2</ele>
        <time>2020-08-22 11:26:54</time>
      </trkpt>
      <trkpt lat="41.20734" lon="1.07751">
        <ele>485</ele>
        <time>2020-08-22 11:26:55</time>
      </trkpt>
      <trkpt lat="41.20735" lon="1.07743">
        <ele>484.8</ele>
        <time>2020-08-22 11:26:56</time>
      </trkpt>
      <trkpt lat="41.20736" lon="1.07738">
        <ele>484.6</ele>
        <time>2020-08-22 11:26:57</time>
      </trkpt>
      <trkpt lat="41.20737" lon="1.07732">
        <ele>484.2</ele>
        <time>2020-08-22 11:26:58</time>
      </trkpt>
      <trkpt lat="41.20738" lon="1.07728">
        <ele>484</ele>
        <time>2020-08-22 11:26:59</time>
      </trkpt>
      <trkpt lat="41.20738" lon="1.07723">
        <ele>483.8</ele>
        <time>2020-08-22 11:27:00</time>
      </trkpt>
      <trkpt lat="41.20736" lon="1.07721">
        <ele>484</ele>
        <time>2020-08-22 11:27:01</time>
      </trkpt>
      <trkpt lat="41.20735" lon="1.0772">
        <ele>483.8</ele>
        <time>2020-08-22 11:27:02</time>
      </trkpt>
      <trkpt lat="41.20733" lon="1.07717">
        <ele>483.4</ele>
        <time>2020-08-22 11:27:03</time>
      </trkpt>
      <trkpt lat="41.20729" lon="1.07714">
        <ele>483.2</ele>
        <time>2020-08-22 11:27:04</time>
      </trkpt>
      <trkpt lat="41.20726" lon="1.07713">
        <ele>482.8</ele>
        <time>2020-08-22 11:27:05</time>
      </trkpt>
      <trkpt lat="41.20723" lon="1.07713">
        <ele>482.6</ele>
        <time>2020-08-22 11:27:06</time>
      </trkpt>
      <trkpt lat="41.20721" lon="1.07713">
        <ele>482</ele>
        <time>2020-08-22 11:27:07</time>
      </trkpt>
      <trkpt lat="41.20719" lon="1.07713">
        <ele>481.8</ele>
        <time>2020-08-22 11:27:08</time>
      </trkpt>
      <trkpt lat="41.20717" lon="1.07713">
        <ele>481.4</ele>
        <time>2020-08-22 11:27:09</time>
      </trkpt>
      <trkpt lat="41.20715" lon="1.07712">
        <ele>481.4</ele>
        <time>2020-08-22 11:27:10</time>
      </trkpt>
      <trkpt lat="41.20715" lon="1.0771">
        <ele>481.2</ele>
        <time>2020-08-22 11:27:11</time>
      </trkpt>
      <trkpt lat="41.20714" lon="1.07707">
        <ele>481.2</ele>
        <time>2020-08-22 11:27:12</time>
      </trkpt>
      <trkpt lat="41.20713" lon="1.07704">
        <ele>481.2</ele>
        <time>2020-08-22 11:27:13</time>
      </trkpt>
      <trkpt lat="41.20712" lon="1.077">
        <ele>481.4</ele>
        <time>2020-08-22 11:27:14</time>
      </trkpt>
      <trkpt lat="41.20711" lon="1.07696">
        <ele>481.4</ele>
        <time>2020-08-22 11:27:15</time>
      </trkpt>
      <trkpt lat="41.20711" lon="1.07691">
        <ele>481.4</ele>
        <time>2020-08-22 11:27:16</time>
      </trkpt>
      <trkpt lat="41.20712" lon="1.07686">
        <ele>481.6</ele>
        <time>2020-08-22 11:27:17</time>
      </trkpt>
      <trkpt lat="41.20712" lon="1.07682">
        <ele>481.6</ele>
        <time>2020-08-22 11:27:18</time>
      </trkpt>
      <trkpt lat="41.20712" lon="1.07678">
        <ele>481.6</ele>
        <time>2020-08-22 11:27:19</time>
      </trkpt>
      <trkpt lat="41.20711" lon="1.07673">
        <ele>481.6</ele>
        <time>2020-08-22 11:27:20</time>
      </trkpt>
      <trkpt lat="41.20711" lon="1.07668">
        <ele>481.2</ele>
        <time>2020-08-22 11:27:21</time>
      </trkpt>
      <trkpt lat="41.20711" lon="1.07663">
        <ele>481.2</ele>
        <time>2020-08-22 11:27:22</time>
      </trkpt>
      <trkpt lat="41.20711" lon="1.07657">
        <ele>481</ele>
        <time>2020-08-22 11:27:23</time>
      </trkpt>
      <trkpt lat="41.20712" lon="1.07653">
        <ele>480.8</ele>
        <time>2020-08-22 11:27:24</time>
      </trkpt>
      <trkpt lat="41.20712" lon="1.07649">
        <ele>480.8</ele>
        <time>2020-08-22 11:27:25</time>
      </trkpt>
      <trkpt lat="41.20711" lon="1.07646">
        <ele>480.8</ele>
        <time>2020-08-22 11:27:26</time>
      </trkpt>
      <trkpt lat="41.2071" lon="1.07643">
        <ele>480.6</ele>
        <time>2020-08-22 11:27:27</time>
      </trkpt>
      <trkpt lat="41.2071" lon="1.0764">
        <ele>480.4</ele>
        <time>2020-08-22 11:27:28</time>
      </trkpt>
      <trkpt lat="41.20709" lon="1.07638">
        <ele>480.4</ele>
        <time>2020-08-22 11:27:29</time>
      </trkpt>
      <trkpt lat="41.20709" lon="1.07635">
        <ele>480.4</ele>
        <time>2020-08-22 11:27:30</time>
      </trkpt>
      <trkpt lat="41.20709" lon="1.0763">
        <ele>480.2</ele>
        <time>2020-08-22 11:27:31</time>
      </trkpt>
      <trkpt lat="41.20708" lon="1.07625">
        <ele>479.6</ele>
        <time>2020-08-22 11:27:32</time>
      </trkpt>
      <trkpt lat="41.20707" lon="1.0762">
        <ele>479.2</ele>
        <time>2020-08-22 11:27:33</time>
      </trkpt>
      <trkpt lat="41.20705" lon="1.07614">
        <ele>478.6</ele>
        <time>2020-08-22 11:27:34</time>
      </trkpt>
      <trkpt lat="41.20703" lon="1.076">
        <ele>477.4</ele>
        <time>2020-08-22 11:27:36</time>
      </trkpt>
      <trkpt lat="41.20704" lon="1.07595">
        <ele>477</ele>
        <time>2020-08-22 11:27:37</time>
      </trkpt>
      <trkpt lat="41.20703" lon="1.07592">
        <ele>477</ele>
        <time>2020-08-22 11:27:38</time>
      </trkpt>
      <trkpt lat="41.20702" lon="1.07591">
        <ele>476.6</ele>
        <time>2020-08-22 11:27:39</time>
      </trkpt>
      <trkpt lat="41.20701" lon="1.07591">
        <ele>476.6</ele>
        <time>2020-08-22 11:27:40</time>
      </trkpt>
      <trkpt lat="41.207" lon="1.07593">
        <ele>476.4</ele>
        <time>2020-08-22 11:27:41</time>
      </trkpt>
      <trkpt lat="41.20699" lon="1.07594">
        <ele>476.2</ele>
        <time>2020-08-22 11:27:42</time>
      </trkpt>
      <trkpt lat="41.20697" lon="1.07595">
        <ele>476.2</ele>
        <time>2020-08-22 11:27:43</time>
      </trkpt>
      <trkpt lat="41.20693" lon="1.07595">
        <ele>476</ele>
        <time>2020-08-22 11:27:44</time>
      </trkpt>
      <trkpt lat="41.2069" lon="1.07595">
        <ele>476</ele>
        <time>2020-08-22 11:27:45</time>
      </trkpt>
      <trkpt lat="41.20688" lon="1.07597">
        <ele>475.2</ele>
        <time>2020-08-22 11:27:46</time>
      </trkpt>
      <trkpt lat="41.20686" lon="1.07599">
        <ele>474.8</ele>
        <time>2020-08-22 11:27:47</time>
      </trkpt>
      <trkpt lat="41.20685" lon="1.07601">
        <ele>473.4</ele>
        <time>2020-08-22 11:27:48</time>
      </trkpt>
      <trkpt lat="41.20685" lon="1.07604">
        <ele>472.6</ele>
        <time>2020-08-22 11:27:49</time>
      </trkpt>
      <trkpt lat="41.20685" lon="1.07607">
        <ele>471.2</ele>
        <time>2020-08-22 11:27:50</time>
      </trkpt>
      <trkpt lat="41.20685" lon="1.0761">
        <ele>470.4</ele>
        <time>2020-08-22 11:27:51</time>
      </trkpt>
      <trkpt lat="41.20685" lon="1.07614">
        <ele>469.8</ele>
        <time>2020-08-22 11:27:52</time>
      </trkpt>
      <trkpt lat="41.20685" lon="1.07618">
        <ele>469.4</ele>
        <time>2020-08-22 11:27:53</time>
      </trkpt>
      <trkpt lat="41.20683" lon="1.0762">
        <ele>468.8</ele>
        <time>2020-08-22 11:27:54</time>
      </trkpt>
      <trkpt lat="41.20682" lon="1.07622">
        <ele>468.4</ele>
        <time>2020-08-22 11:27:55</time>
      </trkpt>
      <trkpt lat="41.2068" lon="1.07623">
        <ele>468.2</ele>
        <time>2020-08-22 11:27:56</time>
      </trkpt>
      <trkpt lat="41.20678" lon="1.07625">
        <ele>468</ele>
        <time>2020-08-22 11:27:57</time>
      </trkpt>
      <trkpt lat="41.20675" lon="1.07624">
        <ele>467.8</ele>
        <time>2020-08-22 11:27:59</time>
      </trkpt>
      <trkpt lat="41.20673" lon="1.07624">
        <ele>467.6</ele>
        <time>2020-08-22 11:28:00</time>
      </trkpt>
      <trkpt lat="41.2067" lon="1.07626">
        <ele>467.2</ele>
        <time>2020-08-22 11:28:01</time>
      </trkpt>
      <trkpt lat="41.20668" lon="1.0763">
        <ele>466.4</ele>
        <time>2020-08-22 11:28:02</time>
      </trkpt>
      <trkpt lat="41.20665" lon="1.07633">
        <ele>465.6</ele>
        <time>2020-08-22 11:28:03</time>
      </trkpt>
      <trkpt lat="41.20662" lon="1.07637">
        <ele>464.4</ele>
        <time>2020-08-22 11:28:04</time>
      </trkpt>
      <trkpt lat="41.20659" lon="1.0764">
        <ele>463.8</ele>
        <time>2020-08-22 11:28:05</time>
      </trkpt>
      <trkpt lat="41.20657" lon="1.07641">
        <ele>463</ele>
        <time>2020-08-22 11:28:06</time>
      </trkpt>
      <trkpt lat="41.20655" lon="1.07642">
        <ele>462.6</ele>
        <time>2020-08-22 11:28:07</time>
      </trkpt>
      <trkpt lat="41.20653" lon="1.07643">
        <ele>462</ele>
        <time>2020-08-22 11:28:08</time>
      </trkpt>
      <trkpt lat="41.20649" lon="1.07643">
        <ele>461.6</ele>
        <time>2020-08-22 11:28:09</time>
      </trkpt>
      <trkpt lat="41.20646" lon="1.07643">
        <ele>461.2</ele>
        <time>2020-08-22 11:28:10</time>
      </trkpt>
      <trkpt lat="41.20642" lon="1.07648">
        <ele>460.8</ele>
        <time>2020-08-22 11:28:11</time>
      </trkpt>
      <trkpt lat="41.20637" lon="1.07655">
        <ele>460.6</ele>
        <time>2020-08-22 11:28:12</time>
      </trkpt>
      <trkpt lat="41.20634" lon="1.07659">
        <ele>460.2</ele>
        <time>2020-08-22 11:28:13</time>
      </trkpt>
      <trkpt lat="41.20631" lon="1.07662">
        <ele>460</ele>
        <time>2020-08-22 11:28:14</time>
      </trkpt>
      <trkpt lat="41.20628" lon="1.07664">
        <ele>459.6</ele>
        <time>2020-08-22 11:28:15</time>
      </trkpt>
      <trkpt lat="41.20625" lon="1.07667">
        <ele>459.6</ele>
        <time>2020-08-22 11:28:16</time>
      </trkpt>
      <trkpt lat="41.2062" lon="1.07673">
        <ele>459</ele>
        <time>2020-08-22 11:28:18</time>
      </trkpt>
      <trkpt lat="41.20618" lon="1.07677">
        <ele>459</ele>
        <time>2020-08-22 11:28:19</time>
      </trkpt>
      <trkpt lat="41.20616" lon="1.07681">
        <ele>458.8</ele>
        <time>2020-08-22 11:28:20</time>
      </trkpt>
      <trkpt lat="41.20614" lon="1.07685">
        <ele>458.8</ele>
        <time>2020-08-22 11:28:21</time>
      </trkpt>
      <trkpt lat="41.20614" lon="1.07685">
        <ele>458.4</ele>
        <time>2020-08-22 11:28:22</time>
      </trkpt>
      <trkpt lat="41.20612" lon="1.07687">
        <ele>458.4</ele>
        <time>2020-08-22 11:28:23</time>
      </trkpt>
      <trkpt lat="41.20611" lon="1.07689">
        <ele>457.8</ele>
        <time>2020-08-22 11:28:24</time>
      </trkpt>
      <trkpt lat="41.20612" lon="1.07691">
        <ele>457</ele>
        <time>2020-08-22 11:28:25</time>
      </trkpt>
      <trkpt lat="41.20613" lon="1.07694">
        <ele>455.6</ele>
        <time>2020-08-22 11:28:26</time>
      </trkpt>
      <trkpt lat="41.20614" lon="1.07697">
        <ele>455.2</ele>
        <time>2020-08-22 11:28:27</time>
      </trkpt>
      <trkpt lat="41.20615" lon="1.07701">
        <ele>454.6</ele>
        <time>2020-08-22 11:28:28</time>
      </trkpt>
      <trkpt lat="41.20615" lon="1.07704">
        <ele>454.4</ele>
        <time>2020-08-22 11:28:29</time>
      </trkpt>
      <trkpt lat="41.20615" lon="1.07707">
        <ele>454.4</ele>
        <time>2020-08-22 11:28:30</time>
      </trkpt>
      <trkpt lat="41.20615" lon="1.07711">
        <ele>454.2</ele>
        <time>2020-08-22 11:28:31</time>
      </trkpt>
      <trkpt lat="41.20616" lon="1.07714">
        <ele>454.2</ele>
        <time>2020-08-22 11:28:32</time>
      </trkpt>
      <trkpt lat="41.20617" lon="1.07717">
        <ele>454.4</ele>
        <time>2020-08-22 11:28:33</time>
      </trkpt>
      <trkpt lat="41.20618" lon="1.0772">
        <ele>454.6</ele>
        <time>2020-08-22 11:28:34</time>
      </trkpt>
      <trkpt lat="41.20617" lon="1.07723">
        <ele>454.8</ele>
        <time>2020-08-22 11:28:35</time>
      </trkpt>
      <trkpt lat="41.20616" lon="1.07725">
        <ele>455.2</ele>
        <time>2020-08-22 11:28:36</time>
      </trkpt>
      <trkpt lat="41.20614" lon="1.07727">
        <ele>455.8</ele>
        <time>2020-08-22 11:28:37</time>
      </trkpt>
      <trkpt lat="41.20612" lon="1.07728">
        <ele>456.2</ele>
        <time>2020-08-22 11:28:38</time>
      </trkpt>
      <trkpt lat="41.2061" lon="1.07728">
        <ele>456.4</ele>
        <time>2020-08-22 11:28:39</time>
      </trkpt>
      <trkpt lat="41.20608" lon="1.07727">
        <ele>457</ele>
        <time>2020-08-22 11:28:40</time>
      </trkpt>
      <trkpt lat="41.20606" lon="1.07726">
        <ele>457</ele>
        <time>2020-08-22 11:28:41</time>
      </trkpt>
      <trkpt lat="41.20604" lon="1.07725">
        <ele>457.4</ele>
        <time>2020-08-22 11:28:42</time>
      </trkpt>
      <trkpt lat="41.20602" lon="1.07723">
        <ele>457.4</ele>
        <time>2020-08-22 11:28:43</time>
      </trkpt>
      <trkpt lat="41.206" lon="1.07722">
        <ele>458</ele>
        <time>2020-08-22 11:28:44</time>
      </trkpt>
      <trkpt lat="41.20597" lon="1.07722">
        <ele>458.2</ele>
        <time>2020-08-22 11:28:45</time>
      </trkpt>
      <trkpt lat="41.20594" lon="1.07721">
        <ele>458.4</ele>
        <time>2020-08-22 11:28:46</time>
      </trkpt>
      <trkpt lat="41.2059" lon="1.07721">
        <ele>458.4</ele>
        <time>2020-08-22 11:28:47</time>
      </trkpt>
      <trkpt lat="41.20587" lon="1.07721">
        <ele>458.4</ele>
        <time>2020-08-22 11:28:48</time>
      </trkpt>
      <trkpt lat="41.20584" lon="1.07721">
        <ele>458.6</ele>
        <time>2020-08-22 11:28:49</time>
      </trkpt>
      <trkpt lat="41.20581" lon="1.07721">
        <ele>458.6</ele>
        <time>2020-08-22 11:28:50</time>
      </trkpt>
      <trkpt lat="41.20578" lon="1.07722">
        <ele>458.8</ele>
        <time>2020-08-22 11:28:51</time>
      </trkpt>
      <trkpt lat="41.20575" lon="1.07722">
        <ele>458.8</ele>
        <time>2020-08-22 11:28:52</time>
      </trkpt>
      <trkpt lat="41.20573" lon="1.07723">
        <ele>459</ele>
        <time>2020-08-22 11:28:53</time>
      </trkpt>
      <trkpt lat="41.20571" lon="1.07724">
        <ele>459</ele>
        <time>2020-08-22 11:28:54</time>
      </trkpt>
      <trkpt lat="41.20569" lon="1.07726">
        <ele>459.2</ele>
        <time>2020-08-22 11:28:55</time>
      </trkpt>
      <trkpt lat="41.20568" lon="1.07727">
        <ele>459.2</ele>
        <time>2020-08-22 11:28:56</time>
      </trkpt>
      <trkpt lat="41.20566" lon="1.07729">
        <ele>459.2</ele>
        <time>2020-08-22 11:28:57</time>
      </trkpt>
      <trkpt lat="41.20564" lon="1.07732">
        <ele>459.2</ele>
        <time>2020-08-22 11:28:58</time>
      </trkpt>
      <trkpt lat="41.20564" lon="1.07736">
        <ele>459.4</ele>
        <time>2020-08-22 11:28:59</time>
      </trkpt>
      <trkpt lat="41.20564" lon="1.07739">
        <ele>459.4</ele>
        <time>2020-08-22 11:29:00</time>
      </trkpt>
      <trkpt lat="41.20563" lon="1.07742">
        <ele>459.4</ele>
        <time>2020-08-22 11:29:01</time>
      </trkpt>
      <trkpt lat="41.20561" lon="1.07744">
        <ele>459.4</ele>
        <time>2020-08-22 11:29:02</time>
      </trkpt>
      <trkpt lat="41.20559" lon="1.07744">
        <ele>459.4</ele>
        <time>2020-08-22 11:29:03</time>
      </trkpt>
      <trkpt lat="41.20556" lon="1.07742">
        <ele>459.4</ele>
        <time>2020-08-22 11:29:04</time>
      </trkpt>
      <trkpt lat="41.20553" lon="1.07741">
        <ele>459.2</ele>
        <time>2020-08-22 11:29:05</time>
      </trkpt>
      <trkpt lat="41.20546" lon="1.07739">
        <ele>459</ele>
        <time>2020-08-22 11:29:07</time>
      </trkpt>
      <trkpt lat="41.20542" lon="1.07738">
        <ele>458.8</ele>
        <time>2020-08-22 11:29:08</time>
      </trkpt>
      <trkpt lat="41.20536" lon="1.07737">
        <ele>458.6</ele>
        <time>2020-08-22 11:29:09</time>
      </trkpt>
      <trkpt lat="41.2053" lon="1.07735">
        <ele>458.6</ele>
        <time>2020-08-22 11:29:10</time>
      </trkpt>
      <trkpt lat="41.20523" lon="1.07735">
        <ele>457.6</ele>
        <time>2020-08-22 11:29:11</time>
      </trkpt>
      <trkpt lat="41.20516" lon="1.07734">
        <ele>456.4</ele>
        <time>2020-08-22 11:29:12</time>
      </trkpt>
      <trkpt lat="41.20508" lon="1.07732">
        <ele>456.2</ele>
        <time>2020-08-22 11:29:13</time>
      </trkpt>
      <trkpt lat="41.20504" lon="1.0773">
        <ele>455.6</ele>
        <time>2020-08-22 11:29:14</time>
      </trkpt>
      <trkpt lat="41.20501" lon="1.07727">
        <ele>455.2</ele>
        <time>2020-08-22 11:29:15</time>
      </trkpt>
      <trkpt lat="41.20499" lon="1.07724">
        <ele>454</ele>
        <time>2020-08-22 11:29:16</time>
      </trkpt>
      <trkpt lat="41.20497" lon="1.07722">
        <ele>453.8</ele>
        <time>2020-08-22 11:29:17</time>
      </trkpt>
      <trkpt lat="41.20494" lon="1.07719">
        <ele>453.4</ele>
        <time>2020-08-22 11:29:18</time>
      </trkpt>
      <trkpt lat="41.20492" lon="1.07717">
        <ele>453</ele>
        <time>2020-08-22 11:29:19</time>
      </trkpt>
      <trkpt lat="41.20489" lon="1.07714">
        <ele>452.4</ele>
        <time>2020-08-22 11:29:20</time>
      </trkpt>
      <trkpt lat="41.20486" lon="1.07712">
        <ele>451</ele>
        <time>2020-08-22 11:29:21</time>
      </trkpt>
      <trkpt lat="41.20484" lon="1.07711">
        <ele>450.4</ele>
        <time>2020-08-22 11:29:22</time>
      </trkpt>
      <trkpt lat="41.20482" lon="1.0771">
        <ele>449.6</ele>
        <time>2020-08-22 11:29:23</time>
      </trkpt>
      <trkpt lat="41.2048" lon="1.07708">
        <ele>449.2</ele>
        <time>2020-08-22 11:29:24</time>
      </trkpt>
      <trkpt lat="41.2048" lon="1.07706">
        <ele>448.6</ele>
        <time>2020-08-22 11:29:25</time>
      </trkpt>
      <trkpt lat="41.20478" lon="1.07703">
        <ele>448.2</ele>
        <time>2020-08-22 11:29:26</time>
      </trkpt>
      <trkpt lat="41.20477" lon="1.07699">
        <ele>447.4</ele>
        <time>2020-08-22 11:29:27</time>
      </trkpt>
      <trkpt lat="41.20476" lon="1.07689">
        <ele>446</ele>
        <time>2020-08-22 11:29:30</time>
      </trkpt>
      <trkpt lat="41.20475" lon="1.07687">
        <ele>445.6</ele>
        <time>2020-08-22 11:29:31</time>
      </trkpt>
      <trkpt lat="41.20474" lon="1.07685">
        <ele>445.2</ele>
        <time>2020-08-22 11:29:32</time>
      </trkpt>
      <trkpt lat="41.20473" lon="1.07682">
        <ele>444.8</ele>
        <time>2020-08-22 11:29:33</time>
      </trkpt>
      <trkpt lat="41.20471" lon="1.0768">
        <ele>443.8</ele>
        <time>2020-08-22 11:29:34</time>
      </trkpt>
      <trkpt lat="41.20469" lon="1.07678">
        <ele>443.2</ele>
        <time>2020-08-22 11:29:35</time>
      </trkpt>
      <trkpt lat="41.20467" lon="1.07678">
        <ele>442.4</ele>
        <time>2020-08-22 11:29:36</time>
      </trkpt>
      <trkpt lat="41.2046" lon="1.07678">
        <ele>441.2</ele>
        <time>2020-08-22 11:29:38</time>
      </trkpt>
      <trkpt lat="41.20456" lon="1.07679">
        <ele>440.6</ele>
        <time>2020-08-22 11:29:39</time>
      </trkpt>
      <trkpt lat="41.20453" lon="1.07679">
        <ele>440.4</ele>
        <time>2020-08-22 11:29:40</time>
      </trkpt>
      <trkpt lat="41.20449" lon="1.07679">
        <ele>439.2</ele>
        <time>2020-08-22 11:29:41</time>
      </trkpt>
      <trkpt lat="41.20445" lon="1.07678">
        <ele>438.6</ele>
        <time>2020-08-22 11:29:42</time>
      </trkpt>
      <trkpt lat="41.20441" lon="1.07677">
        <ele>437.4</ele>
        <time>2020-08-22 11:29:43</time>
      </trkpt>
      <trkpt lat="41.20438" lon="1.07678">
        <ele>437.2</ele>
        <time>2020-08-22 11:29:44</time>
      </trkpt>
      <trkpt lat="41.20435" lon="1.07679">
        <ele>436.6</ele>
        <time>2020-08-22 11:29:45</time>
      </trkpt>
      <trkpt lat="41.20433" lon="1.07681">
        <ele>435.4</ele>
        <time>2020-08-22 11:29:46</time>
      </trkpt>
      <trkpt lat="41.20431" lon="1.07684">
        <ele>434.8</ele>
        <time>2020-08-22 11:29:47</time>
      </trkpt>
      <trkpt lat="41.20429" lon="1.07688">
        <ele>433.8</ele>
        <time>2020-08-22 11:29:48</time>
      </trkpt>
      <trkpt lat="41.20426" lon="1.07696">
        <ele>432.4</ele>
        <time>2020-08-22 11:29:50</time>
      </trkpt>
      <trkpt lat="41.20424" lon="1.07701">
        <ele>431.8</ele>
        <time>2020-08-22 11:29:51</time>
      </trkpt>
      <trkpt lat="41.20421" lon="1.07703">
        <ele>431.2</ele>
        <time>2020-08-22 11:29:52</time>
      </trkpt>
      <trkpt lat="41.20414" lon="1.07707">
        <ele>430</ele>
        <time>2020-08-22 11:29:54</time>
      </trkpt>
      <trkpt lat="41.20411" lon="1.07708">
        <ele>429.4</ele>
        <time>2020-08-22 11:29:55</time>
      </trkpt>
      <trkpt lat="41.20408" lon="1.07709">
        <ele>428.8</ele>
        <time>2020-08-22 11:29:56</time>
      </trkpt>
      <trkpt lat="41.20405" lon="1.07709">
        <ele>427.6</ele>
        <time>2020-08-22 11:29:57</time>
      </trkpt>
      <trkpt lat="41.20402" lon="1.07711">
        <ele>427.2</ele>
        <time>2020-08-22 11:29:58</time>
      </trkpt>
      <trkpt lat="41.20399" lon="1.07713">
        <ele>426.6</ele>
        <time>2020-08-22 11:29:59</time>
      </trkpt>
      <trkpt lat="41.20396" lon="1.07714">
        <ele>426.4</ele>
        <time>2020-08-22 11:30:00</time>
      </trkpt>
      <trkpt lat="41.20392" lon="1.07715">
        <ele>426.2</ele>
        <time>2020-08-22 11:30:01</time>
      </trkpt>
      <trkpt lat="41.20387" lon="1.07716">
        <ele>424.8</ele>
        <time>2020-08-22 11:30:02</time>
      </trkpt>
      <trkpt lat="41.20384" lon="1.07717">
        <ele>424.2</ele>
        <time>2020-08-22 11:30:03</time>
      </trkpt>
      <trkpt lat="41.2038" lon="1.07718">
        <ele>422.8</ele>
        <time>2020-08-22 11:30:04</time>
      </trkpt>
      <trkpt lat="41.20377" lon="1.07718">
        <ele>422</ele>
        <time>2020-08-22 11:30:05</time>
      </trkpt>
      <trkpt lat="41.20373" lon="1.07718">
        <ele>421.2</ele>
        <time>2020-08-22 11:30:06</time>
      </trkpt>
      <trkpt lat="41.20368" lon="1.07717">
        <ele>420.6</ele>
        <time>2020-08-22 11:30:07</time>
      </trkpt>
      <trkpt lat="41.20364" lon="1.07713">
        <ele>419.8</ele>
        <time>2020-08-22 11:30:08</time>
      </trkpt>
      <trkpt lat="41.2036" lon="1.0771">
        <ele>419.4</ele>
        <time>2020-08-22 11:30:09</time>
      </trkpt>
      <trkpt lat="41.20357" lon="1.07707">
        <ele>418.6</ele>
        <time>2020-08-22 11:30:10</time>
      </trkpt>
      <trkpt lat="41.20354" lon="1.07705">
        <ele>416.8</ele>
        <time>2020-08-22 11:30:11</time>
      </trkpt>
      <trkpt lat="41.20349" lon="1.07702">
        <ele>416</ele>
        <time>2020-08-22 11:30:12</time>
      </trkpt>
      <trkpt lat="41.20344" lon="1.07698">
        <ele>414.4</ele>
        <time>2020-08-22 11:30:13</time>
      </trkpt>
      <trkpt lat="41.2034" lon="1.07694">
        <ele>413.6</ele>
        <time>2020-08-22 11:30:14</time>
      </trkpt>
      <trkpt lat="41.20333" lon="1.07689">
        <ele>412.8</ele>
        <time>2020-08-22 11:30:15</time>
      </trkpt>
      <trkpt lat="41.2032" lon="1.07679">
        <ele>411</ele>
        <time>2020-08-22 11:30:17</time>
      </trkpt>
      <trkpt lat="41.20314" lon="1.07672">
        <ele>410.8</ele>
        <time>2020-08-22 11:30:18</time>
      </trkpt>
      <trkpt lat="41.20309" lon="1.07664">
        <ele>409.8</ele>
        <time>2020-08-22 11:30:19</time>
      </trkpt>
      <trkpt lat="41.20305" lon="1.07656">
        <ele>409</ele>
        <time>2020-08-22 11:30:20</time>
      </trkpt>
      <trkpt lat="41.20301" lon="1.07649">
        <ele>408.8</ele>
        <time>2020-08-22 11:30:21</time>
      </trkpt>
      <trkpt lat="41.20297" lon="1.07644">
        <ele>408.4</ele>
        <time>2020-08-22 11:30:22</time>
      </trkpt>
      <trkpt lat="41.20293" lon="1.07638">
        <ele>408</ele>
        <time>2020-08-22 11:30:23</time>
      </trkpt>
      <trkpt lat="41.2029" lon="1.07632">
        <ele>407.8</ele>
        <time>2020-08-22 11:30:24</time>
      </trkpt>
      <trkpt lat="41.20287" lon="1.07626">
        <ele>407.6</ele>
        <time>2020-08-22 11:30:25</time>
      </trkpt>
      <trkpt lat="41.20285" lon="1.0762">
        <ele>407</ele>
        <time>2020-08-22 11:30:26</time>
      </trkpt>
      <trkpt lat="41.2028" lon="1.07615">
        <ele>406.8</ele>
        <time>2020-08-22 11:30:27</time>
      </trkpt>
      <trkpt lat="41.20276" lon="1.0761">
        <ele>405.8</ele>
        <time>2020-08-22 11:30:28</time>
      </trkpt>
      <trkpt lat="41.20272" lon="1.07606">
        <ele>404.4</ele>
        <time>2020-08-22 11:30:29</time>
      </trkpt>
      <trkpt lat="41.20263" lon="1.07597">
        <ele>402.4</ele>
        <time>2020-08-22 11:30:31</time>
      </trkpt>
      <trkpt lat="41.20259" lon="1.07593">
        <ele>401.6</ele>
        <time>2020-08-22 11:30:32</time>
      </trkpt>
      <trkpt lat="41.20256" lon="1.07589">
        <ele>400</ele>
        <time>2020-08-22 11:30:33</time>
      </trkpt>
      <trkpt lat="41.20254" lon="1.07585">
        <ele>399.6</ele>
        <time>2020-08-22 11:30:34</time>
      </trkpt>
      <trkpt lat="41.20252" lon="1.07581">
        <ele>398</ele>
        <time>2020-08-22 11:30:35</time>
      </trkpt>
      <trkpt lat="41.20249" lon="1.07578">
        <ele>397.4</ele>
        <time>2020-08-22 11:30:36</time>
      </trkpt>
      <trkpt lat="41.20246" lon="1.07576">
        <ele>396.4</ele>
        <time>2020-08-22 11:30:37</time>
      </trkpt>
      <trkpt lat="41.20243" lon="1.07574">
        <ele>395</ele>
        <time>2020-08-22 11:30:38</time>
      </trkpt>
      <trkpt lat="41.20239" lon="1.07573">
        <ele>394.2</ele>
        <time>2020-08-22 11:30:39</time>
      </trkpt>
      <trkpt lat="41.20236" lon="1.07573">
        <ele>393</ele>
        <time>2020-08-22 11:30:40</time>
      </trkpt>
      <trkpt lat="41.20234" lon="1.07574">
        <ele>392.4</ele>
        <time>2020-08-22 11:30:41</time>
      </trkpt>
      <trkpt lat="41.20232" lon="1.07576">
        <ele>391.6</ele>
        <time>2020-08-22 11:30:42</time>
      </trkpt>
      <trkpt lat="41.20231" lon="1.07579">
        <ele>391.2</ele>
        <time>2020-08-22 11:30:43</time>
      </trkpt>
      <trkpt lat="41.2023" lon="1.07584">
        <ele>389.8</ele>
        <time>2020-08-22 11:30:44</time>
      </trkpt>
      <trkpt lat="41.20229" lon="1.0759">
        <ele>388.8</ele>
        <time>2020-08-22 11:30:45</time>
      </trkpt>
      <trkpt lat="41.20229" lon="1.07597">
        <ele>388.6</ele>
        <time>2020-08-22 11:30:46</time>
      </trkpt>
      <trkpt lat="41.20229" lon="1.07603">
        <ele>387.8</ele>
        <time>2020-08-22 11:30:47</time>
      </trkpt>
      <trkpt lat="41.20228" lon="1.07608">
        <ele>387.6</ele>
        <time>2020-08-22 11:30:48</time>
      </trkpt>
      <trkpt lat="41.20228" lon="1.07616">
        <ele>387.2</ele>
        <time>2020-08-22 11:30:49</time>
      </trkpt>
      <trkpt lat="41.20228" lon="1.07622">
        <ele>387.2</ele>
        <time>2020-08-22 11:30:50</time>
      </trkpt>
      <trkpt lat="41.20228" lon="1.07631">
        <ele>386.8</ele>
        <time>2020-08-22 11:30:51</time>
      </trkpt>
      <trkpt lat="41.20227" lon="1.07639">
        <ele>386.6</ele>
        <time>2020-08-22 11:30:52</time>
      </trkpt>
      <trkpt lat="41.20226" lon="1.07648">
        <ele>386</ele>
        <time>2020-08-22 11:30:53</time>
      </trkpt>
      <trkpt lat="41.20226" lon="1.07657">
        <ele>384.6</ele>
        <time>2020-08-22 11:30:54</time>
      </trkpt>
      <trkpt lat="41.20225" lon="1.07662">
        <ele>384</ele>
        <time>2020-08-22 11:30:55</time>
      </trkpt>
      <trkpt lat="41.20221" lon="1.07667">
        <ele>382.8</ele>
        <time>2020-08-22 11:30:56</time>
      </trkpt>
      <trkpt lat="41.20217" lon="1.0767">
        <ele>382.4</ele>
        <time>2020-08-22 11:30:57</time>
      </trkpt>
      <trkpt lat="41.20215" lon="1.0767">
        <ele>381</ele>
        <time>2020-08-22 11:30:58</time>
      </trkpt>
      <trkpt lat="41.20211" lon="1.07669">
        <ele>380.2</ele>
        <time>2020-08-22 11:30:59</time>
      </trkpt>
      <trkpt lat="41.20208" lon="1.07667">
        <ele>379</ele>
        <time>2020-08-22 11:31:00</time>
      </trkpt>
      <trkpt lat="41.20203" lon="1.07666">
        <ele>378.6</ele>
        <time>2020-08-22 11:31:01</time>
      </trkpt>
      <trkpt lat="41.20198" lon="1.07664">
        <ele>377.8</ele>
        <time>2020-08-22 11:31:02</time>
      </trkpt>
      <trkpt lat="41.20189" lon="1.07662">
        <ele>377.2</ele>
        <time>2020-08-22 11:31:04</time>
      </trkpt>
      <trkpt lat="41.20185" lon="1.07659">
        <ele>375.4</ele>
        <time>2020-08-22 11:31:05</time>
      </trkpt>
      <trkpt lat="41.2018" lon="1.07656">
        <ele>374.8</ele>
        <time>2020-08-22 11:31:06</time>
      </trkpt>
      <trkpt lat="41.20174" lon="1.07652">
        <ele>374</ele>
        <time>2020-08-22 11:31:07</time>
      </trkpt>
      <trkpt lat="41.20164" lon="1.07645">
        <ele>372.8</ele>
        <time>2020-08-22 11:31:09</time>
      </trkpt>
      <trkpt lat="41.20159" lon="1.07642">
        <ele>371.8</ele>
        <time>2020-08-22 11:31:10</time>
      </trkpt>
      <trkpt lat="41.20154" lon="1.07638">
        <ele>370.2</ele>
        <time>2020-08-22 11:31:11</time>
      </trkpt>
      <trkpt lat="41.2015" lon="1.07636">
        <ele>369.2</ele>
        <time>2020-08-22 11:31:12</time>
      </trkpt>
      <trkpt lat="41.20147" lon="1.07633">
        <ele>368.8</ele>
        <time>2020-08-22 11:31:13</time>
      </trkpt>
      <trkpt lat="41.20145" lon="1.0763">
        <ele>368.2</ele>
        <time>2020-08-22 11:31:14</time>
      </trkpt>
      <trkpt lat="41.20142" lon="1.07625">
        <ele>367.8</ele>
        <time>2020-08-22 11:31:15</time>
      </trkpt>
      <trkpt lat="41.20138" lon="1.07621">
        <ele>367.2</ele>
        <time>2020-08-22 11:31:16</time>
      </trkpt>
      <trkpt lat="41.20132" lon="1.07616">
        <ele>365.8</ele>
        <time>2020-08-22 11:31:18</time>
      </trkpt>
      <trkpt lat="41.20128" lon="1.07614">
        <ele>365.6</ele>
        <time>2020-08-22 11:31:19</time>
      </trkpt>
      <trkpt lat="41.20125" lon="1.07615">
        <ele>364</ele>
        <time>2020-08-22 11:31:20</time>
      </trkpt>
      <trkpt lat="41.20122" lon="1.07616">
        <ele>362.4</ele>
        <time>2020-08-22 11:31:21</time>
      </trkpt>
      <trkpt lat="41.20118" lon="1.07619">
        <ele>362</ele>
        <time>2020-08-22 11:31:22</time>
      </trkpt>
      <trkpt lat="41.20114" lon="1.07618">
        <ele>361</ele>
        <time>2020-08-22 11:31:23</time>
      </trkpt>
      <trkpt lat="41.20112" lon="1.07616">
        <ele>360.6</ele>
        <time>2020-08-22 11:31:24</time>
      </trkpt>
      <trkpt lat="41.2011" lon="1.07614">
        <ele>360</ele>
        <time>2020-08-22 11:31:25</time>
      </trkpt>
      <trkpt lat="41.20109" lon="1.07613">
        <ele>359.4</ele>
        <time>2020-08-22 11:31:26</time>
      </trkpt>
      <trkpt lat="41.20107" lon="1.07612">
        <ele>358.4</ele>
        <time>2020-08-22 11:31:27</time>
      </trkpt>
      <trkpt lat="41.20104" lon="1.07611">
        <ele>357.6</ele>
        <time>2020-08-22 11:31:28</time>
      </trkpt>
      <trkpt lat="41.20101" lon="1.0761">
        <ele>357.2</ele>
        <time>2020-08-22 11:31:29</time>
      </trkpt>
      <trkpt lat="41.20098" lon="1.07607">
        <ele>356.2</ele>
        <time>2020-08-22 11:31:30</time>
      </trkpt>
      <trkpt lat="41.20094" lon="1.07604">
        <ele>356</ele>
        <time>2020-08-22 11:31:31</time>
      </trkpt>
      <trkpt lat="41.20092" lon="1.07604">
        <ele>355.2</ele>
        <time>2020-08-22 11:31:32</time>
      </trkpt>
      <trkpt lat="41.20089" lon="1.07605">
        <ele>354.8</ele>
        <time>2020-08-22 11:31:33</time>
      </trkpt>
      <trkpt lat="41.20087" lon="1.0761">
        <ele>354</ele>
        <time>2020-08-22 11:31:34</time>
      </trkpt>
      <trkpt lat="41.20089" lon="1.07617">
        <ele>353.6</ele>
        <time>2020-08-22 11:31:35</time>
      </trkpt>
      <trkpt lat="41.20092" lon="1.07625">
        <ele>353.2</ele>
        <time>2020-08-22 11:31:36</time>
      </trkpt>
      <trkpt lat="41.20096" lon="1.07631">
        <ele>352.6</ele>
        <time>2020-08-22 11:31:37</time>
      </trkpt>
      <trkpt lat="41.20099" lon="1.07637">
        <ele>352.2</ele>
        <time>2020-08-22 11:31:38</time>
      </trkpt>
      <trkpt lat="41.20101" lon="1.07642">
        <ele>351.6</ele>
        <time>2020-08-22 11:31:39</time>
      </trkpt>
      <trkpt lat="41.20104" lon="1.07647">
        <ele>351.2</ele>
        <time>2020-08-22 11:31:40</time>
      </trkpt>
      <trkpt lat="41.20106" lon="1.07653">
        <ele>350.4</ele>
        <time>2020-08-22 11:31:41</time>
      </trkpt>
      <trkpt lat="41.20108" lon="1.07657">
        <ele>349.8</ele>
        <time>2020-08-22 11:31:42</time>
      </trkpt>
      <trkpt lat="41.20111" lon="1.07662">
        <ele>348.4</ele>
        <time>2020-08-22 11:31:43</time>
      </trkpt>
      <trkpt lat="41.20113" lon="1.07665">
        <ele>348</ele>
        <time>2020-08-22 11:31:44</time>
      </trkpt>
      <trkpt lat="41.20115" lon="1.0767">
        <ele>347.4</ele>
        <time>2020-08-22 11:31:45</time>
      </trkpt>
      <trkpt lat="41.20115" lon="1.07676">
        <ele>346.8</ele>
        <time>2020-08-22 11:31:46</time>
      </trkpt>
      <trkpt lat="41.20114" lon="1.07681">
        <ele>346.6</ele>
        <time>2020-08-22 11:31:47</time>
      </trkpt>
      <trkpt lat="41.20112" lon="1.07686">
        <ele>346</ele>
        <time>2020-08-22 11:31:48</time>
      </trkpt>
      <trkpt lat="41.20109" lon="1.0769">
        <ele>345.6</ele>
        <time>2020-08-22 11:31:49</time>
      </trkpt>
      <trkpt lat="41.20104" lon="1.07692">
        <ele>345</ele>
        <time>2020-08-22 11:31:50</time>
      </trkpt>
      <trkpt lat="41.20099" lon="1.07691">
        <ele>344.8</ele>
        <time>2020-08-22 11:31:51</time>
      </trkpt>
      <trkpt lat="41.20093" lon="1.07689">
        <ele>344</ele>
        <time>2020-08-22 11:31:52</time>
      </trkpt>
      <trkpt lat="41.20087" lon="1.07686">
        <ele>343.6</ele>
        <time>2020-08-22 11:31:53</time>
      </trkpt>
      <trkpt lat="41.20082" lon="1.07682">
        <ele>342.8</ele>
        <time>2020-08-22 11:31:54</time>
      </trkpt>
      <trkpt lat="41.20076" lon="1.07679">
        <ele>342.4</ele>
        <time>2020-08-22 11:31:55</time>
      </trkpt>
      <trkpt lat="41.2007" lon="1.07677">
        <ele>342.2</ele>
        <time>2020-08-22 11:31:56</time>
      </trkpt>
      <trkpt lat="41.20063" lon="1.07675">
        <ele>341.4</ele>
        <time>2020-08-22 11:31:57</time>
      </trkpt>
      <trkpt lat="41.20057" lon="1.07673">
        <ele>341.2</ele>
        <time>2020-08-22 11:31:58</time>
      </trkpt>
      <trkpt lat="41.20052" lon="1.07669">
        <ele>340.8</ele>
        <time>2020-08-22 11:31:59</time>
      </trkpt>
      <trkpt lat="41.20049" lon="1.07664">
        <ele>340.8</ele>
        <time>2020-08-22 11:32:00</time>
      </trkpt>
      <trkpt lat="41.20046" lon="1.07658">
        <ele>340.2</ele>
        <time>2020-08-22 11:32:01</time>
      </trkpt>
      <trkpt lat="41.20042" lon="1.0765">
        <ele>339.4</ele>
        <time>2020-08-22 11:32:02</time>
      </trkpt>
      <trkpt lat="41.20037" lon="1.07641">
        <ele>339.2</ele>
        <time>2020-08-22 11:32:03</time>
      </trkpt>
      <trkpt lat="41.20033" lon="1.07631">
        <ele>339</ele>
        <time>2020-08-22 11:32:04</time>
      </trkpt>
      <trkpt lat="41.20029" lon="1.07622">
        <ele>338.8</ele>
        <time>2020-08-22 11:32:05</time>
      </trkpt>
      <trkpt lat="41.20026" lon="1.07613">
        <ele>338.4</ele>
        <time>2020-08-22 11:32:06</time>
      </trkpt>
      <trkpt lat="41.20022" lon="1.07602">
        <ele>338.2</ele>
        <time>2020-08-22 11:32:07</time>
      </trkpt>
      <trkpt lat="41.20018" lon="1.07592">
        <ele>337.6</ele>
        <time>2020-08-22 11:32:08</time>
      </trkpt>
      <trkpt lat="41.20013" lon="1.07584">
        <ele>337.4</ele>
        <time>2020-08-22 11:32:09</time>
      </trkpt>
      <trkpt lat="41.20009" lon="1.07575">
        <ele>336.6</ele>
        <time>2020-08-22 11:32:10</time>
      </trkpt>
      <trkpt lat="41.20007" lon="1.07566">
        <ele>336.2</ele>
        <time>2020-08-22 11:32:11</time>
      </trkpt>
      <trkpt lat="41.20005" lon="1.07557">
        <ele>335.8</ele>
        <time>2020-08-22 11:32:12</time>
      </trkpt>
      <trkpt lat="41.20005" lon="1.07549">
        <ele>335.4</ele>
        <time>2020-08-22 11:32:13</time>
      </trkpt>
      <trkpt lat="41.20004" lon="1.0754">
        <ele>335</ele>
        <time>2020-08-22 11:32:14</time>
      </trkpt>
      <trkpt lat="41.20003" lon="1.07532">
        <ele>334.2</ele>
        <time>2020-08-22 11:32:15</time>
      </trkpt>
      <trkpt lat="41.20003" lon="1.07526">
        <ele>333.6</ele>
        <time>2020-08-22 11:32:16</time>
      </trkpt>
      <trkpt lat="41.20003" lon="1.07519">
        <ele>332.4</ele>
        <time>2020-08-22 11:32:17</time>
      </trkpt>
      <trkpt lat="41.20001" lon="1.07513">
        <ele>332.2</ele>
        <time>2020-08-22 11:32:18</time>
      </trkpt>
      <trkpt lat="41.19999" lon="1.0751">
        <ele>331.6</ele>
        <time>2020-08-22 11:32:19</time>
      </trkpt>
      <trkpt lat="41.19996" lon="1.07508">
        <ele>331</ele>
        <time>2020-08-22 11:32:20</time>
      </trkpt>
      <trkpt lat="41.19994" lon="1.07507">
        <ele>330.6</ele>
        <time>2020-08-22 11:32:21</time>
      </trkpt>
      <trkpt lat="41.19991" lon="1.07506">
        <ele>330</ele>
        <time>2020-08-22 11:32:22</time>
      </trkpt>
      <trkpt lat="41.19989" lon="1.07504">
        <ele>329.8</ele>
        <time>2020-08-22 11:32:23</time>
      </trkpt>
      <trkpt lat="41.19987" lon="1.07503">
        <ele>329.4</ele>
        <time>2020-08-22 11:32:24</time>
      </trkpt>
      <trkpt lat="41.19982" lon="1.075">
        <ele>328.8</ele>
        <time>2020-08-22 11:32:26</time>
      </trkpt>
      <trkpt lat="41.19973" lon="1.07496">
        <ele>328.4</ele>
        <time>2020-08-22 11:32:29</time>
      </trkpt>
      <trkpt lat="41.19969" lon="1.07495">
        <ele>328.4</ele>
        <time>2020-08-22 11:32:30</time>
      </trkpt>
      <trkpt lat="41.19963" lon="1.07494">
        <ele>328</ele>
        <time>2020-08-22 11:32:32</time>
      </trkpt>
      <trkpt lat="41.19959" lon="1.07493">
        <ele>328</ele>
        <time>2020-08-22 11:32:33</time>
      </trkpt>
      <trkpt lat="41.19955" lon="1.07492">
        <ele>328</ele>
        <time>2020-08-22 11:32:34</time>
      </trkpt>
      <trkpt lat="41.19951" lon="1.0749">
        <ele>327.8</ele>
        <time>2020-08-22 11:32:35</time>
      </trkpt>
      <trkpt lat="41.19946" lon="1.07489">
        <ele>327.6</ele>
        <time>2020-08-22 11:32:36</time>
      </trkpt>
      <trkpt lat="41.19942" lon="1.07489">
        <ele>327.4</ele>
        <time>2020-08-22 11:32:37</time>
      </trkpt>
      <trkpt lat="41.19938" lon="1.07489">
        <ele>327.2</ele>
        <time>2020-08-22 11:32:38</time>
      </trkpt>
      <trkpt lat="41.19929" lon="1.07489">
        <ele>326.8</ele>
        <time>2020-08-22 11:32:40</time>
      </trkpt>
      <trkpt lat="41.19925" lon="1.0749">
        <ele>326.8</ele>
        <time>2020-08-22 11:32:41</time>
      </trkpt>
      <trkpt lat="41.1992" lon="1.0749">
        <ele>326.6</ele>
        <time>2020-08-22 11:32:42</time>
      </trkpt>
      <trkpt lat="41.19915" lon="1.07491">
        <ele>326.6</ele>
        <time>2020-08-22 11:32:43</time>
      </trkpt>
      <trkpt lat="41.1991" lon="1.07492">
        <ele>326.6</ele>
        <time>2020-08-22 11:32:44</time>
      </trkpt>
      <trkpt lat="41.19906" lon="1.07493">
        <ele>326.6</ele>
        <time>2020-08-22 11:32:45</time>
      </trkpt>
      <trkpt lat="41.19897" lon="1.07494">
        <ele>326.4</ele>
        <time>2020-08-22 11:32:47</time>
      </trkpt>
      <trkpt lat="41.19892" lon="1.07494">
        <ele>326.2</ele>
        <time>2020-08-22 11:32:48</time>
      </trkpt>
      <trkpt lat="41.19889" lon="1.07494">
        <ele>326</ele>
        <time>2020-08-22 11:32:49</time>
      </trkpt>
      <trkpt lat="41.19885" lon="1.07494">
        <ele>325.8</ele>
        <time>2020-08-22 11:32:50</time>
      </trkpt>
      <trkpt lat="41.19881" lon="1.07494">
        <ele>325.8</ele>
        <time>2020-08-22 11:32:51</time>
      </trkpt>
      <trkpt lat="41.19876" lon="1.07494">
        <ele>325.6</ele>
        <time>2020-08-22 11:32:52</time>
      </trkpt>
      <trkpt lat="41.19873" lon="1.07495">
        <ele>325.6</ele>
        <time>2020-08-22 11:32:53</time>
      </trkpt>
      <trkpt lat="41.19869" lon="1.07495">
        <ele>325.4</ele>
        <time>2020-08-22 11:32:54</time>
      </trkpt>
      <trkpt lat="41.19864" lon="1.07495">
        <ele>325.4</ele>
        <time>2020-08-22 11:32:55</time>
      </trkpt>
      <trkpt lat="41.19861" lon="1.07495">
        <ele>325.2</ele>
        <time>2020-08-22 11:32:56</time>
      </trkpt>
      <trkpt lat="41.19857" lon="1.07495">
        <ele>325.2</ele>
        <time>2020-08-22 11:32:57</time>
      </trkpt>
      <trkpt lat="41.19853" lon="1.07495">
        <ele>325</ele>
        <time>2020-08-22 11:32:58</time>
      </trkpt>
      <trkpt lat="41.1985" lon="1.07496">
        <ele>325</ele>
        <time>2020-08-22 11:32:59</time>
      </trkpt>
      <trkpt lat="41.19845" lon="1.07496">
        <ele>324.8</ele>
        <time>2020-08-22 11:33:00</time>
      </trkpt>
      <trkpt lat="41.19842" lon="1.07496">
        <ele>324.8</ele>
        <time>2020-08-22 11:33:01</time>
      </trkpt>
      <trkpt lat="41.19838" lon="1.07497">
        <ele>324.6</ele>
        <time>2020-08-22 11:33:02</time>
      </trkpt>
      <trkpt lat="41.19834" lon="1.07498">
        <ele>324.6</ele>
        <time>2020-08-22 11:33:03</time>
      </trkpt>
      <trkpt lat="41.1983" lon="1.07497">
        <ele>324.4</ele>
        <time>2020-08-22 11:33:04</time>
      </trkpt>
      <trkpt lat="41.19826" lon="1.07497">
        <ele>324.2</ele>
        <time>2020-08-22 11:33:05</time>
      </trkpt>
      <trkpt lat="41.19823" lon="1.07498">
        <ele>324</ele>
        <time>2020-08-22 11:33:06</time>
      </trkpt>
      <trkpt lat="41.19819" lon="1.07497">
        <ele>323.8</ele>
        <time>2020-08-22 11:33:07</time>
      </trkpt>
      <trkpt lat="41.19815" lon="1.07495">
        <ele>323.6</ele>
        <time>2020-08-22 11:33:08</time>
      </trkpt>
      <trkpt lat="41.19812" lon="1.07494">
        <ele>323.4</ele>
        <time>2020-08-22 11:33:09</time>
      </trkpt>
      <trkpt lat="41.19808" lon="1.07494">
        <ele>323.4</ele>
        <time>2020-08-22 11:33:10</time>
      </trkpt>
      <trkpt lat="41.19805" lon="1.07494">
        <ele>323.2</ele>
        <time>2020-08-22 11:33:11</time>
      </trkpt>
      <trkpt lat="41.19802" lon="1.07494">
        <ele>323.2</ele>
        <time>2020-08-22 11:33:12</time>
      </trkpt>
      <trkpt lat="41.19798" lon="1.07495">
        <ele>323.2</ele>
        <time>2020-08-22 11:33:13</time>
      </trkpt>
      <trkpt lat="41.19795" lon="1.07497">
        <ele>323</ele>
        <time>2020-08-22 11:33:14</time>
      </trkpt>
      <trkpt lat="41.19792" lon="1.07498">
        <ele>323</ele>
        <time>2020-08-22 11:33:15</time>
      </trkpt>
      <trkpt lat="41.19789" lon="1.07499">
        <ele>323</ele>
        <time>2020-08-22 11:33:16</time>
      </trkpt>
      <trkpt lat="41.19786" lon="1.075">
        <ele>323</ele>
        <time>2020-08-22 11:33:17</time>
      </trkpt>
      <trkpt lat="41.19782" lon="1.075">
        <ele>322.8</ele>
        <time>2020-08-22 11:33:18</time>
      </trkpt>
      <trkpt lat="41.19779" lon="1.07501">
        <ele>322.8</ele>
        <time>2020-08-22 11:33:19</time>
      </trkpt>
      <trkpt lat="41.19775" lon="1.07501">
        <ele>322.8</ele>
        <time>2020-08-22 11:33:20</time>
      </trkpt>
      <trkpt lat="41.19771" lon="1.07502">
        <ele>322.6</ele>
        <time>2020-08-22 11:33:21</time>
      </trkpt>
      <trkpt lat="41.19763" lon="1.07503">
        <ele>322.4</ele>
        <time>2020-08-22 11:33:23</time>
      </trkpt>
      <trkpt lat="41.19756" lon="1.07502">
        <ele>322</ele>
        <time>2020-08-22 11:33:25</time>
      </trkpt>
      <trkpt lat="41.19752" lon="1.07502">
        <ele>321.8</ele>
        <time>2020-08-22 11:33:26</time>
      </trkpt>
      <trkpt lat="41.19747" lon="1.07502">
        <ele>321.2</ele>
        <time>2020-08-22 11:33:27</time>
      </trkpt>
      <trkpt lat="41.19739" lon="1.07502">
        <ele>320.8</ele>
        <time>2020-08-22 11:33:29</time>
      </trkpt>
      <trkpt lat="41.19735" lon="1.07502">
        <ele>320.4</ele>
        <time>2020-08-22 11:33:30</time>
      </trkpt>
      <trkpt lat="41.19731" lon="1.07501">
        <ele>320.2</ele>
        <time>2020-08-22 11:33:31</time>
      </trkpt>
      <trkpt lat="41.19727" lon="1.07501">
        <ele>320</ele>
        <time>2020-08-22 11:33:32</time>
      </trkpt>
      <trkpt lat="41.19723" lon="1.075">
        <ele>320</ele>
        <time>2020-08-22 11:33:33</time>
      </trkpt>
      <trkpt lat="41.19719" lon="1.07501">
        <ele>319.8</ele>
        <time>2020-08-22 11:33:34</time>
      </trkpt>
      <trkpt lat="41.19716" lon="1.07503">
        <ele>319.8</ele>
        <time>2020-08-22 11:33:35</time>
      </trkpt>
      <trkpt lat="41.19713" lon="1.07505">
        <ele>319.6</ele>
        <time>2020-08-22 11:33:36</time>
      </trkpt>
      <trkpt lat="41.19711" lon="1.07509">
        <ele>319.4</ele>
        <time>2020-08-22 11:33:37</time>
      </trkpt>
      <trkpt lat="41.19711" lon="1.07513">
        <ele>319.4</ele>
        <time>2020-08-22 11:33:38</time>
      </trkpt>
      <trkpt lat="41.19711" lon="1.07516">
        <ele>319.4</ele>
        <time>2020-08-22 11:33:39</time>
      </trkpt>
      <trkpt lat="41.1971" lon="1.0752">
        <ele>319.4</ele>
        <time>2020-08-22 11:33:40</time>
      </trkpt>
      <trkpt lat="41.19709" lon="1.07524">
        <ele>319.4</ele>
        <time>2020-08-22 11:33:41</time>
      </trkpt>
      <trkpt lat="41.19707" lon="1.07527">
        <ele>319.4</ele>
        <time>2020-08-22 11:33:42</time>
      </trkpt>
      <trkpt lat="41.19706" lon="1.07532">
        <ele>319.4</ele>
        <time>2020-08-22 11:33:43</time>
      </trkpt>
      <trkpt lat="41.19705" lon="1.07536">
        <ele>319.6</ele>
        <time>2020-08-22 11:33:44</time>
      </trkpt>
      <trkpt lat="41.19704" lon="1.07539">
        <ele>320</ele>
        <time>2020-08-22 11:33:45</time>
      </trkpt>
      <trkpt lat="41.19703" lon="1.07543">
        <ele>320.2</ele>
        <time>2020-08-22 11:33:46</time>
      </trkpt>
      <trkpt lat="41.197" lon="1.0755">
        <ele>320.4</ele>
        <time>2020-08-22 11:33:48</time>
      </trkpt>
      <trkpt lat="41.19699" lon="1.07553">
        <ele>320.6</ele>
        <time>2020-08-22 11:33:49</time>
      </trkpt>
      <trkpt lat="41.19699" lon="1.07557">
        <ele>321</ele>
        <time>2020-08-22 11:33:50</time>
      </trkpt>
      <trkpt lat="41.19699" lon="1.07561">
        <ele>321.2</ele>
        <time>2020-08-22 11:33:51</time>
      </trkpt>
      <trkpt lat="41.19698" lon="1.07564">
        <ele>321.8</ele>
        <time>2020-08-22 11:33:52</time>
      </trkpt>
      <trkpt lat="41.19698" lon="1.07568">
        <ele>322.2</ele>
        <time>2020-08-22 11:33:53</time>
      </trkpt>
      <trkpt lat="41.19697" lon="1.07572">
        <ele>322.6</ele>
        <time>2020-08-22 11:33:54</time>
      </trkpt>
      <trkpt lat="41.19695" lon="1.07575">
        <ele>322.8</ele>
        <time>2020-08-22 11:33:55</time>
      </trkpt>
      <trkpt lat="41.19693" lon="1.07578">
        <ele>322.8</ele>
        <time>2020-08-22 11:33:56</time>
      </trkpt>
      <trkpt lat="41.19691" lon="1.0758">
        <ele>323.2</ele>
        <time>2020-08-22 11:33:57</time>
      </trkpt>
      <trkpt lat="41.19688" lon="1.07582">
        <ele>323.4</ele>
        <time>2020-08-22 11:33:58</time>
      </trkpt>
      <trkpt lat="41.19686" lon="1.07584">
        <ele>323.6</ele>
        <time>2020-08-22 11:33:59</time>
      </trkpt>
      <trkpt lat="41.19683" lon="1.07586">
        <ele>324</ele>
        <time>2020-08-22 11:34:00</time>
      </trkpt>
      <trkpt lat="41.19681" lon="1.07588">
        <ele>324.4</ele>
        <time>2020-08-22 11:34:01</time>
      </trkpt>
      <trkpt lat="41.19679" lon="1.07591">
        <ele>325</ele>
        <time>2020-08-22 11:34:02</time>
      </trkpt>
      <trkpt lat="41.19676" lon="1.07594">
        <ele>325.4</ele>
        <time>2020-08-22 11:34:03</time>
      </trkpt>
      <trkpt lat="41.19673" lon="1.07597">
        <ele>325.8</ele>
        <time>2020-08-22 11:34:04</time>
      </trkpt>
      <trkpt lat="41.19671" lon="1.07599">
        <ele>326</ele>
        <time>2020-08-22 11:34:05</time>
      </trkpt>
      <trkpt lat="41.19668" lon="1.07601">
        <ele>326.2</ele>
        <time>2020-08-22 11:34:06</time>
      </trkpt>
      <trkpt lat="41.19666" lon="1.07602">
        <ele>326.4</ele>
        <time>2020-08-22 11:34:07</time>
      </trkpt>
      <trkpt lat="41.19664" lon="1.07603">
        <ele>326.6</ele>
        <time>2020-08-22 11:34:08</time>
      </trkpt>
      <trkpt lat="41.19662" lon="1.07604">
        <ele>327.2</ele>
        <time>2020-08-22 11:34:09</time>
      </trkpt>
      <trkpt lat="41.19659" lon="1.07604">
        <ele>327.6</ele>
        <time>2020-08-22 11:34:10</time>
      </trkpt>
      <trkpt lat="41.19657" lon="1.07604">
        <ele>328.2</ele>
        <time>2020-08-22 11:34:11</time>
      </trkpt>
      <trkpt lat="41.19654" lon="1.07603">
        <ele>328.4</ele>
        <time>2020-08-22 11:34:12</time>
      </trkpt>
      <trkpt lat="41.19651" lon="1.07601">
        <ele>329.2</ele>
        <time>2020-08-22 11:34:13</time>
      </trkpt>
      <trkpt lat="41.19649" lon="1.076">
        <ele>329.4</ele>
        <time>2020-08-22 11:34:14</time>
      </trkpt>
      <trkpt lat="41.19646" lon="1.07598">
        <ele>329.8</ele>
        <time>2020-08-22 11:34:15</time>
      </trkpt>
      <trkpt lat="41.19643" lon="1.07597">
        <ele>330.2</ele>
        <time>2020-08-22 11:34:16</time>
      </trkpt>
      <trkpt lat="41.1964" lon="1.07595">
        <ele>330.6</ele>
        <time>2020-08-22 11:34:17</time>
      </trkpt>
      <trkpt lat="41.19637" lon="1.07594">
        <ele>330.8</ele>
        <time>2020-08-22 11:34:18</time>
      </trkpt>
      <trkpt lat="41.19634" lon="1.07592">
        <ele>331.4</ele>
        <time>2020-08-22 11:34:19</time>
      </trkpt>
      <trkpt lat="41.19631" lon="1.07591">
        <ele>332</ele>
        <time>2020-08-22 11:34:20</time>
      </trkpt>
      <trkpt lat="41.19628" lon="1.07589">
        <ele>332.4</ele>
        <time>2020-08-22 11:34:21</time>
      </trkpt>
      <trkpt lat="41.19625" lon="1.07589">
        <ele>332.8</ele>
        <time>2020-08-22 11:34:22</time>
      </trkpt>
      <trkpt lat="41.19621" lon="1.07589">
        <ele>333</ele>
        <time>2020-08-22 11:34:23</time>
      </trkpt>
      <trkpt lat="41.19618" lon="1.07589">
        <ele>333</ele>
        <time>2020-08-22 11:34:24</time>
      </trkpt>
      <trkpt lat="41.19615" lon="1.0759">
        <ele>333.2</ele>
        <time>2020-08-22 11:34:25</time>
      </trkpt>
      <trkpt lat="41.19611" lon="1.07592">
        <ele>333.4</ele>
        <time>2020-08-22 11:34:26</time>
      </trkpt>
      <trkpt lat="41.19608" lon="1.07593">
        <ele>333.6</ele>
        <time>2020-08-22 11:34:27</time>
      </trkpt>
      <trkpt lat="41.19604" lon="1.07594">
        <ele>333.6</ele>
        <time>2020-08-22 11:34:28</time>
      </trkpt>
      <trkpt lat="41.19601" lon="1.07595">
        <ele>333.8</ele>
        <time>2020-08-22 11:34:29</time>
      </trkpt>
      <trkpt lat="41.19597" lon="1.07595">
        <ele>334</ele>
        <time>2020-08-22 11:34:30</time>
      </trkpt>
      <trkpt lat="41.19593" lon="1.07595">
        <ele>334.2</ele>
        <time>2020-08-22 11:34:31</time>
      </trkpt>
      <trkpt lat="41.1959" lon="1.07597">
        <ele>334.2</ele>
        <time>2020-08-22 11:34:32</time>
      </trkpt>
      <trkpt lat="41.19587" lon="1.07598">
        <ele>334.4</ele>
        <time>2020-08-22 11:34:33</time>
      </trkpt>
      <trkpt lat="41.19584" lon="1.07599">
        <ele>334.4</ele>
        <time>2020-08-22 11:34:34</time>
      </trkpt>
      <trkpt lat="41.19581" lon="1.076">
        <ele>334.6</ele>
        <time>2020-08-22 11:34:35</time>
      </trkpt>
      <trkpt lat="41.19578" lon="1.07601">
        <ele>334.8</ele>
        <time>2020-08-22 11:34:36</time>
      </trkpt>
      <trkpt lat="41.19574" lon="1.07601">
        <ele>334.8</ele>
        <time>2020-08-22 11:34:37</time>
      </trkpt>
      <trkpt lat="41.19571" lon="1.07601">
        <ele>334.8</ele>
        <time>2020-08-22 11:34:38</time>
      </trkpt>
      <trkpt lat="41.19567" lon="1.07602">
        <ele>334.8</ele>
        <time>2020-08-22 11:34:39</time>
      </trkpt>
      <trkpt lat="41.1956" lon="1.07604">
        <ele>334.8</ele>
        <time>2020-08-22 11:34:41</time>
      </trkpt>
      <trkpt lat="41.19555" lon="1.07606">
        <ele>335</ele>
        <time>2020-08-22 11:34:42</time>
      </trkpt>
      <trkpt lat="41.19551" lon="1.07607">
        <ele>334.8</ele>
        <time>2020-08-22 11:34:43</time>
      </trkpt>
      <trkpt lat="41.19535" lon="1.07612">
        <ele>334.8</ele>
        <time>2020-08-22 11:34:47</time>
      </trkpt>
      <trkpt lat="41.19531" lon="1.07612">
        <ele>335</ele>
        <time>2020-08-22 11:34:48</time>
      </trkpt>
      <trkpt lat="41.19527" lon="1.07612">
        <ele>335</ele>
        <time>2020-08-22 11:34:49</time>
      </trkpt>
      <trkpt lat="41.19523" lon="1.07611">
        <ele>335</ele>
        <time>2020-08-22 11:34:50</time>
      </trkpt>
      <trkpt lat="41.19521" lon="1.07608">
        <ele>335</ele>
        <time>2020-08-22 11:34:51</time>
      </trkpt>
      <trkpt lat="41.19519" lon="1.07606">
        <ele>335.2</ele>
        <time>2020-08-22 11:34:52</time>
      </trkpt>
      <trkpt lat="41.19517" lon="1.07603">
        <ele>335.2</ele>
        <time>2020-08-22 11:34:53</time>
      </trkpt>
      <trkpt lat="41.19514" lon="1.07599">
        <ele>335.4</ele>
        <time>2020-08-22 11:34:54</time>
      </trkpt>
      <trkpt lat="41.19511" lon="1.07594">
        <ele>335.4</ele>
        <time>2020-08-22 11:34:55</time>
      </trkpt>
      <trkpt lat="41.19508" lon="1.0759">
        <ele>335.6</ele>
        <time>2020-08-22 11:34:56</time>
      </trkpt>
      <trkpt lat="41.19505" lon="1.07588">
        <ele>335.6</ele>
        <time>2020-08-22 11:34:57</time>
      </trkpt>
      <trkpt lat="41.19501" lon="1.07585">
        <ele>335.8</ele>
        <time>2020-08-22 11:34:58</time>
      </trkpt>
      <trkpt lat="41.19497" lon="1.07583">
        <ele>336</ele>
        <time>2020-08-22 11:34:59</time>
      </trkpt>
      <trkpt lat="41.19493" lon="1.07582">
        <ele>336</ele>
        <time>2020-08-22 11:35:00</time>
      </trkpt>
      <trkpt lat="41.19488" lon="1.07582">
        <ele>336.2</ele>
        <time>2020-08-22 11:35:01</time>
      </trkpt>
      <trkpt lat="41.19484" lon="1.07583">
        <ele>336.2</ele>
        <time>2020-08-22 11:35:02</time>
      </trkpt>
      <trkpt lat="41.1948" lon="1.07585">
        <ele>336.2</ele>
        <time>2020-08-22 11:35:03</time>
      </trkpt>
      <trkpt lat="41.19475" lon="1.07585">
        <ele>336.2</ele>
        <time>2020-08-22 11:35:04</time>
      </trkpt>
      <trkpt lat="41.19471" lon="1.07583">
        <ele>336.2</ele>
        <time>2020-08-22 11:35:05</time>
      </trkpt>
      <trkpt lat="41.19468" lon="1.0758">
        <ele>336.2</ele>
        <time>2020-08-22 11:35:06</time>
      </trkpt>
      <trkpt lat="41.19466" lon="1.07576">
        <ele>336.2</ele>
        <time>2020-08-22 11:35:07</time>
      </trkpt>
      <trkpt lat="41.19465" lon="1.07571">
        <ele>336.2</ele>
        <time>2020-08-22 11:35:08</time>
      </trkpt>
      <trkpt lat="41.19463" lon="1.07567">
        <ele>336.2</ele>
        <time>2020-08-22 11:35:09</time>
      </trkpt>
      <trkpt lat="41.19463" lon="1.07563">
        <ele>336.2</ele>
        <time>2020-08-22 11:35:10</time>
      </trkpt>
      <trkpt lat="41.19462" lon="1.07559">
        <ele>336.4</ele>
        <time>2020-08-22 11:35:11</time>
      </trkpt>
      <trkpt lat="41.1946" lon="1.07555">
        <ele>336.4</ele>
        <time>2020-08-22 11:35:12</time>
      </trkpt>
      <trkpt lat="41.19458" lon="1.07552">
        <ele>336.4</ele>
        <time>2020-08-22 11:35:13</time>
      </trkpt>
      <trkpt lat="41.19455" lon="1.07548">
        <ele>337</ele>
        <time>2020-08-22 11:35:14</time>
      </trkpt>
      <trkpt lat="41.19452" lon="1.07545">
        <ele>337.4</ele>
        <time>2020-08-22 11:35:15</time>
      </trkpt>
      <trkpt lat="41.19449" lon="1.07542">
        <ele>338.2</ele>
        <time>2020-08-22 11:35:16</time>
      </trkpt>
      <trkpt lat="41.19446" lon="1.07539">
        <ele>338.4</ele>
        <time>2020-08-22 11:35:17</time>
      </trkpt>
      <trkpt lat="41.19443" lon="1.07537">
        <ele>339</ele>
        <time>2020-08-22 11:35:18</time>
      </trkpt>
      <trkpt lat="41.19439" lon="1.07535">
        <ele>339.2</ele>
        <time>2020-08-22 11:35:19</time>
      </trkpt>
      <trkpt lat="41.19435" lon="1.07534">
        <ele>339.4</ele>
        <time>2020-08-22 11:35:20</time>
      </trkpt>
      <trkpt lat="41.19432" lon="1.07533">
        <ele>339.6</ele>
        <time>2020-08-22 11:35:21</time>
      </trkpt>
      <trkpt lat="41.19428" lon="1.07531">
        <ele>339.8</ele>
        <time>2020-08-22 11:35:22</time>
      </trkpt>
      <trkpt lat="41.19424" lon="1.07529">
        <ele>340</ele>
        <time>2020-08-22 11:35:23</time>
      </trkpt>
      <trkpt lat="41.1942" lon="1.07529">
        <ele>340.2</ele>
        <time>2020-08-22 11:35:24</time>
      </trkpt>
      <trkpt lat="41.19417" lon="1.07528">
        <ele>340.8</ele>
        <time>2020-08-22 11:35:25</time>
      </trkpt>
      <trkpt lat="41.19414" lon="1.07528">
        <ele>341</ele>
        <time>2020-08-22 11:35:26</time>
      </trkpt>
      <trkpt lat="41.1941" lon="1.07528">
        <ele>341.4</ele>
        <time>2020-08-22 11:35:27</time>
      </trkpt>
      <trkpt lat="41.19407" lon="1.07528">
        <ele>342</ele>
        <time>2020-08-22 11:35:28</time>
      </trkpt>
      <trkpt lat="41.19405" lon="1.07527">
        <ele>342.2</ele>
        <time>2020-08-22 11:35:29</time>
      </trkpt>
      <trkpt lat="41.19402" lon="1.07525">
        <ele>342.6</ele>
        <time>2020-08-22 11:35:30</time>
      </trkpt>
      <trkpt lat="41.19401" lon="1.07523">
        <ele>342.6</ele>
        <time>2020-08-22 11:35:31</time>
      </trkpt>
      <trkpt lat="41.194" lon="1.0752">
        <ele>343.2</ele>
        <time>2020-08-22 11:35:32</time>
      </trkpt>
      <trkpt lat="41.19399" lon="1.07516">
        <ele>343.8</ele>
        <time>2020-08-22 11:35:33</time>
      </trkpt>
      <trkpt lat="41.19399" lon="1.07512">
        <ele>344.8</ele>
        <time>2020-08-22 11:35:34</time>
      </trkpt>
      <trkpt lat="41.19398" lon="1.07508">
        <ele>345.2</ele>
        <time>2020-08-22 11:35:35</time>
      </trkpt>
      <trkpt lat="41.19396" lon="1.07505">
        <ele>346.2</ele>
        <time>2020-08-22 11:35:36</time>
      </trkpt>
      <trkpt lat="41.19394" lon="1.07502">
        <ele>347</ele>
        <time>2020-08-22 11:35:37</time>
      </trkpt>
      <trkpt lat="41.1939" lon="1.07499">
        <ele>347.2</ele>
        <time>2020-08-22 11:35:38</time>
      </trkpt>
      <trkpt lat="41.19387" lon="1.07497">
        <ele>347.2</ele>
        <time>2020-08-22 11:35:39</time>
      </trkpt>
      <trkpt lat="41.19384" lon="1.07495">
        <ele>347.4</ele>
        <time>2020-08-22 11:35:40</time>
      </trkpt>
      <trkpt lat="41.19381" lon="1.07493">
        <ele>347.4</ele>
        <time>2020-08-22 11:35:41</time>
      </trkpt>
      <trkpt lat="41.19378" lon="1.07491">
        <ele>347.6</ele>
        <time>2020-08-22 11:35:42</time>
      </trkpt>
      <trkpt lat="41.19375" lon="1.0749">
        <ele>347.6</ele>
        <time>2020-08-22 11:35:43</time>
      </trkpt>
      <trkpt lat="41.19372" lon="1.07489">
        <ele>347.6</ele>
        <time>2020-08-22 11:35:44</time>
      </trkpt>
      <trkpt lat="41.19369" lon="1.07489">
        <ele>347.8</ele>
        <time>2020-08-22 11:35:45</time>
      </trkpt>
      <trkpt lat="41.19366" lon="1.0749">
        <ele>348</ele>
        <time>2020-08-22 11:35:46</time>
      </trkpt>
      <trkpt lat="41.19363" lon="1.07491">
        <ele>348</ele>
        <time>2020-08-22 11:35:47</time>
      </trkpt>
      <trkpt lat="41.19361" lon="1.07493">
        <ele>348.2</ele>
        <time>2020-08-22 11:35:48</time>
      </trkpt>
      <trkpt lat="41.19358" lon="1.07495">
        <ele>348.4</ele>
        <time>2020-08-22 11:35:49</time>
      </trkpt>
      <trkpt lat="41.19356" lon="1.07498">
        <ele>348.8</ele>
        <time>2020-08-22 11:35:50</time>
      </trkpt>
      <trkpt lat="41.19353" lon="1.07502">
        <ele>349</ele>
        <time>2020-08-22 11:35:51</time>
      </trkpt>
      <trkpt lat="41.19351" lon="1.07506">
        <ele>349.4</ele>
        <time>2020-08-22 11:35:52</time>
      </trkpt>
      <trkpt lat="41.19349" lon="1.07509">
        <ele>349.8</ele>
        <time>2020-08-22 11:35:53</time>
      </trkpt>
      <trkpt lat="41.19348" lon="1.07512">
        <ele>349.8</ele>
        <time>2020-08-22 11:35:54</time>
      </trkpt>
      <trkpt lat="41.19345" lon="1.07517">
        <ele>350</ele>
        <time>2020-08-22 11:35:55</time>
      </trkpt>
      <trkpt lat="41.19343" lon="1.07521">
        <ele>350</ele>
        <time>2020-08-22 11:35:56</time>
      </trkpt>
      <trkpt lat="41.19341" lon="1.07524">
        <ele>350.2</ele>
        <time>2020-08-22 11:35:57</time>
      </trkpt>
      <trkpt lat="41.19339" lon="1.07527">
        <ele>350.2</ele>
        <time>2020-08-22 11:35:58</time>
      </trkpt>
      <trkpt lat="41.19336" lon="1.07529">
        <ele>350.2</ele>
        <time>2020-08-22 11:35:59</time>
      </trkpt>
      <trkpt lat="41.19333" lon="1.07531">
        <ele>350.2</ele>
        <time>2020-08-22 11:36:00</time>
      </trkpt>
      <trkpt lat="41.1933" lon="1.07534">
        <ele>350.2</ele>
        <time>2020-08-22 11:36:01</time>
      </trkpt>
      <trkpt lat="41.19327" lon="1.07538">
        <ele>350.4</ele>
        <time>2020-08-22 11:36:02</time>
      </trkpt>
      <trkpt lat="41.19324" lon="1.07541">
        <ele>350.4</ele>
        <time>2020-08-22 11:36:03</time>
      </trkpt>
      <trkpt lat="41.19321" lon="1.07545">
        <ele>350.4</ele>
        <time>2020-08-22 11:36:04</time>
      </trkpt>
      <trkpt lat="41.19318" lon="1.07549">
        <ele>350.4</ele>
        <time>2020-08-22 11:36:05</time>
      </trkpt>
      <trkpt lat="41.19314" lon="1.07553">
        <ele>350.2</ele>
        <time>2020-08-22 11:36:06</time>
      </trkpt>
      <trkpt lat="41.19311" lon="1.07558">
        <ele>350.2</ele>
        <time>2020-08-22 11:36:07</time>
      </trkpt>
      <trkpt lat="41.19301" lon="1.07587">
        <ele>349.6</ele>
        <time>2020-08-22 11:36:11</time>
      </trkpt>
      <trkpt lat="41.19298" lon="1.07596">
        <ele>349.4</ele>
        <time>2020-08-22 11:36:12</time>
      </trkpt>
      <trkpt lat="41.1929" lon="1.07616">
        <ele>348.6</ele>
        <time>2020-08-22 11:36:14</time>
      </trkpt>
      <trkpt lat="41.19285" lon="1.07625">
        <ele>347.6</ele>
        <time>2020-08-22 11:36:15</time>
      </trkpt>
      <trkpt lat="41.1928" lon="1.07633">
        <ele>347.2</ele>
        <time>2020-08-22 11:36:16</time>
      </trkpt>
      <trkpt lat="41.19275" lon="1.07642">
        <ele>346.8</ele>
        <time>2020-08-22 11:36:17</time>
      </trkpt>
      <trkpt lat="41.19271" lon="1.07651">
        <ele>346.6</ele>
        <time>2020-08-22 11:36:18</time>
      </trkpt>
      <trkpt lat="41.1926" lon="1.07679">
        <ele>346</ele>
        <time>2020-08-22 11:36:21</time>
      </trkpt>
      <trkpt lat="41.19254" lon="1.07687">
        <ele>345.8</ele>
        <time>2020-08-22 11:36:22</time>
      </trkpt>
      <trkpt lat="41.19249" lon="1.07693">
        <ele>345.8</ele>
        <time>2020-08-22 11:36:23</time>
      </trkpt>
      <trkpt lat="41.19243" lon="1.07699">
        <ele>345.8</ele>
        <time>2020-08-22 11:36:24</time>
      </trkpt>
      <trkpt lat="41.19239" lon="1.07706">
        <ele>345.8</ele>
        <time>2020-08-22 11:36:25</time>
      </trkpt>
      <trkpt lat="41.19236" lon="1.07713">
        <ele>346</ele>
        <time>2020-08-22 11:36:26</time>
      </trkpt>
      <trkpt lat="41.19233" lon="1.07721">
        <ele>346</ele>
        <time>2020-08-22 11:36:27</time>
      </trkpt>
      <trkpt lat="41.1922" lon="1.07766">
        <ele>345.6</ele>
        <time>2020-08-22 11:36:32</time>
      </trkpt>
      <trkpt lat="41.19217" lon="1.07776">
        <ele>345.4</ele>
        <time>2020-08-22 11:36:33</time>
      </trkpt>
      <trkpt lat="41.19213" lon="1.07786">
        <ele>345.4</ele>
        <time>2020-08-22 11:36:34</time>
      </trkpt>
      <trkpt lat="41.19203" lon="1.07803">
        <ele>345</ele>
        <time>2020-08-22 11:36:36</time>
      </trkpt>
      <trkpt lat="41.19199" lon="1.07812">
        <ele>344.2</ele>
        <time>2020-08-22 11:36:37</time>
      </trkpt>
      <trkpt lat="41.19195" lon="1.07821">
        <ele>343.8</ele>
        <time>2020-08-22 11:36:38</time>
      </trkpt>
      <trkpt lat="41.1919" lon="1.0783">
        <ele>343.6</ele>
        <time>2020-08-22 11:36:39</time>
      </trkpt>
      <trkpt lat="41.19186" lon="1.07839">
        <ele>343.2</ele>
        <time>2020-08-22 11:36:40</time>
      </trkpt>
      <trkpt lat="41.19182" lon="1.07846">
        <ele>343.2</ele>
        <time>2020-08-22 11:36:41</time>
      </trkpt>
      <trkpt lat="41.19178" lon="1.07854">
        <ele>343</ele>
        <time>2020-08-22 11:36:42</time>
      </trkpt>
      <trkpt lat="41.19175" lon="1.07862">
        <ele>343</ele>
        <time>2020-08-22 11:36:43</time>
      </trkpt>
      <trkpt lat="41.19173" lon="1.0787">
        <ele>342.8</ele>
        <time>2020-08-22 11:36:44</time>
      </trkpt>
      <trkpt lat="41.19171" lon="1.07879">
        <ele>342.8</ele>
        <time>2020-08-22 11:36:45</time>
      </trkpt>
      <trkpt lat="41.19169" lon="1.07888">
        <ele>342.8</ele>
        <time>2020-08-22 11:36:46</time>
      </trkpt>
      <trkpt lat="41.19169" lon="1.07897">
        <ele>342.8</ele>
        <time>2020-08-22 11:36:47</time>
      </trkpt>
      <trkpt lat="41.19169" lon="1.07905">
        <ele>342.8</ele>
        <time>2020-08-22 11:36:48</time>
      </trkpt>
      <trkpt lat="41.19168" lon="1.07914">
        <ele>342.8</ele>
        <time>2020-08-22 11:36:49</time>
      </trkpt>
      <trkpt lat="41.19168" lon="1.07922">
        <ele>342.8</ele>
        <time>2020-08-22 11:36:50</time>
      </trkpt>
      <trkpt lat="41.19167" lon="1.07931">
        <ele>342.8</ele>
        <time>2020-08-22 11:36:51</time>
      </trkpt>
      <trkpt lat="41.19166" lon="1.07939">
        <ele>342.8</ele>
        <time>2020-08-22 11:36:52</time>
      </trkpt>
      <trkpt lat="41.19165" lon="1.07948">
        <ele>343</ele>
        <time>2020-08-22 11:36:53</time>
      </trkpt>
      <trkpt lat="41.19163" lon="1.07956">
        <ele>343.2</ele>
        <time>2020-08-22 11:36:54</time>
      </trkpt>
      <trkpt lat="41.19163" lon="1.07963">
        <ele>343.4</ele>
        <time>2020-08-22 11:36:55</time>
      </trkpt>
      <trkpt lat="41.19162" lon="1.07971">
        <ele>343.6</ele>
        <time>2020-08-22 11:36:56</time>
      </trkpt>
      <trkpt lat="41.19161" lon="1.07978">
        <ele>343.8</ele>
        <time>2020-08-22 11:36:57</time>
      </trkpt>
      <trkpt lat="41.19161" lon="1.07983">
        <ele>344</ele>
        <time>2020-08-22 11:36:58</time>
      </trkpt>
      <trkpt lat="41.1916" lon="1.07988">
        <ele>344.4</ele>
        <time>2020-08-22 11:36:59</time>
      </trkpt>
      <trkpt lat="41.19159" lon="1.07992">
        <ele>344.6</ele>
        <time>2020-08-22 11:37:00</time>
      </trkpt>
      <trkpt lat="41.19157" lon="1.07995">
        <ele>344.8</ele>
        <time>2020-08-22 11:37:01</time>
      </trkpt>
      <trkpt lat="41.19155" lon="1.07997">
        <ele>344.8</ele>
        <time>2020-08-22 11:37:02</time>
      </trkpt>
      <trkpt lat="41.19151" lon="1.07999">
        <ele>344.8</ele>
        <time>2020-08-22 11:37:03</time>
      </trkpt>
      <trkpt lat="41.19146" lon="1.07999">
        <ele>344.8</ele>
        <time>2020-08-22 11:37:04</time>
      </trkpt>
      <trkpt lat="41.19141" lon="1.08">
        <ele>345</ele>
        <time>2020-08-22 11:37:05</time>
      </trkpt>
      <trkpt lat="41.19135" lon="1.08001">
        <ele>345</ele>
        <time>2020-08-22 11:37:06</time>
      </trkpt>
      <trkpt lat="41.1913" lon="1.08002">
        <ele>344.8</ele>
        <time>2020-08-22 11:37:07</time>
      </trkpt>
      <trkpt lat="41.19125" lon="1.08004">
        <ele>344.8</ele>
        <time>2020-08-22 11:37:08</time>
      </trkpt>
      <trkpt lat="41.19119" lon="1.08007">
        <ele>344.6</ele>
        <time>2020-08-22 11:37:09</time>
      </trkpt>
      <trkpt lat="41.19114" lon="1.08011">
        <ele>344.6</ele>
        <time>2020-08-22 11:37:10</time>
      </trkpt>
      <trkpt lat="41.1911" lon="1.08015">
        <ele>344.4</ele>
        <time>2020-08-22 11:37:11</time>
      </trkpt>
      <trkpt lat="41.19106" lon="1.08021">
        <ele>344.2</ele>
        <time>2020-08-22 11:37:12</time>
      </trkpt>
      <trkpt lat="41.19104" lon="1.08028">
        <ele>344.2</ele>
        <time>2020-08-22 11:37:13</time>
      </trkpt>
      <trkpt lat="41.19103" lon="1.08035">
        <ele>344</ele>
        <time>2020-08-22 11:37:14</time>
      </trkpt>
      <trkpt lat="41.19097" lon="1.08073">
        <ele>344</ele>
        <time>2020-08-22 11:37:19</time>
      </trkpt>
      <trkpt lat="41.19091" lon="1.08111">
        <ele>344.4</ele>
        <time>2020-08-22 11:37:24</time>
      </trkpt>
      <trkpt lat="41.1909" lon="1.08118">
        <ele>344.8</ele>
        <time>2020-08-22 11:37:25</time>
      </trkpt>
      <trkpt lat="41.19089" lon="1.08132">
        <ele>345.2</ele>
        <time>2020-08-22 11:37:27</time>
      </trkpt>
      <trkpt lat="41.19088" lon="1.08139">
        <ele>345.4</ele>
        <time>2020-08-22 11:37:28</time>
      </trkpt>
      <trkpt lat="41.19087" lon="1.08146">
        <ele>345.6</ele>
        <time>2020-08-22 11:37:29</time>
      </trkpt>
      <trkpt lat="41.19086" lon="1.08153">
        <ele>346</ele>
        <time>2020-08-22 11:37:30</time>
      </trkpt>
      <trkpt lat="41.19085" lon="1.08161">
        <ele>346.2</ele>
        <time>2020-08-22 11:37:31</time>
      </trkpt>
      <trkpt lat="41.19085" lon="1.08167">
        <ele>346.8</ele>
        <time>2020-08-22 11:37:32</time>
      </trkpt>
      <trkpt lat="41.19084" lon="1.08174">
        <ele>346.8</ele>
        <time>2020-08-22 11:37:33</time>
      </trkpt>
      <trkpt lat="41.19082" lon="1.0818">
        <ele>347.4</ele>
        <time>2020-08-22 11:37:34</time>
      </trkpt>
      <trkpt lat="41.1908" lon="1.08185">
        <ele>347.6</ele>
        <time>2020-08-22 11:37:35</time>
      </trkpt>
      <trkpt lat="41.19077" lon="1.08191">
        <ele>347.6</ele>
        <time>2020-08-22 11:37:36</time>
      </trkpt>
      <trkpt lat="41.19073" lon="1.08198">
        <ele>347.8</ele>
        <time>2020-08-22 11:37:37</time>
      </trkpt>
      <trkpt lat="41.19069" lon="1.08205">
        <ele>347.8</ele>
        <time>2020-08-22 11:37:38</time>
      </trkpt>
      <trkpt lat="41.19065" lon="1.08213">
        <ele>347.8</ele>
        <time>2020-08-22 11:37:39</time>
      </trkpt>
      <trkpt lat="41.1906" lon="1.08221">
        <ele>347.6</ele>
        <time>2020-08-22 11:37:40</time>
      </trkpt>
      <trkpt lat="41.19043" lon="1.08247">
        <ele>346.6</ele>
        <time>2020-08-22 11:37:43</time>
      </trkpt>
      <trkpt lat="41.19039" lon="1.08255">
        <ele>346.6</ele>
        <time>2020-08-22 11:37:44</time>
      </trkpt>
      <trkpt lat="41.19036" lon="1.08264">
        <ele>345.8</ele>
        <time>2020-08-22 11:37:45</time>
      </trkpt>
      <trkpt lat="41.19034" lon="1.08274">
        <ele>345.2</ele>
        <time>2020-08-22 11:37:46</time>
      </trkpt>
      <trkpt lat="41.19033" lon="1.08285">
        <ele>344.8</ele>
        <time>2020-08-22 11:37:47</time>
      </trkpt>
      <trkpt lat="41.19033" lon="1.08295">
        <ele>344</ele>
        <time>2020-08-22 11:37:48</time>
      </trkpt>
      <trkpt lat="41.19032" lon="1.08315">
        <ele>342</ele>
        <time>2020-08-22 11:37:50</time>
      </trkpt>
      <trkpt lat="41.1903" lon="1.08323">
        <ele>341.6</ele>
        <time>2020-08-22 11:37:51</time>
      </trkpt>
      <trkpt lat="41.19027" lon="1.08331">
        <ele>341</ele>
        <time>2020-08-22 11:37:52</time>
      </trkpt>
      <trkpt lat="41.19024" lon="1.08338">
        <ele>340.6</ele>
        <time>2020-08-22 11:37:53</time>
      </trkpt>
      <trkpt lat="41.19022" lon="1.08346">
        <ele>339.8</ele>
        <time>2020-08-22 11:37:54</time>
      </trkpt>
      <trkpt lat="41.1902" lon="1.08353">
        <ele>339.6</ele>
        <time>2020-08-22 11:37:55</time>
      </trkpt>
      <trkpt lat="41.19018" lon="1.08361">
        <ele>339.4</ele>
        <time>2020-08-22 11:37:56</time>
      </trkpt>
      <trkpt lat="41.19012" lon="1.08377">
        <ele>339</ele>
        <time>2020-08-22 11:37:58</time>
      </trkpt>
      <trkpt lat="41.19008" lon="1.08387">
        <ele>338</ele>
        <time>2020-08-22 11:37:59</time>
      </trkpt>
      <trkpt lat="41.19001" lon="1.08406">
        <ele>336.2</ele>
        <time>2020-08-22 11:38:01</time>
      </trkpt>
      <trkpt lat="41.18996" lon="1.08427">
        <ele>334.6</ele>
        <time>2020-08-22 11:38:03</time>
      </trkpt>
      <trkpt lat="41.18992" lon="1.08437">
        <ele>333.2</ele>
        <time>2020-08-22 11:38:04</time>
      </trkpt>
      <trkpt lat="41.18988" lon="1.08446">
        <ele>332.6</ele>
        <time>2020-08-22 11:38:05</time>
      </trkpt>
      <trkpt lat="41.18982" lon="1.08455">
        <ele>331</ele>
        <time>2020-08-22 11:38:06</time>
      </trkpt>
      <trkpt lat="41.18977" lon="1.08465">
        <ele>330.6</ele>
        <time>2020-08-22 11:38:07</time>
      </trkpt>
      <trkpt lat="41.18972" lon="1.08474">
        <ele>329.2</ele>
        <time>2020-08-22 11:38:08</time>
      </trkpt>
      <trkpt lat="41.18967" lon="1.08481">
        <ele>328.6</ele>
        <time>2020-08-22 11:38:09</time>
      </trkpt>
      <trkpt lat="41.18962" lon="1.08485">
        <ele>327.6</ele>
        <time>2020-08-22 11:38:10</time>
      </trkpt>
      <trkpt lat="41.18956" lon="1.08489">
        <ele>326.4</ele>
        <time>2020-08-22 11:38:11</time>
      </trkpt>
      <trkpt lat="41.18949" lon="1.08493">
        <ele>325.4</ele>
        <time>2020-08-22 11:38:12</time>
      </trkpt>
      <trkpt lat="41.18943" lon="1.08496">
        <ele>324.2</ele>
        <time>2020-08-22 11:38:13</time>
      </trkpt>
      <trkpt lat="41.18935" lon="1.08498">
        <ele>323.2</ele>
        <time>2020-08-22 11:38:14</time>
      </trkpt>
      <trkpt lat="41.18928" lon="1.085">
        <ele>322.4</ele>
        <time>2020-08-22 11:38:15</time>
      </trkpt>
      <trkpt lat="41.18921" lon="1.085">
        <ele>321.8</ele>
        <time>2020-08-22 11:38:16</time>
      </trkpt>
      <trkpt lat="41.18914" lon="1.08501">
        <ele>321</ele>
        <time>2020-08-22 11:38:17</time>
      </trkpt>
      <trkpt lat="41.18906" lon="1.08501">
        <ele>320.4</ele>
        <time>2020-08-22 11:38:18</time>
      </trkpt>
      <trkpt lat="41.18899" lon="1.08501">
        <ele>319.4</ele>
        <time>2020-08-22 11:38:19</time>
      </trkpt>
      <trkpt lat="41.18893" lon="1.08499">
        <ele>318.8</ele>
        <time>2020-08-22 11:38:20</time>
      </trkpt>
      <trkpt lat="41.18888" lon="1.08497">
        <ele>318</ele>
        <time>2020-08-22 11:38:21</time>
      </trkpt>
      <trkpt lat="41.18882" lon="1.08497">
        <ele>317</ele>
        <time>2020-08-22 11:38:22</time>
      </trkpt>
      <trkpt lat="41.18876" lon="1.08497">
        <ele>316.2</ele>
        <time>2020-08-22 11:38:23</time>
      </trkpt>
      <trkpt lat="41.1887" lon="1.08495">
        <ele>315.2</ele>
        <time>2020-08-22 11:38:24</time>
      </trkpt>
      <trkpt lat="41.18864" lon="1.08492">
        <ele>314.8</ele>
        <time>2020-08-22 11:38:25</time>
      </trkpt>
      <trkpt lat="41.18858" lon="1.0849">
        <ele>314.4</ele>
        <time>2020-08-22 11:38:26</time>
      </trkpt>
      <trkpt lat="41.18852" lon="1.0849">
        <ele>314.4</ele>
        <time>2020-08-22 11:38:27</time>
      </trkpt>
      <trkpt lat="41.18845" lon="1.08492">
        <ele>314</ele>
        <time>2020-08-22 11:38:28</time>
      </trkpt>
      <trkpt lat="41.18822" lon="1.08506">
        <ele>312.6</ele>
        <time>2020-08-22 11:38:31</time>
      </trkpt>
      <trkpt lat="41.18814" lon="1.08512">
        <ele>312.2</ele>
        <time>2020-08-22 11:38:32</time>
      </trkpt>
      <trkpt lat="41.18805" lon="1.08518">
        <ele>311.6</ele>
        <time>2020-08-22 11:38:33</time>
      </trkpt>
      <trkpt lat="41.18796" lon="1.08523">
        <ele>311.2</ele>
        <time>2020-08-22 11:38:34</time>
      </trkpt>
      <trkpt lat="41.18788" lon="1.08528">
        <ele>309.8</ele>
        <time>2020-08-22 11:38:35</time>
      </trkpt>
      <trkpt lat="41.18782" lon="1.08532">
        <ele>308.8</ele>
        <time>2020-08-22 11:38:36</time>
      </trkpt>
      <trkpt lat="41.18779" lon="1.08537">
        <ele>308.4</ele>
        <time>2020-08-22 11:38:37</time>
      </trkpt>
      <trkpt lat="41.18777" lon="1.08543">
        <ele>307.2</ele>
        <time>2020-08-22 11:38:38</time>
      </trkpt>
      <trkpt lat="41.18776" lon="1.0855">
        <ele>306.4</ele>
        <time>2020-08-22 11:38:39</time>
      </trkpt>
      <trkpt lat="41.18773" lon="1.08559">
        <ele>305</ele>
        <time>2020-08-22 11:38:40</time>
      </trkpt>
      <trkpt lat="41.18769" lon="1.08566">
        <ele>304.4</ele>
        <time>2020-08-22 11:38:41</time>
      </trkpt>
      <trkpt lat="41.18763" lon="1.08573">
        <ele>303.2</ele>
        <time>2020-08-22 11:38:42</time>
      </trkpt>
      <trkpt lat="41.18751" lon="1.08584">
        <ele>301.8</ele>
        <time>2020-08-22 11:38:44</time>
      </trkpt>
      <trkpt lat="41.18746" lon="1.08589">
        <ele>300</ele>
        <time>2020-08-22 11:38:45</time>
      </trkpt>
      <trkpt lat="41.18741" lon="1.08595">
        <ele>299.4</ele>
        <time>2020-08-22 11:38:46</time>
      </trkpt>
      <trkpt lat="41.18735" lon="1.086">
        <ele>298.2</ele>
        <time>2020-08-22 11:38:47</time>
      </trkpt>
      <trkpt lat="41.18728" lon="1.08604">
        <ele>297.6</ele>
        <time>2020-08-22 11:38:48</time>
      </trkpt>
      <trkpt lat="41.1872" lon="1.08609">
        <ele>296.6</ele>
        <time>2020-08-22 11:38:49</time>
      </trkpt>
      <trkpt lat="41.18712" lon="1.08613">
        <ele>296</ele>
        <time>2020-08-22 11:38:50</time>
      </trkpt>
      <trkpt lat="41.18704" lon="1.08617">
        <ele>295.4</ele>
        <time>2020-08-22 11:38:51</time>
      </trkpt>
      <trkpt lat="41.18695" lon="1.08621">
        <ele>295</ele>
        <time>2020-08-22 11:38:52</time>
      </trkpt>
      <trkpt lat="41.18687" lon="1.08626">
        <ele>294.4</ele>
        <time>2020-08-22 11:38:53</time>
      </trkpt>
      <trkpt lat="41.18669" lon="1.08636">
        <ele>293.2</ele>
        <time>2020-08-22 11:38:55</time>
      </trkpt>
      <trkpt lat="41.18662" lon="1.08642">
        <ele>291.8</ele>
        <time>2020-08-22 11:38:56</time>
      </trkpt>
      <trkpt lat="41.18657" lon="1.0865">
        <ele>291</ele>
        <time>2020-08-22 11:38:57</time>
      </trkpt>
      <trkpt lat="41.18652" lon="1.08658">
        <ele>290</ele>
        <time>2020-08-22 11:38:58</time>
      </trkpt>
      <trkpt lat="41.18647" lon="1.08665">
        <ele>289.4</ele>
        <time>2020-08-22 11:38:59</time>
      </trkpt>
      <trkpt lat="41.18644" lon="1.08674">
        <ele>288.4</ele>
        <time>2020-08-22 11:39:00</time>
      </trkpt>
      <trkpt lat="41.18642" lon="1.08684">
        <ele>288.2</ele>
        <time>2020-08-22 11:39:01</time>
      </trkpt>
      <trkpt lat="41.18639" lon="1.08706">
        <ele>286.8</ele>
        <time>2020-08-22 11:39:03</time>
      </trkpt>
      <trkpt lat="41.18639" lon="1.08717">
        <ele>286.6</ele>
        <time>2020-08-22 11:39:04</time>
      </trkpt>
      <trkpt lat="41.18639" lon="1.08729">
        <ele>285.6</ele>
        <time>2020-08-22 11:39:05</time>
      </trkpt>
      <trkpt lat="41.18639" lon="1.0874">
        <ele>285.2</ele>
        <time>2020-08-22 11:39:06</time>
      </trkpt>
      <trkpt lat="41.18637" lon="1.08749">
        <ele>284</ele>
        <time>2020-08-22 11:39:07</time>
      </trkpt>
      <trkpt lat="41.18632" lon="1.08759">
        <ele>283.6</ele>
        <time>2020-08-22 11:39:08</time>
      </trkpt>
      <trkpt lat="41.18626" lon="1.08768">
        <ele>282.6</ele>
        <time>2020-08-22 11:39:09</time>
      </trkpt>
      <trkpt lat="41.1862" lon="1.08779">
        <ele>282</ele>
        <time>2020-08-22 11:39:10</time>
      </trkpt>
      <trkpt lat="41.18617" lon="1.08792">
        <ele>281.6</ele>
        <time>2020-08-22 11:39:11</time>
      </trkpt>
      <trkpt lat="41.18617" lon="1.08805">
        <ele>281.4</ele>
        <time>2020-08-22 11:39:12</time>
      </trkpt>
      <trkpt lat="41.18619" lon="1.08819">
        <ele>281</ele>
        <time>2020-08-22 11:39:13</time>
      </trkpt>
      <trkpt lat="41.18622" lon="1.08832">
        <ele>280.6</ele>
        <time>2020-08-22 11:39:14</time>
      </trkpt>
      <trkpt lat="41.18626" lon="1.08843">
        <ele>280.4</ele>
        <time>2020-08-22 11:39:15</time>
      </trkpt>
      <trkpt lat="41.18631" lon="1.08854">
        <ele>280.2</ele>
        <time>2020-08-22 11:39:16</time>
      </trkpt>
      <trkpt lat="41.18635" lon="1.08864">
        <ele>280</ele>
        <time>2020-08-22 11:39:17</time>
      </trkpt>
      <trkpt lat="41.18639" lon="1.08874">
        <ele>280</ele>
        <time>2020-08-22 11:39:18</time>
      </trkpt>
      <trkpt lat="41.18644" lon="1.08883">
        <ele>280</ele>
        <time>2020-08-22 11:39:19</time>
      </trkpt>
      <trkpt lat="41.18648" lon="1.08892">
        <ele>280</ele>
        <time>2020-08-22 11:39:20</time>
      </trkpt>
      <trkpt lat="41.18653" lon="1.08901">
        <ele>280</ele>
        <time>2020-08-22 11:39:21</time>
      </trkpt>
      <trkpt lat="41.18663" lon="1.08918">
        <ele>280.6</ele>
        <time>2020-08-22 11:39:23</time>
      </trkpt>
      <trkpt lat="41.18669" lon="1.08926">
        <ele>280.8</ele>
        <time>2020-08-22 11:39:24</time>
      </trkpt>
      <trkpt lat="41.18674" lon="1.08934">
        <ele>281.4</ele>
        <time>2020-08-22 11:39:25</time>
      </trkpt>
      <trkpt lat="41.18679" lon="1.08942">
        <ele>281.8</ele>
        <time>2020-08-22 11:39:26</time>
      </trkpt>
      <trkpt lat="41.18685" lon="1.08951">
        <ele>282.4</ele>
        <time>2020-08-22 11:39:27</time>
      </trkpt>
      <trkpt lat="41.1869" lon="1.08959">
        <ele>283</ele>
        <time>2020-08-22 11:39:28</time>
      </trkpt>
      <trkpt lat="41.18695" lon="1.08967">
        <ele>283.4</ele>
        <time>2020-08-22 11:39:29</time>
      </trkpt>
      <trkpt lat="41.187" lon="1.08974">
        <ele>284.2</ele>
        <time>2020-08-22 11:39:30</time>
      </trkpt>
      <trkpt lat="41.18704" lon="1.08982">
        <ele>285.2</ele>
        <time>2020-08-22 11:39:31</time>
      </trkpt>
      <trkpt lat="41.18708" lon="1.08988">
        <ele>286.2</ele>
        <time>2020-08-22 11:39:32</time>
      </trkpt>
      <trkpt lat="41.18712" lon="1.08994">
        <ele>286.6</ele>
        <time>2020-08-22 11:39:33</time>
      </trkpt>
      <trkpt lat="41.18715" lon="1.08999">
        <ele>287</ele>
        <time>2020-08-22 11:39:34</time>
      </trkpt>
      <trkpt lat="41.18717" lon="1.09005">
        <ele>287.6</ele>
        <time>2020-08-22 11:39:35</time>
      </trkpt>
      <trkpt lat="41.18717" lon="1.09011">
        <ele>288.2</ele>
        <time>2020-08-22 11:39:36</time>
      </trkpt>
      <trkpt lat="41.18714" lon="1.09018">
        <ele>288.6</ele>
        <time>2020-08-22 11:39:37</time>
      </trkpt>
      <trkpt lat="41.18712" lon="1.09025">
        <ele>288.6</ele>
        <time>2020-08-22 11:39:38</time>
      </trkpt>
      <trkpt lat="41.18709" lon="1.09033">
        <ele>288.8</ele>
        <time>2020-08-22 11:39:39</time>
      </trkpt>
      <trkpt lat="41.18707" lon="1.09041">
        <ele>288.8</ele>
        <time>2020-08-22 11:39:40</time>
      </trkpt>
      <trkpt lat="41.18704" lon="1.09049">
        <ele>288.8</ele>
        <time>2020-08-22 11:39:41</time>
      </trkpt>
      <trkpt lat="41.187" lon="1.09057">
        <ele>288.8</ele>
        <time>2020-08-22 11:39:42</time>
      </trkpt>
      <trkpt lat="41.18697" lon="1.09065">
        <ele>288.8</ele>
        <time>2020-08-22 11:39:43</time>
      </trkpt>
      <trkpt lat="41.18693" lon="1.09074">
        <ele>288.8</ele>
        <time>2020-08-22 11:39:44</time>
      </trkpt>
      <trkpt lat="41.18682" lon="1.09091">
        <ele>287.6</ele>
        <time>2020-08-22 11:39:46</time>
      </trkpt>
      <trkpt lat="41.18676" lon="1.09099">
        <ele>287.4</ele>
        <time>2020-08-22 11:39:47</time>
      </trkpt>
      <trkpt lat="41.18669" lon="1.09107">
        <ele>287.2</ele>
        <time>2020-08-22 11:39:48</time>
      </trkpt>
      <trkpt lat="41.18652" lon="1.09119">
        <ele>286.2</ele>
        <time>2020-08-22 11:39:50</time>
      </trkpt>
      <trkpt lat="41.18644" lon="1.09126">
        <ele>286</ele>
        <time>2020-08-22 11:39:51</time>
      </trkpt>
      <trkpt lat="41.18635" lon="1.09132">
        <ele>285.2</ele>
        <time>2020-08-22 11:39:52</time>
      </trkpt>
      <trkpt lat="41.18625" lon="1.09138">
        <ele>284.6</ele>
        <time>2020-08-22 11:39:53</time>
      </trkpt>
      <trkpt lat="41.18615" lon="1.09143">
        <ele>284.4</ele>
        <time>2020-08-22 11:39:54</time>
      </trkpt>
      <trkpt lat="41.18604" lon="1.09148">
        <ele>283.6</ele>
        <time>2020-08-22 11:39:55</time>
      </trkpt>
      <trkpt lat="41.18594" lon="1.09154">
        <ele>283</ele>
        <time>2020-08-22 11:39:56</time>
      </trkpt>
      <trkpt lat="41.18584" lon="1.09161">
        <ele>282</ele>
        <time>2020-08-22 11:39:57</time>
      </trkpt>
      <trkpt lat="41.18564" lon="1.09176">
        <ele>279.6</ele>
        <time>2020-08-22 11:39:59</time>
      </trkpt>
      <trkpt lat="41.18554" lon="1.09183">
        <ele>278.6</ele>
        <time>2020-08-22 11:40:00</time>
      </trkpt>
      <trkpt lat="41.18545" lon="1.0919">
        <ele>277.4</ele>
        <time>2020-08-22 11:40:01</time>
      </trkpt>
      <trkpt lat="41.18526" lon="1.09207">
        <ele>276.2</ele>
        <time>2020-08-22 11:40:03</time>
      </trkpt>
      <trkpt lat="41.18516" lon="1.09216">
        <ele>275</ele>
        <time>2020-08-22 11:40:04</time>
      </trkpt>
      <trkpt lat="41.18496" lon="1.09231">
        <ele>273.2</ele>
        <time>2020-08-22 11:40:06</time>
      </trkpt>
      <trkpt lat="41.18475" lon="1.09244">
        <ele>271.4</ele>
        <time>2020-08-22 11:40:08</time>
      </trkpt>
      <trkpt lat="41.18464" lon="1.0925">
        <ele>270.8</ele>
        <time>2020-08-22 11:40:09</time>
      </trkpt>
      <trkpt lat="41.18454" lon="1.09256">
        <ele>269.2</ele>
        <time>2020-08-22 11:40:10</time>
      </trkpt>
      <trkpt lat="41.18444" lon="1.09261">
        <ele>268.2</ele>
        <time>2020-08-22 11:40:11</time>
      </trkpt>
      <trkpt lat="41.18434" lon="1.09268">
        <ele>267.4</ele>
        <time>2020-08-22 11:40:12</time>
      </trkpt>
      <trkpt lat="41.18424" lon="1.09275">
        <ele>266.2</ele>
        <time>2020-08-22 11:40:13</time>
      </trkpt>
      <trkpt lat="41.18415" lon="1.09284">
        <ele>265.6</ele>
        <time>2020-08-22 11:40:14</time>
      </trkpt>
      <trkpt lat="41.18411" lon="1.09296">
        <ele>264.6</ele>
        <time>2020-08-22 11:40:15</time>
      </trkpt>
      <trkpt lat="41.18407" lon="1.09308">
        <ele>264.2</ele>
        <time>2020-08-22 11:40:16</time>
      </trkpt>
      <trkpt lat="41.18403" lon="1.0932">
        <ele>263.4</ele>
        <time>2020-08-22 11:40:17</time>
      </trkpt>
      <trkpt lat="41.18397" lon="1.09331">
        <ele>262.8</ele>
        <time>2020-08-22 11:40:18</time>
      </trkpt>
      <trkpt lat="41.1839" lon="1.09342">
        <ele>262.2</ele>
        <time>2020-08-22 11:40:19</time>
      </trkpt>
      <trkpt lat="41.18377" lon="1.09361">
        <ele>261.4</ele>
        <time>2020-08-22 11:40:21</time>
      </trkpt>
      <trkpt lat="41.18371" lon="1.09371">
        <ele>261</ele>
        <time>2020-08-22 11:40:22</time>
      </trkpt>
      <trkpt lat="41.18365" lon="1.09381">
        <ele>260.8</ele>
        <time>2020-08-22 11:40:23</time>
      </trkpt>
      <trkpt lat="41.1836" lon="1.09392">
        <ele>260.6</ele>
        <time>2020-08-22 11:40:24</time>
      </trkpt>
      <trkpt lat="41.18347" lon="1.09426">
        <ele>260</ele>
        <time>2020-08-22 11:40:27</time>
      </trkpt>
      <trkpt lat="41.18343" lon="1.09437">
        <ele>260</ele>
        <time>2020-08-22 11:40:28</time>
      </trkpt>
      <trkpt lat="41.18339" lon="1.09448">
        <ele>260</ele>
        <time>2020-08-22 11:40:29</time>
      </trkpt>
      <trkpt lat="41.18334" lon="1.09458">
        <ele>260</ele>
        <time>2020-08-22 11:40:30</time>
      </trkpt>
      <trkpt lat="41.18329" lon="1.09468">
        <ele>259.6</ele>
        <time>2020-08-22 11:40:31</time>
      </trkpt>
      <trkpt lat="41.18323" lon="1.09478">
        <ele>259.6</ele>
        <time>2020-08-22 11:40:32</time>
      </trkpt>
      <trkpt lat="41.18318" lon="1.09487">
        <ele>259.2</ele>
        <time>2020-08-22 11:40:33</time>
      </trkpt>
      <trkpt lat="41.18311" lon="1.09496">
        <ele>259.2</ele>
        <time>2020-08-22 11:40:34</time>
      </trkpt>
      <trkpt lat="41.18305" lon="1.09504">
        <ele>259</ele>
        <time>2020-08-22 11:40:35</time>
      </trkpt>
      <trkpt lat="41.18298" lon="1.09512">
        <ele>258.8</ele>
        <time>2020-08-22 11:40:36</time>
      </trkpt>
      <trkpt lat="41.18291" lon="1.0952">
        <ele>258.6</ele>
        <time>2020-08-22 11:40:37</time>
      </trkpt>
      <trkpt lat="41.18284" lon="1.09528">
        <ele>258.4</ele>
        <time>2020-08-22 11:40:38</time>
      </trkpt>
      <trkpt lat="41.18277" lon="1.09535">
        <ele>258.2</ele>
        <time>2020-08-22 11:40:39</time>
      </trkpt>
      <trkpt lat="41.1827" lon="1.09542">
        <ele>258</ele>
        <time>2020-08-22 11:40:40</time>
      </trkpt>
      <trkpt lat="41.18262" lon="1.09548">
        <ele>257.8</ele>
        <time>2020-08-22 11:40:41</time>
      </trkpt>
      <trkpt lat="41.18238" lon="1.09568">
        <ele>257</ele>
        <time>2020-08-22 11:40:44</time>
      </trkpt>
      <trkpt lat="41.1823" lon="1.09575">
        <ele>256.6</ele>
        <time>2020-08-22 11:40:45</time>
      </trkpt>
      <trkpt lat="41.18205" lon="1.09597">
        <ele>255.4</ele>
        <time>2020-08-22 11:40:48</time>
      </trkpt>
      <trkpt lat="41.18197" lon="1.09606">
        <ele>254</ele>
        <time>2020-08-22 11:40:49</time>
      </trkpt>
      <trkpt lat="41.18191" lon="1.09617">
        <ele>253.6</ele>
        <time>2020-08-22 11:40:50</time>
      </trkpt>
      <trkpt lat="41.18187" lon="1.09629">
        <ele>252.8</ele>
        <time>2020-08-22 11:40:51</time>
      </trkpt>
      <trkpt lat="41.18182" lon="1.09641">
        <ele>252.4</ele>
        <time>2020-08-22 11:40:52</time>
      </trkpt>
      <trkpt lat="41.18177" lon="1.09652">
        <ele>251.4</ele>
        <time>2020-08-22 11:40:53</time>
      </trkpt>
      <trkpt lat="41.18171" lon="1.09661">
        <ele>250.2</ele>
        <time>2020-08-22 11:40:54</time>
      </trkpt>
      <trkpt lat="41.18165" lon="1.09671">
        <ele>249.8</ele>
        <time>2020-08-22 11:40:55</time>
      </trkpt>
      <trkpt lat="41.18158" lon="1.0968">
        <ele>249</ele>
        <time>2020-08-22 11:40:56</time>
      </trkpt>
      <trkpt lat="41.18144" lon="1.09698">
        <ele>247.6</ele>
        <time>2020-08-22 11:40:58</time>
      </trkpt>
      <trkpt lat="41.18137" lon="1.09705">
        <ele>247.2</ele>
        <time>2020-08-22 11:40:59</time>
      </trkpt>
      <trkpt lat="41.18129" lon="1.09712">
        <ele>247</ele>
        <time>2020-08-22 11:41:00</time>
      </trkpt>
      <trkpt lat="41.18122" lon="1.0972">
        <ele>246.6</ele>
        <time>2020-08-22 11:41:01</time>
      </trkpt>
      <trkpt lat="41.18114" lon="1.09726">
        <ele>245.6</ele>
        <time>2020-08-22 11:41:02</time>
      </trkpt>
      <trkpt lat="41.18106" lon="1.09733">
        <ele>244.8</ele>
        <time>2020-08-22 11:41:03</time>
      </trkpt>
      <trkpt lat="41.18099" lon="1.0974">
        <ele>244.2</ele>
        <time>2020-08-22 11:41:04</time>
      </trkpt>
      <trkpt lat="41.18092" lon="1.09745">
        <ele>243.6</ele>
        <time>2020-08-22 11:41:05</time>
      </trkpt>
      <trkpt lat="41.18087" lon="1.0975">
        <ele>243.4</ele>
        <time>2020-08-22 11:41:06</time>
      </trkpt>
      <trkpt lat="41.18084" lon="1.09754">
        <ele>243</ele>
        <time>2020-08-22 11:41:07</time>
      </trkpt>
      <trkpt lat="41.18083" lon="1.09759">
        <ele>242.8</ele>
        <time>2020-08-22 11:41:08</time>
      </trkpt>
      <trkpt lat="41.18083" lon="1.09763">
        <ele>242</ele>
        <time>2020-08-22 11:41:09</time>
      </trkpt>
      <trkpt lat="41.18085" lon="1.09767">
        <ele>240.8</ele>
        <time>2020-08-22 11:41:10</time>
      </trkpt>
      <trkpt lat="41.18088" lon="1.09772">
        <ele>240.4</ele>
        <time>2020-08-22 11:41:11</time>
      </trkpt>
      <trkpt lat="41.1809" lon="1.09778">
        <ele>239.4</ele>
        <time>2020-08-22 11:41:12</time>
      </trkpt>
      <trkpt lat="41.18094" lon="1.0979">
        <ele>238.4</ele>
        <time>2020-08-22 11:41:14</time>
      </trkpt>
      <trkpt lat="41.18096" lon="1.09803">
        <ele>237</ele>
        <time>2020-08-22 11:41:16</time>
      </trkpt>
      <trkpt lat="41.18097" lon="1.09817">
        <ele>235.8</ele>
        <time>2020-08-22 11:41:18</time>
      </trkpt>
      <trkpt lat="41.18099" lon="1.09844">
        <ele>234.6</ele>
        <time>2020-08-22 11:41:21</time>
      </trkpt>
      <trkpt lat="41.18098" lon="1.09853">
        <ele>234.4</ele>
        <time>2020-08-22 11:41:22</time>
      </trkpt>
      <trkpt lat="41.18097" lon="1.09863">
        <ele>234</ele>
        <time>2020-08-22 11:41:23</time>
      </trkpt>
      <trkpt lat="41.18091" lon="1.09884">
        <ele>232.8</ele>
        <time>2020-08-22 11:41:25</time>
      </trkpt>
      <trkpt lat="41.18088" lon="1.09895">
        <ele>232.4</ele>
        <time>2020-08-22 11:41:26</time>
      </trkpt>
      <trkpt lat="41.18084" lon="1.09906">
        <ele>231.2</ele>
        <time>2020-08-22 11:41:27</time>
      </trkpt>
      <trkpt lat="41.18077" lon="1.09927">
        <ele>229.8</ele>
        <time>2020-08-22 11:41:29</time>
      </trkpt>
      <trkpt lat="41.18074" lon="1.09936">
        <ele>228.6</ele>
        <time>2020-08-22 11:41:30</time>
      </trkpt>
      <trkpt lat="41.1807" lon="1.09944">
        <ele>228.4</ele>
        <time>2020-08-22 11:41:31</time>
      </trkpt>
      <trkpt lat="41.18066" lon="1.0995">
        <ele>227.8</ele>
        <time>2020-08-22 11:41:32</time>
      </trkpt>
      <trkpt lat="41.18063" lon="1.09955">
        <ele>227.6</ele>
        <time>2020-08-22 11:41:33</time>
      </trkpt>
      <trkpt lat="41.18061" lon="1.09961">
        <ele>227.4</ele>
        <time>2020-08-22 11:41:34</time>
      </trkpt>
      <trkpt lat="41.1806" lon="1.09967">
        <ele>227.4</ele>
        <time>2020-08-22 11:41:35</time>
      </trkpt>
      <trkpt lat="41.18059" lon="1.09974">
        <ele>227.2</ele>
        <time>2020-08-22 11:41:36</time>
      </trkpt>
      <trkpt lat="41.18057" lon="1.0998">
        <ele>227.2</ele>
        <time>2020-08-22 11:41:37</time>
      </trkpt>
      <trkpt lat="41.18054" lon="1.09987">
        <ele>227.2</ele>
        <time>2020-08-22 11:41:38</time>
      </trkpt>
      <trkpt lat="41.1805" lon="1.09994">
        <ele>227</ele>
        <time>2020-08-22 11:41:39</time>
      </trkpt>
      <trkpt lat="41.18039" lon="1.10008">
        <ele>227</ele>
        <time>2020-08-22 11:41:41</time>
      </trkpt>
      <trkpt lat="41.18029" lon="1.10023">
        <ele>226.6</ele>
        <time>2020-08-22 11:41:43</time>
      </trkpt>
      <trkpt lat="41.18007" lon="1.10053">
        <ele>225.8</ele>
        <time>2020-08-22 11:41:47</time>
      </trkpt>
      <trkpt lat="41.18001" lon="1.1006">
        <ele>225.6</ele>
        <time>2020-08-22 11:41:48</time>
      </trkpt>
      <trkpt lat="41.17996" lon="1.10068">
        <ele>225.6</ele>
        <time>2020-08-22 11:41:49</time>
      </trkpt>
      <trkpt lat="41.17991" lon="1.10075">
        <ele>225.6</ele>
        <time>2020-08-22 11:41:50</time>
      </trkpt>
      <trkpt lat="41.17986" lon="1.10083">
        <ele>225.4</ele>
        <time>2020-08-22 11:41:51</time>
      </trkpt>
      <trkpt lat="41.17981" lon="1.10091">
        <ele>225.4</ele>
        <time>2020-08-22 11:41:52</time>
      </trkpt>
      <trkpt lat="41.17975" lon="1.10098">
        <ele>225.2</ele>
        <time>2020-08-22 11:41:53</time>
      </trkpt>
      <trkpt lat="41.17969" lon="1.10105">
        <ele>225</ele>
        <time>2020-08-22 11:41:54</time>
      </trkpt>
      <trkpt lat="41.17963" lon="1.10112">
        <ele>224.8</ele>
        <time>2020-08-22 11:41:55</time>
      </trkpt>
      <trkpt lat="41.17957" lon="1.10118">
        <ele>224.8</ele>
        <time>2020-08-22 11:41:56</time>
      </trkpt>
      <trkpt lat="41.1795" lon="1.10125">
        <ele>224.6</ele>
        <time>2020-08-22 11:41:57</time>
      </trkpt>
      <trkpt lat="41.17919" lon="1.1015">
        <ele>223.4</ele>
        <time>2020-08-22 11:42:01</time>
      </trkpt>
      <trkpt lat="41.17902" lon="1.10164">
        <ele>222</ele>
        <time>2020-08-22 11:42:03</time>
      </trkpt>
      <trkpt lat="41.17894" lon="1.10171">
        <ele>221.2</ele>
        <time>2020-08-22 11:42:04</time>
      </trkpt>
      <trkpt lat="41.17886" lon="1.10177">
        <ele>220.8</ele>
        <time>2020-08-22 11:42:05</time>
      </trkpt>
      <trkpt lat="41.17878" lon="1.10183">
        <ele>220</ele>
        <time>2020-08-22 11:42:06</time>
      </trkpt>
      <trkpt lat="41.17871" lon="1.10189">
        <ele>219.8</ele>
        <time>2020-08-22 11:42:07</time>
      </trkpt>
      <trkpt lat="41.17865" lon="1.10193">
        <ele>219.6</ele>
        <time>2020-08-22 11:42:08</time>
      </trkpt>
      <trkpt lat="41.17859" lon="1.10198">
        <ele>219.6</ele>
        <time>2020-08-22 11:42:09</time>
      </trkpt>
      <trkpt lat="41.17853" lon="1.10202">
        <ele>219.6</ele>
        <time>2020-08-22 11:42:10</time>
      </trkpt>
      <trkpt lat="41.17847" lon="1.10206">
        <ele>219.6</ele>
        <time>2020-08-22 11:42:11</time>
      </trkpt>
      <trkpt lat="41.17842" lon="1.1021">
        <ele>219.6</ele>
        <time>2020-08-22 11:42:12</time>
      </trkpt>
      <trkpt lat="41.17837" lon="1.10214">
        <ele>219.6</ele>
        <time>2020-08-22 11:42:13</time>
      </trkpt>
      <trkpt lat="41.17809" lon="1.10235">
        <ele>220.4</ele>
        <time>2020-08-22 11:42:18</time>
      </trkpt>
      <trkpt lat="41.17803" lon="1.10239">
        <ele>220.4</ele>
        <time>2020-08-22 11:42:19</time>
      </trkpt>
      <trkpt lat="41.17797" lon="1.10243">
        <ele>220.4</ele>
        <time>2020-08-22 11:42:20</time>
      </trkpt>
      <trkpt lat="41.17783" lon="1.10249">
        <ele>220.4</ele>
        <time>2020-08-22 11:42:22</time>
      </trkpt>
      <trkpt lat="41.1774" lon="1.10271">
        <ele>218.8</ele>
        <time>2020-08-22 11:42:28</time>
      </trkpt>
      <trkpt lat="41.17733" lon="1.10275">
        <ele>218.6</ele>
        <time>2020-08-22 11:42:29</time>
      </trkpt>
      <trkpt lat="41.17703" lon="1.10292">
        <ele>217</ele>
        <time>2020-08-22 11:42:33</time>
      </trkpt>
      <trkpt lat="41.17679" lon="1.10303">
        <ele>216</ele>
        <time>2020-08-22 11:42:36</time>
      </trkpt>
      <trkpt lat="41.17671" lon="1.10307">
        <ele>215.8</ele>
        <time>2020-08-22 11:42:37</time>
      </trkpt>
      <trkpt lat="41.17655" lon="1.10315">
        <ele>215.2</ele>
        <time>2020-08-22 11:42:39</time>
      </trkpt>
      <trkpt lat="41.17647" lon="1.10321">
        <ele>214.8</ele>
        <time>2020-08-22 11:42:40</time>
      </trkpt>
      <trkpt lat="41.1763" lon="1.1033">
        <ele>214.4</ele>
        <time>2020-08-22 11:42:42</time>
      </trkpt>
      <trkpt lat="41.17622" lon="1.10335">
        <ele>214</ele>
        <time>2020-08-22 11:42:43</time>
      </trkpt>
      <trkpt lat="41.17606" lon="1.10343">
        <ele>212.8</ele>
        <time>2020-08-22 11:42:45</time>
      </trkpt>
      <trkpt lat="41.17574" lon="1.1036">
        <ele>211.6</ele>
        <time>2020-08-22 11:42:49</time>
      </trkpt>
      <trkpt lat="41.17566" lon="1.10364">
        <ele>211.2</ele>
        <time>2020-08-22 11:42:50</time>
      </trkpt>
      <trkpt lat="41.17558" lon="1.10369">
        <ele>210.8</ele>
        <time>2020-08-22 11:42:51</time>
      </trkpt>
      <trkpt lat="41.1755" lon="1.10373">
        <ele>210.6</ele>
        <time>2020-08-22 11:42:52</time>
      </trkpt>
      <trkpt lat="41.17542" lon="1.10377">
        <ele>210</ele>
        <time>2020-08-22 11:42:53</time>
      </trkpt>
      <trkpt lat="41.17534" lon="1.10381">
        <ele>209.4</ele>
        <time>2020-08-22 11:42:54</time>
      </trkpt>
      <trkpt lat="41.17525" lon="1.10385">
        <ele>209.2</ele>
        <time>2020-08-22 11:42:55</time>
      </trkpt>
      <trkpt lat="41.17517" lon="1.10388">
        <ele>208.8</ele>
        <time>2020-08-22 11:42:56</time>
      </trkpt>
      <trkpt lat="41.17509" lon="1.10392">
        <ele>208.6</ele>
        <time>2020-08-22 11:42:57</time>
      </trkpt>
      <trkpt lat="41.17501" lon="1.10396">
        <ele>208.2</ele>
        <time>2020-08-22 11:42:58</time>
      </trkpt>
      <trkpt lat="41.17493" lon="1.10399">
        <ele>208</ele>
        <time>2020-08-22 11:42:59</time>
      </trkpt>
      <trkpt lat="41.17486" lon="1.10404">
        <ele>207.6</ele>
        <time>2020-08-22 11:43:00</time>
      </trkpt>
      <trkpt lat="41.17478" lon="1.1041">
        <ele>207.4</ele>
        <time>2020-08-22 11:43:01</time>
      </trkpt>
      <trkpt lat="41.1747" lon="1.10415">
        <ele>207</ele>
        <time>2020-08-22 11:43:02</time>
      </trkpt>
      <trkpt lat="41.17463" lon="1.10419">
        <ele>206.8</ele>
        <time>2020-08-22 11:43:03</time>
      </trkpt>
      <trkpt lat="41.17455" lon="1.10423">
        <ele>206.6</ele>
        <time>2020-08-22 11:43:04</time>
      </trkpt>
      <trkpt lat="41.17439" lon="1.10431">
        <ele>206</ele>
        <time>2020-08-22 11:43:06</time>
      </trkpt>
      <trkpt lat="41.17431" lon="1.10435">
        <ele>205.4</ele>
        <time>2020-08-22 11:43:07</time>
      </trkpt>
      <trkpt lat="41.17423" lon="1.10439">
        <ele>205</ele>
        <time>2020-08-22 11:43:08</time>
      </trkpt>
      <trkpt lat="41.17415" lon="1.10443">
        <ele>204.4</ele>
        <time>2020-08-22 11:43:09</time>
      </trkpt>
      <trkpt lat="41.17407" lon="1.10448">
        <ele>204</ele>
        <time>2020-08-22 11:43:10</time>
      </trkpt>
      <trkpt lat="41.17399" lon="1.10451">
        <ele>203.4</ele>
        <time>2020-08-22 11:43:11</time>
      </trkpt>
      <trkpt lat="41.17392" lon="1.10455">
        <ele>202.8</ele>
        <time>2020-08-22 11:43:12</time>
      </trkpt>
      <trkpt lat="41.17384" lon="1.10458">
        <ele>202.6</ele>
        <time>2020-08-22 11:43:13</time>
      </trkpt>
      <trkpt lat="41.17378" lon="1.10461">
        <ele>202</ele>
        <time>2020-08-22 11:43:14</time>
      </trkpt>
      <trkpt lat="41.17371" lon="1.10464">
        <ele>201.8</ele>
        <time>2020-08-22 11:43:15</time>
      </trkpt>
      <trkpt lat="41.17365" lon="1.10467">
        <ele>201.6</ele>
        <time>2020-08-22 11:43:16</time>
      </trkpt>
      <trkpt lat="41.17358" lon="1.10471">
        <ele>201.2</ele>
        <time>2020-08-22 11:43:17</time>
      </trkpt>
      <trkpt lat="41.17351" lon="1.10475">
        <ele>200.6</ele>
        <time>2020-08-22 11:43:18</time>
      </trkpt>
      <trkpt lat="41.17328" lon="1.10488">
        <ele>199.4</ele>
        <time>2020-08-22 11:43:21</time>
      </trkpt>
      <trkpt lat="41.17321" lon="1.10492">
        <ele>199</ele>
        <time>2020-08-22 11:43:22</time>
      </trkpt>
      <trkpt lat="41.17313" lon="1.10496">
        <ele>198.4</ele>
        <time>2020-08-22 11:43:23</time>
      </trkpt>
      <trkpt lat="41.17298" lon="1.10505">
        <ele>197.4</ele>
        <time>2020-08-22 11:43:25</time>
      </trkpt>
      <trkpt lat="41.17282" lon="1.10512">
        <ele>196.6</ele>
        <time>2020-08-22 11:43:27</time>
      </trkpt>
      <trkpt lat="41.17274" lon="1.10514">
        <ele>196.4</ele>
        <time>2020-08-22 11:43:28</time>
      </trkpt>
      <trkpt lat="41.17267" lon="1.10517">
        <ele>196</ele>
        <time>2020-08-22 11:43:29</time>
      </trkpt>
      <trkpt lat="41.17251" lon="1.10526">
        <ele>195.2</ele>
        <time>2020-08-22 11:43:31</time>
      </trkpt>
      <trkpt lat="41.17242" lon="1.1053">
        <ele>194.8</ele>
        <time>2020-08-22 11:43:32</time>
      </trkpt>
      <trkpt lat="41.17227" lon="1.10536">
        <ele>194</ele>
        <time>2020-08-22 11:43:34</time>
      </trkpt>
      <trkpt lat="41.17219" lon="1.10539">
        <ele>193.8</ele>
        <time>2020-08-22 11:43:35</time>
      </trkpt>
      <trkpt lat="41.17211" lon="1.10542">
        <ele>193.6</ele>
        <time>2020-08-22 11:43:36</time>
      </trkpt>
      <trkpt lat="41.17203" lon="1.10545">
        <ele>193</ele>
        <time>2020-08-22 11:43:37</time>
      </trkpt>
      <trkpt lat="41.17195" lon="1.10549">
        <ele>192.8</ele>
        <time>2020-08-22 11:43:38</time>
      </trkpt>
      <trkpt lat="41.17187" lon="1.10552">
        <ele>192.4</ele>
        <time>2020-08-22 11:43:39</time>
      </trkpt>
      <trkpt lat="41.1718" lon="1.10554">
        <ele>192.2</ele>
        <time>2020-08-22 11:43:40</time>
      </trkpt>
      <trkpt lat="41.17174" lon="1.10556">
        <ele>191.4</ele>
        <time>2020-08-22 11:43:41</time>
      </trkpt>
      <trkpt lat="41.17168" lon="1.10553">
        <ele>190.8</ele>
        <time>2020-08-22 11:43:42</time>
      </trkpt>
      <trkpt lat="41.17164" lon="1.10548">
        <ele>190</ele>
        <time>2020-08-22 11:43:43</time>
      </trkpt>
      <trkpt lat="41.17159" lon="1.10543">
        <ele>189.8</ele>
        <time>2020-08-22 11:43:44</time>
      </trkpt>
      <trkpt lat="41.17154" lon="1.10538">
        <ele>189.2</ele>
        <time>2020-08-22 11:43:45</time>
      </trkpt>
      <trkpt lat="41.17148" lon="1.10535">
        <ele>189</ele>
        <time>2020-08-22 11:43:46</time>
      </trkpt>
      <trkpt lat="41.17142" lon="1.10534">
        <ele>189</ele>
        <time>2020-08-22 11:43:47</time>
      </trkpt>
      <trkpt lat="41.17113" lon="1.10539">
        <ele>188</ele>
        <time>2020-08-22 11:43:51</time>
      </trkpt>
      <trkpt lat="41.17105" lon="1.1054">
        <ele>187.6</ele>
        <time>2020-08-22 11:43:52</time>
      </trkpt>
      <trkpt lat="41.17071" lon="1.10545">
        <ele>186.8</ele>
        <time>2020-08-22 11:43:56</time>
      </trkpt>
      <trkpt lat="41.17062" lon="1.10546">
        <ele>186.6</ele>
        <time>2020-08-22 11:43:57</time>
      </trkpt>
      <trkpt lat="41.17054" lon="1.10547">
        <ele>186.4</ele>
        <time>2020-08-22 11:43:58</time>
      </trkpt>
      <trkpt lat="41.1701" lon="1.10553">
        <ele>185.4</ele>
        <time>2020-08-22 11:44:03</time>
      </trkpt>
      <trkpt lat="41.16991" lon="1.10556">
        <ele>184.6</ele>
        <time>2020-08-22 11:44:05</time>
      </trkpt>
      <trkpt lat="41.16973" lon="1.10558">
        <ele>184.2</ele>
        <time>2020-08-22 11:44:07</time>
      </trkpt>
      <trkpt lat="41.16947" lon="1.10561">
        <ele>183.2</ele>
        <time>2020-08-22 11:44:10</time>
      </trkpt>
      <trkpt lat="41.16921" lon="1.10564">
        <ele>182.2</ele>
        <time>2020-08-22 11:44:13</time>
      </trkpt>
      <trkpt lat="41.16912" lon="1.10565">
        <ele>182.2</ele>
        <time>2020-08-22 11:44:14</time>
      </trkpt>
      <trkpt lat="41.16903" lon="1.10565">
        <ele>182</ele>
        <time>2020-08-22 11:44:15</time>
      </trkpt>
      <trkpt lat="41.16895" lon="1.10565">
        <ele>181.8</ele>
        <time>2020-08-22 11:44:16</time>
      </trkpt>
      <trkpt lat="41.16886" lon="1.10566">
        <ele>181.6</ele>
        <time>2020-08-22 11:44:17</time>
      </trkpt>
      <trkpt lat="41.16878" lon="1.10566">
        <ele>181.4</ele>
        <time>2020-08-22 11:44:18</time>
      </trkpt>
      <trkpt lat="41.1687" lon="1.10565">
        <ele>181</ele>
        <time>2020-08-22 11:44:19</time>
      </trkpt>
      <trkpt lat="41.16862" lon="1.10564">
        <ele>180.6</ele>
        <time>2020-08-22 11:44:20</time>
      </trkpt>
      <trkpt lat="41.16855" lon="1.10562">
        <ele>180.6</ele>
        <time>2020-08-22 11:44:21</time>
      </trkpt>
      <trkpt lat="41.16847" lon="1.10559">
        <ele>180.4</ele>
        <time>2020-08-22 11:44:22</time>
      </trkpt>
      <trkpt lat="41.16832" lon="1.1055">
        <ele>180</ele>
        <time>2020-08-22 11:44:24</time>
      </trkpt>
      <trkpt lat="41.16817" lon="1.1054">
        <ele>179.6</ele>
        <time>2020-08-22 11:44:26</time>
      </trkpt>
      <trkpt lat="41.16763" lon="1.10509">
        <ele>178.8</ele>
        <time>2020-08-22 11:44:33</time>
      </trkpt>
      <trkpt lat="41.16756" lon="1.10504">
        <ele>178.8</ele>
        <time>2020-08-22 11:44:34</time>
      </trkpt>
      <trkpt lat="41.1675" lon="1.105">
        <ele>178.8</ele>
        <time>2020-08-22 11:44:35</time>
      </trkpt>
      <trkpt lat="41.16744" lon="1.10495">
        <ele>178.8</ele>
        <time>2020-08-22 11:44:36</time>
      </trkpt>
      <trkpt lat="41.16738" lon="1.10492">
        <ele>178.8</ele>
        <time>2020-08-22 11:44:37</time>
      </trkpt>
      <trkpt lat="41.16732" lon="1.10488">
        <ele>178.8</ele>
        <time>2020-08-22 11:44:38</time>
      </trkpt>
      <trkpt lat="41.16726" lon="1.10485">
        <ele>178.8</ele>
        <time>2020-08-22 11:44:39</time>
      </trkpt>
      <trkpt lat="41.16721" lon="1.10482">
        <ele>178.8</ele>
        <time>2020-08-22 11:44:40</time>
      </trkpt>
      <trkpt lat="41.16715" lon="1.10478">
        <ele>178.8</ele>
        <time>2020-08-22 11:44:41</time>
      </trkpt>
      <trkpt lat="41.1671" lon="1.10474">
        <ele>179</ele>
        <time>2020-08-22 11:44:42</time>
      </trkpt>
      <trkpt lat="41.16698" lon="1.10463">
        <ele>179.2</ele>
        <time>2020-08-22 11:44:44</time>
      </trkpt>
      <trkpt lat="41.16691" lon="1.10458">
        <ele>178.8</ele>
        <time>2020-08-22 11:44:45</time>
      </trkpt>
      <trkpt lat="41.16683" lon="1.10454">
        <ele>178.8</ele>
        <time>2020-08-22 11:44:46</time>
      </trkpt>
      <trkpt lat="41.16675" lon="1.10453">
        <ele>178.4</ele>
        <time>2020-08-22 11:44:47</time>
      </trkpt>
      <trkpt lat="41.16668" lon="1.10454">
        <ele>178.6</ele>
        <time>2020-08-22 11:44:48</time>
      </trkpt>
      <trkpt lat="41.16661" lon="1.10455">
        <ele>177.8</ele>
        <time>2020-08-22 11:44:49</time>
      </trkpt>
      <trkpt lat="41.16654" lon="1.10456">
        <ele>177.4</ele>
        <time>2020-08-22 11:44:50</time>
      </trkpt>
      <trkpt lat="41.16647" lon="1.10458">
        <ele>176.8</ele>
        <time>2020-08-22 11:44:51</time>
      </trkpt>
      <trkpt lat="41.16641" lon="1.10461">
        <ele>176.6</ele>
        <time>2020-08-22 11:44:52</time>
      </trkpt>
      <trkpt lat="41.16634" lon="1.10465">
        <ele>176.2</ele>
        <time>2020-08-22 11:44:53</time>
      </trkpt>
      <trkpt lat="41.16628" lon="1.10469">
        <ele>176</ele>
        <time>2020-08-22 11:44:54</time>
      </trkpt>
      <trkpt lat="41.16623" lon="1.10475">
        <ele>175.8</ele>
        <time>2020-08-22 11:44:55</time>
      </trkpt>
      <trkpt lat="41.16617" lon="1.10481">
        <ele>175.6</ele>
        <time>2020-08-22 11:44:56</time>
      </trkpt>
      <trkpt lat="41.16612" lon="1.10486">
        <ele>175.6</ele>
        <time>2020-08-22 11:44:57</time>
      </trkpt>
      <trkpt lat="41.16606" lon="1.10492">
        <ele>175.2</ele>
        <time>2020-08-22 11:44:58</time>
      </trkpt>
      <trkpt lat="41.16601" lon="1.10498">
        <ele>175</ele>
        <time>2020-08-22 11:44:59</time>
      </trkpt>
      <trkpt lat="41.16596" lon="1.10504">
        <ele>174.6</ele>
        <time>2020-08-22 11:45:00</time>
      </trkpt>
      <trkpt lat="41.1659" lon="1.1051">
        <ele>174.6</ele>
        <time>2020-08-22 11:45:01</time>
      </trkpt>
      <trkpt lat="41.16579" lon="1.10523">
        <ele>173.8</ele>
        <time>2020-08-22 11:45:03</time>
      </trkpt>
      <trkpt lat="41.16568" lon="1.10535">
        <ele>173.2</ele>
        <time>2020-08-22 11:45:05</time>
      </trkpt>
      <trkpt lat="41.16562" lon="1.10542">
        <ele>173.2</ele>
        <time>2020-08-22 11:45:06</time>
      </trkpt>
      <trkpt lat="41.16556" lon="1.1055">
        <ele>172.8</ele>
        <time>2020-08-22 11:45:07</time>
      </trkpt>
      <trkpt lat="41.1654" lon="1.10569">
        <ele>172</ele>
        <time>2020-08-22 11:45:10</time>
      </trkpt>
      <trkpt lat="41.16534" lon="1.10575">
        <ele>171.8</ele>
        <time>2020-08-22 11:45:11</time>
      </trkpt>
      <trkpt lat="41.16529" lon="1.10582">
        <ele>171.6</ele>
        <time>2020-08-22 11:45:12</time>
      </trkpt>
      <trkpt lat="41.16527" lon="1.10591">
        <ele>171.4</ele>
        <time>2020-08-22 11:45:13</time>
      </trkpt>
      <trkpt lat="41.16528" lon="1.106">
        <ele>170.8</ele>
        <time>2020-08-22 11:45:14</time>
      </trkpt>
      <trkpt lat="41.1653" lon="1.10608">
        <ele>170.6</ele>
        <time>2020-08-22 11:45:15</time>
      </trkpt>
      <trkpt lat="41.16534" lon="1.10615">
        <ele>170.2</ele>
        <time>2020-08-22 11:45:16</time>
      </trkpt>
      <trkpt lat="41.16538" lon="1.1062">
        <ele>170</ele>
        <time>2020-08-22 11:45:17</time>
      </trkpt>
      <trkpt lat="41.16543" lon="1.10626">
        <ele>169.8</ele>
        <time>2020-08-22 11:45:18</time>
      </trkpt>
      <trkpt lat="41.16548" lon="1.10631">
        <ele>169.8</ele>
        <time>2020-08-22 11:45:19</time>
      </trkpt>
      <trkpt lat="41.16552" lon="1.10636">
        <ele>169.6</ele>
        <time>2020-08-22 11:45:20</time>
      </trkpt>
      <trkpt lat="41.16555" lon="1.10641">
        <ele>169.6</ele>
        <time>2020-08-22 11:45:21</time>
      </trkpt>
      <trkpt lat="41.16559" lon="1.10646">
        <ele>169.6</ele>
        <time>2020-08-22 11:45:22</time>
      </trkpt>
      <trkpt lat="41.16561" lon="1.10649">
        <ele>169.6</ele>
        <time>2020-08-22 11:45:23</time>
      </trkpt>
      <trkpt lat="41.16562" lon="1.10651">
        <ele>169.4</ele>
        <time>2020-08-22 11:45:24</time>
      </trkpt>
      <trkpt lat="41.16563" lon="1.10651">
        <ele>169.4</ele>
        <time>2020-08-22 11:45:25</time>
      </trkpt>
      <trkpt lat="41.16563" lon="1.10652">
        <ele>169.4</ele>
        <time>2020-08-22 11:45:26</time>
      </trkpt>
      <trkpt lat="41.16564" lon="1.10654">
        <ele>169.4</ele>
        <time>2020-08-22 11:45:27</time>
      </trkpt>
      <trkpt lat="41.16565" lon="1.10655">
        <ele>169.2</ele>
        <time>2020-08-22 11:45:28</time>
      </trkpt>
      <trkpt lat="41.16566" lon="1.10656">
        <ele>169.2</ele>
        <time>2020-08-22 11:45:29</time>
      </trkpt>
      <trkpt lat="41.16567" lon="1.10658">
        <ele>169.2</ele>
        <time>2020-08-22 11:45:30</time>
      </trkpt>
      <trkpt lat="41.16569" lon="1.10662">
        <ele>169.2</ele>
        <time>2020-08-22 11:45:32</time>
      </trkpt>
      <trkpt lat="41.16572" lon="1.10665">
        <ele>169.2</ele>
        <time>2020-08-22 11:45:34</time>
      </trkpt>
      <trkpt lat="41.16572" lon="1.10667">
        <ele>169.2</ele>
        <time>2020-08-22 11:45:35</time>
      </trkpt>
      <trkpt lat="41.16572" lon="1.10669">
        <ele>169.2</ele>
        <time>2020-08-22 11:45:36</time>
      </trkpt>
      <trkpt lat="41.16574" lon="1.1067">
        <ele>169.2</ele>
        <time>2020-08-22 11:45:37</time>
      </trkpt>
    </trkseg>
  </trk>
</gpx>
